<?xml version='1.0' encoding='UTF-8'?><gpx version="1.1" creator="JPX - https://github.com/jenetics/jpx" xmlns="http://www.topografix.com/GPX/1/1"><trk><trkseg><trkpt lat="45.6613157" lon="11.5936634"><ele>66.0</ele><time>2026-04-25T12:58:25.999Z</time></trkpt><trkpt lat="45.6613792" lon="11.5935865"><ele>66.0</ele><time>2026-04-25T12:58:28.917Z</time></trkpt><trkpt lat="45.6613327" lon="11.5935252"><ele>66.0</ele><time>2026-04-25T12:58:29.924Z</time></trkpt><trkpt lat="45.661332" lon="11.5933587"><ele>66.0</ele><time>2026-04-25T12:58:31.937Z</time></trkpt><trkpt lat="45.6613581" lon="11.5932325"><ele>66.0</ele><time>2026-04-25T12:58:33.95Z</time></trkpt><trkpt lat="45.661373" lon="11.5931259"><ele>66.0</ele><time>2026-04-25T12:58:35.964Z</time></trkpt><trkpt lat="45.6613895" lon="11.5930227"><ele>66.0</ele><time>2026-04-25T12:58:37.871Z</time></trkpt><trkpt lat="45.6614404" lon="11.5929423"><ele>66.0</ele><time>2026-04-25T12:58:39.891Z</time></trkpt><trkpt lat="45.6615253" lon="11.5929507"><ele>66.0</ele><time>2026-04-25T12:58:41.904Z</time></trkpt><trkpt lat="45.6615983" lon="11.5929984"><ele>66.0</ele><time>2026-04-25T12:58:43.916Z</time></trkpt><trkpt lat="45.6616779" lon="11.5930466"><ele>66.0</ele><time>2026-04-25T12:58:45.931Z</time></trkpt><trkpt lat="45.6617501" lon="11.59313"><ele>66.0</ele><time>2026-04-25T12:58:47.866Z</time></trkpt><trkpt lat="45.6618146" lon="11.5931735"><ele>66.0</ele><time>2026-04-25T12:58:49.866Z</time></trkpt><trkpt lat="45.6618825" lon="11.5932075"><ele>66.0</ele><time>2026-04-25T12:58:51.866Z</time></trkpt><trkpt lat="45.661948" lon="11.5932523"><ele>66.0</ele><time>2026-04-25T12:58:53.866Z</time></trkpt><trkpt lat="45.6620114" lon="11.5932917"><ele>66.0</ele><time>2026-04-25T12:58:55.866Z</time></trkpt><trkpt lat="45.6620889" lon="11.5933572"><ele>66.0</ele><time>2026-04-25T12:58:58.866Z</time></trkpt><trkpt lat="45.6621347" lon="11.5934211"><ele>66.0</ele><time>2026-04-25T12:59:01.866Z</time></trkpt><trkpt lat="45.6620926" lon="11.5935191"><ele>66.0</ele><time>2026-04-25T12:59:06.867Z</time></trkpt><trkpt lat="45.6620642" lon="11.5936392"><ele>66.14285714285714</ele><time>2026-04-25T12:59:09.866Z</time></trkpt><trkpt lat="45.6621217" lon="11.5935813"><ele>66.28571428571429</ele><time>2026-04-25T12:59:12.866Z</time></trkpt><trkpt lat="45.6621337" lon="11.5934886"><ele>66.42857142857143</ele><time>2026-04-25T12:59:14.866Z</time></trkpt><trkpt lat="45.6621749" lon="11.5933906"><ele>66.57142857142857</ele><time>2026-04-25T12:59:17.866Z</time></trkpt><trkpt lat="45.6621914" lon="11.5932909"><ele>66.71428571428571</ele><time>2026-04-25T12:59:22.866Z</time></trkpt><trkpt lat="45.6622545" lon="11.5933665"><ele>66.85714285714286</ele><time>2026-04-25T12:59:25.866Z</time></trkpt><trkpt lat="45.6623111" lon="11.5934223"><ele>67.0</ele><time>2026-04-25T12:59:27.866Z</time></trkpt><trkpt lat="45.6623776" lon="11.5934763"><ele>67.0</ele><time>2026-04-25T12:59:29.866Z</time></trkpt><trkpt lat="45.6624367" lon="11.5935329"><ele>67.0</ele><time>2026-04-25T12:59:31.866Z</time></trkpt><trkpt lat="45.662494" lon="11.5935962"><ele>67.0</ele><time>2026-04-25T12:59:33.866Z</time></trkpt><trkpt lat="45.6625423" lon="11.5936748"><ele>67.0</ele><time>2026-04-25T12:59:35.866Z</time></trkpt><trkpt lat="45.662604" lon="11.5937398"><ele>67.0</ele><time>2026-04-25T12:59:37.866Z</time></trkpt><trkpt lat="45.6626616" lon="11.593811"><ele>67.0</ele><time>2026-04-25T12:59:39.867Z</time></trkpt><trkpt lat="45.6627171" lon="11.5938858"><ele>67.0</ele><time>2026-04-25T12:59:41.866Z</time></trkpt><trkpt lat="45.6627763" lon="11.59396"><ele>67.0</ele><time>2026-04-25T12:59:43.866Z</time></trkpt><trkpt lat="45.6628231" lon="11.5940438"><ele>67.0</ele><time>2026-04-25T12:59:45.866Z</time></trkpt><trkpt lat="45.662869" lon="11.5941231"><ele>67.0</ele><time>2026-04-25T12:59:47.866Z</time></trkpt><trkpt lat="45.6629168" lon="11.5942027"><ele>67.0</ele><time>2026-04-25T12:59:49.866Z</time></trkpt><trkpt lat="45.6629681" lon="11.5942829"><ele>67.0</ele><time>2026-04-25T12:59:51.867Z</time></trkpt><trkpt lat="45.6630106" lon="11.5943706"><ele>67.0</ele><time>2026-04-25T12:59:53.866Z</time></trkpt><trkpt lat="45.663053" lon="11.5944562"><ele>67.0</ele><time>2026-04-25T12:59:55.867Z</time></trkpt><trkpt lat="45.6631037" lon="11.5945304"><ele>67.0</ele><time>2026-04-25T12:59:57.867Z</time></trkpt><trkpt lat="45.6631628" lon="11.5946088"><ele>67.0</ele><time>2026-04-25T12:59:59.868Z</time></trkpt><trkpt lat="45.6632149" lon="11.5946917"><ele>67.0</ele><time>2026-04-25T13:00:01.867Z</time></trkpt><trkpt lat="45.6632488" lon="11.5947916"><ele>67.0</ele><time>2026-04-25T13:00:03.867Z</time></trkpt><trkpt lat="45.6632763" lon="11.5948783"><ele>67.0</ele><time>2026-04-25T13:00:05.867Z</time></trkpt><trkpt lat="45.6633144" lon="11.5949983"><ele>67.0</ele><time>2026-04-25T13:00:08.867Z</time></trkpt><trkpt lat="45.6633861" lon="11.5950032"><ele>67.0</ele><time>2026-04-25T13:00:10.867Z</time></trkpt><trkpt lat="45.6634628" lon="11.5949349"><ele>67.0</ele><time>2026-04-25T13:00:12.867Z</time></trkpt><trkpt lat="45.6635311" lon="11.5949377"><ele>67.0</ele><time>2026-04-25T13:00:14.867Z</time></trkpt><trkpt lat="45.6635834" lon="11.5950351"><ele>67.0</ele><time>2026-04-25T13:00:16.867Z</time></trkpt><trkpt lat="45.6635763" lon="11.595156"><ele>67.0</ele><time>2026-04-25T13:00:18.867Z</time></trkpt><trkpt lat="45.6635594" lon="11.5952667"><ele>67.0</ele><time>2026-04-25T13:00:20.867Z</time></trkpt><trkpt lat="45.6635526" lon="11.5953783"><ele>67.0</ele><time>2026-04-25T13:00:22.867Z</time></trkpt><trkpt lat="45.6635417" lon="11.5955059"><ele>67.0</ele><time>2026-04-25T13:00:24.867Z</time></trkpt><trkpt lat="45.6635527" lon="11.5956186"><ele>67.0</ele><time>2026-04-25T13:00:26.867Z</time></trkpt><trkpt lat="45.6636002" lon="11.5956934"><ele>67.0</ele><time>2026-04-25T13:00:28.867Z</time></trkpt><trkpt lat="45.6636827" lon="11.5957018"><ele>67.0</ele><time>2026-04-25T13:00:30.867Z</time></trkpt><trkpt lat="45.6637718" lon="11.595665"><ele>67.0</ele><time>2026-04-25T13:00:32.867Z</time></trkpt><trkpt lat="45.6638529" lon="11.5956516"><ele>67.16666666666666</ele><time>2026-04-25T13:00:34.867Z</time></trkpt><trkpt lat="45.6639262" lon="11.5956499"><ele>67.33333333333333</ele><time>2026-04-25T13:00:36.867Z</time></trkpt><trkpt lat="45.6640083" lon="11.5956353"><ele>67.5</ele><time>2026-04-25T13:00:38.867Z</time></trkpt><trkpt lat="45.664076" lon="11.5956509"><ele>67.66666666666667</ele><time>2026-04-25T13:00:40.868Z</time></trkpt><trkpt lat="45.6641504" lon="11.5956609"><ele>67.83333333333334</ele><time>2026-04-25T13:00:42.867Z</time></trkpt><trkpt lat="45.664229" lon="11.5956611"><ele>68.0</ele><time>2026-04-25T13:00:44.867Z</time></trkpt><trkpt lat="45.6643023" lon="11.5956669"><ele>68.0</ele><time>2026-04-25T13:00:46.867Z</time></trkpt><trkpt lat="45.664379" lon="11.5956656"><ele>68.0</ele><time>2026-04-25T13:00:48.867Z</time></trkpt><trkpt lat="45.6644613" lon="11.5956522"><ele>68.0</ele><time>2026-04-25T13:00:50.867Z</time></trkpt><trkpt lat="45.6645316" lon="11.5956485"><ele>68.0</ele><time>2026-04-25T13:00:52.867Z</time></trkpt><trkpt lat="45.6646057" lon="11.5956554"><ele>68.0</ele><time>2026-04-25T13:00:54.867Z</time></trkpt><trkpt lat="45.6646821" lon="11.5956581"><ele>68.0</ele><time>2026-04-25T13:00:56.867Z</time></trkpt><trkpt lat="45.6647611" lon="11.5956497"><ele>68.16666666666667</ele><time>2026-04-25T13:00:58.867Z</time></trkpt><trkpt lat="45.6648406" lon="11.5956613"><ele>68.33333333333334</ele><time>2026-04-25T13:01:00.867Z</time></trkpt><trkpt lat="45.6649197" lon="11.5956771"><ele>68.5</ele><time>2026-04-25T13:01:02.867Z</time></trkpt><trkpt lat="45.6649971" lon="11.5956765"><ele>68.66666666666667</ele><time>2026-04-25T13:01:04.867Z</time></trkpt><trkpt lat="45.6650663" lon="11.5956795"><ele>68.83333333333333</ele><time>2026-04-25T13:01:06.867Z</time></trkpt><trkpt lat="45.6651365" lon="11.5956743"><ele>69.0</ele><time>2026-04-25T13:01:08.867Z</time></trkpt><trkpt lat="45.6652168" lon="11.5956802"><ele>69.16666666666667</ele><time>2026-04-25T13:01:10.868Z</time></trkpt><trkpt lat="45.6652936" lon="11.5956738"><ele>69.33333333333333</ele><time>2026-04-25T13:01:12.868Z</time></trkpt><trkpt lat="45.6653713" lon="11.5956698"><ele>69.5</ele><time>2026-04-25T13:01:14.869Z</time></trkpt><trkpt lat="45.6654482" lon="11.5956798"><ele>69.66666666666666</ele><time>2026-04-25T13:01:16.868Z</time></trkpt><trkpt lat="45.6655242" lon="11.5956826"><ele>69.83333333333333</ele><time>2026-04-25T13:01:18.869Z</time></trkpt><trkpt lat="45.6655972" lon="11.5956876"><ele>70.0</ele><time>2026-04-25T13:01:20.868Z</time></trkpt><trkpt lat="45.6656666" lon="11.5956963"><ele>70.0</ele><time>2026-04-25T13:01:22.868Z</time></trkpt><trkpt lat="45.6657481" lon="11.5956971"><ele>70.0</ele><time>2026-04-25T13:01:24.868Z</time></trkpt><trkpt lat="45.6658214" lon="11.595691"><ele>70.0</ele><time>2026-04-25T13:01:26.868Z</time></trkpt><trkpt lat="45.6658968" lon="11.5956753"><ele>70.0</ele><time>2026-04-25T13:01:28.868Z</time></trkpt><trkpt lat="45.6659629" lon="11.5956912"><ele>70.0</ele><time>2026-04-25T13:01:30.868Z</time></trkpt><trkpt lat="45.6660004" lon="11.5958308"><ele>70.0</ele><time>2026-04-25T13:01:33.868Z</time></trkpt><trkpt lat="45.6659807" lon="11.5959597"><ele>70.0</ele><time>2026-04-25T13:01:35.868Z</time></trkpt><trkpt lat="45.6659721" lon="11.5960784"><ele>70.0</ele><time>2026-04-25T13:01:37.868Z</time></trkpt><trkpt lat="45.6659695" lon="11.5962"><ele>70.0</ele><time>2026-04-25T13:01:39.868Z</time></trkpt><trkpt lat="45.6659753" lon="11.596316"><ele>70.0</ele><time>2026-04-25T13:01:41.869Z</time></trkpt><trkpt lat="45.6659747" lon="11.5964258"><ele>70.0</ele><time>2026-04-25T13:01:43.868Z</time></trkpt><trkpt lat="45.6659656" lon="11.5965265"><ele>70.0</ele><time>2026-04-25T13:01:45.868Z</time></trkpt><trkpt lat="45.6659628" lon="11.5966193"><ele>70.16666666666666</ele><time>2026-04-25T13:01:49.868Z</time></trkpt><trkpt lat="45.6660278" lon="11.5966852"><ele>70.33333333333333</ele><time>2026-04-25T13:01:53.869Z</time></trkpt><trkpt lat="45.6660958" lon="11.5966694"><ele>70.5</ele><time>2026-04-25T13:01:55.868Z</time></trkpt><trkpt lat="45.6661827" lon="11.5966325"><ele>70.66666666666667</ele><time>2026-04-25T13:01:57.869Z</time></trkpt><trkpt lat="45.6662583" lon="11.5965994"><ele>70.83333333333334</ele><time>2026-04-25T13:01:59.868Z</time></trkpt><trkpt lat="45.6663347" lon="11.5965759"><ele>71.0</ele><time>2026-04-25T13:02:01.87Z</time></trkpt><trkpt lat="45.6664093" lon="11.596565"><ele>70.66666666666667</ele><time>2026-04-25T13:02:03.868Z</time></trkpt><trkpt lat="45.6664771" lon="11.5965369"><ele>70.33333333333334</ele><time>2026-04-25T13:02:05.868Z</time></trkpt><trkpt lat="45.6665598" lon="11.5965043"><ele>70.0</ele><time>2026-04-25T13:02:07.868Z</time></trkpt><trkpt lat="45.6666412" lon="11.5964766"><ele>69.66666666666667</ele><time>2026-04-25T13:02:09.869Z</time></trkpt><trkpt lat="45.6667236" lon="11.5964267"><ele>69.33333333333333</ele><time>2026-04-25T13:02:11.868Z</time></trkpt><trkpt lat="45.6668057" lon="11.5963861"><ele>69.0</ele><time>2026-04-25T13:02:13.868Z</time></trkpt><trkpt lat="45.6668827" lon="11.5963522"><ele>69.16666666666667</ele><time>2026-04-25T13:02:15.868Z</time></trkpt><trkpt lat="45.6669601" lon="11.5963185"><ele>69.33333333333333</ele><time>2026-04-25T13:02:17.868Z</time></trkpt><trkpt lat="45.667033" lon="11.5962919"><ele>69.5</ele><time>2026-04-25T13:02:19.868Z</time></trkpt><trkpt lat="45.6671139" lon="11.59627"><ele>69.66666666666666</ele><time>2026-04-25T13:02:21.868Z</time></trkpt><trkpt lat="45.6671951" lon="11.5962609"><ele>69.83333333333333</ele><time>2026-04-25T13:02:23.868Z</time></trkpt><trkpt lat="45.6672747" lon="11.5962537"><ele>70.0</ele><time>2026-04-25T13:02:25.869Z</time></trkpt><trkpt lat="45.6673582" lon="11.5962524"><ele>70.0</ele><time>2026-04-25T13:02:27.869Z</time></trkpt><trkpt lat="45.6674505" lon="11.5962662"><ele>70.0</ele><time>2026-04-25T13:02:29.869Z</time></trkpt><trkpt lat="45.6675382" lon="11.5962915"><ele>70.0</ele><time>2026-04-25T13:02:31.87Z</time></trkpt><trkpt lat="45.6676292" lon="11.5963032"><ele>70.0</ele><time>2026-04-25T13:02:33.869Z</time></trkpt><trkpt lat="45.6677151" lon="11.5963314"><ele>70.0</ele><time>2026-04-25T13:02:35.884Z</time></trkpt><trkpt lat="45.6678033" lon="11.5963496"><ele>70.0</ele><time>2026-04-25T13:02:37.898Z</time></trkpt><trkpt lat="45.6678921" lon="11.5963719"><ele>70.0</ele><time>2026-04-25T13:02:39.911Z</time></trkpt><trkpt lat="45.6679808" lon="11.5963923"><ele>70.0</ele><time>2026-04-25T13:02:41.925Z</time></trkpt><trkpt lat="45.6680692" lon="11.5964001"><ele>70.0</ele><time>2026-04-25T13:02:43.949Z</time></trkpt><trkpt lat="45.6681423" lon="11.5963594"><ele>70.0</ele><time>2026-04-25T13:02:45.671Z</time></trkpt><trkpt lat="45.6682245" lon="11.5962574"><ele>70.0</ele><time>2026-04-25T13:02:47.988Z</time></trkpt><trkpt lat="45.6682665" lon="11.5961765"><ele>70.0</ele><time>2026-04-25T13:02:49.529Z</time></trkpt><trkpt lat="45.668328" lon="11.5960308"><ele>70.0</ele><time>2026-04-25T13:02:51.869Z</time></trkpt><trkpt lat="45.6683829" lon="11.5959065"><ele>70.0</ele><time>2026-04-25T13:02:53.869Z</time></trkpt><trkpt lat="45.6684258" lon="11.5957953"><ele>70.0</ele><time>2026-04-25T13:02:55.869Z</time></trkpt><trkpt lat="45.6684787" lon="11.5956687"><ele>70.16666666666666</ele><time>2026-04-25T13:02:57.869Z</time></trkpt><trkpt lat="45.6685356" lon="11.5955611"><ele>70.33333333333333</ele><time>2026-04-25T13:02:59.869Z</time></trkpt><trkpt lat="45.6685913" lon="11.5954589"><ele>70.5</ele><time>2026-04-25T13:03:01.869Z</time></trkpt><trkpt lat="45.6686501" lon="11.5953414"><ele>70.66666666666667</ele><time>2026-04-25T13:03:03.869Z</time></trkpt><trkpt lat="45.6686938" lon="11.5952463"><ele>70.83333333333334</ele><time>2026-04-25T13:03:05.869Z</time></trkpt><trkpt lat="45.6687385" lon="11.5951459"><ele>71.0</ele><time>2026-04-25T13:03:07.869Z</time></trkpt><trkpt lat="45.6687867" lon="11.5950331"><ele>71.16666666666667</ele><time>2026-04-25T13:03:09.87Z</time></trkpt><trkpt lat="45.6688275" lon="11.594914"><ele>71.33333333333334</ele><time>2026-04-25T13:03:11.869Z</time></trkpt><trkpt lat="45.6688537" lon="11.5947938"><ele>71.5</ele><time>2026-04-25T13:03:13.869Z</time></trkpt><trkpt lat="45.6688732" lon="11.5946734"><ele>71.66666666666667</ele><time>2026-04-25T13:03:15.869Z</time></trkpt><trkpt lat="45.6688896" lon="11.5945512"><ele>71.83333333333333</ele><time>2026-04-25T13:03:17.869Z</time></trkpt><trkpt lat="45.6688992" lon="11.5944278"><ele>72.0</ele><time>2026-04-25T13:03:19.869Z</time></trkpt><trkpt lat="45.6688892" lon="11.5943064"><ele>72.0</ele><time>2026-04-25T13:03:21.869Z</time></trkpt><trkpt lat="45.6688805" lon="11.5941721"><ele>72.0</ele><time>2026-04-25T13:03:23.869Z</time></trkpt><trkpt lat="45.6688828" lon="11.5940428"><ele>72.0</ele><time>2026-04-25T13:03:25.869Z</time></trkpt><trkpt lat="45.6688882" lon="11.5939122"><ele>72.0</ele><time>2026-04-25T13:03:27.869Z</time></trkpt><trkpt lat="45.6689417" lon="11.5938147"><ele>72.0</ele><time>2026-04-25T13:03:29.869Z</time></trkpt><trkpt lat="45.6690475" lon="11.5937864"><ele>72.0</ele><time>2026-04-25T13:03:31.869Z</time></trkpt><trkpt lat="45.669146" lon="11.5937778"><ele>72.0</ele><time>2026-04-25T13:03:33.87Z</time></trkpt><trkpt lat="45.6692426" lon="11.5937608"><ele>72.0</ele><time>2026-04-25T13:03:35.869Z</time></trkpt><trkpt lat="45.6693381" lon="11.593744"><ele>72.0</ele><time>2026-04-25T13:03:37.869Z</time></trkpt><trkpt lat="45.66943" lon="11.5937115"><ele>72.0</ele><time>2026-04-25T13:03:39.87Z</time></trkpt><trkpt lat="45.6695114" lon="11.593695"><ele>72.2</ele><time>2026-04-25T13:03:41.869Z</time></trkpt><trkpt lat="45.6696081" lon="11.5936874"><ele>72.4</ele><time>2026-04-25T13:03:43.869Z</time></trkpt><trkpt lat="45.6697029" lon="11.5936653"><ele>72.6</ele><time>2026-04-25T13:03:45.87Z</time></trkpt><trkpt lat="45.6697893" lon="11.5936353"><ele>72.8</ele><time>2026-04-25T13:03:47.87Z</time></trkpt><trkpt lat="45.6698731" lon="11.5936079"><ele>73.0</ele><time>2026-04-25T13:03:49.87Z</time></trkpt><trkpt lat="45.6699644" lon="11.5936003"><ele>73.0</ele><time>2026-04-25T13:03:51.87Z</time></trkpt><trkpt lat="45.6700572" lon="11.5935893"><ele>73.0</ele><time>2026-04-25T13:03:53.87Z</time></trkpt><trkpt lat="45.6701525" lon="11.5935729"><ele>73.0</ele><time>2026-04-25T13:03:55.87Z</time></trkpt><trkpt lat="45.6702487" lon="11.5935562"><ele>73.0</ele><time>2026-04-25T13:03:57.87Z</time></trkpt><trkpt lat="45.6703439" lon="11.5935357"><ele>73.0</ele><time>2026-04-25T13:03:59.87Z</time></trkpt><trkpt lat="45.6704422" lon="11.5935189"><ele>72.2</ele><time>2026-04-25T13:04:01.87Z</time></trkpt><trkpt lat="45.6705382" lon="11.5935146"><ele>71.4</ele><time>2026-04-25T13:04:03.87Z</time></trkpt><trkpt lat="45.6706274" lon="11.5935021"><ele>70.60000000000001</ele><time>2026-04-25T13:04:05.87Z</time></trkpt><trkpt lat="45.6707136" lon="11.5934795"><ele>69.8</ele><time>2026-04-25T13:04:07.87Z</time></trkpt><trkpt lat="45.6708134" lon="11.5934576"><ele>69.0</ele><time>2026-04-25T13:04:09.87Z</time></trkpt><trkpt lat="45.6709074" lon="11.5934452"><ele>69.0</ele><time>2026-04-25T13:04:11.87Z</time></trkpt><trkpt lat="45.6709991" lon="11.5934324"><ele>69.0</ele><time>2026-04-25T13:04:13.871Z</time></trkpt><trkpt lat="45.6710921" lon="11.5934164"><ele>69.0</ele><time>2026-04-25T13:04:15.87Z</time></trkpt><trkpt lat="45.6711838" lon="11.5934015"><ele>69.0</ele><time>2026-04-25T13:04:17.87Z</time></trkpt><trkpt lat="45.6712759" lon="11.5933688"><ele>69.0</ele><time>2026-04-25T13:04:19.87Z</time></trkpt><trkpt lat="45.6713667" lon="11.5933289"><ele>69.8</ele><time>2026-04-25T13:04:21.87Z</time></trkpt><trkpt lat="45.6714607" lon="11.5932821"><ele>70.60000000000001</ele><time>2026-04-25T13:04:23.87Z</time></trkpt><trkpt lat="45.6715483" lon="11.5932228"><ele>71.4</ele><time>2026-04-25T13:04:25.871Z</time></trkpt><trkpt lat="45.6716332" lon="11.593162"><ele>72.2</ele><time>2026-04-25T13:04:27.87Z</time></trkpt><trkpt lat="45.6717151" lon="11.5931037"><ele>73.0</ele><time>2026-04-25T13:04:29.871Z</time></trkpt><trkpt lat="45.6717926" lon="11.5930391"><ele>73.0</ele><time>2026-04-25T13:04:31.87Z</time></trkpt><trkpt lat="45.6718714" lon="11.5929819"><ele>73.0</ele><time>2026-04-25T13:04:33.87Z</time></trkpt><trkpt lat="45.6719445" lon="11.5929179"><ele>73.0</ele><time>2026-04-25T13:04:35.87Z</time></trkpt><trkpt lat="45.672023" lon="11.5928476"><ele>73.0</ele><time>2026-04-25T13:04:37.871Z</time></trkpt><trkpt lat="45.6721041" lon="11.5927743"><ele>73.0</ele><time>2026-04-25T13:04:39.87Z</time></trkpt><trkpt lat="45.672181" lon="11.592699"><ele>73.0</ele><time>2026-04-25T13:04:41.87Z</time></trkpt><trkpt lat="45.672269" lon="11.5926381"><ele>73.0</ele><time>2026-04-25T13:04:43.87Z</time></trkpt><trkpt lat="45.6723688" lon="11.5926067"><ele>73.0</ele><time>2026-04-25T13:04:45.87Z</time></trkpt><trkpt lat="45.6724694" lon="11.5925715"><ele>73.0</ele><time>2026-04-25T13:04:47.87Z</time></trkpt><trkpt lat="45.6725689" lon="11.5925385"><ele>73.0</ele><time>2026-04-25T13:04:49.87Z</time></trkpt><trkpt lat="45.6726642" lon="11.5924991"><ele>73.0</ele><time>2026-04-25T13:04:51.87Z</time></trkpt><trkpt lat="45.6727531" lon="11.5924389"><ele>73.0</ele><time>2026-04-25T13:04:53.871Z</time></trkpt><trkpt lat="45.6728404" lon="11.592373"><ele>73.0</ele><time>2026-04-25T13:04:55.871Z</time></trkpt><trkpt lat="45.6729291" lon="11.5923116"><ele>73.0</ele><time>2026-04-25T13:04:57.87Z</time></trkpt><trkpt lat="45.6730103" lon="11.5922527"><ele>73.0</ele><time>2026-04-25T13:04:59.87Z</time></trkpt><trkpt lat="45.6730907" lon="11.5921859"><ele>73.33333333333333</ele><time>2026-04-25T13:05:01.872Z</time></trkpt><trkpt lat="45.6731688" lon="11.5921212"><ele>73.66666666666666</ele><time>2026-04-25T13:05:03.872Z</time></trkpt><trkpt lat="45.6732458" lon="11.5920635"><ele>74.0</ele><time>2026-04-25T13:05:05.872Z</time></trkpt><trkpt lat="45.6733166" lon="11.5920079"><ele>74.33333333333333</ele><time>2026-04-25T13:05:07.871Z</time></trkpt><trkpt lat="45.6733813" lon="11.5919401"><ele>74.66666666666667</ele><time>2026-04-25T13:05:09.871Z</time></trkpt><trkpt lat="45.6734549" lon="11.5918834"><ele>75.0</ele><time>2026-04-25T13:05:11.871Z</time></trkpt><trkpt lat="45.6735303" lon="11.5918355"><ele>75.0</ele><time>2026-04-25T13:05:13.872Z</time></trkpt><trkpt lat="45.6736014" lon="11.5917716"><ele>75.0</ele><time>2026-04-25T13:05:15.871Z</time></trkpt><trkpt lat="45.6736763" lon="11.5917043"><ele>75.0</ele><time>2026-04-25T13:05:17.872Z</time></trkpt><trkpt lat="45.6737477" lon="11.591635"><ele>75.0</ele><time>2026-04-25T13:05:19.871Z</time></trkpt><trkpt lat="45.6738176" lon="11.5915641"><ele>75.0</ele><time>2026-04-25T13:05:21.871Z</time></trkpt><trkpt lat="45.6738901" lon="11.5914827"><ele>75.0</ele><time>2026-04-25T13:05:23.871Z</time></trkpt><trkpt lat="45.6739573" lon="11.5913956"><ele>75.0</ele><time>2026-04-25T13:05:25.872Z</time></trkpt><trkpt lat="45.6740258" lon="11.5913068"><ele>75.0</ele><time>2026-04-25T13:05:27.872Z</time></trkpt><trkpt lat="45.6740952" lon="11.5912211"><ele>75.0</ele><time>2026-04-25T13:05:29.872Z</time></trkpt><trkpt lat="45.6741623" lon="11.5911412"><ele>75.0</ele><time>2026-04-25T13:05:31.871Z</time></trkpt><trkpt lat="45.6742245" lon="11.5910639"><ele>75.0</ele><time>2026-04-25T13:05:33.871Z</time></trkpt><trkpt lat="45.6742817" lon="11.5909971"><ele>75.0</ele><time>2026-04-25T13:05:35.871Z</time></trkpt><trkpt lat="45.6743362" lon="11.5909231"><ele>75.0</ele><time>2026-04-25T13:05:37.871Z</time></trkpt><trkpt lat="45.6744005" lon="11.5908473"><ele>75.0</ele><time>2026-04-25T13:05:40.871Z</time></trkpt><trkpt lat="45.6744538" lon="11.5907673"><ele>75.0</ele><time>2026-04-25T13:05:43.871Z</time></trkpt><trkpt lat="45.6745161" lon="11.5907065"><ele>75.0</ele><time>2026-04-25T13:05:46.871Z</time></trkpt><trkpt lat="45.6745745" lon="11.5906279"><ele>75.0</ele><time>2026-04-25T13:05:49.871Z</time></trkpt><trkpt lat="45.6746432" lon="11.5905469"><ele>75.0</ele><time>2026-04-25T13:05:52.871Z</time></trkpt><trkpt lat="45.6746968" lon="11.5904884"><ele>75.0</ele><time>2026-04-25T13:05:54.871Z</time></trkpt><trkpt lat="45.6747528" lon="11.59042"><ele>75.0</ele><time>2026-04-25T13:05:56.872Z</time></trkpt><trkpt lat="45.6748123" lon="11.5903479"><ele>75.0</ele><time>2026-04-25T13:05:58.871Z</time></trkpt><trkpt lat="45.6748766" lon="11.5902843"><ele>75.0</ele><time>2026-04-25T13:06:00.871Z</time></trkpt><trkpt lat="45.6749381" lon="11.5902108"><ele>75.0</ele><time>2026-04-25T13:06:02.871Z</time></trkpt><trkpt lat="45.6750001" lon="11.5901308"><ele>75.0</ele><time>2026-04-25T13:06:04.871Z</time></trkpt><trkpt lat="45.6750641" lon="11.5900483"><ele>75.16666666666667</ele><time>2026-04-25T13:06:06.871Z</time></trkpt><trkpt lat="45.6751256" lon="11.5899639"><ele>75.33333333333333</ele><time>2026-04-25T13:06:08.871Z</time></trkpt><trkpt lat="45.675193" lon="11.5898873"><ele>75.5</ele><time>2026-04-25T13:06:10.871Z</time></trkpt><trkpt lat="45.6752537" lon="11.5897948"><ele>75.66666666666666</ele><time>2026-04-25T13:06:12.871Z</time></trkpt><trkpt lat="45.6753094" lon="11.5897048"><ele>75.83333333333333</ele><time>2026-04-25T13:06:14.871Z</time></trkpt><trkpt lat="45.6753609" lon="11.5896123"><ele>76.0</ele><time>2026-04-25T13:06:16.872Z</time></trkpt><trkpt lat="45.6754073" lon="11.5895178"><ele>76.16666666666666</ele><time>2026-04-25T13:06:18.873Z</time></trkpt><trkpt lat="45.675448" lon="11.5894191"><ele>76.33333333333333</ele><time>2026-04-25T13:06:20.872Z</time></trkpt><trkpt lat="45.6754808" lon="11.5893127"><ele>76.5</ele><time>2026-04-25T13:06:22.872Z</time></trkpt><trkpt lat="45.6755167" lon="11.5892115"><ele>76.66666666666667</ele><time>2026-04-25T13:06:24.872Z</time></trkpt><trkpt lat="45.6755592" lon="11.5891096"><ele>76.83333333333334</ele><time>2026-04-25T13:06:26.872Z</time></trkpt><trkpt lat="45.6756001" lon="11.5890074"><ele>77.0</ele><time>2026-04-25T13:06:28.872Z</time></trkpt><trkpt lat="45.6756392" lon="11.588906"><ele>77.0</ele><time>2026-04-25T13:06:30.872Z</time></trkpt><trkpt lat="45.6756744" lon="11.5887985"><ele>77.0</ele><time>2026-04-25T13:06:32.872Z</time></trkpt><trkpt lat="45.6757062" lon="11.5886878"><ele>77.0</ele><time>2026-04-25T13:06:34.873Z</time></trkpt><trkpt lat="45.675739" lon="11.5885841"><ele>77.0</ele><time>2026-04-25T13:06:36.872Z</time></trkpt><trkpt lat="45.675773" lon="11.5884773"><ele>77.0</ele><time>2026-04-25T13:06:38.872Z</time></trkpt><trkpt lat="45.6758012" lon="11.5883576"><ele>77.0</ele><time>2026-04-25T13:06:40.872Z</time></trkpt><trkpt lat="45.6758333" lon="11.5882502"><ele>77.16666666666667</ele><time>2026-04-25T13:06:42.872Z</time></trkpt><trkpt lat="45.6758576" lon="11.5881364"><ele>77.33333333333334</ele><time>2026-04-25T13:06:44.872Z</time></trkpt><trkpt lat="45.6758883" lon="11.5880246"><ele>77.5</ele><time>2026-04-25T13:06:46.872Z</time></trkpt><trkpt lat="45.6759279" lon="11.5879175"><ele>77.66666666666667</ele><time>2026-04-25T13:06:48.872Z</time></trkpt><trkpt lat="45.6759651" lon="11.5878101"><ele>77.83333333333333</ele><time>2026-04-25T13:06:50.872Z</time></trkpt><trkpt lat="45.6760007" lon="11.5876997"><ele>78.0</ele><time>2026-04-25T13:06:52.872Z</time></trkpt><trkpt lat="45.6760403" lon="11.5875941"><ele>78.0</ele><time>2026-04-25T13:06:54.872Z</time></trkpt><trkpt lat="45.6760734" lon="11.5874892"><ele>78.0</ele><time>2026-04-25T13:06:56.872Z</time></trkpt><trkpt lat="45.6761051" lon="11.5873832"><ele>78.0</ele><time>2026-04-25T13:06:58.873Z</time></trkpt><trkpt lat="45.676141" lon="11.5872731"><ele>78.0</ele><time>2026-04-25T13:07:00.872Z</time></trkpt><trkpt lat="45.6761774" lon="11.5871672"><ele>78.0</ele><time>2026-04-25T13:07:02.872Z</time></trkpt><trkpt lat="45.676217" lon="11.5870608"><ele>78.0</ele><time>2026-04-25T13:07:04.872Z</time></trkpt><trkpt lat="45.6762553" lon="11.5869618"><ele>78.16666666666667</ele><time>2026-04-25T13:07:06.872Z</time></trkpt><trkpt lat="45.676288" lon="11.5868474"><ele>78.33333333333333</ele><time>2026-04-25T13:07:08.872Z</time></trkpt><trkpt lat="45.6763147" lon="11.5867357"><ele>78.5</ele><time>2026-04-25T13:07:10.872Z</time></trkpt><trkpt lat="45.6763392" lon="11.5866129"><ele>78.66666666666666</ele><time>2026-04-25T13:07:12.872Z</time></trkpt><trkpt lat="45.6763607" lon="11.5864855"><ele>78.83333333333333</ele><time>2026-04-25T13:07:14.872Z</time></trkpt><trkpt lat="45.676399" lon="11.5863555"><ele>79.0</ele><time>2026-04-25T13:07:16.872Z</time></trkpt><trkpt lat="45.6764404" lon="11.5862438"><ele>79.2</ele><time>2026-04-25T13:07:18.872Z</time></trkpt><trkpt lat="45.6764763" lon="11.5861225"><ele>79.4</ele><time>2026-04-25T13:07:20.872Z</time></trkpt><trkpt lat="45.6765168" lon="11.5859962"><ele>79.6</ele><time>2026-04-25T13:07:22.872Z</time></trkpt><trkpt lat="45.6765543" lon="11.5858779"><ele>79.8</ele><time>2026-04-25T13:07:24.872Z</time></trkpt><trkpt lat="45.6765941" lon="11.5857725"><ele>80.0</ele><time>2026-04-25T13:07:26.872Z</time></trkpt><trkpt lat="45.6766541" lon="11.5856788"><ele>80.0</ele><time>2026-04-25T13:07:28.872Z</time></trkpt><trkpt lat="45.6767188" lon="11.5855972"><ele>80.0</ele><time>2026-04-25T13:07:30.872Z</time></trkpt><trkpt lat="45.6768031" lon="11.5855138"><ele>80.0</ele><time>2026-04-25T13:07:32.872Z</time></trkpt><trkpt lat="45.6768802" lon="11.5854421"><ele>80.0</ele><time>2026-04-25T13:07:34.873Z</time></trkpt><trkpt lat="45.6769547" lon="11.5853774"><ele>80.0</ele><time>2026-04-25T13:07:36.873Z</time></trkpt><trkpt lat="45.6770304" lon="11.585306"><ele>79.8</ele><time>2026-04-25T13:07:38.873Z</time></trkpt><trkpt lat="45.6771164" lon="11.5852476"><ele>79.6</ele><time>2026-04-25T13:07:40.873Z</time></trkpt><trkpt lat="45.6771943" lon="11.5851756"><ele>79.4</ele><time>2026-04-25T13:07:42.873Z</time></trkpt><trkpt lat="45.6772712" lon="11.5851062"><ele>79.2</ele><time>2026-04-25T13:07:44.873Z</time></trkpt><trkpt lat="45.6773393" lon="11.5850412"><ele>79.0</ele><time>2026-04-25T13:07:46.873Z</time></trkpt><trkpt lat="45.6774201" lon="11.5849708"><ele>79.0</ele><time>2026-04-25T13:07:48.873Z</time></trkpt><trkpt lat="45.677497" lon="11.5849119"><ele>79.0</ele><time>2026-04-25T13:07:50.874Z</time></trkpt><trkpt lat="45.6775745" lon="11.5848595"><ele>79.0</ele><time>2026-04-25T13:07:52.873Z</time></trkpt><trkpt lat="45.6776526" lon="11.5848123"><ele>79.0</ele><time>2026-04-25T13:07:54.874Z</time></trkpt><trkpt lat="45.6777329" lon="11.5847769"><ele>79.0</ele><time>2026-04-25T13:07:56.873Z</time></trkpt><trkpt lat="45.6778115" lon="11.5847437"><ele>79.0</ele><time>2026-04-25T13:07:58.874Z</time></trkpt><trkpt lat="45.6778902" lon="11.5847118"><ele>79.16666666666666</ele><time>2026-04-25T13:08:00.873Z</time></trkpt><trkpt lat="45.6779753" lon="11.5847048"><ele>79.33333333333333</ele><time>2026-04-25T13:08:02.873Z</time></trkpt><trkpt lat="45.6780626" lon="11.5846857"><ele>79.5</ele><time>2026-04-25T13:08:04.873Z</time></trkpt><trkpt lat="45.6781431" lon="11.5846685"><ele>79.66666666666667</ele><time>2026-04-25T13:08:06.874Z</time></trkpt><trkpt lat="45.6782181" lon="11.5846556"><ele>79.83333333333334</ele><time>2026-04-25T13:08:08.873Z</time></trkpt><trkpt lat="45.6782916" lon="11.5846309"><ele>80.0</ele><time>2026-04-25T13:08:10.873Z</time></trkpt><trkpt lat="45.6783663" lon="11.5846108"><ele>80.0</ele><time>2026-04-25T13:08:12.873Z</time></trkpt><trkpt lat="45.6784453" lon="11.5845858"><ele>80.0</ele><time>2026-04-25T13:08:14.873Z</time></trkpt><trkpt lat="45.6785273" lon="11.584567"><ele>80.0</ele><time>2026-04-25T13:08:16.873Z</time></trkpt><trkpt lat="45.6786135" lon="11.5845519"><ele>80.0</ele><time>2026-04-25T13:08:18.873Z</time></trkpt><trkpt lat="45.6787002" lon="11.5845438"><ele>80.0</ele><time>2026-04-25T13:08:20.873Z</time></trkpt><trkpt lat="45.6787914" lon="11.5845218"><ele>80.0</ele><time>2026-04-25T13:08:22.873Z</time></trkpt><trkpt lat="45.6788813" lon="11.584505"><ele>80.2</ele><time>2026-04-25T13:08:24.874Z</time></trkpt><trkpt lat="45.6789726" lon="11.584486"><ele>80.4</ele><time>2026-04-25T13:08:26.874Z</time></trkpt><trkpt lat="45.6790613" lon="11.5844668"><ele>80.6</ele><time>2026-04-25T13:08:28.873Z</time></trkpt><trkpt lat="45.6791514" lon="11.5844503"><ele>80.8</ele><time>2026-04-25T13:08:30.873Z</time></trkpt><trkpt lat="45.6792436" lon="11.5844321"><ele>81.0</ele><time>2026-04-25T13:08:32.874Z</time></trkpt><trkpt lat="45.6793348" lon="11.5843992"><ele>81.0</ele><time>2026-04-25T13:08:34.873Z</time></trkpt><trkpt lat="45.6794191" lon="11.5843724"><ele>81.0</ele><time>2026-04-25T13:08:36.873Z</time></trkpt><trkpt lat="45.6795121" lon="11.5843625"><ele>81.0</ele><time>2026-04-25T13:08:38.873Z</time></trkpt><trkpt lat="45.679601" lon="11.5843457"><ele>81.0</ele><time>2026-04-25T13:08:40.873Z</time></trkpt><trkpt lat="45.6796934" lon="11.5843279"><ele>81.0</ele><time>2026-04-25T13:08:42.873Z</time></trkpt><trkpt lat="45.679783" lon="11.5843088"><ele>81.4</ele><time>2026-04-25T13:08:44.873Z</time></trkpt><trkpt lat="45.6798721" lon="11.5842937"><ele>81.8</ele><time>2026-04-25T13:08:46.873Z</time></trkpt><trkpt lat="45.6799611" lon="11.5842696"><ele>82.2</ele><time>2026-04-25T13:08:48.873Z</time></trkpt><trkpt lat="45.6800506" lon="11.5842549"><ele>82.60000000000001</ele><time>2026-04-25T13:08:50.874Z</time></trkpt><trkpt lat="45.6801407" lon="11.5842356"><ele>83.0</ele><time>2026-04-25T13:08:52.875Z</time></trkpt><trkpt lat="45.6802343" lon="11.5842193"><ele>83.16666666666667</ele><time>2026-04-25T13:08:54.874Z</time></trkpt><trkpt lat="45.6803207" lon="11.584205"><ele>83.33333333333334</ele><time>2026-04-25T13:08:56.874Z</time></trkpt><trkpt lat="45.6803997" lon="11.5841886"><ele>83.5</ele><time>2026-04-25T13:08:58.874Z</time></trkpt><trkpt lat="45.6804793" lon="11.5841788"><ele>83.66666666666667</ele><time>2026-04-25T13:09:00.874Z</time></trkpt><trkpt lat="45.6805603" lon="11.584163"><ele>83.83333333333333</ele><time>2026-04-25T13:09:02.874Z</time></trkpt><trkpt lat="45.6806507" lon="11.5841637"><ele>84.0</ele><time>2026-04-25T13:09:04.874Z</time></trkpt><trkpt lat="45.6807329" lon="11.58416"><ele>84.0</ele><time>2026-04-25T13:09:06.874Z</time></trkpt><trkpt lat="45.6808087" lon="11.5841537"><ele>84.0</ele><time>2026-04-25T13:09:08.93Z</time></trkpt><trkpt lat="45.6808775" lon="11.5841687"><ele>84.0</ele><time>2026-04-25T13:09:10.944Z</time></trkpt><trkpt lat="45.6809432" lon="11.5841766"><ele>84.0</ele><time>2026-04-25T13:09:12.959Z</time></trkpt><trkpt lat="45.6810196" lon="11.5841864"><ele>84.0</ele><time>2026-04-25T13:09:14.875Z</time></trkpt><trkpt lat="45.6811031" lon="11.5841849"><ele>84.0</ele><time>2026-04-25T13:09:16.885Z</time></trkpt><trkpt lat="45.6811966" lon="11.5841817"><ele>84.0</ele><time>2026-04-25T13:09:18.899Z</time></trkpt><trkpt lat="45.6812907" lon="11.5841763"><ele>84.0</ele><time>2026-04-25T13:09:20.913Z</time></trkpt><trkpt lat="45.6813824" lon="11.5841761"><ele>84.0</ele><time>2026-04-25T13:09:22.927Z</time></trkpt><trkpt lat="45.6814792" lon="11.5841859"><ele>84.0</ele><time>2026-04-25T13:09:24.941Z</time></trkpt><trkpt lat="45.6815701" lon="11.5841838"><ele>84.0</ele><time>2026-04-25T13:09:26.954Z</time></trkpt><trkpt lat="45.6816364" lon="11.5841347"><ele>84.0</ele><time>2026-04-25T13:09:28.874Z</time></trkpt><trkpt lat="45.6816421" lon="11.5840151"><ele>84.0</ele><time>2026-04-25T13:09:30.881Z</time></trkpt><trkpt lat="45.6816118" lon="11.583859"><ele>84.0</ele><time>2026-04-25T13:09:32.875Z</time></trkpt><trkpt lat="45.6815609" lon="11.5837161"><ele>84.0</ele><time>2026-04-25T13:09:34.874Z</time></trkpt><trkpt lat="45.6815037" lon="11.5835814"><ele>84.0</ele><time>2026-04-25T13:09:36.874Z</time></trkpt><trkpt lat="45.6814469" lon="11.5834418"><ele>84.0</ele><time>2026-04-25T13:09:38.874Z</time></trkpt><trkpt lat="45.6813934" lon="11.5832968"><ele>84.0</ele><time>2026-04-25T13:09:40.874Z</time></trkpt><trkpt lat="45.6813477" lon="11.5831534"><ele>84.0</ele><time>2026-04-25T13:09:42.874Z</time></trkpt><trkpt lat="45.6813245" lon="11.582995"><ele>84.0</ele><time>2026-04-25T13:09:44.874Z</time></trkpt><trkpt lat="45.6813126" lon="11.5828382"><ele>84.0</ele><time>2026-04-25T13:09:46.874Z</time></trkpt><trkpt lat="45.6812958" lon="11.5826838"><ele>84.0</ele><time>2026-04-25T13:09:48.874Z</time></trkpt><trkpt lat="45.681271" lon="11.5825313"><ele>84.0</ele><time>2026-04-25T13:09:50.874Z</time></trkpt><trkpt lat="45.6812567" lon="11.582375"><ele>84.0</ele><time>2026-04-25T13:09:52.874Z</time></trkpt><trkpt lat="45.681228" lon="11.5822362"><ele>84.0</ele><time>2026-04-25T13:09:54.874Z</time></trkpt><trkpt lat="45.6811937" lon="11.5820881"><ele>84.0</ele><time>2026-04-25T13:09:56.875Z</time></trkpt><trkpt lat="45.6811541" lon="11.5819436"><ele>84.0</ele><time>2026-04-25T13:09:58.874Z</time></trkpt><trkpt lat="45.6811109" lon="11.5818149"><ele>84.0</ele><time>2026-04-25T13:10:00.874Z</time></trkpt><trkpt lat="45.6810525" lon="11.5816888"><ele>84.0</ele><time>2026-04-25T13:10:02.874Z</time></trkpt><trkpt lat="45.6809867" lon="11.5815606"><ele>84.0</ele><time>2026-04-25T13:10:04.874Z</time></trkpt><trkpt lat="45.6809459" lon="11.5814196"><ele>84.0</ele><time>2026-04-25T13:10:06.874Z</time></trkpt><trkpt lat="45.6809056" lon="11.581279"><ele>84.0</ele><time>2026-04-25T13:10:08.875Z</time></trkpt><trkpt lat="45.6808785" lon="11.5811525"><ele>84.0</ele><time>2026-04-25T13:10:10.875Z</time></trkpt><trkpt lat="45.680848" lon="11.5810272"><ele>84.0</ele><time>2026-04-25T13:10:12.875Z</time></trkpt><trkpt lat="45.6808233" lon="11.5809073"><ele>84.0</ele><time>2026-04-25T13:10:14.875Z</time></trkpt><trkpt lat="45.6808201" lon="11.5807924"><ele>84.0</ele><time>2026-04-25T13:10:16.875Z</time></trkpt><trkpt lat="45.6809021" lon="11.5807136"><ele>84.0</ele><time>2026-04-25T13:10:18.875Z</time></trkpt><trkpt lat="45.6809914" lon="11.5806803"><ele>84.0</ele><time>2026-04-25T13:10:20.875Z</time></trkpt><trkpt lat="45.6810846" lon="11.5806303"><ele>84.0</ele><time>2026-04-25T13:10:22.875Z</time></trkpt><trkpt lat="45.6811672" lon="11.5805837"><ele>84.0</ele><time>2026-04-25T13:10:24.875Z</time></trkpt><trkpt lat="45.6812513" lon="11.5805379"><ele>84.0</ele><time>2026-04-25T13:10:26.875Z</time></trkpt><trkpt lat="45.6813306" lon="11.5804831"><ele>84.0</ele><time>2026-04-25T13:10:28.875Z</time></trkpt><trkpt lat="45.6814075" lon="11.580417"><ele>84.0</ele><time>2026-04-25T13:10:30.875Z</time></trkpt><trkpt lat="45.681483" lon="11.5803491"><ele>84.0</ele><time>2026-04-25T13:10:32.875Z</time></trkpt><trkpt lat="45.6815566" lon="11.58027"><ele>84.0</ele><time>2026-04-25T13:10:34.876Z</time></trkpt><trkpt lat="45.6816305" lon="11.5801904"><ele>84.0</ele><time>2026-04-25T13:10:36.875Z</time></trkpt><trkpt lat="45.6817129" lon="11.5801131"><ele>84.0</ele><time>2026-04-25T13:10:38.875Z</time></trkpt><trkpt lat="45.681797" lon="11.5800383"><ele>84.0</ele><time>2026-04-25T13:10:40.875Z</time></trkpt><trkpt lat="45.681887" lon="11.5799828"><ele>84.0</ele><time>2026-04-25T13:10:42.875Z</time></trkpt><trkpt lat="45.6819843" lon="11.5799512"><ele>84.0</ele><time>2026-04-25T13:10:44.875Z</time></trkpt><trkpt lat="45.6820756" lon="11.5799512"><ele>84.0</ele><time>2026-04-25T13:10:46.875Z</time></trkpt><trkpt lat="45.682165" lon="11.5799531"><ele>84.0</ele><time>2026-04-25T13:10:48.875Z</time></trkpt><trkpt lat="45.6822527" lon="11.5799554"><ele>84.2</ele><time>2026-04-25T13:10:50.875Z</time></trkpt><trkpt lat="45.6823544" lon="11.5799627"><ele>84.4</ele><time>2026-04-25T13:10:52.875Z</time></trkpt><trkpt lat="45.6824487" lon="11.579966"><ele>84.6</ele><time>2026-04-25T13:10:54.875Z</time></trkpt><trkpt lat="45.6825391" lon="11.5799684"><ele>84.8</ele><time>2026-04-25T13:10:56.875Z</time></trkpt><trkpt lat="45.6826365" lon="11.5799675"><ele>85.0</ele><time>2026-04-25T13:10:58.875Z</time></trkpt><trkpt lat="45.6827249" lon="11.5799714"><ele>85.2</ele><time>2026-04-25T13:11:00.876Z</time></trkpt><trkpt lat="45.6828218" lon="11.579963"><ele>85.4</ele><time>2026-04-25T13:11:02.875Z</time></trkpt><trkpt lat="45.6829107" lon="11.5799571"><ele>85.6</ele><time>2026-04-25T13:11:04.875Z</time></trkpt><trkpt lat="45.6829982" lon="11.5799418"><ele>85.8</ele><time>2026-04-25T13:11:06.875Z</time></trkpt><trkpt lat="45.683093" lon="11.5799205"><ele>86.0</ele><time>2026-04-25T13:11:08.876Z</time></trkpt><trkpt lat="45.6831901" lon="11.5798874"><ele>86.0</ele><time>2026-04-25T13:11:10.875Z</time></trkpt><trkpt lat="45.683275" lon="11.5798379"><ele>86.0</ele><time>2026-04-25T13:11:12.876Z</time></trkpt><trkpt lat="45.6833592" lon="11.5797763"><ele>86.0</ele><time>2026-04-25T13:11:14.875Z</time></trkpt><trkpt lat="45.6834483" lon="11.5797264"><ele>86.0</ele><time>2026-04-25T13:11:16.875Z</time></trkpt><trkpt lat="45.6835297" lon="11.5796596"><ele>86.0</ele><time>2026-04-25T13:11:18.875Z</time></trkpt><trkpt lat="45.6836238" lon="11.5794972"><ele>85.8</ele><time>2026-04-25T13:11:21.876Z</time></trkpt><trkpt lat="45.6836162" lon="11.5793503"><ele>85.6</ele><time>2026-04-25T13:11:23.876Z</time></trkpt><trkpt lat="45.6835623" lon="11.5792185"><ele>85.4</ele><time>2026-04-25T13:11:25.876Z</time></trkpt><trkpt lat="45.683507" lon="11.5790883"><ele>85.2</ele><time>2026-04-25T13:11:27.876Z</time></trkpt><trkpt lat="45.6834692" lon="11.5789548"><ele>85.0</ele><time>2026-04-25T13:11:29.877Z</time></trkpt><trkpt lat="45.6834787" lon="11.5788158"><ele>85.0</ele><time>2026-04-25T13:11:31.876Z</time></trkpt><trkpt lat="45.6835463" lon="11.5787209"><ele>85.0</ele><time>2026-04-25T13:11:33.876Z</time></trkpt><trkpt lat="45.6836445" lon="11.5786852"><ele>85.0</ele><time>2026-04-25T13:11:35.876Z</time></trkpt><trkpt lat="45.6837375" lon="11.5786526"><ele>85.0</ele><time>2026-04-25T13:11:37.876Z</time></trkpt><trkpt lat="45.6838295" lon="11.5786071"><ele>85.0</ele><time>2026-04-25T13:11:39.876Z</time></trkpt><trkpt lat="45.6839125" lon="11.5785609"><ele>85.6</ele><time>2026-04-25T13:11:41.876Z</time></trkpt><trkpt lat="45.6840028" lon="11.5785217"><ele>86.2</ele><time>2026-04-25T13:11:43.876Z</time></trkpt><trkpt lat="45.6840947" lon="11.5784896"><ele>86.80000000000001</ele><time>2026-04-25T13:11:45.876Z</time></trkpt><trkpt lat="45.6841767" lon="11.5784481"><ele>87.4</ele><time>2026-04-25T13:11:47.876Z</time></trkpt><trkpt lat="45.6842626" lon="11.5784057"><ele>88.0</ele><time>2026-04-25T13:11:49.876Z</time></trkpt><trkpt lat="45.684356" lon="11.5783668"><ele>88.16666666666666</ele><time>2026-04-25T13:11:51.876Z</time></trkpt><trkpt lat="45.6844431" lon="11.5783271"><ele>88.33333333333333</ele><time>2026-04-25T13:11:53.876Z</time></trkpt><trkpt lat="45.6845281" lon="11.5782998"><ele>88.5</ele><time>2026-04-25T13:11:55.876Z</time></trkpt><trkpt lat="45.6846078" lon="11.5782703"><ele>88.66666666666667</ele><time>2026-04-25T13:11:57.876Z</time></trkpt><trkpt lat="45.6846884" lon="11.5782276"><ele>88.83333333333334</ele><time>2026-04-25T13:11:59.876Z</time></trkpt><trkpt lat="45.6847695" lon="11.5781902"><ele>89.0</ele><time>2026-04-25T13:12:01.876Z</time></trkpt><trkpt lat="45.6848511" lon="11.5781549"><ele>89.0</ele><time>2026-04-25T13:12:03.876Z</time></trkpt><trkpt lat="45.6849402" lon="11.5781187"><ele>89.0</ele><time>2026-04-25T13:12:05.876Z</time></trkpt><trkpt lat="45.6850279" lon="11.5780739"><ele>89.0</ele><time>2026-04-25T13:12:07.877Z</time></trkpt><trkpt lat="45.6851105" lon="11.5780229"><ele>89.0</ele><time>2026-04-25T13:12:09.876Z</time></trkpt><trkpt lat="45.6851965" lon="11.577977"><ele>89.0</ele><time>2026-04-25T13:12:11.876Z</time></trkpt><trkpt lat="45.6852838" lon="11.5779131"><ele>88.6</ele><time>2026-04-25T13:12:13.876Z</time></trkpt><trkpt lat="45.6853776" lon="11.577853"><ele>88.2</ele><time>2026-04-25T13:12:15.876Z</time></trkpt><trkpt lat="45.6854657" lon="11.5778175"><ele>87.8</ele><time>2026-04-25T13:12:17.876Z</time></trkpt><trkpt lat="45.6855534" lon="11.5777844"><ele>87.39999999999999</ele><time>2026-04-25T13:12:19.876Z</time></trkpt><trkpt lat="45.6856409" lon="11.577742"><ele>87.0</ele><time>2026-04-25T13:12:21.876Z</time></trkpt><trkpt lat="45.6857263" lon="11.5777006"><ele>87.0</ele><time>2026-04-25T13:12:23.876Z</time></trkpt><trkpt lat="45.6858051" lon="11.5776603"><ele>87.0</ele><time>2026-04-25T13:12:25.876Z</time></trkpt><trkpt lat="45.6858851" lon="11.5776268"><ele>87.0</ele><time>2026-04-25T13:12:27.876Z</time></trkpt><trkpt lat="45.6859638" lon="11.5775916"><ele>87.0</ele><time>2026-04-25T13:12:29.876Z</time></trkpt><trkpt lat="45.6860447" lon="11.5775572"><ele>87.0</ele><time>2026-04-25T13:12:31.876Z</time></trkpt><trkpt lat="45.6861273" lon="11.5775209"><ele>87.0</ele><time>2026-04-25T13:12:33.876Z</time></trkpt><trkpt lat="45.6862081" lon="11.5774893"><ele>87.16666666666667</ele><time>2026-04-25T13:12:35.876Z</time></trkpt><trkpt lat="45.6862916" lon="11.5774557"><ele>87.33333333333333</ele><time>2026-04-25T13:12:37.876Z</time></trkpt><trkpt lat="45.6863715" lon="11.5774176"><ele>87.5</ele><time>2026-04-25T13:12:39.877Z</time></trkpt><trkpt lat="45.6864444" lon="11.577384"><ele>87.66666666666666</ele><time>2026-04-25T13:12:41.877Z</time></trkpt><trkpt lat="45.6865199" lon="11.5773517"><ele>87.83333333333333</ele><time>2026-04-25T13:12:43.877Z</time></trkpt><trkpt lat="45.6865974" lon="11.577319"><ele>88.0</ele><time>2026-04-25T13:12:45.878Z</time></trkpt><trkpt lat="45.6866728" lon="11.5772822"><ele>88.0</ele><time>2026-04-25T13:12:47.877Z</time></trkpt><trkpt lat="45.6867426" lon="11.5772485"><ele>88.0</ele><time>2026-04-25T13:12:49.877Z</time></trkpt><trkpt lat="45.6868155" lon="11.577224"><ele>88.0</ele><time>2026-04-25T13:12:51.877Z</time></trkpt><trkpt lat="45.6868916" lon="11.5771908"><ele>88.0</ele><time>2026-04-25T13:12:53.877Z</time></trkpt><trkpt lat="45.686969" lon="11.5771487"><ele>88.0</ele><time>2026-04-25T13:12:55.877Z</time></trkpt><trkpt lat="45.6870502" lon="11.5771146"><ele>88.0</ele><time>2026-04-25T13:12:57.877Z</time></trkpt><trkpt lat="45.6871293" lon="11.5770748"><ele>88.33333333333333</ele><time>2026-04-25T13:12:59.877Z</time></trkpt><trkpt lat="45.6872042" lon="11.577024"><ele>88.66666666666666</ele><time>2026-04-25T13:13:01.877Z</time></trkpt><trkpt lat="45.6872825" lon="11.5769859"><ele>89.0</ele><time>2026-04-25T13:13:03.877Z</time></trkpt><trkpt lat="45.6873623" lon="11.5769456"><ele>89.33333333333333</ele><time>2026-04-25T13:13:05.877Z</time></trkpt><trkpt lat="45.6874492" lon="11.5769024"><ele>89.66666666666667</ele><time>2026-04-25T13:13:07.877Z</time></trkpt><trkpt lat="45.6875319" lon="11.5768498"><ele>90.0</ele><time>2026-04-25T13:13:09.878Z</time></trkpt><trkpt lat="45.6876174" lon="11.5767997"><ele>90.16666666666667</ele><time>2026-04-25T13:13:11.877Z</time></trkpt><trkpt lat="45.6877053" lon="11.5767453"><ele>90.33333333333333</ele><time>2026-04-25T13:13:13.877Z</time></trkpt><trkpt lat="45.6877939" lon="11.5766976"><ele>90.5</ele><time>2026-04-25T13:13:15.877Z</time></trkpt><trkpt lat="45.6878743" lon="11.5766443"><ele>90.66666666666666</ele><time>2026-04-25T13:13:17.877Z</time></trkpt><trkpt lat="45.6879415" lon="11.5766425"><ele>90.83333333333333</ele><time>2026-04-25T13:13:19.877Z</time></trkpt><trkpt lat="45.6879727" lon="11.5767657"><ele>91.0</ele><time>2026-04-25T13:13:21.877Z</time></trkpt><trkpt lat="45.6879754" lon="11.5769288"><ele>91.0</ele><time>2026-04-25T13:13:23.877Z</time></trkpt><trkpt lat="45.6879939" lon="11.5770678"><ele>91.0</ele><time>2026-04-25T13:13:25.878Z</time></trkpt><trkpt lat="45.6880064" lon="11.5772205"><ele>91.0</ele><time>2026-04-25T13:13:27.877Z</time></trkpt><trkpt lat="45.6880265" lon="11.5773698"><ele>91.0</ele><time>2026-04-25T13:13:29.877Z</time></trkpt><trkpt lat="45.6880216" lon="11.5774692"><ele>91.0</ele><time>2026-04-25T13:13:30.877Z</time></trkpt><trkpt lat="45.6880344" lon="11.577624"><ele>91.0</ele><time>2026-04-25T13:13:32.877Z</time></trkpt><trkpt lat="45.6880584" lon="11.5777708"><ele>91.0</ele><time>2026-04-25T13:13:34.877Z</time></trkpt><trkpt lat="45.688077" lon="11.5779187"><ele>91.0</ele><time>2026-04-25T13:13:36.877Z</time></trkpt><trkpt lat="45.6880912" lon="11.5780738"><ele>91.0</ele><time>2026-04-25T13:13:38.878Z</time></trkpt><trkpt lat="45.6881058" lon="11.5782298"><ele>91.0</ele><time>2026-04-25T13:13:40.877Z</time></trkpt><trkpt lat="45.6881235" lon="11.5783805"><ele>90.6</ele><time>2026-04-25T13:13:42.877Z</time></trkpt><trkpt lat="45.6881383" lon="11.5785305"><ele>90.19999999999999</ele><time>2026-04-25T13:13:44.877Z</time></trkpt><trkpt lat="45.688156" lon="11.5786773"><ele>89.80000000000001</ele><time>2026-04-25T13:13:46.877Z</time></trkpt><trkpt lat="45.6881737" lon="11.578826"><ele>89.4</ele><time>2026-04-25T13:13:48.877Z</time></trkpt><trkpt lat="45.6881901" lon="11.5789678"><ele>89.0</ele><time>2026-04-25T13:13:50.877Z</time></trkpt><trkpt lat="45.6882085" lon="11.5791138"><ele>89.0</ele><time>2026-04-25T13:13:52.878Z</time></trkpt><trkpt lat="45.6882231" lon="11.5792606"><ele>89.0</ele><time>2026-04-25T13:13:54.877Z</time></trkpt><trkpt lat="45.6882365" lon="11.57941"><ele>89.0</ele><time>2026-04-25T13:13:56.878Z</time></trkpt><trkpt lat="45.6882514" lon="11.579566"><ele>89.0</ele><time>2026-04-25T13:13:58.878Z</time></trkpt><trkpt lat="45.6882716" lon="11.5797177"><ele>89.0</ele><time>2026-04-25T13:14:00.878Z</time></trkpt><trkpt lat="45.6882807" lon="11.5798664"><ele>89.0</ele><time>2026-04-25T13:14:02.878Z</time></trkpt><trkpt lat="45.6882913" lon="11.5800133"><ele>89.0</ele><time>2026-04-25T13:14:04.878Z</time></trkpt><trkpt lat="45.6883075" lon="11.5801591"><ele>89.0</ele><time>2026-04-25T13:14:06.878Z</time></trkpt><trkpt lat="45.6883228" lon="11.5803005"><ele>89.0</ele><time>2026-04-25T13:14:08.878Z</time></trkpt><trkpt lat="45.6883378" lon="11.5804423"><ele>89.0</ele><time>2026-04-25T13:14:10.878Z</time></trkpt><trkpt lat="45.6883539" lon="11.5805795"><ele>88.80000000000001</ele><time>2026-04-25T13:14:12.879Z</time></trkpt><trkpt lat="45.6883685" lon="11.5807201"><ele>88.60000000000001</ele><time>2026-04-25T13:14:14.878Z</time></trkpt><trkpt lat="45.6883937" lon="11.5808616"><ele>88.4</ele><time>2026-04-25T13:14:16.878Z</time></trkpt><trkpt lat="45.6884363" lon="11.5809961"><ele>88.2</ele><time>2026-04-25T13:14:18.878Z</time></trkpt><trkpt lat="45.6885076" lon="11.581016"><ele>88.0</ele><time>2026-04-25T13:14:21.878Z</time></trkpt><trkpt lat="45.6885259" lon="11.5808996"><ele>88.0</ele><time>2026-04-25T13:14:24.878Z</time></trkpt><trkpt lat="45.6885944" lon="11.5808694"><ele>88.0</ele><time>2026-04-25T13:14:26.878Z</time></trkpt><trkpt lat="45.6886641" lon="11.5808608"><ele>88.0</ele><time>2026-04-25T13:14:28.878Z</time></trkpt><trkpt lat="45.6887282" lon="11.5808288"><ele>88.0</ele><time>2026-04-25T13:14:30.878Z</time></trkpt><trkpt lat="45.6887986" lon="11.5808033"><ele>88.0</ele><time>2026-04-25T13:14:32.878Z</time></trkpt><trkpt lat="45.6888761" lon="11.5807798"><ele>88.0</ele><time>2026-04-25T13:14:34.878Z</time></trkpt><trkpt lat="45.6889536" lon="11.5807465"><ele>88.0</ele><time>2026-04-25T13:14:36.878Z</time></trkpt><trkpt lat="45.6890289" lon="11.5807146"><ele>88.0</ele><time>2026-04-25T13:14:38.878Z</time></trkpt><trkpt lat="45.6891065" lon="11.5806888"><ele>88.0</ele><time>2026-04-25T13:14:40.878Z</time></trkpt><trkpt lat="45.6891893" lon="11.5806666"><ele>88.0</ele><time>2026-04-25T13:14:42.878Z</time></trkpt><trkpt lat="45.6892718" lon="11.580641"><ele>88.0</ele><time>2026-04-25T13:14:44.878Z</time></trkpt><trkpt lat="45.6893471" lon="11.5806167"><ele>88.0</ele><time>2026-04-25T13:14:46.878Z</time></trkpt><trkpt lat="45.6894216" lon="11.5805812"><ele>88.0</ele><time>2026-04-25T13:14:48.878Z</time></trkpt><trkpt lat="45.6894938" lon="11.5805343"><ele>88.33333333333333</ele><time>2026-04-25T13:14:50.878Z</time></trkpt><trkpt lat="45.6895724" lon="11.5805181"><ele>88.66666666666666</ele><time>2026-04-25T13:14:52.878Z</time></trkpt><trkpt lat="45.6896559" lon="11.5804921"><ele>89.0</ele><time>2026-04-25T13:14:54.878Z</time></trkpt><trkpt lat="45.6897442" lon="11.5804603"><ele>89.33333333333333</ele><time>2026-04-25T13:14:56.879Z</time></trkpt><trkpt lat="45.68983" lon="11.5804434"><ele>89.66666666666667</ele><time>2026-04-25T13:14:58.879Z</time></trkpt><trkpt lat="45.6899151" lon="11.5804152"><ele>90.0</ele><time>2026-04-25T13:15:00.878Z</time></trkpt><trkpt lat="45.6900012" lon="11.5803814"><ele>90.0</ele><time>2026-04-25T13:15:02.879Z</time></trkpt><trkpt lat="45.6900893" lon="11.5803479"><ele>90.0</ele><time>2026-04-25T13:15:04.879Z</time></trkpt><trkpt lat="45.6901731" lon="11.5803157"><ele>90.0</ele><time>2026-04-25T13:15:06.878Z</time></trkpt><trkpt lat="45.6902576" lon="11.5802816"><ele>90.0</ele><time>2026-04-25T13:15:08.879Z</time></trkpt><trkpt lat="45.6903306" lon="11.580248"><ele>90.0</ele><time>2026-04-25T13:15:10.879Z</time></trkpt><trkpt lat="45.6904185" lon="11.5802228"><ele>90.0</ele><time>2026-04-25T13:15:12.879Z</time></trkpt><trkpt lat="45.6905096" lon="11.5801918"><ele>90.6</ele><time>2026-04-25T13:15:14.879Z</time></trkpt><trkpt lat="45.6905958" lon="11.5801622"><ele>91.2</ele><time>2026-04-25T13:15:16.879Z</time></trkpt><trkpt lat="45.6906946" lon="11.5801317"><ele>91.80000000000001</ele><time>2026-04-25T13:15:18.879Z</time></trkpt><trkpt lat="45.6907867" lon="11.5801023"><ele>92.4</ele><time>2026-04-25T13:15:20.879Z</time></trkpt><trkpt lat="45.6908715" lon="11.5800772"><ele>93.0</ele><time>2026-04-25T13:15:22.879Z</time></trkpt><trkpt lat="45.6909609" lon="11.5800413"><ele>93.0</ele><time>2026-04-25T13:15:24.879Z</time></trkpt><trkpt lat="45.6910464" lon="11.5800055"><ele>93.0</ele><time>2026-04-25T13:15:26.879Z</time></trkpt><trkpt lat="45.6911331" lon="11.5799741"><ele>93.0</ele><time>2026-04-25T13:15:28.879Z</time></trkpt><trkpt lat="45.6912214" lon="11.5799449"><ele>93.0</ele><time>2026-04-25T13:15:30.879Z</time></trkpt><trkpt lat="45.6913091" lon="11.5799169"><ele>93.0</ele><time>2026-04-25T13:15:32.879Z</time></trkpt><trkpt lat="45.6913964" lon="11.5798815"><ele>92.83333333333333</ele><time>2026-04-25T13:15:34.879Z</time></trkpt><trkpt lat="45.6914889" lon="11.5798507"><ele>92.66666666666667</ele><time>2026-04-25T13:15:36.879Z</time></trkpt><trkpt lat="45.6915727" lon="11.5798231"><ele>92.5</ele><time>2026-04-25T13:15:38.88Z</time></trkpt><trkpt lat="45.6916636" lon="11.5797873"><ele>92.33333333333334</ele><time>2026-04-25T13:15:40.879Z</time></trkpt><trkpt lat="45.6917438" lon="11.5797588"><ele>92.16666666666667</ele><time>2026-04-25T13:15:42.879Z</time></trkpt><trkpt lat="45.6918283" lon="11.5797332"><ele>92.0</ele><time>2026-04-25T13:15:44.88Z</time></trkpt><trkpt lat="45.691915" lon="11.5796927"><ele>91.6</ele><time>2026-04-25T13:15:46.879Z</time></trkpt><trkpt lat="45.6920057" lon="11.5796589"><ele>91.19999999999999</ele><time>2026-04-25T13:15:48.879Z</time></trkpt><trkpt lat="45.692092" lon="11.5796254"><ele>90.8</ele><time>2026-04-25T13:15:50.879Z</time></trkpt><trkpt lat="45.6921802" lon="11.5795983"><ele>90.4</ele><time>2026-04-25T13:15:52.88Z</time></trkpt><trkpt lat="45.6922673" lon="11.5795662"><ele>90.0</ele><time>2026-04-25T13:15:54.879Z</time></trkpt><trkpt lat="45.6923544" lon="11.5795345"><ele>90.2</ele><time>2026-04-25T13:15:56.879Z</time></trkpt><trkpt lat="45.6924488" lon="11.5794955"><ele>90.4</ele><time>2026-04-25T13:15:58.88Z</time></trkpt><trkpt lat="45.6925419" lon="11.5794649"><ele>90.6</ele><time>2026-04-25T13:16:00.879Z</time></trkpt><trkpt lat="45.6926278" lon="11.5794305"><ele>90.8</ele><time>2026-04-25T13:16:02.879Z</time></trkpt><trkpt lat="45.6927152" lon="11.579394"><ele>91.0</ele><time>2026-04-25T13:16:04.88Z</time></trkpt><trkpt lat="45.6928058" lon="11.5793534"><ele>91.16666666666666</ele><time>2026-04-25T13:16:06.879Z</time></trkpt><trkpt lat="45.6928975" lon="11.5793196"><ele>91.33333333333333</ele><time>2026-04-25T13:16:08.879Z</time></trkpt><trkpt lat="45.692983" lon="11.5792943"><ele>91.5</ele><time>2026-04-25T13:16:10.879Z</time></trkpt><trkpt lat="45.693071" lon="11.5792607"><ele>91.66666666666667</ele><time>2026-04-25T13:16:12.879Z</time></trkpt><trkpt lat="45.6931541" lon="11.579224"><ele>91.83333333333334</ele><time>2026-04-25T13:16:14.879Z</time></trkpt><trkpt lat="45.6932389" lon="11.5791879"><ele>92.0</ele><time>2026-04-25T13:16:16.879Z</time></trkpt><trkpt lat="45.6933186" lon="11.5791514"><ele>92.0</ele><time>2026-04-25T13:16:18.88Z</time></trkpt><trkpt lat="45.6934119" lon="11.5791001"><ele>92.0</ele><time>2026-04-25T13:16:20.88Z</time></trkpt><trkpt lat="45.6935025" lon="11.579102"><ele>92.0</ele><time>2026-04-25T13:16:22.88Z</time></trkpt><trkpt lat="45.6935762" lon="11.5791945"><ele>92.0</ele><time>2026-04-25T13:16:24.88Z</time></trkpt><trkpt lat="45.6936098" lon="11.5793485"><ele>92.0</ele><time>2026-04-25T13:16:26.88Z</time></trkpt><trkpt lat="45.6936304" lon="11.5794798"><ele>91.8</ele><time>2026-04-25T13:16:28.88Z</time></trkpt><trkpt lat="45.6936548" lon="11.5796025"><ele>91.6</ele><time>2026-04-25T13:16:30.881Z</time></trkpt><trkpt lat="45.6936739" lon="11.5797178"><ele>91.39999999999999</ele><time>2026-04-25T13:16:32.881Z</time></trkpt><trkpt lat="45.6937008" lon="11.5798439"><ele>91.19999999999999</ele><time>2026-04-25T13:16:34.881Z</time></trkpt><trkpt lat="45.6937293" lon="11.5799809"><ele>91.0</ele><time>2026-04-25T13:16:36.88Z</time></trkpt><trkpt lat="45.693764" lon="11.5801159"><ele>91.0</ele><time>2026-04-25T13:16:38.88Z</time></trkpt><trkpt lat="45.6937969" lon="11.5802479"><ele>91.0</ele><time>2026-04-25T13:16:40.88Z</time></trkpt><trkpt lat="45.6938444" lon="11.5803655"><ele>91.0</ele><time>2026-04-25T13:16:42.88Z</time></trkpt><trkpt lat="45.6939079" lon="11.580465"><ele>91.0</ele><time>2026-04-25T13:16:44.88Z</time></trkpt><trkpt lat="45.6939845" lon="11.5805498"><ele>91.0</ele><time>2026-04-25T13:16:46.88Z</time></trkpt><trkpt lat="45.6940596" lon="11.5806359"><ele>91.19999999999999</ele><time>2026-04-25T13:16:48.88Z</time></trkpt><trkpt lat="45.694136" lon="11.5807225"><ele>91.39999999999999</ele><time>2026-04-25T13:16:50.88Z</time></trkpt><trkpt lat="45.6942109" lon="11.5808173"><ele>91.6</ele><time>2026-04-25T13:16:52.88Z</time></trkpt><trkpt lat="45.6942822" lon="11.5809149"><ele>91.8</ele><time>2026-04-25T13:16:54.88Z</time></trkpt><trkpt lat="45.6943494" lon="11.5810132"><ele>92.0</ele><time>2026-04-25T13:16:56.88Z</time></trkpt><trkpt lat="45.6944135" lon="11.5811088"><ele>92.19999999999999</ele><time>2026-04-25T13:16:58.881Z</time></trkpt><trkpt lat="45.6944763" lon="11.5812048"><ele>92.4</ele><time>2026-04-25T13:17:00.88Z</time></trkpt><trkpt lat="45.6945409" lon="11.5812949"><ele>92.6</ele><time>2026-04-25T13:17:02.88Z</time></trkpt><trkpt lat="45.6946053" lon="11.5813856"><ele>92.80000000000001</ele><time>2026-04-25T13:17:04.88Z</time></trkpt><trkpt lat="45.6946683" lon="11.5814817"><ele>93.0</ele><time>2026-04-25T13:17:06.88Z</time></trkpt><trkpt lat="45.6947313" lon="11.5815744"><ele>93.0</ele><time>2026-04-25T13:17:08.88Z</time></trkpt><trkpt lat="45.6947946" lon="11.5816652"><ele>93.0</ele><time>2026-04-25T13:17:10.88Z</time></trkpt><trkpt lat="45.6948511" lon="11.5817528"><ele>93.0</ele><time>2026-04-25T13:17:12.88Z</time></trkpt><trkpt lat="45.6949112" lon="11.5818404"><ele>93.0</ele><time>2026-04-25T13:17:14.881Z</time></trkpt><trkpt lat="45.694964" lon="11.5819164"><ele>93.0</ele><time>2026-04-25T13:17:16.881Z</time></trkpt><trkpt lat="45.6950101" lon="11.5820071"><ele>93.0</ele><time>2026-04-25T13:17:18.88Z</time></trkpt><trkpt lat="45.6950672" lon="11.5820936"><ele>92.83333333333333</ele><time>2026-04-25T13:17:20.88Z</time></trkpt><trkpt lat="45.6951362" lon="11.5821928"><ele>92.66666666666667</ele><time>2026-04-25T13:17:22.88Z</time></trkpt><trkpt lat="45.6951893" lon="11.5822675"><ele>92.5</ele><time>2026-04-25T13:17:24.881Z</time></trkpt><trkpt lat="45.6952493" lon="11.5823339"><ele>92.33333333333334</ele><time>2026-04-25T13:17:26.881Z</time></trkpt><trkpt lat="45.6953215" lon="11.58241"><ele>92.16666666666667</ele><time>2026-04-25T13:17:28.88Z</time></trkpt><trkpt lat="45.6954142" lon="11.5824325"><ele>92.0</ele><time>2026-04-25T13:17:30.88Z</time></trkpt><trkpt lat="45.6955073" lon="11.5824019"><ele>92.0</ele><time>2026-04-25T13:17:32.88Z</time></trkpt><trkpt lat="45.6955781" lon="11.5823964"><ele>92.0</ele><time>2026-04-25T13:17:34.881Z</time></trkpt><trkpt lat="45.6956305" lon="11.5824747"><ele>92.0</ele><time>2026-04-25T13:17:36.881Z</time></trkpt><trkpt lat="45.6956593" lon="11.5826214"><ele>92.0</ele><time>2026-04-25T13:17:38.881Z</time></trkpt><trkpt lat="45.6956755" lon="11.5827607"><ele>92.0</ele><time>2026-04-25T13:17:40.881Z</time></trkpt><trkpt lat="45.6956889" lon="11.5829111"><ele>92.0</ele><time>2026-04-25T13:17:42.881Z</time></trkpt><trkpt lat="45.6957041" lon="11.5830576"><ele>92.0</ele><time>2026-04-25T13:17:44.881Z</time></trkpt><trkpt lat="45.6957372" lon="11.5832064"><ele>92.0</ele><time>2026-04-25T13:17:46.881Z</time></trkpt><trkpt lat="45.6957668" lon="11.5833488"><ele>92.0</ele><time>2026-04-25T13:17:48.881Z</time></trkpt><trkpt lat="45.6958037" lon="11.5834826"><ele>92.0</ele><time>2026-04-25T13:17:50.881Z</time></trkpt><trkpt lat="45.695862" lon="11.5835982"><ele>91.8</ele><time>2026-04-25T13:17:52.881Z</time></trkpt><trkpt lat="45.6959271" lon="11.5837096"><ele>91.6</ele><time>2026-04-25T13:17:54.881Z</time></trkpt><trkpt lat="45.695996" lon="11.583815"><ele>91.39999999999999</ele><time>2026-04-25T13:17:56.881Z</time></trkpt><trkpt lat="45.696064" lon="11.5839196"><ele>91.19999999999999</ele><time>2026-04-25T13:17:58.881Z</time></trkpt><trkpt lat="45.6961292" lon="11.5840315"><ele>91.0</ele><time>2026-04-25T13:18:00.881Z</time></trkpt><trkpt lat="45.696188" lon="11.584141"><ele>91.0</ele><time>2026-04-25T13:18:02.881Z</time></trkpt><trkpt lat="45.6962459" lon="11.58424"><ele>91.0</ele><time>2026-04-25T13:18:04.881Z</time></trkpt><trkpt lat="45.6962906" lon="11.5843472"><ele>91.0</ele><time>2026-04-25T13:18:06.882Z</time></trkpt><trkpt lat="45.6963337" lon="11.5844328"><ele>91.0</ele><time>2026-04-25T13:18:08.881Z</time></trkpt><trkpt lat="45.6964176" lon="11.5844763"><ele>91.0</ele><time>2026-04-25T13:18:11.881Z</time></trkpt><trkpt lat="45.6965024" lon="11.584515"><ele>91.0</ele><time>2026-04-25T13:18:14.881Z</time></trkpt><trkpt lat="45.6965319" lon="11.5846005"><ele>90.83333333333333</ele><time>2026-04-25T13:18:17.882Z</time></trkpt><trkpt lat="45.6965396" lon="11.5847096"><ele>90.66666666666666</ele><time>2026-04-25T13:18:19.881Z</time></trkpt><trkpt lat="45.6965421" lon="11.5848251"><ele>90.5</ele><time>2026-04-25T13:18:21.881Z</time></trkpt><trkpt lat="45.6965493" lon="11.5849574"><ele>90.33333333333333</ele><time>2026-04-25T13:18:23.882Z</time></trkpt><trkpt lat="45.6965616" lon="11.5850967"><ele>90.16666666666667</ele><time>2026-04-25T13:18:25.881Z</time></trkpt><trkpt lat="45.6965791" lon="11.5852386"><ele>90.0</ele><time>2026-04-25T13:18:27.881Z</time></trkpt><trkpt lat="45.6965995" lon="11.5853814"><ele>89.8</ele><time>2026-04-25T13:18:29.881Z</time></trkpt><trkpt lat="45.6966181" lon="11.585518"><ele>89.6</ele><time>2026-04-25T13:18:31.882Z</time></trkpt><trkpt lat="45.6966215" lon="11.5856634"><ele>89.4</ele><time>2026-04-25T13:18:33.882Z</time></trkpt><trkpt lat="45.6966359" lon="11.5858015"><ele>89.2</ele><time>2026-04-25T13:18:35.881Z</time></trkpt><trkpt lat="45.6966572" lon="11.585943"><ele>89.0</ele><time>2026-04-25T13:18:37.881Z</time></trkpt><trkpt lat="45.6966723" lon="11.5860844"><ele>88.6</ele><time>2026-04-25T13:18:39.881Z</time></trkpt><trkpt lat="45.6966881" lon="11.5862271"><ele>88.2</ele><time>2026-04-25T13:18:41.881Z</time></trkpt><trkpt lat="45.6967025" lon="11.5863717"><ele>87.8</ele><time>2026-04-25T13:18:43.881Z</time></trkpt><trkpt lat="45.6967134" lon="11.5865174"><ele>87.39999999999999</ele><time>2026-04-25T13:18:45.881Z</time></trkpt><trkpt lat="45.6967295" lon="11.5866586"><ele>87.0</ele><time>2026-04-25T13:18:47.883Z</time></trkpt><trkpt lat="45.696745" lon="11.5868074"><ele>87.0</ele><time>2026-04-25T13:18:49.882Z</time></trkpt><trkpt lat="45.6967615" lon="11.5869526"><ele>87.0</ele><time>2026-04-25T13:18:51.882Z</time></trkpt><trkpt lat="45.6967844" lon="11.5870975"><ele>87.0</ele><time>2026-04-25T13:18:53.883Z</time></trkpt><trkpt lat="45.6968152" lon="11.5872355"><ele>87.0</ele><time>2026-04-25T13:18:55.882Z</time></trkpt><trkpt lat="45.6968594" lon="11.5873581"><ele>87.0</ele><time>2026-04-25T13:18:57.882Z</time></trkpt><trkpt lat="45.6969062" lon="11.5874762"><ele>87.0</ele><time>2026-04-25T13:18:59.882Z</time></trkpt><trkpt lat="45.6969575" lon="11.5875917"><ele>87.0</ele><time>2026-04-25T13:19:01.882Z</time></trkpt><trkpt lat="45.6970191" lon="11.5877047"><ele>87.0</ele><time>2026-04-25T13:19:03.882Z</time></trkpt><trkpt lat="45.6970774" lon="11.5878197"><ele>87.0</ele><time>2026-04-25T13:19:05.882Z</time></trkpt><trkpt lat="45.6971443" lon="11.5879334"><ele>87.0</ele><time>2026-04-25T13:19:07.882Z</time></trkpt><trkpt lat="45.697214" lon="11.5880535"><ele>87.19999999999999</ele><time>2026-04-25T13:19:09.882Z</time></trkpt><trkpt lat="45.6972736" lon="11.5881741"><ele>87.4</ele><time>2026-04-25T13:19:11.883Z</time></trkpt><trkpt lat="45.6973375" lon="11.5882817"><ele>87.6</ele><time>2026-04-25T13:19:13.882Z</time></trkpt><trkpt lat="45.6973936" lon="11.5883975"><ele>87.80000000000001</ele><time>2026-04-25T13:19:15.882Z</time></trkpt><trkpt lat="45.6974465" lon="11.5885123"><ele>88.0</ele><time>2026-04-25T13:19:17.883Z</time></trkpt><trkpt lat="45.6974825" lon="11.5886365"><ele>88.4</ele><time>2026-04-25T13:19:19.882Z</time></trkpt><trkpt lat="45.6975013" lon="11.5887705"><ele>88.80000000000001</ele><time>2026-04-25T13:19:21.882Z</time></trkpt><trkpt lat="45.6975118" lon="11.588918"><ele>89.2</ele><time>2026-04-25T13:19:23.882Z</time></trkpt><trkpt lat="45.6975079" lon="11.589068"><ele>89.6</ele><time>2026-04-25T13:19:25.882Z</time></trkpt><trkpt lat="45.6974938" lon="11.5892196"><ele>90.0</ele><time>2026-04-25T13:19:27.882Z</time></trkpt><trkpt lat="45.6974853" lon="11.5893763"><ele>89.6</ele><time>2026-04-25T13:19:29.882Z</time></trkpt><trkpt lat="45.6974832" lon="11.5895333"><ele>89.2</ele><time>2026-04-25T13:19:31.883Z</time></trkpt><trkpt lat="45.6974742" lon="11.5896895"><ele>88.80000000000001</ele><time>2026-04-25T13:19:33.882Z</time></trkpt><trkpt lat="45.6974723" lon="11.5898474"><ele>88.4</ele><time>2026-04-25T13:19:35.883Z</time></trkpt><trkpt lat="45.6974734" lon="11.5900041"><ele>88.0</ele><time>2026-04-25T13:19:37.882Z</time></trkpt><trkpt lat="45.697465" lon="11.5901617"><ele>88.0</ele><time>2026-04-25T13:19:39.882Z</time></trkpt><trkpt lat="45.6974549" lon="11.5903199"><ele>88.0</ele><time>2026-04-25T13:19:41.882Z</time></trkpt><trkpt lat="45.6974349" lon="11.5904752"><ele>88.0</ele><time>2026-04-25T13:19:43.882Z</time></trkpt><trkpt lat="45.6974066" lon="11.5906225"><ele>88.0</ele><time>2026-04-25T13:19:45.882Z</time></trkpt><trkpt lat="45.6973753" lon="11.5907651"><ele>88.0</ele><time>2026-04-25T13:19:47.883Z</time></trkpt><trkpt lat="45.6973449" lon="11.5909072"><ele>87.60000000000001</ele><time>2026-04-25T13:19:49.882Z</time></trkpt><trkpt lat="45.6973134" lon="11.5910578"><ele>87.2</ele><time>2026-04-25T13:19:51.883Z</time></trkpt><trkpt lat="45.6972795" lon="11.5912142"><ele>86.8</ele><time>2026-04-25T13:19:53.883Z</time></trkpt><trkpt lat="45.6972507" lon="11.5913657"><ele>86.4</ele><time>2026-04-25T13:19:55.883Z</time></trkpt><trkpt lat="45.6972254" lon="11.5915141"><ele>86.0</ele><time>2026-04-25T13:19:57.882Z</time></trkpt><trkpt lat="45.697196" lon="11.5916562"><ele>85.6</ele><time>2026-04-25T13:19:59.883Z</time></trkpt><trkpt lat="45.6971667" lon="11.591799"><ele>85.19999999999999</ele><time>2026-04-25T13:20:01.883Z</time></trkpt><trkpt lat="45.6971282" lon="11.5919539"><ele>84.80000000000001</ele><time>2026-04-25T13:20:03.883Z</time></trkpt><trkpt lat="45.697093" lon="11.592113"><ele>84.4</ele><time>2026-04-25T13:20:05.883Z</time></trkpt><trkpt lat="45.6970533" lon="11.5922616"><ele>84.0</ele><time>2026-04-25T13:20:07.883Z</time></trkpt><trkpt lat="45.6970096" lon="11.5924033"><ele>84.0</ele><time>2026-04-25T13:20:09.883Z</time></trkpt><trkpt lat="45.6969527" lon="11.5925426"><ele>84.0</ele><time>2026-04-25T13:20:11.883Z</time></trkpt><trkpt lat="45.6968862" lon="11.5926788"><ele>84.0</ele><time>2026-04-25T13:20:13.883Z</time></trkpt><trkpt lat="45.6968198" lon="11.5928124"><ele>84.0</ele><time>2026-04-25T13:20:15.883Z</time></trkpt><trkpt lat="45.6967541" lon="11.5929553"><ele>84.0</ele><time>2026-04-25T13:20:17.883Z</time></trkpt><trkpt lat="45.696719" lon="11.5930303"><ele>84.0</ele><time>2026-04-25T13:20:18.883Z</time></trkpt><trkpt lat="45.696653" lon="11.5931725"><ele>84.0</ele><time>2026-04-25T13:20:20.883Z</time></trkpt><trkpt lat="45.6965884" lon="11.5933152"><ele>84.0</ele><time>2026-04-25T13:20:22.883Z</time></trkpt><trkpt lat="45.6965191" lon="11.5934534"><ele>84.0</ele><time>2026-04-25T13:20:24.883Z</time></trkpt><trkpt lat="45.6964589" lon="11.5935986"><ele>83.80000000000001</ele><time>2026-04-25T13:20:26.883Z</time></trkpt><trkpt lat="45.696412" lon="11.5937533"><ele>83.60000000000001</ele><time>2026-04-25T13:20:28.883Z</time></trkpt><trkpt lat="45.6963738" lon="11.5939253"><ele>83.4</ele><time>2026-04-25T13:20:30.883Z</time></trkpt><trkpt lat="45.6963589" lon="11.5940244"><ele>83.2</ele><time>2026-04-25T13:20:31.883Z</time></trkpt><trkpt lat="45.6963435" lon="11.5941251"><ele>83.0</ele><time>2026-04-25T13:20:32.883Z</time></trkpt><trkpt lat="45.6963312" lon="11.5942225"><ele>83.0</ele><time>2026-04-25T13:20:33.883Z</time></trkpt><trkpt lat="45.6963255" lon="11.594314"><ele>83.0</ele><time>2026-04-25T13:20:34.883Z</time></trkpt><trkpt lat="45.6963208" lon="11.5944042"><ele>83.0</ele><time>2026-04-25T13:20:35.883Z</time></trkpt><trkpt lat="45.6962994" lon="11.5945761"><ele>83.0</ele><time>2026-04-25T13:20:37.883Z</time></trkpt><trkpt lat="45.6962727" lon="11.5947414"><ele>83.0</ele><time>2026-04-25T13:20:39.883Z</time></trkpt><trkpt lat="45.6962482" lon="11.5949023"><ele>82.60000000000001</ele><time>2026-04-25T13:20:41.884Z</time></trkpt><trkpt lat="45.6962299" lon="11.5950633"><ele>82.2</ele><time>2026-04-25T13:20:43.883Z</time></trkpt><trkpt lat="45.6962107" lon="11.5952221"><ele>81.8</ele><time>2026-04-25T13:20:45.883Z</time></trkpt><trkpt lat="45.696187" lon="11.5953792"><ele>81.4</ele><time>2026-04-25T13:20:47.883Z</time></trkpt><trkpt lat="45.6961703" lon="11.5955302"><ele>81.0</ele><time>2026-04-25T13:20:49.883Z</time></trkpt><trkpt lat="45.6961592" lon="11.5956867"><ele>81.0</ele><time>2026-04-25T13:20:51.883Z</time></trkpt><trkpt lat="45.6961465" lon="11.5958474"><ele>81.0</ele><time>2026-04-25T13:20:53.883Z</time></trkpt><trkpt lat="45.6961432" lon="11.596001"><ele>81.0</ele><time>2026-04-25T13:20:55.883Z</time></trkpt><trkpt lat="45.6961374" lon="11.5961567"><ele>81.0</ele><time>2026-04-25T13:20:57.883Z</time></trkpt><trkpt lat="45.696151" lon="11.5963197"><ele>81.0</ele><time>2026-04-25T13:20:59.883Z</time></trkpt><trkpt lat="45.6962429" lon="11.5964374"><ele>81.0</ele><time>2026-04-25T13:21:01.883Z</time></trkpt><trkpt lat="45.6963065" lon="11.5964714"><ele>81.0</ele><time>2026-04-25T13:21:02.883Z</time></trkpt><trkpt lat="45.696368" lon="11.5965008"><ele>81.0</ele><time>2026-04-25T13:21:03.883Z</time></trkpt><trkpt lat="45.6964897" lon="11.596536"><ele>81.0</ele><time>2026-04-25T13:21:05.883Z</time></trkpt><trkpt lat="45.6965558" lon="11.5965347"><ele>81.0</ele><time>2026-04-25T13:21:06.883Z</time></trkpt><trkpt lat="45.6966719" lon="11.596558"><ele>81.0</ele><time>2026-04-25T13:21:08.883Z</time></trkpt><trkpt lat="45.6967714" lon="11.5965782"><ele>81.0</ele><time>2026-04-25T13:21:10.883Z</time></trkpt><trkpt lat="45.6968779" lon="11.5965888"><ele>81.0</ele><time>2026-04-25T13:21:12.884Z</time></trkpt><trkpt lat="45.6969783" lon="11.5966098"><ele>81.0</ele><time>2026-04-25T13:21:14.884Z</time></trkpt><trkpt lat="45.6970815" lon="11.5966346"><ele>81.0</ele><time>2026-04-25T13:21:16.884Z</time></trkpt><trkpt lat="45.6971879" lon="11.5966535"><ele>81.0</ele><time>2026-04-25T13:21:18.884Z</time></trkpt><trkpt lat="45.6972936" lon="11.5966746"><ele>81.4</ele><time>2026-04-25T13:21:20.884Z</time></trkpt><trkpt lat="45.6974" lon="11.5966801"><ele>81.8</ele><time>2026-04-25T13:21:22.884Z</time></trkpt><trkpt lat="45.6975062" lon="11.5966949"><ele>82.2</ele><time>2026-04-25T13:21:24.884Z</time></trkpt><trkpt lat="45.6976096" lon="11.5967123"><ele>82.60000000000001</ele><time>2026-04-25T13:21:26.884Z</time></trkpt><trkpt lat="45.6977109" lon="11.5967346"><ele>83.0</ele><time>2026-04-25T13:21:28.884Z</time></trkpt><trkpt lat="45.6978147" lon="11.5967688"><ele>83.0</ele><time>2026-04-25T13:21:30.884Z</time></trkpt><trkpt lat="45.6979185" lon="11.5967906"><ele>83.0</ele><time>2026-04-25T13:21:32.884Z</time></trkpt><trkpt lat="45.6980205" lon="11.5968067"><ele>83.0</ele><time>2026-04-25T13:21:34.884Z</time></trkpt><trkpt lat="45.6981229" lon="11.5968199"><ele>83.0</ele><time>2026-04-25T13:21:36.884Z</time></trkpt><trkpt lat="45.698226" lon="11.5968422"><ele>83.0</ele><time>2026-04-25T13:21:38.884Z</time></trkpt><trkpt lat="45.6983292" lon="11.5968687"><ele>83.0</ele><time>2026-04-25T13:21:40.884Z</time></trkpt><trkpt lat="45.6984307" lon="11.5968894"><ele>83.0</ele><time>2026-04-25T13:21:42.885Z</time></trkpt><trkpt lat="45.6985341" lon="11.5969087"><ele>83.0</ele><time>2026-04-25T13:21:44.884Z</time></trkpt><trkpt lat="45.6986382" lon="11.596926"><ele>83.0</ele><time>2026-04-25T13:21:46.884Z</time></trkpt><trkpt lat="45.6987333" lon="11.5969694"><ele>83.0</ele><time>2026-04-25T13:21:48.884Z</time></trkpt><trkpt lat="45.6988326" lon="11.597037"><ele>82.80000000000001</ele><time>2026-04-25T13:21:50.884Z</time></trkpt><trkpt lat="45.6989319" lon="11.5971117"><ele>82.6</ele><time>2026-04-25T13:21:52.884Z</time></trkpt><trkpt lat="45.6990286" lon="11.597185"><ele>82.4</ele><time>2026-04-25T13:21:54.884Z</time></trkpt><trkpt lat="45.6991275" lon="11.597259"><ele>82.19999999999999</ele><time>2026-04-25T13:21:56.884Z</time></trkpt><trkpt lat="45.6992236" lon="11.5973279"><ele>82.0</ele><time>2026-04-25T13:21:58.884Z</time></trkpt><trkpt lat="45.6993152" lon="11.5973858"><ele>82.0</ele><time>2026-04-25T13:22:00.884Z</time></trkpt><trkpt lat="45.699396" lon="11.5974305"><ele>82.0</ele><time>2026-04-25T13:22:02.885Z</time></trkpt><trkpt lat="45.6994638" lon="11.5974598"><ele>82.0</ele><time>2026-04-25T13:22:04.884Z</time></trkpt><trkpt lat="45.6995394" lon="11.5974868"><ele>82.0</ele><time>2026-04-25T13:22:07.884Z</time></trkpt><trkpt lat="45.6996232" lon="11.5975277"><ele>82.0</ele><time>2026-04-25T13:22:10.901Z</time></trkpt><trkpt lat="45.6997229" lon="11.5975274"><ele>82.0</ele><time>2026-04-25T13:22:11.884Z</time></trkpt><trkpt lat="45.6998222" lon="11.5975518"><ele>81.85714285714285</ele><time>2026-04-25T13:22:13.884Z</time></trkpt><trkpt lat="45.6998853" lon="11.5975633"><ele>81.71428571428571</ele><time>2026-04-25T13:22:14.884Z</time></trkpt><trkpt lat="45.6999546" lon="11.5975754"><ele>81.57142857142857</ele><time>2026-04-25T13:22:15.884Z</time></trkpt><trkpt lat="45.7000254" lon="11.597586"><ele>81.42857142857142</ele><time>2026-04-25T13:22:16.884Z</time></trkpt><trkpt lat="45.7000935" lon="11.5975969"><ele>81.28571428571428</ele><time>2026-04-25T13:22:17.884Z</time></trkpt><trkpt lat="45.7001566" lon="11.5976111"><ele>81.14285714285714</ele><time>2026-04-25T13:22:18.885Z</time></trkpt><trkpt lat="45.700221" lon="11.5976272"><ele>81.0</ele><time>2026-04-25T13:22:19.885Z</time></trkpt><trkpt lat="45.7002879" lon="11.5976437"><ele>81.0</ele><time>2026-04-25T13:22:20.884Z</time></trkpt><trkpt lat="45.7003535" lon="11.5976587"><ele>81.0</ele><time>2026-04-25T13:22:21.884Z</time></trkpt><trkpt lat="45.7004766" lon="11.5976838"><ele>81.0</ele><time>2026-04-25T13:22:23.884Z</time></trkpt><trkpt lat="45.7006004" lon="11.5977102"><ele>81.0</ele><time>2026-04-25T13:22:25.886Z</time></trkpt><trkpt lat="45.7007231" lon="11.597735"><ele>81.0</ele><time>2026-04-25T13:22:27.885Z</time></trkpt><trkpt lat="45.700848" lon="11.5977508"><ele>81.0</ele><time>2026-04-25T13:22:29.885Z</time></trkpt><trkpt lat="45.700962" lon="11.597784"><ele>81.0</ele><time>2026-04-25T13:22:31.885Z</time></trkpt><trkpt lat="45.7010679" lon="11.5978102"><ele>81.0</ele><time>2026-04-25T13:22:33.885Z</time></trkpt><trkpt lat="45.7011771" lon="11.597823"><ele>81.0</ele><time>2026-04-25T13:22:35.885Z</time></trkpt><trkpt lat="45.7012827" lon="11.5978442"><ele>81.0</ele><time>2026-04-25T13:22:37.885Z</time></trkpt><trkpt lat="45.701393" lon="11.5978659"><ele>80.75</ele><time>2026-04-25T13:22:39.886Z</time></trkpt><trkpt lat="45.7015136" lon="11.5978914"><ele>80.5</ele><time>2026-04-25T13:22:41.886Z</time></trkpt><trkpt lat="45.7016368" lon="11.597924"><ele>80.25</ele><time>2026-04-25T13:22:43.885Z</time></trkpt><trkpt lat="45.7017555" lon="11.5979574"><ele>80.0</ele><time>2026-04-25T13:22:45.885Z</time></trkpt><trkpt lat="45.7018672" lon="11.5979961"><ele>80.25</ele><time>2026-04-25T13:22:47.886Z</time></trkpt><trkpt lat="45.7019727" lon="11.598046"><ele>80.5</ele><time>2026-04-25T13:22:49.885Z</time></trkpt><trkpt lat="45.7020901" lon="11.5980949"><ele>80.75</ele><time>2026-04-25T13:22:51.886Z</time></trkpt><trkpt lat="45.7021985" lon="11.5981417"><ele>81.0</ele><time>2026-04-25T13:22:53.885Z</time></trkpt><trkpt lat="45.7023027" lon="11.5981925"><ele>81.0</ele><time>2026-04-25T13:22:55.885Z</time></trkpt><trkpt lat="45.7024074" lon="11.5982587"><ele>81.0</ele><time>2026-04-25T13:22:57.885Z</time></trkpt><trkpt lat="45.7025039" lon="11.5983502"><ele>81.0</ele><time>2026-04-25T13:22:59.885Z</time></trkpt><trkpt lat="45.7025694" lon="11.5984972"><ele>81.0</ele><time>2026-04-25T13:23:01.885Z</time></trkpt><trkpt lat="45.7026139" lon="11.5986513"><ele>80.2</ele><time>2026-04-25T13:23:03.885Z</time></trkpt><trkpt lat="45.702651" lon="11.5987936"><ele>79.39999999999999</ele><time>2026-04-25T13:23:05.886Z</time></trkpt><trkpt lat="45.702687" lon="11.598924"><ele>78.6</ele><time>2026-04-25T13:23:07.886Z</time></trkpt><trkpt lat="45.7027228" lon="11.5990453"><ele>77.8</ele><time>2026-04-25T13:23:09.886Z</time></trkpt><trkpt lat="45.7027528" lon="11.5991699"><ele>77.0</ele><time>2026-04-25T13:23:11.885Z</time></trkpt><trkpt lat="45.7027798" lon="11.599285"><ele>77.0</ele><time>2026-04-25T13:23:13.886Z</time></trkpt><trkpt lat="45.7028101" lon="11.5993954"><ele>77.0</ele><time>2026-04-25T13:23:15.885Z</time></trkpt><trkpt lat="45.7028247" lon="11.5995045"><ele>77.0</ele><time>2026-04-25T13:23:17.885Z</time></trkpt><trkpt lat="45.7028453" lon="11.5996111"><ele>77.0</ele><time>2026-04-25T13:23:19.885Z</time></trkpt><trkpt lat="45.7028748" lon="11.5997041"><ele>77.0</ele><time>2026-04-25T13:23:21.885Z</time></trkpt><trkpt lat="45.7029012" lon="11.5998005"><ele>77.0</ele><time>2026-04-25T13:23:23.885Z</time></trkpt><trkpt lat="45.7029346" lon="11.5998847"><ele>77.0</ele><time>2026-04-25T13:23:25.885Z</time></trkpt><trkpt lat="45.7029772" lon="11.5999724"><ele>77.0</ele><time>2026-04-25T13:23:27.885Z</time></trkpt><trkpt lat="45.7030125" lon="11.6000539"><ele>77.0</ele><time>2026-04-25T13:23:29.885Z</time></trkpt><trkpt lat="45.7030428" lon="11.6001403"><ele>77.0</ele><time>2026-04-25T13:23:31.885Z</time></trkpt><trkpt lat="45.7030676" lon="11.6002351"><ele>77.0</ele><time>2026-04-25T13:23:33.885Z</time></trkpt><trkpt lat="45.7030984" lon="11.6003288"><ele>77.0</ele><time>2026-04-25T13:23:35.885Z</time></trkpt><trkpt lat="45.70313" lon="11.6004239"><ele>77.0</ele><time>2026-04-25T13:23:37.886Z</time></trkpt><trkpt lat="45.703158" lon="11.6005274"><ele>77.0</ele><time>2026-04-25T13:23:39.886Z</time></trkpt><trkpt lat="45.7031887" lon="11.6006289"><ele>77.0</ele><time>2026-04-25T13:23:41.886Z</time></trkpt><trkpt lat="45.7032234" lon="11.6007209"><ele>77.0</ele><time>2026-04-25T13:23:43.886Z</time></trkpt><trkpt lat="45.703251" lon="11.6008078"><ele>77.0</ele><time>2026-04-25T13:23:46.886Z</time></trkpt><trkpt lat="45.703308" lon="11.6008695"><ele>77.0</ele><time>2026-04-25T13:23:49.886Z</time></trkpt><trkpt lat="45.7033723" lon="11.6009112"><ele>77.0</ele><time>2026-04-25T13:23:51.886Z</time></trkpt><trkpt lat="45.7034441" lon="11.6010029"><ele>77.0</ele><time>2026-04-25T13:23:54.886Z</time></trkpt><trkpt lat="45.7034814" lon="11.6010959"><ele>77.0</ele><time>2026-04-25T13:23:56.886Z</time></trkpt><trkpt lat="45.7035122" lon="11.6011975"><ele>77.0</ele><time>2026-04-25T13:23:58.886Z</time></trkpt><trkpt lat="45.703544" lon="11.601295"><ele>77.0</ele><time>2026-04-25T13:24:00.887Z</time></trkpt><trkpt lat="45.7035754" lon="11.6013876"><ele>77.0</ele><time>2026-04-25T13:24:02.886Z</time></trkpt><trkpt lat="45.7036018" lon="11.6014747"><ele>77.0</ele><time>2026-04-25T13:24:04.886Z</time></trkpt><trkpt lat="45.7036164" lon="11.6015938"><ele>77.0</ele><time>2026-04-25T13:24:07.886Z</time></trkpt><trkpt lat="45.7036003" lon="11.601721"><ele>77.0</ele><time>2026-04-25T13:24:10.886Z</time></trkpt><trkpt lat="45.7035917" lon="11.6018131"><ele>77.0</ele><time>2026-04-25T13:24:12.886Z</time></trkpt><trkpt lat="45.7035789" lon="11.6019188"><ele>77.0</ele><time>2026-04-25T13:24:14.886Z</time></trkpt><trkpt lat="45.7035615" lon="11.6020269"><ele>77.0</ele><time>2026-04-25T13:24:16.886Z</time></trkpt><trkpt lat="45.7035239" lon="11.6021368"><ele>77.0</ele><time>2026-04-25T13:24:18.886Z</time></trkpt><trkpt lat="45.7034939" lon="11.6022377"><ele>77.0</ele><time>2026-04-25T13:24:20.886Z</time></trkpt><trkpt lat="45.7034629" lon="11.6023398"><ele>77.0</ele><time>2026-04-25T13:24:22.886Z</time></trkpt><trkpt lat="45.7034299" lon="11.602431"><ele>77.0</ele><time>2026-04-25T13:24:24.887Z</time></trkpt><trkpt lat="45.7034046" lon="11.6025233"><ele>77.0</ele><time>2026-04-25T13:24:26.886Z</time></trkpt><trkpt lat="45.7033894" lon="11.6026164"><ele>77.0</ele><time>2026-04-25T13:24:28.886Z</time></trkpt><trkpt lat="45.703444" lon="11.6026938"><ele>77.0</ele><time>2026-04-25T13:24:31.887Z</time></trkpt><trkpt lat="45.7035284" lon="11.6026176"><ele>77.0</ele><time>2026-04-25T13:24:33.886Z</time></trkpt><trkpt lat="45.7035972" lon="11.602539"><ele>76.75</ele><time>2026-04-25T13:24:35.886Z</time></trkpt><trkpt lat="45.7036796" lon="11.6024622"><ele>76.5</ele><time>2026-04-25T13:24:37.886Z</time></trkpt><trkpt lat="45.7037743" lon="11.6023658"><ele>76.25</ele><time>2026-04-25T13:24:39.887Z</time></trkpt><trkpt lat="45.7038661" lon="11.6022701"><ele>76.0</ele><time>2026-04-25T13:24:41.886Z</time></trkpt><trkpt lat="45.7039711" lon="11.6021772"><ele>76.0</ele><time>2026-04-25T13:24:43.886Z</time></trkpt><trkpt lat="45.7040294" lon="11.6021295"><ele>76.0</ele><time>2026-04-25T13:24:44.887Z</time></trkpt><trkpt lat="45.7040849" lon="11.6020845"><ele>76.0</ele><time>2026-04-25T13:24:45.886Z</time></trkpt><trkpt lat="45.7041406" lon="11.6020369"><ele>76.0</ele><time>2026-04-25T13:24:46.886Z</time></trkpt><trkpt lat="45.7042422" lon="11.6019855"><ele>76.0</ele><time>2026-04-25T13:24:48.886Z</time></trkpt><trkpt lat="45.7043491" lon="11.602008"><ele>76.0</ele><time>2026-04-25T13:24:50.886Z</time></trkpt><trkpt lat="45.7044518" lon="11.6020053"><ele>76.0</ele><time>2026-04-25T13:24:52.887Z</time></trkpt><trkpt lat="45.7045519" lon="11.6019241"><ele>76.0</ele><time>2026-04-25T13:24:54.888Z</time></trkpt><trkpt lat="45.7046168" lon="11.6017798"><ele>76.0</ele><time>2026-04-25T13:24:56.888Z</time></trkpt><trkpt lat="45.7046379" lon="11.6016199"><ele>76.0</ele><time>2026-04-25T13:24:58.888Z</time></trkpt><trkpt lat="45.7046648" lon="11.6014656"><ele>76.0</ele><time>2026-04-25T13:25:00.887Z</time></trkpt><trkpt lat="45.7047231" lon="11.601332"><ele>76.0</ele><time>2026-04-25T13:25:02.888Z</time></trkpt><trkpt lat="45.7047876" lon="11.6012149"><ele>76.0</ele><time>2026-04-25T13:25:04.887Z</time></trkpt><trkpt lat="45.7048481" lon="11.6011158"><ele>76.0</ele><time>2026-04-25T13:25:06.887Z</time></trkpt><trkpt lat="45.7049029" lon="11.6010358"><ele>76.0</ele><time>2026-04-25T13:25:08.888Z</time></trkpt><trkpt lat="45.7049497" lon="11.6009484"><ele>76.0</ele><time>2026-04-25T13:25:10.887Z</time></trkpt><trkpt lat="45.7049975" lon="11.6008703"><ele>76.0</ele><time>2026-04-25T13:25:12.887Z</time></trkpt><trkpt lat="45.7050445" lon="11.6007971"><ele>76.0</ele><time>2026-04-25T13:25:14.887Z</time></trkpt><trkpt lat="45.7050847" lon="11.6007244"><ele>76.0</ele><time>2026-04-25T13:25:16.888Z</time></trkpt><trkpt lat="45.7051295" lon="11.6006607"><ele>76.0</ele><time>2026-04-25T13:25:18.887Z</time></trkpt><trkpt lat="45.7051919" lon="11.6005567"><ele>76.0</ele><time>2026-04-25T13:25:21.887Z</time></trkpt><trkpt lat="45.7052356" lon="11.6004794"><ele>76.0</ele><time>2026-04-25T13:25:23.887Z</time></trkpt><trkpt lat="45.7052862" lon="11.6004103"><ele>76.33333333333333</ele><time>2026-04-25T13:25:25.888Z</time></trkpt><trkpt lat="45.7053362" lon="11.600336"><ele>76.66666666666666</ele><time>2026-04-25T13:25:27.888Z</time></trkpt><trkpt lat="45.705392" lon="11.6002558"><ele>77.0</ele><time>2026-04-25T13:25:29.887Z</time></trkpt><trkpt lat="45.7054538" lon="11.6001662"><ele>77.33333333333333</ele><time>2026-04-25T13:25:31.887Z</time></trkpt><trkpt lat="45.705529" lon="11.6000921"><ele>77.66666666666667</ele><time>2026-04-25T13:25:33.887Z</time></trkpt><trkpt lat="45.705603" lon="11.6000185"><ele>78.0</ele><time>2026-04-25T13:25:35.887Z</time></trkpt><trkpt lat="45.7056846" lon="11.5999604"><ele>78.0</ele><time>2026-04-25T13:25:37.888Z</time></trkpt><trkpt lat="45.7057761" lon="11.5999053"><ele>78.0</ele><time>2026-04-25T13:25:39.887Z</time></trkpt><trkpt lat="45.7058704" lon="11.5998555"><ele>78.0</ele><time>2026-04-25T13:25:41.888Z</time></trkpt><trkpt lat="45.7059622" lon="11.5998103"><ele>78.0</ele><time>2026-04-25T13:25:43.888Z</time></trkpt><trkpt lat="45.7060512" lon="11.5997625"><ele>78.0</ele><time>2026-04-25T13:25:45.887Z</time></trkpt><trkpt lat="45.7061429" lon="11.5997188"><ele>78.2</ele><time>2026-04-25T13:25:47.887Z</time></trkpt><trkpt lat="45.7062344" lon="11.5996771"><ele>78.4</ele><time>2026-04-25T13:25:49.889Z</time></trkpt><trkpt lat="45.7063274" lon="11.5996366"><ele>78.60000000000001</ele><time>2026-04-25T13:25:51.887Z</time></trkpt><trkpt lat="45.7064194" lon="11.5995904"><ele>78.8</ele><time>2026-04-25T13:25:53.888Z</time></trkpt><trkpt lat="45.7065128" lon="11.5995407"><ele>79.0</ele><time>2026-04-25T13:25:55.887Z</time></trkpt><trkpt lat="45.706609" lon="11.5994976"><ele>79.0</ele><time>2026-04-25T13:25:57.887Z</time></trkpt><trkpt lat="45.7067047" lon="11.5994542"><ele>79.0</ele><time>2026-04-25T13:25:59.887Z</time></trkpt><trkpt lat="45.7067991" lon="11.5994076"><ele>79.0</ele><time>2026-04-25T13:26:01.888Z</time></trkpt><trkpt lat="45.7068897" lon="11.5993554"><ele>79.0</ele><time>2026-04-25T13:26:03.888Z</time></trkpt><trkpt lat="45.7069744" lon="11.5992963"><ele>79.0</ele><time>2026-04-25T13:26:05.888Z</time></trkpt><trkpt lat="45.7070554" lon="11.5992264"><ele>79.66666666666666</ele><time>2026-04-25T13:26:07.888Z</time></trkpt><trkpt lat="45.7071337" lon="11.5991583"><ele>80.33333333333333</ele><time>2026-04-25T13:26:09.888Z</time></trkpt><trkpt lat="45.7072068" lon="11.599088"><ele>81.0</ele><time>2026-04-25T13:26:11.888Z</time></trkpt><trkpt lat="45.7072737" lon="11.5990171"><ele>81.66666666666667</ele><time>2026-04-25T13:26:13.888Z</time></trkpt><trkpt lat="45.7073378" lon="11.598955"><ele>82.33333333333334</ele><time>2026-04-25T13:26:15.888Z</time></trkpt><trkpt lat="45.7073969" lon="11.5988866"><ele>83.0</ele><time>2026-04-25T13:26:17.888Z</time></trkpt><trkpt lat="45.707458" lon="11.5988159"><ele>83.0</ele><time>2026-04-25T13:26:19.888Z</time></trkpt><trkpt lat="45.707519" lon="11.5987596"><ele>83.0</ele><time>2026-04-25T13:26:21.888Z</time></trkpt><trkpt lat="45.7075804" lon="11.5987095"><ele>83.0</ele><time>2026-04-25T13:26:23.888Z</time></trkpt><trkpt lat="45.7076346" lon="11.5986477"><ele>83.0</ele><time>2026-04-25T13:26:25.889Z</time></trkpt><trkpt lat="45.7076856" lon="11.5985836"><ele>83.0</ele><time>2026-04-25T13:26:27.888Z</time></trkpt><trkpt lat="45.7077573" lon="11.5985006"><ele>83.0</ele><time>2026-04-25T13:26:30.888Z</time></trkpt><trkpt lat="45.7078399" lon="11.598436"><ele>83.66666666666667</ele><time>2026-04-25T13:26:33.889Z</time></trkpt><trkpt lat="45.7079252" lon="11.5983851"><ele>84.33333333333334</ele><time>2026-04-25T13:26:36.888Z</time></trkpt><trkpt lat="45.7079904" lon="11.5983559"><ele>85.0</ele><time>2026-04-25T13:26:38.889Z</time></trkpt><trkpt lat="45.7080622" lon="11.5983345"><ele>85.66666666666667</ele><time>2026-04-25T13:26:40.888Z</time></trkpt><trkpt lat="45.7081399" lon="11.5983208"><ele>86.33333333333333</ele><time>2026-04-25T13:26:42.888Z</time></trkpt><trkpt lat="45.7082194" lon="11.5983051"><ele>87.0</ele><time>2026-04-25T13:26:44.888Z</time></trkpt><trkpt lat="45.7083018" lon="11.5982735"><ele>87.0</ele><time>2026-04-25T13:26:46.888Z</time></trkpt><trkpt lat="45.7083933" lon="11.5982392"><ele>87.0</ele><time>2026-04-25T13:26:48.888Z</time></trkpt><trkpt lat="45.708484" lon="11.5982084"><ele>87.0</ele><time>2026-04-25T13:26:50.888Z</time></trkpt><trkpt lat="45.7085703" lon="11.5981662"><ele>87.0</ele><time>2026-04-25T13:26:52.888Z</time></trkpt><trkpt lat="45.708661" lon="11.5981191"><ele>87.0</ele><time>2026-04-25T13:26:54.889Z</time></trkpt><trkpt lat="45.7087534" lon="11.5980773"><ele>87.0</ele><time>2026-04-25T13:26:56.888Z</time></trkpt><trkpt lat="45.7088402" lon="11.5980272"><ele>87.0</ele><time>2026-04-25T13:26:58.889Z</time></trkpt><trkpt lat="45.7089672" lon="11.5979645"><ele>87.0</ele><time>2026-04-25T13:27:01.889Z</time></trkpt><trkpt lat="45.7090558" lon="11.5979424"><ele>87.0</ele><time>2026-04-25T13:27:03.888Z</time></trkpt><trkpt lat="45.7091593" lon="11.5979405"><ele>87.0</ele><time>2026-04-25T13:27:05.889Z</time></trkpt><trkpt lat="45.7092591" lon="11.597945"><ele>87.0</ele><time>2026-04-25T13:27:07.888Z</time></trkpt><trkpt lat="45.7093666" lon="11.5979424"><ele>87.0</ele><time>2026-04-25T13:27:09.888Z</time></trkpt><trkpt lat="45.7094776" lon="11.5979423"><ele>87.0</ele><time>2026-04-25T13:27:11.888Z</time></trkpt><trkpt lat="45.7095943" lon="11.5979434"><ele>87.0</ele><time>2026-04-25T13:27:13.888Z</time></trkpt><trkpt lat="45.7097115" lon="11.5979579"><ele>86.39999999999999</ele><time>2026-04-25T13:27:15.888Z</time></trkpt><trkpt lat="45.7098217" lon="11.597989"><ele>85.8</ele><time>2026-04-25T13:27:17.889Z</time></trkpt><trkpt lat="45.7099306" lon="11.5980247"><ele>85.2</ele><time>2026-04-25T13:27:19.889Z</time></trkpt><trkpt lat="45.7100371" lon="11.5980494"><ele>84.6</ele><time>2026-04-25T13:27:21.889Z</time></trkpt><trkpt lat="45.7101427" lon="11.5980493"><ele>84.0</ele><time>2026-04-25T13:27:23.889Z</time></trkpt><trkpt lat="45.7102462" lon="11.5980367"><ele>84.0</ele><time>2026-04-25T13:27:25.889Z</time></trkpt><trkpt lat="45.7103431" lon="11.5980147"><ele>84.0</ele><time>2026-04-25T13:27:27.889Z</time></trkpt><trkpt lat="45.7104434" lon="11.5979831"><ele>84.0</ele><time>2026-04-25T13:27:29.889Z</time></trkpt><trkpt lat="45.7105423" lon="11.5979409"><ele>84.0</ele><time>2026-04-25T13:27:31.889Z</time></trkpt><trkpt lat="45.7106407" lon="11.5978897"><ele>84.0</ele><time>2026-04-25T13:27:33.889Z</time></trkpt><trkpt lat="45.7107412" lon="11.5978254"><ele>84.0</ele><time>2026-04-25T13:27:35.89Z</time></trkpt><trkpt lat="45.7108389" lon="11.59776"><ele>84.0</ele><time>2026-04-25T13:27:37.889Z</time></trkpt><trkpt lat="45.7109365" lon="11.597704"><ele>84.0</ele><time>2026-04-25T13:27:39.889Z</time></trkpt><trkpt lat="45.7110316" lon="11.5976455"><ele>84.0</ele><time>2026-04-25T13:27:41.889Z</time></trkpt><trkpt lat="45.7111187" lon="11.5975917"><ele>84.0</ele><time>2026-04-25T13:27:43.89Z</time></trkpt><trkpt lat="45.7112006" lon="11.5975426"><ele>84.16666666666667</ele><time>2026-04-25T13:27:45.889Z</time></trkpt><trkpt lat="45.7112722" lon="11.5974974"><ele>84.33333333333333</ele><time>2026-04-25T13:27:47.89Z</time></trkpt><trkpt lat="45.7113501" lon="11.597444"><ele>84.5</ele><time>2026-04-25T13:27:49.889Z</time></trkpt><trkpt lat="45.7114384" lon="11.5973969"><ele>84.66666666666666</ele><time>2026-04-25T13:27:51.89Z</time></trkpt><trkpt lat="45.7115263" lon="11.597353"><ele>84.83333333333333</ele><time>2026-04-25T13:27:53.89Z</time></trkpt><trkpt lat="45.7116128" lon="11.5973064"><ele>85.0</ele><time>2026-04-25T13:27:55.889Z</time></trkpt><trkpt lat="45.7117068" lon="11.5972682"><ele>85.0</ele><time>2026-04-25T13:27:57.889Z</time></trkpt><trkpt lat="45.7118009" lon="11.5972223"><ele>85.0</ele><time>2026-04-25T13:27:59.889Z</time></trkpt><trkpt lat="45.7118865" lon="11.5971712"><ele>85.0</ele><time>2026-04-25T13:28:01.889Z</time></trkpt><trkpt lat="45.7119675" lon="11.5971296"><ele>85.0</ele><time>2026-04-25T13:28:03.889Z</time></trkpt><trkpt lat="45.7120509" lon="11.5970881"><ele>85.0</ele><time>2026-04-25T13:28:05.889Z</time></trkpt><trkpt lat="45.712129" lon="11.5970404"><ele>85.16666666666666</ele><time>2026-04-25T13:28:07.889Z</time></trkpt><trkpt lat="45.7122107" lon="11.5970027"><ele>85.33333333333333</ele><time>2026-04-25T13:28:09.889Z</time></trkpt><trkpt lat="45.7122898" lon="11.5969632"><ele>85.5</ele><time>2026-04-25T13:28:11.889Z</time></trkpt><trkpt lat="45.7123705" lon="11.5969102"><ele>85.66666666666667</ele><time>2026-04-25T13:28:13.889Z</time></trkpt><trkpt lat="45.7124379" lon="11.5968633"><ele>85.83333333333334</ele><time>2026-04-25T13:28:15.89Z</time></trkpt><trkpt lat="45.7125117" lon="11.596816"><ele>86.0</ele><time>2026-04-25T13:28:17.889Z</time></trkpt><trkpt lat="45.7125753" lon="11.5967503"><ele>86.00000000000001</ele><time>2026-04-25T13:28:19.889Z</time></trkpt><trkpt lat="45.7126415" lon="11.5967045"><ele>86.0</ele><time>2026-04-25T13:28:21.889Z</time></trkpt><trkpt lat="45.7127086" lon="11.5967064"><ele>86.0</ele><time>2026-04-25T13:28:23.889Z</time></trkpt><trkpt lat="45.7127792" lon="11.5967269"><ele>86.0</ele><time>2026-04-25T13:28:25.889Z</time></trkpt><trkpt lat="45.7128503" lon="11.5967495"><ele>86.0</ele><time>2026-04-25T13:28:27.889Z</time></trkpt><trkpt lat="45.7129075" lon="11.5968136"><ele>86.00000000000001</ele><time>2026-04-25T13:28:29.889Z</time></trkpt><trkpt lat="45.7129434" lon="11.5969236"><ele>86.0</ele><time>2026-04-25T13:28:31.889Z</time></trkpt><trkpt lat="45.7129796" lon="11.597028"><ele>86.0</ele><time>2026-04-25T13:28:33.89Z</time></trkpt><trkpt lat="45.7130165" lon="11.5971406"><ele>86.0</ele><time>2026-04-25T13:28:35.89Z</time></trkpt><trkpt lat="45.7130514" lon="11.5972557"><ele>86.0</ele><time>2026-04-25T13:28:37.89Z</time></trkpt><trkpt lat="45.7130873" lon="11.5973712"><ele>86.0</ele><time>2026-04-25T13:28:39.89Z</time></trkpt><trkpt lat="45.7131288" lon="11.5974891"><ele>86.0</ele><time>2026-04-25T13:28:41.89Z</time></trkpt><trkpt lat="45.7131665" lon="11.597607"><ele>86.0</ele><time>2026-04-25T13:28:43.89Z</time></trkpt><trkpt lat="45.7132025" lon="11.5977207"><ele>86.0</ele><time>2026-04-25T13:28:45.89Z</time></trkpt><trkpt lat="45.7132405" lon="11.5978266"><ele>86.0</ele><time>2026-04-25T13:28:47.89Z</time></trkpt><trkpt lat="45.7132693" lon="11.5979335"><ele>86.0</ele><time>2026-04-25T13:28:49.89Z</time></trkpt><trkpt lat="45.7132854" lon="11.5980252"><ele>86.0</ele><time>2026-04-25T13:28:51.904Z</time></trkpt><trkpt lat="45.7133177" lon="11.5981395"><ele>86.0</ele><time>2026-04-25T13:28:53.919Z</time></trkpt><trkpt lat="45.7133579" lon="11.5982548"><ele>86.0</ele><time>2026-04-25T13:28:55.932Z</time></trkpt><trkpt lat="45.7133966" lon="11.5983695"><ele>86.33333333333334</ele><time>2026-04-25T13:28:57.945Z</time></trkpt><trkpt lat="45.713445" lon="11.5984748"><ele>86.66666666666667</ele><time>2026-04-25T13:28:59.959Z</time></trkpt><trkpt lat="45.71349" lon="11.5985808"><ele>87.0</ele><time>2026-04-25T13:29:01.974Z</time></trkpt><trkpt lat="45.7135225" lon="11.5986887"><ele>87.33333333333333</ele><time>2026-04-25T13:29:03.981Z</time></trkpt><trkpt lat="45.7135476" lon="11.5987829"><ele>87.66666666666666</ele><time>2026-04-25T13:29:05.9Z</time></trkpt><trkpt lat="45.7135714" lon="11.5988799"><ele>88.0</ele><time>2026-04-25T13:29:07.914Z</time></trkpt><trkpt lat="45.7135705" lon="11.598982"><ele>89.0</ele><time>2026-04-25T13:29:09.89Z</time></trkpt><trkpt lat="45.7135797" lon="11.5990851"><ele>90.0</ele><time>2026-04-25T13:29:11.89Z</time></trkpt><trkpt lat="45.7135804" lon="11.599192"><ele>91.0</ele><time>2026-04-25T13:29:13.891Z</time></trkpt><trkpt lat="45.7135881" lon="11.599291"><ele>92.0</ele><time>2026-04-25T13:29:15.89Z</time></trkpt><trkpt lat="45.7135975" lon="11.5993943"><ele>93.0</ele><time>2026-04-25T13:29:17.89Z</time></trkpt><trkpt lat="45.7136096" lon="11.5994953"><ele>94.0</ele><time>2026-04-25T13:29:19.89Z</time></trkpt><trkpt lat="45.7136168" lon="11.5995914"><ele>95.0</ele><time>2026-04-25T13:29:21.89Z</time></trkpt><trkpt lat="45.7136263" lon="11.5996873"><ele>95.0</ele><time>2026-04-25T13:29:23.89Z</time></trkpt><trkpt lat="45.7136352" lon="11.5997801"><ele>95.0</ele><time>2026-04-25T13:29:25.89Z</time></trkpt><trkpt lat="45.7136489" lon="11.5998776"><ele>95.0</ele><time>2026-04-25T13:29:27.89Z</time></trkpt><trkpt lat="45.7136603" lon="11.5999902"><ele>95.0</ele><time>2026-04-25T13:29:30.89Z</time></trkpt><trkpt lat="45.7136801" lon="11.6001033"><ele>95.0</ele><time>2026-04-25T13:29:33.89Z</time></trkpt><trkpt lat="45.7136889" lon="11.6002353"><ele>95.0</ele><time>2026-04-25T13:29:36.89Z</time></trkpt><trkpt lat="45.7136945" lon="11.6003281"><ele>95.28571428571429</ele><time>2026-04-25T13:29:38.89Z</time></trkpt><trkpt lat="45.7137032" lon="11.6004217"><ele>95.57142857142858</ele><time>2026-04-25T13:29:40.89Z</time></trkpt><trkpt lat="45.7137128" lon="11.6005134"><ele>95.85714285714286</ele><time>2026-04-25T13:29:42.89Z</time></trkpt><trkpt lat="45.7137243" lon="11.6006048"><ele>96.14285714285714</ele><time>2026-04-25T13:29:44.89Z</time></trkpt><trkpt lat="45.7137331" lon="11.6006991"><ele>96.42857142857143</ele><time>2026-04-25T13:29:46.89Z</time></trkpt><trkpt lat="45.7137469" lon="11.6008265"><ele>96.71428571428571</ele><time>2026-04-25T13:29:49.891Z</time></trkpt><trkpt lat="45.7137753" lon="11.6009493"><ele>97.0</ele><time>2026-04-25T13:29:52.892Z</time></trkpt><trkpt lat="45.7138065" lon="11.6010485"><ele>97.00000000000001</ele><time>2026-04-25T13:29:55.891Z</time></trkpt><trkpt lat="45.713836" lon="11.6011515"><ele>97.0</ele><time>2026-04-25T13:29:59.891Z</time></trkpt><trkpt lat="45.7138436" lon="11.601265"><ele>97.0</ele><time>2026-04-25T13:30:04.892Z</time></trkpt><trkpt lat="45.7138693" lon="11.6013589"><ele>97.0</ele><time>2026-04-25T13:30:08.891Z</time></trkpt><trkpt lat="45.7139496" lon="11.6013892"><ele>97.00000000000001</ele><time>2026-04-25T13:30:12.892Z</time></trkpt><trkpt lat="45.7140022" lon="11.6013194"><ele>97.0</ele><time>2026-04-25T13:30:15.891Z</time></trkpt><trkpt lat="45.7140491" lon="11.6012336"><ele>97.00000000000001</ele><time>2026-04-25T13:30:19.891Z</time></trkpt><trkpt lat="45.7141097" lon="11.6011525"><ele>97.0</ele><time>2026-04-25T13:30:23.891Z</time></trkpt><trkpt lat="45.714166" lon="11.6010769"><ele>97.0</ele><time>2026-04-25T13:30:27.891Z</time></trkpt><trkpt lat="45.7142377" lon="11.6010221"><ele>97.0</ele><time>2026-04-25T13:30:31.892Z</time></trkpt><trkpt lat="45.7143001" lon="11.6009633"><ele>97.00000000000001</ele><time>2026-04-25T13:30:35.891Z</time></trkpt><trkpt lat="45.714383" lon="11.6009624"><ele>97.0</ele><time>2026-04-25T13:30:40.892Z</time></trkpt><trkpt lat="45.7144537" lon="11.6010068"><ele>98.71428571428571</ele><time>2026-04-25T13:30:44.891Z</time></trkpt><trkpt lat="45.7145194" lon="11.6010444"><ele>100.42857142857143</ele><time>2026-04-25T13:30:48.891Z</time></trkpt><trkpt lat="45.7145904" lon="11.6010821"><ele>102.14285714285714</ele><time>2026-04-25T13:30:52.891Z</time></trkpt><trkpt lat="45.7146544" lon="11.6011003"><ele>103.85714285714286</ele><time>2026-04-25T13:30:56.891Z</time></trkpt><trkpt lat="45.7147137" lon="11.6011396"><ele>105.57142857142858</ele><time>2026-04-25T13:31:00.893Z</time></trkpt><trkpt lat="45.7147814" lon="11.6011885"><ele>107.28571428571429</ele><time>2026-04-25T13:31:05.892Z</time></trkpt><trkpt lat="45.7148451" lon="11.6012185"><ele>109.0</ele><time>2026-04-25T13:31:09.892Z</time></trkpt><trkpt lat="45.7149115" lon="11.6012545"><ele>109.0</ele><time>2026-04-25T13:31:14.892Z</time></trkpt><trkpt lat="45.7149678" lon="11.6013015"><ele>109.0</ele><time>2026-04-25T13:31:18.892Z</time></trkpt><trkpt lat="45.7150312" lon="11.6013504"><ele>109.0</ele><time>2026-04-25T13:31:23.892Z</time></trkpt><trkpt lat="45.7150887" lon="11.6013979"><ele>109.0</ele><time>2026-04-25T13:31:27.892Z</time></trkpt><trkpt lat="45.7151472" lon="11.6014321"><ele>109.0</ele><time>2026-04-25T13:31:32.893Z</time></trkpt><trkpt lat="45.7152122" lon="11.6014243"><ele>109.0</ele><time>2026-04-25T13:31:37.892Z</time></trkpt><trkpt lat="45.7152803" lon="11.6014061"><ele>109.0</ele><time>2026-04-25T13:31:42.893Z</time></trkpt><trkpt lat="45.7153533" lon="11.6013793"><ele>108.71428571428572</ele><time>2026-04-25T13:31:47.892Z</time></trkpt><trkpt lat="45.7154173" lon="11.6013495"><ele>108.42857142857143</ele><time>2026-04-25T13:31:52.892Z</time></trkpt><trkpt lat="45.7154796" lon="11.6012859"><ele>108.14285714285714</ele><time>2026-04-25T13:31:57.892Z</time></trkpt><trkpt lat="45.7155328" lon="11.6012132"><ele>107.85714285714286</ele><time>2026-04-25T13:32:02.892Z</time></trkpt><trkpt lat="45.7155825" lon="11.6011292"><ele>107.57142857142857</ele><time>2026-04-25T13:32:07.892Z</time></trkpt><trkpt lat="45.7156086" lon="11.601045"><ele>107.28571428571429</ele><time>2026-04-25T13:32:11.892Z</time></trkpt><trkpt lat="45.7156183" lon="11.6009552"><ele>107.0</ele><time>2026-04-25T13:32:15.892Z</time></trkpt><trkpt lat="45.7156194" lon="11.6008557"><ele>109.28571428571429</ele><time>2026-04-25T13:32:19.893Z</time></trkpt><trkpt lat="45.7156465" lon="11.6007545"><ele>111.57142857142858</ele><time>2026-04-25T13:32:24.893Z</time></trkpt><trkpt lat="45.7156603" lon="11.6006581"><ele>113.85714285714286</ele><time>2026-04-25T13:32:28.893Z</time></trkpt><trkpt lat="45.7157018" lon="11.6005857"><ele>116.14285714285715</ele><time>2026-04-25T13:32:32.893Z</time></trkpt><trkpt lat="45.7157532" lon="11.6005095"><ele>118.42857142857143</ele><time>2026-04-25T13:32:36.893Z</time></trkpt><trkpt lat="45.7158206" lon="11.6004509"><ele>120.71428571428574</ele><time>2026-04-25T13:32:40.893Z</time></trkpt><trkpt lat="45.7158903" lon="11.6003798"><ele>123.00000000000001</ele><time>2026-04-25T13:32:44.911Z</time></trkpt><trkpt lat="45.7159531" lon="11.6003157"><ele>123.33333333333333</ele><time>2026-04-25T13:32:47.932Z</time></trkpt><trkpt lat="45.7160306" lon="11.6002459"><ele>123.66666666666666</ele><time>2026-04-25T13:32:50.953Z</time></trkpt><trkpt lat="45.7160834" lon="11.6001917"><ele>124.0</ele><time>2026-04-25T13:32:52.968Z</time></trkpt><trkpt lat="45.7161485" lon="11.6001399"><ele>124.33333333333333</ele><time>2026-04-25T13:32:54.893Z</time></trkpt><trkpt lat="45.7162177" lon="11.6000979"><ele>124.66666666666666</ele><time>2026-04-25T13:32:56.894Z</time></trkpt><trkpt lat="45.7162941" lon="11.6000731"><ele>125.0</ele><time>2026-04-25T13:32:58.908Z</time></trkpt><trkpt lat="45.7163756" lon="11.6000714"><ele>125.99999999999999</ele><time>2026-04-25T13:33:00.922Z</time></trkpt><trkpt lat="45.7164488" lon="11.6000709"><ele>127.0</ele><time>2026-04-25T13:33:02.937Z</time></trkpt><trkpt lat="45.7165148" lon="11.6000655"><ele>128.0</ele><time>2026-04-25T13:33:04.95Z</time></trkpt><trkpt lat="45.7166062" lon="11.6000585"><ele>129.0</ele><time>2026-04-25T13:33:07.972Z</time></trkpt><trkpt lat="45.7166775" lon="11.6000566"><ele>130.0</ele><time>2026-04-25T13:33:10.893Z</time></trkpt><trkpt lat="45.7167546" lon="11.6000602"><ele>131.0</ele><time>2026-04-25T13:33:13.913Z</time></trkpt><trkpt lat="45.7168255" lon="11.6000485"><ele>131.28571428571428</ele><time>2026-04-25T13:33:16.934Z</time></trkpt><trkpt lat="45.7169059" lon="11.6000229"><ele>131.57142857142858</ele><time>2026-04-25T13:33:21.893Z</time></trkpt><trkpt lat="45.7169726" lon="11.5999632"><ele>131.85714285714286</ele><time>2026-04-25T13:33:25.893Z</time></trkpt><trkpt lat="45.7170268" lon="11.5998883"><ele>132.14285714285714</ele><time>2026-04-25T13:33:29.893Z</time></trkpt><trkpt lat="45.7170685" lon="11.5998057"><ele>132.42857142857144</ele><time>2026-04-25T13:33:33.893Z</time></trkpt><trkpt lat="45.7171038" lon="11.5997288"><ele>132.71428571428572</ele><time>2026-04-25T13:33:37.893Z</time></trkpt><trkpt lat="45.7171322" lon="11.5996466"><ele>133.0</ele><time>2026-04-25T13:33:41.895Z</time></trkpt><trkpt lat="45.717165" lon="11.5995522"><ele>135.0</ele><time>2026-04-25T13:33:46.894Z</time></trkpt><trkpt lat="45.7171928" lon="11.5994691"><ele>137.0</ele><time>2026-04-25T13:33:50.894Z</time></trkpt><trkpt lat="45.7172163" lon="11.5993612"><ele>139.0</ele><time>2026-04-25T13:33:55.894Z</time></trkpt><trkpt lat="45.7172313" lon="11.5992613"><ele>141.0</ele><time>2026-04-25T13:34:00.894Z</time></trkpt><trkpt lat="45.7172536" lon="11.5991571"><ele>143.0</ele><time>2026-04-25T13:34:05.894Z</time></trkpt><trkpt lat="45.7172677" lon="11.5990532"><ele>145.0</ele><time>2026-04-25T13:34:10.894Z</time></trkpt><trkpt lat="45.7173101" lon="11.5989756"><ele>147.0</ele><time>2026-04-25T13:34:15.894Z</time></trkpt><trkpt lat="45.7173763" lon="11.5989801"><ele>147.0</ele><time>2026-04-25T13:34:20.895Z</time></trkpt><trkpt lat="45.7174391" lon="11.5989644"><ele>147.0</ele><time>2026-04-25T13:34:24.894Z</time></trkpt><trkpt lat="45.7175083" lon="11.5989632"><ele>147.0</ele><time>2026-04-25T13:34:29.894Z</time></trkpt><trkpt lat="45.7175735" lon="11.5989623"><ele>147.0</ele><time>2026-04-25T13:34:33.895Z</time></trkpt><trkpt lat="45.7176395" lon="11.5989482"><ele>147.0</ele><time>2026-04-25T13:34:38.894Z</time></trkpt><trkpt lat="45.7177078" lon="11.5989414"><ele>147.0</ele><time>2026-04-25T13:34:43.894Z</time></trkpt><trkpt lat="45.7177722" lon="11.5989331"><ele>147.0</ele><time>2026-04-25T13:34:48.894Z</time></trkpt><trkpt lat="45.7178447" lon="11.5989082"><ele>148.85714285714286</ele><time>2026-04-25T13:34:53.894Z</time></trkpt><trkpt lat="45.7179125" lon="11.5988805"><ele>150.71428571428572</ele><time>2026-04-25T13:34:59.895Z</time></trkpt><trkpt lat="45.7179786" lon="11.5988445"><ele>152.57142857142856</ele><time>2026-04-25T13:35:04.895Z</time></trkpt><trkpt lat="45.7180452" lon="11.5988336"><ele>154.42857142857144</ele><time>2026-04-25T13:35:10.895Z</time></trkpt><trkpt lat="45.7181083" lon="11.5988023"><ele>156.28571428571428</ele><time>2026-04-25T13:35:16.895Z</time></trkpt><trkpt lat="45.7181669" lon="11.5987671"><ele>158.14285714285714</ele><time>2026-04-25T13:35:21.896Z</time></trkpt><trkpt lat="45.7182285" lon="11.5987379"><ele>160.0</ele><time>2026-04-25T13:35:26.895Z</time></trkpt><trkpt lat="45.7182819" lon="11.5986788"><ele>160.42857142857142</ele><time>2026-04-25T13:35:31.895Z</time></trkpt><trkpt lat="45.7183326" lon="11.5986247"><ele>160.85714285714286</ele><time>2026-04-25T13:35:36.895Z</time></trkpt><trkpt lat="45.7183874" lon="11.598573"><ele>161.28571428571428</ele><time>2026-04-25T13:35:42.896Z</time></trkpt><trkpt lat="45.7184306" lon="11.5985059"><ele>161.71428571428572</ele><time>2026-04-25T13:35:47.895Z</time></trkpt><trkpt lat="45.7184981" lon="11.5984509"><ele>162.14285714285714</ele><time>2026-04-25T13:35:53.895Z</time></trkpt><trkpt lat="45.7185463" lon="11.5983843"><ele>162.57142857142858</ele><time>2026-04-25T13:35:58.895Z</time></trkpt><trkpt lat="45.7186077" lon="11.5983432"><ele>163.0</ele><time>2026-04-25T13:36:02.895Z</time></trkpt><trkpt lat="45.7186715" lon="11.5983275"><ele>163.0</ele><time>2026-04-25T13:36:05.896Z</time></trkpt><trkpt lat="45.7187598" lon="11.5982651"><ele>163.0</ele><time>2026-04-25T13:36:08.895Z</time></trkpt><trkpt lat="45.7188527" lon="11.5982332"><ele>163.0</ele><time>2026-04-25T13:36:10.896Z</time></trkpt><trkpt lat="45.7189543" lon="11.5982077"><ele>163.0</ele><time>2026-04-25T13:36:12.897Z</time></trkpt><trkpt lat="45.7190707" lon="11.5981974"><ele>163.0</ele><time>2026-04-25T13:36:14.897Z</time></trkpt><trkpt lat="45.7191336" lon="11.5981933"><ele>163.0</ele><time>2026-04-25T13:36:15.897Z</time></trkpt><trkpt lat="45.7191966" lon="11.5981869"><ele>163.0</ele><time>2026-04-25T13:36:16.896Z</time></trkpt><trkpt lat="45.7192627" lon="11.5981808"><ele>163.0</ele><time>2026-04-25T13:36:17.896Z</time></trkpt><trkpt lat="45.7193337" lon="11.5981769"><ele>163.0</ele><time>2026-04-25T13:36:18.896Z</time></trkpt><trkpt lat="45.719406" lon="11.598175"><ele>163.0</ele><time>2026-04-25T13:36:19.896Z</time></trkpt><trkpt lat="45.719477" lon="11.5981755"><ele>163.0</ele><time>2026-04-25T13:36:20.897Z</time></trkpt><trkpt lat="45.7195444" lon="11.5981806"><ele>163.0</ele><time>2026-04-25T13:36:21.896Z</time></trkpt><trkpt lat="45.7196105" lon="11.5981927"><ele>162.83333333333334</ele><time>2026-04-25T13:36:22.896Z</time></trkpt><trkpt lat="45.7196779" lon="11.5982187"><ele>162.66666666666669</ele><time>2026-04-25T13:36:23.896Z</time></trkpt><trkpt lat="45.7197431" lon="11.5982591"><ele>162.5</ele><time>2026-04-25T13:36:24.897Z</time></trkpt><trkpt lat="45.7198011" lon="11.5983015"><ele>162.33333333333334</ele><time>2026-04-25T13:36:25.896Z</time></trkpt><trkpt lat="45.7199023" lon="11.5983774"><ele>162.16666666666666</ele><time>2026-04-25T13:36:27.896Z</time></trkpt><trkpt lat="45.7199733" lon="11.5984631"><ele>162.0</ele><time>2026-04-25T13:36:29.896Z</time></trkpt><trkpt lat="45.7200172" lon="11.5985405"><ele>162.0</ele><time>2026-04-25T13:36:31.896Z</time></trkpt><trkpt lat="45.7200912" lon="11.5985903"><ele>162.0</ele><time>2026-04-25T13:36:35.896Z</time></trkpt><trkpt lat="45.7201264" lon="11.598512"><ele>162.0</ele><time>2026-04-25T13:36:37.896Z</time></trkpt><trkpt lat="45.7201643" lon="11.5984121"><ele>162.0</ele><time>2026-04-25T13:36:40.896Z</time></trkpt><trkpt lat="45.7201981" lon="11.5983337"><ele>162.0</ele><time>2026-04-25T13:36:42.897Z</time></trkpt><trkpt lat="45.7202592" lon="11.5982598"><ele>162.0</ele><time>2026-04-25T13:36:45.896Z</time></trkpt><trkpt lat="45.7203145" lon="11.5982021"><ele>162.0</ele><time>2026-04-25T13:36:48.897Z</time></trkpt><trkpt lat="45.7203734" lon="11.5981365"><ele>162.28571428571428</ele><time>2026-04-25T13:36:51.896Z</time></trkpt><trkpt lat="45.7204257" lon="11.598064"><ele>162.57142857142856</ele><time>2026-04-25T13:36:54.897Z</time></trkpt><trkpt lat="45.720477" lon="11.5980081"><ele>162.85714285714283</ele><time>2026-04-25T13:36:57.896Z</time></trkpt><trkpt lat="45.7205322" lon="11.5979635"><ele>163.14285714285714</ele><time>2026-04-25T13:37:00.896Z</time></trkpt><trkpt lat="45.7205888" lon="11.5979087"><ele>163.42857142857142</ele><time>2026-04-25T13:37:03.896Z</time></trkpt><trkpt lat="45.720639" lon="11.5978493"><ele>163.7142857142857</ele><time>2026-04-25T13:37:06.896Z</time></trkpt><trkpt lat="45.7206902" lon="11.5977848"><ele>164.0</ele><time>2026-04-25T13:37:09.896Z</time></trkpt><trkpt lat="45.7207505" lon="11.5977179"><ele>164.0</ele><time>2026-04-25T13:37:12.897Z</time></trkpt><trkpt lat="45.720819" lon="11.5976484"><ele>164.0</ele><time>2026-04-25T13:37:15.896Z</time></trkpt><trkpt lat="45.7208723" lon="11.5975854"><ele>164.0</ele><time>2026-04-25T13:37:17.896Z</time></trkpt><trkpt lat="45.7209383" lon="11.5975125"><ele>164.0</ele><time>2026-04-25T13:37:19.896Z</time></trkpt><trkpt lat="45.7210163" lon="11.5974206"><ele>164.0</ele><time>2026-04-25T13:37:21.896Z</time></trkpt><trkpt lat="45.7211116" lon="11.5973286"><ele>163.42857142857142</ele><time>2026-04-25T13:37:23.896Z</time></trkpt><trkpt lat="45.7211658" lon="11.597275"><ele>162.85714285714286</ele><time>2026-04-25T13:37:24.896Z</time></trkpt><trkpt lat="45.7212159" lon="11.5972198"><ele>162.28571428571428</ele><time>2026-04-25T13:37:25.896Z</time></trkpt><trkpt lat="45.7212695" lon="11.5971576"><ele>161.71428571428572</ele><time>2026-04-25T13:37:26.897Z</time></trkpt><trkpt lat="45.7213263" lon="11.5971028"><ele>161.14285714285714</ele><time>2026-04-25T13:37:27.896Z</time></trkpt><trkpt lat="45.7213816" lon="11.5970437"><ele>160.57142857142856</ele><time>2026-04-25T13:37:28.897Z</time></trkpt><trkpt lat="45.7214357" lon="11.5969846"><ele>160.0</ele><time>2026-04-25T13:37:29.897Z</time></trkpt><trkpt lat="45.7214873" lon="11.5969284"><ele>159.57142857142856</ele><time>2026-04-25T13:37:30.896Z</time></trkpt><trkpt lat="45.7215392" lon="11.5968733"><ele>159.14285714285714</ele><time>2026-04-25T13:37:31.897Z</time></trkpt><trkpt lat="45.7215868" lon="11.5968081"><ele>158.71428571428572</ele><time>2026-04-25T13:37:32.898Z</time></trkpt><trkpt lat="45.7216287" lon="11.5967314"><ele>158.28571428571428</ele><time>2026-04-25T13:37:33.897Z</time></trkpt><trkpt lat="45.7216639" lon="11.596645"><ele>157.85714285714286</ele><time>2026-04-25T13:37:34.898Z</time></trkpt><trkpt lat="45.7216876" lon="11.596543"><ele>157.42857142857142</ele><time>2026-04-25T13:37:35.897Z</time></trkpt><trkpt lat="45.7217101" lon="11.5964458"><ele>157.0</ele><time>2026-04-25T13:37:36.898Z</time></trkpt><trkpt lat="45.7217332" lon="11.59634"><ele>157.0</ele><time>2026-04-25T13:37:37.897Z</time></trkpt><trkpt lat="45.7217625" lon="11.5962428"><ele>157.0</ele><time>2026-04-25T13:37:38.898Z</time></trkpt><trkpt lat="45.7218034" lon="11.5961522"><ele>157.0</ele><time>2026-04-25T13:37:39.898Z</time></trkpt><trkpt lat="45.721852" lon="11.5960667"><ele>157.0</ele><time>2026-04-25T13:37:40.898Z</time></trkpt><trkpt lat="45.7219103" lon="11.5959985"><ele>157.0</ele><time>2026-04-25T13:37:41.897Z</time></trkpt><trkpt lat="45.7219768" lon="11.5959458"><ele>157.0</ele><time>2026-04-25T13:37:42.897Z</time></trkpt><trkpt lat="45.7220447" lon="11.5959101"><ele>155.83333333333334</ele><time>2026-04-25T13:37:43.898Z</time></trkpt><trkpt lat="45.7221219" lon="11.5958628"><ele>154.66666666666669</ele><time>2026-04-25T13:37:44.897Z</time></trkpt><trkpt lat="45.722201" lon="11.5958138"><ele>153.5</ele><time>2026-04-25T13:37:45.897Z</time></trkpt><trkpt lat="45.7222803" lon="11.5957651"><ele>152.33333333333334</ele><time>2026-04-25T13:37:46.897Z</time></trkpt><trkpt lat="45.7223509" lon="11.5957222"><ele>151.16666666666666</ele><time>2026-04-25T13:37:47.897Z</time></trkpt><trkpt lat="45.7224155" lon="11.5956824"><ele>150.0</ele><time>2026-04-25T13:37:48.897Z</time></trkpt><trkpt lat="45.7224776" lon="11.5956457"><ele>150.0</ele><time>2026-04-25T13:37:49.897Z</time></trkpt><trkpt lat="45.7225364" lon="11.5956109"><ele>150.0</ele><time>2026-04-25T13:37:50.897Z</time></trkpt><trkpt lat="45.7226415" lon="11.5955307"><ele>150.0</ele><time>2026-04-25T13:37:52.897Z</time></trkpt><trkpt lat="45.7227325" lon="11.5954496"><ele>150.0</ele><time>2026-04-25T13:37:54.897Z</time></trkpt><trkpt lat="45.7228142" lon="11.5953792"><ele>150.0</ele><time>2026-04-25T13:37:56.897Z</time></trkpt><trkpt lat="45.7228831" lon="11.5953165"><ele>150.66666666666666</ele><time>2026-04-25T13:37:58.897Z</time></trkpt><trkpt lat="45.7229386" lon="11.5952553"><ele>151.33333333333334</ele><time>2026-04-25T13:38:00.897Z</time></trkpt><trkpt lat="45.7230141" lon="11.5952113"><ele>152.0</ele><time>2026-04-25T13:38:03.897Z</time></trkpt><trkpt lat="45.723073" lon="11.5951548"><ele>152.66666666666669</ele><time>2026-04-25T13:38:05.897Z</time></trkpt><trkpt lat="45.7231371" lon="11.5950841"><ele>153.33333333333334</ele><time>2026-04-25T13:38:07.897Z</time></trkpt><trkpt lat="45.7232041" lon="11.5950377"><ele>154.0</ele><time>2026-04-25T13:38:09.897Z</time></trkpt><trkpt lat="45.7232739" lon="11.5949877"><ele>154.0</ele><time>2026-04-25T13:38:11.897Z</time></trkpt><trkpt lat="45.7233449" lon="11.5949401"><ele>154.0</ele><time>2026-04-25T13:38:13.897Z</time></trkpt><trkpt lat="45.7234179" lon="11.5948967"><ele>154.0</ele><time>2026-04-25T13:38:15.897Z</time></trkpt><trkpt lat="45.7234825" lon="11.5948502"><ele>154.0</ele><time>2026-04-25T13:38:17.897Z</time></trkpt><trkpt lat="45.7235418" lon="11.594808"><ele>154.0</ele><time>2026-04-25T13:38:19.897Z</time></trkpt><trkpt lat="45.7236123" lon="11.5948338"><ele>154.0</ele><time>2026-04-25T13:38:22.897Z</time></trkpt><trkpt lat="45.7236587" lon="11.5949124"><ele>154.0</ele><time>2026-04-25T13:38:27.897Z</time></trkpt><trkpt lat="45.723713" lon="11.594986"><ele>153.0</ele><time>2026-04-25T13:38:33.897Z</time></trkpt><trkpt lat="45.7237713" lon="11.5950445"><ele>152.0</ele><time>2026-04-25T13:38:38.897Z</time></trkpt><trkpt lat="45.7237842" lon="11.5951436"><ele>151.0</ele><time>2026-04-25T13:38:44.897Z</time></trkpt><trkpt lat="45.723754" lon="11.5952235"><ele>150.0</ele><time>2026-04-25T13:38:47.898Z</time></trkpt><trkpt lat="45.723715" lon="11.5953179"><ele>149.0</ele><time>2026-04-25T13:38:52.898Z</time></trkpt><trkpt lat="45.723722" lon="11.5954164"><ele>148.0</ele><time>2026-04-25T13:38:56.898Z</time></trkpt><trkpt lat="45.7237879" lon="11.5954815"><ele>147.0</ele><time>2026-04-25T13:39:00.899Z</time></trkpt><trkpt lat="45.7238365" lon="11.5955434"><ele>147.0</ele><time>2026-04-25T13:39:04.898Z</time></trkpt><trkpt lat="45.7238771" lon="11.5956422"><ele>147.0</ele><time>2026-04-25T13:39:09.899Z</time></trkpt><trkpt lat="45.7238939" lon="11.5957458"><ele>147.0</ele><time>2026-04-25T13:39:13.898Z</time></trkpt><trkpt lat="45.7238872" lon="11.5958747"><ele>147.0</ele><time>2026-04-25T13:39:16.898Z</time></trkpt><trkpt lat="45.7238861" lon="11.5959698"><ele>147.0</ele><time>2026-04-25T13:39:18.898Z</time></trkpt><trkpt lat="45.7238826" lon="11.5961059"><ele>147.0</ele><time>2026-04-25T13:39:21.898Z</time></trkpt><trkpt lat="45.7238822" lon="11.5962265"><ele>145.28571428571428</ele><time>2026-04-25T13:39:24.898Z</time></trkpt><trkpt lat="45.7238708" lon="11.5963355"><ele>143.57142857142856</ele><time>2026-04-25T13:39:27.898Z</time></trkpt><trkpt lat="45.7238738" lon="11.5964397"><ele>141.85714285714286</ele><time>2026-04-25T13:42:58.901Z</time></trkpt><trkpt lat="45.7238525" lon="11.5965372"><ele>140.14285714285714</ele><time>2026-04-25T13:43:00.901Z</time></trkpt><trkpt lat="45.7238296" lon="11.5966278"><ele>138.42857142857142</ele><time>2026-04-25T13:43:03.901Z</time></trkpt><trkpt lat="45.7238267" lon="11.5967182"><ele>136.71428571428572</ele><time>2026-04-25T13:43:06.901Z</time></trkpt><trkpt lat="45.7238262" lon="11.5968153"><ele>135.0</ele><time>2026-04-25T13:43:10.902Z</time></trkpt><trkpt lat="45.7238376" lon="11.5969178"><ele>133.5</ele><time>2026-04-25T13:43:16.901Z</time></trkpt><trkpt lat="45.7238913" lon="11.5970031"><ele>132.0</ele><time>2026-04-25T13:43:21.901Z</time></trkpt><trkpt lat="45.7239585" lon="11.5970744"><ele>130.5</ele><time>2026-04-25T13:43:24.901Z</time></trkpt><trkpt lat="45.7240184" lon="11.5971656"><ele>129.0</ele><time>2026-04-25T13:43:27.901Z</time></trkpt><trkpt lat="45.7240691" lon="11.5972712"><ele>127.5</ele><time>2026-04-25T13:43:30.901Z</time></trkpt><trkpt lat="45.7241169" lon="11.5973722"><ele>126.0</ele><time>2026-04-25T13:43:33.901Z</time></trkpt><trkpt lat="45.7241743" lon="11.5974849"><ele>126.0</ele><time>2026-04-25T13:43:36.901Z</time></trkpt><trkpt lat="45.7242137" lon="11.5975693"><ele>126.0</ele><time>2026-04-25T13:43:38.901Z</time></trkpt><trkpt lat="45.7242547" lon="11.5976513"><ele>126.0</ele><time>2026-04-25T13:43:40.902Z</time></trkpt><trkpt lat="45.7242983" lon="11.5977419"><ele>126.0</ele><time>2026-04-25T13:43:42.901Z</time></trkpt><trkpt lat="45.7243458" lon="11.5978574"><ele>126.0</ele><time>2026-04-25T13:43:44.901Z</time></trkpt><trkpt lat="45.7243974" lon="11.5979851"><ele>126.0</ele><time>2026-04-25T13:43:46.901Z</time></trkpt><trkpt lat="45.7244406" lon="11.5981032"><ele>123.33333333333333</ele><time>2026-04-25T13:43:48.901Z</time></trkpt><trkpt lat="45.7244755" lon="11.5981976"><ele>120.66666666666666</ele><time>2026-04-25T13:43:50.901Z</time></trkpt><trkpt lat="45.7245065" lon="11.5982794"><ele>118.0</ele><time>2026-04-25T13:43:52.901Z</time></trkpt><trkpt lat="45.7245738" lon="11.5983547"><ele>115.33333333333333</ele><time>2026-04-25T13:43:55.901Z</time></trkpt><trkpt lat="45.7246578" lon="11.5983178"><ele>112.66666666666666</ele><time>2026-04-25T13:43:57.902Z</time></trkpt><trkpt lat="45.7247283" lon="11.5982471"><ele>110.0</ele><time>2026-04-25T13:43:59.902Z</time></trkpt><trkpt lat="45.7248194" lon="11.5982061"><ele>110.0</ele><time>2026-04-25T13:44:01.902Z</time></trkpt><trkpt lat="45.7249248" lon="11.5982157"><ele>110.0</ele><time>2026-04-25T13:44:03.902Z</time></trkpt><trkpt lat="45.725021" lon="11.5982964"><ele>110.0</ele><time>2026-04-25T13:44:05.902Z</time></trkpt><trkpt lat="45.7251184" lon="11.5983929"><ele>110.0</ele><time>2026-04-25T13:44:07.902Z</time></trkpt><trkpt lat="45.72519" lon="11.5985269"><ele>109.75</ele><time>2026-04-25T13:44:09.902Z</time></trkpt><trkpt lat="45.7252594" lon="11.5986635"><ele>109.5</ele><time>2026-04-25T13:44:11.902Z</time></trkpt><trkpt lat="45.7253224" lon="11.598818"><ele>109.25</ele><time>2026-04-25T13:44:13.902Z</time></trkpt><trkpt lat="45.7253822" lon="11.598963"><ele>109.0</ele><time>2026-04-25T13:44:15.903Z</time></trkpt><trkpt lat="45.7254553" lon="11.5991041"><ele>108.6</ele><time>2026-04-25T13:44:17.902Z</time></trkpt><trkpt lat="45.7255264" lon="11.5992474"><ele>108.2</ele><time>2026-04-25T13:44:19.903Z</time></trkpt><trkpt lat="45.7255966" lon="11.5993761"><ele>107.79999999999998</ele><time>2026-04-25T13:44:21.903Z</time></trkpt><trkpt lat="45.7256748" lon="11.5994751"><ele>107.39999999999999</ele><time>2026-04-25T13:44:23.902Z</time></trkpt><trkpt lat="45.7257629" lon="11.5995558"><ele>107.0</ele><time>2026-04-25T13:44:25.902Z</time></trkpt><trkpt lat="45.7258446" lon="11.5996356"><ele>106.99999999999999</ele><time>2026-04-25T13:44:27.902Z</time></trkpt><trkpt lat="45.7259195" lon="11.5997031"><ele>107.0</ele><time>2026-04-25T13:44:29.903Z</time></trkpt><trkpt lat="45.7259898" lon="11.5997663"><ele>107.0</ele><time>2026-04-25T13:44:31.902Z</time></trkpt><trkpt lat="45.7260549" lon="11.5998185"><ele>107.0</ele><time>2026-04-25T13:44:33.902Z</time></trkpt><trkpt lat="45.7261326" lon="11.5998681"><ele>106.99999999999999</ele><time>2026-04-25T13:44:35.902Z</time></trkpt><trkpt lat="45.7262026" lon="11.5999275"><ele>107.0</ele><time>2026-04-25T13:44:37.902Z</time></trkpt><trkpt lat="45.7262652" lon="11.5999833"><ele>107.16666666666666</ele><time>2026-04-25T13:44:39.902Z</time></trkpt><trkpt lat="45.7263216" lon="11.6000387"><ele>107.33333333333333</ele><time>2026-04-25T13:44:41.902Z</time></trkpt><trkpt lat="45.7263703" lon="11.6001017"><ele>107.5</ele><time>2026-04-25T13:44:43.902Z</time></trkpt><trkpt lat="45.7264368" lon="11.6001854"><ele>107.66666666666666</ele><time>2026-04-25T13:44:46.902Z</time></trkpt><trkpt lat="45.7265014" lon="11.6002684"><ele>107.83333333333333</ele><time>2026-04-25T13:44:49.902Z</time></trkpt><trkpt lat="45.7265783" lon="11.6002973"><ele>108.0</ele><time>2026-04-25T13:44:52.902Z</time></trkpt><trkpt lat="45.7266555" lon="11.6002263"><ele>108.0</ele><time>2026-04-25T13:44:54.902Z</time></trkpt><trkpt lat="45.726724" lon="11.6001721"><ele>108.0</ele><time>2026-04-25T13:44:56.902Z</time></trkpt><trkpt lat="45.7268003" lon="11.6001446"><ele>108.0</ele><time>2026-04-25T13:44:58.902Z</time></trkpt><trkpt lat="45.7268675" lon="11.6001168"><ele>108.0</ele><time>2026-04-25T13:45:00.902Z</time></trkpt><trkpt lat="45.7269283" lon="11.6000703"><ele>108.0</ele><time>2026-04-25T13:45:02.903Z</time></trkpt><trkpt lat="45.7269904" lon="11.6000197"><ele>108.0</ele><time>2026-04-25T13:45:04.902Z</time></trkpt><trkpt lat="45.7270594" lon="11.5999858"><ele>108.0</ele><time>2026-04-25T13:45:06.902Z</time></trkpt><trkpt lat="45.7271284" lon="11.5999474"><ele>108.0</ele><time>2026-04-25T13:45:08.902Z</time></trkpt><trkpt lat="45.7271964" lon="11.5999095"><ele>108.0</ele><time>2026-04-25T13:45:10.903Z</time></trkpt><trkpt lat="45.7272615" lon="11.5998668"><ele>108.0</ele><time>2026-04-25T13:45:12.902Z</time></trkpt><trkpt lat="45.7273334" lon="11.5998287"><ele>108.0</ele><time>2026-04-25T13:45:14.903Z</time></trkpt><trkpt lat="45.7274017" lon="11.5997887"><ele>108.0</ele><time>2026-04-25T13:45:16.903Z</time></trkpt><trkpt lat="45.7274669" lon="11.5997497"><ele>108.0</ele><time>2026-04-25T13:45:18.903Z</time></trkpt><trkpt lat="45.7275309" lon="11.5997055"><ele>108.0</ele><time>2026-04-25T13:45:20.903Z</time></trkpt><trkpt lat="45.7275948" lon="11.5996777"><ele>108.0</ele><time>2026-04-25T13:45:22.904Z</time></trkpt><trkpt lat="45.727654" lon="11.5996389"><ele>108.0</ele><time>2026-04-25T13:45:24.903Z</time></trkpt><trkpt lat="45.7277162" lon="11.5996064"><ele>108.0</ele><time>2026-04-25T13:45:26.903Z</time></trkpt><trkpt lat="45.7277771" lon="11.5995606"><ele>108.0</ele><time>2026-04-25T13:45:28.903Z</time></trkpt><trkpt lat="45.7278396" lon="11.599528"><ele>108.0</ele><time>2026-04-25T13:45:30.903Z</time></trkpt><trkpt lat="45.7278997" lon="11.5994866"><ele>108.0</ele><time>2026-04-25T13:45:32.903Z</time></trkpt><trkpt lat="45.7279548" lon="11.5994367"><ele>108.0</ele><time>2026-04-25T13:45:34.903Z</time></trkpt><trkpt lat="45.7280073" lon="11.5993792"><ele>108.42857142857143</ele><time>2026-04-25T13:45:36.903Z</time></trkpt><trkpt lat="45.728057" lon="11.5993024"><ele>108.85714285714286</ele><time>2026-04-25T13:45:38.938Z</time></trkpt><trkpt lat="45.728095" lon="11.5992246"><ele>109.28571428571428</ele><time>2026-04-25T13:45:40.951Z</time></trkpt><trkpt lat="45.7281387" lon="11.5991437"><ele>109.71428571428572</ele><time>2026-04-25T13:45:42.965Z</time></trkpt><trkpt lat="45.7281783" lon="11.5990684"><ele>110.14285714285715</ele><time>2026-04-25T13:45:44.901Z</time></trkpt><trkpt lat="45.7282103" lon="11.5989866"><ele>110.57142857142857</ele><time>2026-04-25T13:45:46.903Z</time></trkpt><trkpt lat="45.7282386" lon="11.5989009"><ele>111.0</ele><time>2026-04-25T13:45:48.906Z</time></trkpt><trkpt lat="45.7282677" lon="11.5988113"><ele>111.0</ele><time>2026-04-25T13:45:50.92Z</time></trkpt><trkpt lat="45.7282953" lon="11.5987176"><ele>111.0</ele><time>2026-04-25T13:45:52.934Z</time></trkpt><trkpt lat="45.7283187" lon="11.598611"><ele>111.0</ele><time>2026-04-25T13:45:54.947Z</time></trkpt><trkpt lat="45.7283499" lon="11.5985092"><ele>111.0</ele><time>2026-04-25T13:45:56.961Z</time></trkpt><trkpt lat="45.7283797" lon="11.598418"><ele>111.0</ele><time>2026-04-25T13:45:58.976Z</time></trkpt><trkpt lat="45.7284082" lon="11.5983299"><ele>111.0</ele><time>2026-04-25T13:46:00.903Z</time></trkpt><trkpt lat="45.7284347" lon="11.5982297"><ele>111.0</ele><time>2026-04-25T13:46:02.904Z</time></trkpt><trkpt lat="45.7284626" lon="11.5981301"><ele>111.14285714285714</ele><time>2026-04-25T13:46:04.916Z</time></trkpt><trkpt lat="45.7284884" lon="11.5980305"><ele>111.28571428571429</ele><time>2026-04-25T13:46:06.93Z</time></trkpt><trkpt lat="45.7285187" lon="11.5979331"><ele>111.42857142857143</ele><time>2026-04-25T13:46:08.943Z</time></trkpt><trkpt lat="45.7285493" lon="11.5978313"><ele>111.57142857142857</ele><time>2026-04-25T13:46:10.958Z</time></trkpt><trkpt lat="45.728577" lon="11.5977337"><ele>111.71428571428572</ele><time>2026-04-25T13:46:12.972Z</time></trkpt><trkpt lat="45.7286044" lon="11.5976339"><ele>111.85714285714286</ele><time>2026-04-25T13:46:14.985Z</time></trkpt><trkpt lat="45.7286351" lon="11.597544"><ele>112.0</ele><time>2026-04-25T13:46:16.903Z</time></trkpt><trkpt lat="45.7286693" lon="11.5974512"><ele>112.42857142857143</ele><time>2026-04-25T13:46:18.956Z</time></trkpt><trkpt lat="45.7287011" lon="11.5973657"><ele>112.85714285714286</ele><time>2026-04-25T13:46:20.927Z</time></trkpt><trkpt lat="45.7287371" lon="11.597281"><ele>113.28571428571428</ele><time>2026-04-25T13:46:22.94Z</time></trkpt><trkpt lat="45.7287807" lon="11.597203"><ele>113.71428571428571</ele><time>2026-04-25T13:46:24.953Z</time></trkpt><trkpt lat="45.7288235" lon="11.5971212"><ele>114.14285714285714</ele><time>2026-04-25T13:46:26.967Z</time></trkpt><trkpt lat="45.7288642" lon="11.597041"><ele>114.57142857142856</ele><time>2026-04-25T13:46:28.981Z</time></trkpt><trkpt lat="45.7288991" lon="11.5969642"><ele>114.99999999999999</ele><time>2026-04-25T13:46:30.904Z</time></trkpt><trkpt lat="45.7289388" lon="11.5968825"><ele>114.99999999999999</ele><time>2026-04-25T13:46:32.908Z</time></trkpt><trkpt lat="45.7289846" lon="11.5968077"><ele>115.0</ele><time>2026-04-25T13:46:34.922Z</time></trkpt><trkpt lat="45.7290298" lon="11.5967338"><ele>114.99999999999999</ele><time>2026-04-25T13:46:36.936Z</time></trkpt><trkpt lat="45.7290772" lon="11.5966577"><ele>114.99999999999999</ele><time>2026-04-25T13:46:38.95Z</time></trkpt><trkpt lat="45.7291279" lon="11.5965801"><ele>115.0</ele><time>2026-04-25T13:46:40.963Z</time></trkpt><trkpt lat="45.7291872" lon="11.5965114"><ele>114.99999999999999</ele><time>2026-04-25T13:46:42.977Z</time></trkpt><trkpt lat="45.7292498" lon="11.5964572"><ele>114.99999999999999</ele><time>2026-04-25T13:46:44.905Z</time></trkpt><trkpt lat="45.7293121" lon="11.5964072"><ele>114.99999999999999</ele><time>2026-04-25T13:46:46.904Z</time></trkpt><trkpt lat="45.7293717" lon="11.5963625"><ele>115.0</ele><time>2026-04-25T13:46:48.918Z</time></trkpt><trkpt lat="45.729433" lon="11.5963291"><ele>114.99999999999999</ele><time>2026-04-25T13:46:50.932Z</time></trkpt><trkpt lat="45.7294944" lon="11.5962988"><ele>114.99999999999999</ele><time>2026-04-25T13:46:52.946Z</time></trkpt><trkpt lat="45.7295559" lon="11.5962604"><ele>115.0</ele><time>2026-04-25T13:46:54.96Z</time></trkpt><trkpt lat="45.7296154" lon="11.596211"><ele>114.99999999999999</ele><time>2026-04-25T13:46:56.973Z</time></trkpt><trkpt lat="45.7296777" lon="11.5961694"><ele>114.99999999999999</ele><time>2026-04-25T13:46:58.987Z</time></trkpt><trkpt lat="45.7297423" lon="11.5961266"><ele>114.99999999999999</ele><time>2026-04-25T13:47:00.904Z</time></trkpt><trkpt lat="45.7298091" lon="11.5960845"><ele>115.0</ele><time>2026-04-25T13:47:02.914Z</time></trkpt><trkpt lat="45.7298756" lon="11.5960482"><ele>114.99999999999999</ele><time>2026-04-25T13:47:04.928Z</time></trkpt><trkpt lat="45.7299416" lon="11.5960069"><ele>114.99999999999999</ele><time>2026-04-25T13:47:06.941Z</time></trkpt><trkpt lat="45.7300116" lon="11.595961"><ele>115.0</ele><time>2026-04-25T13:47:08.955Z</time></trkpt><trkpt lat="45.7300819" lon="11.5959186"><ele>114.99999999999999</ele><time>2026-04-25T13:47:10.969Z</time></trkpt><trkpt lat="45.7301432" lon="11.5958785"><ele>114.99999999999999</ele><time>2026-04-25T13:47:12.983Z</time></trkpt><trkpt lat="45.7302058" lon="11.5958428"><ele>115.42857142857142</ele><time>2026-04-25T13:47:14.904Z</time></trkpt><trkpt lat="45.7302678" lon="11.5958092"><ele>115.85714285714286</ele><time>2026-04-25T13:47:16.91Z</time></trkpt><trkpt lat="45.7303521" lon="11.5957505"><ele>116.28571428571428</ele><time>2026-04-25T13:47:19.931Z</time></trkpt><trkpt lat="45.7304125" lon="11.5957181"><ele>116.71428571428571</ele><time>2026-04-25T13:47:21.945Z</time></trkpt><trkpt lat="45.7304718" lon="11.5956806"><ele>117.14285714285714</ele><time>2026-04-25T13:47:23.959Z</time></trkpt><trkpt lat="45.7305306" lon="11.5956373"><ele>117.57142857142857</ele><time>2026-04-25T13:47:25.972Z</time></trkpt><trkpt lat="45.7306002" lon="11.5955955"><ele>118.0</ele><time>2026-04-25T13:47:27.986Z</time></trkpt><trkpt lat="45.7306602" lon="11.5955552"><ele>118.0</ele><time>2026-04-25T13:47:29.904Z</time></trkpt><trkpt lat="45.7307227" lon="11.5955097"><ele>118.0</ele><time>2026-04-25T13:47:31.913Z</time></trkpt><trkpt lat="45.7307886" lon="11.5954725"><ele>118.0</ele><time>2026-04-25T13:47:33.927Z</time></trkpt><trkpt lat="45.7308561" lon="11.5954376"><ele>118.0</ele><time>2026-04-25T13:47:35.941Z</time></trkpt><trkpt lat="45.7309193" lon="11.5953858"><ele>118.0</ele><time>2026-04-25T13:47:37.955Z</time></trkpt><trkpt lat="45.7309867" lon="11.5953373"><ele>118.0</ele><time>2026-04-25T13:47:39.97Z</time></trkpt><trkpt lat="45.7310486" lon="11.5952904"><ele>118.0</ele><time>2026-04-25T13:47:41.983Z</time></trkpt><trkpt lat="45.7311095" lon="11.5952535"><ele>118.42857142857142</ele><time>2026-04-25T13:47:43.904Z</time></trkpt><trkpt lat="45.731175" lon="11.5952121"><ele>118.85714285714286</ele><time>2026-04-25T13:47:45.909Z</time></trkpt><trkpt lat="45.7312419" lon="11.5951732"><ele>119.28571428571428</ele><time>2026-04-25T13:47:47.923Z</time></trkpt><trkpt lat="45.7313142" lon="11.5951335"><ele>119.71428571428571</ele><time>2026-04-25T13:47:49.937Z</time></trkpt><trkpt lat="45.7313835" lon="11.5950951"><ele>120.14285714285714</ele><time>2026-04-25T13:47:51.951Z</time></trkpt><trkpt lat="45.7314496" lon="11.5950549"><ele>120.57142857142857</ele><time>2026-04-25T13:47:53.965Z</time></trkpt><trkpt lat="45.7315134" lon="11.5950012"><ele>121.0</ele><time>2026-04-25T13:47:55.905Z</time></trkpt><trkpt lat="45.7315761" lon="11.5949375"><ele>121.0</ele><time>2026-04-25T13:47:57.993Z</time></trkpt><trkpt lat="45.7316363" lon="11.5948816"><ele>120.99999999999999</ele><time>2026-04-25T13:47:59.906Z</time></trkpt><trkpt lat="45.7316938" lon="11.5948182"><ele>121.0</ele><time>2026-04-25T13:48:01.92Z</time></trkpt><trkpt lat="45.7317516" lon="11.5947544"><ele>121.0</ele><time>2026-04-25T13:48:03.933Z</time></trkpt><trkpt lat="45.7318078" lon="11.5946809"><ele>120.99999999999999</ele><time>2026-04-25T13:48:05.947Z</time></trkpt><trkpt lat="45.7318644" lon="11.5946094"><ele>121.0</ele><time>2026-04-25T13:48:07.961Z</time></trkpt><trkpt lat="45.7319159" lon="11.5945462"><ele>121.0</ele><time>2026-04-25T13:48:09.975Z</time></trkpt><trkpt lat="45.731967" lon="11.5944724"><ele>121.33333333333334</ele><time>2026-04-25T13:48:11.905Z</time></trkpt><trkpt lat="45.7320228" lon="11.5943895"><ele>121.66666666666667</ele><time>2026-04-25T13:48:13.905Z</time></trkpt><trkpt lat="45.7320815" lon="11.5943135"><ele>122.0</ele><time>2026-04-25T13:48:15.935Z</time></trkpt><trkpt lat="45.7321433" lon="11.5942405"><ele>122.33333333333334</ele><time>2026-04-25T13:48:17.93Z</time></trkpt><trkpt lat="45.7322051" lon="11.5941798"><ele>122.66666666666667</ele><time>2026-04-25T13:48:19.944Z</time></trkpt><trkpt lat="45.7322613" lon="11.5941159"><ele>123.0</ele><time>2026-04-25T13:48:21.958Z</time></trkpt><trkpt lat="45.7323223" lon="11.5940719"><ele>123.00000000000001</ele><time>2026-04-25T13:48:23.971Z</time></trkpt><trkpt lat="45.732384" lon="11.5940411"><ele>123.0</ele><time>2026-04-25T13:48:25.905Z</time></trkpt><trkpt lat="45.7324528" lon="11.5940134"><ele>123.00000000000001</ele><time>2026-04-25T13:48:27.905Z</time></trkpt><trkpt lat="45.7325222" lon="11.59398"><ele>123.00000000000001</ele><time>2026-04-25T13:48:29.912Z</time></trkpt><trkpt lat="45.7325894" lon="11.5939481"><ele>123.0</ele><time>2026-04-25T13:48:31.926Z</time></trkpt><trkpt lat="45.732652" lon="11.5939145"><ele>123.00000000000001</ele><time>2026-04-25T13:48:33.905Z</time></trkpt><trkpt lat="45.7327211" lon="11.593884"><ele>123.00000000000001</ele><time>2026-04-25T13:48:35.905Z</time></trkpt><trkpt lat="45.7327896" lon="11.5938507"><ele>123.00000000000001</ele><time>2026-04-25T13:48:37.906Z</time></trkpt><trkpt lat="45.7328615" lon="11.5938198"><ele>123.0</ele><time>2026-04-25T13:48:39.905Z</time></trkpt><trkpt lat="45.7329354" lon="11.5937879"><ele>123.00000000000001</ele><time>2026-04-25T13:48:41.906Z</time></trkpt><trkpt lat="45.7330083" lon="11.5937521"><ele>123.00000000000001</ele><time>2026-04-25T13:48:43.905Z</time></trkpt><trkpt lat="45.7330796" lon="11.5937184"><ele>123.0</ele><time>2026-04-25T13:48:45.905Z</time></trkpt><trkpt lat="45.7331495" lon="11.5936894"><ele>123.00000000000001</ele><time>2026-04-25T13:48:47.906Z</time></trkpt><trkpt lat="45.7332169" lon="11.5936541"><ele>123.00000000000001</ele><time>2026-04-25T13:48:49.906Z</time></trkpt><trkpt lat="45.7332852" lon="11.5936204"><ele>123.2857142857143</ele><time>2026-04-25T13:48:51.906Z</time></trkpt><trkpt lat="45.7333567" lon="11.5935962"><ele>123.57142857142858</ele><time>2026-04-25T13:48:53.905Z</time></trkpt><trkpt lat="45.7334185" lon="11.5935598"><ele>123.85714285714286</ele><time>2026-04-25T13:48:55.905Z</time></trkpt><trkpt lat="45.7334848" lon="11.5935209"><ele>124.14285714285715</ele><time>2026-04-25T13:48:57.905Z</time></trkpt><trkpt lat="45.7335473" lon="11.5934827"><ele>124.42857142857144</ele><time>2026-04-25T13:48:59.906Z</time></trkpt><trkpt lat="45.73361" lon="11.5934339"><ele>124.71428571428571</ele><time>2026-04-25T13:49:01.905Z</time></trkpt><trkpt lat="45.7336696" lon="11.5933802"><ele>125.0</ele><time>2026-04-25T13:49:03.906Z</time></trkpt><trkpt lat="45.7337277" lon="11.5933233"><ele>125.0</ele><time>2026-04-25T13:49:05.906Z</time></trkpt><trkpt lat="45.7337819" lon="11.5932582"><ele>125.0</ele><time>2026-04-25T13:49:07.906Z</time></trkpt><trkpt lat="45.7338354" lon="11.5931913"><ele>125.0</ele><time>2026-04-25T13:49:09.906Z</time></trkpt><trkpt lat="45.7338924" lon="11.593123"><ele>125.0</ele><time>2026-04-25T13:49:11.906Z</time></trkpt><trkpt lat="45.7339562" lon="11.5930578"><ele>125.0</ele><time>2026-04-25T13:49:13.992Z</time></trkpt><trkpt lat="45.7340149" lon="11.5930003"><ele>125.0</ele><time>2026-04-25T13:49:15.898Z</time></trkpt><trkpt lat="45.7340844" lon="11.5929504"><ele>125.0</ele><time>2026-04-25T13:49:17.944Z</time></trkpt><trkpt lat="45.7341566" lon="11.5929087"><ele>125.0</ele><time>2026-04-25T13:49:19.957Z</time></trkpt><trkpt lat="45.7342292" lon="11.5928841"><ele>125.0</ele><time>2026-04-25T13:49:21.971Z</time></trkpt><trkpt lat="45.734298" lon="11.5928671"><ele>125.0</ele><time>2026-04-25T13:49:23.985Z</time></trkpt><trkpt lat="45.7343618" lon="11.5928441"><ele>125.0</ele><time>2026-04-25T13:49:25.906Z</time></trkpt><trkpt lat="45.7344279" lon="11.5928195"><ele>125.0</ele><time>2026-04-25T13:49:27.912Z</time></trkpt><trkpt lat="45.7344922" lon="11.5928084"><ele>125.0</ele><time>2026-04-25T13:49:29.925Z</time></trkpt><trkpt lat="45.7345577" lon="11.5927927"><ele>125.0</ele><time>2026-04-25T13:49:31.939Z</time></trkpt><trkpt lat="45.734624" lon="11.5927712"><ele>125.71428571428571</ele><time>2026-04-25T13:49:33.953Z</time></trkpt><trkpt lat="45.7346903" lon="11.5927473"><ele>126.42857142857144</ele><time>2026-04-25T13:49:35.936Z</time></trkpt><trkpt lat="45.7347544" lon="11.5927253"><ele>127.14285714285715</ele><time>2026-04-25T13:49:37.917Z</time></trkpt><trkpt lat="45.7348174" lon="11.5927051"><ele>127.85714285714286</ele><time>2026-04-25T13:49:39.907Z</time></trkpt><trkpt lat="45.7348836" lon="11.5926882"><ele>128.57142857142858</ele><time>2026-04-25T13:49:41.908Z</time></trkpt><trkpt lat="45.7349473" lon="11.5926626"><ele>129.2857142857143</ele><time>2026-04-25T13:49:43.922Z</time></trkpt><trkpt lat="45.7350147" lon="11.5926418"><ele>130.0</ele><time>2026-04-25T13:49:45.936Z</time></trkpt><trkpt lat="45.7350798" lon="11.5926311"><ele>130.0</ele><time>2026-04-25T13:49:47.934Z</time></trkpt><trkpt lat="45.7351768" lon="11.5925989"><ele>130.0</ele><time>2026-04-25T13:49:50.971Z</time></trkpt><trkpt lat="45.7352469" lon="11.5925711"><ele>130.0</ele><time>2026-04-25T13:49:52.985Z</time></trkpt><trkpt lat="45.7353158" lon="11.5925473"><ele>130.0</ele><time>2026-04-25T13:49:54.906Z</time></trkpt><trkpt lat="45.7353867" lon="11.5925244"><ele>130.0</ele><time>2026-04-25T13:49:56.912Z</time></trkpt><trkpt lat="45.7354557" lon="11.5925062"><ele>130.0</ele><time>2026-04-25T13:49:58.926Z</time></trkpt><trkpt lat="45.7355251" lon="11.5924844"><ele>129.83333333333334</ele><time>2026-04-25T13:50:00.939Z</time></trkpt><trkpt lat="45.7355945" lon="11.5924639"><ele>129.66666666666669</ele><time>2026-04-25T13:50:02.953Z</time></trkpt><trkpt lat="45.7356661" lon="11.5924397"><ele>129.5</ele><time>2026-04-25T13:50:04.967Z</time></trkpt><trkpt lat="45.735739" lon="11.5924047"><ele>129.33333333333334</ele><time>2026-04-25T13:50:06.982Z</time></trkpt><trkpt lat="45.7358109" lon="11.5923736"><ele>129.16666666666666</ele><time>2026-04-25T13:50:08.906Z</time></trkpt><trkpt lat="45.7358842" lon="11.5923384"><ele>129.0</ele><time>2026-04-25T13:50:10.908Z</time></trkpt><trkpt lat="45.7359582" lon="11.5922986"><ele>129.0</ele><time>2026-04-25T13:50:12.922Z</time></trkpt><trkpt lat="45.7360337" lon="11.5922534"><ele>129.0</ele><time>2026-04-25T13:50:14.936Z</time></trkpt><trkpt lat="45.7361077" lon="11.5922026"><ele>129.0</ele><time>2026-04-25T13:50:16.95Z</time></trkpt><trkpt lat="45.7361782" lon="11.5921537"><ele>129.0</ele><time>2026-04-25T13:50:18.964Z</time></trkpt><trkpt lat="45.7362482" lon="11.5921096"><ele>129.0</ele><time>2026-04-25T13:50:20.978Z</time></trkpt><trkpt lat="45.7363153" lon="11.5920615"><ele>129.0</ele><time>2026-04-25T13:50:22.907Z</time></trkpt><trkpt lat="45.7363811" lon="11.5920181"><ele>129.7142857142857</ele><time>2026-04-25T13:50:24.907Z</time></trkpt><trkpt lat="45.7364443" lon="11.5919696"><ele>130.42857142857142</ele><time>2026-04-25T13:50:26.919Z</time></trkpt><trkpt lat="45.7365062" lon="11.5919204"><ele>131.14285714285714</ele><time>2026-04-25T13:50:28.933Z</time></trkpt><trkpt lat="45.7365642" lon="11.5918775"><ele>131.85714285714283</ele><time>2026-04-25T13:50:30.947Z</time></trkpt><trkpt lat="45.7366267" lon="11.591836"><ele>132.57142857142856</ele><time>2026-04-25T13:50:32.961Z</time></trkpt><trkpt lat="45.7366933" lon="11.5917924"><ele>133.28571428571428</ele><time>2026-04-25T13:50:34.975Z</time></trkpt><trkpt lat="45.7367529" lon="11.5917488"><ele>134.0</ele><time>2026-04-25T13:50:36.907Z</time></trkpt><trkpt lat="45.7368124" lon="11.5917098"><ele>134.0</ele><time>2026-04-25T13:50:38.907Z</time></trkpt><trkpt lat="45.7368764" lon="11.5916662"><ele>134.0</ele><time>2026-04-25T13:50:40.916Z</time></trkpt><trkpt lat="45.7369348" lon="11.5916223"><ele>134.0</ele><time>2026-04-25T13:50:42.873Z</time></trkpt><trkpt lat="45.7369938" lon="11.5915701"><ele>134.0</ele><time>2026-04-25T13:50:44.944Z</time></trkpt><trkpt lat="45.7370545" lon="11.5915252"><ele>134.0</ele><time>2026-04-25T13:50:46.958Z</time></trkpt><trkpt lat="45.737117" lon="11.5914833"><ele>134.0</ele><time>2026-04-25T13:50:48.971Z</time></trkpt><trkpt lat="45.7371997" lon="11.5914178"><ele>134.0</ele><time>2026-04-25T13:50:51.907Z</time></trkpt><trkpt lat="45.737259" lon="11.5913717"><ele>133.71428571428572</ele><time>2026-04-25T13:50:53.907Z</time></trkpt><trkpt lat="45.7373207" lon="11.5913252"><ele>133.42857142857142</ele><time>2026-04-25T13:50:55.919Z</time></trkpt><trkpt lat="45.7373803" lon="11.5912862"><ele>133.14285714285714</ele><time>2026-04-25T13:50:57.933Z</time></trkpt><trkpt lat="45.7374426" lon="11.5912349"><ele>132.85714285714286</ele><time>2026-04-25T13:50:59.948Z</time></trkpt><trkpt lat="45.7375043" lon="11.5911847"><ele>132.57142857142858</ele><time>2026-04-25T13:51:01.961Z</time></trkpt><trkpt lat="45.7375651" lon="11.5911289"><ele>132.28571428571428</ele><time>2026-04-25T13:51:03.975Z</time></trkpt><trkpt lat="45.7376223" lon="11.5910838"><ele>132.0</ele><time>2026-04-25T13:51:05.907Z</time></trkpt><trkpt lat="45.7376763" lon="11.5910325"><ele>132.28571428571428</ele><time>2026-04-25T13:51:07.907Z</time></trkpt><trkpt lat="45.7377324" lon="11.5909809"><ele>132.57142857142858</ele><time>2026-04-25T13:51:09.91Z</time></trkpt><trkpt lat="45.7377832" lon="11.5909193"><ele>132.85714285714286</ele><time>2026-04-25T13:51:11.93Z</time></trkpt><trkpt lat="45.7378341" lon="11.5908515"><ele>133.14285714285714</ele><time>2026-04-25T13:51:13.944Z</time></trkpt><trkpt lat="45.7378857" lon="11.5907887"><ele>133.42857142857142</ele><time>2026-04-25T13:51:15.958Z</time></trkpt><trkpt lat="45.7379399" lon="11.5907312"><ele>133.71428571428572</ele><time>2026-04-25T13:51:17.972Z</time></trkpt><trkpt lat="45.7379981" lon="11.5906783"><ele>134.0</ele><time>2026-04-25T13:51:19.907Z</time></trkpt><trkpt lat="45.7380569" lon="11.5906229"><ele>134.0</ele><time>2026-04-25T13:51:21.907Z</time></trkpt><trkpt lat="45.7381159" lon="11.5905713"><ele>134.0</ele><time>2026-04-25T13:51:23.913Z</time></trkpt><trkpt lat="45.7381748" lon="11.5905155"><ele>134.0</ele><time>2026-04-25T13:51:25.927Z</time></trkpt><trkpt lat="45.7382335" lon="11.5904556"><ele>134.0</ele><time>2026-04-25T13:51:27.941Z</time></trkpt><trkpt lat="45.7382928" lon="11.5904027"><ele>134.0</ele><time>2026-04-25T13:51:29.955Z</time></trkpt><trkpt lat="45.738348" lon="11.5903413"><ele>134.0</ele><time>2026-04-25T13:51:31.969Z</time></trkpt><trkpt lat="45.7384051" lon="11.5902815"><ele>134.0</ele><time>2026-04-25T13:51:33.983Z</time></trkpt><trkpt lat="45.7384571" lon="11.590226"><ele>134.57142857142858</ele><time>2026-04-25T13:51:35.907Z</time></trkpt><trkpt lat="45.7385123" lon="11.5901652"><ele>135.14285714285714</ele><time>2026-04-25T13:51:37.91Z</time></trkpt><trkpt lat="45.7385732" lon="11.5901115"><ele>135.71428571428572</ele><time>2026-04-25T13:51:39.924Z</time></trkpt><trkpt lat="45.7386322" lon="11.5900538"><ele>136.28571428571428</ele><time>2026-04-25T13:51:41.939Z</time></trkpt><trkpt lat="45.7386886" lon="11.5899949"><ele>136.85714285714286</ele><time>2026-04-25T13:51:43.952Z</time></trkpt><trkpt lat="45.7387457" lon="11.5899439"><ele>137.42857142857144</ele><time>2026-04-25T13:51:45.967Z</time></trkpt><trkpt lat="45.7388077" lon="11.5898949"><ele>138.0</ele><time>2026-04-25T13:51:47.98Z</time></trkpt><trkpt lat="45.7388656" lon="11.5898515"><ele>138.0</ele><time>2026-04-25T13:51:49.908Z</time></trkpt><trkpt lat="45.7389491" lon="11.5898019"><ele>138.0</ele><time>2026-04-25T13:51:52.914Z</time></trkpt><trkpt lat="45.7390315" lon="11.589746"><ele>138.0</ele><time>2026-04-25T13:51:55.935Z</time></trkpt><trkpt lat="45.7391131" lon="11.5897077"><ele>138.0</ele><time>2026-04-25T13:51:58.908Z</time></trkpt><trkpt lat="45.739179" lon="11.5896618"><ele>138.0</ele><time>2026-04-25T13:52:00.909Z</time></trkpt><trkpt lat="45.7392458" lon="11.5896141"><ele>138.0</ele><time>2026-04-25T13:52:02.909Z</time></trkpt><trkpt lat="45.7393076" lon="11.5895705"><ele>138.0</ele><time>2026-04-25T13:52:04.908Z</time></trkpt><trkpt lat="45.7393763" lon="11.5895285"><ele>138.0</ele><time>2026-04-25T13:52:06.908Z</time></trkpt><trkpt lat="45.7394406" lon="11.5894951"><ele>138.0</ele><time>2026-04-25T13:52:08.909Z</time></trkpt><trkpt lat="45.7394986" lon="11.5894536"><ele>138.0</ele><time>2026-04-25T13:52:10.908Z</time></trkpt><trkpt lat="45.7395631" lon="11.5894149"><ele>138.0</ele><time>2026-04-25T13:52:12.908Z</time></trkpt><trkpt lat="45.7396243" lon="11.5893762"><ele>138.0</ele><time>2026-04-25T13:52:14.908Z</time></trkpt><trkpt lat="45.7397047" lon="11.5893239"><ele>138.0</ele><time>2026-04-25T13:52:17.908Z</time></trkpt><trkpt lat="45.7397624" lon="11.5892853"><ele>138.83333333333334</ele><time>2026-04-25T13:52:19.909Z</time></trkpt><trkpt lat="45.7398439" lon="11.5892354"><ele>139.66666666666666</ele><time>2026-04-25T13:52:22.908Z</time></trkpt><trkpt lat="45.7399248" lon="11.58919"><ele>140.5</ele><time>2026-04-25T13:52:25.908Z</time></trkpt><trkpt lat="45.7400019" lon="11.5891235"><ele>141.33333333333331</ele><time>2026-04-25T13:52:28.908Z</time></trkpt><trkpt lat="45.7400838" lon="11.5890708"><ele>142.16666666666666</ele><time>2026-04-25T13:52:31.908Z</time></trkpt><trkpt lat="45.7401664" lon="11.5890156"><ele>143.0</ele><time>2026-04-25T13:52:34.908Z</time></trkpt><trkpt lat="45.7402522" lon="11.5889664"><ele>143.0</ele><time>2026-04-25T13:52:37.908Z</time></trkpt><trkpt lat="45.7403341" lon="11.5889057"><ele>143.0</ele><time>2026-04-25T13:52:40.909Z</time></trkpt><trkpt lat="45.7404168" lon="11.5888413"><ele>143.0</ele><time>2026-04-25T13:52:43.908Z</time></trkpt><trkpt lat="45.7404971" lon="11.5887836"><ele>143.0</ele><time>2026-04-25T13:52:46.908Z</time></trkpt><trkpt lat="45.7405741" lon="11.5887313"><ele>143.0</ele><time>2026-04-25T13:52:49.908Z</time></trkpt><trkpt lat="45.7406483" lon="11.5886652"><ele>143.0</ele><time>2026-04-25T13:52:52.908Z</time></trkpt><trkpt lat="45.7407225" lon="11.5885974"><ele>143.0</ele><time>2026-04-25T13:52:55.908Z</time></trkpt><trkpt lat="45.740788" lon="11.5885279"><ele>143.0</ele><time>2026-04-25T13:52:58.909Z</time></trkpt><trkpt lat="45.7408608" lon="11.5884644"><ele>143.0</ele><time>2026-04-25T13:53:01.909Z</time></trkpt><trkpt lat="45.7409377" lon="11.5883887"><ele>143.0</ele><time>2026-04-25T13:53:04.912Z</time></trkpt><trkpt lat="45.7410088" lon="11.5883262"><ele>143.0</ele><time>2026-04-25T13:53:07.934Z</time></trkpt><trkpt lat="45.7410797" lon="11.5882555"><ele>143.0</ele><time>2026-04-25T13:53:10.954Z</time></trkpt><trkpt lat="45.7411468" lon="11.5881923"><ele>143.0</ele><time>2026-04-25T13:53:13.975Z</time></trkpt><trkpt lat="45.7412137" lon="11.5881293"><ele>143.0</ele><time>2026-04-25T13:53:16.909Z</time></trkpt><trkpt lat="45.7412907" lon="11.5880524"><ele>143.0</ele><time>2026-04-25T13:53:19.916Z</time></trkpt><trkpt lat="45.7413439" lon="11.5879974"><ele>143.0</ele><time>2026-04-25T13:53:22.909Z</time></trkpt><trkpt lat="45.7414165" lon="11.5879182"><ele>143.0</ele><time>2026-04-25T13:53:25.909Z</time></trkpt><trkpt lat="45.7414908" lon="11.5878579"><ele>143.0</ele><time>2026-04-25T13:53:28.909Z</time></trkpt><trkpt lat="45.7415565" lon="11.5877843"><ele>143.5</ele><time>2026-04-25T13:53:31.909Z</time></trkpt><trkpt lat="45.7416304" lon="11.5877231"><ele>144.0</ele><time>2026-04-25T13:53:34.909Z</time></trkpt><trkpt lat="45.7417017" lon="11.5876534"><ele>144.5</ele><time>2026-04-25T13:53:37.909Z</time></trkpt><trkpt lat="45.7417882" lon="11.5876038"><ele>145.0</ele><time>2026-04-25T13:53:40.91Z</time></trkpt><trkpt lat="45.7418557" lon="11.5875765"><ele>145.5</ele><time>2026-04-25T13:53:42.909Z</time></trkpt><trkpt lat="45.7419296" lon="11.5875599"><ele>146.0</ele><time>2026-04-25T13:53:44.909Z</time></trkpt><trkpt lat="45.7420055" lon="11.5875462"><ele>146.0</ele><time>2026-04-25T13:53:46.909Z</time></trkpt><trkpt lat="45.7420791" lon="11.5875389"><ele>146.0</ele><time>2026-04-25T13:53:48.91Z</time></trkpt><trkpt lat="45.7421517" lon="11.5875275"><ele>146.0</ele><time>2026-04-25T13:53:50.909Z</time></trkpt><trkpt lat="45.7422259" lon="11.587525"><ele>146.0</ele><time>2026-04-25T13:53:52.909Z</time></trkpt><trkpt lat="45.742302" lon="11.5875209"><ele>146.0</ele><time>2026-04-25T13:53:54.909Z</time></trkpt><trkpt lat="45.7423776" lon="11.5875064"><ele>146.0</ele><time>2026-04-25T13:53:56.909Z</time></trkpt><trkpt lat="45.7424539" lon="11.587497"><ele>146.0</ele><time>2026-04-25T13:53:58.909Z</time></trkpt><trkpt lat="45.7425314" lon="11.5874918"><ele>146.0</ele><time>2026-04-25T13:54:00.909Z</time></trkpt><trkpt lat="45.7426216" lon="11.587484"><ele>146.0</ele><time>2026-04-25T13:54:02.914Z</time></trkpt><trkpt lat="45.7426968" lon="11.587472"><ele>146.0</ele><time>2026-04-25T13:54:04.928Z</time></trkpt><trkpt lat="45.7427691" lon="11.5874588"><ele>146.0</ele><time>2026-04-25T13:54:06.942Z</time></trkpt><trkpt lat="45.7428418" lon="11.5874508"><ele>146.0</ele><time>2026-04-25T13:54:08.957Z</time></trkpt><trkpt lat="45.7429101" lon="11.5874451"><ele>146.83333333333331</ele><time>2026-04-25T13:54:10.97Z</time></trkpt><trkpt lat="45.7430007" lon="11.5874284"><ele>147.66666666666666</ele><time>2026-04-25T13:54:13.992Z</time></trkpt><trkpt lat="45.7430869" lon="11.5874185"><ele>148.5</ele><time>2026-04-25T13:54:16.911Z</time></trkpt><trkpt lat="45.7431771" lon="11.5874232"><ele>149.33333333333334</ele><time>2026-04-25T13:54:19.932Z</time></trkpt><trkpt lat="45.7432705" lon="11.5874115"><ele>150.16666666666669</ele><time>2026-04-25T13:54:22.972Z</time></trkpt><trkpt lat="45.7433339" lon="11.5873969"><ele>151.0</ele><time>2026-04-25T13:54:24.967Z</time></trkpt><trkpt lat="45.7434003" lon="11.5873852"><ele>151.0</ele><time>2026-04-25T13:54:26.981Z</time></trkpt><trkpt lat="45.7434939" lon="11.5873652"><ele>151.0</ele><time>2026-04-25T13:54:29.91Z</time></trkpt><trkpt lat="45.7435595" lon="11.5873571"><ele>151.0</ele><time>2026-04-25T13:54:31.916Z</time></trkpt><trkpt lat="45.743649" lon="11.5873591"><ele>151.0</ele><time>2026-04-25T13:54:34.936Z</time></trkpt><trkpt lat="45.7437316" lon="11.5873496"><ele>151.0</ele><time>2026-04-25T13:54:37.958Z</time></trkpt><trkpt lat="45.7438132" lon="11.5873429"><ele>151.0</ele><time>2026-04-25T13:54:40.978Z</time></trkpt><trkpt lat="45.7438923" lon="11.5873416"><ele>151.66666666666669</ele><time>2026-04-25T13:54:43.91Z</time></trkpt><trkpt lat="45.7439715" lon="11.5873199"><ele>152.33333333333334</ele><time>2026-04-25T13:54:46.836Z</time></trkpt><trkpt lat="45.7440481" lon="11.5872809"><ele>153.0</ele><time>2026-04-25T13:54:49.948Z</time></trkpt><trkpt lat="45.7441136" lon="11.5872474"><ele>153.66666666666666</ele><time>2026-04-25T13:54:52.91Z</time></trkpt><trkpt lat="45.7441868" lon="11.587236"><ele>154.33333333333331</ele><time>2026-04-25T13:54:55.911Z</time></trkpt><trkpt lat="45.7442652" lon="11.5872182"><ele>155.0</ele><time>2026-04-25T13:54:59.91Z</time></trkpt><trkpt lat="45.7443455" lon="11.5871973"><ele>155.57142857142858</ele><time>2026-04-25T13:55:02.91Z</time></trkpt><trkpt lat="45.7444295" lon="11.5872012"><ele>156.14285714285714</ele><time>2026-04-25T13:55:05.91Z</time></trkpt><trkpt lat="45.744505" lon="11.5871984"><ele>156.71428571428572</ele><time>2026-04-25T13:55:08.91Z</time></trkpt><trkpt lat="45.7445748" lon="11.5872086"><ele>157.28571428571428</ele><time>2026-04-25T13:55:11.91Z</time></trkpt><trkpt lat="45.7446408" lon="11.5872323"><ele>157.85714285714286</ele><time>2026-04-25T13:55:14.91Z</time></trkpt><trkpt lat="45.7447118" lon="11.5872414"><ele>158.42857142857142</ele><time>2026-04-25T13:55:17.91Z</time></trkpt><trkpt lat="45.7447863" lon="11.5872535"><ele>159.0</ele><time>2026-04-25T13:55:20.91Z</time></trkpt><trkpt lat="45.7448581" lon="11.587267"><ele>159.0</ele><time>2026-04-25T13:55:23.911Z</time></trkpt><trkpt lat="45.744922" lon="11.5872732"><ele>159.0</ele><time>2026-04-25T13:55:26.91Z</time></trkpt><trkpt lat="45.7449861" lon="11.587284"><ele>159.0</ele><time>2026-04-25T13:55:29.91Z</time></trkpt><trkpt lat="45.7450529" lon="11.5872793"><ele>159.0</ele><time>2026-04-25T13:55:32.946Z</time></trkpt><trkpt lat="45.7451289" lon="11.5872784"><ele>159.0</ele><time>2026-04-25T13:55:35.967Z</time></trkpt><trkpt lat="45.7452072" lon="11.5872818"><ele>159.0</ele><time>2026-04-25T13:55:38.988Z</time></trkpt><trkpt lat="45.7452735" lon="11.5872778"><ele>159.0</ele><time>2026-04-25T13:55:41.911Z</time></trkpt><trkpt lat="45.7453368" lon="11.5872818"><ele>159.33333333333334</ele><time>2026-04-25T13:55:44.929Z</time></trkpt><trkpt lat="45.7454141" lon="11.5872911"><ele>159.66666666666666</ele><time>2026-04-25T13:55:47.951Z</time></trkpt><trkpt lat="45.7454983" lon="11.5872924"><ele>160.0</ele><time>2026-04-25T13:55:50.897Z</time></trkpt><trkpt lat="45.7455859" lon="11.5873004"><ele>160.33333333333331</ele><time>2026-04-25T13:55:53.911Z</time></trkpt><trkpt lat="45.7456702" lon="11.5873091"><ele>160.66666666666666</ele><time>2026-04-25T13:55:56.912Z</time></trkpt><trkpt lat="45.7457529" lon="11.5873094"><ele>161.0</ele><time>2026-04-25T13:55:59.934Z</time></trkpt><trkpt lat="45.7458304" lon="11.5873167"><ele>161.0</ele><time>2026-04-25T13:56:02.954Z</time></trkpt><trkpt lat="45.7459125" lon="11.5873223"><ele>161.0</ele><time>2026-04-25T13:56:05.975Z</time></trkpt><trkpt lat="45.7459891" lon="11.5873177"><ele>161.0</ele><time>2026-04-25T13:56:08.996Z</time></trkpt><trkpt lat="45.7460682" lon="11.587322"><ele>161.0</ele><time>2026-04-25T13:56:11.916Z</time></trkpt><trkpt lat="45.7461436" lon="11.5873237"><ele>161.0</ele><time>2026-04-25T13:56:14.937Z</time></trkpt><trkpt lat="45.7462195" lon="11.5873234"><ele>161.0</ele><time>2026-04-25T13:56:17.959Z</time></trkpt><trkpt lat="45.7462942" lon="11.5873163"><ele>161.33333333333331</ele><time>2026-04-25T13:56:20.98Z</time></trkpt><trkpt lat="45.7463643" lon="11.5873279"><ele>161.66666666666666</ele><time>2026-04-25T13:56:23.912Z</time></trkpt><trkpt lat="45.7464379" lon="11.5873254"><ele>162.0</ele><time>2026-04-25T13:56:26.92Z</time></trkpt><trkpt lat="45.7465122" lon="11.5872918"><ele>162.33333333333334</ele><time>2026-04-25T13:56:29.941Z</time></trkpt><trkpt lat="45.746584" lon="11.5872451"><ele>162.66666666666669</ele><time>2026-04-25T13:56:32.962Z</time></trkpt><trkpt lat="45.7466465" lon="11.5871873"><ele>163.0</ele><time>2026-04-25T13:56:35.983Z</time></trkpt><trkpt lat="45.746723" lon="11.5871184"><ele>163.0</ele><time>2026-04-25T13:56:38.956Z</time></trkpt><trkpt lat="45.7467757" lon="11.5870358"><ele>163.0</ele><time>2026-04-25T13:56:41.963Z</time></trkpt><trkpt lat="45.7468324" lon="11.5869648"><ele>163.0</ele><time>2026-04-25T13:56:44.915Z</time></trkpt><trkpt lat="45.7468853" lon="11.5868857"><ele>163.0</ele><time>2026-04-25T13:56:47.966Z</time></trkpt><trkpt lat="45.7469353" lon="11.5868201"><ele>163.0</ele><time>2026-04-25T13:56:50.987Z</time></trkpt><trkpt lat="45.7469849" lon="11.5867321"><ele>163.0</ele><time>2026-04-25T13:56:53.912Z</time></trkpt><trkpt lat="45.7470168" lon="11.5866214"><ele>164.5</ele><time>2026-04-25T13:56:56.929Z</time></trkpt><trkpt lat="45.7470394" lon="11.5865024"><ele>166.0</ele><time>2026-04-25T13:56:59.95Z</time></trkpt><trkpt lat="45.747055" lon="11.5863891"><ele>167.5</ele><time>2026-04-25T13:57:02.971Z</time></trkpt><trkpt lat="45.7470735" lon="11.5862852"><ele>169.0</ele><time>2026-04-25T13:57:05.912Z</time></trkpt><trkpt lat="45.7470918" lon="11.5861838"><ele>170.5</ele><time>2026-04-25T13:57:08.912Z</time></trkpt><trkpt lat="45.7471133" lon="11.5860877"><ele>172.0</ele><time>2026-04-25T13:57:11.852Z</time></trkpt><trkpt lat="45.7471257" lon="11.5859792"><ele>173.33333333333334</ele><time>2026-04-25T13:57:14.913Z</time></trkpt><trkpt lat="45.747134" lon="11.5858683"><ele>174.66666666666669</ele><time>2026-04-25T13:57:17.975Z</time></trkpt><trkpt lat="45.7471431" lon="11.5857589"><ele>176.0</ele><time>2026-04-25T13:57:19.912Z</time></trkpt><trkpt lat="45.7471579" lon="11.5856326"><ele>177.33333333333334</ele><time>2026-04-25T13:57:22.912Z</time></trkpt><trkpt lat="45.7471829" lon="11.5855246"><ele>178.66666666666666</ele><time>2026-04-25T13:57:25.912Z</time></trkpt><trkpt lat="45.7472141" lon="11.585425"><ele>180.0</ele><time>2026-04-25T13:57:28.913Z</time></trkpt><trkpt lat="45.7472566" lon="11.5853223"><ele>181.0</ele><time>2026-04-25T13:57:31.912Z</time></trkpt><trkpt lat="45.7473118" lon="11.5852409"><ele>182.0</ele><time>2026-04-25T13:57:34.912Z</time></trkpt><trkpt lat="45.7473734" lon="11.5851649"><ele>183.0</ele><time>2026-04-25T13:57:37.912Z</time></trkpt><trkpt lat="45.7474367" lon="11.5851066"><ele>184.0</ele><time>2026-04-25T13:57:40.912Z</time></trkpt><trkpt lat="45.7474994" lon="11.5850449"><ele>185.0</ele><time>2026-04-25T13:57:43.912Z</time></trkpt><trkpt lat="45.7475674" lon="11.5849598"><ele>186.0</ele><time>2026-04-25T13:57:46.913Z</time></trkpt><trkpt lat="45.7476235" lon="11.5848751"><ele>186.0</ele><time>2026-04-25T13:57:49.912Z</time></trkpt><trkpt lat="45.7476805" lon="11.5847805"><ele>186.0</ele><time>2026-04-25T13:57:52.917Z</time></trkpt><trkpt lat="45.7477548" lon="11.5846993"><ele>186.0</ele><time>2026-04-25T13:57:55.939Z</time></trkpt><trkpt lat="45.7478457" lon="11.5847059"><ele>186.0</ele><time>2026-04-25T13:57:58.959Z</time></trkpt><trkpt lat="45.7478731" lon="11.5848273"><ele>186.0</ele><time>2026-04-25T13:58:01.981Z</time></trkpt><trkpt lat="45.7478671" lon="11.5849531"><ele>186.0</ele><time>2026-04-25T13:58:04.913Z</time></trkpt><trkpt lat="45.7478595" lon="11.5850514"><ele>186.57142857142858</ele><time>2026-04-25T13:58:07.921Z</time></trkpt><trkpt lat="45.7478427" lon="11.5851544"><ele>187.14285714285714</ele><time>2026-04-25T13:58:10.941Z</time></trkpt><trkpt lat="45.7478219" lon="11.5852551"><ele>187.71428571428572</ele><time>2026-04-25T13:58:13.962Z</time></trkpt><trkpt lat="45.7478" lon="11.5853442"><ele>188.28571428571428</ele><time>2026-04-25T13:58:16.983Z</time></trkpt><trkpt lat="45.7477766" lon="11.5854539"><ele>188.85714285714286</ele><time>2026-04-25T13:58:20.913Z</time></trkpt><trkpt lat="45.7477588" lon="11.5855405"><ele>189.42857142857144</ele><time>2026-04-25T13:58:23.931Z</time></trkpt><trkpt lat="45.7477358" lon="11.5856544"><ele>190.0</ele><time>2026-04-25T13:58:27.959Z</time></trkpt><trkpt lat="45.7477121" lon="11.585743"><ele>188.57142857142858</ele><time>2026-04-25T13:58:30.98Z</time></trkpt><trkpt lat="45.74769" lon="11.5858366"><ele>187.14285714285717</ele><time>2026-04-25T13:58:33.913Z</time></trkpt><trkpt lat="45.7476707" lon="11.5859359"><ele>185.71428571428572</ele><time>2026-04-25T13:58:36.92Z</time></trkpt><trkpt lat="45.7476712" lon="11.5860414"><ele>184.28571428571428</ele><time>2026-04-25T13:58:39.941Z</time></trkpt><trkpt lat="45.7476685" lon="11.5861398"><ele>182.85714285714286</ele><time>2026-04-25T13:58:42.962Z</time></trkpt><trkpt lat="45.7476921" lon="11.5862297"><ele>181.42857142857142</ele><time>2026-04-25T13:58:45.984Z</time></trkpt><trkpt lat="45.7477487" lon="11.5863153"><ele>180.0</ele><time>2026-04-25T13:58:48.914Z</time></trkpt><trkpt lat="45.7478071" lon="11.5863645"><ele>178.66666666666666</ele><time>2026-04-25T13:58:50.917Z</time></trkpt><trkpt lat="45.7478724" lon="11.5864099"><ele>177.33333333333334</ele><time>2026-04-25T13:58:52.93Z</time></trkpt><trkpt lat="45.7479424" lon="11.5864394"><ele>176.0</ele><time>2026-04-25T13:58:54.944Z</time></trkpt><trkpt lat="45.7480141" lon="11.5864407"><ele>174.66666666666669</ele><time>2026-04-25T13:58:56.958Z</time></trkpt><trkpt lat="45.7481033" lon="11.5863975"><ele>173.33333333333334</ele><time>2026-04-25T13:58:59.979Z</time></trkpt><trkpt lat="45.7481703" lon="11.5863477"><ele>172.0</ele><time>2026-04-25T13:59:01.993Z</time></trkpt><trkpt lat="45.7482444" lon="11.5862887"><ele>172.0</ele><time>2026-04-25T13:59:03.913Z</time></trkpt><trkpt lat="45.7483241" lon="11.5862327"><ele>172.0</ele><time>2026-04-25T13:59:05.92Z</time></trkpt><trkpt lat="45.7483945" lon="11.5861948"><ele>172.0</ele><time>2026-04-25T13:59:07.913Z</time></trkpt><trkpt lat="45.748471" lon="11.5861478"><ele>172.0</ele><time>2026-04-25T13:59:09.913Z</time></trkpt><trkpt lat="45.7485502" lon="11.5861013"><ele>172.0</ele><time>2026-04-25T13:59:11.913Z</time></trkpt><trkpt lat="45.7486581" lon="11.5860546"><ele>172.0</ele><time>2026-04-25T13:59:13.975Z</time></trkpt><trkpt lat="45.7487465" lon="11.5860272"><ele>174.66666666666669</ele><time>2026-04-25T13:59:15.99Z</time></trkpt><trkpt lat="45.748828" lon="11.5859831"><ele>177.33333333333334</ele><time>2026-04-25T13:59:17.913Z</time></trkpt><trkpt lat="45.7489106" lon="11.585937"><ele>180.0</ele><time>2026-04-25T13:59:19.916Z</time></trkpt><trkpt lat="45.7489922" lon="11.5858829"><ele>182.66666666666666</ele><time>2026-04-25T13:59:21.931Z</time></trkpt><trkpt lat="45.7490666" lon="11.5858419"><ele>185.33333333333331</ele><time>2026-04-25T13:59:23.943Z</time></trkpt><trkpt lat="45.7491411" lon="11.585828"><ele>188.0</ele><time>2026-04-25T13:59:25.957Z</time></trkpt><trkpt lat="45.7492164" lon="11.5858456"><ele>188.0</ele><time>2026-04-25T13:59:27.971Z</time></trkpt><trkpt lat="45.7492878" lon="11.5858519"><ele>188.0</ele><time>2026-04-25T13:59:29.985Z</time></trkpt><trkpt lat="45.749363" lon="11.58585"><ele>188.0</ele><time>2026-04-25T13:59:31.914Z</time></trkpt><trkpt lat="45.7494442" lon="11.5858677"><ele>188.0</ele><time>2026-04-25T13:59:33.914Z</time></trkpt><trkpt lat="45.749526" lon="11.5858823"><ele>188.0</ele><time>2026-04-25T13:59:35.911Z</time></trkpt><trkpt lat="45.7496192" lon="11.5858917"><ele>188.0</ele><time>2026-04-25T13:59:37.94Z</time></trkpt><trkpt lat="45.7497023" lon="11.5858976"><ele>188.57142857142856</ele><time>2026-04-25T13:59:39.954Z</time></trkpt><trkpt lat="45.7497774" lon="11.5859016"><ele>189.14285714285714</ele><time>2026-04-25T13:59:41.967Z</time></trkpt><trkpt lat="45.7498517" lon="11.5859128"><ele>189.71428571428572</ele><time>2026-04-25T13:59:43.981Z</time></trkpt><trkpt lat="45.7499244" lon="11.5859517"><ele>190.28571428571428</ele><time>2026-04-25T13:59:45.995Z</time></trkpt><trkpt lat="45.7499901" lon="11.5859719"><ele>190.85714285714286</ele><time>2026-04-25T13:59:47.914Z</time></trkpt><trkpt lat="45.7500577" lon="11.5859615"><ele>191.42857142857142</ele><time>2026-04-25T13:59:49.922Z</time></trkpt><trkpt lat="45.7501206" lon="11.5859568"><ele>192.0</ele><time>2026-04-25T13:59:51.936Z</time></trkpt><trkpt lat="45.7501929" lon="11.5860278"><ele>191.66666666666666</ele><time>2026-04-25T13:59:53.951Z</time></trkpt><trkpt lat="45.7502501" lon="11.5861245"><ele>191.33333333333334</ele><time>2026-04-25T13:59:55.964Z</time></trkpt><trkpt lat="45.7502963" lon="11.5862097"><ele>191.0</ele><time>2026-04-25T13:59:57.914Z</time></trkpt><trkpt lat="45.7503286" lon="11.5863049"><ele>190.66666666666669</ele><time>2026-04-25T13:59:59.914Z</time></trkpt><trkpt lat="45.7503569" lon="11.5863877"><ele>190.33333333333334</ele><time>2026-04-25T14:00:01.914Z</time></trkpt><trkpt lat="45.7504053" lon="11.5864781"><ele>190.0</ele><time>2026-04-25T14:00:04.915Z</time></trkpt><trkpt lat="45.7504541" lon="11.5865958"><ele>190.0</ele><time>2026-04-25T14:00:07.914Z</time></trkpt><trkpt lat="45.7505315" lon="11.5866602"><ele>190.0</ele><time>2026-04-25T14:00:09.914Z</time></trkpt><trkpt lat="45.7506096" lon="11.5867114"><ele>190.0</ele><time>2026-04-25T14:00:11.914Z</time></trkpt><trkpt lat="45.7506906" lon="11.5867428"><ele>190.0</ele><time>2026-04-25T14:00:13.914Z</time></trkpt><trkpt lat="45.750767" lon="11.5867788"><ele>190.0</ele><time>2026-04-25T14:00:15.915Z</time></trkpt><trkpt lat="45.7508401" lon="11.5868193"><ele>190.0</ele><time>2026-04-25T14:00:17.914Z</time></trkpt><trkpt lat="45.7509184" lon="11.5868498"><ele>190.0</ele><time>2026-04-25T14:00:19.914Z</time></trkpt><trkpt lat="45.7509987" lon="11.5868836"><ele>190.0</ele><time>2026-04-25T14:00:21.914Z</time></trkpt><trkpt lat="45.7510757" lon="11.5869166"><ele>190.0</ele><time>2026-04-25T14:00:23.914Z</time></trkpt><trkpt lat="45.7511568" lon="11.5869611"><ele>190.0</ele><time>2026-04-25T14:00:25.914Z</time></trkpt><trkpt lat="45.7512354" lon="11.5869909"><ele>190.0</ele><time>2026-04-25T14:00:27.914Z</time></trkpt><trkpt lat="45.7513129" lon="11.587029"><ele>190.0</ele><time>2026-04-25T14:00:29.914Z</time></trkpt><trkpt lat="45.751405" lon="11.58707"><ele>189.5</ele><time>2026-04-25T14:00:32.914Z</time></trkpt><trkpt lat="45.7514683" lon="11.5871086"><ele>189.0</ele><time>2026-04-25T14:00:34.914Z</time></trkpt><trkpt lat="45.751563" lon="11.5871262"><ele>188.5</ele><time>2026-04-25T14:00:37.914Z</time></trkpt><trkpt lat="45.7516467" lon="11.5871233"><ele>188.0</ele><time>2026-04-25T14:00:40.915Z</time></trkpt><trkpt lat="45.7517379" lon="11.5871108"><ele>187.5</ele><time>2026-04-25T14:00:43.915Z</time></trkpt><trkpt lat="45.7518252" lon="11.5870903"><ele>187.0</ele><time>2026-04-25T14:00:46.915Z</time></trkpt><trkpt lat="45.7518875" lon="11.5870699"><ele>187.0</ele><time>2026-04-25T14:00:48.915Z</time></trkpt><trkpt lat="45.7519509" lon="11.5870317"><ele>187.0</ele><time>2026-04-25T14:00:50.915Z</time></trkpt><trkpt lat="45.752036" lon="11.5869655"><ele>187.0</ele><time>2026-04-25T14:00:53.915Z</time></trkpt><trkpt lat="45.7521041" lon="11.5869541"><ele>187.0</ele><time>2026-04-25T14:00:55.915Z</time></trkpt><trkpt lat="45.7521774" lon="11.5869431"><ele>187.0</ele><time>2026-04-25T14:00:57.915Z</time></trkpt><trkpt lat="45.7522474" lon="11.5869424"><ele>187.0</ele><time>2026-04-25T14:00:59.915Z</time></trkpt><trkpt lat="45.7523151" lon="11.5869423"><ele>187.0</ele><time>2026-04-25T14:01:01.916Z</time></trkpt><trkpt lat="45.7523885" lon="11.5869632"><ele>187.0</ele><time>2026-04-25T14:01:03.915Z</time></trkpt><trkpt lat="45.752463" lon="11.5870151"><ele>187.0</ele><time>2026-04-25T14:01:05.915Z</time></trkpt><trkpt lat="45.7525266" lon="11.587056"><ele>187.0</ele><time>2026-04-25T14:01:07.916Z</time></trkpt><trkpt lat="45.7525985" lon="11.5871131"><ele>187.0</ele><time>2026-04-25T14:01:09.915Z</time></trkpt><trkpt lat="45.7526743" lon="11.5871981"><ele>187.0</ele><time>2026-04-25T14:01:11.915Z</time></trkpt><trkpt lat="45.7527215" lon="11.5872809"><ele>187.0</ele><time>2026-04-25T14:01:13.915Z</time></trkpt><trkpt lat="45.7527707" lon="11.5873422"><ele>190.0</ele><time>2026-04-25T14:01:15.915Z</time></trkpt><trkpt lat="45.7528381" lon="11.5874105"><ele>193.0</ele><time>2026-04-25T14:01:17.926Z</time></trkpt><trkpt lat="45.7529013" lon="11.5874671"><ele>196.0</ele><time>2026-04-25T14:01:19.94Z</time></trkpt><trkpt lat="45.7529783" lon="11.5875141"><ele>199.0</ele><time>2026-04-25T14:01:21.954Z</time></trkpt><trkpt lat="45.7530571" lon="11.5875648"><ele>201.99999999999997</ele><time>2026-04-25T14:01:23.969Z</time></trkpt><trkpt lat="45.7531359" lon="11.587623"><ele>205.0</ele><time>2026-04-25T14:01:25.981Z</time></trkpt><trkpt lat="45.7532167" lon="11.5876785"><ele>204.99999999999997</ele><time>2026-04-25T14:01:27.915Z</time></trkpt><trkpt lat="45.7532945" lon="11.5877329"><ele>205.0</ele><time>2026-04-25T14:01:29.915Z</time></trkpt><trkpt lat="45.7533715" lon="11.5877878"><ele>205.0</ele><time>2026-04-25T14:01:31.922Z</time></trkpt><trkpt lat="45.753449" lon="11.5878459"><ele>205.0</ele><time>2026-04-25T14:01:33.936Z</time></trkpt><trkpt lat="45.7535242" lon="11.5878843"><ele>204.99999999999997</ele><time>2026-04-25T14:01:35.95Z</time></trkpt><trkpt lat="45.7535982" lon="11.5879134"><ele>205.0</ele><time>2026-04-25T14:01:37.963Z</time></trkpt><trkpt lat="45.7536751" lon="11.5879315"><ele>203.33333333333331</ele><time>2026-04-25T14:01:39.977Z</time></trkpt><trkpt lat="45.7537555" lon="11.5879283"><ele>201.66666666666666</ele><time>2026-04-25T14:01:41.915Z</time></trkpt><trkpt lat="45.7538353" lon="11.5879501"><ele>200.0</ele><time>2026-04-25T14:01:43.915Z</time></trkpt><trkpt lat="45.753911" lon="11.5880177"><ele>198.33333333333331</ele><time>2026-04-25T14:01:45.995Z</time></trkpt><trkpt lat="45.7539514" lon="11.5881232"><ele>196.66666666666666</ele><time>2026-04-25T14:01:47.932Z</time></trkpt><trkpt lat="45.7539724" lon="11.588238"><ele>195.0</ele><time>2026-04-25T14:01:49.945Z</time></trkpt><trkpt lat="45.7539942" lon="11.5883515"><ele>195.0</ele><time>2026-04-25T14:01:51.96Z</time></trkpt><trkpt lat="45.7540251" lon="11.5884589"><ele>195.0</ele><time>2026-04-25T14:01:53.973Z</time></trkpt><trkpt lat="45.754063" lon="11.5885683"><ele>195.0</ele><time>2026-04-25T14:01:55.987Z</time></trkpt><trkpt lat="45.7540976" lon="11.5886752"><ele>195.0</ele><time>2026-04-25T14:01:57.916Z</time></trkpt><trkpt lat="45.7541316" lon="11.5887837"><ele>195.0</ele><time>2026-04-25T14:01:59.916Z</time></trkpt><trkpt lat="45.754168" lon="11.5888897"><ele>195.0</ele><time>2026-04-25T14:02:01.927Z</time></trkpt><trkpt lat="45.754197" lon="11.5890019"><ele>195.16666666666666</ele><time>2026-04-25T14:02:03.941Z</time></trkpt><trkpt lat="45.7542197" lon="11.5891169"><ele>195.33333333333331</ele><time>2026-04-25T14:02:05.955Z</time></trkpt><trkpt lat="45.7542282" lon="11.5892279"><ele>195.5</ele><time>2026-04-25T14:02:07.968Z</time></trkpt><trkpt lat="45.754228" lon="11.5893321"><ele>195.66666666666666</ele><time>2026-04-25T14:02:09.982Z</time></trkpt><trkpt lat="45.7542239" lon="11.5894399"><ele>195.83333333333331</ele><time>2026-04-25T14:02:11.916Z</time></trkpt><trkpt lat="45.754249" lon="11.5895461"><ele>196.0</ele><time>2026-04-25T14:02:13.917Z</time></trkpt><trkpt lat="45.7542856" lon="11.5896449"><ele>196.16666666666666</ele><time>2026-04-25T14:02:15.923Z</time></trkpt><trkpt lat="45.7543349" lon="11.5897329"><ele>196.33333333333331</ele><time>2026-04-25T14:02:17.937Z</time></trkpt><trkpt lat="45.7543949" lon="11.5898143"><ele>196.5</ele><time>2026-04-25T14:02:19.95Z</time></trkpt><trkpt lat="45.7544643" lon="11.5898779"><ele>196.66666666666669</ele><time>2026-04-25T14:02:21.964Z</time></trkpt><trkpt lat="45.7545427" lon="11.5899324"><ele>196.83333333333334</ele><time>2026-04-25T14:02:23.978Z</time></trkpt><trkpt lat="45.7546242" lon="11.590001"><ele>197.0</ele><time>2026-04-25T14:02:25.916Z</time></trkpt><trkpt lat="45.7546809" lon="11.5900758"><ele>197.0</ele><time>2026-04-25T14:02:27.98Z</time></trkpt><trkpt lat="45.7547681" lon="11.5901551"><ele>197.0</ele><time>2026-04-25T14:02:29.916Z</time></trkpt><trkpt lat="45.7548274" lon="11.5902211"><ele>197.0</ele><time>2026-04-25T14:02:31.974Z</time></trkpt><trkpt lat="45.754907" lon="11.5902974"><ele>197.0</ele><time>2026-04-25T14:02:33.917Z</time></trkpt><trkpt lat="45.7549749" lon="11.5903845"><ele>197.0</ele><time>2026-04-25T14:02:35.916Z</time></trkpt><trkpt lat="45.7550424" lon="11.5904836"><ele>197.00000000000003</ele><time>2026-04-25T14:02:37.916Z</time></trkpt><trkpt lat="45.7551069" lon="11.5905781"><ele>197.0</ele><time>2026-04-25T14:02:39.928Z</time></trkpt><trkpt lat="45.755172" lon="11.590668"><ele>197.0</ele><time>2026-04-25T14:02:41.942Z</time></trkpt><trkpt lat="45.7552468" lon="11.5907307"><ele>197.0</ele><time>2026-04-25T14:02:43.956Z</time></trkpt><trkpt lat="45.7553265" lon="11.5907834"><ele>197.00000000000003</ele><time>2026-04-25T14:02:45.97Z</time></trkpt><trkpt lat="45.7553974" lon="11.590858"><ele>197.0</ele><time>2026-04-25T14:02:47.916Z</time></trkpt><trkpt lat="45.7554663" lon="11.5909327"><ele>197.16666666666669</ele><time>2026-04-25T14:02:49.916Z</time></trkpt><trkpt lat="45.7555321" lon="11.5910012"><ele>197.33333333333334</ele><time>2026-04-25T14:02:51.916Z</time></trkpt><trkpt lat="45.7555989" lon="11.591057"><ele>197.5</ele><time>2026-04-25T14:02:53.924Z</time></trkpt><trkpt lat="45.7556644" lon="11.5911057"><ele>197.66666666666669</ele><time>2026-04-25T14:02:55.938Z</time></trkpt><trkpt lat="45.7557281" lon="11.591161"><ele>197.83333333333334</ele><time>2026-04-25T14:02:57.951Z</time></trkpt><trkpt lat="45.7558031" lon="11.5912288"><ele>198.0</ele><time>2026-04-25T14:02:59.925Z</time></trkpt><trkpt lat="45.7558868" lon="11.5912839"><ele>198.0</ele><time>2026-04-25T14:03:01.979Z</time></trkpt><trkpt lat="45.7559711" lon="11.5912927"><ele>198.0</ele><time>2026-04-25T14:03:03.916Z</time></trkpt><trkpt lat="45.7560483" lon="11.5913097"><ele>198.0</ele><time>2026-04-25T14:03:05.916Z</time></trkpt><trkpt lat="45.7561213" lon="11.5913386"><ele>198.0</ele><time>2026-04-25T14:03:07.906Z</time></trkpt><trkpt lat="45.7561893" lon="11.5913721"><ele>198.0</ele><time>2026-04-25T14:03:09.933Z</time></trkpt><trkpt lat="45.7562513" lon="11.591406"><ele>198.0</ele><time>2026-04-25T14:03:11.947Z</time></trkpt><trkpt lat="45.7563295" lon="11.5914629"><ele>199.2857142857143</ele><time>2026-04-25T14:03:14.969Z</time></trkpt><trkpt lat="45.7564069" lon="11.5915077"><ele>200.57142857142856</ele><time>2026-04-25T14:03:17.989Z</time></trkpt><trkpt lat="45.7564556" lon="11.5915731"><ele>201.85714285714286</ele><time>2026-04-25T14:03:20.917Z</time></trkpt><trkpt lat="45.7565116" lon="11.5916525"><ele>203.14285714285717</ele><time>2026-04-25T14:03:23.929Z</time></trkpt><trkpt lat="45.7565614" lon="11.5917386"><ele>204.42857142857144</ele><time>2026-04-25T14:03:26.949Z</time></trkpt><trkpt lat="45.7566045" lon="11.5918193"><ele>205.71428571428572</ele><time>2026-04-25T14:03:29.97Z</time></trkpt><trkpt lat="45.7566384" lon="11.5919062"><ele>207.0</ele><time>2026-04-25T14:03:32.917Z</time></trkpt><trkpt lat="45.7566971" lon="11.5919765"><ele>207.16666666666666</ele><time>2026-04-25T14:03:35.917Z</time></trkpt><trkpt lat="45.7567608" lon="11.5920421"><ele>207.33333333333331</ele><time>2026-04-25T14:03:38.931Z</time></trkpt><trkpt lat="45.756826" lon="11.5921045"><ele>207.5</ele><time>2026-04-25T14:03:41.952Z</time></trkpt><trkpt lat="45.7568855" lon="11.5921529"><ele>207.66666666666666</ele><time>2026-04-25T14:03:44.973Z</time></trkpt><trkpt lat="45.7569627" lon="11.5921951"><ele>207.83333333333331</ele><time>2026-04-25T14:03:47.917Z</time></trkpt><trkpt lat="45.7570363" lon="11.5922488"><ele>208.0</ele><time>2026-04-25T14:03:50.917Z</time></trkpt><trkpt lat="45.757102" lon="11.5923124"><ele>208.0</ele><time>2026-04-25T14:03:53.934Z</time></trkpt><trkpt lat="45.7571747" lon="11.5923646"><ele>208.0</ele><time>2026-04-25T14:03:56.955Z</time></trkpt><trkpt lat="45.7572389" lon="11.5924151"><ele>208.0</ele><time>2026-04-25T14:03:59.975Z</time></trkpt><trkpt lat="45.7573087" lon="11.5924857"><ele>208.0</ele><time>2026-04-25T14:04:03.917Z</time></trkpt><trkpt lat="45.7573739" lon="11.5925287"><ele>208.0</ele><time>2026-04-25T14:04:06.923Z</time></trkpt><trkpt lat="45.7574378" lon="11.5925514"><ele>208.0</ele><time>2026-04-25T14:04:09.943Z</time></trkpt><trkpt lat="45.7575002" lon="11.592576"><ele>208.0</ele><time>2026-04-25T14:04:12.965Z</time></trkpt><trkpt lat="45.7575693" lon="11.5926031"><ele>208.0</ele><time>2026-04-25T14:04:16.917Z</time></trkpt><trkpt lat="45.7576399" lon="11.5926138"><ele>208.0</ele><time>2026-04-25T14:04:20.919Z</time></trkpt><trkpt lat="45.7577156" lon="11.5925941"><ele>208.0</ele><time>2026-04-25T14:04:24.947Z</time></trkpt><trkpt lat="45.757777" lon="11.5925386"><ele>208.0</ele><time>2026-04-25T14:04:27.967Z</time></trkpt><trkpt lat="45.7578266" lon="11.5924793"><ele>208.0</ele><time>2026-04-25T14:04:30.988Z</time></trkpt><trkpt lat="45.7579028" lon="11.5924572"><ele>208.0</ele><time>2026-04-25T14:04:33.918Z</time></trkpt><trkpt lat="45.7579737" lon="11.592443"><ele>208.0</ele><time>2026-04-25T14:04:36.928Z</time></trkpt><trkpt lat="45.7580474" lon="11.5924434"><ele>208.7142857142857</ele><time>2026-04-25T14:04:39.949Z</time></trkpt><trkpt lat="45.7581236" lon="11.5924472"><ele>209.42857142857144</ele><time>2026-04-25T14:04:42.97Z</time></trkpt><trkpt lat="45.7581903" lon="11.5924669"><ele>210.14285714285714</ele><time>2026-04-25T14:04:45.918Z</time></trkpt><trkpt lat="45.7582576" lon="11.5924762"><ele>210.85714285714283</ele><time>2026-04-25T14:04:48.918Z</time></trkpt><trkpt lat="45.7583347" lon="11.5924957"><ele>211.57142857142856</ele><time>2026-04-25T14:04:52.938Z</time></trkpt><trkpt lat="45.758406" lon="11.5925292"><ele>212.28571428571428</ele><time>2026-04-25T14:04:56.965Z</time></trkpt><trkpt lat="45.758483" lon="11.5925617"><ele>213.0</ele><time>2026-04-25T14:05:00.918Z</time></trkpt><trkpt lat="45.7585466" lon="11.5925841"><ele>213.85714285714283</ele><time>2026-04-25T14:05:03.918Z</time></trkpt><trkpt lat="45.7586117" lon="11.5926032"><ele>214.71428571428572</ele><time>2026-04-25T14:05:06.934Z</time></trkpt><trkpt lat="45.7586787" lon="11.5926209"><ele>215.57142857142856</ele><time>2026-04-25T14:05:09.954Z</time></trkpt><trkpt lat="45.75875" lon="11.592631"><ele>216.42857142857142</ele><time>2026-04-25T14:05:12.975Z</time></trkpt><trkpt lat="45.7588201" lon="11.5926507"><ele>217.28571428571428</ele><time>2026-04-25T14:05:15.918Z</time></trkpt><trkpt lat="45.7588876" lon="11.5926809"><ele>218.14285714285714</ele><time>2026-04-25T14:05:18.918Z</time></trkpt><trkpt lat="45.7589555" lon="11.5927089"><ele>219.0</ele><time>2026-04-25T14:05:21.937Z</time></trkpt><trkpt lat="45.7590216" lon="11.5927179"><ele>219.0</ele><time>2026-04-25T14:05:24.957Z</time></trkpt><trkpt lat="45.7590911" lon="11.5927253"><ele>219.0</ele><time>2026-04-25T14:05:27.919Z</time></trkpt><trkpt lat="45.7591607" lon="11.5927249"><ele>219.0</ele><time>2026-04-25T14:05:30.918Z</time></trkpt><trkpt lat="45.7592296" lon="11.5927189"><ele>219.0</ele><time>2026-04-25T14:05:33.919Z</time></trkpt><trkpt lat="45.7593053" lon="11.5926853"><ele>219.0</ele><time>2026-04-25T14:05:36.94Z</time></trkpt><trkpt lat="45.7593894" lon="11.5926496"><ele>219.0</ele><time>2026-04-25T14:05:39.928Z</time></trkpt><trkpt lat="45.7594684" lon="11.5926064"><ele>219.66666666666666</ele><time>2026-04-25T14:05:42.981Z</time></trkpt><trkpt lat="45.7595371" lon="11.5925833"><ele>220.33333333333331</ele><time>2026-04-25T14:05:45.919Z</time></trkpt><trkpt lat="45.759609" lon="11.5925519"><ele>221.0</ele><time>2026-04-25T14:05:48.922Z</time></trkpt><trkpt lat="45.7596859" lon="11.5925284"><ele>221.66666666666666</ele><time>2026-04-25T14:05:51.943Z</time></trkpt><trkpt lat="45.7597553" lon="11.5925193"><ele>222.33333333333331</ele><time>2026-04-25T14:05:54.964Z</time></trkpt><trkpt lat="45.7598408" lon="11.592529"><ele>223.0</ele><time>2026-04-25T14:05:58.919Z</time></trkpt><trkpt lat="45.7599196" lon="11.5925376"><ele>222.99999999999997</ele><time>2026-04-25T14:06:01.919Z</time></trkpt><trkpt lat="45.7600024" lon="11.5925436"><ele>223.0</ele><time>2026-04-25T14:06:04.933Z</time></trkpt><trkpt lat="45.7600758" lon="11.5925246"><ele>223.0</ele><time>2026-04-25T14:06:07.953Z</time></trkpt><trkpt lat="45.7601479" lon="11.5925116"><ele>223.0</ele><time>2026-04-25T14:06:10.974Z</time></trkpt><trkpt lat="45.7602279" lon="11.5925327"><ele>222.99999999999997</ele><time>2026-04-25T14:06:13.919Z</time></trkpt><trkpt lat="45.7603008" lon="11.5925807"><ele>223.0</ele><time>2026-04-25T14:06:16.919Z</time></trkpt><trkpt lat="45.7603716" lon="11.5926344"><ele>224.14285714285714</ele><time>2026-04-25T14:06:20.943Z</time></trkpt><trkpt lat="45.7604366" lon="11.5926533"><ele>225.28571428571428</ele><time>2026-04-25T14:06:23.965Z</time></trkpt><trkpt lat="45.7604993" lon="11.5926728"><ele>226.42857142857144</ele><time>2026-04-25T14:06:26.984Z</time></trkpt><trkpt lat="45.7605834" lon="11.592701"><ele>227.57142857142856</ele><time>2026-04-25T14:06:29.919Z</time></trkpt><trkpt lat="45.7606476" lon="11.5927189"><ele>228.71428571428572</ele><time>2026-04-25T14:06:31.919Z</time></trkpt><trkpt lat="45.7607104" lon="11.5927411"><ele>229.85714285714286</ele><time>2026-04-25T14:06:33.932Z</time></trkpt><trkpt lat="45.7607855" lon="11.5927527"><ele>231.0</ele><time>2026-04-25T14:06:35.946Z</time></trkpt><trkpt lat="45.7608645" lon="11.5927601"><ele>231.0</ele><time>2026-04-25T14:06:37.96Z</time></trkpt><trkpt lat="45.760951" lon="11.5927756"><ele>231.00000000000003</ele><time>2026-04-25T14:06:39.974Z</time></trkpt><trkpt lat="45.7610672" lon="11.5927935"><ele>231.00000000000003</ele><time>2026-04-25T14:06:41.919Z</time></trkpt><trkpt lat="45.7611701" lon="11.5928255"><ele>231.0</ele><time>2026-04-25T14:06:43.919Z</time></trkpt><trkpt lat="45.7612683" lon="11.5929071"><ele>231.0</ele><time>2026-04-25T14:06:45.919Z</time></trkpt><trkpt lat="45.7613615" lon="11.5930132"><ele>227.8</ele><time>2026-04-25T14:06:47.919Z</time></trkpt><trkpt lat="45.7614479" lon="11.5931218"><ele>224.60000000000002</ele><time>2026-04-25T14:06:49.919Z</time></trkpt><trkpt lat="45.7615404" lon="11.5932213"><ele>221.4</ele><time>2026-04-25T14:06:51.92Z</time></trkpt><trkpt lat="45.7616292" lon="11.5932865"><ele>218.2</ele><time>2026-04-25T14:06:53.919Z</time></trkpt><trkpt lat="45.7616951" lon="11.5933138"><ele>215.0</ele><time>2026-04-25T14:06:54.919Z</time></trkpt><trkpt lat="45.7617585" lon="11.5933291"><ele>215.2</ele><time>2026-04-25T14:06:55.919Z</time></trkpt><trkpt lat="45.7618764" lon="11.5933369"><ele>215.4</ele><time>2026-04-25T14:06:57.92Z</time></trkpt><trkpt lat="45.7619791" lon="11.5933141"><ele>215.60000000000002</ele><time>2026-04-25T14:06:59.919Z</time></trkpt><trkpt lat="45.762068" lon="11.5932707"><ele>215.8</ele><time>2026-04-25T14:07:01.919Z</time></trkpt><trkpt lat="45.7621363" lon="11.59324"><ele>216.0</ele><time>2026-04-25T14:07:03.919Z</time></trkpt><trkpt lat="45.7621947" lon="11.5931931"><ele>216.0</ele><time>2026-04-25T14:07:05.92Z</time></trkpt><trkpt lat="45.7622721" lon="11.5931401"><ele>216.0</ele><time>2026-04-25T14:07:08.92Z</time></trkpt><trkpt lat="45.7623272" lon="11.593092"><ele>216.0</ele><time>2026-04-25T14:07:10.92Z</time></trkpt><trkpt lat="45.7623867" lon="11.5930536"><ele>216.0</ele><time>2026-04-25T14:07:12.92Z</time></trkpt><trkpt lat="45.7624645" lon="11.5929869"><ele>216.0</ele><time>2026-04-25T14:07:15.92Z</time></trkpt><trkpt lat="45.7625384" lon="11.5929268"><ele>216.0</ele><time>2026-04-25T14:07:18.92Z</time></trkpt><trkpt lat="45.7626143" lon="11.5928571"><ele>216.71428571428572</ele><time>2026-04-25T14:07:21.92Z</time></trkpt><trkpt lat="45.762689" lon="11.5927805"><ele>217.42857142857142</ele><time>2026-04-25T14:07:24.92Z</time></trkpt><trkpt lat="45.7627439" lon="11.5927244"><ele>218.14285714285717</ele><time>2026-04-25T14:07:26.921Z</time></trkpt><trkpt lat="45.7627987" lon="11.5926713"><ele>218.85714285714286</ele><time>2026-04-25T14:07:28.921Z</time></trkpt><trkpt lat="45.7628546" lon="11.5926209"><ele>219.57142857142858</ele><time>2026-04-25T14:07:30.92Z</time></trkpt><trkpt lat="45.7629211" lon="11.5925758"><ele>220.2857142857143</ele><time>2026-04-25T14:07:32.92Z</time></trkpt><trkpt lat="45.7629929" lon="11.5925332"><ele>221.0</ele><time>2026-04-25T14:07:34.92Z</time></trkpt><trkpt lat="45.7630627" lon="11.5925007"><ele>221.00000000000003</ele><time>2026-04-25T14:07:36.92Z</time></trkpt><trkpt lat="45.7631264" lon="11.5924806"><ele>221.0</ele><time>2026-04-25T14:07:38.92Z</time></trkpt><trkpt lat="45.7632114" lon="11.5924496"><ele>221.0</ele><time>2026-04-25T14:07:41.92Z</time></trkpt><trkpt lat="45.7632912" lon="11.5924314"><ele>221.0</ele><time>2026-04-25T14:07:44.921Z</time></trkpt><trkpt lat="45.763354" lon="11.5924149"><ele>221.0</ele><time>2026-04-25T14:07:46.92Z</time></trkpt><trkpt lat="45.7634283" lon="11.5924051"><ele>221.00000000000003</ele><time>2026-04-25T14:07:48.92Z</time></trkpt><trkpt lat="45.7634913" lon="11.5923969"><ele>221.0</ele><time>2026-04-25T14:07:50.92Z</time></trkpt><trkpt lat="45.7635795" lon="11.5923832"><ele>221.16666666666669</ele><time>2026-04-25T14:07:53.92Z</time></trkpt><trkpt lat="45.7636421" lon="11.592371"><ele>221.33333333333334</ele><time>2026-04-25T14:07:55.92Z</time></trkpt><trkpt lat="45.7637066" lon="11.592361"><ele>221.5</ele><time>2026-04-25T14:07:57.92Z</time></trkpt><trkpt lat="45.7637732" lon="11.5923401"><ele>221.66666666666669</ele><time>2026-04-25T14:07:59.92Z</time></trkpt><trkpt lat="45.7638678" lon="11.5923565"><ele>221.83333333333334</ele><time>2026-04-25T14:08:02.92Z</time></trkpt><trkpt lat="45.7639512" lon="11.5923364"><ele>222.0</ele><time>2026-04-25T14:08:05.92Z</time></trkpt><trkpt lat="45.7638643" lon="11.5923538"><ele>222.0</ele><time>2026-04-25T14:08:09.92Z</time></trkpt><trkpt lat="45.7637912" lon="11.5923924"><ele>222.0</ele><time>2026-04-25T14:08:12.92Z</time></trkpt><trkpt lat="45.7637201" lon="11.5924384"><ele>222.0</ele><time>2026-04-25T14:08:15.92Z</time></trkpt><trkpt lat="45.763699" lon="11.5925467"><ele>222.0</ele><time>2026-04-25T14:08:17.92Z</time></trkpt><trkpt lat="45.7637336" lon="11.5926843"><ele>222.0</ele><time>2026-04-25T14:08:19.921Z</time></trkpt><trkpt lat="45.7637914" lon="11.5928434"><ele>221.8</ele><time>2026-04-25T14:08:21.92Z</time></trkpt><trkpt lat="45.7638257" lon="11.5929243"><ele>221.6</ele><time>2026-04-25T14:08:22.92Z</time></trkpt><trkpt lat="45.7638718" lon="11.5930702"><ele>221.40000000000003</ele><time>2026-04-25T14:08:24.921Z</time></trkpt><trkpt lat="45.7638642" lon="11.593194"><ele>221.20000000000002</ele><time>2026-04-25T14:08:26.921Z</time></trkpt><trkpt lat="45.7638224" lon="11.5933155"><ele>221.0</ele><time>2026-04-25T14:08:28.921Z</time></trkpt><trkpt lat="45.7637644" lon="11.5934294"><ele>221.00000000000003</ele><time>2026-04-25T14:08:30.921Z</time></trkpt><trkpt lat="45.7637269" lon="11.5935326"><ele>221.0</ele><time>2026-04-25T14:08:32.921Z</time></trkpt><trkpt lat="45.7637064" lon="11.5936231"><ele>221.0</ele><time>2026-04-25T14:08:34.921Z</time></trkpt><trkpt lat="45.7636935" lon="11.5937256"><ele>221.0</ele><time>2026-04-25T14:08:37.921Z</time></trkpt><trkpt lat="45.7636943" lon="11.5938337"><ele>221.0</ele><time>2026-04-25T14:08:41.921Z</time></trkpt><trkpt lat="45.7637167" lon="11.5939372"><ele>221.00000000000003</ele><time>2026-04-25T14:08:46.921Z</time></trkpt><trkpt lat="45.7637656" lon="11.5940244"><ele>221.0</ele><time>2026-04-25T14:08:51.921Z</time></trkpt><trkpt lat="45.7638266" lon="11.594083"><ele>222.0</ele><time>2026-04-25T14:08:57.921Z</time></trkpt><trkpt lat="45.7638761" lon="11.5941534"><ele>223.0</ele><time>2026-04-25T14:09:02.921Z</time></trkpt><trkpt lat="45.763928" lon="11.5942086"><ele>224.0</ele><time>2026-04-25T14:09:07.921Z</time></trkpt><trkpt lat="45.7639655" lon="11.5942901"><ele>225.0</ele><time>2026-04-25T14:09:12.921Z</time></trkpt><trkpt lat="45.7639663" lon="11.594382"><ele>225.99999999999997</ele><time>2026-04-25T14:09:17.921Z</time></trkpt><trkpt lat="45.7639609" lon="11.5944723"><ele>227.0</ele><time>2026-04-25T14:09:22.921Z</time></trkpt><trkpt lat="45.76396" lon="11.594578"><ele>228.0</ele><time>2026-04-25T14:09:28.921Z</time></trkpt><trkpt lat="45.7639616" lon="11.594681"><ele>229.0</ele><time>2026-04-25T14:09:34.921Z</time></trkpt><trkpt lat="45.7639721" lon="11.5947746"><ele>229.99999999999997</ele><time>2026-04-25T14:09:39.921Z</time></trkpt><trkpt lat="45.7639503" lon="11.5948678"><ele>231.0</ele><time>2026-04-25T14:09:44.923Z</time></trkpt><trkpt lat="45.7638941" lon="11.594923"><ele>232.0</ele><time>2026-04-25T14:09:49.922Z</time></trkpt><trkpt lat="45.7638432" lon="11.5949877"><ele>232.99999999999997</ele><time>2026-04-25T14:09:54.922Z</time></trkpt><trkpt lat="45.7637974" lon="11.5950761"><ele>234.0</ele><time>2026-04-25T14:10:00.922Z</time></trkpt><trkpt lat="45.7637662" lon="11.5951596"><ele>235.0</ele><time>2026-04-25T14:10:06.922Z</time></trkpt><trkpt lat="45.7637076" lon="11.5952024"><ele>235.0</ele><time>2026-04-25T14:10:12.923Z</time></trkpt><trkpt lat="45.7636718" lon="11.5952885"><ele>234.99999999999997</ele><time>2026-04-25T14:10:18.922Z</time></trkpt><trkpt lat="45.7636128" lon="11.5953249"><ele>235.0</ele><time>2026-04-25T14:10:24.922Z</time></trkpt><trkpt lat="45.763544" lon="11.595316"><ele>235.0</ele><time>2026-04-25T14:10:30.923Z</time></trkpt><trkpt lat="45.7634973" lon="11.5952345"><ele>234.99999999999997</ele><time>2026-04-25T14:10:36.922Z</time></trkpt><trkpt lat="45.7634395" lon="11.5951969"><ele>235.0</ele><time>2026-04-25T14:10:41.922Z</time></trkpt><trkpt lat="45.7633697" lon="11.5951885"><ele>235.0</ele><time>2026-04-25T14:10:48.922Z</time></trkpt><trkpt lat="45.7633112" lon="11.5952557"><ele>235.57142857142856</ele><time>2026-04-25T14:10:53.922Z</time></trkpt><trkpt lat="45.7632554" lon="11.5953188"><ele>236.1428571428571</ele><time>2026-04-25T14:10:59.923Z</time></trkpt><trkpt lat="45.7631911" lon="11.5953655"><ele>236.71428571428572</ele><time>2026-04-25T14:11:05.923Z</time></trkpt><trkpt lat="45.7631364" lon="11.5954104"><ele>237.28571428571428</ele><time>2026-04-25T14:11:09.923Z</time></trkpt><trkpt lat="45.7630645" lon="11.595451"><ele>237.85714285714286</ele><time>2026-04-25T14:11:14.923Z</time></trkpt><trkpt lat="45.7630042" lon="11.5954814"><ele>238.42857142857144</ele><time>2026-04-25T14:11:20.923Z</time></trkpt><trkpt lat="45.7629334" lon="11.5954994"><ele>239.00000000000003</ele><time>2026-04-25T14:11:27.923Z</time></trkpt><trkpt lat="45.7628703" lon="11.5955291"><ele>241.5714285714286</ele><time>2026-04-25T14:11:32.923Z</time></trkpt><trkpt lat="45.7628042" lon="11.5955342"><ele>244.14285714285717</ele><time>2026-04-25T14:11:39.923Z</time></trkpt><trkpt lat="45.762732" lon="11.595529"><ele>246.71428571428572</ele><time>2026-04-25T14:11:46.923Z</time></trkpt><trkpt lat="45.7626604" lon="11.595522"><ele>249.2857142857143</ele><time>2026-04-25T14:11:52.924Z</time></trkpt><trkpt lat="45.7625938" lon="11.5955353"><ele>251.8571428571429</ele><time>2026-04-25T14:11:57.923Z</time></trkpt><trkpt lat="45.7625244" lon="11.5955374"><ele>254.42857142857142</ele><time>2026-04-25T14:12:02.924Z</time></trkpt><trkpt lat="45.7624609" lon="11.5955165"><ele>257.0</ele><time>2026-04-25T14:12:08.923Z</time></trkpt><trkpt lat="45.7623973" lon="11.5954985"><ele>258.57142857142856</ele><time>2026-04-25T14:12:14.923Z</time></trkpt><trkpt lat="45.7623352" lon="11.5954815"><ele>260.14285714285717</ele><time>2026-04-25T14:12:18.925Z</time></trkpt><trkpt lat="45.7622678" lon="11.5954583"><ele>261.7142857142857</ele><time>2026-04-25T14:12:24.924Z</time></trkpt><trkpt lat="45.7621931" lon="11.5954754"><ele>263.2857142857143</ele><time>2026-04-25T14:12:30.924Z</time></trkpt><trkpt lat="45.7621327" lon="11.5955088"><ele>264.85714285714283</ele><time>2026-04-25T14:12:36.924Z</time></trkpt><trkpt lat="45.7620772" lon="11.5955858"><ele>266.42857142857144</ele><time>2026-04-25T14:12:43.924Z</time></trkpt><trkpt lat="45.7620324" lon="11.5956706"><ele>268.0</ele><time>2026-04-25T14:12:48.924Z</time></trkpt><trkpt lat="45.7619993" lon="11.595768"><ele>268.0</ele><time>2026-04-25T14:12:53.925Z</time></trkpt><trkpt lat="45.7619697" lon="11.5958521"><ele>268.0</ele><time>2026-04-25T14:12:57.924Z</time></trkpt><trkpt lat="45.7619552" lon="11.5959403"><ele>268.0</ele><time>2026-04-25T14:13:01.924Z</time></trkpt><trkpt lat="45.7619841" lon="11.5960351"><ele>268.0</ele><time>2026-04-25T14:13:06.924Z</time></trkpt><trkpt lat="45.7620341" lon="11.5961017"><ele>268.0</ele><time>2026-04-25T14:13:11.924Z</time></trkpt><trkpt lat="45.7620903" lon="11.5961732"><ele>268.0</ele><time>2026-04-25T14:13:17.925Z</time></trkpt><trkpt lat="45.762144" lon="11.5962333"><ele>268.0</ele><time>2026-04-25T14:13:22.924Z</time></trkpt><trkpt lat="45.7621847" lon="11.5963114"><ele>270.42857142857144</ele><time>2026-04-25T14:13:28.925Z</time></trkpt><trkpt lat="45.762219" lon="11.5963877"><ele>272.85714285714283</ele><time>2026-04-25T14:13:34.925Z</time></trkpt><trkpt lat="45.762274" lon="11.5964396"><ele>275.2857142857143</ele><time>2026-04-25T14:13:39.925Z</time></trkpt><trkpt lat="45.7623359" lon="11.5965034"><ele>277.7142857142857</ele><time>2026-04-25T14:13:45.925Z</time></trkpt><trkpt lat="45.7623952" lon="11.5965681"><ele>280.14285714285717</ele><time>2026-04-25T14:13:50.925Z</time></trkpt><trkpt lat="45.7624637" lon="11.5965919"><ele>282.57142857142856</ele><time>2026-04-25T14:13:55.925Z</time></trkpt><trkpt lat="45.7625299" lon="11.596548"><ele>285.0</ele><time>2026-04-25T14:14:01.925Z</time></trkpt><trkpt lat="45.7625999" lon="11.5965709"><ele>285.0</ele><time>2026-04-25T14:14:06.926Z</time></trkpt><trkpt lat="45.7625841" lon="11.5966634"><ele>285.0</ele><time>2026-04-25T14:14:12.927Z</time></trkpt><trkpt lat="45.762528" lon="11.5967293"><ele>285.0</ele><time>2026-04-25T14:14:18.925Z</time></trkpt><trkpt lat="45.7624599" lon="11.5967283"><ele>285.0</ele><time>2026-04-25T14:14:23.925Z</time></trkpt><trkpt lat="45.7623942" lon="11.5967269"><ele>285.0</ele><time>2026-04-25T14:14:29.925Z</time></trkpt><trkpt lat="45.7623313" lon="11.5967699"><ele>285.0</ele><time>2026-04-25T14:14:36.925Z</time></trkpt><trkpt lat="45.7622616" lon="11.5967979"><ele>285.0</ele><time>2026-04-25T14:14:43.948Z</time></trkpt><trkpt lat="45.7621909" lon="11.5968293"><ele>285.0</ele><time>2026-04-25T14:14:50.925Z</time></trkpt><trkpt lat="45.7621383" lon="11.5968977"><ele>285.0</ele><time>2026-04-25T14:14:56.939Z</time></trkpt><trkpt lat="45.7621369" lon="11.5970033"><ele>285.0</ele><time>2026-04-25T14:15:02.981Z</time></trkpt><trkpt lat="45.7621939" lon="11.5970444"><ele>285.0</ele><time>2026-04-25T14:15:07.926Z</time></trkpt><trkpt lat="45.7622522" lon="11.5970067"><ele>285.0</ele><time>2026-04-25T14:15:12.95Z</time></trkpt><trkpt lat="45.7623188" lon="11.5970139"><ele>285.0</ele><time>2026-04-25T14:15:17.985Z</time></trkpt><trkpt lat="45.7623879" lon="11.597049"><ele>285.0</ele><time>2026-04-25T14:15:24.933Z</time></trkpt><trkpt lat="45.7624514" lon="11.5970662"><ele>285.85714285714283</ele><time>2026-04-25T14:15:29.968Z</time></trkpt><trkpt lat="45.7625253" lon="11.5970739"><ele>286.7142857142857</ele><time>2026-04-25T14:15:33.926Z</time></trkpt><trkpt lat="45.7625951" lon="11.5970798"><ele>287.57142857142856</ele><time>2026-04-25T14:15:37.926Z</time></trkpt><trkpt lat="45.7626626" lon="11.5971175"><ele>288.42857142857144</ele><time>2026-04-25T14:15:42.959Z</time></trkpt><trkpt lat="45.7627319" lon="11.5970873"><ele>289.2857142857143</ele><time>2026-04-25T14:15:48.926Z</time></trkpt><trkpt lat="45.762803" lon="11.597097"><ele>290.1428571428571</ele><time>2026-04-25T14:15:54.942Z</time></trkpt><trkpt lat="45.7628722" lon="11.5970834"><ele>291.0</ele><time>2026-04-25T14:15:59.977Z</time></trkpt><trkpt lat="45.762924" lon="11.5971379"><ele>291.0</ele><time>2026-04-25T14:16:04.926Z</time></trkpt><trkpt lat="45.7629475" lon="11.59723"><ele>291.0</ele><time>2026-04-25T14:16:10.954Z</time></trkpt><trkpt lat="45.7629451" lon="11.5973203"><ele>291.0</ele><time>2026-04-25T14:16:16.856Z</time></trkpt><trkpt lat="45.7629171" lon="11.5974064"><ele>291.0</ele><time>2026-04-25T14:16:21.927Z</time></trkpt><trkpt lat="45.7629199" lon="11.597498"><ele>291.0</ele><time>2026-04-25T14:16:27.927Z</time></trkpt><trkpt lat="45.7628633" lon="11.5975623"><ele>291.0</ele><time>2026-04-25T14:16:34.927Z</time></trkpt><trkpt lat="45.7627973" lon="11.5976185"><ele>291.0</ele><time>2026-04-25T14:16:39.927Z</time></trkpt><trkpt lat="45.7627306" lon="11.5976198"><ele>293.0</ele><time>2026-04-25T14:16:46.927Z</time></trkpt><trkpt lat="45.7626559" lon="11.5976445"><ele>295.0</ele><time>2026-04-25T14:16:52.927Z</time></trkpt><trkpt lat="45.7625929" lon="11.5976807"><ele>297.0</ele><time>2026-04-25T14:16:58.927Z</time></trkpt><trkpt lat="45.7625358" lon="11.5977315"><ele>299.0</ele><time>2026-04-25T14:17:08.927Z</time></trkpt><trkpt lat="45.7624721" lon="11.5977665"><ele>301.0</ele><time>2026-04-25T14:17:15.927Z</time></trkpt><trkpt lat="45.7623942" lon="11.5977948"><ele>303.0</ele><time>2026-04-25T14:17:20.927Z</time></trkpt><trkpt lat="45.7623439" lon="11.5978532"><ele>305.0</ele><time>2026-04-25T14:17:25.927Z</time></trkpt><trkpt lat="45.7622855" lon="11.5978905"><ele>307.8571428571429</ele><time>2026-04-25T14:17:30.928Z</time></trkpt><trkpt lat="45.7622204" lon="11.5979362"><ele>310.71428571428567</ele><time>2026-04-25T14:17:35.928Z</time></trkpt><trkpt lat="45.7621795" lon="11.5980154"><ele>313.57142857142856</ele><time>2026-04-25T14:17:41.928Z</time></trkpt><trkpt lat="45.7621247" lon="11.5980733"><ele>316.42857142857144</ele><time>2026-04-25T14:17:48.928Z</time></trkpt><trkpt lat="45.7620758" lon="11.5981504"><ele>319.28571428571433</ele><time>2026-04-25T14:17:55.928Z</time></trkpt><trkpt lat="45.762046" lon="11.5982458"><ele>322.1428571428571</ele><time>2026-04-25T14:18:00.928Z</time></trkpt><trkpt lat="45.7619994" lon="11.5983203"><ele>325.0</ele><time>2026-04-25T14:18:05.929Z</time></trkpt><trkpt lat="45.7619659" lon="11.5984173"><ele>325.0</ele><time>2026-04-25T14:18:13.928Z</time></trkpt><trkpt lat="45.7619507" lon="11.5985188"><ele>325.0</ele><time>2026-04-25T14:18:19.928Z</time></trkpt><trkpt lat="45.7619668" lon="11.5986071"><ele>325.0</ele><time>2026-04-25T14:18:24.928Z</time></trkpt><trkpt lat="45.7620137" lon="11.5986815"><ele>325.0</ele><time>2026-04-25T14:18:31.928Z</time></trkpt><trkpt lat="45.7620867" lon="11.5986522"><ele>325.0</ele><time>2026-04-25T14:18:41.928Z</time></trkpt><trkpt lat="45.7621537" lon="11.598636"><ele>325.0</ele><time>2026-04-25T14:18:45.929Z</time></trkpt><trkpt lat="45.7622284" lon="11.598661"><ele>325.0</ele><time>2026-04-25T14:18:49.929Z</time></trkpt><trkpt lat="45.7622932" lon="11.5986779"><ele>325.6</ele><time>2026-04-25T14:18:52.929Z</time></trkpt><trkpt lat="45.7623721" lon="11.5987407"><ele>326.2</ele><time>2026-04-25T14:18:55.929Z</time></trkpt><trkpt lat="45.7624507" lon="11.5987951"><ele>326.79999999999995</ele><time>2026-04-25T14:18:57.93Z</time></trkpt><trkpt lat="45.7625339" lon="11.5988844"><ele>327.4</ele><time>2026-04-25T14:18:59.929Z</time></trkpt><trkpt lat="45.7626053" lon="11.5989862"><ele>328.0</ele><time>2026-04-25T14:19:01.929Z</time></trkpt><trkpt lat="45.7627014" lon="11.5990369"><ele>328.0</ele><time>2026-04-25T14:19:03.929Z</time></trkpt><trkpt lat="45.7627834" lon="11.5990054"><ele>328.0</ele><time>2026-04-25T14:19:05.929Z</time></trkpt><trkpt lat="45.762853" lon="11.5989756"><ele>328.0</ele><time>2026-04-25T14:19:10.929Z</time></trkpt><trkpt lat="45.7629285" lon="11.598999"><ele>328.0</ele><time>2026-04-25T14:19:16.93Z</time></trkpt><trkpt lat="45.7629835" lon="11.5990595"><ele>328.0</ele><time>2026-04-25T14:19:20.929Z</time></trkpt><trkpt lat="45.7630439" lon="11.5991189"><ele>328.0</ele><time>2026-04-25T14:19:24.93Z</time></trkpt><trkpt lat="45.7630821" lon="11.5992148"><ele>327.99999999999994</ele><time>2026-04-25T14:19:29.929Z</time></trkpt><trkpt lat="45.7631178" lon="11.5993124"><ele>328.0</ele><time>2026-04-25T14:19:33.929Z</time></trkpt><trkpt lat="45.7631667" lon="11.5994089"><ele>328.0</ele><time>2026-04-25T14:19:37.93Z</time></trkpt><trkpt lat="45.7631569" lon="11.599514"><ele>328.0</ele><time>2026-04-25T14:19:42.929Z</time></trkpt><trkpt lat="45.7631598" lon="11.5996093"><ele>328.0</ele><time>2026-04-25T14:19:47.929Z</time></trkpt><trkpt lat="45.7630923" lon="11.5996195"><ele>327.99999999999994</ele><time>2026-04-25T14:19:51.929Z</time></trkpt><trkpt lat="45.7630246" lon="11.5995911"><ele>328.0</ele><time>2026-04-25T14:19:55.929Z</time></trkpt><trkpt lat="45.7629609" lon="11.5995662"><ele>329.1428571428571</ele><time>2026-04-25T14:19:59.93Z</time></trkpt><trkpt lat="45.7628874" lon="11.599549"><ele>330.2857142857143</ele><time>2026-04-25T14:20:04.93Z</time></trkpt><trkpt lat="45.762821" lon="11.5995374"><ele>331.42857142857144</ele><time>2026-04-25T14:20:09.93Z</time></trkpt><trkpt lat="45.762748" lon="11.599528"><ele>332.57142857142856</ele><time>2026-04-25T14:20:14.93Z</time></trkpt><trkpt lat="45.7626759" lon="11.5995249"><ele>333.7142857142857</ele><time>2026-04-25T14:20:19.931Z</time></trkpt><trkpt lat="45.7626109" lon="11.5995058"><ele>334.85714285714283</ele><time>2026-04-25T14:20:24.931Z</time></trkpt><trkpt lat="45.7625472" lon="11.5995014"><ele>336.0</ele><time>2026-04-25T14:20:30.93Z</time></trkpt><trkpt lat="45.762485" lon="11.5994866"><ele>336.0</ele><time>2026-04-25T14:20:34.93Z</time></trkpt><trkpt lat="45.7624181" lon="11.5994849"><ele>336.0</ele><time>2026-04-25T14:20:38.93Z</time></trkpt><trkpt lat="45.7623518" lon="11.5995055"><ele>336.0</ele><time>2026-04-25T14:20:46.93Z</time></trkpt><trkpt lat="45.7622796" lon="11.5995291"><ele>336.0</ele><time>2026-04-25T14:20:51.93Z</time></trkpt><trkpt lat="45.7622172" lon="11.5995923"><ele>336.0</ele><time>2026-04-25T14:20:57.93Z</time></trkpt><trkpt lat="45.7621471" lon="11.5996224"><ele>336.0</ele><time>2026-04-25T14:21:01.93Z</time></trkpt><trkpt lat="45.7620853" lon="11.5996457"><ele>336.0</ele><time>2026-04-25T14:21:08.93Z</time></trkpt><trkpt lat="45.7620238" lon="11.5997007"><ele>338.0</ele><time>2026-04-25T14:21:14.931Z</time></trkpt><trkpt lat="45.7619547" lon="11.5997682"><ele>340.0</ele><time>2026-04-25T14:21:19.931Z</time></trkpt><trkpt lat="45.7619559" lon="11.5998826"><ele>342.0</ele><time>2026-04-25T14:21:26.931Z</time></trkpt><trkpt lat="45.7620153" lon="11.5999154"><ele>344.0</ele><time>2026-04-25T14:21:32.931Z</time></trkpt><trkpt lat="45.7620658" lon="11.599978"><ele>346.0</ele><time>2026-04-25T14:21:39.931Z</time></trkpt><trkpt lat="45.7621233" lon="11.6000195"><ele>348.0</ele><time>2026-04-25T14:21:44.931Z</time></trkpt><trkpt lat="45.7621904" lon="11.6000542"><ele>350.0</ele><time>2026-04-25T14:21:51.931Z</time></trkpt><trkpt lat="45.7622444" lon="11.6001218"><ele>350.0</ele><time>2026-04-25T14:21:56.931Z</time></trkpt><trkpt lat="45.7623122" lon="11.6001566"><ele>350.0</ele><time>2026-04-25T14:22:02.931Z</time></trkpt><trkpt lat="45.7623606" lon="11.6002355"><ele>350.0</ele><time>2026-04-25T14:22:07.931Z</time></trkpt><trkpt lat="45.7623033" lon="11.6003028"><ele>350.0</ele><time>2026-04-25T14:22:12.931Z</time></trkpt><trkpt lat="45.7622282" lon="11.6003147"><ele>350.0</ele><time>2026-04-25T14:22:16.931Z</time></trkpt><trkpt lat="45.7621603" lon="11.6003414"><ele>350.0</ele><time>2026-04-25T14:22:21.931Z</time></trkpt><trkpt lat="45.7620887" lon="11.6003515"><ele>350.0</ele><time>2026-04-25T14:22:27.931Z</time></trkpt><trkpt lat="45.7620288" lon="11.6003808"><ele>352.57142857142856</ele><time>2026-04-25T14:22:32.931Z</time></trkpt><trkpt lat="45.7619602" lon="11.6003932"><ele>355.1428571428571</ele><time>2026-04-25T14:22:38.932Z</time></trkpt><trkpt lat="45.7618939" lon="11.6004295"><ele>357.7142857142857</ele><time>2026-04-25T14:22:43.932Z</time></trkpt><trkpt lat="45.761838" lon="11.6004753"><ele>360.2857142857143</ele><time>2026-04-25T14:22:49.932Z</time></trkpt><trkpt lat="45.7617751" lon="11.6005124"><ele>362.85714285714283</ele><time>2026-04-25T14:22:56.932Z</time></trkpt><trkpt lat="45.7617154" lon="11.6005532"><ele>365.42857142857144</ele><time>2026-04-25T14:23:01.932Z</time></trkpt><trkpt lat="45.7616666" lon="11.6006298"><ele>368.0</ele><time>2026-04-25T14:23:07.932Z</time></trkpt><trkpt lat="45.7616079" lon="11.6006951"><ele>368.2857142857143</ele><time>2026-04-25T14:23:11.932Z</time></trkpt><trkpt lat="45.7615497" lon="11.6007392"><ele>368.57142857142856</ele><time>2026-04-25T14:23:15.933Z</time></trkpt><trkpt lat="45.7614766" lon="11.6007838"><ele>368.85714285714283</ele><time>2026-04-25T14:23:20.932Z</time></trkpt><trkpt lat="45.7614094" lon="11.6008196"><ele>369.1428571428571</ele><time>2026-04-25T14:23:25.932Z</time></trkpt><trkpt lat="45.7613414" lon="11.6008563"><ele>369.42857142857144</ele><time>2026-04-25T14:23:32.933Z</time></trkpt><trkpt lat="45.7612719" lon="11.6008826"><ele>369.71428571428567</ele><time>2026-04-25T14:23:37.932Z</time></trkpt><trkpt lat="45.7612141" lon="11.6009401"><ele>370.0</ele><time>2026-04-25T14:23:43.932Z</time></trkpt><trkpt lat="45.7611687" lon="11.6010037"><ele>369.99999999999994</ele><time>2026-04-25T14:23:47.932Z</time></trkpt><trkpt lat="45.7611121" lon="11.6010671"><ele>370.0</ele><time>2026-04-25T14:23:52.933Z</time></trkpt><trkpt lat="45.7610648" lon="11.6011281"><ele>370.0</ele><time>2026-04-25T14:23:56.933Z</time></trkpt><trkpt lat="45.7610179" lon="11.6012174"><ele>370.0</ele><time>2026-04-25T14:24:02.933Z</time></trkpt><trkpt lat="45.7609724" lon="11.6012869"><ele>370.0</ele><time>2026-04-25T14:24:06.934Z</time></trkpt><trkpt lat="45.7609094" lon="11.601342"><ele>369.99999999999994</ele><time>2026-04-25T14:24:11.933Z</time></trkpt><trkpt lat="45.7608402" lon="11.6013528"><ele>370.0</ele><time>2026-04-25T14:24:16.933Z</time></trkpt><trkpt lat="45.7607712" lon="11.601345"><ele>373.1428571428571</ele><time>2026-04-25T14:24:21.933Z</time></trkpt><trkpt lat="45.760706" lon="11.6013248"><ele>376.2857142857143</ele><time>2026-04-25T14:24:27.933Z</time></trkpt><trkpt lat="45.7606758" lon="11.6014239"><ele>379.42857142857144</ele><time>2026-04-25T14:24:34.933Z</time></trkpt><trkpt lat="45.7607286" lon="11.6014934"><ele>382.57142857142856</ele><time>2026-04-25T14:24:40.933Z</time></trkpt><trkpt lat="45.760803" lon="11.6015053"><ele>385.7142857142857</ele><time>2026-04-25T14:24:51.934Z</time></trkpt><trkpt lat="45.7608509" lon="11.6015652"><ele>388.85714285714283</ele><time>2026-04-25T14:24:59.933Z</time></trkpt><trkpt lat="45.7609124" lon="11.6015906"><ele>392.0</ele><time>2026-04-25T14:25:06.933Z</time></trkpt><trkpt lat="45.7609798" lon="11.601609"><ele>393.2857142857143</ele><time>2026-04-25T14:25:12.934Z</time></trkpt><trkpt lat="45.7610439" lon="11.601593"><ele>394.57142857142856</ele><time>2026-04-25T14:25:17.935Z</time></trkpt><trkpt lat="45.7611013" lon="11.6016454"><ele>395.8571428571429</ele><time>2026-04-25T14:25:24.934Z</time></trkpt><trkpt lat="45.7611652" lon="11.6016435"><ele>397.1428571428571</ele><time>2026-04-25T14:25:35.934Z</time></trkpt><trkpt lat="45.7612346" lon="11.6016207"><ele>398.42857142857144</ele><time>2026-04-25T14:25:42.934Z</time></trkpt><trkpt lat="45.7613037" lon="11.6016405"><ele>399.7142857142857</ele><time>2026-04-25T14:25:49.935Z</time></trkpt><trkpt lat="45.7613732" lon="11.6016261"><ele>401.0</ele><time>2026-04-25T14:25:56.934Z</time></trkpt><trkpt lat="45.7614474" lon="11.6016088"><ele>401.0</ele><time>2026-04-25T14:26:06.934Z</time></trkpt><trkpt lat="45.7615102" lon="11.6016211"><ele>401.0</ele><time>2026-04-25T14:26:13.934Z</time></trkpt><trkpt lat="45.761573" lon="11.6016295"><ele>401.0</ele><time>2026-04-25T14:26:21.934Z</time></trkpt><trkpt lat="45.7616342" lon="11.601592"><ele>401.0</ele><time>2026-04-25T14:26:27.935Z</time></trkpt><trkpt lat="45.761704" lon="11.6016171"><ele>401.0</ele><time>2026-04-25T14:26:31.935Z</time></trkpt><trkpt lat="45.761697" lon="11.6017157"><ele>401.0</ele><time>2026-04-25T14:26:35.936Z</time></trkpt><trkpt lat="45.7616474" lon="11.6017722"><ele>401.0</ele><time>2026-04-25T14:26:40.935Z</time></trkpt><trkpt lat="45.7615785" lon="11.6017768"><ele>401.0</ele><time>2026-04-25T14:26:46.935Z</time></trkpt><trkpt lat="45.7615072" lon="11.6017916"><ele>401.0</ele><time>2026-04-25T14:26:53.935Z</time></trkpt><trkpt lat="45.7614604" lon="11.6018555"><ele>401.0</ele><time>2026-04-25T14:27:00.935Z</time></trkpt><trkpt lat="45.7614094" lon="11.6019104"><ele>401.0</ele><time>2026-04-25T14:27:04.935Z</time></trkpt><trkpt lat="45.7613454" lon="11.6019367"><ele>401.0</ele><time>2026-04-25T14:27:09.935Z</time></trkpt><trkpt lat="45.7612784" lon="11.6019629"><ele>401.0</ele><time>2026-04-25T14:27:20.935Z</time></trkpt><trkpt lat="45.7612096" lon="11.6020129"><ele>401.0</ele><time>2026-04-25T14:27:28.935Z</time></trkpt><trkpt lat="45.7611544" lon="11.6020681"><ele>403.42857142857144</ele><time>2026-04-25T14:27:32.935Z</time></trkpt><trkpt lat="45.7610943" lon="11.602095"><ele>405.8571428571429</ele><time>2026-04-25T14:27:36.935Z</time></trkpt><trkpt lat="45.7610297" lon="11.6020985"><ele>408.2857142857143</ele><time>2026-04-25T14:27:42.935Z</time></trkpt><trkpt lat="45.7609589" lon="11.6021236"><ele>410.7142857142857</ele><time>2026-04-25T14:27:48.936Z</time></trkpt><trkpt lat="45.7608905" lon="11.6021373"><ele>413.1428571428571</ele><time>2026-04-25T14:27:54.936Z</time></trkpt><trkpt lat="45.7608216" lon="11.6021832"><ele>415.57142857142856</ele><time>2026-04-25T14:27:58.936Z</time></trkpt><trkpt lat="45.7607619" lon="11.6022188"><ele>418.0</ele><time>2026-04-25T14:28:02.936Z</time></trkpt><trkpt lat="45.7606891" lon="11.6022548"><ele>418.0</ele><time>2026-04-25T14:28:08.937Z</time></trkpt><trkpt lat="45.7606327" lon="11.6022961"><ele>418.0</ele><time>2026-04-25T14:28:13.936Z</time></trkpt><trkpt lat="45.7605829" lon="11.6023883"><ele>418.0</ele><time>2026-04-25T14:28:18.936Z</time></trkpt><trkpt lat="45.7605157" lon="11.6024414"><ele>418.0</ele><time>2026-04-25T14:28:22.936Z</time></trkpt><trkpt lat="45.7605113" lon="11.6025345"><ele>418.0</ele><time>2026-04-25T14:28:29.936Z</time></trkpt><trkpt lat="45.7605018" lon="11.6026334"><ele>418.0</ele><time>2026-04-25T14:28:36.936Z</time></trkpt><trkpt lat="45.7605015" lon="11.6027274"><ele>418.0</ele><time>2026-04-25T14:28:41.936Z</time></trkpt><trkpt lat="45.7605407" lon="11.6027989"><ele>420.42857142857144</ele><time>2026-04-25T14:28:49.936Z</time></trkpt><trkpt lat="45.7605937" lon="11.6028716"><ele>422.85714285714283</ele><time>2026-04-25T14:28:53.936Z</time></trkpt><trkpt lat="45.7606039" lon="11.6029792"><ele>425.28571428571433</ele><time>2026-04-25T14:29:00.937Z</time></trkpt><trkpt lat="45.7606445" lon="11.6030675"><ele>427.7142857142857</ele><time>2026-04-25T14:29:08.937Z</time></trkpt><trkpt lat="45.7607011" lon="11.6031262"><ele>430.14285714285717</ele><time>2026-04-25T14:29:15.937Z</time></trkpt><trkpt lat="45.7607731" lon="11.6031486"><ele>432.5714285714286</ele><time>2026-04-25T14:29:21.937Z</time></trkpt><trkpt lat="45.7608348" lon="11.6031782"><ele>435.0</ele><time>2026-04-25T14:29:27.937Z</time></trkpt><trkpt lat="45.7609011" lon="11.6031517"><ele>435.00000000000006</ele><time>2026-04-25T14:29:33.937Z</time></trkpt><trkpt lat="45.7609636" lon="11.6031692"><ele>435.0</ele><time>2026-04-25T14:29:39.937Z</time></trkpt><trkpt lat="45.7610292" lon="11.603149"><ele>435.0</ele><time>2026-04-25T14:29:43.937Z</time></trkpt><trkpt lat="45.7611074" lon="11.6031472"><ele>435.0</ele><time>2026-04-25T14:29:49.937Z</time></trkpt><trkpt lat="45.7611768" lon="11.6031507"><ele>435.0</ele><time>2026-04-25T14:29:54.937Z</time></trkpt><trkpt lat="45.7612406" lon="11.6031443"><ele>435.00000000000006</ele><time>2026-04-25T14:30:00.937Z</time></trkpt><trkpt lat="45.7613182" lon="11.6031289"><ele>435.0</ele><time>2026-04-25T14:30:07.937Z</time></trkpt><trkpt lat="45.761376" lon="11.6031756"><ele>436.00000000000006</ele><time>2026-04-25T14:30:12.937Z</time></trkpt><trkpt lat="45.7614496" lon="11.6031674"><ele>437.0</ele><time>2026-04-25T14:30:17.937Z</time></trkpt><trkpt lat="45.7615112" lon="11.6031905"><ele>438.0</ele><time>2026-04-25T14:30:22.939Z</time></trkpt><trkpt lat="45.7615748" lon="11.603198"><ele>439.0</ele><time>2026-04-25T14:30:28.938Z</time></trkpt><trkpt lat="45.7616453" lon="11.6031971"><ele>440.0</ele><time>2026-04-25T14:30:34.938Z</time></trkpt><trkpt lat="45.7617136" lon="11.6031985"><ele>441.00000000000006</ele><time>2026-04-25T14:30:41.939Z</time></trkpt><trkpt lat="45.7617819" lon="11.6032166"><ele>442.0</ele><time>2026-04-25T14:30:51.939Z</time></trkpt><trkpt lat="45.7618534" lon="11.6032281"><ele>441.42857142857144</ele><time>2026-04-25T14:30:56.938Z</time></trkpt><trkpt lat="45.7619312" lon="11.6032169"><ele>440.8571428571429</ele><time>2026-04-25T14:31:02.938Z</time></trkpt><trkpt lat="45.761993" lon="11.6032378"><ele>440.28571428571433</ele><time>2026-04-25T14:31:06.938Z</time></trkpt><trkpt lat="45.7620558" lon="11.6032879"><ele>439.7142857142857</ele><time>2026-04-25T14:31:12.938Z</time></trkpt><trkpt lat="45.7621042" lon="11.6033563"><ele>439.1428571428571</ele><time>2026-04-25T14:31:18.938Z</time></trkpt><trkpt lat="45.7621429" lon="11.6034324"><ele>438.5714285714286</ele><time>2026-04-25T14:31:26.939Z</time></trkpt><trkpt lat="45.7622068" lon="11.6034667"><ele>438.0</ele><time>2026-04-25T14:31:33.938Z</time></trkpt><trkpt lat="45.7622562" lon="11.60353"><ele>438.0</ele><time>2026-04-25T14:31:40.939Z</time></trkpt><trkpt lat="45.7622892" lon="11.6036161"><ele>438.0</ele><time>2026-04-25T14:31:48.939Z</time></trkpt><trkpt lat="45.7623726" lon="11.6036398"><ele>438.0</ele><time>2026-04-25T14:31:52.939Z</time></trkpt><trkpt lat="45.7624269" lon="11.6037198"><ele>438.0</ele><time>2026-04-25T14:31:55.939Z</time></trkpt><trkpt lat="45.7624875" lon="11.6037454"><ele>438.0</ele><time>2026-04-25T14:32:00.94Z</time></trkpt><trkpt lat="45.7625319" lon="11.6038402"><ele>438.0</ele><time>2026-04-25T14:32:04.939Z</time></trkpt><trkpt lat="45.7626031" lon="11.6038881"><ele>437.2857142857143</ele><time>2026-04-25T14:32:08.94Z</time></trkpt><trkpt lat="45.762639" lon="11.6039673"><ele>436.57142857142856</ele><time>2026-04-25T14:32:10.939Z</time></trkpt><trkpt lat="45.7626701" lon="11.6040582"><ele>435.85714285714283</ele><time>2026-04-25T14:32:14.939Z</time></trkpt><trkpt lat="45.7627225" lon="11.6041285"><ele>435.1428571428571</ele><time>2026-04-25T14:32:18.939Z</time></trkpt><trkpt lat="45.7627521" lon="11.6042099"><ele>434.42857142857144</ele><time>2026-04-25T14:32:21.939Z</time></trkpt><trkpt lat="45.7627976" lon="11.6042874"><ele>433.71428571428567</ele><time>2026-04-25T14:32:24.939Z</time></trkpt><trkpt lat="45.7628497" lon="11.6043617"><ele>433.0</ele><time>2026-04-25T14:32:27.939Z</time></trkpt><trkpt lat="45.7628943" lon="11.6044366"><ele>437.1666666666667</ele><time>2026-04-25T14:32:30.939Z</time></trkpt><trkpt lat="45.7629496" lon="11.6045159"><ele>441.33333333333337</ele><time>2026-04-25T14:32:33.939Z</time></trkpt><trkpt lat="45.7630158" lon="11.6045847"><ele>445.5</ele><time>2026-04-25T14:32:36.939Z</time></trkpt><trkpt lat="45.7630738" lon="11.6046532"><ele>449.66666666666663</ele><time>2026-04-25T14:32:39.939Z</time></trkpt><trkpt lat="45.7631329" lon="11.6047259"><ele>453.8333333333333</ele><time>2026-04-25T14:32:43.939Z</time></trkpt><trkpt lat="45.7631817" lon="11.6047938"><ele>458.0</ele><time>2026-04-25T14:32:46.939Z</time></trkpt><trkpt lat="45.7632351" lon="11.6048726"><ele>457.99999999999994</ele><time>2026-04-25T14:32:49.939Z</time></trkpt><trkpt lat="45.763301" lon="11.6049408"><ele>458.0</ele><time>2026-04-25T14:32:52.94Z</time></trkpt><trkpt lat="45.7633615" lon="11.6050235"><ele>458.0</ele><time>2026-04-25T14:32:55.941Z</time></trkpt><trkpt lat="45.7634229" lon="11.6050943"><ele>458.0</ele><time>2026-04-25T14:32:58.94Z</time></trkpt><trkpt lat="45.7634862" lon="11.6051636"><ele>457.99999999999994</ele><time>2026-04-25T14:33:01.94Z</time></trkpt><trkpt lat="45.7635551" lon="11.605211"><ele>458.0</ele><time>2026-04-25T14:33:04.94Z</time></trkpt><trkpt lat="45.7636171" lon="11.6052679"><ele>457.85714285714283</ele><time>2026-04-25T14:33:07.94Z</time></trkpt><trkpt lat="45.7636772" lon="11.6053151"><ele>457.7142857142858</ele><time>2026-04-25T14:33:10.941Z</time></trkpt><trkpt lat="45.7637435" lon="11.6053729"><ele>457.5714285714286</ele><time>2026-04-25T14:33:13.94Z</time></trkpt><trkpt lat="45.763802" lon="11.6054183"><ele>457.42857142857144</ele><time>2026-04-25T14:33:15.94Z</time></trkpt><trkpt lat="45.7638626" lon="11.6054666"><ele>457.28571428571433</ele><time>2026-04-25T14:33:17.94Z</time></trkpt><trkpt lat="45.7639157" lon="11.6055179"><ele>457.1428571428572</ele><time>2026-04-25T14:33:19.94Z</time></trkpt><trkpt lat="45.7639666" lon="11.6055797"><ele>457.00000000000006</ele><time>2026-04-25T14:33:21.94Z</time></trkpt><trkpt lat="45.764035" lon="11.6056707"><ele>457.00000000000006</ele><time>2026-04-25T14:33:24.94Z</time></trkpt><trkpt lat="45.764088" lon="11.6057208"><ele>457.0</ele><time>2026-04-25T14:33:26.94Z</time></trkpt><trkpt lat="45.764149" lon="11.6057746"><ele>457.00000000000006</ele><time>2026-04-25T14:33:28.962Z</time></trkpt><trkpt lat="45.7642355" lon="11.6058263"><ele>457.00000000000006</ele><time>2026-04-25T14:33:31.983Z</time></trkpt><trkpt lat="45.7642885" lon="11.605885"><ele>457.0</ele><time>2026-04-25T14:33:33.997Z</time></trkpt><trkpt lat="45.7643506" lon="11.6059324"><ele>457.00000000000006</ele><time>2026-04-25T14:33:36.011Z</time></trkpt><trkpt lat="45.7644138" lon="11.6059768"><ele>457.00000000000006</ele><time>2026-04-25T14:33:37.94Z</time></trkpt><trkpt lat="45.764512" lon="11.6060574"><ele>455.4285714285715</ele><time>2026-04-25T14:33:40.945Z</time></trkpt><trkpt lat="45.7645763" lon="11.6061169"><ele>453.8571428571429</ele><time>2026-04-25T14:33:42.959Z</time></trkpt><trkpt lat="45.7646463" lon="11.6061543"><ele>452.28571428571433</ele><time>2026-04-25T14:33:44.973Z</time></trkpt><trkpt lat="45.7647142" lon="11.6061861"><ele>450.7142857142858</ele><time>2026-04-25T14:33:46.987Z</time></trkpt><trkpt lat="45.7647751" lon="11.606216"><ele>449.1428571428571</ele><time>2026-04-25T14:33:48.961Z</time></trkpt><trkpt lat="45.7648591" lon="11.6062473"><ele>447.57142857142856</ele><time>2026-04-25T14:33:51.941Z</time></trkpt><trkpt lat="45.7649274" lon="11.6062594"><ele>446.0</ele><time>2026-04-25T14:33:53.94Z</time></trkpt><trkpt lat="45.7649983" lon="11.6062642"><ele>447.7142857142857</ele><time>2026-04-25T14:33:55.949Z</time></trkpt><trkpt lat="45.7650676" lon="11.606283"><ele>449.42857142857144</ele><time>2026-04-25T14:33:57.963Z</time></trkpt><trkpt lat="45.7651287" lon="11.6063275"><ele>451.1428571428571</ele><time>2026-04-25T14:33:59.977Z</time></trkpt><trkpt lat="45.7651937" lon="11.6063638"><ele>452.8571428571429</ele><time>2026-04-25T14:34:01.991Z</time></trkpt><trkpt lat="45.7652565" lon="11.6063964"><ele>454.5714285714286</ele><time>2026-04-25T14:34:04.005Z</time></trkpt><trkpt lat="45.765315" lon="11.6064559"><ele>456.2857142857143</ele><time>2026-04-25T14:34:06.019Z</time></trkpt><trkpt lat="45.765371" lon="11.6065084"><ele>458.0</ele><time>2026-04-25T14:34:07.94Z</time></trkpt><trkpt lat="45.7654294" lon="11.6065593"><ele>457.99999999999994</ele><time>2026-04-25T14:34:09.946Z</time></trkpt><trkpt lat="45.7655042" lon="11.6066137"><ele>458.0</ele><time>2026-04-25T14:34:12.967Z</time></trkpt><trkpt lat="45.7655612" lon="11.6067003"><ele>458.0</ele><time>2026-04-25T14:34:15.988Z</time></trkpt><trkpt lat="45.7656199" lon="11.6067917"><ele>458.0</ele><time>2026-04-25T14:34:18.96Z</time></trkpt><trkpt lat="45.7656931" lon="11.6068574"><ele>457.99999999999994</ele><time>2026-04-25T14:34:21.662Z</time></trkpt><trkpt lat="45.7657633" lon="11.6069099"><ele>458.0</ele><time>2026-04-25T14:34:23.937Z</time></trkpt><trkpt lat="45.7658209" lon="11.6069664"><ele>458.71428571428567</ele><time>2026-04-25T14:34:25.956Z</time></trkpt><trkpt lat="45.7658773" lon="11.6070192"><ele>459.42857142857144</ele><time>2026-04-25T14:34:27.88Z</time></trkpt><trkpt lat="45.7659359" lon="11.6070759"><ele>460.1428571428571</ele><time>2026-04-25T14:34:29.919Z</time></trkpt><trkpt lat="45.7659907" lon="11.6071343"><ele>460.85714285714283</ele><time>2026-04-25T14:34:31.998Z</time></trkpt><trkpt lat="45.7660455" lon="11.6071854"><ele>461.57142857142856</ele><time>2026-04-25T14:34:34.012Z</time></trkpt><trkpt lat="45.766126" lon="11.6072494"><ele>462.2857142857143</ele><time>2026-04-25T14:34:36.942Z</time></trkpt><trkpt lat="45.7661819" lon="11.6072987"><ele>463.0</ele><time>2026-04-25T14:34:38.946Z</time></trkpt><trkpt lat="45.7662409" lon="11.6073336"><ele>463.0</ele><time>2026-04-25T14:34:40.96Z</time></trkpt><trkpt lat="45.7663051" lon="11.6073542"><ele>462.99999999999994</ele><time>2026-04-25T14:34:42.974Z</time></trkpt><trkpt lat="45.7663683" lon="11.6073742"><ele>463.0</ele><time>2026-04-25T14:34:44.939Z</time></trkpt><trkpt lat="45.7664355" lon="11.6073895"><ele>463.0</ele><time>2026-04-25T14:34:47.001Z</time></trkpt><trkpt lat="45.7665057" lon="11.6073964"><ele>462.99999999999994</ele><time>2026-04-25T14:34:49.015Z</time></trkpt><trkpt lat="45.7665767" lon="11.6073966"><ele>463.0</ele><time>2026-04-25T14:34:50.981Z</time></trkpt><trkpt lat="45.7666482" lon="11.6074023"><ele>463.0</ele><time>2026-04-25T14:34:52.942Z</time></trkpt><trkpt lat="45.7667226" lon="11.6074216"><ele>463.00000000000006</ele><time>2026-04-25T14:34:55.042Z</time></trkpt><trkpt lat="45.7667844" lon="11.6074408"><ele>463.0</ele><time>2026-04-25T14:34:56.97Z</time></trkpt><trkpt lat="45.7668527" lon="11.6074744"><ele>463.0</ele><time>2026-04-25T14:34:59.991Z</time></trkpt><trkpt lat="45.7669349" lon="11.6075075"><ele>463.0</ele><time>2026-04-25T14:35:04.018Z</time></trkpt><trkpt lat="45.767024" lon="11.6075343"><ele>463.00000000000006</ele><time>2026-04-25T14:35:06.941Z</time></trkpt><trkpt lat="45.7670866" lon="11.6075453"><ele>463.0</ele><time>2026-04-25T14:35:08.953Z</time></trkpt><trkpt lat="45.7671655" lon="11.607583"><ele>461.79999999999995</ele><time>2026-04-25T14:35:11.942Z</time></trkpt><trkpt lat="45.7672463" lon="11.607643"><ele>460.59999999999997</ele><time>2026-04-25T14:35:15.02Z</time></trkpt><trkpt lat="45.7673147" lon="11.6077011"><ele>459.40000000000003</ele><time>2026-04-25T14:35:17.008Z</time></trkpt><trkpt lat="45.7673902" lon="11.6077573"><ele>458.20000000000005</ele><time>2026-04-25T14:35:18.941Z</time></trkpt><trkpt lat="45.7674714" lon="11.6078302"><ele>457.0</ele><time>2026-04-25T14:35:20.941Z</time></trkpt><trkpt lat="45.7675459" lon="11.6079274"><ele>457.6</ele><time>2026-04-25T14:35:22.941Z</time></trkpt><trkpt lat="45.767623" lon="11.6080137"><ele>458.20000000000005</ele><time>2026-04-25T14:35:24.941Z</time></trkpt><trkpt lat="45.7677028" lon="11.6080976"><ele>458.8</ele><time>2026-04-25T14:35:26.941Z</time></trkpt><trkpt lat="45.7677784" lon="11.6081632"><ele>459.4</ele><time>2026-04-25T14:35:28.942Z</time></trkpt><trkpt lat="45.7678657" lon="11.6082087"><ele>460.0</ele><time>2026-04-25T14:35:30.943Z</time></trkpt><trkpt lat="45.7679408" lon="11.6082417"><ele>460.0</ele><time>2026-04-25T14:35:32.942Z</time></trkpt><trkpt lat="45.7680239" lon="11.6082969"><ele>460.0</ele><time>2026-04-25T14:35:34.942Z</time></trkpt><trkpt lat="45.7681222" lon="11.6083339"><ele>460.0</ele><time>2026-04-25T14:35:36.942Z</time></trkpt><trkpt lat="45.7682262" lon="11.6083471"><ele>460.0</ele><time>2026-04-25T14:35:38.943Z</time></trkpt><trkpt lat="45.768327" lon="11.6083601"><ele>460.0</ele><time>2026-04-25T14:35:40.942Z</time></trkpt><trkpt lat="45.7684271" lon="11.6083967"><ele>460.0</ele><time>2026-04-25T14:35:42.942Z</time></trkpt><trkpt lat="45.7685236" lon="11.6084527"><ele>460.0</ele><time>2026-04-25T14:35:44.942Z</time></trkpt><trkpt lat="45.7686226" lon="11.6085147"><ele>460.0</ele><time>2026-04-25T14:35:46.942Z</time></trkpt><trkpt lat="45.768733" lon="11.6085903"><ele>460.0</ele><time>2026-04-25T14:35:48.942Z</time></trkpt><trkpt lat="45.7687889" lon="11.6086329"><ele>460.0</ele><time>2026-04-25T14:35:49.943Z</time></trkpt><trkpt lat="45.768844" lon="11.6086825"><ele>461.0</ele><time>2026-04-25T14:35:50.943Z</time></trkpt><trkpt lat="45.768932" lon="11.6087939"><ele>462.0</ele><time>2026-04-25T14:35:52.942Z</time></trkpt><trkpt lat="45.7690002" lon="11.6089131"><ele>463.0</ele><time>2026-04-25T14:35:54.942Z</time></trkpt><trkpt lat="45.7690394" lon="11.6089854"><ele>464.0</ele><time>2026-04-25T14:35:55.943Z</time></trkpt><trkpt lat="45.7691222" lon="11.609119"><ele>465.0</ele><time>2026-04-25T14:35:57.943Z</time></trkpt><trkpt lat="45.7691735" lon="11.6091915"><ele>465.0</ele><time>2026-04-25T14:35:58.942Z</time></trkpt><trkpt lat="45.7692262" lon="11.6092466"><ele>465.0</ele><time>2026-04-25T14:35:59.942Z</time></trkpt><trkpt lat="45.7692879" lon="11.6092791"><ele>465.0</ele><time>2026-04-25T14:36:00.942Z</time></trkpt><trkpt lat="45.7693543" lon="11.6092948"><ele>465.0</ele><time>2026-04-25T14:36:01.942Z</time></trkpt><trkpt lat="45.7694263" lon="11.6093031"><ele>465.0</ele><time>2026-04-25T14:36:02.942Z</time></trkpt><trkpt lat="45.7694918" lon="11.6093082"><ele>465.0</ele><time>2026-04-25T14:36:03.942Z</time></trkpt><trkpt lat="45.769628" lon="11.6093381"><ele>463.6666666666667</ele><time>2026-04-25T14:36:05.942Z</time></trkpt><trkpt lat="45.7696955" lon="11.6093642"><ele>462.33333333333337</ele><time>2026-04-25T14:36:06.942Z</time></trkpt><trkpt lat="45.7697681" lon="11.6094068"><ele>461.0</ele><time>2026-04-25T14:36:07.942Z</time></trkpt><trkpt lat="45.7698459" lon="11.6094542"><ele>459.6666666666667</ele><time>2026-04-25T14:36:08.942Z</time></trkpt><trkpt lat="45.7699239" lon="11.6095066"><ele>458.33333333333337</ele><time>2026-04-25T14:36:09.942Z</time></trkpt><trkpt lat="45.7699966" lon="11.6095755"><ele>457.0</ele><time>2026-04-25T14:36:10.942Z</time></trkpt><trkpt lat="45.7700662" lon="11.6096468"><ele>457.00000000000006</ele><time>2026-04-25T14:36:11.942Z</time></trkpt><trkpt lat="45.7701313" lon="11.6097201"><ele>457.0</ele><time>2026-04-25T14:36:12.942Z</time></trkpt><trkpt lat="45.7701971" lon="11.6097963"><ele>457.0</ele><time>2026-04-25T14:36:13.943Z</time></trkpt><trkpt lat="45.7702626" lon="11.6098706"><ele>457.0</ele><time>2026-04-25T14:36:14.942Z</time></trkpt><trkpt lat="45.7703268" lon="11.60995"><ele>457.00000000000006</ele><time>2026-04-25T14:36:15.943Z</time></trkpt><trkpt lat="45.7703883" lon="11.6100248"><ele>457.0</ele><time>2026-04-25T14:36:16.942Z</time></trkpt><trkpt lat="45.7704508" lon="11.6101049"><ele>455.83333333333337</ele><time>2026-04-25T14:36:17.942Z</time></trkpt><trkpt lat="45.7705067" lon="11.6101789"><ele>454.6666666666667</ele><time>2026-04-25T14:36:18.942Z</time></trkpt><trkpt lat="45.770573" lon="11.6102602"><ele>453.5</ele><time>2026-04-25T14:36:19.943Z</time></trkpt><trkpt lat="45.7706397" lon="11.6103235"><ele>452.33333333333337</ele><time>2026-04-25T14:36:20.943Z</time></trkpt><trkpt lat="45.7707078" lon="11.6103734"><ele>451.1666666666667</ele><time>2026-04-25T14:36:21.942Z</time></trkpt><trkpt lat="45.7707726" lon="11.6104227"><ele>450.0</ele><time>2026-04-25T14:36:22.942Z</time></trkpt><trkpt lat="45.7708383" lon="11.6104684"><ele>450.00000000000006</ele><time>2026-04-25T14:36:23.943Z</time></trkpt><trkpt lat="45.7709094" lon="11.6105157"><ele>450.0</ele><time>2026-04-25T14:36:24.942Z</time></trkpt><trkpt lat="45.7709746" lon="11.6105499"><ele>450.00000000000006</ele><time>2026-04-25T14:36:25.942Z</time></trkpt><trkpt lat="45.7710452" lon="11.6105673"><ele>450.00000000000006</ele><time>2026-04-25T14:36:26.942Z</time></trkpt><trkpt lat="45.7711202" lon="11.6105763"><ele>450.0</ele><time>2026-04-25T14:36:27.942Z</time></trkpt><trkpt lat="45.7711934" lon="11.6105599"><ele>450.00000000000006</ele><time>2026-04-25T14:36:28.942Z</time></trkpt><trkpt lat="45.771272" lon="11.6105389"><ele>450.00000000000006</ele><time>2026-04-25T14:36:29.942Z</time></trkpt><trkpt lat="45.7713531" lon="11.6105201"><ele>447.6666666666667</ele><time>2026-04-25T14:36:30.942Z</time></trkpt><trkpt lat="45.7714479" lon="11.6105235"><ele>445.33333333333337</ele><time>2026-04-25T14:36:31.943Z</time></trkpt><trkpt lat="45.7715367" lon="11.6105284"><ele>443.0</ele><time>2026-04-25T14:36:32.942Z</time></trkpt><trkpt lat="45.7716127" lon="11.6105321"><ele>440.6666666666667</ele><time>2026-04-25T14:36:33.942Z</time></trkpt><trkpt lat="45.771689" lon="11.6105499"><ele>438.33333333333337</ele><time>2026-04-25T14:36:34.942Z</time></trkpt><trkpt lat="45.7717594" lon="11.6105831"><ele>436.0</ele><time>2026-04-25T14:36:35.942Z</time></trkpt><trkpt lat="45.7718237" lon="11.6106388"><ele>433.1666666666667</ele><time>2026-04-25T14:36:36.942Z</time></trkpt><trkpt lat="45.7718836" lon="11.6107092"><ele>430.33333333333337</ele><time>2026-04-25T14:36:37.942Z</time></trkpt><trkpt lat="45.7719427" lon="11.6107943"><ele>427.5</ele><time>2026-04-25T14:36:38.943Z</time></trkpt><trkpt lat="45.772005" lon="11.6108754"><ele>424.66666666666663</ele><time>2026-04-25T14:36:39.942Z</time></trkpt><trkpt lat="45.7720703" lon="11.6109601"><ele>421.8333333333333</ele><time>2026-04-25T14:36:40.942Z</time></trkpt><trkpt lat="45.7721387" lon="11.6110425"><ele>419.0</ele><time>2026-04-25T14:36:41.942Z</time></trkpt><trkpt lat="45.7722033" lon="11.6111216"><ele>419.49999999999994</ele><time>2026-04-25T14:36:42.942Z</time></trkpt><trkpt lat="45.7722694" lon="11.6111954"><ele>420.0</ele><time>2026-04-25T14:36:43.943Z</time></trkpt><trkpt lat="45.7723347" lon="11.6112767"><ele>420.5</ele><time>2026-04-25T14:36:44.943Z</time></trkpt><trkpt lat="45.7723934" lon="11.6113562"><ele>421.0</ele><time>2026-04-25T14:36:45.943Z</time></trkpt><trkpt lat="45.7724574" lon="11.6114372"><ele>421.49999999999994</ele><time>2026-04-25T14:36:46.943Z</time></trkpt><trkpt lat="45.7725192" lon="11.6115114"><ele>422.0</ele><time>2026-04-25T14:36:47.943Z</time></trkpt><trkpt lat="45.7725802" lon="11.6115838"><ele>422.0</ele><time>2026-04-25T14:36:48.943Z</time></trkpt><trkpt lat="45.7726398" lon="11.6116599"><ele>422.0</ele><time>2026-04-25T14:36:49.943Z</time></trkpt><trkpt lat="45.772696" lon="11.6117367"><ele>422.0</ele><time>2026-04-25T14:36:50.943Z</time></trkpt><trkpt lat="45.7727477" lon="11.6118089"><ele>422.0</ele><time>2026-04-25T14:36:51.944Z</time></trkpt><trkpt lat="45.7728007" lon="11.6118759"><ele>422.0</ele><time>2026-04-25T14:36:52.943Z</time></trkpt><trkpt lat="45.7728482" lon="11.6119395"><ele>422.0</ele><time>2026-04-25T14:36:53.943Z</time></trkpt><trkpt lat="45.7729034" lon="11.6120148"><ele>422.0</ele><time>2026-04-25T14:36:54.943Z</time></trkpt><trkpt lat="45.7729533" lon="11.6120865"><ele>422.6</ele><time>2026-04-25T14:36:55.943Z</time></trkpt><trkpt lat="45.7729983" lon="11.612159"><ele>423.20000000000005</ele><time>2026-04-25T14:36:56.943Z</time></trkpt><trkpt lat="45.773042" lon="11.6122245"><ele>423.8</ele><time>2026-04-25T14:36:57.943Z</time></trkpt><trkpt lat="45.7731319" lon="11.6123294"><ele>424.4</ele><time>2026-04-25T14:36:59.943Z</time></trkpt><trkpt lat="45.7732142" lon="11.6124425"><ele>425.0</ele><time>2026-04-25T14:37:01.944Z</time></trkpt><trkpt lat="45.7732897" lon="11.6125552"><ele>425.0</ele><time>2026-04-25T14:37:03.943Z</time></trkpt><trkpt lat="45.7733714" lon="11.6126604"><ele>425.0</ele><time>2026-04-25T14:37:05.943Z</time></trkpt><trkpt lat="45.7734376" lon="11.6127534"><ele>425.0</ele><time>2026-04-25T14:37:07.943Z</time></trkpt><trkpt lat="45.7735074" lon="11.6128384"><ele>425.0</ele><time>2026-04-25T14:37:09.943Z</time></trkpt><trkpt lat="45.7735757" lon="11.6129211"><ele>425.0</ele><time>2026-04-25T14:37:11.944Z</time></trkpt><trkpt lat="45.7736406" lon="11.6129745"><ele>425.42857142857144</ele><time>2026-04-25T14:37:13.943Z</time></trkpt><trkpt lat="45.7737108" lon="11.6130079"><ele>425.85714285714283</ele><time>2026-04-25T14:37:15.943Z</time></trkpt><trkpt lat="45.7737738" lon="11.6130509"><ele>426.28571428571433</ele><time>2026-04-25T14:37:18.943Z</time></trkpt><trkpt lat="45.773833" lon="11.613111"><ele>426.7142857142857</ele><time>2026-04-25T14:37:22.943Z</time></trkpt><trkpt lat="45.7739089" lon="11.6131382"><ele>427.14285714285717</ele><time>2026-04-25T14:37:50.943Z</time></trkpt><trkpt lat="45.773966" lon="11.6132083"><ele>427.5714285714286</ele><time>2026-04-25T14:37:53.944Z</time></trkpt><trkpt lat="45.7740086" lon="11.6132904"><ele>428.0</ele><time>2026-04-25T14:37:56.943Z</time></trkpt><trkpt lat="45.7740623" lon="11.6133765"><ele>427.99999999999994</ele><time>2026-04-25T14:38:54.945Z</time></trkpt><trkpt lat="45.7739981" lon="11.6134936"><ele>428.0</ele><time>2026-04-25T14:38:59.944Z</time></trkpt><trkpt lat="45.7739343" lon="11.6135397"><ele>428.0</ele><time>2026-04-25T14:39:01.944Z</time></trkpt><trkpt lat="45.7738981" lon="11.6136167"><ele>428.0</ele><time>2026-04-25T14:39:04.945Z</time></trkpt><trkpt lat="45.7738464" lon="11.6136942"><ele>427.99999999999994</ele><time>2026-04-25T14:39:08.944Z</time></trkpt><trkpt lat="45.7738036" lon="11.6137804"><ele>428.0</ele><time>2026-04-25T14:39:19.945Z</time></trkpt><trkpt lat="45.7738004" lon="11.6138857"><ele>428.00000000000006</ele><time>2026-04-25T14:39:23.945Z</time></trkpt><trkpt lat="45.7738531" lon="11.6138351"><ele>428.0</ele><time>2026-04-25T14:39:27.945Z</time></trkpt><trkpt lat="45.7739026" lon="11.6137777"><ele>428.0</ele><time>2026-04-25T14:39:31.945Z</time></trkpt><trkpt lat="45.7739467" lon="11.6137091"><ele>428.0</ele><time>2026-04-25T14:39:35.945Z</time></trkpt><trkpt lat="45.7739821" lon="11.6136137"><ele>428.0</ele><time>2026-04-25T14:39:37.945Z</time></trkpt><trkpt lat="45.7739814" lon="11.6134979"><ele>428.00000000000006</ele><time>2026-04-25T14:39:40.946Z</time></trkpt><trkpt lat="45.7739268" lon="11.6135702"><ele>428.0</ele><time>2026-04-25T14:42:36.972Z</time></trkpt><trkpt lat="45.7738874" lon="11.6136738"><ele>428.66666666666663</ele><time>2026-04-25T14:42:41Z</time></trkpt><trkpt lat="45.77382" lon="11.6137149"><ele>429.3333333333333</ele><time>2026-04-25T14:43:09.943Z</time></trkpt><trkpt lat="45.7737745" lon="11.6137971"><ele>430.0</ele><time>2026-04-25T14:43:13.977Z</time></trkpt><trkpt lat="45.7737682" lon="11.6139217"><ele>430.66666666666663</ele><time>2026-04-25T14:43:19.012Z</time></trkpt><trkpt lat="45.7737668" lon="11.6140553"><ele>431.3333333333333</ele><time>2026-04-25T14:43:21.948Z</time></trkpt><trkpt lat="45.7737594" lon="11.6141915"><ele>432.0</ele><time>2026-04-25T14:43:24.922Z</time></trkpt><trkpt lat="45.7737701" lon="11.6143009"><ele>432.0</ele><time>2026-04-25T14:43:26.966Z</time></trkpt><trkpt lat="45.7737855" lon="11.6144202"><ele>432.00000000000006</ele><time>2026-04-25T14:43:29.024Z</time></trkpt><trkpt lat="45.7737903" lon="11.6145403"><ele>432.00000000000006</ele><time>2026-04-25T14:43:30.995Z</time></trkpt><trkpt lat="45.7737935" lon="11.614659"><ele>432.0</ele><time>2026-04-25T14:43:33.008Z</time></trkpt><trkpt lat="45.7738146" lon="11.6147811"><ele>432.0</ele><time>2026-04-25T14:43:34.948Z</time></trkpt><trkpt lat="45.7738779" lon="11.6149161"><ele>431.8333333333333</ele><time>2026-04-25T14:43:37.948Z</time></trkpt><trkpt lat="45.7738932" lon="11.6150202"><ele>431.66666666666663</ele><time>2026-04-25T14:43:41.948Z</time></trkpt><trkpt lat="45.7739314" lon="11.6151246"><ele>431.5</ele><time>2026-04-25T14:43:45.948Z</time></trkpt><trkpt lat="45.773958" lon="11.6152329"><ele>431.3333333333333</ele><time>2026-04-25T14:43:49.948Z</time></trkpt><trkpt lat="45.7739914" lon="11.6153347"><ele>431.16666666666663</ele><time>2026-04-25T14:43:53.948Z</time></trkpt><trkpt lat="45.7740195" lon="11.6154347"><ele>431.0</ele><time>2026-04-25T14:43:57.948Z</time></trkpt><trkpt lat="45.7740494" lon="11.6155264"><ele>430.99999999999994</ele><time>2026-04-25T14:44:01.948Z</time></trkpt><trkpt lat="45.7740803" lon="11.6156251"><ele>431.0</ele><time>2026-04-25T14:44:05.948Z</time></trkpt><trkpt lat="45.7741241" lon="11.6157073"><ele>431.0</ele><time>2026-04-25T14:44:09.948Z</time></trkpt><trkpt lat="45.7741691" lon="11.6158002"><ele>431.0</ele><time>2026-04-25T14:44:13.948Z</time></trkpt><trkpt lat="45.7742079" lon="11.6158966"><ele>430.99999999999994</ele><time>2026-04-25T14:44:16.948Z</time></trkpt><trkpt lat="45.7742373" lon="11.6160041"><ele>431.0</ele><time>2026-04-25T14:44:19.948Z</time></trkpt><trkpt lat="45.7742549" lon="11.6161002"><ele>429.8571428571429</ele><time>2026-04-25T14:44:22.948Z</time></trkpt><trkpt lat="45.77425" lon="11.6162032"><ele>428.71428571428567</ele><time>2026-04-25T14:44:25.948Z</time></trkpt><trkpt lat="45.7742566" lon="11.6163166"><ele>427.57142857142856</ele><time>2026-04-25T14:44:28.948Z</time></trkpt><trkpt lat="45.774256" lon="11.6164163"><ele>426.42857142857144</ele><time>2026-04-25T14:44:31.949Z</time></trkpt><trkpt lat="45.774272" lon="11.6165244"><ele>425.28571428571433</ele><time>2026-04-25T14:44:34.95Z</time></trkpt><trkpt lat="45.7742997" lon="11.6166073"><ele>424.1428571428571</ele><time>2026-04-25T14:44:38.949Z</time></trkpt><trkpt lat="45.7743276" lon="11.6166943"><ele>423.0</ele><time>2026-04-25T14:44:42.949Z</time></trkpt><trkpt lat="45.7743567" lon="11.6167782"><ele>427.71428571428567</ele><time>2026-04-25T14:44:46.949Z</time></trkpt><trkpt lat="45.7744042" lon="11.6168441"><ele>432.42857142857144</ele><time>2026-04-25T14:44:50.949Z</time></trkpt><trkpt lat="45.774434" lon="11.6169329"><ele>437.1428571428571</ele><time>2026-04-25T14:44:54.95Z</time></trkpt><trkpt lat="45.7744388" lon="11.6170311"><ele>441.85714285714283</ele><time>2026-04-25T14:45:15.949Z</time></trkpt><trkpt lat="45.7744545" lon="11.6171282"><ele>446.57142857142856</ele><time>2026-04-25T14:45:19.949Z</time></trkpt><trkpt lat="45.774472" lon="11.6172341"><ele>451.2857142857143</ele><time>2026-04-25T14:45:24.949Z</time></trkpt><trkpt lat="45.7744872" lon="11.6173408"><ele>456.0</ele><time>2026-04-25T14:45:30.949Z</time></trkpt><trkpt lat="45.7745094" lon="11.617448"><ele>456.0</ele><time>2026-04-25T14:45:35.949Z</time></trkpt><trkpt lat="45.7745602" lon="11.6175153"><ele>455.99999999999994</ele><time>2026-04-25T14:45:39.949Z</time></trkpt><trkpt lat="45.7745809" lon="11.6176142"><ele>456.0</ele><time>2026-04-25T14:45:45.949Z</time></trkpt><trkpt lat="45.7746257" lon="11.6176797"><ele>456.0</ele><time>2026-04-25T14:45:51.95Z</time></trkpt><trkpt lat="45.7746669" lon="11.6177816"><ele>455.99999999999994</ele><time>2026-04-25T14:45:57.95Z</time></trkpt><trkpt lat="45.7747079" lon="11.6178692"><ele>456.0</ele><time>2026-04-25T14:46:02.95Z</time></trkpt><trkpt lat="45.7747139" lon="11.6179675"><ele>456.0</ele><time>2026-04-25T14:46:09.951Z</time></trkpt><trkpt lat="45.7747454" lon="11.6180465"><ele>455.4285714285714</ele><time>2026-04-25T14:46:13.95Z</time></trkpt><trkpt lat="45.7747588" lon="11.6181538"><ele>454.8571428571428</ele><time>2026-04-25T14:46:18.95Z</time></trkpt><trkpt lat="45.7747745" lon="11.6182425"><ele>454.2857142857143</ele><time>2026-04-25T14:46:23.95Z</time></trkpt><trkpt lat="45.7747935" lon="11.6183338"><ele>453.71428571428567</ele><time>2026-04-25T14:46:30.95Z</time></trkpt><trkpt lat="45.7748302" lon="11.6184257"><ele>453.1428571428571</ele><time>2026-04-25T14:46:36.95Z</time></trkpt><trkpt lat="45.7748662" lon="11.6185163"><ele>452.57142857142856</ele><time>2026-04-25T14:46:42.95Z</time></trkpt><trkpt lat="45.7748704" lon="11.618608"><ele>452.0</ele><time>2026-04-25T14:46:56.95Z</time></trkpt><trkpt lat="45.7749003" lon="11.6187036"><ele>450.99999999999994</ele><time>2026-04-25T14:47:00.95Z</time></trkpt><trkpt lat="45.7749226" lon="11.6187935"><ele>450.0</ele><time>2026-04-25T14:47:04.95Z</time></trkpt><trkpt lat="45.7749502" lon="11.6188998"><ele>449.0</ele><time>2026-04-25T14:47:08.951Z</time></trkpt><trkpt lat="45.7749854" lon="11.6189932"><ele>448.0</ele><time>2026-04-25T14:47:12.951Z</time></trkpt><trkpt lat="45.7750024" lon="11.6191071"><ele>446.99999999999994</ele><time>2026-04-25T14:47:16.951Z</time></trkpt><trkpt lat="45.7750176" lon="11.6192221"><ele>446.0</ele><time>2026-04-25T14:47:20.951Z</time></trkpt><trkpt lat="45.7750294" lon="11.6193176"><ele>446.0</ele><time>2026-04-25T14:47:23.952Z</time></trkpt><trkpt lat="45.7750347" lon="11.6194123"><ele>446.0</ele><time>2026-04-25T14:47:26.951Z</time></trkpt><trkpt lat="45.7750416" lon="11.619515"><ele>446.0</ele><time>2026-04-25T14:47:29.952Z</time></trkpt><trkpt lat="45.7750625" lon="11.6196205"><ele>446.0</ele><time>2026-04-25T14:47:33.002Z</time></trkpt><trkpt lat="45.7750925" lon="11.6197361"><ele>446.0</ele><time>2026-04-25T14:47:36.023Z</time></trkpt><trkpt lat="45.775128" lon="11.619828"><ele>446.0</ele><time>2026-04-25T14:47:37.951Z</time></trkpt><trkpt lat="45.7751639" lon="11.6199198"><ele>446.0</ele><time>2026-04-25T14:47:40.043Z</time></trkpt><trkpt lat="45.7751994" lon="11.6200423"><ele>450.16666666666663</ele><time>2026-04-25T14:47:42.97Z</time></trkpt><trkpt lat="45.7752256" lon="11.620159"><ele>454.3333333333333</ele><time>2026-04-25T14:47:45.951Z</time></trkpt><trkpt lat="45.7752365" lon="11.6202607"><ele>458.5</ele><time>2026-04-25T14:47:47.951Z</time></trkpt><trkpt lat="45.7752415" lon="11.6203731"><ele>462.66666666666663</ele><time>2026-04-25T14:47:49.951Z</time></trkpt><trkpt lat="45.7752386" lon="11.6204902"><ele>466.8333333333333</ele><time>2026-04-25T14:47:51.951Z</time></trkpt><trkpt lat="45.7752326" lon="11.6206255"><ele>471.0</ele><time>2026-04-25T14:47:53.951Z</time></trkpt><trkpt lat="45.7752229" lon="11.6207904"><ele>471.0</ele><time>2026-04-25T14:47:55.951Z</time></trkpt><trkpt lat="45.7752291" lon="11.6208838"><ele>471.0</ele><time>2026-04-25T14:47:56.951Z</time></trkpt><trkpt lat="45.7752743" lon="11.6210499"><ele>471.0</ele><time>2026-04-25T14:47:58.951Z</time></trkpt><trkpt lat="45.7753353" lon="11.6211994"><ele>471.0</ele><time>2026-04-25T14:48:00.952Z</time></trkpt><trkpt lat="45.7753786" lon="11.6213392"><ele>471.0</ele><time>2026-04-25T14:48:02.951Z</time></trkpt><trkpt lat="45.7753806" lon="11.6214894"><ele>470.5</ele><time>2026-04-25T14:48:04.951Z</time></trkpt><trkpt lat="45.7753798" lon="11.6216188"><ele>470.0</ele><time>2026-04-25T14:48:06.951Z</time></trkpt><trkpt lat="45.775376" lon="11.6217191"><ele>469.5</ele><time>2026-04-25T14:48:08.951Z</time></trkpt><trkpt lat="45.7753773" lon="11.6218376"><ele>469.0</ele><time>2026-04-25T14:48:10.951Z</time></trkpt><trkpt lat="45.7753733" lon="11.6219323"><ele>468.5</ele><time>2026-04-25T14:48:12.951Z</time></trkpt><trkpt lat="45.7753681" lon="11.6220409"><ele>468.0</ele><time>2026-04-25T14:48:14.951Z</time></trkpt><trkpt lat="45.7753458" lon="11.6221708"><ele>468.0</ele><time>2026-04-25T14:48:16.951Z</time></trkpt><trkpt lat="45.7753199" lon="11.6222966"><ele>467.99999999999994</ele><time>2026-04-25T14:48:18.951Z</time></trkpt><trkpt lat="45.7753101" lon="11.6224549"><ele>467.99999999999994</ele><time>2026-04-25T14:48:20.951Z</time></trkpt><trkpt lat="45.7753337" lon="11.6226183"><ele>468.0</ele><time>2026-04-25T14:48:22.952Z</time></trkpt><trkpt lat="45.7753569" lon="11.6227593"><ele>468.0</ele><time>2026-04-25T14:48:24.952Z</time></trkpt><trkpt lat="45.775364" lon="11.6228815"><ele>467.2</ele><time>2026-04-25T14:48:26.952Z</time></trkpt><trkpt lat="45.7753589" lon="11.6230284"><ele>466.4</ele><time>2026-04-25T14:48:28.952Z</time></trkpt><trkpt lat="45.7753372" lon="11.623181"><ele>465.59999999999997</ele><time>2026-04-25T14:48:30.952Z</time></trkpt><trkpt lat="45.7753217" lon="11.623347"><ele>464.79999999999995</ele><time>2026-04-25T14:48:32.952Z</time></trkpt><trkpt lat="45.775304" lon="11.6234924"><ele>464.0</ele><time>2026-04-25T14:48:34.952Z</time></trkpt><trkpt lat="45.7752621" lon="11.623609"><ele>463.16666666666663</ele><time>2026-04-25T14:48:36.953Z</time></trkpt><trkpt lat="45.775224" lon="11.6237119"><ele>462.3333333333333</ele><time>2026-04-25T14:48:38.952Z</time></trkpt><trkpt lat="45.7751939" lon="11.6238383"><ele>461.5</ele><time>2026-04-25T14:48:41.952Z</time></trkpt><trkpt lat="45.775173" lon="11.6239318"><ele>460.66666666666663</ele><time>2026-04-25T14:48:43.952Z</time></trkpt><trkpt lat="45.7751472" lon="11.6240543"><ele>459.8333333333333</ele><time>2026-04-25T14:48:46.952Z</time></trkpt><trkpt lat="45.7751734" lon="11.6241724"><ele>459.0</ele><time>2026-04-25T14:48:49.952Z</time></trkpt><trkpt lat="45.7752231" lon="11.6242549"><ele>459.0</ele><time>2026-04-25T14:48:52.952Z</time></trkpt><trkpt lat="45.7752828" lon="11.624329"><ele>459.0</ele><time>2026-04-25T14:48:55.952Z</time></trkpt><trkpt lat="45.7753428" lon="11.6243904"><ele>459.0</ele><time>2026-04-25T14:48:58.952Z</time></trkpt><trkpt lat="45.7753918" lon="11.6244487"><ele>459.0</ele><time>2026-04-25T14:49:01.952Z</time></trkpt><trkpt lat="45.7754177" lon="11.6245743"><ele>459.0</ele><time>2026-04-25T14:49:04.952Z</time></trkpt><trkpt lat="45.775412" lon="11.6246692"><ele>459.0</ele><time>2026-04-25T14:49:06.952Z</time></trkpt><trkpt lat="45.7753899" lon="11.6247632"><ele>459.0</ele><time>2026-04-25T14:49:08.953Z</time></trkpt><trkpt lat="45.7753522" lon="11.6248789"><ele>458.8333333333333</ele><time>2026-04-25T14:49:11.952Z</time></trkpt><trkpt lat="45.7753166" lon="11.6250094"><ele>458.66666666666663</ele><time>2026-04-25T14:49:14.952Z</time></trkpt><trkpt lat="45.7753027" lon="11.6251142"><ele>458.5</ele><time>2026-04-25T14:49:16.952Z</time></trkpt><trkpt lat="45.775307" lon="11.6252271"><ele>458.3333333333333</ele><time>2026-04-25T14:49:18.952Z</time></trkpt><trkpt lat="45.7753119" lon="11.6253516"><ele>458.16666666666663</ele><time>2026-04-25T14:49:20.952Z</time></trkpt><trkpt lat="45.7753281" lon="11.6254885"><ele>458.0</ele><time>2026-04-25T14:49:22.952Z</time></trkpt><trkpt lat="45.7753737" lon="11.6256342"><ele>456.5</ele><time>2026-04-25T14:49:24.952Z</time></trkpt><trkpt lat="45.7754347" lon="11.6257718"><ele>455.0</ele><time>2026-04-25T14:49:26.952Z</time></trkpt><trkpt lat="45.7755054" lon="11.625909"><ele>453.5</ele><time>2026-04-25T14:49:28.953Z</time></trkpt><trkpt lat="45.7755744" lon="11.626044"><ele>452.0</ele><time>2026-04-25T14:49:30.952Z</time></trkpt><trkpt lat="45.775638" lon="11.6261869"><ele>449.99999999999994</ele><time>2026-04-25T14:49:32.952Z</time></trkpt><trkpt lat="45.7756634" lon="11.6262695"><ele>448.0</ele><time>2026-04-25T14:49:33.952Z</time></trkpt><trkpt lat="45.7756998" lon="11.6264402"><ele>446.0</ele><time>2026-04-25T14:49:35.953Z</time></trkpt><trkpt lat="45.7757183" lon="11.6265304"><ele>444.0</ele><time>2026-04-25T14:49:36.952Z</time></trkpt><trkpt lat="45.7757388" lon="11.6266265"><ele>441.99999999999994</ele><time>2026-04-25T14:49:37.953Z</time></trkpt><trkpt lat="45.7757562" lon="11.6267158"><ele>440.0</ele><time>2026-04-25T14:49:38.952Z</time></trkpt><trkpt lat="45.7757997" lon="11.6268859"><ele>439.99999999999994</ele><time>2026-04-25T14:49:40.953Z</time></trkpt><trkpt lat="45.775826" lon="11.6269759"><ele>440.0</ele><time>2026-04-25T14:49:41.953Z</time></trkpt><trkpt lat="45.7758545" lon="11.6270696"><ele>440.0</ele><time>2026-04-25T14:49:42.953Z</time></trkpt><trkpt lat="45.7758831" lon="11.6271617"><ele>440.0</ele><time>2026-04-25T14:49:43.954Z</time></trkpt><trkpt lat="45.7759081" lon="11.6272487"><ele>439.99999999999994</ele><time>2026-04-25T14:49:44.953Z</time></trkpt><trkpt lat="45.7759498" lon="11.6274086"><ele>440.0</ele><time>2026-04-25T14:49:46.953Z</time></trkpt><trkpt lat="45.7759865" lon="11.6275348"><ele>439.66666666666663</ele><time>2026-04-25T14:49:48.953Z</time></trkpt><trkpt lat="45.776034" lon="11.627652"><ele>439.3333333333333</ele><time>2026-04-25T14:49:50.953Z</time></trkpt><trkpt lat="45.7760693" lon="11.627766"><ele>439.0</ele><time>2026-04-25T14:49:52.954Z</time></trkpt><trkpt lat="45.7760581" lon="11.6278911"><ele>438.66666666666663</ele><time>2026-04-25T14:49:54.953Z</time></trkpt><trkpt lat="45.7759935" lon="11.6279724"><ele>438.3333333333333</ele><time>2026-04-25T14:49:56.953Z</time></trkpt><trkpt lat="45.7759359" lon="11.6280459"><ele>438.0</ele><time>2026-04-25T14:50:00.954Z</time></trkpt><trkpt lat="45.7758959" lon="11.6281289"><ele>438.0</ele><time>2026-04-25T14:50:04.954Z</time></trkpt><trkpt lat="45.7758825" lon="11.6282337"><ele>438.0</ele><time>2026-04-25T14:50:08.953Z</time></trkpt><trkpt lat="45.7758987" lon="11.6283496"><ele>438.0</ele><time>2026-04-25T14:50:12.953Z</time></trkpt><trkpt lat="45.7759199" lon="11.6284551"><ele>438.0</ele><time>2026-04-25T14:50:15.953Z</time></trkpt><trkpt lat="45.7759406" lon="11.6285775"><ele>438.0</ele><time>2026-04-25T14:50:18.953Z</time></trkpt><trkpt lat="45.7759671" lon="11.6286751"><ele>438.0</ele><time>2026-04-25T14:50:20.954Z</time></trkpt><trkpt lat="45.7759997" lon="11.6287728"><ele>438.5</ele><time>2026-04-25T14:50:22.953Z</time></trkpt><trkpt lat="45.7760499" lon="11.6288871"><ele>439.0</ele><time>2026-04-25T14:50:24.953Z</time></trkpt><trkpt lat="45.7760858" lon="11.6289734"><ele>439.5</ele><time>2026-04-25T14:50:25.953Z</time></trkpt><trkpt lat="45.7761278" lon="11.6290526"><ele>440.0</ele><time>2026-04-25T14:50:26.953Z</time></trkpt><trkpt lat="45.7761755" lon="11.6291308"><ele>440.5</ele><time>2026-04-25T14:50:27.954Z</time></trkpt><trkpt lat="45.776219" lon="11.6291971"><ele>441.0</ele><time>2026-04-25T14:50:28.953Z</time></trkpt><trkpt lat="45.7762779" lon="11.629309"><ele>441.0</ele><time>2026-04-25T14:50:30.953Z</time></trkpt><trkpt lat="45.7763531" lon="11.6293577"><ele>441.0</ele><time>2026-04-25T14:50:32.953Z</time></trkpt><trkpt lat="45.7764552" lon="11.6293222"><ele>441.0</ele><time>2026-04-25T14:50:34.953Z</time></trkpt><trkpt lat="45.77656" lon="11.6292578"><ele>441.0</ele><time>2026-04-25T14:50:36.953Z</time></trkpt><trkpt lat="45.7766626" lon="11.6292692"><ele>441.0</ele><time>2026-04-25T14:50:38.953Z</time></trkpt><trkpt lat="45.7767302" lon="11.6293764"><ele>441.0</ele><time>2026-04-25T14:50:40.953Z</time></trkpt><trkpt lat="45.7768014" lon="11.6294177"><ele>441.0</ele><time>2026-04-25T14:50:43.953Z</time></trkpt><trkpt lat="45.7768784" lon="11.6294456"><ele>441.0</ele><time>2026-04-25T14:50:46.954Z</time></trkpt><trkpt lat="45.7769588" lon="11.6294553"><ele>441.0</ele><time>2026-04-25T14:50:49.953Z</time></trkpt><trkpt lat="45.7770381" lon="11.6294831"><ele>441.0</ele><time>2026-04-25T14:50:52.955Z</time></trkpt><trkpt lat="45.7770631" lon="11.6295668"><ele>441.0</ele><time>2026-04-25T14:50:56.954Z</time></trkpt><trkpt lat="45.777003" lon="11.6296472"><ele>440.2857142857143</ele><time>2026-04-25T14:51:00.955Z</time></trkpt><trkpt lat="45.7769452" lon="11.6297127"><ele>439.57142857142856</ele><time>2026-04-25T14:51:04.954Z</time></trkpt><trkpt lat="45.7768851" lon="11.6297411"><ele>438.8571428571429</ele><time>2026-04-25T14:51:07.955Z</time></trkpt><trkpt lat="45.7768343" lon="11.6298072"><ele>438.1428571428571</ele><time>2026-04-25T14:51:10.954Z</time></trkpt><trkpt lat="45.7767854" lon="11.6298683"><ele>437.42857142857144</ele><time>2026-04-25T14:51:14.954Z</time></trkpt><trkpt lat="45.7767805" lon="11.629963"><ele>436.7142857142857</ele><time>2026-04-25T14:51:17.955Z</time></trkpt><trkpt lat="45.7768043" lon="11.6300494"><ele>436.0</ele><time>2026-04-25T14:51:20.954Z</time></trkpt><trkpt lat="45.7768272" lon="11.6301432"><ele>438.57142857142856</ele><time>2026-04-25T14:51:23.954Z</time></trkpt><trkpt lat="45.7768671" lon="11.6302138"><ele>441.14285714285717</ele><time>2026-04-25T14:51:26.954Z</time></trkpt><trkpt lat="45.7769086" lon="11.6303137"><ele>443.7142857142857</ele><time>2026-04-25T14:51:30.954Z</time></trkpt><trkpt lat="45.7769554" lon="11.6303924"><ele>446.28571428571433</ele><time>2026-04-25T14:51:34.954Z</time></trkpt><trkpt lat="45.7770161" lon="11.630442"><ele>448.8571428571429</ele><time>2026-04-25T14:51:38.954Z</time></trkpt><trkpt lat="45.7770836" lon="11.630502"><ele>451.42857142857144</ele><time>2026-04-25T14:51:42.954Z</time></trkpt><trkpt lat="45.7771524" lon="11.630557"><ele>454.0</ele><time>2026-04-25T14:51:46.954Z</time></trkpt><trkpt lat="45.7772117" lon="11.6305893"><ele>454.0</ele><time>2026-04-25T14:51:50.954Z</time></trkpt><trkpt lat="45.7772742" lon="11.6306316"><ele>454.00000000000006</ele><time>2026-04-25T14:51:54.954Z</time></trkpt><trkpt lat="45.7773399" lon="11.6306609"><ele>454.0</ele><time>2026-04-25T14:51:57.954Z</time></trkpt><trkpt lat="45.7773857" lon="11.6307321"><ele>454.0</ele><time>2026-04-25T14:52:01.954Z</time></trkpt><trkpt lat="45.7774413" lon="11.6307954"><ele>454.00000000000006</ele><time>2026-04-25T14:52:05.955Z</time></trkpt><trkpt lat="45.7774713" lon="11.6308855"><ele>454.0</ele><time>2026-04-25T14:52:09.955Z</time></trkpt><trkpt lat="45.7775086" lon="11.6309693"><ele>454.0</ele><time>2026-04-25T14:52:13.955Z</time></trkpt><trkpt lat="45.7775329" lon="11.6310549"><ele>453.42857142857144</ele><time>2026-04-25T14:52:17.955Z</time></trkpt><trkpt lat="45.7775724" lon="11.6311496"><ele>452.8571428571429</ele><time>2026-04-25T14:52:21.955Z</time></trkpt><trkpt lat="45.777601" lon="11.6312318"><ele>452.28571428571433</ele><time>2026-04-25T14:52:25.955Z</time></trkpt><trkpt lat="45.7776391" lon="11.6313245"><ele>451.7142857142858</ele><time>2026-04-25T14:52:29.955Z</time></trkpt><trkpt lat="45.7776695" lon="11.6314226"><ele>451.14285714285717</ele><time>2026-04-25T14:52:33.955Z</time></trkpt><trkpt lat="45.7776942" lon="11.6315183"><ele>450.57142857142867</ele><time>2026-04-25T14:52:37.955Z</time></trkpt><trkpt lat="45.7777236" lon="11.631601"><ele>450.00000000000006</ele><time>2026-04-25T14:52:41.955Z</time></trkpt><trkpt lat="45.7777468" lon="11.6317028"><ele>454.7142857142858</ele><time>2026-04-25T14:52:46.955Z</time></trkpt><trkpt lat="45.7777754" lon="11.6317862"><ele>459.42857142857144</ele><time>2026-04-25T14:52:50.955Z</time></trkpt><trkpt lat="45.7778117" lon="11.6318724"><ele>464.14285714285717</ele><time>2026-04-25T14:52:55.955Z</time></trkpt><trkpt lat="45.7778434" lon="11.6319686"><ele>468.8571428571429</ele><time>2026-04-25T14:53:01.955Z</time></trkpt><trkpt lat="45.7778671" lon="11.6320568"><ele>473.57142857142856</ele><time>2026-04-25T14:53:06.956Z</time></trkpt><trkpt lat="45.7778861" lon="11.6321502"><ele>478.2857142857143</ele><time>2026-04-25T14:53:11.955Z</time></trkpt><trkpt lat="45.7779071" lon="11.632238"><ele>483.0</ele><time>2026-04-25T14:53:14.955Z</time></trkpt><trkpt lat="45.7779244" lon="11.6323316"><ele>483.0</ele><time>2026-04-25T14:53:18.956Z</time></trkpt><trkpt lat="45.7779492" lon="11.6324352"><ele>483.0</ele><time>2026-04-25T14:53:23.956Z</time></trkpt><trkpt lat="45.7779847" lon="11.6325123"><ele>483.0</ele><time>2026-04-25T14:53:29.956Z</time></trkpt><trkpt lat="45.7780116" lon="11.6326054"><ele>483.0</ele><time>2026-04-25T14:53:35.956Z</time></trkpt><trkpt lat="45.778059" lon="11.6326943"><ele>483.0</ele><time>2026-04-25T14:53:41.957Z</time></trkpt><trkpt lat="45.7781033" lon="11.6327814"><ele>483.0</ele><time>2026-04-25T14:53:44.956Z</time></trkpt><trkpt lat="45.7781146" lon="11.6328875"><ele>483.0</ele><time>2026-04-25T14:53:48.956Z</time></trkpt><trkpt lat="45.7781283" lon="11.6329843"><ele>481.8571428571429</ele><time>2026-04-25T14:53:52.956Z</time></trkpt><trkpt lat="45.7781433" lon="11.633076"><ele>480.7142857142857</ele><time>2026-04-25T14:53:57.028Z</time></trkpt><trkpt lat="45.7781633" lon="11.6331731"><ele>479.57142857142856</ele><time>2026-04-25T14:54:01.961Z</time></trkpt><trkpt lat="45.7781769" lon="11.6332813"><ele>478.42857142857144</ele><time>2026-04-25T14:54:06.995Z</time></trkpt><trkpt lat="45.7782058" lon="11.6333821"><ele>477.28571428571433</ele><time>2026-04-25T14:54:12.03Z</time></trkpt><trkpt lat="45.7782387" lon="11.6334697"><ele>476.14285714285717</ele><time>2026-04-25T14:54:15.956Z</time></trkpt><trkpt lat="45.7782568" lon="11.6335644"><ele>475.0</ele><time>2026-04-25T14:54:19.982Z</time></trkpt><trkpt lat="45.7782875" lon="11.6336445"><ele>477.42857142857144</ele><time>2026-04-25T14:54:24.009Z</time></trkpt><trkpt lat="45.7783175" lon="11.6337452"><ele>479.8571428571429</ele><time>2026-04-25T14:54:28.956Z</time></trkpt><trkpt lat="45.7783454" lon="11.6338438"><ele>482.28571428571433</ele><time>2026-04-25T14:54:33.976Z</time></trkpt><trkpt lat="45.7783814" lon="11.6339294"><ele>484.7142857142858</ele><time>2026-04-25T14:54:38.003Z</time></trkpt><trkpt lat="45.7784244" lon="11.6340246"><ele>487.14285714285717</ele><time>2026-04-25T14:54:42.03Z</time></trkpt><trkpt lat="45.7784495" lon="11.6341227"><ele>489.57142857142867</ele><time>2026-04-25T14:54:45.957Z</time></trkpt><trkpt lat="45.7784953" lon="11.6341847"><ele>492.00000000000006</ele><time>2026-04-25T14:54:49.985Z</time></trkpt><trkpt lat="45.7785499" lon="11.6342395"><ele>492.00000000000006</ele><time>2026-04-25T14:54:54.011Z</time></trkpt><trkpt lat="45.7786118" lon="11.6342648"><ele>492.0</ele><time>2026-04-25T14:54:58.038Z</time></trkpt><trkpt lat="45.7786798" lon="11.6342921"><ele>492.00000000000006</ele><time>2026-04-25T14:55:02.018Z</time></trkpt><trkpt lat="45.7787412" lon="11.6343355"><ele>492.00000000000006</ele><time>2026-04-25T14:55:05.991Z</time></trkpt><trkpt lat="45.7788044" lon="11.6343891"><ele>492.0</ele><time>2026-04-25T14:55:09.957Z</time></trkpt><trkpt lat="45.7788623" lon="11.6344477"><ele>492.00000000000006</ele><time>2026-04-25T14:55:13.97Z</time></trkpt><trkpt lat="45.7789288" lon="11.6344817"><ele>492.00000000000006</ele><time>2026-04-25T14:55:17.997Z</time></trkpt><trkpt lat="45.7789995" lon="11.6345289"><ele>490.57142857142867</ele><time>2026-04-25T14:55:23.031Z</time></trkpt><trkpt lat="45.7790554" lon="11.6345839"><ele>489.14285714285717</ele><time>2026-04-25T14:55:25.957Z</time></trkpt><trkpt lat="45.7790932" lon="11.6346577"><ele>487.7142857142858</ele><time>2026-04-25T14:55:28.971Z</time></trkpt><trkpt lat="45.7790935" lon="11.6347598"><ele>486.28571428571433</ele><time>2026-04-25T14:55:31.991Z</time></trkpt><trkpt lat="45.7790657" lon="11.634854"><ele>484.8571428571429</ele><time>2026-04-25T14:55:35.012Z</time></trkpt><trkpt lat="45.7790193" lon="11.6349487"><ele>483.42857142857144</ele><time>2026-04-25T14:55:38.998Z</time></trkpt><trkpt lat="45.7789783" lon="11.6350432"><ele>482.0</ele><time>2026-04-25T14:55:42.966Z</time></trkpt><trkpt lat="45.778926" lon="11.6351106"><ele>481.99999999999994</ele><time>2026-04-25T14:55:47Z</time></trkpt><trkpt lat="45.7788857" lon="11.6351877"><ele>482.0</ele><time>2026-04-25T14:55:51.027Z</time></trkpt><trkpt lat="45.7788337" lon="11.6352652"><ele>482.0</ele><time>2026-04-25T14:55:54.959Z</time></trkpt><trkpt lat="45.7788024" lon="11.6353609"><ele>482.0</ele><time>2026-04-25T14:55:57.974Z</time></trkpt><trkpt lat="45.7787758" lon="11.6354627"><ele>481.99999999999994</ele><time>2026-04-25T14:56:00.995Z</time></trkpt><trkpt lat="45.7787527" lon="11.6355953"><ele>482.0</ele><time>2026-04-25T14:56:04.015Z</time></trkpt><trkpt lat="45.7787225" lon="11.6357166"><ele>482.7142857142857</ele><time>2026-04-25T14:56:07.036Z</time></trkpt><trkpt lat="45.7786945" lon="11.6358032"><ele>483.42857142857144</ele><time>2026-04-25T14:56:09.958Z</time></trkpt><trkpt lat="45.7786916" lon="11.6359162"><ele>484.14285714285717</ele><time>2026-04-25T14:56:13.982Z</time></trkpt><trkpt lat="45.7786913" lon="11.6360215"><ele>484.8571428571429</ele><time>2026-04-25T14:56:19.016Z</time></trkpt><trkpt lat="45.7787217" lon="11.6359401"><ele>485.57142857142856</ele><time>2026-04-25T14:56:29.99Z</time></trkpt><trkpt lat="45.7787617" lon="11.6358553"><ele>486.28571428571433</ele><time>2026-04-25T14:56:34.017Z</time></trkpt><trkpt lat="45.7787862" lon="11.6357542"><ele>487.0</ele><time>2026-04-25T14:56:38.045Z</time></trkpt><trkpt lat="45.7788127" lon="11.6356492"><ele>487.0</ele><time>2026-04-25T14:56:41.971Z</time></trkpt><trkpt lat="45.7788358" lon="11.6355362"><ele>487.0</ele><time>2026-04-25T14:56:45.998Z</time></trkpt><trkpt lat="45.7788533" lon="11.6354251"><ele>487.0</ele><time>2026-04-25T14:56:50.025Z</time></trkpt><trkpt lat="45.7788576" lon="11.6353346"><ele>487.0</ele><time>2026-04-25T14:56:53.046Z</time></trkpt><trkpt lat="45.7788693" lon="11.6352436"><ele>487.0</ele><time>2026-04-25T14:56:55.965Z</time></trkpt><trkpt lat="45.77891" lon="11.635161"><ele>487.0</ele><time>2026-04-25T14:56:58.986Z</time></trkpt><trkpt lat="45.7789594" lon="11.6350984"><ele>487.0</ele><time>2026-04-25T14:57:02.007Z</time></trkpt><trkpt lat="45.7790084" lon="11.6349991"><ele>486.1666666666667</ele><time>2026-04-25T14:57:06.033Z</time></trkpt><trkpt lat="45.77905" lon="11.6349117"><ele>485.33333333333337</ele><time>2026-04-25T14:57:08.959Z</time></trkpt><trkpt lat="45.7790805" lon="11.6347971"><ele>484.5</ele><time>2026-04-25T14:57:11.973Z</time></trkpt><trkpt lat="45.7790909" lon="11.6346999"><ele>483.66666666666663</ele><time>2026-04-25T14:57:13.986Z</time></trkpt><trkpt lat="45.7790701" lon="11.6345947"><ele>482.8333333333333</ele><time>2026-04-25T14:57:17.007Z</time></trkpt><trkpt lat="45.7791135" lon="11.6346808"><ele>482.0</ele><time>2026-04-25T14:57:43.963Z</time></trkpt><trkpt lat="45.7790418" lon="11.6347044"><ele>481.99999999999994</ele><time>2026-04-25T14:57:45.976Z</time></trkpt><trkpt lat="45.7789788" lon="11.6346645"><ele>482.0</ele><time>2026-04-25T14:57:48.001Z</time></trkpt><trkpt lat="45.7789514" lon="11.6345627"><ele>482.0</ele><time>2026-04-25T14:57:50.003Z</time></trkpt><trkpt lat="45.7788895" lon="11.634476"><ele>482.0</ele><time>2026-04-25T14:57:52.96Z</time></trkpt><trkpt lat="45.7788036" lon="11.6344156"><ele>481.99999999999994</ele><time>2026-04-25T14:57:55.959Z</time></trkpt><trkpt lat="45.7787378" lon="11.6343808"><ele>482.0</ele><time>2026-04-25T14:57:57.959Z</time></trkpt><trkpt lat="45.7786496" lon="11.6343713"><ele>482.0</ele><time>2026-04-25T14:58:00.977Z</time></trkpt><trkpt lat="45.7787117" lon="11.634404"><ele>482.00000000000006</ele><time>2026-04-25T15:03:06.044Z</time></trkpt><trkpt lat="45.7787834" lon="11.634444"><ele>482.0</ele><time>2026-04-25T15:03:09.975Z</time></trkpt><trkpt lat="45.778855" lon="11.6344993"><ele>482.0</ele><time>2026-04-25T15:03:14.036Z</time></trkpt><trkpt lat="45.778905" lon="11.6345642"><ele>482.00000000000006</ele><time>2026-04-25T15:03:16.964Z</time></trkpt><trkpt lat="45.7789624" lon="11.634628"><ele>482.0</ele><time>2026-04-25T15:03:20.983Z</time></trkpt><trkpt lat="45.7790275" lon="11.6346729"><ele>482.0</ele><time>2026-04-25T15:03:26.017Z</time></trkpt><trkpt lat="45.7790926" lon="11.634735"><ele>482.0</ele><time>2026-04-25T15:03:31.964Z</time></trkpt><trkpt lat="45.7791074" lon="11.6348241"><ele>482.00000000000006</ele><time>2026-04-25T15:03:38Z</time></trkpt><trkpt lat="45.7790619" lon="11.6348968"><ele>482.0</ele><time>2026-04-25T15:03:42.026Z</time></trkpt><trkpt lat="45.7790022" lon="11.6349574"><ele>482.0</ele><time>2026-04-25T15:03:45.964Z</time></trkpt><trkpt lat="45.7789616" lon="11.6350396"><ele>482.00000000000006</ele><time>2026-04-25T15:03:49.98Z</time></trkpt><trkpt lat="45.7789329" lon="11.6351203"><ele>482.0</ele><time>2026-04-25T15:03:53.001Z</time></trkpt><trkpt lat="45.7788812" lon="11.6352035"><ele>482.0</ele><time>2026-04-25T15:03:56.025Z</time></trkpt><trkpt lat="45.7788256" lon="11.6353162"><ele>483.0</ele><time>2026-04-25T15:03:59.042Z</time></trkpt><trkpt lat="45.778785" lon="11.6354365"><ele>484.00000000000006</ele><time>2026-04-25T15:04:00.964Z</time></trkpt><trkpt lat="45.7787595" lon="11.6355473"><ele>485.00000000000006</ele><time>2026-04-25T15:04:02.969Z</time></trkpt><trkpt lat="45.778732" lon="11.6356694"><ele>486.0</ele><time>2026-04-25T15:04:04.983Z</time></trkpt><trkpt lat="45.778715" lon="11.6358135"><ele>487.0</ele><time>2026-04-25T15:04:06.996Z</time></trkpt><trkpt lat="45.7787129" lon="11.6360991"><ele>485.33333333333337</ele><time>2026-04-25T15:04:08.964Z</time></trkpt><trkpt lat="45.7787292" lon="11.6361974"><ele>483.6666666666667</ele><time>2026-04-25T15:04:09.964Z</time></trkpt><trkpt lat="45.7787593" lon="11.6362935"><ele>482.0</ele><time>2026-04-25T15:04:10.964Z</time></trkpt><trkpt lat="45.7788116" lon="11.6363867"><ele>480.33333333333337</ele><time>2026-04-25T15:04:11.964Z</time></trkpt><trkpt lat="45.778867" lon="11.63647"><ele>478.6666666666667</ele><time>2026-04-25T15:04:12.965Z</time></trkpt><trkpt lat="45.7789332" lon="11.6365425"><ele>477.0</ele><time>2026-04-25T15:04:13.964Z</time></trkpt><trkpt lat="45.7789981" lon="11.6366113"><ele>477.0</ele><time>2026-04-25T15:04:14.964Z</time></trkpt><trkpt lat="45.7790555" lon="11.6366903"><ele>477.0</ele><time>2026-04-25T15:04:15.964Z</time></trkpt><trkpt lat="45.7790894" lon="11.6367757"><ele>477.0</ele><time>2026-04-25T15:04:16.964Z</time></trkpt><trkpt lat="45.7790391" lon="11.6369331"><ele>477.0</ele><time>2026-04-25T15:04:18.964Z</time></trkpt><trkpt lat="45.7789978" lon="11.6370036"><ele>477.0</ele><time>2026-04-25T15:04:19.964Z</time></trkpt><trkpt lat="45.7789662" lon="11.6371155"><ele>477.0</ele><time>2026-04-25T15:04:21.965Z</time></trkpt><trkpt lat="45.7789535" lon="11.6372195"><ele>477.0</ele><time>2026-04-25T15:04:23.965Z</time></trkpt><trkpt lat="45.7789377" lon="11.6373504"><ele>477.0</ele><time>2026-04-25T15:04:26.965Z</time></trkpt><trkpt lat="45.7789346" lon="11.6374497"><ele>477.0</ele><time>2026-04-25T15:04:28.965Z</time></trkpt><trkpt lat="45.7789314" lon="11.6375764"><ele>477.0</ele><time>2026-04-25T15:04:30.966Z</time></trkpt><trkpt lat="45.7789322" lon="11.6377015"><ele>477.0</ele><time>2026-04-25T15:04:32.965Z</time></trkpt><trkpt lat="45.7789434" lon="11.6378436"><ele>477.0</ele><time>2026-04-25T15:04:34.965Z</time></trkpt><trkpt lat="45.7789567" lon="11.6379857"><ele>475.40000000000003</ele><time>2026-04-25T15:04:36.965Z</time></trkpt><trkpt lat="45.7789605" lon="11.6381327"><ele>473.80000000000007</ele><time>2026-04-25T15:04:38.965Z</time></trkpt><trkpt lat="45.7789808" lon="11.6382929"><ele>472.2</ele><time>2026-04-25T15:04:40.965Z</time></trkpt><trkpt lat="45.7790256" lon="11.6384598"><ele>470.6</ele><time>2026-04-25T15:04:42.965Z</time></trkpt><trkpt lat="45.7790522" lon="11.6385495"><ele>469.0</ele><time>2026-04-25T15:04:43.965Z</time></trkpt><trkpt lat="45.7790777" lon="11.638635"><ele>466.83333333333337</ele><time>2026-04-25T15:04:44.965Z</time></trkpt><trkpt lat="45.7790959" lon="11.6387219"><ele>464.6666666666667</ele><time>2026-04-25T15:04:45.965Z</time></trkpt><trkpt lat="45.7791108" lon="11.638817"><ele>462.5</ele><time>2026-04-25T15:04:46.965Z</time></trkpt><trkpt lat="45.7791209" lon="11.638917"><ele>460.33333333333337</ele><time>2026-04-25T15:04:47.965Z</time></trkpt><trkpt lat="45.7791393" lon="11.6390788"><ele>458.1666666666667</ele><time>2026-04-25T15:04:49.966Z</time></trkpt><trkpt lat="45.779163" lon="11.6392122"><ele>456.0</ele><time>2026-04-25T15:04:51.965Z</time></trkpt><trkpt lat="45.7791894" lon="11.639313"><ele>456.0</ele><time>2026-04-25T15:04:53.965Z</time></trkpt><trkpt lat="45.7792118" lon="11.6394009"><ele>456.0</ele><time>2026-04-25T15:04:55.965Z</time></trkpt><trkpt lat="45.7792279" lon="11.639497"><ele>456.0</ele><time>2026-04-25T15:04:57.965Z</time></trkpt><trkpt lat="45.779237" lon="11.639612"><ele>456.0</ele><time>2026-04-25T15:04:59.966Z</time></trkpt><trkpt lat="45.7792531" lon="11.6397347"><ele>456.0</ele><time>2026-04-25T15:05:01.965Z</time></trkpt><trkpt lat="45.7792771" lon="11.6398677"><ele>456.0</ele><time>2026-04-25T15:05:03.965Z</time></trkpt><trkpt lat="45.7793283" lon="11.6400075"><ele>460.20000000000005</ele><time>2026-04-25T15:05:05.965Z</time></trkpt><trkpt lat="45.7793892" lon="11.6401527"><ele>464.40000000000003</ele><time>2026-04-25T15:05:07.965Z</time></trkpt><trkpt lat="45.7793973" lon="11.6402459"><ele>468.6</ele><time>2026-04-25T15:05:08.966Z</time></trkpt><trkpt lat="45.7793789" lon="11.6403987"><ele>472.8</ele><time>2026-04-25T15:05:10.965Z</time></trkpt><trkpt lat="45.7794117" lon="11.6405262"><ele>477.0</ele><time>2026-04-25T15:05:12.965Z</time></trkpt><trkpt lat="45.7794576" lon="11.6406145"><ele>477.0</ele><time>2026-04-25T15:05:14.965Z</time></trkpt><trkpt lat="45.7794854" lon="11.6407033"><ele>477.0</ele><time>2026-04-25T15:05:16.965Z</time></trkpt><trkpt lat="45.7795209" lon="11.6408031"><ele>477.0</ele><time>2026-04-25T15:05:19.965Z</time></trkpt><trkpt lat="45.779558" lon="11.6409111"><ele>477.0</ele><time>2026-04-25T15:05:22.966Z</time></trkpt><trkpt lat="45.7795861" lon="11.640995"><ele>477.0</ele><time>2026-04-25T15:05:24.965Z</time></trkpt><trkpt lat="45.7796351" lon="11.6410818"><ele>477.0</ele><time>2026-04-25T15:05:27.965Z</time></trkpt><trkpt lat="45.7796842" lon="11.6411867"><ele>475.1666666666667</ele><time>2026-04-25T15:05:30.965Z</time></trkpt><trkpt lat="45.7797254" lon="11.6412853"><ele>473.33333333333337</ele><time>2026-04-25T15:05:33.965Z</time></trkpt><trkpt lat="45.7797835" lon="11.6413355"><ele>471.5</ele><time>2026-04-25T15:05:36.965Z</time></trkpt><trkpt lat="45.7798618" lon="11.6413642"><ele>469.6666666666667</ele><time>2026-04-25T15:05:39.966Z</time></trkpt><trkpt lat="45.7799493" lon="11.6413454"><ele>467.83333333333337</ele><time>2026-04-25T15:05:42.965Z</time></trkpt><trkpt lat="45.7800203" lon="11.6413733"><ele>466.0</ele><time>2026-04-25T15:05:46.966Z</time></trkpt><trkpt lat="45.7800718" lon="11.6414286"><ele>466.0</ele><time>2026-04-25T15:05:50.966Z</time></trkpt><trkpt lat="45.780109" lon="11.6415157"><ele>466.0</ele><time>2026-04-25T15:05:54.967Z</time></trkpt><trkpt lat="45.7801559" lon="11.6416038"><ele>466.0</ele><time>2026-04-25T15:05:59.966Z</time></trkpt><trkpt lat="45.7802073" lon="11.6416693"><ele>466.0</ele><time>2026-04-25T15:06:04.966Z</time></trkpt><trkpt lat="45.7802682" lon="11.6417231"><ele>466.0</ele><time>2026-04-25T15:06:10.967Z</time></trkpt><trkpt lat="45.7803156" lon="11.6417962"><ele>466.0</ele><time>2026-04-25T15:06:16.966Z</time></trkpt><trkpt lat="45.780376" lon="11.6418556"><ele>466.0</ele><time>2026-04-25T15:06:22.966Z</time></trkpt><trkpt lat="45.780446" lon="11.64191"><ele>467.7142857142857</ele><time>2026-04-25T15:06:29.966Z</time></trkpt><trkpt lat="45.7805082" lon="11.6419299"><ele>469.42857142857144</ele><time>2026-04-25T15:06:34.966Z</time></trkpt><trkpt lat="45.7805617" lon="11.641983"><ele>471.14285714285717</ele><time>2026-04-25T15:06:41.966Z</time></trkpt><trkpt lat="45.7806322" lon="11.641993"><ele>472.8571428571429</ele><time>2026-04-25T15:06:47.966Z</time></trkpt><trkpt lat="45.7806957" lon="11.6419786"><ele>474.57142857142856</ele><time>2026-04-25T15:06:52.966Z</time></trkpt><trkpt lat="45.7807628" lon="11.6419752"><ele>476.28571428571433</ele><time>2026-04-25T15:06:57.966Z</time></trkpt><trkpt lat="45.7808317" lon="11.6419596"><ele>478.00000000000006</ele><time>2026-04-25T15:07:02.967Z</time></trkpt><trkpt lat="45.7808985" lon="11.641933"><ele>478.00000000000006</ele><time>2026-04-25T15:07:07.967Z</time></trkpt><trkpt lat="45.780961" lon="11.64189"><ele>478.0</ele><time>2026-04-25T15:07:12.967Z</time></trkpt><trkpt lat="45.781006" lon="11.6418142"><ele>478.00000000000006</ele><time>2026-04-25T15:07:17.968Z</time></trkpt><trkpt lat="45.7810324" lon="11.6417265"><ele>478.00000000000006</ele><time>2026-04-25T15:07:22.967Z</time></trkpt><trkpt lat="45.7810626" lon="11.6416375"><ele>478.0</ele><time>2026-04-25T15:07:28.967Z</time></trkpt><trkpt lat="45.7810953" lon="11.6415521"><ele>478.00000000000006</ele><time>2026-04-25T15:07:34.967Z</time></trkpt><trkpt lat="45.7811343" lon="11.6414636"><ele>478.00000000000006</ele><time>2026-04-25T15:07:40.967Z</time></trkpt><trkpt lat="45.7811583" lon="11.6413625"><ele>478.00000000000006</ele><time>2026-04-25T15:07:46.967Z</time></trkpt><trkpt lat="45.781177" lon="11.6412757"><ele>478.0</ele><time>2026-04-25T15:07:51.967Z</time></trkpt><trkpt lat="45.7812069" lon="11.6411874"><ele>478.00000000000006</ele><time>2026-04-25T15:07:56.967Z</time></trkpt><trkpt lat="45.7812144" lon="11.6410786"><ele>478.00000000000006</ele><time>2026-04-25T15:08:03.967Z</time></trkpt><trkpt lat="45.7812162" lon="11.6409784"><ele>478.0</ele><time>2026-04-25T15:08:10.967Z</time></trkpt><trkpt lat="45.7812079" lon="11.6408735"><ele>478.00000000000006</ele><time>2026-04-25T15:08:17.968Z</time></trkpt><trkpt lat="45.7811816" lon="11.6407721"><ele>478.00000000000006</ele><time>2026-04-25T15:08:25.968Z</time></trkpt><trkpt lat="45.7811437" lon="11.6406981"><ele>480.4285714285715</ele><time>2026-04-25T15:08:30.968Z</time></trkpt><trkpt lat="45.7811009" lon="11.6406195"><ele>482.8571428571429</ele><time>2026-04-25T15:08:36.968Z</time></trkpt><trkpt lat="45.7810685" lon="11.6405272"><ele>485.2857142857143</ele><time>2026-04-25T15:08:46.969Z</time></trkpt><trkpt lat="45.7810334" lon="11.640452"><ele>487.7142857142857</ele><time>2026-04-25T15:08:53.968Z</time></trkpt><trkpt lat="45.7809765" lon="11.6404029"><ele>490.1428571428571</ele><time>2026-04-25T15:09:00.968Z</time></trkpt><trkpt lat="45.7809415" lon="11.6403237"><ele>492.5714285714285</ele><time>2026-04-25T15:09:06.968Z</time></trkpt><trkpt lat="45.780885" lon="11.6402734"><ele>494.99999999999994</ele><time>2026-04-25T15:09:13.968Z</time></trkpt><trkpt lat="45.780835" lon="11.6402177"><ele>497.1428571428571</ele><time>2026-04-25T15:09:20.968Z</time></trkpt><trkpt lat="45.780816" lon="11.6401144"><ele>499.2857142857143</ele><time>2026-04-25T15:09:27.968Z</time></trkpt><trkpt lat="45.7807628" lon="11.6400622"><ele>501.42857142857144</ele><time>2026-04-25T15:09:31.968Z</time></trkpt><trkpt lat="45.7807062" lon="11.6400064"><ele>503.57142857142856</ele><time>2026-04-25T15:09:37.97Z</time></trkpt><trkpt lat="45.7806754" lon="11.639923"><ele>505.7142857142858</ele><time>2026-04-25T15:09:43.969Z</time></trkpt><trkpt lat="45.7806254" lon="11.6398543"><ele>507.8571428571429</ele><time>2026-04-25T15:09:50.969Z</time></trkpt><trkpt lat="45.7805803" lon="11.6397883"><ele>510.0</ele><time>2026-04-25T15:09:56.969Z</time></trkpt><trkpt lat="45.7805549" lon="11.6396978"><ele>510.0</ele><time>2026-04-25T15:10:02.969Z</time></trkpt><trkpt lat="45.7805336" lon="11.6396014"><ele>510.00000000000006</ele><time>2026-04-25T15:10:08.969Z</time></trkpt><trkpt lat="45.7805357" lon="11.6395108"><ele>510.0</ele><time>2026-04-25T15:10:15.969Z</time></trkpt><trkpt lat="45.7805043" lon="11.6394296"><ele>510.0</ele><time>2026-04-25T15:10:21.969Z</time></trkpt><trkpt lat="45.7805032" lon="11.6393311"><ele>510.00000000000006</ele><time>2026-04-25T15:10:28.969Z</time></trkpt><trkpt lat="45.780487" lon="11.639237"><ele>510.0</ele><time>2026-04-25T15:10:34.969Z</time></trkpt><trkpt lat="45.7804665" lon="11.6391383"><ele>510.0</ele><time>2026-04-25T15:10:40.969Z</time></trkpt><trkpt lat="45.7804445" lon="11.6390354"><ele>512.4285714285714</ele><time>2026-04-25T15:10:48.97Z</time></trkpt><trkpt lat="45.780426" lon="11.6389458"><ele>514.8571428571429</ele><time>2026-04-25T15:10:52.971Z</time></trkpt><trkpt lat="45.7804205" lon="11.6388494"><ele>517.2857142857143</ele><time>2026-04-25T15:10:58.971Z</time></trkpt><trkpt lat="45.7804084" lon="11.6387498"><ele>519.7142857142858</ele><time>2026-04-25T15:11:05.97Z</time></trkpt><trkpt lat="45.7803607" lon="11.6386739"><ele>522.1428571428571</ele><time>2026-04-25T15:11:15.97Z</time></trkpt><trkpt lat="45.7803855" lon="11.6385755"><ele>524.5714285714287</ele><time>2026-04-25T15:11:22.971Z</time></trkpt><trkpt lat="45.7803645" lon="11.6384782"><ele>527.0</ele><time>2026-04-25T15:11:27.97Z</time></trkpt><trkpt lat="45.7803539" lon="11.6383732"><ele>529.8571428571429</ele><time>2026-04-25T15:11:34.971Z</time></trkpt><trkpt lat="45.780327" lon="11.6382884"><ele>532.7142857142858</ele><time>2026-04-25T15:11:39.97Z</time></trkpt><trkpt lat="45.7803067" lon="11.6381835"><ele>535.5714285714286</ele><time>2026-04-25T15:11:45.97Z</time></trkpt><trkpt lat="45.7802606" lon="11.6381031"><ele>538.4285714285714</ele><time>2026-04-25T15:11:50.97Z</time></trkpt><trkpt lat="45.7803031" lon="11.6380239"><ele>541.2857142857142</ele><time>2026-04-25T15:11:55.971Z</time></trkpt><trkpt lat="45.7803675" lon="11.6380508"><ele>544.1428571428571</ele><time>2026-04-25T15:11:59.971Z</time></trkpt><trkpt lat="45.7804371" lon="11.6380939"><ele>547.0</ele><time>2026-04-25T15:12:05.971Z</time></trkpt><trkpt lat="45.7804876" lon="11.638162"><ele>547.0</ele><time>2026-04-25T15:12:11.971Z</time></trkpt><trkpt lat="45.7805468" lon="11.6382207"><ele>547.0</ele><time>2026-04-25T15:12:16.971Z</time></trkpt><trkpt lat="45.7806109" lon="11.6382727"><ele>547.0</ele><time>2026-04-25T15:12:23.971Z</time></trkpt><trkpt lat="45.7806809" lon="11.6382939"><ele>547.0</ele><time>2026-04-25T15:12:28.972Z</time></trkpt><trkpt lat="45.78074" lon="11.638356"><ele>547.0</ele><time>2026-04-25T15:12:34.971Z</time></trkpt><trkpt lat="45.7808087" lon="11.6383865"><ele>547.0</ele><time>2026-04-25T15:12:40.971Z</time></trkpt><trkpt lat="45.7808554" lon="11.6384512"><ele>547.0</ele><time>2026-04-25T15:12:45.971Z</time></trkpt><trkpt lat="45.7809172" lon="11.6385009"><ele>547.0</ele><time>2026-04-25T15:12:51.971Z</time></trkpt><trkpt lat="45.7809862" lon="11.6385327"><ele>547.0</ele><time>2026-04-25T15:12:56.971Z</time></trkpt><trkpt lat="45.7810545" lon="11.6385555"><ele>547.0</ele><time>2026-04-25T15:13:01.972Z</time></trkpt><trkpt lat="45.7811095" lon="11.6386101"><ele>547.0</ele><time>2026-04-25T15:13:06.971Z</time></trkpt><trkpt lat="45.7811732" lon="11.6386541"><ele>547.0</ele><time>2026-04-25T15:13:12.972Z</time></trkpt><trkpt lat="45.7812303" lon="11.6387009"><ele>547.0</ele><time>2026-04-25T15:13:17.972Z</time></trkpt><trkpt lat="45.7812887" lon="11.6387472"><ele>547.0</ele><time>2026-04-25T15:13:22.972Z</time></trkpt><trkpt lat="45.7813526" lon="11.6387696"><ele>547.8571428571429</ele><time>2026-04-25T15:13:28.973Z</time></trkpt><trkpt lat="45.7814091" lon="11.6388106"><ele>548.7142857142857</ele><time>2026-04-25T15:13:32.973Z</time></trkpt><trkpt lat="45.7814729" lon="11.6388429"><ele>549.5714285714286</ele><time>2026-04-25T15:13:37.972Z</time></trkpt><trkpt lat="45.7815394" lon="11.6388767"><ele>550.4285714285714</ele><time>2026-04-25T15:13:43.972Z</time></trkpt><trkpt lat="45.7816142" lon="11.6388718"><ele>551.2857142857142</ele><time>2026-04-25T15:13:50.972Z</time></trkpt><trkpt lat="45.7816803" lon="11.6389019"><ele>552.1428571428571</ele><time>2026-04-25T15:13:55.972Z</time></trkpt><trkpt lat="45.7817521" lon="11.6389305"><ele>553.0</ele><time>2026-04-25T15:14:00.972Z</time></trkpt><trkpt lat="45.7818257" lon="11.6389568"><ele>556.4285714285714</ele><time>2026-04-25T15:14:05.973Z</time></trkpt><trkpt lat="45.7818817" lon="11.6390049"><ele>559.8571428571429</ele><time>2026-04-25T15:14:10.972Z</time></trkpt><trkpt lat="45.7819552" lon="11.6390244"><ele>563.2857142857142</ele><time>2026-04-25T15:14:17.972Z</time></trkpt><trkpt lat="45.782017" lon="11.6390439"><ele>566.7142857142858</ele><time>2026-04-25T15:14:23.973Z</time></trkpt><trkpt lat="45.7820845" lon="11.6390733"><ele>570.1428571428571</ele><time>2026-04-25T15:14:29.973Z</time></trkpt><trkpt lat="45.7821482" lon="11.6390576"><ele>573.5714285714286</ele><time>2026-04-25T15:14:35.973Z</time></trkpt><trkpt lat="45.7822129" lon="11.639085"><ele>577.0</ele><time>2026-04-25T15:14:42.973Z</time></trkpt><trkpt lat="45.7822731" lon="11.6391131"><ele>577.0</ele><time>2026-04-25T15:14:47.974Z</time></trkpt><trkpt lat="45.7823385" lon="11.6391127"><ele>577.0</ele><time>2026-04-25T15:14:52.973Z</time></trkpt><trkpt lat="45.7824017" lon="11.6391355"><ele>577.0</ele><time>2026-04-25T15:14:57.973Z</time></trkpt><trkpt lat="45.7824728" lon="11.6391463"><ele>577.0</ele><time>2026-04-25T15:15:03.973Z</time></trkpt><trkpt lat="45.7825421" lon="11.6391384"><ele>577.0</ele><time>2026-04-25T15:15:10.973Z</time></trkpt><trkpt lat="45.7826062" lon="11.639149"><ele>577.0</ele><time>2026-04-25T15:15:16.973Z</time></trkpt><trkpt lat="45.7826687" lon="11.6391646"><ele>577.0</ele><time>2026-04-25T15:15:22.973Z</time></trkpt><trkpt lat="45.7827353" lon="11.6391842"><ele>580.1428571428571</ele><time>2026-04-25T15:15:28.973Z</time></trkpt><trkpt lat="45.782805" lon="11.6391724"><ele>583.2857142857143</ele><time>2026-04-25T15:15:38.974Z</time></trkpt><trkpt lat="45.7828762" lon="11.6391873"><ele>586.4285714285714</ele><time>2026-04-25T15:15:46.974Z</time></trkpt><trkpt lat="45.782944" lon="11.6392003"><ele>589.5714285714286</ele><time>2026-04-25T15:15:54.974Z</time></trkpt><trkpt lat="45.7830098" lon="11.6392455"><ele>592.7142857142857</ele><time>2026-04-25T15:16:02.974Z</time></trkpt><trkpt lat="45.7830868" lon="11.6392724"><ele>595.8571428571429</ele><time>2026-04-25T15:16:08.974Z</time></trkpt><trkpt lat="45.7831488" lon="11.6393127"><ele>599.0</ele><time>2026-04-25T15:16:14.974Z</time></trkpt><trkpt lat="45.7832086" lon="11.6393536"><ele>599.0</ele><time>2026-04-25T15:16:21.974Z</time></trkpt><trkpt lat="45.7832715" lon="11.6394077"><ele>599.0</ele><time>2026-04-25T15:16:27.974Z</time></trkpt><trkpt lat="45.7833267" lon="11.6394663"><ele>599.0</ele><time>2026-04-25T15:16:32.974Z</time></trkpt><trkpt lat="45.7833896" lon="11.6395358"><ele>599.0</ele><time>2026-04-25T15:16:39.974Z</time></trkpt><trkpt lat="45.7834387" lon="11.6395958"><ele>599.0</ele><time>2026-04-25T15:16:47.974Z</time></trkpt><trkpt lat="45.7835223" lon="11.639627"><ele>599.0</ele><time>2026-04-25T15:16:53.975Z</time></trkpt><trkpt lat="45.7835855" lon="11.6396208"><ele>599.0</ele><time>2026-04-25T15:16:59.975Z</time></trkpt><trkpt lat="45.7836472" lon="11.6396724"><ele>599.0</ele><time>2026-04-25T15:17:07.975Z</time></trkpt><trkpt lat="45.7836986" lon="11.6397335"><ele>599.0</ele><time>2026-04-25T15:17:14.975Z</time></trkpt><trkpt lat="45.7837568" lon="11.6397924"><ele>599.0</ele><time>2026-04-25T15:17:21.975Z</time></trkpt><trkpt lat="45.7838215" lon="11.6397934"><ele>599.0</ele><time>2026-04-25T15:17:26.975Z</time></trkpt><trkpt lat="45.7838905" lon="11.6398064"><ele>599.0</ele><time>2026-04-25T15:17:33.975Z</time></trkpt><trkpt lat="45.7839533" lon="11.6398177"><ele>599.0</ele><time>2026-04-25T15:17:39.975Z</time></trkpt><trkpt lat="45.7840151" lon="11.6398426"><ele>599.0</ele><time>2026-04-25T15:17:45.975Z</time></trkpt><trkpt lat="45.7840873" lon="11.6398476"><ele>599.0</ele><time>2026-04-25T15:17:52.975Z</time></trkpt><trkpt lat="45.7841444" lon="11.6398888"><ele>599.0</ele><time>2026-04-25T15:18:00.975Z</time></trkpt><trkpt lat="45.7842126" lon="11.6399204"><ele>599.0</ele><time>2026-04-25T15:18:06.975Z</time></trkpt><trkpt lat="45.7842782" lon="11.639954"><ele>599.0</ele><time>2026-04-25T15:18:13.976Z</time></trkpt><trkpt lat="45.7843452" lon="11.6399694"><ele>599.0</ele><time>2026-04-25T15:18:19.976Z</time></trkpt><trkpt lat="45.7844135" lon="11.6399709"><ele>599.0</ele><time>2026-04-25T15:18:24.976Z</time></trkpt><trkpt lat="45.7844802" lon="11.6399777"><ele>599.0</ele><time>2026-04-25T15:18:31.977Z</time></trkpt><trkpt lat="45.7845339" lon="11.640025"><ele>601.8571428571429</ele><time>2026-04-25T15:18:38.976Z</time></trkpt><trkpt lat="45.7845844" lon="11.6400895"><ele>604.7142857142857</ele><time>2026-04-25T15:18:45.976Z</time></trkpt><trkpt lat="45.7846473" lon="11.6401188"><ele>607.5714285714286</ele><time>2026-04-25T15:18:51.976Z</time></trkpt><trkpt lat="45.7846792" lon="11.6402023"><ele>610.4285714285714</ele><time>2026-04-25T15:18:55.976Z</time></trkpt><trkpt lat="45.7846953" lon="11.6402969"><ele>613.2857142857143</ele><time>2026-04-25T15:19:01.976Z</time></trkpt><trkpt lat="45.7847072" lon="11.6403977"><ele>616.1428571428571</ele><time>2026-04-25T15:20:09.977Z</time></trkpt><trkpt lat="45.784714" lon="11.6404968"><ele>619.0</ele><time>2026-04-25T15:20:13.977Z</time></trkpt><trkpt lat="45.7847232" lon="11.6405954"><ele>619.0</ele><time>2026-04-25T15:20:16.977Z</time></trkpt><trkpt lat="45.7847593" lon="11.6406885"><ele>619.0</ele><time>2026-04-25T15:20:20.977Z</time></trkpt><trkpt lat="45.7847858" lon="11.6407942"><ele>619.0</ele><time>2026-04-25T15:20:24.977Z</time></trkpt><trkpt lat="45.7847989" lon="11.6409053"><ele>619.0</ele><time>2026-04-25T15:20:28.977Z</time></trkpt><trkpt lat="45.7848089" lon="11.6410105"><ele>619.0</ele><time>2026-04-25T15:20:32.977Z</time></trkpt><trkpt lat="45.7848095" lon="11.6411088"><ele>619.0</ele><time>2026-04-25T15:20:36.978Z</time></trkpt><trkpt lat="45.7848247" lon="11.6412065"><ele>619.0</ele><time>2026-04-25T15:20:40.978Z</time></trkpt><trkpt lat="45.7848746" lon="11.6412701"><ele>615.6666666666667</ele><time>2026-04-25T15:20:43.979Z</time></trkpt><trkpt lat="45.7849309" lon="11.6413268"><ele>612.3333333333334</ele><time>2026-04-25T15:20:46.978Z</time></trkpt><trkpt lat="45.7850028" lon="11.6413917"><ele>609.0</ele><time>2026-04-25T15:20:50.979Z</time></trkpt><trkpt lat="45.7850667" lon="11.6414583"><ele>605.6666666666666</ele><time>2026-04-25T15:20:54.979Z</time></trkpt><trkpt lat="45.7851317" lon="11.6415003"><ele>602.3333333333333</ele><time>2026-04-25T15:20:58.979Z</time></trkpt><trkpt lat="45.7851926" lon="11.6415679"><ele>599.0</ele><time>2026-04-25T15:21:02.978Z</time></trkpt><trkpt lat="45.7852458" lon="11.6416301"><ele>602.1428571428571</ele><time>2026-04-25T15:21:06.978Z</time></trkpt><trkpt lat="45.7853086" lon="11.6416881"><ele>605.2857142857142</ele><time>2026-04-25T15:21:18.978Z</time></trkpt><trkpt lat="45.7853607" lon="11.6417415"><ele>608.4285714285713</ele><time>2026-04-25T15:21:24.979Z</time></trkpt><trkpt lat="45.7854161" lon="11.6417884"><ele>611.5714285714286</ele><time>2026-04-25T15:21:28.978Z</time></trkpt><trkpt lat="45.7853392" lon="11.641835"><ele>614.7142857142857</ele><time>2026-04-25T15:22:28.979Z</time></trkpt><trkpt lat="45.7853887" lon="11.6419057"><ele>617.8571428571428</ele><time>2026-04-25T15:24:57.981Z</time></trkpt><trkpt lat="45.7854576" lon="11.6419798"><ele>621.0</ele><time>2026-04-25T15:25:00.981Z</time></trkpt><trkpt lat="45.7855117" lon="11.6420443"><ele>621.0</ele><time>2026-04-25T15:25:02.981Z</time></trkpt><trkpt lat="45.7855699" lon="11.6421333"><ele>621.0</ele><time>2026-04-25T15:25:04.981Z</time></trkpt><trkpt lat="45.7856236" lon="11.6422343"><ele>621.0</ele><time>2026-04-25T15:25:06.982Z</time></trkpt><trkpt lat="45.7856816" lon="11.6422999"><ele>621.0</ele><time>2026-04-25T15:25:08.982Z</time></trkpt><trkpt lat="45.7857138" lon="11.6424138"><ele>621.0</ele><time>2026-04-25T15:25:11.982Z</time></trkpt><trkpt lat="45.7857649" lon="11.6425385"><ele>621.0</ele><time>2026-04-25T15:25:13.983Z</time></trkpt><trkpt lat="45.7858003" lon="11.6426903"><ele>621.0</ele><time>2026-04-25T15:25:15.982Z</time></trkpt><trkpt lat="45.7858166" lon="11.642783"><ele>621.0</ele><time>2026-04-25T15:25:16.982Z</time></trkpt><trkpt lat="45.7858286" lon="11.6429003"><ele>621.0</ele><time>2026-04-25T15:25:17.982Z</time></trkpt><trkpt lat="45.7858406" lon="11.6430145"><ele>621.0</ele><time>2026-04-25T15:25:18.983Z</time></trkpt><trkpt lat="45.7858484" lon="11.6431075"><ele>621.0</ele><time>2026-04-25T15:25:19.982Z</time></trkpt><trkpt lat="45.7858592" lon="11.6432749"><ele>621.0</ele><time>2026-04-25T15:25:21.982Z</time></trkpt><trkpt lat="45.7858674" lon="11.6434403"><ele>617.8333333333334</ele><time>2026-04-25T15:25:23.982Z</time></trkpt><trkpt lat="45.7858823" lon="11.6435542"><ele>614.6666666666666</ele><time>2026-04-25T15:25:25.982Z</time></trkpt><trkpt lat="45.7858944" lon="11.6436885"><ele>611.5</ele><time>2026-04-25T15:25:27.982Z</time></trkpt><trkpt lat="45.7858924" lon="11.6437986"><ele>608.3333333333333</ele><time>2026-04-25T15:25:29.983Z</time></trkpt><trkpt lat="45.7858991" lon="11.6438933"><ele>605.1666666666666</ele><time>2026-04-25T15:25:31.982Z</time></trkpt><trkpt lat="45.7859029" lon="11.6440027"><ele>602.0</ele><time>2026-04-25T15:25:33.982Z</time></trkpt><trkpt lat="45.7859009" lon="11.6440956"><ele>601.7142857142857</ele><time>2026-04-25T15:25:36.982Z</time></trkpt><trkpt lat="45.7859114" lon="11.6442033"><ele>601.4285714285714</ele><time>2026-04-25T15:25:40.982Z</time></trkpt><trkpt lat="45.7859115" lon="11.6443105"><ele>601.1428571428571</ele><time>2026-04-25T15:25:45.982Z</time></trkpt><trkpt lat="45.7859122" lon="11.6444022"><ele>600.8571428571429</ele><time>2026-04-25T15:25:49.982Z</time></trkpt><trkpt lat="45.7859171" lon="11.644504"><ele>600.5714285714286</ele><time>2026-04-25T15:25:53.982Z</time></trkpt><trkpt lat="45.7859462" lon="11.6446074"><ele>600.2857142857142</ele><time>2026-04-25T15:25:58.982Z</time></trkpt><trkpt lat="45.7859699" lon="11.644695"><ele>600.0</ele><time>2026-04-25T15:26:01.983Z</time></trkpt><trkpt lat="45.7859882" lon="11.6448016"><ele>598.5714285714286</ele><time>2026-04-25T15:26:05.982Z</time></trkpt><trkpt lat="45.7860006" lon="11.6448918"><ele>597.1428571428571</ele><time>2026-04-25T15:26:09.983Z</time></trkpt><trkpt lat="45.7860084" lon="11.6449918"><ele>595.7142857142858</ele><time>2026-04-25T15:26:14.983Z</time></trkpt><trkpt lat="45.7860398" lon="11.6450897"><ele>594.2857142857142</ele><time>2026-04-25T15:26:19.983Z</time></trkpt><trkpt lat="45.7860837" lon="11.6451667"><ele>592.8571428571429</ele><time>2026-04-25T15:26:25.012Z</time></trkpt><trkpt lat="45.7861359" lon="11.6452178"><ele>591.4285714285714</ele><time>2026-04-25T15:26:29.039Z</time></trkpt><trkpt lat="45.7861861" lon="11.645281"><ele>590.0</ele><time>2026-04-25T15:26:33.066Z</time></trkpt><trkpt lat="45.7862478" lon="11.64536"><ele>593.7142857142858</ele><time>2026-04-25T15:26:37.983Z</time></trkpt><trkpt lat="45.786309" lon="11.6454065"><ele>597.4285714285714</ele><time>2026-04-25T15:26:43.983Z</time></trkpt><trkpt lat="45.7863632" lon="11.6454832"><ele>601.1428571428571</ele><time>2026-04-25T15:26:49.984Z</time></trkpt><trkpt lat="45.7864092" lon="11.6455638"><ele>604.8571428571429</ele><time>2026-04-25T15:26:54.983Z</time></trkpt><trkpt lat="45.7864557" lon="11.6456406"><ele>608.5714285714286</ele><time>2026-04-25T15:26:59.984Z</time></trkpt><trkpt lat="45.7865149" lon="11.6457007"><ele>612.2857142857143</ele><time>2026-04-25T15:27:06.983Z</time></trkpt><trkpt lat="45.7865719" lon="11.6457487"><ele>616.0</ele><time>2026-04-25T15:27:12.984Z</time></trkpt><trkpt lat="45.7866276" lon="11.6458043"><ele>616.0</ele><time>2026-04-25T15:27:18.984Z</time></trkpt><trkpt lat="45.7866806" lon="11.6458568"><ele>616.0</ele><time>2026-04-25T15:27:24.984Z</time></trkpt><trkpt lat="45.7867499" lon="11.6458754"><ele>616.0</ele><time>2026-04-25T15:27:30.984Z</time></trkpt><trkpt lat="45.7868152" lon="11.6459214"><ele>616.0</ele><time>2026-04-25T15:27:36.984Z</time></trkpt><trkpt lat="45.7868865" lon="11.6459463"><ele>616.0</ele><time>2026-04-25T15:27:41.984Z</time></trkpt><trkpt lat="45.7869593" lon="11.6459766"><ele>616.0</ele><time>2026-04-25T15:27:46.984Z</time></trkpt><trkpt lat="45.787031" lon="11.6460168"><ele>616.0</ele><time>2026-04-25T15:27:51.984Z</time></trkpt><trkpt lat="45.7870973" lon="11.6460823"><ele>616.0</ele><time>2026-04-25T15:27:55.984Z</time></trkpt><trkpt lat="45.7871579" lon="11.646147"><ele>616.0</ele><time>2026-04-25T15:27:58.985Z</time></trkpt><trkpt lat="45.7872242" lon="11.6462049"><ele>616.0</ele><time>2026-04-25T15:28:01.984Z</time></trkpt><trkpt lat="45.7872791" lon="11.6462549"><ele>616.0</ele><time>2026-04-25T15:28:04.984Z</time></trkpt><trkpt lat="45.7873547" lon="11.6462441"><ele>616.0</ele><time>2026-04-25T15:29:04.985Z</time></trkpt><trkpt lat="45.787431" lon="11.6462969"><ele>616.0</ele><time>2026-04-25T15:29:07.985Z</time></trkpt><trkpt lat="45.7874928" lon="11.6463364"><ele>616.0</ele><time>2026-04-25T15:29:10.986Z</time></trkpt><trkpt lat="45.7875684" lon="11.6463827"><ele>616.0</ele><time>2026-04-25T15:29:13.986Z</time></trkpt><trkpt lat="45.7876386" lon="11.6464231"><ele>616.0</ele><time>2026-04-25T15:29:16.986Z</time></trkpt><trkpt lat="45.7876932" lon="11.6464725"><ele>616.0</ele><time>2026-04-25T15:29:19.985Z</time></trkpt><trkpt lat="45.7877501" lon="11.6465172"><ele>616.0</ele><time>2026-04-25T15:29:22.985Z</time></trkpt><trkpt lat="45.7878131" lon="11.6465581"><ele>616.0</ele><time>2026-04-25T15:29:25.987Z</time></trkpt><trkpt lat="45.7878714" lon="11.6466092"><ele>616.0</ele><time>2026-04-25T15:29:29.986Z</time></trkpt><trkpt lat="45.7879331" lon="11.6466448"><ele>616.0</ele><time>2026-04-25T15:29:32.986Z</time></trkpt><trkpt lat="45.7879931" lon="11.6467114"><ele>615.0</ele><time>2026-04-25T15:29:36.986Z</time></trkpt><trkpt lat="45.7880555" lon="11.6467624"><ele>614.0</ele><time>2026-04-25T15:29:39.986Z</time></trkpt><trkpt lat="45.7881183" lon="11.6468339"><ele>613.0</ele><time>2026-04-25T15:29:42.987Z</time></trkpt><trkpt lat="45.78818" lon="11.6468902"><ele>612.0</ele><time>2026-04-25T15:29:45.986Z</time></trkpt><trkpt lat="45.78825" lon="11.6469299"><ele>611.0</ele><time>2026-04-25T15:29:48.986Z</time></trkpt><trkpt lat="45.788311" lon="11.6469927"><ele>610.0</ele><time>2026-04-25T15:29:51.986Z</time></trkpt><trkpt lat="45.7883839" lon="11.6470456"><ele>610.0</ele><time>2026-04-25T15:29:54.986Z</time></trkpt><trkpt lat="45.7884466" lon="11.6471272"><ele>610.0</ele><time>2026-04-25T15:29:57.986Z</time></trkpt><trkpt lat="45.7885141" lon="11.6472004"><ele>610.0</ele><time>2026-04-25T15:30:00.987Z</time></trkpt><trkpt lat="45.7885755" lon="11.6472632"><ele>610.0</ele><time>2026-04-25T15:30:03.987Z</time></trkpt><trkpt lat="45.7886302" lon="11.6473212"><ele>610.0</ele><time>2026-04-25T15:30:06.986Z</time></trkpt><trkpt lat="45.7886788" lon="11.6473796"><ele>610.0</ele><time>2026-04-25T15:30:09.986Z</time></trkpt><trkpt lat="45.788727" lon="11.6474381"><ele>610.0</ele><time>2026-04-25T15:30:12.986Z</time></trkpt><trkpt lat="45.7887716" lon="11.6475091"><ele>611.7142857142858</ele><time>2026-04-25T15:30:15.986Z</time></trkpt><trkpt lat="45.7888373" lon="11.6475768"><ele>613.4285714285713</ele><time>2026-04-25T15:30:19.987Z</time></trkpt><trkpt lat="45.7888892" lon="11.6476323"><ele>615.1428571428571</ele><time>2026-04-25T15:30:22.986Z</time></trkpt><trkpt lat="45.7889259" lon="11.6477074"><ele>616.8571428571429</ele><time>2026-04-25T15:30:25.987Z</time></trkpt><trkpt lat="45.7889877" lon="11.6477781"><ele>618.5714285714287</ele><time>2026-04-25T15:30:29.987Z</time></trkpt><trkpt lat="45.7890444" lon="11.6478628"><ele>620.2857142857142</ele><time>2026-04-25T15:30:33.987Z</time></trkpt><trkpt lat="45.7891082" lon="11.6479144"><ele>622.0</ele><time>2026-04-25T15:30:36.987Z</time></trkpt><trkpt lat="45.7891468" lon="11.6480055"><ele>622.0</ele><time>2026-04-25T15:30:39.987Z</time></trkpt><trkpt lat="45.78919" lon="11.648089"><ele>622.0</ele><time>2026-04-25T15:30:42.988Z</time></trkpt><trkpt lat="45.7892479" lon="11.6481598"><ele>622.0</ele><time>2026-04-25T15:30:45.987Z</time></trkpt><trkpt lat="45.7893104" lon="11.6482605"><ele>622.0</ele><time>2026-04-25T15:30:48.987Z</time></trkpt><trkpt lat="45.7893625" lon="11.6483254"><ele>622.0</ele><time>2026-04-25T15:30:50.987Z</time></trkpt><trkpt lat="45.7894075" lon="11.648403"><ele>622.0</ele><time>2026-04-25T15:30:52.987Z</time></trkpt><trkpt lat="45.789465" lon="11.6484925"><ele>625.2</ele><time>2026-04-25T15:30:54.987Z</time></trkpt><trkpt lat="45.7895455" lon="11.6485733"><ele>628.4000000000001</ele><time>2026-04-25T15:30:56.987Z</time></trkpt><trkpt lat="45.7896222" lon="11.6486882"><ele>631.5999999999999</ele><time>2026-04-25T15:30:58.987Z</time></trkpt><trkpt lat="45.7896818" lon="11.6488134"><ele>634.8</ele><time>2026-04-25T15:31:00.988Z</time></trkpt><trkpt lat="45.7897328" lon="11.6489343"><ele>638.0</ele><time>2026-04-25T15:31:02.987Z</time></trkpt><trkpt lat="45.7897791" lon="11.6490587"><ele>638.0</ele><time>2026-04-25T15:31:04.987Z</time></trkpt><trkpt lat="45.7898136" lon="11.6491805"><ele>638.0</ele><time>2026-04-25T15:31:06.987Z</time></trkpt><trkpt lat="45.7898362" lon="11.6493006"><ele>638.0</ele><time>2026-04-25T15:31:08.987Z</time></trkpt><trkpt lat="45.7898451" lon="11.6494057"><ele>638.0</ele><time>2026-04-25T15:31:10.987Z</time></trkpt><trkpt lat="45.7898647" lon="11.6495075"><ele>638.0</ele><time>2026-04-25T15:31:12.987Z</time></trkpt><trkpt lat="45.7898857" lon="11.6496077"><ele>638.0</ele><time>2026-04-25T15:31:15.987Z</time></trkpt><trkpt lat="45.7899025" lon="11.6497164"><ele>634.8</ele><time>2026-04-25T15:31:18.987Z</time></trkpt><trkpt lat="45.7899187" lon="11.6498233"><ele>631.5999999999999</ele><time>2026-04-25T15:31:20.987Z</time></trkpt><trkpt lat="45.7899241" lon="11.6499266"><ele>628.4000000000001</ele><time>2026-04-25T15:31:22.987Z</time></trkpt><trkpt lat="45.7899017" lon="11.6500821"><ele>625.2</ele><time>2026-04-25T15:31:24.987Z</time></trkpt><trkpt lat="45.7898948" lon="11.650218"><ele>622.0</ele><time>2026-04-25T15:31:26.988Z</time></trkpt><trkpt lat="45.7899165" lon="11.6503771"><ele>621.0</ele><time>2026-04-25T15:31:28.989Z</time></trkpt><trkpt lat="45.7899307" lon="11.6505376"><ele>620.0</ele><time>2026-04-25T15:31:30.988Z</time></trkpt><trkpt lat="45.7899646" lon="11.6507064"><ele>619.0</ele><time>2026-04-25T15:31:32.988Z</time></trkpt><trkpt lat="45.7899856" lon="11.6507985"><ele>618.0</ele><time>2026-04-25T15:31:33.988Z</time></trkpt><trkpt lat="45.7900024" lon="11.6508925"><ele>617.0</ele><time>2026-04-25T15:31:34.989Z</time></trkpt><trkpt lat="45.790014" lon="11.650988"><ele>616.0</ele><time>2026-04-25T15:31:35.988Z</time></trkpt><trkpt lat="45.7900279" lon="11.6510841"><ele>614.8333333333334</ele><time>2026-04-25T15:31:36.988Z</time></trkpt><trkpt lat="45.7900435" lon="11.6511837"><ele>613.6666666666667</ele><time>2026-04-25T15:31:37.988Z</time></trkpt><trkpt lat="45.7900561" lon="11.6512817"><ele>612.5</ele><time>2026-04-25T15:31:38.988Z</time></trkpt><trkpt lat="45.7900731" lon="11.6513844"><ele>611.3333333333334</ele><time>2026-04-25T15:31:39.988Z</time></trkpt><trkpt lat="45.7900986" lon="11.651492"><ele>610.1666666666666</ele><time>2026-04-25T15:31:40.988Z</time></trkpt><trkpt lat="45.7901292" lon="11.6516048"><ele>609.0</ele><time>2026-04-25T15:31:41.988Z</time></trkpt><trkpt lat="45.7901667" lon="11.6517186"><ele>613.2</ele><time>2026-04-25T15:31:42.988Z</time></trkpt><trkpt lat="45.7902024" lon="11.6518419"><ele>617.4</ele><time>2026-04-25T15:31:43.988Z</time></trkpt><trkpt lat="45.7902414" lon="11.6519724"><ele>621.6</ele><time>2026-04-25T15:31:44.988Z</time></trkpt><trkpt lat="45.7902812" lon="11.6521106"><ele>625.8</ele><time>2026-04-25T15:31:45.988Z</time></trkpt><trkpt lat="45.7903174" lon="11.6522552"><ele>630.0</ele><time>2026-04-25T15:31:46.988Z</time></trkpt><trkpt lat="45.7903471" lon="11.6524005"><ele>630.0</ele><time>2026-04-25T15:31:47.988Z</time></trkpt><trkpt lat="45.7903774" lon="11.6525504"><ele>630.0</ele><time>2026-04-25T15:31:48.988Z</time></trkpt><trkpt lat="45.7903995" lon="11.6526972"><ele>630.0</ele><time>2026-04-25T15:31:49.988Z</time></trkpt><trkpt lat="45.7904256" lon="11.6528468"><ele>630.0</ele><time>2026-04-25T15:31:50.988Z</time></trkpt><trkpt lat="45.7904536" lon="11.6529977"><ele>630.0</ele><time>2026-04-25T15:31:51.988Z</time></trkpt><trkpt lat="45.7904847" lon="11.6531511"><ele>627.4</ele><time>2026-04-25T15:31:52.988Z</time></trkpt><trkpt lat="45.7905145" lon="11.6533016"><ele>624.8</ele><time>2026-04-25T15:31:53.988Z</time></trkpt><trkpt lat="45.790545" lon="11.6534445"><ele>622.2</ele><time>2026-04-25T15:31:54.988Z</time></trkpt><trkpt lat="45.7905745" lon="11.6535808"><ele>619.6</ele><time>2026-04-25T15:31:55.989Z</time></trkpt><trkpt lat="45.7906044" lon="11.6537056"><ele>617.0</ele><time>2026-04-25T15:31:56.989Z</time></trkpt><trkpt lat="45.7906332" lon="11.6538222"><ele>617.1666666666666</ele><time>2026-04-25T15:31:57.988Z</time></trkpt><trkpt lat="45.7906562" lon="11.6539304"><ele>617.3333333333333</ele><time>2026-04-25T15:31:58.988Z</time></trkpt><trkpt lat="45.7906749" lon="11.6540343"><ele>617.5</ele><time>2026-04-25T15:31:59.988Z</time></trkpt><trkpt lat="45.7906895" lon="11.6541351"><ele>617.6666666666666</ele><time>2026-04-25T15:32:00.988Z</time></trkpt><trkpt lat="45.7907" lon="11.6542274"><ele>617.8333333333334</ele><time>2026-04-25T15:32:01.988Z</time></trkpt><trkpt lat="45.7906863" lon="11.6544076"><ele>618.0</ele><time>2026-04-25T15:32:03.988Z</time></trkpt><trkpt lat="45.7906469" lon="11.6545028"><ele>618.0</ele><time>2026-04-25T15:32:04.988Z</time></trkpt><trkpt lat="45.7905719" lon="11.6545817"><ele>618.0</ele><time>2026-04-25T15:32:05.988Z</time></trkpt><trkpt lat="45.7904888" lon="11.6546319"><ele>618.0</ele><time>2026-04-25T15:32:06.988Z</time></trkpt><trkpt lat="45.7904022" lon="11.6546311"><ele>618.0</ele><time>2026-04-25T15:32:07.988Z</time></trkpt><trkpt lat="45.7903143" lon="11.6545892"><ele>618.0</ele><time>2026-04-25T15:32:08.988Z</time></trkpt><trkpt lat="45.7902362" lon="11.654525"><ele>612.6</ele><time>2026-04-25T15:32:09.989Z</time></trkpt><trkpt lat="45.7901627" lon="11.6544526"><ele>607.1999999999999</ele><time>2026-04-25T15:32:10.988Z</time></trkpt><trkpt lat="45.7900872" lon="11.6543836"><ele>601.8</ele><time>2026-04-25T15:32:11.988Z</time></trkpt><trkpt lat="45.7900088" lon="11.654321"><ele>596.4</ele><time>2026-04-25T15:32:12.988Z</time></trkpt><trkpt lat="45.7899302" lon="11.6542765"><ele>591.0</ele><time>2026-04-25T15:32:13.988Z</time></trkpt><trkpt lat="45.7898297" lon="11.654243"><ele>591.0</ele><time>2026-04-25T15:32:14.988Z</time></trkpt><trkpt lat="45.7897315" lon="11.6542349"><ele>591.0</ele><time>2026-04-25T15:32:15.988Z</time></trkpt><trkpt lat="45.7896311" lon="11.6542638"><ele>591.0</ele><time>2026-04-25T15:32:16.988Z</time></trkpt><trkpt lat="45.789539" lon="11.6543223"><ele>591.0</ele><time>2026-04-25T15:32:17.988Z</time></trkpt><trkpt lat="45.789462" lon="11.6544069"><ele>591.0</ele><time>2026-04-25T15:32:18.988Z</time></trkpt><trkpt lat="45.7893944" lon="11.6545235"><ele>589.0</ele><time>2026-04-25T15:32:19.988Z</time></trkpt><trkpt lat="45.7893308" lon="11.6546545"><ele>587.0</ele><time>2026-04-25T15:32:20.988Z</time></trkpt><trkpt lat="45.7892671" lon="11.6547809"><ele>585.0</ele><time>2026-04-25T15:32:21.988Z</time></trkpt><trkpt lat="45.7892" lon="11.6549058"><ele>583.0</ele><time>2026-04-25T15:32:22.988Z</time></trkpt><trkpt lat="45.7891324" lon="11.6550248"><ele>581.0</ele><time>2026-04-25T15:32:23.989Z</time></trkpt><trkpt lat="45.7890625" lon="11.6551475"><ele>581.0</ele><time>2026-04-25T15:32:24.989Z</time></trkpt><trkpt lat="45.7889982" lon="11.6552628"><ele>581.0</ele><time>2026-04-25T15:32:25.989Z</time></trkpt><trkpt lat="45.7889526" lon="11.6553829"><ele>581.0</ele><time>2026-04-25T15:32:26.989Z</time></trkpt><trkpt lat="45.788924" lon="11.6555238"><ele>581.0</ele><time>2026-04-25T15:32:27.99Z</time></trkpt><trkpt lat="45.7889115" lon="11.6556742"><ele>581.0</ele><time>2026-04-25T15:32:28.989Z</time></trkpt><trkpt lat="45.7889004" lon="11.6558192"><ele>581.6</ele><time>2026-04-25T15:32:29.989Z</time></trkpt><trkpt lat="45.7888892" lon="11.6559621"><ele>582.2</ele><time>2026-04-25T15:32:30.989Z</time></trkpt><trkpt lat="45.7888822" lon="11.656102"><ele>582.8</ele><time>2026-04-25T15:32:31.989Z</time></trkpt><trkpt lat="45.7888824" lon="11.6562469"><ele>583.4</ele><time>2026-04-25T15:32:32.989Z</time></trkpt><trkpt lat="45.7888843" lon="11.6563952"><ele>584.0</ele><time>2026-04-25T15:32:33.989Z</time></trkpt><trkpt lat="45.7888855" lon="11.6565392"><ele>586.0</ele><time>2026-04-25T15:32:34.989Z</time></trkpt><trkpt lat="45.788883" lon="11.6566864"><ele>588.0</ele><time>2026-04-25T15:32:35.99Z</time></trkpt><trkpt lat="45.7888678" lon="11.6568359"><ele>590.0</ele><time>2026-04-25T15:32:36.989Z</time></trkpt><trkpt lat="45.7888295" lon="11.6569805"><ele>592.0</ele><time>2026-04-25T15:32:37.989Z</time></trkpt><trkpt lat="45.7887746" lon="11.6571077"><ele>594.0</ele><time>2026-04-25T15:32:38.989Z</time></trkpt><trkpt lat="45.7887273" lon="11.6572328"><ele>595.0</ele><time>2026-04-25T15:32:39.991Z</time></trkpt><trkpt lat="45.7887016" lon="11.6573581"><ele>596.0</ele><time>2026-04-25T15:32:40.989Z</time></trkpt><trkpt lat="45.788696" lon="11.6574873"><ele>597.0</ele><time>2026-04-25T15:32:41.989Z</time></trkpt><trkpt lat="45.7886909" lon="11.6576187"><ele>598.0</ele><time>2026-04-25T15:32:42.989Z</time></trkpt><trkpt lat="45.7886727" lon="11.6577671"><ele>599.0</ele><time>2026-04-25T15:32:43.99Z</time></trkpt><trkpt lat="45.78863" lon="11.657879"><ele>603.4</ele><time>2026-04-25T15:32:44.989Z</time></trkpt><trkpt lat="45.7885596" lon="11.6579601"><ele>607.8</ele><time>2026-04-25T15:32:45.99Z</time></trkpt><trkpt lat="45.7884811" lon="11.6580328"><ele>612.2</ele><time>2026-04-25T15:32:46.989Z</time></trkpt><trkpt lat="45.7883867" lon="11.6580655"><ele>616.6</ele><time>2026-04-25T15:32:47.989Z</time></trkpt><trkpt lat="45.7882725" lon="11.6580908"><ele>621.0</ele><time>2026-04-25T15:32:48.989Z</time></trkpt><trkpt lat="45.7881683" lon="11.6581413"><ele>615.8</ele><time>2026-04-25T15:32:49.989Z</time></trkpt><trkpt lat="45.788071" lon="11.6582084"><ele>610.6</ele><time>2026-04-25T15:32:50.99Z</time></trkpt><trkpt lat="45.7880065" lon="11.6583062"><ele>605.4</ele><time>2026-04-25T15:32:51.989Z</time></trkpt><trkpt lat="45.7879678" lon="11.6584335"><ele>600.2</ele><time>2026-04-25T15:32:52.989Z</time></trkpt><trkpt lat="45.7879534" lon="11.6585691"><ele>595.0</ele><time>2026-04-25T15:32:53.989Z</time></trkpt><trkpt lat="45.7879489" lon="11.6587112"><ele>595.0</ele><time>2026-04-25T15:32:54.989Z</time></trkpt><trkpt lat="45.7879258" lon="11.6588478"><ele>595.0</ele><time>2026-04-25T15:32:55.989Z</time></trkpt><trkpt lat="45.7878792" lon="11.6589634"><ele>595.0</ele><time>2026-04-25T15:32:56.989Z</time></trkpt><trkpt lat="45.7877969" lon="11.6590432"><ele>595.0</ele><time>2026-04-25T15:32:57.989Z</time></trkpt><trkpt lat="45.7877072" lon="11.6591015"><ele>595.0</ele><time>2026-04-25T15:32:58.989Z</time></trkpt><trkpt lat="45.7876142" lon="11.6591446"><ele>592.0</ele><time>2026-04-25T15:32:59.989Z</time></trkpt><trkpt lat="45.7875213" lon="11.6591998"><ele>589.0</ele><time>2026-04-25T15:33:00.989Z</time></trkpt><trkpt lat="45.7874364" lon="11.6592865"><ele>586.0</ele><time>2026-04-25T15:33:01.989Z</time></trkpt><trkpt lat="45.787368" lon="11.6593989"><ele>583.0</ele><time>2026-04-25T15:33:02.989Z</time></trkpt><trkpt lat="45.7873236" lon="11.6595263"><ele>580.0</ele><time>2026-04-25T15:33:03.989Z</time></trkpt><trkpt lat="45.7872813" lon="11.6596445"><ele>580.0</ele><time>2026-04-25T15:33:04.989Z</time></trkpt><trkpt lat="45.7872434" lon="11.6597688"><ele>580.0</ele><time>2026-04-25T15:33:05.993Z</time></trkpt><trkpt lat="45.7872033" lon="11.6598715"><ele>580.0</ele><time>2026-04-25T15:33:06.99Z</time></trkpt><trkpt lat="45.7871414" lon="11.6599535"><ele>580.0</ele><time>2026-04-25T15:33:07.989Z</time></trkpt><trkpt lat="45.7870647" lon="11.6600152"><ele>580.0</ele><time>2026-04-25T15:33:08.991Z</time></trkpt><trkpt lat="45.7869877" lon="11.6600613"><ele>580.0</ele><time>2026-04-25T15:33:09.989Z</time></trkpt><trkpt lat="45.7869199" lon="11.6601094"><ele>580.0</ele><time>2026-04-25T15:33:10.99Z</time></trkpt><trkpt lat="45.786858" lon="11.6601686"><ele>580.0</ele><time>2026-04-25T15:33:11.989Z</time></trkpt><trkpt lat="45.7868015" lon="11.6602538"><ele>580.0</ele><time>2026-04-25T15:33:12.989Z</time></trkpt><trkpt lat="45.786744" lon="11.6603315"><ele>580.0</ele><time>2026-04-25T15:33:13.989Z</time></trkpt><trkpt lat="45.7866829" lon="11.6604033"><ele>580.0</ele><time>2026-04-25T15:33:14.989Z</time></trkpt><trkpt lat="45.7866187" lon="11.6604709"><ele>580.0</ele><time>2026-04-25T15:33:15.989Z</time></trkpt><trkpt lat="45.7865549" lon="11.6605396"><ele>578.6</ele><time>2026-04-25T15:33:16.989Z</time></trkpt><trkpt lat="45.7864832" lon="11.6606126"><ele>577.2</ele><time>2026-04-25T15:33:17.989Z</time></trkpt><trkpt lat="45.7864093" lon="11.6606881"><ele>575.8</ele><time>2026-04-25T15:33:18.989Z</time></trkpt><trkpt lat="45.786334" lon="11.66076"><ele>574.4</ele><time>2026-04-25T15:33:19.989Z</time></trkpt><trkpt lat="45.7862521" lon="11.6608305"><ele>573.0</ele><time>2026-04-25T15:33:20.991Z</time></trkpt><trkpt lat="45.7861709" lon="11.6609072"><ele>573.0</ele><time>2026-04-25T15:33:21.989Z</time></trkpt><trkpt lat="45.7860894" lon="11.660985"><ele>573.0</ele><time>2026-04-25T15:33:22.99Z</time></trkpt><trkpt lat="45.7860089" lon="11.6610697"><ele>573.0</ele><time>2026-04-25T15:33:23.99Z</time></trkpt><trkpt lat="45.785915" lon="11.6611585"><ele>573.0</ele><time>2026-04-25T15:33:24.99Z</time></trkpt><trkpt lat="45.7858201" lon="11.6612356"><ele>573.0</ele><time>2026-04-25T15:33:25.99Z</time></trkpt><trkpt lat="45.7857164" lon="11.6612985"><ele>570.5</ele><time>2026-04-25T15:33:26.99Z</time></trkpt><trkpt lat="45.7856041" lon="11.6613378"><ele>568.0</ele><time>2026-04-25T15:33:27.99Z</time></trkpt><trkpt lat="45.7854816" lon="11.6613641"><ele>565.5</ele><time>2026-04-25T15:33:28.99Z</time></trkpt><trkpt lat="45.7853703" lon="11.661395"><ele>563.0</ele><time>2026-04-25T15:33:29.99Z</time></trkpt><trkpt lat="45.7852591" lon="11.6614131"><ele>562.8</ele><time>2026-04-25T15:33:30.991Z</time></trkpt><trkpt lat="45.78516" lon="11.661414"><ele>562.5999999999999</ele><time>2026-04-25T15:33:31.99Z</time></trkpt><trkpt lat="45.7850666" lon="11.6613454"><ele>562.4000000000001</ele><time>2026-04-25T15:33:32.99Z</time></trkpt><trkpt lat="45.7849865" lon="11.6612351"><ele>562.2</ele><time>2026-04-25T15:33:33.991Z</time></trkpt><trkpt lat="45.7849258" lon="11.661093"><ele>562.0</ele><time>2026-04-25T15:33:34.991Z</time></trkpt><trkpt lat="45.7848822" lon="11.6609524"><ele>557.0</ele><time>2026-04-25T15:33:35.99Z</time></trkpt><trkpt lat="45.7848363" lon="11.6608197"><ele>552.0</ele><time>2026-04-25T15:33:36.99Z</time></trkpt><trkpt lat="45.7847825" lon="11.6606936"><ele>547.0</ele><time>2026-04-25T15:33:37.99Z</time></trkpt><trkpt lat="45.7847357" lon="11.6605852"><ele>542.0</ele><time>2026-04-25T15:33:38.99Z</time></trkpt><trkpt lat="45.7846928" lon="11.6604938"><ele>537.0</ele><time>2026-04-25T15:33:39.99Z</time></trkpt><trkpt lat="45.7846572" lon="11.6603949"><ele>536.6666666666666</ele><time>2026-04-25T15:33:40.99Z</time></trkpt><trkpt lat="45.7845859" lon="11.6602144"><ele>536.3333333333334</ele><time>2026-04-25T15:33:42.99Z</time></trkpt><trkpt lat="45.7845483" lon="11.6601414"><ele>536.0</ele><time>2026-04-25T15:33:43.99Z</time></trkpt><trkpt lat="45.7845009" lon="11.6600663"><ele>535.6666666666667</ele><time>2026-04-25T15:33:44.99Z</time></trkpt><trkpt lat="45.784444" lon="11.6600007"><ele>535.3333333333334</ele><time>2026-04-25T15:33:45.99Z</time></trkpt><trkpt lat="45.784386" lon="11.6599437"><ele>535.0</ele><time>2026-04-25T15:33:46.99Z</time></trkpt><trkpt lat="45.7843172" lon="11.6598788"><ele>535.0</ele><time>2026-04-25T15:33:47.99Z</time></trkpt><trkpt lat="45.7842365" lon="11.6598158"><ele>535.0</ele><time>2026-04-25T15:33:48.99Z</time></trkpt><trkpt lat="45.7841522" lon="11.6597542"><ele>535.0</ele><time>2026-04-25T15:33:49.991Z</time></trkpt><trkpt lat="45.7840652" lon="11.6596807"><ele>535.0</ele><time>2026-04-25T15:33:50.99Z</time></trkpt><trkpt lat="45.7839867" lon="11.6596206"><ele>535.0</ele><time>2026-04-25T15:33:51.99Z</time></trkpt><trkpt lat="45.7839257" lon="11.6595565"><ele>535.0</ele><time>2026-04-25T15:33:52.99Z</time></trkpt><trkpt lat="45.7838669" lon="11.6594846"><ele>535.0</ele><time>2026-04-25T15:33:53.99Z</time></trkpt><trkpt lat="45.7837631" lon="11.6594254"><ele>535.0</ele><time>2026-04-25T15:33:55.99Z</time></trkpt><trkpt lat="45.7836943" lon="11.6594341"><ele>535.0</ele><time>2026-04-25T15:33:56.99Z</time></trkpt><trkpt lat="45.7836139" lon="11.6594684"><ele>535.0</ele><time>2026-04-25T15:33:57.99Z</time></trkpt><trkpt lat="45.783546" lon="11.6595061"><ele>535.0</ele><time>2026-04-25T15:33:58.991Z</time></trkpt><trkpt lat="45.7834537" lon="11.6595667"><ele>532.6666666666667</ele><time>2026-04-25T15:34:00.991Z</time></trkpt><trkpt lat="45.7833911" lon="11.6596114"><ele>530.3333333333334</ele><time>2026-04-25T15:34:51.991Z</time></trkpt><trkpt lat="45.7833492" lon="11.6596918"><ele>528.0</ele><time>2026-04-25T15:34:53.992Z</time></trkpt><trkpt lat="45.7833062" lon="11.659771"><ele>525.6666666666666</ele><time>2026-04-25T15:34:55.991Z</time></trkpt><trkpt lat="45.7832534" lon="11.6598611"><ele>523.3333333333333</ele><time>2026-04-25T15:34:57.991Z</time></trkpt><trkpt lat="45.7832008" lon="11.6599516"><ele>521.0</ele><time>2026-04-25T15:35:00.991Z</time></trkpt><trkpt lat="45.7831483" lon="11.6600349"><ele>521.0</ele><time>2026-04-25T15:35:02.992Z</time></trkpt><trkpt lat="45.7830955" lon="11.6600971"><ele>521.0</ele><time>2026-04-25T15:35:04.991Z</time></trkpt><trkpt lat="45.7830388" lon="11.6601432"><ele>521.0</ele><time>2026-04-25T15:35:06.991Z</time></trkpt><trkpt lat="45.7829702" lon="11.6601818"><ele>521.0</ele><time>2026-04-25T15:35:08.991Z</time></trkpt><trkpt lat="45.7829104" lon="11.6602135"><ele>521.0</ele><time>2026-04-25T15:35:10.991Z</time></trkpt><trkpt lat="45.7828254" lon="11.6602712"><ele>521.0</ele><time>2026-04-25T15:35:13.991Z</time></trkpt><trkpt lat="45.7827606" lon="11.6603205"><ele>521.0</ele><time>2026-04-25T15:35:15.991Z</time></trkpt><trkpt lat="45.7826926" lon="11.660373"><ele>520.4</ele><time>2026-04-25T15:35:17.992Z</time></trkpt><trkpt lat="45.7826369" lon="11.6604444"><ele>519.8</ele><time>2026-04-25T15:35:19.991Z</time></trkpt><trkpt lat="45.7825655" lon="11.660536"><ele>519.1999999999999</ele><time>2026-04-25T15:35:21.991Z</time></trkpt><trkpt lat="45.7824802" lon="11.6606203"><ele>518.6</ele><time>2026-04-25T15:35:23.991Z</time></trkpt><trkpt lat="45.7823897" lon="11.6607174"><ele>518.0</ele><time>2026-04-25T15:35:25.991Z</time></trkpt><trkpt lat="45.7822901" lon="11.6608203"><ele>518.0</ele><time>2026-04-25T15:35:27.991Z</time></trkpt><trkpt lat="45.782237" lon="11.6608707"><ele>518.0</ele><time>2026-04-25T15:35:28.991Z</time></trkpt><trkpt lat="45.7821786" lon="11.6609237"><ele>518.0</ele><time>2026-04-25T15:35:29.991Z</time></trkpt><trkpt lat="45.7821211" lon="11.6609798"><ele>518.0</ele><time>2026-04-25T15:35:30.991Z</time></trkpt><trkpt lat="45.7820703" lon="11.6610363"><ele>518.0</ele><time>2026-04-25T15:35:31.991Z</time></trkpt><trkpt lat="45.7819895" lon="11.6611418"><ele>518.0</ele><time>2026-04-25T15:35:33.991Z</time></trkpt><trkpt lat="45.7819288" lon="11.6612717"><ele>515.4</ele><time>2026-04-25T15:35:35.992Z</time></trkpt><trkpt lat="45.7818745" lon="11.6613874"><ele>512.8</ele><time>2026-04-25T15:35:37.992Z</time></trkpt><trkpt lat="45.7818182" lon="11.6614844"><ele>510.2</ele><time>2026-04-25T15:35:39.992Z</time></trkpt><trkpt lat="45.7817444" lon="11.6615776"><ele>507.6</ele><time>2026-04-25T15:35:41.992Z</time></trkpt><trkpt lat="45.7816603" lon="11.6616462"><ele>505.0</ele><time>2026-04-25T15:35:43.992Z</time></trkpt><trkpt lat="45.7815952" lon="11.6617009"><ele>505.0</ele><time>2026-04-25T15:35:45.992Z</time></trkpt><trkpt lat="45.7815342" lon="11.6617713"><ele>505.0</ele><time>2026-04-25T15:35:47.992Z</time></trkpt><trkpt lat="45.781455" lon="11.6618467"><ele>505.0</ele><time>2026-04-25T15:35:49.993Z</time></trkpt><trkpt lat="45.7813888" lon="11.661942"><ele>505.0</ele><time>2026-04-25T15:35:51.992Z</time></trkpt><trkpt lat="45.7813306" lon="11.6620555"><ele>505.0</ele><time>2026-04-25T15:35:53.992Z</time></trkpt><trkpt lat="45.7812754" lon="11.6621853"><ele>507.6</ele><time>2026-04-25T15:35:55.992Z</time></trkpt><trkpt lat="45.7812353" lon="11.6623092"><ele>510.2</ele><time>2026-04-25T15:35:57.992Z</time></trkpt><trkpt lat="45.7812005" lon="11.6624128"><ele>512.8</ele><time>2026-04-25T15:35:59.992Z</time></trkpt><trkpt lat="45.7811746" lon="11.6625275"><ele>515.4</ele><time>2026-04-25T15:36:01.992Z</time></trkpt><trkpt lat="45.7811478" lon="11.6626657"><ele>518.0</ele><time>2026-04-25T15:36:03.992Z</time></trkpt><trkpt lat="45.7811307" lon="11.6628227"><ele>518.4</ele><time>2026-04-25T15:36:05.992Z</time></trkpt><trkpt lat="45.7811115" lon="11.6629683"><ele>518.8</ele><time>2026-04-25T15:36:07.992Z</time></trkpt><trkpt lat="45.7810832" lon="11.6630953"><ele>519.2</ele><time>2026-04-25T15:36:09.992Z</time></trkpt><trkpt lat="45.7810451" lon="11.6632045"><ele>519.6</ele><time>2026-04-25T15:36:11.992Z</time></trkpt><trkpt lat="45.7810325" lon="11.6633337"><ele>520.0</ele><time>2026-04-25T15:36:14.992Z</time></trkpt><trkpt lat="45.7810481" lon="11.6634508"><ele>520.0000000000001</ele><time>2026-04-25T15:36:17.992Z</time></trkpt><trkpt lat="45.7810452" lon="11.6635524"><ele>520.0</ele><time>2026-04-25T15:36:19.992Z</time></trkpt><trkpt lat="45.7810446" lon="11.663653"><ele>520.0</ele><time>2026-04-25T15:36:21.992Z</time></trkpt><trkpt lat="45.781054" lon="11.6637434"><ele>520.0</ele><time>2026-04-25T15:36:23.992Z</time></trkpt><trkpt lat="45.7811112" lon="11.6638165"><ele>520.0</ele><time>2026-04-25T15:36:26.992Z</time></trkpt><trkpt lat="45.7811719" lon="11.6637792"><ele>520.0000000000001</ele><time>2026-04-25T15:36:29.992Z</time></trkpt><trkpt lat="45.7812385" lon="11.6637428"><ele>520.0</ele><time>2026-04-25T15:36:33.992Z</time></trkpt><trkpt lat="45.7811709" lon="11.6636944"><ele>518.8333333333334</ele><time>2026-04-25T15:37:10.993Z</time></trkpt><trkpt lat="45.7811021" lon="11.6637399"><ele>517.6666666666667</ele><time>2026-04-25T15:37:13.994Z</time></trkpt><trkpt lat="45.78107" lon="11.663852"><ele>516.5</ele><time>2026-04-25T15:37:16.994Z</time></trkpt><trkpt lat="45.7810411" lon="11.6639606"><ele>515.3333333333334</ele><time>2026-04-25T15:37:19.993Z</time></trkpt><trkpt lat="45.7810562" lon="11.6640596"><ele>514.1666666666666</ele><time>2026-04-25T15:37:23.993Z</time></trkpt><trkpt lat="45.7810741" lon="11.6641657"><ele>513.0</ele><time>2026-04-25T15:37:26.993Z</time></trkpt><trkpt lat="45.7810892" lon="11.6642625"><ele>513.0</ele><time>2026-04-25T15:37:29.994Z</time></trkpt><trkpt lat="45.7811257" lon="11.6643815"><ele>513.0</ele><time>2026-04-25T15:37:32.993Z</time></trkpt><trkpt lat="45.7811539" lon="11.6644667"><ele>513.0</ele><time>2026-04-25T15:37:34.993Z</time></trkpt><trkpt lat="45.7811872" lon="11.6645769"><ele>513.0</ele><time>2026-04-25T15:37:36.993Z</time></trkpt><trkpt lat="45.7812287" lon="11.6647024"><ele>513.0</ele><time>2026-04-25T15:37:38.993Z</time></trkpt><trkpt lat="45.7812864" lon="11.6648411"><ele>510.57142857142867</ele><time>2026-04-25T15:37:40.993Z</time></trkpt><trkpt lat="45.7813423" lon="11.6649914"><ele>508.14285714285717</ele><time>2026-04-25T15:37:42.993Z</time></trkpt><trkpt lat="45.7813775" lon="11.6650752"><ele>505.7142857142858</ele><time>2026-04-25T15:37:43.993Z</time></trkpt><trkpt lat="45.7814164" lon="11.6651572"><ele>503.28571428571433</ele><time>2026-04-25T15:37:44.993Z</time></trkpt><trkpt lat="45.7814532" lon="11.6652309"><ele>500.8571428571429</ele><time>2026-04-25T15:37:45.993Z</time></trkpt><trkpt lat="45.7814854" lon="11.6653087"><ele>498.42857142857144</ele><time>2026-04-25T15:37:46.993Z</time></trkpt><trkpt lat="45.7815146" lon="11.6653903"><ele>496.0</ele><time>2026-04-25T15:37:47.993Z</time></trkpt><trkpt lat="45.7815724" lon="11.6655442"><ele>495.8</ele><time>2026-04-25T15:37:49.993Z</time></trkpt><trkpt lat="45.7816454" lon="11.6656608"><ele>495.6</ele><time>2026-04-25T15:37:51.993Z</time></trkpt><trkpt lat="45.7817378" lon="11.6657211"><ele>495.4</ele><time>2026-04-25T15:37:53.993Z</time></trkpt><trkpt lat="45.7818527" lon="11.6657755"><ele>495.2</ele><time>2026-04-25T15:37:55.994Z</time></trkpt><trkpt lat="45.7819135" lon="11.6658085"><ele>495.0</ele><time>2026-04-25T15:37:56.994Z</time></trkpt><trkpt lat="45.7819726" lon="11.6658422"><ele>495.0</ele><time>2026-04-25T15:37:57.994Z</time></trkpt><trkpt lat="45.782034" lon="11.6658823"><ele>495.0</ele><time>2026-04-25T15:37:58.994Z</time></trkpt><trkpt lat="45.7821411" lon="11.6659551"><ele>495.0</ele><time>2026-04-25T15:38:00.994Z</time></trkpt><trkpt lat="45.7822461" lon="11.6660139"><ele>495.0</ele><time>2026-04-25T15:38:02.994Z</time></trkpt><trkpt lat="45.7823422" lon="11.6660606"><ele>495.0</ele><time>2026-04-25T15:38:04.995Z</time></trkpt><trkpt lat="45.7824266" lon="11.6661129"><ele>491.4</ele><time>2026-04-25T15:38:06.994Z</time></trkpt><trkpt lat="45.7825238" lon="11.6661655"><ele>487.8</ele><time>2026-04-25T15:38:08.995Z</time></trkpt><trkpt lat="45.7826118" lon="11.6662353"><ele>484.20000000000005</ele><time>2026-04-25T15:38:10.994Z</time></trkpt><trkpt lat="45.782706" lon="11.6662806"><ele>480.6</ele><time>2026-04-25T15:38:12.994Z</time></trkpt><trkpt lat="45.7828098" lon="11.6663417"><ele>477.0</ele><time>2026-04-25T15:38:14.994Z</time></trkpt><trkpt lat="45.7828934" lon="11.6664104"><ele>477.0</ele><time>2026-04-25T15:38:16.994Z</time></trkpt><trkpt lat="45.7829701" lon="11.666455"><ele>477.00000000000006</ele><time>2026-04-25T15:38:18.994Z</time></trkpt><trkpt lat="45.7830736" lon="11.6665126"><ele>477.00000000000006</ele><time>2026-04-25T15:38:20.994Z</time></trkpt><trkpt lat="45.7831773" lon="11.6665892"><ele>477.0</ele><time>2026-04-25T15:38:22.994Z</time></trkpt><trkpt lat="45.7832633" lon="11.6666611"><ele>477.0</ele><time>2026-04-25T15:38:24.994Z</time></trkpt><trkpt lat="45.7833344" lon="11.6667053"><ele>477.0</ele><time>2026-04-25T15:38:26.995Z</time></trkpt><trkpt lat="45.7833972" lon="11.666769"><ele>477.0</ele><time>2026-04-25T15:38:28.994Z</time></trkpt><trkpt lat="45.7834452" lon="11.6668377"><ele>477.0</ele><time>2026-04-25T15:38:30.994Z</time></trkpt><trkpt lat="45.7835089" lon="11.6669303"><ele>477.0</ele><time>2026-04-25T15:38:32.994Z</time></trkpt><trkpt lat="45.7835724" lon="11.6670023"><ele>477.0</ele><time>2026-04-25T15:38:34.994Z</time></trkpt><trkpt lat="45.7836444" lon="11.6670254"><ele>477.0</ele><time>2026-04-25T15:38:36.994Z</time></trkpt><trkpt lat="45.7837107" lon="11.66707"><ele>473.6666666666667</ele><time>2026-04-25T15:38:38.995Z</time></trkpt><trkpt lat="45.7837797" lon="11.6671041"><ele>470.33333333333337</ele><time>2026-04-25T15:38:41.994Z</time></trkpt><trkpt lat="45.7838599" lon="11.6671133"><ele>467.0</ele><time>2026-04-25T15:38:44.994Z</time></trkpt><trkpt lat="45.7839333" lon="11.667133"><ele>463.6666666666667</ele><time>2026-04-25T15:38:48.994Z</time></trkpt><trkpt lat="45.7840176" lon="11.6671272"><ele>460.33333333333337</ele><time>2026-04-25T15:38:52.994Z</time></trkpt><trkpt lat="45.7840901" lon="11.6671465"><ele>457.0</ele><time>2026-04-25T15:38:55.994Z</time></trkpt><trkpt lat="45.7841534" lon="11.6671587"><ele>457.00000000000006</ele><time>2026-04-25T15:38:58.994Z</time></trkpt><trkpt lat="45.7842173" lon="11.6671812"><ele>457.0</ele><time>2026-04-25T15:39:01.995Z</time></trkpt><trkpt lat="45.7842985" lon="11.6671921"><ele>457.0</ele><time>2026-04-25T15:39:05.994Z</time></trkpt><trkpt lat="45.7843779" lon="11.6672106"><ele>457.0</ele><time>2026-04-25T15:39:08.995Z</time></trkpt><trkpt lat="45.7844553" lon="11.6672464"><ele>457.00000000000006</ele><time>2026-04-25T15:39:11.995Z</time></trkpt><trkpt lat="45.7844702" lon="11.6673391"><ele>457.0</ele><time>2026-04-25T15:39:13.995Z</time></trkpt><trkpt lat="45.7844087" lon="11.6674421"><ele>457.00000000000006</ele><time>2026-04-25T15:39:16.995Z</time></trkpt><trkpt lat="45.7843281" lon="11.667495"><ele>457.0</ele><time>2026-04-25T15:39:18.995Z</time></trkpt><trkpt lat="45.7842618" lon="11.6675781"><ele>457.0</ele><time>2026-04-25T15:39:20.995Z</time></trkpt><trkpt lat="45.784205" lon="11.6676506"><ele>457.0</ele><time>2026-04-25T15:39:25.995Z</time></trkpt><trkpt lat="45.7841549" lon="11.6677096"><ele>457.00000000000006</ele><time>2026-04-25T15:39:29.995Z</time></trkpt><trkpt lat="45.784107" lon="11.6678003"><ele>457.0</ele><time>2026-04-25T15:39:36.995Z</time></trkpt><trkpt lat="45.7840818" lon="11.6678991"><ele>457.57142857142867</ele><time>2026-04-25T15:39:41.995Z</time></trkpt><trkpt lat="45.7840439" lon="11.6679732"><ele>458.14285714285717</ele><time>2026-04-25T15:39:45.995Z</time></trkpt><trkpt lat="45.7840146" lon="11.6680568"><ele>458.7142857142858</ele><time>2026-04-25T15:39:50.995Z</time></trkpt><trkpt lat="45.784019" lon="11.6681538"><ele>459.28571428571433</ele><time>2026-04-25T15:39:55.996Z</time></trkpt><trkpt lat="45.7839757" lon="11.6682383"><ele>459.8571428571429</ele><time>2026-04-25T15:40:02.995Z</time></trkpt><trkpt lat="45.7839315" lon="11.6683135"><ele>460.42857142857144</ele><time>2026-04-25T15:40:07.995Z</time></trkpt><trkpt lat="45.7838843" lon="11.6683854"><ele>461.0</ele><time>2026-04-25T15:40:12.996Z</time></trkpt><trkpt lat="45.783828" lon="11.6684623"><ele>461.0</ele><time>2026-04-25T15:40:16.997Z</time></trkpt><trkpt lat="45.7838163" lon="11.6685567"><ele>461.00000000000006</ele><time>2026-04-25T15:40:21.996Z</time></trkpt><trkpt lat="45.7838017" lon="11.668673"><ele>461.0</ele><time>2026-04-25T15:40:26.996Z</time></trkpt><trkpt lat="45.783778" lon="11.6687707"><ele>461.0</ele><time>2026-04-25T15:40:31.996Z</time></trkpt><trkpt lat="45.7837471" lon="11.6688564"><ele>461.00000000000006</ele><time>2026-04-25T15:40:36.996Z</time></trkpt><trkpt lat="45.7837437" lon="11.6689615"><ele>461.0</ele><time>2026-04-25T15:40:41.997Z</time></trkpt><trkpt lat="45.7837169" lon="11.6690507"><ele>461.0</ele><time>2026-04-25T15:40:47.997Z</time></trkpt><trkpt lat="45.7837004" lon="11.6691541"><ele>463.5714285714286</ele><time>2026-04-25T15:40:51.996Z</time></trkpt><trkpt lat="45.7836905" lon="11.6692453"><ele>466.1428571428572</ele><time>2026-04-25T15:40:55.996Z</time></trkpt><trkpt lat="45.7836665" lon="11.6693381"><ele>468.7142857142857</ele><time>2026-04-25T15:41:01.996Z</time></trkpt><trkpt lat="45.7836478" lon="11.6694243"><ele>471.28571428571433</ele><time>2026-04-25T15:41:05.996Z</time></trkpt><trkpt lat="45.7836681" lon="11.6695256"><ele>473.8571428571429</ele><time>2026-04-25T15:41:10.997Z</time></trkpt><trkpt lat="45.78371" lon="11.6696109"><ele>476.42857142857144</ele><time>2026-04-25T15:41:14.997Z</time></trkpt><trkpt lat="45.7836992" lon="11.6697001"><ele>479.0</ele><time>2026-04-25T15:41:19.997Z</time></trkpt><trkpt lat="45.783695" lon="11.6698065"><ele>479.57142857142856</ele><time>2026-04-25T15:41:28.998Z</time></trkpt><trkpt lat="45.7836693" lon="11.6699001"><ele>480.14285714285717</ele><time>2026-04-25T15:41:34.997Z</time></trkpt><trkpt lat="45.7836785" lon="11.6699992"><ele>480.7142857142857</ele><time>2026-04-25T15:41:41.997Z</time></trkpt><trkpt lat="45.7836418" lon="11.6700887"><ele>481.2857142857143</ele><time>2026-04-25T15:41:48.997Z</time></trkpt><trkpt lat="45.7836035" lon="11.6701659"><ele>481.8571428571429</ele><time>2026-04-25T15:41:54.999Z</time></trkpt><trkpt lat="45.7835668" lon="11.6702498"><ele>482.42857142857144</ele><time>2026-04-25T15:42:00.997Z</time></trkpt><trkpt lat="45.783524" lon="11.6703169"><ele>483.0</ele><time>2026-04-25T15:42:07.997Z</time></trkpt><trkpt lat="45.7834909" lon="11.6704001"><ele>483.0</ele><time>2026-04-25T15:42:13.997Z</time></trkpt><trkpt lat="45.7834526" lon="11.6704733"><ele>483.0</ele><time>2026-04-25T15:42:18.998Z</time></trkpt><trkpt lat="45.7834495" lon="11.6705642"><ele>483.0</ele><time>2026-04-25T15:42:25.998Z</time></trkpt><trkpt lat="45.7835116" lon="11.6706356"><ele>483.0</ele><time>2026-04-25T15:42:30.998Z</time></trkpt><trkpt lat="45.7835648" lon="11.670697"><ele>483.0</ele><time>2026-04-25T15:42:35.998Z</time></trkpt><trkpt lat="45.783624" lon="11.67073"><ele>483.0</ele><time>2026-04-25T15:42:41.998Z</time></trkpt><trkpt lat="45.7836885" lon="11.6707366"><ele>483.0</ele><time>2026-04-25T15:42:46.998Z</time></trkpt><trkpt lat="45.7837564" lon="11.6707711"><ele>483.0</ele><time>2026-04-25T15:42:52.998Z</time></trkpt><trkpt lat="45.7837757" lon="11.6708759"><ele>483.0</ele><time>2026-04-25T15:42:59.998Z</time></trkpt><trkpt lat="45.7837714" lon="11.6709691"><ele>483.0</ele><time>2026-04-25T15:43:03.999Z</time></trkpt><trkpt lat="45.7837716" lon="11.6710676"><ele>483.0</ele><time>2026-04-25T15:43:09.999Z</time></trkpt><trkpt lat="45.7837619" lon="11.6711592"><ele>483.0</ele><time>2026-04-25T15:43:38.999Z</time></trkpt><trkpt lat="45.7837291" lon="11.6712557"><ele>483.0</ele><time>2026-04-25T15:43:42.999Z</time></trkpt><trkpt lat="45.7837568" lon="11.671351"><ele>483.0</ele><time>2026-04-25T15:43:46.999Z</time></trkpt><trkpt lat="45.7838233" lon="11.6713772"><ele>480.8333333333333</ele><time>2026-04-25T15:43:50Z</time></trkpt><trkpt lat="45.7838985" lon="11.6713411"><ele>478.66666666666663</ele><time>2026-04-25T15:43:53.999Z</time></trkpt><trkpt lat="45.7839618" lon="11.6713285"><ele>476.5</ele><time>2026-04-25T15:43:59Z</time></trkpt><trkpt lat="45.7840372" lon="11.6713342"><ele>474.3333333333333</ele><time>2026-04-25T15:44:04.999Z</time></trkpt><trkpt lat="45.7840957" lon="11.6713846"><ele>472.16666666666663</ele><time>2026-04-25T15:44:08.999Z</time></trkpt><trkpt lat="45.7841901" lon="11.6714396"><ele>470.0</ele><time>2026-04-25T15:44:11.999Z</time></trkpt><trkpt lat="45.784277" lon="11.6715066"><ele>469.99999999999994</ele><time>2026-04-25T15:44:13.999Z</time></trkpt><trkpt lat="45.7843428" lon="11.6715352"><ele>470.0</ele><time>2026-04-25T15:44:15.999Z</time></trkpt><trkpt lat="45.7844274" lon="11.6715181"><ele>470.0</ele><time>2026-04-25T15:44:17.999Z</time></trkpt><trkpt lat="45.7844943" lon="11.6714641"><ele>470.0</ele><time>2026-04-25T15:44:19.999Z</time></trkpt><trkpt lat="45.7845848" lon="11.6713654"><ele>469.99999999999994</ele><time>2026-04-25T15:44:21.999Z</time></trkpt><trkpt lat="45.7846381" lon="11.6713171"><ele>470.0</ele><time>2026-04-25T15:44:22.999Z</time></trkpt><trkpt lat="45.7846998" lon="11.6712722"><ele>468.66666666666663</ele><time>2026-04-25T15:44:24Z</time></trkpt><trkpt lat="45.7847647" lon="11.6712283"><ele>467.3333333333333</ele><time>2026-04-25T15:44:25Z</time></trkpt><trkpt lat="45.7848398" lon="11.6711908"><ele>466.0</ele><time>2026-04-25T15:44:25.999Z</time></trkpt><trkpt lat="45.7849107" lon="11.671148"><ele>464.66666666666663</ele><time>2026-04-25T15:44:26.999Z</time></trkpt><trkpt lat="45.7849901" lon="11.6711065"><ele>463.3333333333333</ele><time>2026-04-25T15:44:27.999Z</time></trkpt><trkpt lat="45.7850712" lon="11.6710668"><ele>462.0</ele><time>2026-04-25T15:44:28.999Z</time></trkpt><trkpt lat="45.7851411" lon="11.6710397"><ele>464.5</ele><time>2026-04-25T15:44:29.999Z</time></trkpt><trkpt lat="45.7852187" lon="11.6710204"><ele>467.0</ele><time>2026-04-25T15:44:30.999Z</time></trkpt><trkpt lat="45.7852869" lon="11.6709993"><ele>469.5</ele><time>2026-04-25T15:44:32Z</time></trkpt><trkpt lat="45.7853877" lon="11.6709633"><ele>472.0</ele><time>2026-04-25T15:44:34Z</time></trkpt><trkpt lat="45.7853959" lon="11.6710837"><ele>474.5</ele><time>2026-04-25T15:44:43Z</time></trkpt><trkpt lat="45.7853528" lon="11.671179"><ele>477.0</ele><time>2026-04-25T15:44:48Z</time></trkpt><trkpt lat="45.7853235" lon="11.6712591"><ele>478.8333333333333</ele><time>2026-04-25T15:44:51Z</time></trkpt><trkpt lat="45.7852676" lon="11.6713326"><ele>480.66666666666663</ele><time>2026-04-25T15:44:56Z</time></trkpt><trkpt lat="45.7852388" lon="11.6714135"><ele>482.5</ele><time>2026-04-25T15:44:59Z</time></trkpt><trkpt lat="45.7851943" lon="11.6715001"><ele>484.3333333333333</ele><time>2026-04-25T15:45:02Z</time></trkpt><trkpt lat="45.7851579" lon="11.6716146"><ele>486.16666666666663</ele><time>2026-04-25T15:45:04Z</time></trkpt><trkpt lat="45.7851206" lon="11.6717663"><ele>488.0</ele><time>2026-04-25T15:45:06Z</time></trkpt><trkpt lat="45.7851077" lon="11.6718548"><ele>481.2</ele><time>2026-04-25T15:45:07Z</time></trkpt><trkpt lat="45.7850924" lon="11.6720228"><ele>474.4</ele><time>2026-04-25T15:45:09Z</time></trkpt><trkpt lat="45.7850845" lon="11.6721659"><ele>467.59999999999997</ele><time>2026-04-25T15:45:11Z</time></trkpt><trkpt lat="45.7850797" lon="11.6722943"><ele>460.79999999999995</ele><time>2026-04-25T15:45:13Z</time></trkpt><trkpt lat="45.78508" lon="11.6724067"><ele>454.0</ele><time>2026-04-25T15:45:15Z</time></trkpt><trkpt lat="45.7850881" lon="11.672524"><ele>454.00000000000006</ele><time>2026-04-25T15:45:17Z</time></trkpt><trkpt lat="45.7850931" lon="11.6726483"><ele>454.0</ele><time>2026-04-25T15:45:19Z</time></trkpt><trkpt lat="45.785109" lon="11.6727635"><ele>454.0</ele><time>2026-04-25T15:45:21Z</time></trkpt><trkpt lat="45.7851336" lon="11.6728557"><ele>454.0</ele><time>2026-04-25T15:45:23Z</time></trkpt><trkpt lat="45.7851637" lon="11.6729637"><ele>454.00000000000006</ele><time>2026-04-25T15:45:25Z</time></trkpt><trkpt lat="45.7851898" lon="11.6730811"><ele>454.0</ele><time>2026-04-25T15:45:28Z</time></trkpt><trkpt lat="45.7852349" lon="11.6731896"><ele>456.0</ele><time>2026-04-25T15:45:32Z</time></trkpt><trkpt lat="45.7852781" lon="11.673286"><ele>458.00000000000006</ele><time>2026-04-25T15:45:34Z</time></trkpt><trkpt lat="45.7853288" lon="11.6733615"><ele>460.0</ele><time>2026-04-25T15:45:36.001Z</time></trkpt><trkpt lat="45.7853711" lon="11.67343"><ele>462.0</ele><time>2026-04-25T15:45:38.001Z</time></trkpt><trkpt lat="45.7854197" lon="11.6735097"><ele>464.00000000000006</ele><time>2026-04-25T15:45:41.001Z</time></trkpt><trkpt lat="45.7854861" lon="11.6735762"><ele>466.0</ele><time>2026-04-25T15:45:44.002Z</time></trkpt><trkpt lat="45.7855496" lon="11.6736006"><ele>468.0</ele><time>2026-04-25T15:45:48.001Z</time></trkpt><trkpt lat="45.7856099" lon="11.6735711"><ele>468.0</ele><time>2026-04-25T15:45:52.001Z</time></trkpt><trkpt lat="45.7856712" lon="11.6735443"><ele>468.0</ele><time>2026-04-25T15:45:55.002Z</time></trkpt><trkpt lat="45.7857415" lon="11.6735099"><ele>468.0</ele><time>2026-04-25T15:46:01.001Z</time></trkpt><trkpt lat="45.7858353" lon="11.6735072"><ele>468.0</ele><time>2026-04-25T15:46:03.001Z</time></trkpt><trkpt lat="45.7859487" lon="11.6734975"><ele>468.0</ele><time>2026-04-25T15:46:05.001Z</time></trkpt><trkpt lat="45.7860479" lon="11.6734975"><ele>468.0</ele><time>2026-04-25T15:46:07.001Z</time></trkpt><trkpt lat="45.7861654" lon="11.6735182"><ele>468.2</ele><time>2026-04-25T15:46:09.001Z</time></trkpt><trkpt lat="45.7862763" lon="11.6735551"><ele>468.4</ele><time>2026-04-25T15:46:11.001Z</time></trkpt><trkpt lat="45.7863917" lon="11.6735872"><ele>468.59999999999997</ele><time>2026-04-25T15:46:13.001Z</time></trkpt><trkpt lat="45.7864952" lon="11.6736311"><ele>468.79999999999995</ele><time>2026-04-25T15:46:15.002Z</time></trkpt><trkpt lat="45.7865765" lon="11.6736677"><ele>469.0</ele><time>2026-04-25T15:46:17.001Z</time></trkpt><trkpt lat="45.7866468" lon="11.6737052"><ele>464.1666666666667</ele><time>2026-04-25T15:46:19.002Z</time></trkpt><trkpt lat="45.7866973" lon="11.673775"><ele>459.33333333333337</ele><time>2026-04-25T15:46:22.001Z</time></trkpt><trkpt lat="45.7866051" lon="11.6738129"><ele>454.5</ele><time>2026-04-25T15:46:25.002Z</time></trkpt><trkpt lat="45.7864968" lon="11.6737984"><ele>449.66666666666663</ele><time>2026-04-25T15:46:27.001Z</time></trkpt><trkpt lat="45.7864267" lon="11.6738033"><ele>444.8333333333333</ele><time>2026-04-25T15:46:28.002Z</time></trkpt><trkpt lat="45.7863538" lon="11.673818"><ele>440.0</ele><time>2026-04-25T15:46:29.001Z</time></trkpt><trkpt lat="45.7862867" lon="11.6738419"><ele>440.0</ele><time>2026-04-25T15:46:30.001Z</time></trkpt><trkpt lat="45.7861903" lon="11.6738861"><ele>440.0</ele><time>2026-04-25T15:46:32.001Z</time></trkpt><trkpt lat="45.7861068" lon="11.6739687"><ele>440.0</ele><time>2026-04-25T15:46:35.001Z</time></trkpt><trkpt lat="45.7860462" lon="11.6740614"><ele>440.0</ele><time>2026-04-25T15:46:37.001Z</time></trkpt><trkpt lat="45.7859817" lon="11.6741689"><ele>440.0</ele><time>2026-04-25T15:46:39.003Z</time></trkpt><trkpt lat="45.7859194" lon="11.6742525"><ele>439.99999999999994</ele><time>2026-04-25T15:46:41.002Z</time></trkpt><trkpt lat="45.7858511" lon="11.6743277"><ele>440.0</ele><time>2026-04-25T15:46:43.002Z</time></trkpt><trkpt lat="45.7857899" lon="11.6744081"><ele>440.0</ele><time>2026-04-25T15:46:45.002Z</time></trkpt><trkpt lat="45.7857332" lon="11.6745118"><ele>440.0</ele><time>2026-04-25T15:46:48.002Z</time></trkpt><trkpt lat="45.7856784" lon="11.6745723"><ele>439.99999999999994</ele><time>2026-04-25T15:46:51.002Z</time></trkpt><trkpt lat="45.78562" lon="11.6746319"><ele>440.0</ele><time>2026-04-25T15:46:53.002Z</time></trkpt><trkpt lat="45.7855468" lon="11.6746617"><ele>436.1428571428571</ele><time>2026-04-25T15:46:56.002Z</time></trkpt><trkpt lat="45.7855692" lon="11.6747595"><ele>432.2857142857143</ele><time>2026-04-25T15:47:05.002Z</time></trkpt><trkpt lat="45.7856379" lon="11.6747946"><ele>428.42857142857144</ele><time>2026-04-25T15:47:09.002Z</time></trkpt><trkpt lat="45.7857053" lon="11.6747967"><ele>424.57142857142856</ele><time>2026-04-25T15:47:13.002Z</time></trkpt><trkpt lat="45.785775" lon="11.674786"><ele>420.7142857142857</ele><time>2026-04-25T15:47:17.002Z</time></trkpt><trkpt lat="45.7858535" lon="11.6748226"><ele>416.85714285714283</ele><time>2026-04-25T15:47:21.002Z</time></trkpt><trkpt lat="45.7859169" lon="11.6748698"><ele>413.0</ele><time>2026-04-25T15:47:25.002Z</time></trkpt><trkpt lat="45.785975" lon="11.6749495"><ele>412.7142857142857</ele><time>2026-04-25T15:47:29.002Z</time></trkpt><trkpt lat="45.7860263" lon="11.6750189"><ele>412.42857142857144</ele><time>2026-04-25T15:47:32.002Z</time></trkpt><trkpt lat="45.7861022" lon="11.6750561"><ele>412.1428571428571</ele><time>2026-04-25T15:47:35.002Z</time></trkpt><trkpt lat="45.7861633" lon="11.6750885"><ele>411.8571428571429</ele><time>2026-04-25T15:47:37.003Z</time></trkpt><trkpt lat="45.7862319" lon="11.675097"><ele>411.57142857142856</ele><time>2026-04-25T15:47:40.003Z</time></trkpt><trkpt lat="45.7862993" lon="11.6750829"><ele>411.2857142857143</ele><time>2026-04-25T15:47:43.003Z</time></trkpt><trkpt lat="45.7863643" lon="11.6750457"><ele>411.0</ele><time>2026-04-25T15:47:47.004Z</time></trkpt><trkpt lat="45.786423" lon="11.6750994"><ele>411.0</ele><time>2026-04-25T15:47:51.003Z</time></trkpt><trkpt lat="45.7863927" lon="11.6751948"><ele>411.0</ele><time>2026-04-25T15:47:56.003Z</time></trkpt><trkpt lat="45.7863307" lon="11.6752457"><ele>411.0</ele><time>2026-04-25T15:48:00.003Z</time></trkpt><trkpt lat="45.7862654" lon="11.6753157"><ele>411.0</ele><time>2026-04-25T15:48:03.004Z</time></trkpt><trkpt lat="45.7862139" lon="11.6753694"><ele>411.0</ele><time>2026-04-25T15:48:07.003Z</time></trkpt><trkpt lat="45.7861438" lon="11.6753834"><ele>411.0</ele><time>2026-04-25T15:48:12.003Z</time></trkpt><trkpt lat="45.7860749" lon="11.675385"><ele>411.0</ele><time>2026-04-25T15:48:16.003Z</time></trkpt><trkpt lat="45.7859987" lon="11.6753485"><ele>406.7142857142857</ele><time>2026-04-25T15:48:19.003Z</time></trkpt><trkpt lat="45.7859171" lon="11.6753399"><ele>402.42857142857144</ele><time>2026-04-25T15:48:22.003Z</time></trkpt><trkpt lat="45.7858836" lon="11.6754355"><ele>398.1428571428571</ele><time>2026-04-25T15:48:27.003Z</time></trkpt><trkpt lat="45.7859337" lon="11.675495"><ele>393.8571428571429</ele><time>2026-04-25T15:48:30.003Z</time></trkpt><trkpt lat="45.7860107" lon="11.6755324"><ele>389.5714285714286</ele><time>2026-04-25T15:48:33.003Z</time></trkpt><trkpt lat="45.7860705" lon="11.6755658"><ele>385.2857142857143</ele><time>2026-04-25T15:48:36.004Z</time></trkpt><trkpt lat="45.786141" lon="11.6756219"><ele>381.0</ele><time>2026-04-25T15:48:40.004Z</time></trkpt><trkpt lat="45.7862137" lon="11.6756393"><ele>381.0</ele><time>2026-04-25T15:48:44.004Z</time></trkpt><trkpt lat="45.7862834" lon="11.6756554"><ele>381.0</ele><time>2026-04-25T15:48:48.004Z</time></trkpt><trkpt lat="45.7863549" lon="11.675662"><ele>381.0</ele><time>2026-04-25T15:48:52.004Z</time></trkpt><trkpt lat="45.7864275" lon="11.6756245"><ele>381.0</ele><time>2026-04-25T15:48:55.004Z</time></trkpt><trkpt lat="45.7864868" lon="11.6755857"><ele>381.0</ele><time>2026-04-25T15:48:57.004Z</time></trkpt><trkpt lat="45.7865618" lon="11.6755708"><ele>381.0</ele><time>2026-04-25T15:49:00.004Z</time></trkpt><trkpt lat="45.7866245" lon="11.6756382"><ele>381.0</ele><time>2026-04-25T15:49:03.004Z</time></trkpt><trkpt lat="45.7865896" lon="11.6757181"><ele>381.0</ele><time>2026-04-25T15:49:09.004Z</time></trkpt><trkpt lat="45.7865356" lon="11.6757788"><ele>381.0</ele><time>2026-04-25T15:49:15.004Z</time></trkpt><trkpt lat="45.7864824" lon="11.6758306"><ele>381.0</ele><time>2026-04-25T15:49:22.004Z</time></trkpt><trkpt lat="45.7864472" lon="11.6759071"><ele>381.0</ele><time>2026-04-25T15:49:27.004Z</time></trkpt><trkpt lat="45.7864136" lon="11.6759914"><ele>381.0</ele><time>2026-04-25T15:49:30.004Z</time></trkpt><trkpt lat="45.7863742" lon="11.6760678"><ele>381.0</ele><time>2026-04-25T15:49:33.004Z</time></trkpt><trkpt lat="45.7863184" lon="11.676163"><ele>381.0</ele><time>2026-04-25T15:49:36.005Z</time></trkpt><trkpt lat="45.7862624" lon="11.6762309"><ele>375.8333333333333</ele><time>2026-04-25T15:49:39.005Z</time></trkpt><trkpt lat="45.7861875" lon="11.6762658"><ele>370.6666666666667</ele><time>2026-04-25T15:49:43.005Z</time></trkpt><trkpt lat="45.78611" lon="11.6762447"><ele>365.5</ele><time>2026-04-25T15:49:47.005Z</time></trkpt><trkpt lat="45.7860482" lon="11.6761876"><ele>360.33333333333337</ele><time>2026-04-25T15:49:51.005Z</time></trkpt><trkpt lat="45.7859761" lon="11.6762343"><ele>355.1666666666667</ele><time>2026-04-25T15:49:55.005Z</time></trkpt><trkpt lat="45.7859941" lon="11.6763461"><ele>350.0</ele><time>2026-04-25T15:49:57.005Z</time></trkpt><trkpt lat="45.7860386" lon="11.6764767"><ele>350.0</ele><time>2026-04-25T15:49:59.006Z</time></trkpt><trkpt lat="45.7860874" lon="11.6765785"><ele>350.0</ele><time>2026-04-25T15:50:01.005Z</time></trkpt><trkpt lat="45.7861413" lon="11.6766721"><ele>350.0</ele><time>2026-04-25T15:50:03.005Z</time></trkpt><trkpt lat="45.7862076" lon="11.6767388"><ele>350.0</ele><time>2026-04-25T15:50:05.005Z</time></trkpt><trkpt lat="45.786291" lon="11.6767639"><ele>350.0</ele><time>2026-04-25T15:50:07.006Z</time></trkpt><trkpt lat="45.7863701" lon="11.6767343"><ele>350.0</ele><time>2026-04-25T15:50:09.005Z</time></trkpt><trkpt lat="45.7864382" lon="11.6766944"><ele>350.0</ele><time>2026-04-25T15:50:11.005Z</time></trkpt><trkpt lat="45.7865176" lon="11.676696"><ele>350.0</ele><time>2026-04-25T15:50:14.005Z</time></trkpt><trkpt lat="45.7864989" lon="11.6767911"><ele>350.0</ele><time>2026-04-25T15:50:19.005Z</time></trkpt><trkpt lat="45.7864346" lon="11.6768204"><ele>350.0</ele><time>2026-04-25T15:50:24.005Z</time></trkpt><trkpt lat="45.7863558" lon="11.6768456"><ele>350.0</ele><time>2026-04-25T15:50:27.005Z</time></trkpt><trkpt lat="45.7862782" lon="11.6768633"><ele>350.0</ele><time>2026-04-25T15:50:30.005Z</time></trkpt><trkpt lat="45.7862074" lon="11.6768698"><ele>350.0</ele><time>2026-04-25T15:50:35.006Z</time></trkpt><trkpt lat="45.7861266" lon="11.6769283"><ele>350.0</ele><time>2026-04-25T15:50:41.006Z</time></trkpt><trkpt lat="45.7860334" lon="11.6769609"><ele>350.0</ele><time>2026-04-25T15:50:44.006Z</time></trkpt><trkpt lat="45.7859668" lon="11.676986"><ele>350.0</ele><time>2026-04-25T15:50:46.006Z</time></trkpt><trkpt lat="45.7858994" lon="11.6769878"><ele>350.0</ele><time>2026-04-25T15:50:48.006Z</time></trkpt><trkpt lat="45.7858386" lon="11.6769599"><ele>350.0</ele><time>2026-04-25T15:50:50.006Z</time></trkpt><trkpt lat="45.7857722" lon="11.6768829"><ele>350.0</ele><time>2026-04-25T15:50:53.006Z</time></trkpt><trkpt lat="45.7857187" lon="11.6769505"><ele>347.2857142857143</ele><time>2026-04-25T15:50:57.006Z</time></trkpt><trkpt lat="45.7857489" lon="11.6770316"><ele>344.57142857142856</ele><time>2026-04-25T15:50:59.006Z</time></trkpt><trkpt lat="45.7858042" lon="11.6771167"><ele>341.8571428571429</ele><time>2026-04-25T15:51:01.006Z</time></trkpt><trkpt lat="45.7858556" lon="11.6772066"><ele>339.1428571428571</ele><time>2026-04-25T15:51:03.006Z</time></trkpt><trkpt lat="45.785893" lon="11.6772817"><ele>336.42857142857144</ele><time>2026-04-25T15:51:05.006Z</time></trkpt><trkpt lat="45.7859303" lon="11.6773557"><ele>333.7142857142857</ele><time>2026-04-25T15:51:07.006Z</time></trkpt><trkpt lat="45.7859738" lon="11.6774284"><ele>331.0</ele><time>2026-04-25T15:51:09.006Z</time></trkpt><trkpt lat="45.7860254" lon="11.6774909"><ele>330.5</ele><time>2026-04-25T15:51:11.006Z</time></trkpt><trkpt lat="45.7860812" lon="11.6775397"><ele>330.0</ele><time>2026-04-25T15:51:13.007Z</time></trkpt><trkpt lat="45.7861598" lon="11.6775771"><ele>329.5</ele><time>2026-04-25T15:51:16.006Z</time></trkpt><trkpt lat="45.7861956" lon="11.6776567"><ele>329.0</ele><time>2026-04-25T15:51:20.007Z</time></trkpt><trkpt lat="45.7861311" lon="11.6777172"><ele>328.5</ele><time>2026-04-25T15:51:23.006Z</time></trkpt><trkpt lat="45.7860531" lon="11.6777715"><ele>328.0</ele><time>2026-04-25T15:51:26.006Z</time></trkpt><trkpt lat="45.7859664" lon="11.6778145"><ele>325.99999999999994</ele><time>2026-04-25T15:51:29.007Z</time></trkpt><trkpt lat="45.7859007" lon="11.6778276"><ele>324.0</ele><time>2026-04-25T15:51:31.008Z</time></trkpt><trkpt lat="45.7858364" lon="11.6778325"><ele>322.0</ele><time>2026-04-25T15:51:33.008Z</time></trkpt><trkpt lat="45.7857704" lon="11.6778701"><ele>320.0</ele><time>2026-04-25T15:51:35.007Z</time></trkpt><trkpt lat="45.7857172" lon="11.6779778"><ele>318.0</ele><time>2026-04-25T15:51:37.007Z</time></trkpt><trkpt lat="45.7856938" lon="11.6780649"><ele>315.99999999999994</ele><time>2026-04-25T15:51:38.007Z</time></trkpt><trkpt lat="45.7856707" lon="11.678164"><ele>314.0</ele><time>2026-04-25T15:51:39.007Z</time></trkpt><trkpt lat="45.7856478" lon="11.6782651"><ele>314.0</ele><time>2026-04-25T15:51:40.007Z</time></trkpt><trkpt lat="45.7856307" lon="11.6783608"><ele>314.0</ele><time>2026-04-25T15:51:41.008Z</time></trkpt><trkpt lat="45.7856177" lon="11.6784543"><ele>314.0</ele><time>2026-04-25T15:51:42.007Z</time></trkpt><trkpt lat="45.7856026" lon="11.6785841"><ele>314.0</ele><time>2026-04-25T15:51:43.007Z</time></trkpt><trkpt lat="45.7855904" lon="11.6786944"><ele>314.0</ele><time>2026-04-25T15:51:44.007Z</time></trkpt><trkpt lat="45.7855778" lon="11.678785"><ele>314.0</ele><time>2026-04-25T15:51:45.007Z</time></trkpt><trkpt lat="45.7855565" lon="11.6789489"><ele>311.0</ele><time>2026-04-25T15:51:47.007Z</time></trkpt><trkpt lat="45.7855277" lon="11.6791167"><ele>308.0</ele><time>2026-04-25T15:51:49.008Z</time></trkpt><trkpt lat="45.7854974" lon="11.6792742"><ele>305.0</ele><time>2026-04-25T15:51:51.007Z</time></trkpt><trkpt lat="45.7854797" lon="11.679421"><ele>302.0</ele><time>2026-04-25T15:51:53.007Z</time></trkpt><trkpt lat="45.7854528" lon="11.6795791"><ele>300.1666666666667</ele><time>2026-04-25T15:51:55.007Z</time></trkpt><trkpt lat="45.7854377" lon="11.6796754"><ele>298.33333333333337</ele><time>2026-04-25T15:51:56.007Z</time></trkpt><trkpt lat="45.7854294" lon="11.6797706"><ele>296.5</ele><time>2026-04-25T15:51:57.007Z</time></trkpt><trkpt lat="45.7854216" lon="11.679868"><ele>294.6666666666667</ele><time>2026-04-25T15:51:58.007Z</time></trkpt><trkpt lat="45.7854177" lon="11.6800413"><ele>292.8333333333333</ele><time>2026-04-25T15:52:00.008Z</time></trkpt><trkpt lat="45.7854224" lon="11.6802169"><ele>291.0</ele><time>2026-04-25T15:52:02.007Z</time></trkpt><trkpt lat="45.7854327" lon="11.680371"><ele>289.1666666666667</ele><time>2026-04-25T15:52:04.007Z</time></trkpt><trkpt lat="45.7854345" lon="11.680515"><ele>287.3333333333333</ele><time>2026-04-25T15:52:06.007Z</time></trkpt><trkpt lat="45.785422" lon="11.6806252"><ele>285.5</ele><time>2026-04-25T15:52:08.007Z</time></trkpt><trkpt lat="45.7854045" lon="11.6807229"><ele>283.66666666666663</ele><time>2026-04-25T15:52:10.007Z</time></trkpt><trkpt lat="45.7853793" lon="11.6808314"><ele>281.8333333333333</ele><time>2026-04-25T15:52:13.007Z</time></trkpt><trkpt lat="45.7854082" lon="11.6809191"><ele>280.0</ele><time>2026-04-25T15:52:30.008Z</time></trkpt><trkpt lat="45.7853677" lon="11.6809993"><ele>280.0</ele><time>2026-04-25T15:52:34.008Z</time></trkpt><trkpt lat="45.7853149" lon="11.6810698"><ele>280.0</ele><time>2026-04-25T15:52:39.008Z</time></trkpt><trkpt lat="45.7852683" lon="11.6811437"><ele>280.0</ele><time>2026-04-25T15:52:43.009Z</time></trkpt><trkpt lat="45.7852274" lon="11.6812264"><ele>280.0</ele><time>2026-04-25T15:52:47.008Z</time></trkpt><trkpt lat="45.7851814" lon="11.6812998"><ele>280.0</ele><time>2026-04-25T15:52:51.008Z</time></trkpt><trkpt lat="45.7851507" lon="11.6813836"><ele>280.0</ele><time>2026-04-25T15:52:55.019Z</time></trkpt><trkpt lat="45.785122" lon="11.6814672"><ele>280.0</ele><time>2026-04-25T15:52:59.046Z</time></trkpt><trkpt lat="45.7850526" lon="11.6815365"><ele>280.0</ele><time>2026-04-25T15:53:03.073Z</time></trkpt><trkpt lat="45.7849954" lon="11.68159"><ele>280.0</ele><time>2026-04-25T15:53:06.008Z</time></trkpt><trkpt lat="45.7849461" lon="11.6816472"><ele>280.0</ele><time>2026-04-25T15:53:09.011Z</time></trkpt><trkpt lat="45.7848988" lon="11.6817118"><ele>280.0</ele><time>2026-04-25T15:53:12.047Z</time></trkpt><trkpt lat="45.7848553" lon="11.6818064"><ele>280.0</ele><time>2026-04-25T15:53:16.073Z</time></trkpt><trkpt lat="45.7848207" lon="11.6818858"><ele>280.0</ele><time>2026-04-25T15:53:19.017Z</time></trkpt><trkpt lat="45.7847881" lon="11.6819703"><ele>280.0</ele><time>2026-04-25T15:53:22.037Z</time></trkpt><trkpt lat="45.7847526" lon="11.6820455"><ele>280.0</ele><time>2026-04-25T15:53:25.056Z</time></trkpt><trkpt lat="45.7847096" lon="11.6821326"><ele>280.0</ele><time>2026-04-25T15:53:29.009Z</time></trkpt><trkpt lat="45.784673" lon="11.682228"><ele>280.0</ele><time>2026-04-25T15:53:33.009Z</time></trkpt><trkpt lat="45.7846362" lon="11.6823154"><ele>280.0</ele><time>2026-04-25T15:53:37.035Z</time></trkpt><trkpt lat="45.7845976" lon="11.6823933"><ele>280.0</ele><time>2026-04-25T15:53:41.06Z</time></trkpt><trkpt lat="45.7845549" lon="11.6824737"><ele>280.0</ele><time>2026-04-25T15:53:45.086Z</time></trkpt><trkpt lat="45.784503" lon="11.6825495"><ele>280.0</ele><time>2026-04-25T15:53:49.012Z</time></trkpt><trkpt lat="45.7844561" lon="11.682622"><ele>280.0</ele><time>2026-04-25T15:53:53.038Z</time></trkpt><trkpt lat="45.7844045" lon="11.6826902"><ele>280.0</ele><time>2026-04-25T15:53:57.064Z</time></trkpt><trkpt lat="45.7843586" lon="11.6827865"><ele>280.0</ele><time>2026-04-25T15:54:01.009Z</time></trkpt><trkpt lat="45.784313" lon="11.6828877"><ele>280.0</ele><time>2026-04-25T15:54:04.009Z</time></trkpt><trkpt lat="45.7842466" lon="11.6829449"><ele>280.0</ele><time>2026-04-25T15:54:07.028Z</time></trkpt><trkpt lat="45.7841834" lon="11.682964"><ele>280.0</ele><time>2026-04-25T15:54:11.055Z</time></trkpt><trkpt lat="45.7841099" lon="11.6829135"><ele>280.57142857142856</ele><time>2026-04-25T15:54:15.081Z</time></trkpt><trkpt lat="45.7840543" lon="11.68286"><ele>281.1428571428571</ele><time>2026-04-25T15:54:19.009Z</time></trkpt><trkpt lat="45.7840161" lon="11.6829535"><ele>281.7142857142857</ele><time>2026-04-25T15:54:23.033Z</time></trkpt><trkpt lat="45.7839458" lon="11.6828862"><ele>282.2857142857143</ele><time>2026-04-25T15:54:27.058Z</time></trkpt><trkpt lat="45.783935" lon="11.6827919"><ele>282.85714285714283</ele><time>2026-04-25T15:54:30.078Z</time></trkpt><trkpt lat="45.7838761" lon="11.6827592"><ele>283.42857142857144</ele><time>2026-04-25T15:54:35.01Z</time></trkpt><trkpt lat="45.7838131" lon="11.682753"><ele>284.0</ele><time>2026-04-25T15:54:39.036Z</time></trkpt><trkpt lat="45.783753" lon="11.6827054"><ele>288.0</ele><time>2026-04-25T15:54:44.07Z</time></trkpt><trkpt lat="45.7837011" lon="11.6826428"><ele>292.0</ele><time>2026-04-25T15:54:48.095Z</time></trkpt><trkpt lat="45.7836437" lon="11.6825927"><ele>296.0</ele><time>2026-04-25T15:54:52.02Z</time></trkpt><trkpt lat="45.7835799" lon="11.6825447"><ele>300.0</ele><time>2026-04-25T15:54:56.017Z</time></trkpt><trkpt lat="45.7835058" lon="11.6825252"><ele>304.0</ele><time>2026-04-25T15:55:01.079Z</time></trkpt><trkpt lat="45.7834376" lon="11.6825678"><ele>308.0</ele><time>2026-04-25T15:55:05.01Z</time></trkpt><trkpt lat="45.7833625" lon="11.6825931"><ele>312.0</ele><time>2026-04-25T15:55:09.031Z</time></trkpt><trkpt lat="45.7833019" lon="11.6825476"><ele>312.0</ele><time>2026-04-25T15:55:13.057Z</time></trkpt><trkpt lat="45.7832484" lon="11.6824712"><ele>312.0</ele><time>2026-04-25T15:55:18.089Z</time></trkpt><trkpt lat="45.7832106" lon="11.6823976"><ele>312.0</ele><time>2026-04-25T15:55:22.015Z</time></trkpt><trkpt lat="45.7831517" lon="11.6823322"><ele>312.0</ele><time>2026-04-25T15:55:27.048Z</time></trkpt><trkpt lat="45.7831039" lon="11.6822635"><ele>312.0</ele><time>2026-04-25T15:55:31.073Z</time></trkpt><trkpt lat="45.7830669" lon="11.6821666"><ele>312.0</ele><time>2026-04-25T15:55:36.011Z</time></trkpt><trkpt lat="45.7830412" lon="11.6820702"><ele>312.0</ele><time>2026-04-25T15:55:41.038Z</time></trkpt><trkpt lat="45.7830074" lon="11.6819732"><ele>311.8571428571429</ele><time>2026-04-25T15:55:45.064Z</time></trkpt><trkpt lat="45.7829569" lon="11.6818847"><ele>311.71428571428567</ele><time>2026-04-25T15:55:49.011Z</time></trkpt><trkpt lat="45.7829" lon="11.6818122"><ele>311.57142857142856</ele><time>2026-04-25T15:55:53.093Z</time></trkpt><trkpt lat="45.7828456" lon="11.6817335"><ele>311.42857142857144</ele><time>2026-04-25T15:55:57.043Z</time></trkpt><trkpt lat="45.7828029" lon="11.6816507"><ele>311.28571428571433</ele><time>2026-04-25T15:56:01.068Z</time></trkpt><trkpt lat="45.7827549" lon="11.6815759"><ele>311.1428571428571</ele><time>2026-04-25T15:56:05.094Z</time></trkpt><trkpt lat="45.782705" lon="11.6815081"><ele>311.0</ele><time>2026-04-25T15:56:09.036Z</time></trkpt><trkpt lat="45.7826467" lon="11.6814491"><ele>311.0</ele><time>2026-04-25T15:56:13.062Z</time></trkpt><trkpt lat="45.782588" lon="11.6814059"><ele>311.0</ele><time>2026-04-25T15:56:17.011Z</time></trkpt><trkpt lat="45.7825214" lon="11.6813391"><ele>311.0</ele><time>2026-04-25T15:56:22.041Z</time></trkpt><trkpt lat="45.7824733" lon="11.6814025"><ele>311.0</ele><time>2026-04-25T15:56:34.04Z</time></trkpt><trkpt lat="45.7823952" lon="11.6813861"><ele>311.0</ele><time>2026-04-25T15:56:38.066Z</time></trkpt><trkpt lat="45.7823161" lon="11.6813454"><ele>311.0</ele><time>2026-04-25T15:56:41.012Z</time></trkpt><trkpt lat="45.7822565" lon="11.6813053"><ele>311.0</ele><time>2026-04-25T15:56:43.012Z</time></trkpt><trkpt lat="45.7821939" lon="11.6812616"><ele>311.0</ele><time>2026-04-25T15:56:45.072Z</time></trkpt><trkpt lat="45.7821251" lon="11.6812086"><ele>311.0</ele><time>2026-04-25T15:56:47.024Z</time></trkpt><trkpt lat="45.7820356" lon="11.6811073"><ele>311.0</ele><time>2026-04-25T15:56:49.037Z</time></trkpt><trkpt lat="45.7819529" lon="11.6810076"><ele>311.0</ele><time>2026-04-25T15:56:51.051Z</time></trkpt><trkpt lat="45.7818596" lon="11.6809356"><ele>311.0</ele><time>2026-04-25T15:56:53.064Z</time></trkpt><trkpt lat="45.7817759" lon="11.6808451"><ele>309.83333333333337</ele><time>2026-04-25T15:56:54.012Z</time></trkpt><trkpt lat="45.7817038" lon="11.6807601"><ele>308.6666666666667</ele><time>2026-04-25T15:56:56.012Z</time></trkpt><trkpt lat="45.7816645" lon="11.6806518"><ele>307.5</ele><time>2026-04-25T15:56:58.012Z</time></trkpt><trkpt lat="45.7816046" lon="11.6805807"><ele>306.3333333333333</ele><time>2026-04-25T15:57:01.012Z</time></trkpt><trkpt lat="45.7815222" lon="11.6805992"><ele>305.16666666666663</ele><time>2026-04-25T15:57:03.012Z</time></trkpt><trkpt lat="45.7814443" lon="11.680638"><ele>304.0</ele><time>2026-04-25T15:57:05.012Z</time></trkpt><trkpt lat="45.7813489" lon="11.6806553"><ele>304.0</ele><time>2026-04-25T15:57:07.012Z</time></trkpt><trkpt lat="45.7812478" lon="11.680669"><ele>304.0</ele><time>2026-04-25T15:57:09.013Z</time></trkpt><trkpt lat="45.7811503" lon="11.680678"><ele>304.0</ele><time>2026-04-25T15:57:11.012Z</time></trkpt><trkpt lat="45.7810353" lon="11.6807011"><ele>304.0</ele><time>2026-04-25T15:57:13.012Z</time></trkpt><trkpt lat="45.780917" lon="11.6807127"><ele>304.0</ele><time>2026-04-25T15:57:15.012Z</time></trkpt><trkpt lat="45.7808137" lon="11.6806969"><ele>299.59999999999997</ele><time>2026-04-25T15:57:17.012Z</time></trkpt><trkpt lat="45.7807011" lon="11.6807079"><ele>295.2</ele><time>2026-04-25T15:57:19.012Z</time></trkpt><trkpt lat="45.7806165" lon="11.6807623"><ele>290.79999999999995</ele><time>2026-04-25T15:57:21.012Z</time></trkpt><trkpt lat="45.780544" lon="11.6808367"><ele>286.4</ele><time>2026-04-25T15:57:23.012Z</time></trkpt><trkpt lat="45.7804745" lon="11.6808972"><ele>282.0</ele><time>2026-04-25T15:57:25.012Z</time></trkpt><trkpt lat="45.7803999" lon="11.6809567"><ele>282.0</ele><time>2026-04-25T15:57:27.012Z</time></trkpt><trkpt lat="45.7803432" lon="11.6810041"><ele>282.0</ele><time>2026-04-25T15:57:29.012Z</time></trkpt><trkpt lat="45.7802789" lon="11.6810072"><ele>282.0</ele><time>2026-04-25T15:57:32.014Z</time></trkpt><trkpt lat="45.7802319" lon="11.6809386"><ele>282.0</ele><time>2026-04-25T15:57:35.013Z</time></trkpt><trkpt lat="45.780207" lon="11.6808502"><ele>282.0</ele><time>2026-04-25T15:57:39.014Z</time></trkpt><trkpt lat="45.7802318" lon="11.6807503"><ele>282.0</ele><time>2026-04-25T15:57:44.013Z</time></trkpt><trkpt lat="45.7803002" lon="11.6806937"><ele>282.0</ele><time>2026-04-25T15:57:51.014Z</time></trkpt><trkpt lat="45.7802471" lon="11.6807434"><ele>282.0</ele><time>2026-04-25T15:57:57.013Z</time></trkpt><trkpt lat="45.7802046" lon="11.680859"><ele>282.0</ele><time>2026-04-25T15:58:00.014Z</time></trkpt><trkpt lat="45.7802335" lon="11.6809599"><ele>282.0</ele><time>2026-04-25T15:58:02.013Z</time></trkpt><trkpt lat="45.7802919" lon="11.6810357"><ele>282.0</ele><time>2026-04-25T15:58:05.013Z</time></trkpt><trkpt lat="45.7803611" lon="11.6809974"><ele>282.0</ele><time>2026-04-25T15:58:09.013Z</time></trkpt><trkpt lat="45.7804241" lon="11.6809196"><ele>282.0</ele><time>2026-04-25T15:58:13.013Z</time></trkpt><trkpt lat="45.7804796" lon="11.6808662"><ele>282.0</ele><time>2026-04-25T15:58:16.013Z</time></trkpt><trkpt lat="45.7805474" lon="11.6808303"><ele>282.0</ele><time>2026-04-25T15:58:19.013Z</time></trkpt><trkpt lat="45.7806004" lon="11.6807633"><ele>282.0</ele><time>2026-04-25T15:58:22.013Z</time></trkpt><trkpt lat="45.7806747" lon="11.6807091"><ele>282.0</ele><time>2026-04-25T15:58:26.013Z</time></trkpt><trkpt lat="45.7807332" lon="11.6806746"><ele>282.0</ele><time>2026-04-25T15:58:29.013Z</time></trkpt><trkpt lat="45.7808077" lon="11.6806527"><ele>282.0</ele><time>2026-04-25T15:58:33.014Z</time></trkpt><trkpt lat="45.7808859" lon="11.6806635"><ele>282.0</ele><time>2026-04-25T15:58:37.013Z</time></trkpt><trkpt lat="45.7809505" lon="11.6806796"><ele>285.14285714285717</ele><time>2026-04-25T15:58:43.014Z</time></trkpt><trkpt lat="45.7810282" lon="11.6806844"><ele>288.2857142857143</ele><time>2026-04-25T15:58:47.014Z</time></trkpt><trkpt lat="45.7810988" lon="11.6806971"><ele>291.42857142857144</ele><time>2026-04-25T15:58:52.015Z</time></trkpt><trkpt lat="45.7811689" lon="11.680659"><ele>294.57142857142856</ele><time>2026-04-25T15:58:58.014Z</time></trkpt><trkpt lat="45.781234" lon="11.6806308"><ele>297.7142857142857</ele><time>2026-04-25T15:59:05.015Z</time></trkpt><trkpt lat="45.7813014" lon="11.6806276"><ele>300.85714285714283</ele><time>2026-04-25T15:59:11.014Z</time></trkpt><trkpt lat="45.7813708" lon="11.6806143"><ele>304.0</ele><time>2026-04-25T15:59:18.014Z</time></trkpt><trkpt lat="45.781436" lon="11.6805869"><ele>304.0</ele><time>2026-04-25T15:59:23.014Z</time></trkpt><trkpt lat="45.7815074" lon="11.6805889"><ele>304.0</ele><time>2026-04-25T15:59:32.014Z</time></trkpt><trkpt lat="45.7815692" lon="11.6805601"><ele>304.0</ele><time>2026-04-25T15:59:36.014Z</time></trkpt><trkpt lat="45.7816409" lon="11.6805396"><ele>304.0</ele><time>2026-04-25T15:59:42.014Z</time></trkpt><trkpt lat="45.7816986" lon="11.6805809"><ele>304.0</ele><time>2026-04-25T15:59:50.015Z</time></trkpt><trkpt lat="45.7817206" lon="11.6806882"><ele>304.0</ele><time>2026-04-25T15:59:59.015Z</time></trkpt><trkpt lat="45.7817731" lon="11.6807669"><ele>304.0</ele><time>2026-04-25T16:00:05.015Z</time></trkpt><trkpt lat="45.7818337" lon="11.6808261"><ele>305.0</ele><time>2026-04-25T16:00:13.016Z</time></trkpt><trkpt lat="45.7818827" lon="11.680891"><ele>306.0</ele><time>2026-04-25T16:00:20.015Z</time></trkpt><trkpt lat="45.7819434" lon="11.6809463"><ele>307.0</ele><time>2026-04-25T16:00:25.015Z</time></trkpt><trkpt lat="45.7820072" lon="11.6810082"><ele>308.0</ele><time>2026-04-25T16:00:32.015Z</time></trkpt><trkpt lat="45.7820636" lon="11.6810689"><ele>309.0</ele><time>2026-04-25T16:00:39.015Z</time></trkpt><trkpt lat="45.7821199" lon="11.681116"><ele>310.0</ele><time>2026-04-25T16:00:46.015Z</time></trkpt><trkpt lat="45.7821815" lon="11.6811445"><ele>311.0</ele><time>2026-04-25T16:00:54.015Z</time></trkpt><trkpt lat="45.782242" lon="11.6811806"><ele>311.0</ele><time>2026-04-25T16:01:03.016Z</time></trkpt><trkpt lat="45.7823066" lon="11.6812162"><ele>311.0</ele><time>2026-04-25T16:01:11.016Z</time></trkpt><trkpt lat="45.7823487" lon="11.6812957"><ele>311.0</ele><time>2026-04-25T16:01:17.017Z</time></trkpt><trkpt lat="45.7824051" lon="11.681357"><ele>311.0</ele><time>2026-04-25T16:01:24.016Z</time></trkpt><trkpt lat="45.7824646" lon="11.6813995"><ele>311.0</ele><time>2026-04-25T16:01:33.016Z</time></trkpt><trkpt lat="45.782526" lon="11.681367"><ele>311.0</ele><time>2026-04-25T16:01:42.016Z</time></trkpt><trkpt lat="45.7824828" lon="11.6812877"><ele>311.0</ele><time>2026-04-25T16:01:48.016Z</time></trkpt><trkpt lat="45.782438" lon="11.6812088"><ele>311.0</ele><time>2026-04-25T16:01:53.016Z</time></trkpt><trkpt lat="45.7823888" lon="11.6811434"><ele>311.0</ele><time>2026-04-25T16:01:58.016Z</time></trkpt><trkpt lat="45.7823349" lon="11.6810679"><ele>311.0</ele><time>2026-04-25T16:02:04.016Z</time></trkpt><trkpt lat="45.7822932" lon="11.6809819"><ele>311.0</ele><time>2026-04-25T16:02:08.018Z</time></trkpt><trkpt lat="45.7822582" lon="11.6808893"><ele>311.0</ele><time>2026-04-25T16:02:14.017Z</time></trkpt><trkpt lat="45.7822138" lon="11.6808213"><ele>311.0</ele><time>2026-04-25T16:02:18.018Z</time></trkpt><trkpt lat="45.7821636" lon="11.6807601"><ele>311.0</ele><time>2026-04-25T16:02:22.017Z</time></trkpt><trkpt lat="45.7821202" lon="11.6806893"><ele>315.57142857142856</ele><time>2026-04-25T16:02:27.017Z</time></trkpt><trkpt lat="45.7820909" lon="11.6805926"><ele>320.14285714285717</ele><time>2026-04-25T16:02:33.017Z</time></trkpt><trkpt lat="45.7820621" lon="11.6805039"><ele>324.7142857142857</ele><time>2026-04-25T16:02:38.017Z</time></trkpt><trkpt lat="45.7820301" lon="11.6804151"><ele>329.2857142857143</ele><time>2026-04-25T16:02:43.017Z</time></trkpt><trkpt lat="45.7820002" lon="11.6803201"><ele>333.8571428571429</ele><time>2026-04-25T16:02:47.017Z</time></trkpt><trkpt lat="45.7819774" lon="11.6802134"><ele>338.42857142857144</ele><time>2026-04-25T16:02:52.031Z</time></trkpt><trkpt lat="45.7819415" lon="11.6801258"><ele>343.0</ele><time>2026-04-25T16:02:56.059Z</time></trkpt><trkpt lat="45.7819194" lon="11.6800273"><ele>341.85714285714283</ele><time>2026-04-25T16:03:00.084Z</time></trkpt><trkpt lat="45.7818874" lon="11.6799414"><ele>340.7142857142857</ele><time>2026-04-25T16:03:04.02Z</time></trkpt><trkpt lat="45.7818526" lon="11.6798548"><ele>339.57142857142856</ele><time>2026-04-25T16:03:08.062Z</time></trkpt><trkpt lat="45.7818039" lon="11.6797794"><ele>338.42857142857144</ele><time>2026-04-25T16:03:12.089Z</time></trkpt><trkpt lat="45.7817779" lon="11.6796879"><ele>337.2857142857143</ele><time>2026-04-25T16:03:18.029Z</time></trkpt><trkpt lat="45.7817742" lon="11.6795868"><ele>336.1428571428571</ele><time>2026-04-25T16:03:50.018Z</time></trkpt><trkpt lat="45.7817457" lon="11.6794743"><ele>335.0</ele><time>2026-04-25T16:03:54.018Z</time></trkpt><trkpt lat="45.7817197" lon="11.6793868"><ele>334.99999999999994</ele><time>2026-04-25T16:03:57.018Z</time></trkpt><trkpt lat="45.7816978" lon="11.6792651"><ele>335.0</ele><time>2026-04-25T16:04:00.019Z</time></trkpt><trkpt lat="45.7816764" lon="11.6791737"><ele>335.0</ele><time>2026-04-25T16:04:03.018Z</time></trkpt><trkpt lat="45.7816865" lon="11.6790622"><ele>335.0</ele><time>2026-04-25T16:04:07.019Z</time></trkpt><trkpt lat="45.7816876" lon="11.6789568"><ele>335.0</ele><time>2026-04-25T16:04:11.018Z</time></trkpt><trkpt lat="45.7816857" lon="11.6788529"><ele>334.99999999999994</ele><time>2026-04-25T16:04:15.019Z</time></trkpt><trkpt lat="45.781665" lon="11.6787629"><ele>335.0</ele><time>2026-04-25T16:04:18.018Z</time></trkpt><trkpt lat="45.7816502" lon="11.6786534"><ele>335.83333333333337</ele><time>2026-04-25T16:04:22.019Z</time></trkpt><trkpt lat="45.781633" lon="11.6785484"><ele>336.6666666666667</ele><time>2026-04-25T16:04:26.02Z</time></trkpt><trkpt lat="45.7816305" lon="11.6784362"><ele>337.5</ele><time>2026-04-25T16:04:30.02Z</time></trkpt><trkpt lat="45.7816193" lon="11.6783451"><ele>338.3333333333333</ele><time>2026-04-25T16:04:33.019Z</time></trkpt><trkpt lat="45.7816099" lon="11.6782115"><ele>339.16666666666663</ele><time>2026-04-25T16:04:36.019Z</time></trkpt><trkpt lat="45.781618" lon="11.678065"><ele>340.0</ele><time>2026-04-25T16:04:38.02Z</time></trkpt><trkpt lat="45.7816343" lon="11.6779056"><ele>339.4</ele><time>2026-04-25T16:04:40.019Z</time></trkpt><trkpt lat="45.7816483" lon="11.6777318"><ele>338.8</ele><time>2026-04-25T16:04:42.019Z</time></trkpt><trkpt lat="45.7816688" lon="11.6775594"><ele>338.20000000000005</ele><time>2026-04-25T16:04:44.019Z</time></trkpt><trkpt lat="45.7816696" lon="11.6774552"><ele>337.6</ele><time>2026-04-25T16:04:45.019Z</time></trkpt><trkpt lat="45.7816651" lon="11.6773301"><ele>337.0</ele><time>2026-04-25T16:04:46.019Z</time></trkpt><trkpt lat="45.7816517" lon="11.6772064"><ele>337.0</ele><time>2026-04-25T16:04:47.019Z</time></trkpt><trkpt lat="45.7816279" lon="11.6770876"><ele>337.0</ele><time>2026-04-25T16:04:48.019Z</time></trkpt><trkpt lat="45.7815959" lon="11.676974"><ele>337.0</ele><time>2026-04-25T16:04:49.019Z</time></trkpt><trkpt lat="45.7815584" lon="11.676858"><ele>337.0</ele><time>2026-04-25T16:04:50.019Z</time></trkpt><trkpt lat="45.7815156" lon="11.6767372"><ele>337.0</ele><time>2026-04-25T16:04:51.019Z</time></trkpt><trkpt lat="45.7814642" lon="11.6766021"><ele>338.20000000000005</ele><time>2026-04-25T16:04:52.019Z</time></trkpt><trkpt lat="45.7814084" lon="11.676472"><ele>339.4</ele><time>2026-04-25T16:04:53.019Z</time></trkpt><trkpt lat="45.7813455" lon="11.6763436"><ele>340.6</ele><time>2026-04-25T16:04:54.019Z</time></trkpt><trkpt lat="45.7812755" lon="11.6762408"><ele>341.79999999999995</ele><time>2026-04-25T16:04:55.019Z</time></trkpt><trkpt lat="45.781204" lon="11.6761758"><ele>343.0</ele><time>2026-04-25T16:04:56.019Z</time></trkpt><trkpt lat="45.7811304" lon="11.6761522"><ele>343.0</ele><time>2026-04-25T16:04:57.019Z</time></trkpt><trkpt lat="45.7810336" lon="11.6761641"><ele>343.0</ele><time>2026-04-25T16:04:58.019Z</time></trkpt><trkpt lat="45.7809259" lon="11.6762146"><ele>343.0</ele><time>2026-04-25T16:04:59.019Z</time></trkpt><trkpt lat="45.7808284" lon="11.6763"><ele>343.0</ele><time>2026-04-25T16:05:00.02Z</time></trkpt><trkpt lat="45.7807677" lon="11.6763661"><ele>343.0</ele><time>2026-04-25T16:05:01.019Z</time></trkpt><trkpt lat="45.7807005" lon="11.6763914"><ele>340.0</ele><time>2026-04-25T16:05:02.02Z</time></trkpt><trkpt lat="45.7806275" lon="11.6763706"><ele>337.0</ele><time>2026-04-25T16:05:03.019Z</time></trkpt><trkpt lat="45.7805571" lon="11.6763185"><ele>334.0</ele><time>2026-04-25T16:05:04.019Z</time></trkpt><trkpt lat="45.7804989" lon="11.676245"><ele>331.0</ele><time>2026-04-25T16:05:05.019Z</time></trkpt><trkpt lat="45.7804746" lon="11.6761407"><ele>328.0</ele><time>2026-04-25T16:05:06.019Z</time></trkpt><trkpt lat="45.7804653" lon="11.6760319"><ele>325.0</ele><time>2026-04-25T16:05:07.019Z</time></trkpt><trkpt lat="45.7804761" lon="11.6759021"><ele>325.0</ele><time>2026-04-25T16:05:08.019Z</time></trkpt><trkpt lat="45.7804914" lon="11.675769"><ele>325.0</ele><time>2026-04-25T16:05:09.019Z</time></trkpt><trkpt lat="45.7804879" lon="11.6756289"><ele>325.0</ele><time>2026-04-25T16:05:10.02Z</time></trkpt><trkpt lat="45.7804697" lon="11.6754965"><ele>325.0</ele><time>2026-04-25T16:05:11.019Z</time></trkpt><trkpt lat="45.7804417" lon="11.6753598"><ele>325.0</ele><time>2026-04-25T16:05:12.02Z</time></trkpt><trkpt lat="45.7804096" lon="11.6752164"><ele>325.6</ele><time>2026-04-25T16:05:13.02Z</time></trkpt><trkpt lat="45.7803822" lon="11.6750746"><ele>326.2</ele><time>2026-04-25T16:05:14.02Z</time></trkpt><trkpt lat="45.7803586" lon="11.6749326"><ele>326.79999999999995</ele><time>2026-04-25T16:05:15.02Z</time></trkpt><trkpt lat="45.7803344" lon="11.6747811"><ele>327.4</ele><time>2026-04-25T16:05:16.019Z</time></trkpt><trkpt lat="45.78032" lon="11.6746269"><ele>328.0</ele><time>2026-04-25T16:05:17.019Z</time></trkpt><trkpt lat="45.7803082" lon="11.6744751"><ele>328.0</ele><time>2026-04-25T16:05:18.019Z</time></trkpt><trkpt lat="45.7802934" lon="11.6743229"><ele>328.0</ele><time>2026-04-25T16:05:19.019Z</time></trkpt><trkpt lat="45.7802823" lon="11.6741633"><ele>328.0</ele><time>2026-04-25T16:05:20.019Z</time></trkpt><trkpt lat="45.7802767" lon="11.6740021"><ele>328.0</ele><time>2026-04-25T16:05:21.019Z</time></trkpt><trkpt lat="45.7802657" lon="11.6738362"><ele>328.0</ele><time>2026-04-25T16:05:22.02Z</time></trkpt><trkpt lat="45.7802482" lon="11.6736725"><ele>328.4</ele><time>2026-04-25T16:05:23.02Z</time></trkpt><trkpt lat="45.7802245" lon="11.6735165"><ele>328.79999999999995</ele><time>2026-04-25T16:05:24.02Z</time></trkpt><trkpt lat="45.78019" lon="11.673364"><ele>329.2</ele><time>2026-04-25T16:05:25.02Z</time></trkpt><trkpt lat="45.780149" lon="11.6732227"><ele>329.6</ele><time>2026-04-25T16:05:26.02Z</time></trkpt><trkpt lat="45.7801051" lon="11.6730849"><ele>330.0</ele><time>2026-04-25T16:05:27.02Z</time></trkpt><trkpt lat="45.7800689" lon="11.6729352"><ele>321.2</ele><time>2026-04-25T16:05:28.02Z</time></trkpt><trkpt lat="45.7800387" lon="11.6727817"><ele>312.4</ele><time>2026-04-25T16:05:29.02Z</time></trkpt><trkpt lat="45.7800198" lon="11.6726427"><ele>303.6</ele><time>2026-04-25T16:05:30.02Z</time></trkpt><trkpt lat="45.7799899" lon="11.6725188"><ele>294.8</ele><time>2026-04-25T16:05:31.02Z</time></trkpt><trkpt lat="45.7799484" lon="11.6724033"><ele>286.0</ele><time>2026-04-25T16:05:32.02Z</time></trkpt><trkpt lat="45.7799" lon="11.6722937"><ele>286.0</ele><time>2026-04-25T16:05:33.02Z</time></trkpt><trkpt lat="45.7798512" lon="11.6721924"><ele>286.0</ele><time>2026-04-25T16:05:34.02Z</time></trkpt><trkpt lat="45.7798151" lon="11.6720941"><ele>286.0</ele><time>2026-04-25T16:05:35.02Z</time></trkpt><trkpt lat="45.7797951" lon="11.6719818"><ele>286.0</ele><time>2026-04-25T16:05:36.02Z</time></trkpt><trkpt lat="45.7798016" lon="11.6718559"><ele>286.0</ele><time>2026-04-25T16:05:37.02Z</time></trkpt><trkpt lat="45.7798352" lon="11.6717286"><ele>286.0</ele><time>2026-04-25T16:05:38.02Z</time></trkpt><trkpt lat="45.7798762" lon="11.6716102"><ele>286.2</ele><time>2026-04-25T16:05:39.02Z</time></trkpt><trkpt lat="45.7799033" lon="11.6714845"><ele>286.40000000000003</ele><time>2026-04-25T16:05:40.02Z</time></trkpt><trkpt lat="45.7799078" lon="11.6713499"><ele>286.6</ele><time>2026-04-25T16:05:41.02Z</time></trkpt><trkpt lat="45.7798924" lon="11.6712092"><ele>286.8</ele><time>2026-04-25T16:05:42.02Z</time></trkpt><trkpt lat="45.7798694" lon="11.6710585"><ele>287.0</ele><time>2026-04-25T16:05:43.02Z</time></trkpt><trkpt lat="45.7798469" lon="11.6709033"><ele>287.0</ele><time>2026-04-25T16:05:44.02Z</time></trkpt><trkpt lat="45.7798357" lon="11.6707731"><ele>287.0</ele><time>2026-04-25T16:05:45.021Z</time></trkpt><trkpt lat="45.7798211" lon="11.6706501"><ele>287.0</ele><time>2026-04-25T16:05:46.02Z</time></trkpt><trkpt lat="45.7798103" lon="11.6705038"><ele>287.0</ele><time>2026-04-25T16:05:47.02Z</time></trkpt><trkpt lat="45.7798024" lon="11.6703744"><ele>287.0</ele><time>2026-04-25T16:05:48.02Z</time></trkpt><trkpt lat="45.7798027" lon="11.670262"><ele>286.5</ele><time>2026-04-25T16:05:49.02Z</time></trkpt><trkpt lat="45.7798122" lon="11.6701533"><ele>286.0</ele><time>2026-04-25T16:05:50.02Z</time></trkpt><trkpt lat="45.7798357" lon="11.6700328"><ele>285.5</ele><time>2026-04-25T16:05:51.02Z</time></trkpt><trkpt lat="45.779863" lon="11.6699112"><ele>285.0</ele><time>2026-04-25T16:05:52.021Z</time></trkpt><trkpt lat="45.7798745" lon="11.6698057"><ele>284.5</ele><time>2026-04-25T16:05:53.02Z</time></trkpt><trkpt lat="45.7798119" lon="11.6697412"><ele>284.0</ele><time>2026-04-25T16:05:55.02Z</time></trkpt><trkpt lat="45.7797316" lon="11.6698494"><ele>284.0</ele><time>2026-04-25T16:05:57.02Z</time></trkpt><trkpt lat="45.779688" lon="11.6699462"><ele>284.0</ele><time>2026-04-25T16:05:59.02Z</time></trkpt><trkpt lat="45.7796995" lon="11.6700652"><ele>284.0</ele><time>2026-04-25T16:06:02.02Z</time></trkpt><trkpt lat="45.7797396" lon="11.6701354"><ele>284.0</ele><time>2026-04-25T16:06:27.021Z</time></trkpt><trkpt lat="45.7797224" lon="11.6702477"><ele>284.0</ele><time>2026-04-25T16:06:30.021Z</time></trkpt><trkpt lat="45.7796958" lon="11.6703683"><ele>284.0</ele><time>2026-04-25T16:06:32.021Z</time></trkpt><trkpt lat="45.7796726" lon="11.6705108"><ele>284.5</ele><time>2026-04-25T16:06:34.021Z</time></trkpt><trkpt lat="45.7796379" lon="11.6706814"><ele>285.0</ele><time>2026-04-25T16:06:36.022Z</time></trkpt><trkpt lat="45.7796226" lon="11.6707719"><ele>285.5</ele><time>2026-04-25T16:06:37.021Z</time></trkpt><trkpt lat="45.7796099" lon="11.6708713"><ele>286.0</ele><time>2026-04-25T16:06:38.021Z</time></trkpt><trkpt lat="45.7795946" lon="11.6709776"><ele>286.5</ele><time>2026-04-25T16:06:39.021Z</time></trkpt><trkpt lat="45.7795761" lon="11.6710894"><ele>287.0</ele><time>2026-04-25T16:06:40.022Z</time></trkpt><trkpt lat="45.7795577" lon="11.6712053"><ele>287.6666666666667</ele><time>2026-04-25T16:06:41.021Z</time></trkpt><trkpt lat="45.7795377" lon="11.6713209"><ele>288.33333333333337</ele><time>2026-04-25T16:06:42.021Z</time></trkpt><trkpt lat="45.7795162" lon="11.6714339"><ele>289.0</ele><time>2026-04-25T16:06:43.022Z</time></trkpt><trkpt lat="45.7794879" lon="11.6715464"><ele>289.6666666666667</ele><time>2026-04-25T16:06:44.021Z</time></trkpt><trkpt lat="45.7794334" lon="11.6716411"><ele>290.3333333333333</ele><time>2026-04-25T16:06:45.022Z</time></trkpt><trkpt lat="45.7793568" lon="11.6717164"><ele>291.0</ele><time>2026-04-25T16:06:46.021Z</time></trkpt><trkpt lat="45.7792732" lon="11.6717592"><ele>284.0</ele><time>2026-04-25T16:06:47.021Z</time></trkpt><trkpt lat="45.7792042" lon="11.671817"><ele>277.0</ele><time>2026-04-25T16:06:48.021Z</time></trkpt><trkpt lat="45.7791429" lon="11.6719115"><ele>270.0</ele><time>2026-04-25T16:06:49.021Z</time></trkpt><trkpt lat="45.7791041" lon="11.6720257"><ele>263.0</ele><time>2026-04-25T16:06:50.021Z</time></trkpt><trkpt lat="45.7790951" lon="11.6721723"><ele>256.0</ele><time>2026-04-25T16:06:51.021Z</time></trkpt><trkpt lat="45.7790936" lon="11.6723112"><ele>255.20000000000002</ele><time>2026-04-25T16:06:52.021Z</time></trkpt><trkpt lat="45.7791088" lon="11.6724398"><ele>254.40000000000003</ele><time>2026-04-25T16:06:53.021Z</time></trkpt><trkpt lat="45.7791373" lon="11.6725765"><ele>253.6</ele><time>2026-04-25T16:06:54.021Z</time></trkpt><trkpt lat="45.7791862" lon="11.6727178"><ele>252.8</ele><time>2026-04-25T16:06:55.021Z</time></trkpt><trkpt lat="45.7792441" lon="11.6728638"><ele>252.0</ele><time>2026-04-25T16:06:56.021Z</time></trkpt><trkpt lat="45.7792899" lon="11.6730083"><ele>251.8</ele><time>2026-04-25T16:06:57.021Z</time></trkpt><trkpt lat="45.7793155" lon="11.6731565"><ele>251.6</ele><time>2026-04-25T16:06:58.021Z</time></trkpt><trkpt lat="45.7793196" lon="11.6733032"><ele>251.40000000000003</ele><time>2026-04-25T16:06:59.021Z</time></trkpt><trkpt lat="45.7792986" lon="11.6734502"><ele>251.20000000000002</ele><time>2026-04-25T16:07:00.021Z</time></trkpt><trkpt lat="45.7792841" lon="11.6735955"><ele>251.0</ele><time>2026-04-25T16:07:01.021Z</time></trkpt><trkpt lat="45.7792734" lon="11.6737472"><ele>251.4</ele><time>2026-04-25T16:07:02.021Z</time></trkpt><trkpt lat="45.7792525" lon="11.6739033"><ele>251.8</ele><time>2026-04-25T16:07:03.021Z</time></trkpt><trkpt lat="45.7792034" lon="11.6740338"><ele>252.20000000000002</ele><time>2026-04-25T16:07:04.021Z</time></trkpt><trkpt lat="45.7791561" lon="11.6741657"><ele>252.60000000000002</ele><time>2026-04-25T16:07:05.021Z</time></trkpt><trkpt lat="45.7791277" lon="11.6742994"><ele>253.0</ele><time>2026-04-25T16:07:06.021Z</time></trkpt><trkpt lat="45.7791251" lon="11.6744316"><ele>252.99999999999997</ele><time>2026-04-25T16:07:07.021Z</time></trkpt><trkpt lat="45.7791174" lon="11.6745497"><ele>253.0</ele><time>2026-04-25T16:07:08.021Z</time></trkpt><trkpt lat="45.7790919" lon="11.6746742"><ele>253.0</ele><time>2026-04-25T16:07:09.021Z</time></trkpt><trkpt lat="45.7790503" lon="11.6747917"><ele>253.0</ele><time>2026-04-25T16:07:10.021Z</time></trkpt><trkpt lat="45.7789808" lon="11.6748898"><ele>252.99999999999997</ele><time>2026-04-25T16:07:11.021Z</time></trkpt><trkpt lat="45.7789175" lon="11.6749643"><ele>253.0</ele><time>2026-04-25T16:07:12.021Z</time></trkpt><trkpt lat="45.7788586" lon="11.6750411"><ele>253.0</ele><time>2026-04-25T16:07:13.021Z</time></trkpt><trkpt lat="45.7787908" lon="11.6751427"><ele>253.0</ele><time>2026-04-25T16:07:14.021Z</time></trkpt><trkpt lat="45.7787354" lon="11.6752689"><ele>253.0</ele><time>2026-04-25T16:07:15.021Z</time></trkpt><trkpt lat="45.7787024" lon="11.6754115"><ele>253.0</ele><time>2026-04-25T16:07:16.022Z</time></trkpt><trkpt lat="45.7787002" lon="11.6755554"><ele>253.0</ele><time>2026-04-25T16:07:17.021Z</time></trkpt><trkpt lat="45.7787093" lon="11.6756909"><ele>252.60000000000002</ele><time>2026-04-25T16:07:18.021Z</time></trkpt><trkpt lat="45.7787256" lon="11.6758156"><ele>252.20000000000002</ele><time>2026-04-25T16:07:19.022Z</time></trkpt><trkpt lat="45.778742" lon="11.6759372"><ele>251.8</ele><time>2026-04-25T16:07:20.021Z</time></trkpt><trkpt lat="45.7787366" lon="11.6760778"><ele>251.4</ele><time>2026-04-25T16:07:21.021Z</time></trkpt><trkpt lat="45.7786804" lon="11.6761984"><ele>251.0</ele><time>2026-04-25T16:07:22.022Z</time></trkpt><trkpt lat="45.7786186" lon="11.6762718"><ele>252.20000000000002</ele><time>2026-04-25T16:07:23.022Z</time></trkpt><trkpt lat="45.778529" lon="11.6763274"><ele>253.40000000000003</ele><time>2026-04-25T16:07:24.022Z</time></trkpt><trkpt lat="45.7784514" lon="11.6763942"><ele>254.6</ele><time>2026-04-25T16:07:25.023Z</time></trkpt><trkpt lat="45.7783683" lon="11.6764388"><ele>255.8</ele><time>2026-04-25T16:07:26.022Z</time></trkpt><trkpt lat="45.7782862" lon="11.6765036"><ele>257.0</ele><time>2026-04-25T16:07:27.022Z</time></trkpt><trkpt lat="45.7782134" lon="11.6766037"><ele>252.2</ele><time>2026-04-25T16:07:28.022Z</time></trkpt><trkpt lat="45.7781545" lon="11.6767247"><ele>247.39999999999998</ele><time>2026-04-25T16:07:29.022Z</time></trkpt><trkpt lat="45.7780978" lon="11.6768542"><ele>242.60000000000002</ele><time>2026-04-25T16:07:30.022Z</time></trkpt><trkpt lat="45.7780648" lon="11.6770029"><ele>237.8</ele><time>2026-04-25T16:07:31.022Z</time></trkpt><trkpt lat="45.7780376" lon="11.6771482"><ele>233.0</ele><time>2026-04-25T16:07:32.022Z</time></trkpt><trkpt lat="45.7780114" lon="11.6773004"><ele>233.0</ele><time>2026-04-25T16:07:33.022Z</time></trkpt><trkpt lat="45.7779959" lon="11.6774229"><ele>233.0</ele><time>2026-04-25T16:07:34.022Z</time></trkpt><trkpt lat="45.7779781" lon="11.6775621"><ele>233.0</ele><time>2026-04-25T16:07:35.022Z</time></trkpt><trkpt lat="45.7779453" lon="11.6777026"><ele>233.0</ele><time>2026-04-25T16:07:36.022Z</time></trkpt><trkpt lat="45.7778967" lon="11.6778333"><ele>233.0</ele><time>2026-04-25T16:07:37.022Z</time></trkpt><trkpt lat="45.7778444" lon="11.6779722"><ele>231.4</ele><time>2026-04-25T16:07:38.022Z</time></trkpt><trkpt lat="45.7778079" lon="11.678092"><ele>229.8</ele><time>2026-04-25T16:07:39.022Z</time></trkpt><trkpt lat="45.7778016" lon="11.678227"><ele>228.2</ele><time>2026-04-25T16:07:40.022Z</time></trkpt><trkpt lat="45.7778342" lon="11.6783756"><ele>226.6</ele><time>2026-04-25T16:07:41.022Z</time></trkpt><trkpt lat="45.7778758" lon="11.6785186"><ele>225.0</ele><time>2026-04-25T16:07:42.022Z</time></trkpt><trkpt lat="45.7779311" lon="11.6786673"><ele>221.75</ele><time>2026-04-25T16:07:43.022Z</time></trkpt><trkpt lat="45.7779916" lon="11.6788243"><ele>218.5</ele><time>2026-04-25T16:07:44.023Z</time></trkpt><trkpt lat="45.7780472" lon="11.6789669"><ele>215.25</ele><time>2026-04-25T16:07:45.022Z</time></trkpt><trkpt lat="45.7780978" lon="11.6790963"><ele>212.0</ele><time>2026-04-25T16:07:46.022Z</time></trkpt><trkpt lat="45.7781594" lon="11.679239"><ele>212.0</ele><time>2026-04-25T16:07:47.022Z</time></trkpt><trkpt lat="45.7782261" lon="11.67936"><ele>212.0</ele><time>2026-04-25T16:07:48.022Z</time></trkpt><trkpt lat="45.77829" lon="11.6794971"><ele>212.0</ele><time>2026-04-25T16:07:49.022Z</time></trkpt><trkpt lat="45.7783596" lon="11.6796316"><ele>212.0</ele><time>2026-04-25T16:07:50.022Z</time></trkpt><trkpt lat="45.7784223" lon="11.6797561"><ele>212.0</ele><time>2026-04-25T16:07:51.023Z</time></trkpt><trkpt lat="45.7784668" lon="11.6798932"><ele>209.75</ele><time>2026-04-25T16:07:52.022Z</time></trkpt><trkpt lat="45.7784726" lon="11.6800501"><ele>207.5</ele><time>2026-04-25T16:07:53.022Z</time></trkpt><trkpt lat="45.7784627" lon="11.6802122"><ele>205.25</ele><time>2026-04-25T16:07:54.022Z</time></trkpt><trkpt lat="45.7784255" lon="11.6803862"><ele>203.0</ele><time>2026-04-25T16:07:55.022Z</time></trkpt><trkpt lat="45.7783847" lon="11.6805551"><ele>202.0</ele><time>2026-04-25T16:07:56.022Z</time></trkpt><trkpt lat="45.7783405" lon="11.680716"><ele>201.0</ele><time>2026-04-25T16:07:57.023Z</time></trkpt><trkpt lat="45.7783011" lon="11.6808788"><ele>200.0</ele><time>2026-04-25T16:07:58.022Z</time></trkpt><trkpt lat="45.7782694" lon="11.6810431"><ele>199.0</ele><time>2026-04-25T16:07:59.023Z</time></trkpt><trkpt lat="45.7782401" lon="11.6812019"><ele>198.2</ele><time>2026-04-25T16:08:00.022Z</time></trkpt><trkpt lat="45.7782197" lon="11.6813675"><ele>197.39999999999998</ele><time>2026-04-25T16:08:01.022Z</time></trkpt><trkpt lat="45.7782119" lon="11.6815284"><ele>196.6</ele><time>2026-04-25T16:08:02.022Z</time></trkpt><trkpt lat="45.778229" lon="11.6816814"><ele>195.8</ele><time>2026-04-25T16:08:03.022Z</time></trkpt><trkpt lat="45.7782645" lon="11.68183"><ele>195.0</ele><time>2026-04-25T16:08:04.022Z</time></trkpt><trkpt lat="45.7783251" lon="11.6819798"><ele>192.75</ele><time>2026-04-25T16:08:05.022Z</time></trkpt><trkpt lat="45.7783911" lon="11.682125"><ele>190.5</ele><time>2026-04-25T16:08:06.022Z</time></trkpt><trkpt lat="45.778455" lon="11.682265"><ele>188.25</ele><time>2026-04-25T16:08:07.022Z</time></trkpt><trkpt lat="45.7784927" lon="11.6824139"><ele>186.0</ele><time>2026-04-25T16:08:08.022Z</time></trkpt><trkpt lat="45.778506" lon="11.6825761"><ele>186.0</ele><time>2026-04-25T16:08:09.022Z</time></trkpt><trkpt lat="45.7784981" lon="11.6827279"><ele>186.0</ele><time>2026-04-25T16:08:10.022Z</time></trkpt><trkpt lat="45.7784688" lon="11.6828805"><ele>186.0</ele><time>2026-04-25T16:08:11.022Z</time></trkpt><trkpt lat="45.7784096" lon="11.6829959"><ele>186.0</ele><time>2026-04-25T16:08:12.022Z</time></trkpt><trkpt lat="45.7783334" lon="11.6830973"><ele>186.0</ele><time>2026-04-25T16:08:13.022Z</time></trkpt><trkpt lat="45.7782556" lon="11.6831948"><ele>185.83333333333334</ele><time>2026-04-25T16:08:14.022Z</time></trkpt><trkpt lat="45.7781982" lon="11.6832769"><ele>185.66666666666666</ele><time>2026-04-25T16:08:15.022Z</time></trkpt><trkpt lat="45.7781704" lon="11.683406"><ele>185.5</ele><time>2026-04-25T16:08:16.023Z</time></trkpt><trkpt lat="45.7781661" lon="11.6835287"><ele>185.33333333333331</ele><time>2026-04-25T16:08:17.022Z</time></trkpt><trkpt lat="45.7781754" lon="11.6836568"><ele>185.16666666666666</ele><time>2026-04-25T16:08:18.022Z</time></trkpt><trkpt lat="45.7781787" lon="11.6837821"><ele>185.0</ele><time>2026-04-25T16:08:19.022Z</time></trkpt><trkpt lat="45.7781767" lon="11.6839076"><ele>184.5</ele><time>2026-04-25T16:08:20.022Z</time></trkpt><trkpt lat="45.7781738" lon="11.684032"><ele>184.0</ele><time>2026-04-25T16:08:21.022Z</time></trkpt><trkpt lat="45.7781847" lon="11.6841601"><ele>183.5</ele><time>2026-04-25T16:08:22.024Z</time></trkpt><trkpt lat="45.7782057" lon="11.6842807"><ele>183.0</ele><time>2026-04-25T16:08:23.023Z</time></trkpt><trkpt lat="45.7782254" lon="11.6843954"><ele>182.5</ele><time>2026-04-25T16:08:24.023Z</time></trkpt><trkpt lat="45.7782525" lon="11.6845234"><ele>182.0</ele><time>2026-04-25T16:08:25.023Z</time></trkpt><trkpt lat="45.7782827" lon="11.684649"><ele>183.2</ele><time>2026-04-25T16:08:26.023Z</time></trkpt><trkpt lat="45.778315" lon="11.6847851"><ele>184.39999999999998</ele><time>2026-04-25T16:08:27.023Z</time></trkpt><trkpt lat="45.7783538" lon="11.6849173"><ele>185.60000000000002</ele><time>2026-04-25T16:08:28.023Z</time></trkpt><trkpt lat="45.7784056" lon="11.6850416"><ele>186.8</ele><time>2026-04-25T16:08:29.023Z</time></trkpt><trkpt lat="45.7784705" lon="11.6851692"><ele>188.0</ele><time>2026-04-25T16:08:30.023Z</time></trkpt><trkpt lat="45.7785387" lon="11.6852873"><ele>188.0</ele><time>2026-04-25T16:08:31.023Z</time></trkpt><trkpt lat="45.7786032" lon="11.6854144"><ele>188.0</ele><time>2026-04-25T16:08:32.024Z</time></trkpt><trkpt lat="45.7786679" lon="11.6855528"><ele>188.0</ele><time>2026-04-25T16:08:33.023Z</time></trkpt><trkpt lat="45.7787227" lon="11.6856968"><ele>188.0</ele><time>2026-04-25T16:08:34.023Z</time></trkpt><trkpt lat="45.7787768" lon="11.6858499"><ele>188.0</ele><time>2026-04-25T16:08:35.023Z</time></trkpt><trkpt lat="45.778832" lon="11.6860073"><ele>188.0</ele><time>2026-04-25T16:08:36.024Z</time></trkpt><trkpt lat="45.7788866" lon="11.6861619"><ele>188.0</ele><time>2026-04-25T16:08:37.023Z</time></trkpt><trkpt lat="45.7789379" lon="11.6863159"><ele>188.0</ele><time>2026-04-25T16:08:38.023Z</time></trkpt><trkpt lat="45.7789878" lon="11.6864702"><ele>184.75</ele><time>2026-04-25T16:08:39.023Z</time></trkpt><trkpt lat="45.7790385" lon="11.686621"><ele>181.5</ele><time>2026-04-25T16:08:40.024Z</time></trkpt><trkpt lat="45.7790877" lon="11.686763"><ele>178.25</ele><time>2026-04-25T16:08:41.023Z</time></trkpt><trkpt lat="45.7791315" lon="11.686911"><ele>175.0</ele><time>2026-04-25T16:08:42.023Z</time></trkpt><trkpt lat="45.7791614" lon="11.6870632"><ele>172.6</ele><time>2026-04-25T16:08:43.023Z</time></trkpt><trkpt lat="45.7791784" lon="11.6872261"><ele>170.2</ele><time>2026-04-25T16:08:44.023Z</time></trkpt><trkpt lat="45.7791828" lon="11.6873873"><ele>167.8</ele><time>2026-04-25T16:08:45.023Z</time></trkpt><trkpt lat="45.7791784" lon="11.687545"><ele>165.4</ele><time>2026-04-25T16:08:46.023Z</time></trkpt><trkpt lat="45.7791682" lon="11.6877004"><ele>163.0</ele><time>2026-04-25T16:08:47.023Z</time></trkpt><trkpt lat="45.7791552" lon="11.687858"><ele>162.4</ele><time>2026-04-25T16:08:48.023Z</time></trkpt><trkpt lat="45.7791392" lon="11.6880161"><ele>161.8</ele><time>2026-04-25T16:08:49.023Z</time></trkpt><trkpt lat="45.7791191" lon="11.6881687"><ele>161.2</ele><time>2026-04-25T16:08:50.023Z</time></trkpt><trkpt lat="45.7790987" lon="11.6883214"><ele>160.6</ele><time>2026-04-25T16:08:51.023Z</time></trkpt><trkpt lat="45.779076" lon="11.6884716"><ele>160.0</ele><time>2026-04-25T16:08:52.023Z</time></trkpt><trkpt lat="45.7790546" lon="11.6886269"><ele>158.8</ele><time>2026-04-25T16:08:53.023Z</time></trkpt><trkpt lat="45.7790389" lon="11.6887773"><ele>157.6</ele><time>2026-04-25T16:08:54.024Z</time></trkpt><trkpt lat="45.7790275" lon="11.6889249"><ele>156.4</ele><time>2026-04-25T16:08:55.023Z</time></trkpt><trkpt lat="45.7790273" lon="11.6890776"><ele>155.2</ele><time>2026-04-25T16:08:56.023Z</time></trkpt><trkpt lat="45.7790357" lon="11.6892324"><ele>154.0</ele><time>2026-04-25T16:08:57.023Z</time></trkpt><trkpt lat="45.7790515" lon="11.6893821"><ele>154.0</ele><time>2026-04-25T16:08:58.024Z</time></trkpt><trkpt lat="45.7790809" lon="11.6895063"><ele>154.0</ele><time>2026-04-25T16:08:59.023Z</time></trkpt><trkpt lat="45.7791223" lon="11.6896259"><ele>154.0</ele><time>2026-04-25T16:09:00.023Z</time></trkpt><trkpt lat="45.7791687" lon="11.6897458"><ele>154.0</ele><time>2026-04-25T16:09:01.023Z</time></trkpt><trkpt lat="45.779204" lon="11.6898941"><ele>154.0</ele><time>2026-04-25T16:09:02.023Z</time></trkpt><trkpt lat="45.77923" lon="11.6900575"><ele>154.0</ele><time>2026-04-25T16:09:03.023Z</time></trkpt><trkpt lat="45.7792508" lon="11.6902061"><ele>154.0</ele><time>2026-04-25T16:09:04.023Z</time></trkpt><trkpt lat="45.7792594" lon="11.6903499"><ele>154.0</ele><time>2026-04-25T16:09:05.023Z</time></trkpt><trkpt lat="45.7792654" lon="11.6904905"><ele>154.0</ele><time>2026-04-25T16:09:06.023Z</time></trkpt><trkpt lat="45.7792614" lon="11.6906379"><ele>154.0</ele><time>2026-04-25T16:09:07.023Z</time></trkpt><trkpt lat="45.7792389" lon="11.6907728"><ele>153.2</ele><time>2026-04-25T16:09:08.023Z</time></trkpt><trkpt lat="45.7791852" lon="11.6908831"><ele>152.4</ele><time>2026-04-25T16:09:09.023Z</time></trkpt><trkpt lat="45.7791091" lon="11.6909787"><ele>151.6</ele><time>2026-04-25T16:09:10.023Z</time></trkpt><trkpt lat="45.7790297" lon="11.691069"><ele>150.8</ele><time>2026-04-25T16:09:11.023Z</time></trkpt><trkpt lat="45.7789541" lon="11.6911646"><ele>150.0</ele><time>2026-04-25T16:09:12.024Z</time></trkpt><trkpt lat="45.7788954" lon="11.6912623"><ele>150.0</ele><time>2026-04-25T16:09:13.023Z</time></trkpt><trkpt lat="45.7788446" lon="11.6913601"><ele>150.0</ele><time>2026-04-25T16:09:14.023Z</time></trkpt><trkpt lat="45.778798" lon="11.6914594"><ele>150.0</ele><time>2026-04-25T16:09:15.023Z</time></trkpt><trkpt lat="45.7787556" lon="11.691564"><ele>150.0</ele><time>2026-04-25T16:09:16.023Z</time></trkpt><trkpt lat="45.7787182" lon="11.6916756"><ele>150.0</ele><time>2026-04-25T16:09:17.023Z</time></trkpt><trkpt lat="45.7786822" lon="11.691784"><ele>150.0</ele><time>2026-04-25T16:09:18.023Z</time></trkpt><trkpt lat="45.7786379" lon="11.6918717"><ele>149.83333333333334</ele><time>2026-04-25T16:09:19.023Z</time></trkpt><trkpt lat="45.7785771" lon="11.691954"><ele>149.66666666666666</ele><time>2026-04-25T16:09:20.023Z</time></trkpt><trkpt lat="45.7785113" lon="11.6920012"><ele>149.5</ele><time>2026-04-25T16:09:21.024Z</time></trkpt><trkpt lat="45.7784339" lon="11.6920205"><ele>149.33333333333331</ele><time>2026-04-25T16:09:22.025Z</time></trkpt><trkpt lat="45.7783486" lon="11.6920055"><ele>149.16666666666666</ele><time>2026-04-25T16:09:23.024Z</time></trkpt><trkpt lat="45.7782653" lon="11.6919892"><ele>149.0</ele><time>2026-04-25T16:09:24.024Z</time></trkpt><trkpt lat="45.7781773" lon="11.6919667"><ele>148.5</ele><time>2026-04-25T16:09:25.024Z</time></trkpt><trkpt lat="45.7780938" lon="11.6919444"><ele>148.0</ele><time>2026-04-25T16:09:26.024Z</time></trkpt><trkpt lat="45.7780089" lon="11.6919211"><ele>147.5</ele><time>2026-04-25T16:09:27.025Z</time></trkpt><trkpt lat="45.7779251" lon="11.6919"><ele>147.0</ele><time>2026-04-25T16:09:28.024Z</time></trkpt><trkpt lat="45.7778426" lon="11.6918836"><ele>146.5</ele><time>2026-04-25T16:09:29.024Z</time></trkpt><trkpt lat="45.7777598" lon="11.69187"><ele>146.0</ele><time>2026-04-25T16:09:30.024Z</time></trkpt><trkpt lat="45.7776786" lon="11.6918579"><ele>145.57142857142856</ele><time>2026-04-25T16:09:31.025Z</time></trkpt><trkpt lat="45.7776013" lon="11.6918453"><ele>145.14285714285714</ele><time>2026-04-25T16:09:32.024Z</time></trkpt><trkpt lat="45.7775272" lon="11.6918372"><ele>144.71428571428572</ele><time>2026-04-25T16:09:33.024Z</time></trkpt><trkpt lat="45.7774526" lon="11.691831"><ele>144.28571428571428</ele><time>2026-04-25T16:09:34.024Z</time></trkpt><trkpt lat="45.7773781" lon="11.6918271"><ele>143.85714285714286</ele><time>2026-04-25T16:09:35.025Z</time></trkpt><trkpt lat="45.7773068" lon="11.6918203"><ele>143.42857142857142</ele><time>2026-04-25T16:09:36.024Z</time></trkpt><trkpt lat="45.777232" lon="11.691812"><ele>143.0</ele><time>2026-04-25T16:09:37.025Z</time></trkpt><trkpt lat="45.777157" lon="11.691809"><ele>142.99999999999997</ele><time>2026-04-25T16:09:38.024Z</time></trkpt><trkpt lat="45.7770833" lon="11.6918073"><ele>143.0</ele><time>2026-04-25T16:09:39.024Z</time></trkpt><trkpt lat="45.7770122" lon="11.6918014"><ele>143.0</ele><time>2026-04-25T16:09:40.024Z</time></trkpt><trkpt lat="45.7769421" lon="11.6917889"><ele>143.0</ele><time>2026-04-25T16:09:41.025Z</time></trkpt><trkpt lat="45.7768692" lon="11.6917813"><ele>143.0</ele><time>2026-04-25T16:09:42.024Z</time></trkpt><trkpt lat="45.7767949" lon="11.6917898"><ele>142.99999999999997</ele><time>2026-04-25T16:09:43.024Z</time></trkpt><trkpt lat="45.7767213" lon="11.691825"><ele>143.0</ele><time>2026-04-25T16:09:44.025Z</time></trkpt><trkpt lat="45.7766574" lon="11.6918754"><ele>143.5</ele><time>2026-04-25T16:09:45.025Z</time></trkpt><trkpt lat="45.7766053" lon="11.6919336"><ele>144.0</ele><time>2026-04-25T16:09:46.024Z</time></trkpt><trkpt lat="45.7764924" lon="11.6919587"><ele>144.5</ele><time>2026-04-25T16:09:48.024Z</time></trkpt><trkpt lat="45.7764287" lon="11.6919123"><ele>145.0</ele><time>2026-04-25T16:09:49.024Z</time></trkpt><trkpt lat="45.7763635" lon="11.6918789"><ele>145.5</ele><time>2026-04-25T16:09:50.024Z</time></trkpt><trkpt lat="45.7762989" lon="11.6918745"><ele>146.0</ele><time>2026-04-25T16:09:51.024Z</time></trkpt><trkpt lat="45.7762301" lon="11.6918873"><ele>145.14285714285714</ele><time>2026-04-25T16:09:52.024Z</time></trkpt><trkpt lat="45.7761617" lon="11.6918956"><ele>144.28571428571428</ele><time>2026-04-25T16:09:53.024Z</time></trkpt><trkpt lat="45.776093" lon="11.6918931"><ele>143.42857142857144</ele><time>2026-04-25T16:09:54.024Z</time></trkpt><trkpt lat="45.7760221" lon="11.6918893"><ele>142.57142857142856</ele><time>2026-04-25T16:09:55.024Z</time></trkpt><trkpt lat="45.7759514" lon="11.6918865"><ele>141.71428571428572</ele><time>2026-04-25T16:09:56.024Z</time></trkpt><trkpt lat="45.775883" lon="11.6918837"><ele>140.85714285714286</ele><time>2026-04-25T16:09:57.024Z</time></trkpt><trkpt lat="45.775815" lon="11.6918786"><ele>140.0</ele><time>2026-04-25T16:09:58.024Z</time></trkpt><trkpt lat="45.7757477" lon="11.6918739"><ele>139.71428571428572</ele><time>2026-04-25T16:09:59.025Z</time></trkpt><trkpt lat="45.7756791" lon="11.691871"><ele>139.42857142857144</ele><time>2026-04-25T16:10:00.024Z</time></trkpt><trkpt lat="45.7756113" lon="11.6918687"><ele>139.14285714285714</ele><time>2026-04-25T16:10:01.024Z</time></trkpt><trkpt lat="45.775543" lon="11.6918654"><ele>138.85714285714286</ele><time>2026-04-25T16:10:02.024Z</time></trkpt><trkpt lat="45.7754741" lon="11.6918614"><ele>138.57142857142858</ele><time>2026-04-25T16:10:03.024Z</time></trkpt><trkpt lat="45.7754026" lon="11.6918623"><ele>138.28571428571428</ele><time>2026-04-25T16:10:04.024Z</time></trkpt><trkpt lat="45.7753313" lon="11.6918663"><ele>138.0</ele><time>2026-04-25T16:10:05.024Z</time></trkpt><trkpt lat="45.7752619" lon="11.6918731"><ele>138.0</ele><time>2026-04-25T16:10:06.025Z</time></trkpt><trkpt lat="45.7751932" lon="11.6918826"><ele>138.0</ele><time>2026-04-25T16:10:07.024Z</time></trkpt><trkpt lat="45.7751256" lon="11.6918951"><ele>138.0</ele><time>2026-04-25T16:10:08.024Z</time></trkpt><trkpt lat="45.7750576" lon="11.6919111"><ele>138.0</ele><time>2026-04-25T16:10:09.024Z</time></trkpt><trkpt lat="45.7749891" lon="11.6919355"><ele>138.0</ele><time>2026-04-25T16:10:10.024Z</time></trkpt><trkpt lat="45.7749222" lon="11.6919707"><ele>138.0</ele><time>2026-04-25T16:10:11.024Z</time></trkpt><trkpt lat="45.7748574" lon="11.692007"><ele>138.0</ele><time>2026-04-25T16:10:12.024Z</time></trkpt><trkpt lat="45.7747964" lon="11.6920417"><ele>139.20000000000002</ele><time>2026-04-25T16:10:13.024Z</time></trkpt><trkpt lat="45.774735" lon="11.6920745"><ele>140.4</ele><time>2026-04-25T16:10:14.024Z</time></trkpt><trkpt lat="45.7746735" lon="11.6921047"><ele>141.60000000000002</ele><time>2026-04-25T16:10:15.024Z</time></trkpt><trkpt lat="45.7745636" lon="11.692169"><ele>142.8</ele><time>2026-04-25T16:10:17.025Z</time></trkpt><trkpt lat="45.7744707" lon="11.6922443"><ele>144.0</ele><time>2026-04-25T16:10:19.024Z</time></trkpt><trkpt lat="45.7744001" lon="11.6923375"><ele>142.0</ele><time>2026-04-25T16:10:21.025Z</time></trkpt><trkpt lat="45.7742946" lon="11.6923364"><ele>140.0</ele><time>2026-04-25T16:10:23.025Z</time></trkpt><trkpt lat="45.7741937" lon="11.6923872"><ele>138.0</ele><time>2026-04-25T16:10:25.025Z</time></trkpt><trkpt lat="45.7741032" lon="11.6924456"><ele>136.0</ele><time>2026-04-25T16:10:27.025Z</time></trkpt><trkpt lat="45.7739899" lon="11.6924904"><ele>134.0</ele><time>2026-04-25T16:10:29.025Z</time></trkpt><trkpt lat="45.7738796" lon="11.6925403"><ele>134.0</ele><time>2026-04-25T16:10:31.025Z</time></trkpt><trkpt lat="45.7737734" lon="11.6925909"><ele>134.0</ele><time>2026-04-25T16:10:33.025Z</time></trkpt><trkpt lat="45.7736652" lon="11.6926497"><ele>134.0</ele><time>2026-04-25T16:10:35.025Z</time></trkpt><trkpt lat="45.7735644" lon="11.6927011"><ele>134.0</ele><time>2026-04-25T16:10:37.025Z</time></trkpt><trkpt lat="45.7734637" lon="11.692752"><ele>134.0</ele><time>2026-04-25T16:10:39.025Z</time></trkpt><trkpt lat="45.7733569" lon="11.6928125"><ele>133.66666666666666</ele><time>2026-04-25T16:10:41.025Z</time></trkpt><trkpt lat="45.7732456" lon="11.6928845"><ele>133.33333333333331</ele><time>2026-04-25T16:10:43.025Z</time></trkpt><trkpt lat="45.7731911" lon="11.6929312"><ele>133.0</ele><time>2026-04-25T16:10:44.025Z</time></trkpt><trkpt lat="45.7731349" lon="11.6929799"><ele>132.66666666666666</ele><time>2026-04-25T16:10:45.025Z</time></trkpt><trkpt lat="45.7730874" lon="11.6930444"><ele>132.33333333333334</ele><time>2026-04-25T16:10:46.026Z</time></trkpt><trkpt lat="45.7729971" lon="11.6931413"><ele>132.0</ele><time>2026-04-25T16:10:48.025Z</time></trkpt><trkpt lat="45.7729515" lon="11.6932434"><ele>132.0</ele><time>2026-04-25T16:10:50.025Z</time></trkpt><trkpt lat="45.7729245" lon="11.6933309"><ele>132.0</ele><time>2026-04-25T16:10:52.025Z</time></trkpt><trkpt lat="45.7728725" lon="11.693397"><ele>132.0</ele><time>2026-04-25T16:10:54.025Z</time></trkpt><trkpt lat="45.7728035" lon="11.6934521"><ele>132.0</ele><time>2026-04-25T16:10:56.025Z</time></trkpt><trkpt lat="45.7727337" lon="11.6935054"><ele>132.0</ele><time>2026-04-25T16:10:58.025Z</time></trkpt><trkpt lat="45.7726631" lon="11.6935833"><ele>132.0</ele><time>2026-04-25T16:11:01.025Z</time></trkpt><trkpt lat="45.7725989" lon="11.6936557"><ele>131.2</ele><time>2026-04-25T16:11:03.025Z</time></trkpt><trkpt lat="45.7725296" lon="11.6937453"><ele>130.39999999999998</ele><time>2026-04-25T16:11:05.025Z</time></trkpt><trkpt lat="45.7724568" lon="11.693839"><ele>129.60000000000002</ele><time>2026-04-25T16:11:07.025Z</time></trkpt><trkpt lat="45.7723788" lon="11.693936"><ele>128.8</ele><time>2026-04-25T16:11:09.025Z</time></trkpt><trkpt lat="45.7723102" lon="11.694023"><ele>128.0</ele><time>2026-04-25T16:11:11.025Z</time></trkpt><trkpt lat="45.7722457" lon="11.6941037"><ele>127.99999999999999</ele><time>2026-04-25T16:11:13.025Z</time></trkpt><trkpt lat="45.7721742" lon="11.694175"><ele>128.0</ele><time>2026-04-25T16:11:15.025Z</time></trkpt><trkpt lat="45.7721104" lon="11.6942507"><ele>128.0</ele><time>2026-04-25T16:11:17.026Z</time></trkpt><trkpt lat="45.772044" lon="11.6943389"><ele>128.0</ele><time>2026-04-25T16:11:19.026Z</time></trkpt><trkpt lat="45.7719827" lon="11.6944134"><ele>127.99999999999999</ele><time>2026-04-25T16:11:21.026Z</time></trkpt><trkpt lat="45.7719198" lon="11.6944984"><ele>128.0</ele><time>2026-04-25T16:11:23.027Z</time></trkpt><trkpt lat="45.7718538" lon="11.6945763"><ele>127.16666666666666</ele><time>2026-04-25T16:11:25.026Z</time></trkpt><trkpt lat="45.7717917" lon="11.6946535"><ele>126.33333333333333</ele><time>2026-04-25T16:11:27.026Z</time></trkpt><trkpt lat="45.7717295" lon="11.6947345"><ele>125.5</ele><time>2026-04-25T16:11:29.026Z</time></trkpt><trkpt lat="45.771667" lon="11.6948126"><ele>124.66666666666666</ele><time>2026-04-25T16:11:31.026Z</time></trkpt><trkpt lat="45.7716026" lon="11.6948909"><ele>123.83333333333333</ele><time>2026-04-25T16:11:33.026Z</time></trkpt><trkpt lat="45.7715335" lon="11.6949711"><ele>123.0</ele><time>2026-04-25T16:11:35.026Z</time></trkpt><trkpt lat="45.771464" lon="11.6950528"><ele>123.0</ele><time>2026-04-25T16:11:37.026Z</time></trkpt><trkpt lat="45.7713955" lon="11.6951365"><ele>123.00000000000001</ele><time>2026-04-25T16:11:39.026Z</time></trkpt><trkpt lat="45.771332" lon="11.695203"><ele>123.00000000000001</ele><time>2026-04-25T16:11:41.026Z</time></trkpt><trkpt lat="45.7712477" lon="11.6952884"><ele>123.0</ele><time>2026-04-25T16:11:43.026Z</time></trkpt><trkpt lat="45.7711744" lon="11.6953781"><ele>123.0</ele><time>2026-04-25T16:11:45.026Z</time></trkpt><trkpt lat="45.7710957" lon="11.6954751"><ele>123.4</ele><time>2026-04-25T16:11:47.026Z</time></trkpt><trkpt lat="45.7710225" lon="11.6955772"><ele>123.80000000000001</ele><time>2026-04-25T16:11:49.026Z</time></trkpt><trkpt lat="45.770934" lon="11.6956913"><ele>124.2</ele><time>2026-04-25T16:11:51.026Z</time></trkpt><trkpt lat="45.7708456" lon="11.6957918"><ele>124.6</ele><time>2026-04-25T16:11:53.026Z</time></trkpt><trkpt lat="45.7707593" lon="11.6958925"><ele>125.0</ele><time>2026-04-25T16:11:55.026Z</time></trkpt><trkpt lat="45.7706679" lon="11.6960106"><ele>125.0</ele><time>2026-04-25T16:11:57.026Z</time></trkpt><trkpt lat="45.7706217" lon="11.6960732"><ele>125.0</ele><time>2026-04-25T16:11:58.026Z</time></trkpt><trkpt lat="45.7705388" lon="11.6961907"><ele>125.0</ele><time>2026-04-25T16:12:00.026Z</time></trkpt><trkpt lat="45.7704588" lon="11.6963182"><ele>125.0</ele><time>2026-04-25T16:12:02.026Z</time></trkpt><trkpt lat="45.7703923" lon="11.6964376"><ele>125.0</ele><time>2026-04-25T16:12:04.026Z</time></trkpt><trkpt lat="45.7703273" lon="11.6965369"><ele>124.99999999999999</ele><time>2026-04-25T16:12:06.026Z</time></trkpt><trkpt lat="45.7702704" lon="11.6966316"><ele>125.0</ele><time>2026-04-25T16:12:08.026Z</time></trkpt><trkpt lat="45.7702202" lon="11.696757"><ele>125.0</ele><time>2026-04-25T16:12:10.026Z</time></trkpt><trkpt lat="45.7701804" lon="11.696852"><ele>125.0</ele><time>2026-04-25T16:12:12.027Z</time></trkpt><trkpt lat="45.7701422" lon="11.6969562"><ele>124.99999999999999</ele><time>2026-04-25T16:12:14.026Z</time></trkpt><trkpt lat="45.7701032" lon="11.6970768"><ele>125.0</ele><time>2026-04-25T16:12:16.026Z</time></trkpt><trkpt lat="45.7700739" lon="11.6971989"><ele>125.0</ele><time>2026-04-25T16:12:18.026Z</time></trkpt><trkpt lat="45.7700462" lon="11.6973203"><ele>125.0</ele><time>2026-04-25T16:12:20.026Z</time></trkpt><trkpt lat="45.7700071" lon="11.697457"><ele>125.0</ele><time>2026-04-25T16:12:22.027Z</time></trkpt><trkpt lat="45.7699733" lon="11.6975885"><ele>125.0</ele><time>2026-04-25T16:12:24.027Z</time></trkpt><trkpt lat="45.7699546" lon="11.6977146"><ele>125.0</ele><time>2026-04-25T16:12:26.027Z</time></trkpt><trkpt lat="45.769933" lon="11.6978496"><ele>125.66666666666666</ele><time>2026-04-25T16:12:28.027Z</time></trkpt><trkpt lat="45.7699277" lon="11.6979618"><ele>126.33333333333333</ele><time>2026-04-25T16:12:30.027Z</time></trkpt><trkpt lat="45.7699308" lon="11.698056"><ele>127.0</ele><time>2026-04-25T16:12:32.027Z</time></trkpt><trkpt lat="45.7699376" lon="11.6981557"><ele>127.66666666666666</ele><time>2026-04-25T16:12:34.027Z</time></trkpt><trkpt lat="45.7699353" lon="11.6982703"><ele>128.33333333333334</ele><time>2026-04-25T16:12:36.027Z</time></trkpt><trkpt lat="45.7699341" lon="11.6983887"><ele>129.0</ele><time>2026-04-25T16:12:38.027Z</time></trkpt><trkpt lat="45.7699517" lon="11.6985209"><ele>129.33333333333334</ele><time>2026-04-25T16:12:40.027Z</time></trkpt><trkpt lat="45.7699718" lon="11.6986498"><ele>129.66666666666666</ele><time>2026-04-25T16:12:42.027Z</time></trkpt><trkpt lat="45.7699991" lon="11.6987773"><ele>130.0</ele><time>2026-04-25T16:12:44.027Z</time></trkpt><trkpt lat="45.7700252" lon="11.6988962"><ele>130.33333333333331</ele><time>2026-04-25T16:12:46.027Z</time></trkpt><trkpt lat="45.7700479" lon="11.6990173"><ele>130.66666666666666</ele><time>2026-04-25T16:12:48.027Z</time></trkpt><trkpt lat="45.7700662" lon="11.6991396"><ele>131.0</ele><time>2026-04-25T16:12:50.027Z</time></trkpt><trkpt lat="45.7700887" lon="11.6992592"><ele>131.0</ele><time>2026-04-25T16:12:52.027Z</time></trkpt><trkpt lat="45.7701106" lon="11.6993716"><ele>131.0</ele><time>2026-04-25T16:12:54.027Z</time></trkpt><trkpt lat="45.7701267" lon="11.6994871"><ele>131.0</ele><time>2026-04-25T16:12:56.027Z</time></trkpt><trkpt lat="45.7701572" lon="11.6996032"><ele>131.0</ele><time>2026-04-25T16:12:58.027Z</time></trkpt><trkpt lat="45.7701837" lon="11.6997107"><ele>131.0</ele><time>2026-04-25T16:13:00.027Z</time></trkpt><trkpt lat="45.77021" lon="11.6998201"><ele>131.0</ele><time>2026-04-25T16:13:02.027Z</time></trkpt><trkpt lat="45.7702359" lon="11.6999339"><ele>133.66666666666666</ele><time>2026-04-25T16:13:04.027Z</time></trkpt><trkpt lat="45.770256" lon="11.7000473"><ele>136.33333333333331</ele><time>2026-04-25T16:13:06.027Z</time></trkpt><trkpt lat="45.7702769" lon="11.7001557"><ele>139.0</ele><time>2026-04-25T16:13:08.028Z</time></trkpt><trkpt lat="45.7702945" lon="11.7002613"><ele>141.66666666666666</ele><time>2026-04-25T16:13:10.027Z</time></trkpt><trkpt lat="45.770312" lon="11.7003619"><ele>144.33333333333334</ele><time>2026-04-25T16:13:12.027Z</time></trkpt><trkpt lat="45.7703289" lon="11.7004646"><ele>147.0</ele><time>2026-04-25T16:13:14.028Z</time></trkpt><trkpt lat="45.7703492" lon="11.7005612"><ele>147.0</ele><time>2026-04-25T16:13:16.027Z</time></trkpt><trkpt lat="45.7703701" lon="11.7006565"><ele>147.0</ele><time>2026-04-25T16:13:18.027Z</time></trkpt><trkpt lat="45.7704032" lon="11.7007748"><ele>147.0</ele><time>2026-04-25T16:13:21.027Z</time></trkpt><trkpt lat="45.7704106" lon="11.7008811"><ele>147.0</ele><time>2026-04-25T16:13:24.028Z</time></trkpt><trkpt lat="45.7704313" lon="11.7009874"><ele>147.0</ele><time>2026-04-25T16:13:28.028Z</time></trkpt><trkpt lat="45.7703651" lon="11.7010767"><ele>147.0</ele><time>2026-04-25T16:13:31.028Z</time></trkpt><trkpt lat="45.7703755" lon="11.7012175"><ele>145.0</ele><time>2026-04-25T16:13:34.028Z</time></trkpt><trkpt lat="45.770409" lon="11.701331"><ele>143.0</ele><time>2026-04-25T16:13:36.028Z</time></trkpt><trkpt lat="45.7704395" lon="11.7014346"><ele>141.0</ele><time>2026-04-25T16:13:38.028Z</time></trkpt><trkpt lat="45.7704719" lon="11.7015251"><ele>139.0</ele><time>2026-04-25T16:13:40.029Z</time></trkpt><trkpt lat="45.770498" lon="11.7016533"><ele>137.0</ele><time>2026-04-25T16:13:43.028Z</time></trkpt><trkpt lat="45.7705176" lon="11.7017424"><ele>135.0</ele><time>2026-04-25T16:13:45.028Z</time></trkpt><trkpt lat="45.7705379" lon="11.7018372"><ele>134.0</ele><time>2026-04-25T16:13:47.028Z</time></trkpt><trkpt lat="45.7705523" lon="11.7019359"><ele>133.0</ele><time>2026-04-25T16:13:49.028Z</time></trkpt><trkpt lat="45.7705729" lon="11.7020392"><ele>132.0</ele><time>2026-04-25T16:13:51.028Z</time></trkpt><trkpt lat="45.7705984" lon="11.7021481"><ele>131.0</ele><time>2026-04-25T16:13:53.028Z</time></trkpt><trkpt lat="45.7706102" lon="11.7022687"><ele>130.0</ele><time>2026-04-25T16:13:55.028Z</time></trkpt><trkpt lat="45.770621" lon="11.7023868"><ele>129.0</ele><time>2026-04-25T16:13:57.028Z</time></trkpt><trkpt lat="45.7706409" lon="11.7024894"><ele>129.0</ele><time>2026-04-25T16:13:59.028Z</time></trkpt><trkpt lat="45.7706617" lon="11.7026012"><ele>129.0</ele><time>2026-04-25T16:14:01.028Z</time></trkpt><trkpt lat="45.7706835" lon="11.7027129"><ele>129.0</ele><time>2026-04-25T16:14:03.028Z</time></trkpt><trkpt lat="45.7707122" lon="11.7028297"><ele>129.0</ele><time>2026-04-25T16:14:05.028Z</time></trkpt><trkpt lat="45.7707352" lon="11.7029586"><ele>129.0</ele><time>2026-04-25T16:14:07.029Z</time></trkpt><trkpt lat="45.7707552" lon="11.7030775"><ele>129.0</ele><time>2026-04-25T16:14:09.028Z</time></trkpt><trkpt lat="45.7707716" lon="11.7031792"><ele>128.83333333333334</ele><time>2026-04-25T16:14:11.028Z</time></trkpt><trkpt lat="45.7707852" lon="11.7032801"><ele>128.66666666666666</ele><time>2026-04-25T16:14:13.029Z</time></trkpt><trkpt lat="45.7708007" lon="11.703385"><ele>128.5</ele><time>2026-04-25T16:14:15.028Z</time></trkpt><trkpt lat="45.7708276" lon="11.7034944"><ele>128.33333333333331</ele><time>2026-04-25T16:14:17.028Z</time></trkpt><trkpt lat="45.7708568" lon="11.7036063"><ele>128.16666666666666</ele><time>2026-04-25T16:14:19.028Z</time></trkpt><trkpt lat="45.7708766" lon="11.7037062"><ele>128.0</ele><time>2026-04-25T16:14:21.028Z</time></trkpt><trkpt lat="45.7709053" lon="11.7038158"><ele>128.0</ele><time>2026-04-25T16:14:23.028Z</time></trkpt><trkpt lat="45.7709343" lon="11.7039153"><ele>127.99999999999999</ele><time>2026-04-25T16:14:25.029Z</time></trkpt><trkpt lat="45.7709479" lon="11.7040134"><ele>128.0</ele><time>2026-04-25T16:14:27.03Z</time></trkpt><trkpt lat="45.7709533" lon="11.7041065"><ele>128.0</ele><time>2026-04-25T16:14:29.03Z</time></trkpt><trkpt lat="45.7709663" lon="11.7042046"><ele>127.99999999999999</ele><time>2026-04-25T16:14:31.03Z</time></trkpt><trkpt lat="45.7709947" lon="11.7043072"><ele>128.0</ele><time>2026-04-25T16:14:33.029Z</time></trkpt><trkpt lat="45.7710165" lon="11.7044211"><ele>128.0</ele><time>2026-04-25T16:14:35.029Z</time></trkpt><trkpt lat="45.7710287" lon="11.7045268"><ele>127.99999999999999</ele><time>2026-04-25T16:14:37.029Z</time></trkpt><trkpt lat="45.7710417" lon="11.704621"><ele>128.0</ele><time>2026-04-25T16:14:39.029Z</time></trkpt><trkpt lat="45.7710483" lon="11.7047113"><ele>128.0</ele><time>2026-04-25T16:14:41.03Z</time></trkpt><trkpt lat="45.7710613" lon="11.7048527"><ele>128.0</ele><time>2026-04-25T16:14:44.029Z</time></trkpt><trkpt lat="45.7710598" lon="11.7049617"><ele>127.99999999999999</ele><time>2026-04-25T16:14:46.03Z</time></trkpt><trkpt lat="45.7710591" lon="11.7050718"><ele>128.0</ele><time>2026-04-25T16:14:48.029Z</time></trkpt><trkpt lat="45.7710556" lon="11.7051824"><ele>127.66666666666666</ele><time>2026-04-25T16:14:50.029Z</time></trkpt><trkpt lat="45.7710647" lon="11.7053011"><ele>127.33333333333333</ele><time>2026-04-25T16:14:52.029Z</time></trkpt><trkpt lat="45.7710583" lon="11.7054342"><ele>127.0</ele><time>2026-04-25T16:14:54.029Z</time></trkpt><trkpt lat="45.7710349" lon="11.705563"><ele>126.66666666666666</ele><time>2026-04-25T16:14:56.03Z</time></trkpt><trkpt lat="45.7709908" lon="11.7056864"><ele>126.33333333333333</ele><time>2026-04-25T16:14:58.029Z</time></trkpt><trkpt lat="45.7709687" lon="11.7058013"><ele>126.0</ele><time>2026-04-25T16:15:00.029Z</time></trkpt><trkpt lat="45.7709479" lon="11.7059122"><ele>126.0</ele><time>2026-04-25T16:15:02.03Z</time></trkpt><trkpt lat="45.7709194" lon="11.7060173"><ele>126.0</ele><time>2026-04-25T16:15:04.03Z</time></trkpt><trkpt lat="45.7708931" lon="11.7061326"><ele>126.0</ele><time>2026-04-25T16:15:06.029Z</time></trkpt><trkpt lat="45.7708675" lon="11.7062464"><ele>126.0</ele><time>2026-04-25T16:15:08.029Z</time></trkpt><trkpt lat="45.7708406" lon="11.7063591"><ele>126.0</ele><time>2026-04-25T16:15:10.03Z</time></trkpt><trkpt lat="45.7708148" lon="11.7064722"><ele>126.0</ele><time>2026-04-25T16:15:12.029Z</time></trkpt><trkpt lat="45.7707844" lon="11.7065798"><ele>125.83333333333333</ele><time>2026-04-25T16:15:14.029Z</time></trkpt><trkpt lat="45.770758" lon="11.7066855"><ele>125.66666666666666</ele><time>2026-04-25T16:15:16.029Z</time></trkpt><trkpt lat="45.7707311" lon="11.7067974"><ele>125.5</ele><time>2026-04-25T16:15:18.029Z</time></trkpt><trkpt lat="45.7706983" lon="11.7069148"><ele>125.33333333333333</ele><time>2026-04-25T16:15:20.029Z</time></trkpt><trkpt lat="45.7706678" lon="11.707033"><ele>125.16666666666666</ele><time>2026-04-25T16:15:22.029Z</time></trkpt><trkpt lat="45.7706355" lon="11.7071534"><ele>125.0</ele><time>2026-04-25T16:15:24.03Z</time></trkpt><trkpt lat="45.7706082" lon="11.7072673"><ele>124.83333333333333</ele><time>2026-04-25T16:15:26.029Z</time></trkpt><trkpt lat="45.7705854" lon="11.7073769"><ele>124.66666666666666</ele><time>2026-04-25T16:15:28.03Z</time></trkpt><trkpt lat="45.770554" lon="11.7074921"><ele>124.5</ele><time>2026-04-25T16:15:30.03Z</time></trkpt><trkpt lat="45.7705238" lon="11.7075994"><ele>124.33333333333334</ele><time>2026-04-25T16:15:32.03Z</time></trkpt><trkpt lat="45.7705002" lon="11.7077074"><ele>124.16666666666667</ele><time>2026-04-25T16:15:34.03Z</time></trkpt><trkpt lat="45.7704742" lon="11.7078066"><ele>124.0</ele><time>2026-04-25T16:15:36.03Z</time></trkpt><trkpt lat="45.7704458" lon="11.7078931"><ele>124.00000000000001</ele><time>2026-04-25T16:15:38.03Z</time></trkpt><trkpt lat="45.770419" lon="11.7079822"><ele>124.0</ele><time>2026-04-25T16:15:40.03Z</time></trkpt><trkpt lat="45.7703933" lon="11.7080929"><ele>124.0</ele><time>2026-04-25T16:15:42.03Z</time></trkpt><trkpt lat="45.7703696" lon="11.7082039"><ele>124.0</ele><time>2026-04-25T16:15:44.03Z</time></trkpt><trkpt lat="45.7703357" lon="11.7083123"><ele>124.00000000000001</ele><time>2026-04-25T16:15:46.03Z</time></trkpt><trkpt lat="45.7703073" lon="11.7084206"><ele>124.0</ele><time>2026-04-25T16:15:48.03Z</time></trkpt><trkpt lat="45.7702829" lon="11.7085266"><ele>124.16666666666667</ele><time>2026-04-25T16:15:50.03Z</time></trkpt><trkpt lat="45.7702568" lon="11.7086321"><ele>124.33333333333334</ele><time>2026-04-25T16:15:52.03Z</time></trkpt><trkpt lat="45.7702241" lon="11.7087441"><ele>124.5</ele><time>2026-04-25T16:15:54.03Z</time></trkpt><trkpt lat="45.7701968" lon="11.7088376"><ele>124.66666666666666</ele><time>2026-04-25T16:15:56.03Z</time></trkpt><trkpt lat="45.7701694" lon="11.7089453"><ele>124.83333333333333</ele><time>2026-04-25T16:15:58.03Z</time></trkpt><trkpt lat="45.7701451" lon="11.7090451"><ele>125.0</ele><time>2026-04-25T16:16:00.03Z</time></trkpt><trkpt lat="45.7701182" lon="11.7091581"><ele>124.99999999999999</ele><time>2026-04-25T16:16:02.03Z</time></trkpt><trkpt lat="45.7700995" lon="11.7092827"><ele>125.0</ele><time>2026-04-25T16:16:04.03Z</time></trkpt><trkpt lat="45.7700752" lon="11.7093973"><ele>125.0</ele><time>2026-04-25T16:16:06.03Z</time></trkpt><trkpt lat="45.7700467" lon="11.7095082"><ele>125.0</ele><time>2026-04-25T16:16:08.03Z</time></trkpt><trkpt lat="45.7700231" lon="11.7096098"><ele>124.99999999999999</ele><time>2026-04-25T16:16:10.03Z</time></trkpt><trkpt lat="45.7700037" lon="11.7097077"><ele>125.0</ele><time>2026-04-25T16:16:12.03Z</time></trkpt><trkpt lat="45.7699971" lon="11.7098053"><ele>124.99999999999999</ele><time>2026-04-25T16:16:14.03Z</time></trkpt><trkpt lat="45.769991" lon="11.7098966"><ele>125.0</ele><time>2026-04-25T16:16:16.03Z</time></trkpt><trkpt lat="45.7699561" lon="11.7099965"><ele>125.0</ele><time>2026-04-25T16:16:18.03Z</time></trkpt><trkpt lat="45.7699282" lon="11.7101005"><ele>125.0</ele><time>2026-04-25T16:16:20.03Z</time></trkpt><trkpt lat="45.7699078" lon="11.710214"><ele>124.99999999999999</ele><time>2026-04-25T16:16:22.031Z</time></trkpt><trkpt lat="45.7698853" lon="11.710331"><ele>125.0</ele><time>2026-04-25T16:16:24.03Z</time></trkpt><trkpt lat="45.7698616" lon="11.7104483"><ele>125.16666666666666</ele><time>2026-04-25T16:16:26.03Z</time></trkpt><trkpt lat="45.7698334" lon="11.7105753"><ele>125.33333333333333</ele><time>2026-04-25T16:16:28.03Z</time></trkpt><trkpt lat="45.7698038" lon="11.710701"><ele>125.5</ele><time>2026-04-25T16:16:30.032Z</time></trkpt><trkpt lat="45.7697831" lon="11.7108256"><ele>125.66666666666666</ele><time>2026-04-25T16:16:32.031Z</time></trkpt><trkpt lat="45.7697647" lon="11.7109422"><ele>125.83333333333333</ele><time>2026-04-25T16:16:34.031Z</time></trkpt><trkpt lat="45.7697434" lon="11.7110654"><ele>126.0</ele><time>2026-04-25T16:16:36.032Z</time></trkpt><trkpt lat="45.7697269" lon="11.7111836"><ele>126.33333333333333</ele><time>2026-04-25T16:16:38.031Z</time></trkpt><trkpt lat="45.7697031" lon="11.7112901"><ele>126.66666666666666</ele><time>2026-04-25T16:16:40.031Z</time></trkpt><trkpt lat="45.7696774" lon="11.711412"><ele>127.0</ele><time>2026-04-25T16:16:42.031Z</time></trkpt><trkpt lat="45.769663" lon="11.7115379"><ele>127.33333333333333</ele><time>2026-04-25T16:16:44.031Z</time></trkpt><trkpt lat="45.7696537" lon="11.7116504"><ele>127.66666666666666</ele><time>2026-04-25T16:16:46.031Z</time></trkpt><trkpt lat="45.7696263" lon="11.711764"><ele>128.0</ele><time>2026-04-25T16:16:48.044Z</time></trkpt><trkpt lat="45.76961" lon="11.7118623"><ele>127.83333333333333</ele><time>2026-04-25T16:16:50.057Z</time></trkpt><trkpt lat="45.7695935" lon="11.7119645"><ele>127.66666666666666</ele><time>2026-04-25T16:16:52.071Z</time></trkpt><trkpt lat="45.7695745" lon="11.7120703"><ele>127.5</ele><time>2026-04-25T16:16:54.084Z</time></trkpt><trkpt lat="45.7695569" lon="11.7121849"><ele>127.33333333333334</ele><time>2026-04-25T16:16:56.097Z</time></trkpt><trkpt lat="45.7695381" lon="11.7123008"><ele>127.16666666666667</ele><time>2026-04-25T16:16:58.111Z</time></trkpt><trkpt lat="45.7695165" lon="11.7124085"><ele>127.0</ele><time>2026-04-25T16:17:00.031Z</time></trkpt><trkpt lat="45.7694965" lon="11.7125215"><ele>127.00000000000001</ele><time>2026-04-25T16:17:02.036Z</time></trkpt><trkpt lat="45.7694758" lon="11.712633"><ele>127.0</ele><time>2026-04-25T16:17:04.051Z</time></trkpt><trkpt lat="45.7694537" lon="11.7127457"><ele>127.0</ele><time>2026-04-25T16:17:06.023Z</time></trkpt><trkpt lat="45.7694326" lon="11.7128619"><ele>127.0</ele><time>2026-04-25T16:17:08.077Z</time></trkpt><trkpt lat="45.7694095" lon="11.7129744"><ele>127.00000000000001</ele><time>2026-04-25T16:17:10.09Z</time></trkpt><trkpt lat="45.7693904" lon="11.713087"><ele>127.0</ele><time>2026-04-25T16:17:12.08Z</time></trkpt><trkpt lat="45.7693687" lon="11.7131955"><ele>127.16666666666667</ele><time>2026-04-25T16:17:14.031Z</time></trkpt><trkpt lat="45.7693497" lon="11.7133027"><ele>127.33333333333334</ele><time>2026-04-25T16:17:15.966Z</time></trkpt><trkpt lat="45.7693309" lon="11.7134077"><ele>127.5</ele><time>2026-04-25T16:17:17.845Z</time></trkpt><trkpt lat="45.7693091" lon="11.7135356"><ele>127.66666666666666</ele><time>2026-04-25T16:17:20.056Z</time></trkpt><trkpt lat="45.7693003" lon="11.7136543"><ele>127.83333333333333</ele><time>2026-04-25T16:17:22.032Z</time></trkpt><trkpt lat="45.7692743" lon="11.7138017"><ele>128.0</ele><time>2026-04-25T16:17:24.031Z</time></trkpt><trkpt lat="45.7692558" lon="11.7139326"><ele>127.99999999999999</ele><time>2026-04-25T16:17:26.031Z</time></trkpt><trkpt lat="45.7692304" lon="11.7140661"><ele>128.0</ele><time>2026-04-25T16:17:28.031Z</time></trkpt><trkpt lat="45.7692098" lon="11.7141917"><ele>128.0</ele><time>2026-04-25T16:17:30.031Z</time></trkpt><trkpt lat="45.769189" lon="11.7143109"><ele>128.0</ele><time>2026-04-25T16:17:32.031Z</time></trkpt><trkpt lat="45.769167" lon="11.7144283"><ele>127.99999999999999</ele><time>2026-04-25T16:17:34.032Z</time></trkpt><trkpt lat="45.7691453" lon="11.7145452"><ele>128.0</ele><time>2026-04-25T16:17:36.032Z</time></trkpt><trkpt lat="45.7691327" lon="11.7146618"><ele>127.99999999999999</ele><time>2026-04-25T16:17:38.032Z</time></trkpt><trkpt lat="45.7691095" lon="11.7147799"><ele>128.0</ele><time>2026-04-25T16:17:40.032Z</time></trkpt><trkpt lat="45.769082" lon="11.7148966"><ele>128.0</ele><time>2026-04-25T16:17:42.032Z</time></trkpt><trkpt lat="45.7690302" lon="11.7149948"><ele>128.0</ele><time>2026-04-25T16:17:44.032Z</time></trkpt><trkpt lat="45.7689731" lon="11.7150988"><ele>127.99999999999999</ele><time>2026-04-25T16:17:46.032Z</time></trkpt><trkpt lat="45.7689305" lon="11.7152037"><ele>128.0</ele><time>2026-04-25T16:17:48.032Z</time></trkpt><trkpt lat="45.7689236" lon="11.7153333"><ele>128.20000000000002</ele><time>2026-04-25T16:17:50.032Z</time></trkpt><trkpt lat="45.768959" lon="11.7154539"><ele>128.4</ele><time>2026-04-25T16:17:52.032Z</time></trkpt><trkpt lat="45.7689684" lon="11.7155736"><ele>128.60000000000002</ele><time>2026-04-25T16:17:54.032Z</time></trkpt><trkpt lat="45.7689585" lon="11.7157087"><ele>128.8</ele><time>2026-04-25T16:17:56.032Z</time></trkpt><trkpt lat="45.7689477" lon="11.7158394"><ele>129.0</ele><time>2026-04-25T16:17:58.032Z</time></trkpt><trkpt lat="45.7689252" lon="11.7159688"><ele>129.4</ele><time>2026-04-25T16:18:00.032Z</time></trkpt><trkpt lat="45.7689013" lon="11.7161005"><ele>129.8</ele><time>2026-04-25T16:18:02.032Z</time></trkpt><trkpt lat="45.7688851" lon="11.7162329"><ele>130.2</ele><time>2026-04-25T16:18:04.032Z</time></trkpt><trkpt lat="45.7688659" lon="11.7163587"><ele>130.6</ele><time>2026-04-25T16:18:06.032Z</time></trkpt><trkpt lat="45.7688493" lon="11.7164891"><ele>131.0</ele><time>2026-04-25T16:18:08.032Z</time></trkpt><trkpt lat="45.7688338" lon="11.7166189"><ele>131.0</ele><time>2026-04-25T16:18:10.032Z</time></trkpt><trkpt lat="45.7688109" lon="11.7167442"><ele>131.0</ele><time>2026-04-25T16:18:12.032Z</time></trkpt><trkpt lat="45.7687755" lon="11.716877"><ele>131.0</ele><time>2026-04-25T16:18:14.032Z</time></trkpt><trkpt lat="45.7687517" lon="11.7170113"><ele>131.0</ele><time>2026-04-25T16:18:16.033Z</time></trkpt><trkpt lat="45.7687356" lon="11.7171424"><ele>131.0</ele><time>2026-04-25T16:18:18.032Z</time></trkpt><trkpt lat="45.7687167" lon="11.7172666"><ele>131.0</ele><time>2026-04-25T16:18:20.032Z</time></trkpt><trkpt lat="45.7687002" lon="11.717385"><ele>131.0</ele><time>2026-04-25T16:18:22.032Z</time></trkpt><trkpt lat="45.768678" lon="11.7175107"><ele>131.0</ele><time>2026-04-25T16:18:24.032Z</time></trkpt><trkpt lat="45.7686515" lon="11.7176507"><ele>131.0</ele><time>2026-04-25T16:18:26.033Z</time></trkpt><trkpt lat="45.7686277" lon="11.7177825"><ele>131.0</ele><time>2026-04-25T16:18:28.032Z</time></trkpt><trkpt lat="45.7686053" lon="11.7179223"><ele>130.83333333333331</ele><time>2026-04-25T16:18:30.032Z</time></trkpt><trkpt lat="45.7685889" lon="11.7180536"><ele>130.66666666666666</ele><time>2026-04-25T16:18:32.033Z</time></trkpt><trkpt lat="45.7685695" lon="11.7181788"><ele>130.5</ele><time>2026-04-25T16:18:34.033Z</time></trkpt><trkpt lat="45.76855" lon="11.7182974"><ele>130.33333333333334</ele><time>2026-04-25T16:18:36.033Z</time></trkpt><trkpt lat="45.7685335" lon="11.7184174"><ele>130.16666666666669</ele><time>2026-04-25T16:18:38.033Z</time></trkpt><trkpt lat="45.76852" lon="11.718522"><ele>130.0</ele><time>2026-04-25T16:18:40.034Z</time></trkpt><trkpt lat="45.7684936" lon="11.7186455"><ele>129.4</ele><time>2026-04-25T16:18:42.033Z</time></trkpt><trkpt lat="45.7684756" lon="11.7187837"><ele>128.8</ele><time>2026-04-25T16:18:44.033Z</time></trkpt><trkpt lat="45.76846" lon="11.7189273"><ele>128.2</ele><time>2026-04-25T16:18:46.033Z</time></trkpt><trkpt lat="45.7684289" lon="11.7190792"><ele>127.6</ele><time>2026-04-25T16:18:48.033Z</time></trkpt><trkpt lat="45.7684018" lon="11.7192348"><ele>127.0</ele><time>2026-04-25T16:18:50.033Z</time></trkpt><trkpt lat="45.7683722" lon="11.7194092"><ele>127.0</ele><time>2026-04-25T16:18:52.033Z</time></trkpt><trkpt lat="45.7683598" lon="11.7195016"><ele>127.0</ele><time>2026-04-25T16:18:53.033Z</time></trkpt><trkpt lat="45.768345" lon="11.7195911"><ele>127.0</ele><time>2026-04-25T16:18:54.033Z</time></trkpt><trkpt lat="45.7683312" lon="11.7196829"><ele>127.0</ele><time>2026-04-25T16:18:55.033Z</time></trkpt><trkpt lat="45.7683184" lon="11.7197805"><ele>127.0</ele><time>2026-04-25T16:18:56.033Z</time></trkpt><trkpt lat="45.7683031" lon="11.719876"><ele>127.0</ele><time>2026-04-25T16:18:57.033Z</time></trkpt><trkpt lat="45.7682866" lon="11.7199741"><ele>127.0</ele><time>2026-04-25T16:18:58.033Z</time></trkpt><trkpt lat="45.76827" lon="11.7200776"><ele>127.00000000000001</ele><time>2026-04-25T16:18:59.033Z</time></trkpt><trkpt lat="45.7682533" lon="11.720181"><ele>127.0</ele><time>2026-04-25T16:19:00.033Z</time></trkpt><trkpt lat="45.7682369" lon="11.7202841"><ele>127.0</ele><time>2026-04-25T16:19:01.034Z</time></trkpt><trkpt lat="45.7682197" lon="11.7203832"><ele>127.0</ele><time>2026-04-25T16:19:02.033Z</time></trkpt><trkpt lat="45.7682043" lon="11.720473"><ele>127.00000000000001</ele><time>2026-04-25T16:19:03.033Z</time></trkpt><trkpt lat="45.7681785" lon="11.7206262"><ele>127.0</ele><time>2026-04-25T16:19:05.033Z</time></trkpt><trkpt lat="45.7681494" lon="11.7207682"><ele>126.33333333333334</ele><time>2026-04-25T16:19:07.033Z</time></trkpt><trkpt lat="45.7681128" lon="11.7209151"><ele>125.66666666666667</ele><time>2026-04-25T16:19:09.033Z</time></trkpt><trkpt lat="45.7680912" lon="11.7210095"><ele>125.0</ele><time>2026-04-25T16:19:10.033Z</time></trkpt><trkpt lat="45.7680791" lon="11.7211006"><ele>124.33333333333334</ele><time>2026-04-25T16:19:11.034Z</time></trkpt><trkpt lat="45.7680768" lon="11.7211927"><ele>123.66666666666667</ele><time>2026-04-25T16:19:12.033Z</time></trkpt><trkpt lat="45.7680189" lon="11.7213459"><ele>123.0</ele><time>2026-04-25T16:19:14.033Z</time></trkpt><trkpt lat="45.7679586" lon="11.7213994"><ele>123.00000000000001</ele><time>2026-04-25T16:19:15.033Z</time></trkpt><trkpt lat="45.7678946" lon="11.7214385"><ele>123.0</ele><time>2026-04-25T16:19:16.033Z</time></trkpt><trkpt lat="45.7678323" lon="11.7214723"><ele>123.00000000000001</ele><time>2026-04-25T16:19:17.033Z</time></trkpt><trkpt lat="45.7677625" lon="11.7215087"><ele>123.00000000000001</ele><time>2026-04-25T16:19:18.033Z</time></trkpt><trkpt lat="45.767697" lon="11.7215534"><ele>123.0</ele><time>2026-04-25T16:19:19.033Z</time></trkpt><trkpt lat="45.7676284" lon="11.7215974"><ele>123.00000000000001</ele><time>2026-04-25T16:19:20.033Z</time></trkpt><trkpt lat="45.7675584" lon="11.7216372"><ele>123.00000000000001</ele><time>2026-04-25T16:19:21.033Z</time></trkpt><trkpt lat="45.7674873" lon="11.7216755"><ele>122.16666666666667</ele><time>2026-04-25T16:19:22.033Z</time></trkpt><trkpt lat="45.7674177" lon="11.7217109"><ele>121.33333333333334</ele><time>2026-04-25T16:19:23.034Z</time></trkpt><trkpt lat="45.767354" lon="11.7217498"><ele>120.5</ele><time>2026-04-25T16:19:24.033Z</time></trkpt><trkpt lat="45.7672906" lon="11.7217945"><ele>119.66666666666667</ele><time>2026-04-25T16:19:25.033Z</time></trkpt><trkpt lat="45.7672285" lon="11.7218438"><ele>118.83333333333334</ele><time>2026-04-25T16:19:26.033Z</time></trkpt><trkpt lat="45.7671671" lon="11.7218827"><ele>118.0</ele><time>2026-04-25T16:19:27.033Z</time></trkpt><trkpt lat="45.7670326" lon="11.7218998"><ele>118.00000000000001</ele><time>2026-04-25T16:19:29.033Z</time></trkpt><trkpt lat="45.7669535" lon="11.7218901"><ele>118.0</ele><time>2026-04-25T16:19:30.033Z</time></trkpt><trkpt lat="45.7668678" lon="11.7218777"><ele>118.0</ele><time>2026-04-25T16:19:31.033Z</time></trkpt><trkpt lat="45.766792" lon="11.7218769"><ele>118.0</ele><time>2026-04-25T16:19:32.033Z</time></trkpt><trkpt lat="45.7667238" lon="11.7218755"><ele>118.00000000000001</ele><time>2026-04-25T16:19:33.033Z</time></trkpt><trkpt lat="45.7666014" lon="11.7218691"><ele>118.0</ele><time>2026-04-25T16:19:35.034Z</time></trkpt><trkpt lat="45.7665206" lon="11.7218667"><ele>118.0</ele><time>2026-04-25T16:19:37.034Z</time></trkpt><trkpt lat="45.7664844" lon="11.7219729"><ele>118.00000000000001</ele><time>2026-04-25T16:19:40.034Z</time></trkpt><trkpt lat="45.7665192" lon="11.7220914"><ele>118.00000000000001</ele><time>2026-04-25T16:19:42.035Z</time></trkpt><trkpt lat="45.7665645" lon="11.7222289"><ele>118.0</ele><time>2026-04-25T16:19:44.034Z</time></trkpt><trkpt lat="45.7666012" lon="11.7223781"><ele>118.0</ele><time>2026-04-25T16:19:46.034Z</time></trkpt><trkpt lat="45.7666306" lon="11.722515"><ele>118.00000000000001</ele><time>2026-04-25T16:19:48.034Z</time></trkpt><trkpt lat="45.7666743" lon="11.7226071"><ele>118.0</ele><time>2026-04-25T16:19:50.034Z</time></trkpt><trkpt lat="45.7667143" lon="11.7227328"><ele>118.0</ele><time>2026-04-25T16:19:52.034Z</time></trkpt><trkpt lat="45.7667569" lon="11.7228525"><ele>118.0</ele><time>2026-04-25T16:19:54.034Z</time></trkpt><trkpt lat="45.7667761" lon="11.7229466"><ele>118.00000000000001</ele><time>2026-04-25T16:19:56.034Z</time></trkpt><trkpt lat="45.7668046" lon="11.7230758"><ele>118.0</ele><time>2026-04-25T16:19:58.034Z</time></trkpt><trkpt lat="45.7668494" lon="11.7232176"><ele>117.66666666666667</ele><time>2026-04-25T16:20:00.034Z</time></trkpt><trkpt lat="45.7668833" lon="11.7232961"><ele>117.33333333333334</ele><time>2026-04-25T16:20:01.035Z</time></trkpt><trkpt lat="45.766941" lon="11.7234131"><ele>117.0</ele><time>2026-04-25T16:20:03.034Z</time></trkpt><trkpt lat="45.7669955" lon="11.7235119"><ele>116.66666666666666</ele><time>2026-04-25T16:20:05.035Z</time></trkpt><trkpt lat="45.7670479" lon="11.7235874"><ele>116.33333333333333</ele><time>2026-04-25T16:20:07.034Z</time></trkpt><trkpt lat="45.7670902" lon="11.7236785"><ele>116.0</ele><time>2026-04-25T16:20:09.034Z</time></trkpt><trkpt lat="45.7671438" lon="11.7238128"><ele>116.0</ele><time>2026-04-25T16:20:11.035Z</time></trkpt><trkpt lat="45.7671735" lon="11.7239557"><ele>116.0</ele><time>2026-04-25T16:20:13.034Z</time></trkpt><trkpt lat="45.7671721" lon="11.7241094"><ele>116.0</ele><time>2026-04-25T16:20:15.034Z</time></trkpt><trkpt lat="45.7671382" lon="11.7242125"><ele>116.0</ele><time>2026-04-25T16:20:17.034Z</time></trkpt><trkpt lat="45.7671077" lon="11.7243153"><ele>116.0</ele><time>2026-04-25T16:20:19.034Z</time></trkpt><trkpt lat="45.7670641" lon="11.7244207"><ele>115.99999999999999</ele><time>2026-04-25T16:20:21.034Z</time></trkpt><trkpt lat="45.7670077" lon="11.7245115"><ele>116.0</ele><time>2026-04-25T16:20:23.034Z</time></trkpt><trkpt lat="45.7669495" lon="11.7246225"><ele>116.0</ele><time>2026-04-25T16:20:25.035Z</time></trkpt><trkpt lat="45.7669061" lon="11.7247401"><ele>116.0</ele><time>2026-04-25T16:20:27.034Z</time></trkpt><trkpt lat="45.7668759" lon="11.7248241"><ele>115.99999999999999</ele><time>2026-04-25T16:20:29.034Z</time></trkpt><trkpt lat="45.766829" lon="11.724921"><ele>116.0</ele><time>2026-04-25T16:20:31.034Z</time></trkpt><trkpt lat="45.7667804" lon="11.7250323"><ele>115.99999999999999</ele><time>2026-04-25T16:20:33.034Z</time></trkpt><trkpt lat="45.7667315" lon="11.7251246"><ele>116.0</ele><time>2026-04-25T16:20:35.035Z</time></trkpt><trkpt lat="45.7666802" lon="11.7252436"><ele>116.0</ele><time>2026-04-25T16:20:37.035Z</time></trkpt><trkpt lat="45.7666265" lon="11.7253189"><ele>116.0</ele><time>2026-04-25T16:20:39.035Z</time></trkpt><trkpt lat="45.7665888" lon="11.7254022"><ele>115.99999999999999</ele><time>2026-04-25T16:20:41.035Z</time></trkpt><trkpt lat="45.7665566" lon="11.7254964"><ele>116.0</ele><time>2026-04-25T16:20:43.035Z</time></trkpt><trkpt lat="45.7665232" lon="11.7255913"><ele>115.49999999999999</ele><time>2026-04-25T16:20:45.035Z</time></trkpt><trkpt lat="45.7664853" lon="11.7256858"><ele>115.0</ele><time>2026-04-25T16:20:47.035Z</time></trkpt><trkpt lat="45.7664399" lon="11.7257968"><ele>114.5</ele><time>2026-04-25T16:20:49.036Z</time></trkpt><trkpt lat="45.7663905" lon="11.7259068"><ele>114.0</ele><time>2026-04-25T16:20:51.035Z</time></trkpt><trkpt lat="45.766334" lon="11.7260162"><ele>113.49999999999999</ele><time>2026-04-25T16:20:53.035Z</time></trkpt><trkpt lat="45.7662838" lon="11.7261212"><ele>113.0</ele><time>2026-04-25T16:20:55.035Z</time></trkpt><trkpt lat="45.7662361" lon="11.7262145"><ele>112.83333333333333</ele><time>2026-04-25T16:20:57.035Z</time></trkpt><trkpt lat="45.766195" lon="11.7263204"><ele>112.66666666666666</ele><time>2026-04-25T16:20:59.036Z</time></trkpt><trkpt lat="45.7661601" lon="11.7264227"><ele>112.5</ele><time>2026-04-25T16:21:01.035Z</time></trkpt><trkpt lat="45.7661213" lon="11.7265179"><ele>112.33333333333334</ele><time>2026-04-25T16:21:03.035Z</time></trkpt><trkpt lat="45.7660863" lon="11.726602"><ele>112.16666666666667</ele><time>2026-04-25T16:21:05.035Z</time></trkpt><trkpt lat="45.7660163" lon="11.7266777"><ele>112.0</ele><time>2026-04-25T16:21:08.035Z</time></trkpt><trkpt lat="45.7659373" lon="11.7266434"><ele>112.33333333333334</ele><time>2026-04-25T16:21:11.035Z</time></trkpt><trkpt lat="45.765871" lon="11.7265815"><ele>112.66666666666667</ele><time>2026-04-25T16:21:14.035Z</time></trkpt><trkpt lat="45.7658145" lon="11.7264851"><ele>113.0</ele><time>2026-04-25T16:21:18.036Z</time></trkpt><trkpt lat="45.7657404" lon="11.7264359"><ele>113.33333333333334</ele><time>2026-04-25T16:21:20.035Z</time></trkpt><trkpt lat="45.7656944" lon="11.7263371"><ele>113.66666666666667</ele><time>2026-04-25T16:21:22.035Z</time></trkpt><trkpt lat="45.7656577" lon="11.7262436"><ele>114.0</ele><time>2026-04-25T16:21:24.035Z</time></trkpt><trkpt lat="45.7656336" lon="11.7261283"><ele>113.71428571428571</ele><time>2026-04-25T16:21:26.036Z</time></trkpt><trkpt lat="45.7656149" lon="11.7260283"><ele>113.42857142857142</ele><time>2026-04-25T16:21:28.035Z</time></trkpt><trkpt lat="45.7655934" lon="11.7259299"><ele>113.14285714285714</ele><time>2026-04-25T16:21:30.035Z</time></trkpt><trkpt lat="45.7655851" lon="11.7258326"><ele>112.85714285714286</ele><time>2026-04-25T16:21:32.035Z</time></trkpt><trkpt lat="45.7655743" lon="11.7257158"><ele>112.57142857142857</ele><time>2026-04-25T16:21:35.035Z</time></trkpt><trkpt lat="45.7655631" lon="11.7256254"><ele>112.28571428571428</ele><time>2026-04-25T16:21:38.036Z</time></trkpt><trkpt lat="45.7655309" lon="11.7255267"><ele>112.0</ele><time>2026-04-25T16:21:41.036Z</time></trkpt><trkpt lat="45.7655053" lon="11.7254352"><ele>112.00000000000001</ele><time>2026-04-25T16:21:45.037Z</time></trkpt><trkpt lat="45.7654889" lon="11.7253408"><ele>112.0</ele><time>2026-04-25T16:21:50.036Z</time></trkpt><trkpt lat="45.7654252" lon="11.7253341"><ele>112.0</ele><time>2026-04-25T16:22:11.036Z</time></trkpt><trkpt lat="45.7653627" lon="11.7252621"><ele>112.0</ele><time>2026-04-25T16:22:55.037Z</time></trkpt><trkpt lat="45.7653681" lon="11.7251432"><ele>112.00000000000001</ele><time>2026-04-25T16:23:00.037Z</time></trkpt><trkpt lat="45.7653886" lon="11.7250074"><ele>112.0</ele><time>2026-04-25T16:23:02.038Z</time></trkpt><trkpt lat="45.7653776" lon="11.7248715"><ele>112.00000000000001</ele><time>2026-04-25T16:23:04.037Z</time></trkpt><trkpt lat="45.7653649" lon="11.7247826"><ele>112.0</ele><time>2026-04-25T16:23:06.037Z</time></trkpt><trkpt lat="45.7653588" lon="11.7246879"><ele>112.0</ele><time>2026-04-25T16:23:08.037Z</time></trkpt><trkpt lat="45.7653372" lon="11.7245869"><ele>112.0</ele><time>2026-04-25T16:23:10.037Z</time></trkpt><trkpt lat="45.7653221" lon="11.7244939"><ele>112.00000000000001</ele><time>2026-04-25T16:23:12.037Z</time></trkpt><trkpt lat="45.7653234" lon="11.7243397"><ele>112.0</ele><time>2026-04-25T16:23:15.037Z</time></trkpt><trkpt lat="45.7653087" lon="11.7242116"><ele>112.16666666666667</ele><time>2026-04-25T16:23:17.037Z</time></trkpt><trkpt lat="45.7653053" lon="11.7241178"><ele>112.33333333333334</ele><time>2026-04-25T16:23:19.037Z</time></trkpt><trkpt lat="45.7652829" lon="11.7240015"><ele>112.5</ele><time>2026-04-25T16:23:22.037Z</time></trkpt><trkpt lat="45.7652707" lon="11.7239084"><ele>112.66666666666666</ele><time>2026-04-25T16:23:24.037Z</time></trkpt><trkpt lat="45.76527" lon="11.7237914"><ele>112.83333333333333</ele><time>2026-04-25T16:23:26.037Z</time></trkpt><trkpt lat="45.7652773" lon="11.7236892"><ele>113.0</ele><time>2026-04-25T16:23:28.037Z</time></trkpt><trkpt lat="45.7652781" lon="11.7235587"><ele>113.16666666666666</ele><time>2026-04-25T16:23:31.037Z</time></trkpt><trkpt lat="45.7652633" lon="11.7234531"><ele>113.33333333333333</ele><time>2026-04-25T16:23:33.037Z</time></trkpt><trkpt lat="45.7652463" lon="11.7233334"><ele>113.5</ele><time>2026-04-25T16:23:35.037Z</time></trkpt><trkpt lat="45.7652215" lon="11.7232063"><ele>113.66666666666666</ele><time>2026-04-25T16:23:37.037Z</time></trkpt><trkpt lat="45.7652149" lon="11.7230905"><ele>113.83333333333333</ele><time>2026-04-25T16:23:39.037Z</time></trkpt><trkpt lat="45.7651941" lon="11.7229754"><ele>114.0</ele><time>2026-04-25T16:23:41.039Z</time></trkpt><trkpt lat="45.7651767" lon="11.722842"><ele>113.83333333333333</ele><time>2026-04-25T16:23:43.038Z</time></trkpt><trkpt lat="45.7651668" lon="11.7227287"><ele>113.66666666666666</ele><time>2026-04-25T16:23:45.038Z</time></trkpt><trkpt lat="45.7651405" lon="11.7226028"><ele>113.5</ele><time>2026-04-25T16:23:47.038Z</time></trkpt><trkpt lat="45.7651183" lon="11.7224782"><ele>113.33333333333333</ele><time>2026-04-25T16:23:49.038Z</time></trkpt><trkpt lat="45.7651084" lon="11.722357"><ele>113.16666666666666</ele><time>2026-04-25T16:23:51.038Z</time></trkpt><trkpt lat="45.7650928" lon="11.7222337"><ele>113.0</ele><time>2026-04-25T16:23:53.038Z</time></trkpt><trkpt lat="45.7650612" lon="11.7221088"><ele>112.99999999999999</ele><time>2026-04-25T16:23:55.038Z</time></trkpt><trkpt lat="45.7650394" lon="11.7220054"><ele>113.0</ele><time>2026-04-25T16:23:57.038Z</time></trkpt><trkpt lat="45.7650295" lon="11.7218828"><ele>113.0</ele><time>2026-04-25T16:23:59.038Z</time></trkpt><trkpt lat="45.7650209" lon="11.7217543"><ele>113.0</ele><time>2026-04-25T16:24:01.039Z</time></trkpt><trkpt lat="45.7650174" lon="11.7216632"><ele>112.99999999999999</ele><time>2026-04-25T16:24:03.038Z</time></trkpt><trkpt lat="45.765016" lon="11.721563"><ele>113.0</ele><time>2026-04-25T16:24:05.038Z</time></trkpt><trkpt lat="45.7649961" lon="11.72145"><ele>113.0</ele><time>2026-04-25T16:24:07.111Z</time></trkpt><trkpt lat="45.764991" lon="11.7213489"><ele>113.0</ele><time>2026-04-25T16:24:09.038Z</time></trkpt><trkpt lat="45.7649832" lon="11.7212539"><ele>113.0</ele><time>2026-04-25T16:24:11.038Z</time></trkpt><trkpt lat="45.7649727" lon="11.7211491"><ele>113.0</ele><time>2026-04-25T16:24:13.05Z</time></trkpt><trkpt lat="45.7649639" lon="11.7210463"><ele>113.0</ele><time>2026-04-25T16:24:15.064Z</time></trkpt><trkpt lat="45.764954" lon="11.720946"><ele>113.0</ele><time>2026-04-25T16:24:17.076Z</time></trkpt><trkpt lat="45.7649402" lon="11.7208538"><ele>113.0</ele><time>2026-04-25T16:24:19.09Z</time></trkpt><trkpt lat="45.7649233" lon="11.7207554"><ele>112.83333333333333</ele><time>2026-04-25T16:24:21.103Z</time></trkpt><trkpt lat="45.7649073" lon="11.7206499"><ele>112.66666666666666</ele><time>2026-04-25T16:24:23.116Z</time></trkpt><trkpt lat="45.7648957" lon="11.720534"><ele>112.5</ele><time>2026-04-25T16:24:25.038Z</time></trkpt><trkpt lat="45.764881" lon="11.7204145"><ele>112.33333333333334</ele><time>2026-04-25T16:24:27.042Z</time></trkpt><trkpt lat="45.7648704" lon="11.7202936"><ele>112.16666666666667</ele><time>2026-04-25T16:24:29.055Z</time></trkpt><trkpt lat="45.7648568" lon="11.7201777"><ele>112.0</ele><time>2026-04-25T16:24:31.069Z</time></trkpt><trkpt lat="45.764844" lon="11.7200627"><ele>112.0</ele><time>2026-04-25T16:24:33.082Z</time></trkpt><trkpt lat="45.7648325" lon="11.7199478"><ele>111.99999999999999</ele><time>2026-04-25T16:24:35.095Z</time></trkpt><trkpt lat="45.7648233" lon="11.7198193"><ele>111.99999999999999</ele><time>2026-04-25T16:24:37.109Z</time></trkpt><trkpt lat="45.7648154" lon="11.719681"><ele>112.0</ele><time>2026-04-25T16:24:39.039Z</time></trkpt><trkpt lat="45.7648077" lon="11.7195468"><ele>112.0</ele><time>2026-04-25T16:24:41.04Z</time></trkpt><trkpt lat="45.7647937" lon="11.7194195"><ele>111.8</ele><time>2026-04-25T16:24:43.049Z</time></trkpt><trkpt lat="45.7647793" lon="11.7192833"><ele>111.6</ele><time>2026-04-25T16:24:45.062Z</time></trkpt><trkpt lat="45.7647658" lon="11.7191514"><ele>111.39999999999999</ele><time>2026-04-25T16:24:47.074Z</time></trkpt><trkpt lat="45.7647456" lon="11.7190072"><ele>111.19999999999999</ele><time>2026-04-25T16:24:49.088Z</time></trkpt><trkpt lat="45.7647266" lon="11.7188627"><ele>111.0</ele><time>2026-04-25T16:24:51.101Z</time></trkpt><trkpt lat="45.7647078" lon="11.718728"><ele>111.0</ele><time>2026-04-25T16:24:53.066Z</time></trkpt><trkpt lat="45.7646892" lon="11.718591"><ele>111.0</ele><time>2026-04-25T16:24:55.039Z</time></trkpt><trkpt lat="45.7646717" lon="11.7184622"><ele>111.0</ele><time>2026-04-25T16:24:57.04Z</time></trkpt><trkpt lat="45.7646559" lon="11.7183439"><ele>111.0</ele><time>2026-04-25T16:24:59.047Z</time></trkpt><trkpt lat="45.7646418" lon="11.718209"><ele>111.0</ele><time>2026-04-25T16:25:01.067Z</time></trkpt><trkpt lat="45.7646231" lon="11.7180798"><ele>111.0</ele><time>2026-04-25T16:25:03.08Z</time></trkpt><trkpt lat="45.7646197" lon="11.7179752"><ele>111.0</ele><time>2026-04-25T16:25:05.093Z</time></trkpt><trkpt lat="45.7646118" lon="11.7178642"><ele>111.0</ele><time>2026-04-25T16:25:07.107Z</time></trkpt><trkpt lat="45.764589" lon="11.7177511"><ele>111.0</ele><time>2026-04-25T16:25:09.121Z</time></trkpt><trkpt lat="45.7645496" lon="11.7176384"><ele>111.0</ele><time>2026-04-25T16:25:11.039Z</time></trkpt><trkpt lat="45.7644764" lon="11.7175548"><ele>111.0</ele><time>2026-04-25T16:25:13.04Z</time></trkpt><trkpt lat="45.7643909" lon="11.7174592"><ele>110.8</ele><time>2026-04-25T16:25:15.039Z</time></trkpt><trkpt lat="45.7643291" lon="11.7173407"><ele>110.6</ele><time>2026-04-25T16:25:17.039Z</time></trkpt><trkpt lat="45.7642928" lon="11.7172238"><ele>110.4</ele><time>2026-04-25T16:25:19.039Z</time></trkpt><trkpt lat="45.7642605" lon="11.7171043"><ele>110.2</ele><time>2026-04-25T16:25:21.039Z</time></trkpt><trkpt lat="45.7642206" lon="11.717004"><ele>110.0</ele><time>2026-04-25T16:25:23.039Z</time></trkpt><trkpt lat="45.7641695" lon="11.7168855"><ele>109.99999999999999</ele><time>2026-04-25T16:25:25.04Z</time></trkpt><trkpt lat="45.7641136" lon="11.7167629"><ele>110.0</ele><time>2026-04-25T16:25:27.039Z</time></trkpt><trkpt lat="45.764064" lon="11.7166569"><ele>110.0</ele><time>2026-04-25T16:25:29.039Z</time></trkpt><trkpt lat="45.764019" lon="11.7165667"><ele>110.0</ele><time>2026-04-25T16:25:31.039Z</time></trkpt><trkpt lat="45.7639697" lon="11.7164752"><ele>109.99999999999999</ele><time>2026-04-25T16:25:33.039Z</time></trkpt><trkpt lat="45.7639323" lon="11.716395"><ele>110.0</ele><time>2026-04-25T16:25:35.039Z</time></trkpt><trkpt lat="45.7638921" lon="11.7163078"><ele>109.99999999999999</ele><time>2026-04-25T16:25:37.039Z</time></trkpt><trkpt lat="45.7638555" lon="11.7162194"><ele>110.0</ele><time>2026-04-25T16:25:39.039Z</time></trkpt><trkpt lat="45.7638154" lon="11.7161226"><ele>110.0</ele><time>2026-04-25T16:25:41.039Z</time></trkpt><trkpt lat="45.7637706" lon="11.7160209"><ele>110.0</ele><time>2026-04-25T16:25:43.04Z</time></trkpt><trkpt lat="45.7637184" lon="11.7159282"><ele>109.99999999999999</ele><time>2026-04-25T16:25:45.04Z</time></trkpt><trkpt lat="45.7636765" lon="11.7158448"><ele>110.0</ele><time>2026-04-25T16:25:47.04Z</time></trkpt><trkpt lat="45.7636334" lon="11.7157521"><ele>110.14285714285714</ele><time>2026-04-25T16:25:49.04Z</time></trkpt><trkpt lat="45.7635933" lon="11.7156646"><ele>110.28571428571428</ele><time>2026-04-25T16:25:51.04Z</time></trkpt><trkpt lat="45.763556" lon="11.7155855"><ele>110.42857142857142</ele><time>2026-04-25T16:25:53.04Z</time></trkpt><trkpt lat="45.7635141" lon="11.7155008"><ele>110.57142857142857</ele><time>2026-04-25T16:25:55.04Z</time></trkpt><trkpt lat="45.7634638" lon="11.7154136"><ele>110.71428571428572</ele><time>2026-04-25T16:25:57.04Z</time></trkpt><trkpt lat="45.7634272" lon="11.7153168"><ele>110.85714285714285</ele><time>2026-04-25T16:25:59.04Z</time></trkpt><trkpt lat="45.7633936" lon="11.7152263"><ele>111.0</ele><time>2026-04-25T16:26:01.04Z</time></trkpt><trkpt lat="45.7633563" lon="11.7151372"><ele>111.16666666666667</ele><time>2026-04-25T16:26:03.04Z</time></trkpt><trkpt lat="45.7633149" lon="11.7150259"><ele>111.33333333333334</ele><time>2026-04-25T16:26:06.04Z</time></trkpt><trkpt lat="45.7632473" lon="11.7149426"><ele>111.5</ele><time>2026-04-25T16:26:09.04Z</time></trkpt><trkpt lat="45.7631608" lon="11.7149463"><ele>111.66666666666667</ele><time>2026-04-25T16:26:12.04Z</time></trkpt><trkpt lat="45.7630961" lon="11.7148636"><ele>111.83333333333334</ele><time>2026-04-25T16:26:15.04Z</time></trkpt><trkpt lat="45.7630639" lon="11.7147634"><ele>112.0</ele><time>2026-04-25T16:26:18.04Z</time></trkpt><trkpt lat="45.7630106" lon="11.7146911"><ele>112.00000000000001</ele><time>2026-04-25T16:26:22.04Z</time></trkpt><trkpt lat="45.7629388" lon="11.7146502"><ele>112.0</ele><time>2026-04-25T16:26:25.04Z</time></trkpt><trkpt lat="45.7628663" lon="11.7147092"><ele>112.0</ele><time>2026-04-25T16:26:28.041Z</time></trkpt><trkpt lat="45.7628184" lon="11.7147681"><ele>112.0</ele><time>2026-04-25T16:26:30.04Z</time></trkpt><trkpt lat="45.7627295" lon="11.7148305"><ele>112.00000000000001</ele><time>2026-04-25T16:26:33.04Z</time></trkpt><trkpt lat="45.7626588" lon="11.7148547"><ele>112.0</ele><time>2026-04-25T16:26:35.04Z</time></trkpt><trkpt lat="45.7626056" lon="11.7147904"><ele>111.83333333333334</ele><time>2026-04-25T16:26:37.04Z</time></trkpt><trkpt lat="45.7625654" lon="11.7146857"><ele>111.66666666666667</ele><time>2026-04-25T16:26:39.04Z</time></trkpt><trkpt lat="45.762519" lon="11.7146156"><ele>111.5</ele><time>2026-04-25T16:26:41.04Z</time></trkpt><trkpt lat="45.7624508" lon="11.7145503"><ele>111.33333333333334</ele><time>2026-04-25T16:26:44.041Z</time></trkpt><trkpt lat="45.7623803" lon="11.7145002"><ele>111.16666666666667</ele><time>2026-04-25T16:26:47.041Z</time></trkpt><trkpt lat="45.7623052" lon="11.7145257"><ele>111.0</ele><time>2026-04-25T16:26:50.041Z</time></trkpt><trkpt lat="45.7622321" lon="11.7145003"><ele>111.0</ele><time>2026-04-25T16:26:53.041Z</time></trkpt><trkpt lat="45.7621544" lon="11.714468"><ele>111.0</ele><time>2026-04-25T16:26:55.042Z</time></trkpt><trkpt lat="45.7620663" lon="11.714507"><ele>111.0</ele><time>2026-04-25T16:26:57.041Z</time></trkpt><trkpt lat="45.7619796" lon="11.7145672"><ele>111.0</ele><time>2026-04-25T16:26:59.042Z</time></trkpt><trkpt lat="45.7618872" lon="11.7146196"><ele>111.0</ele><time>2026-04-25T16:27:01.041Z</time></trkpt><trkpt lat="45.7618063" lon="11.7146706"><ele>110.8</ele><time>2026-04-25T16:27:03.042Z</time></trkpt><trkpt lat="45.7617121" lon="11.7147052"><ele>110.6</ele><time>2026-04-25T16:27:05.041Z</time></trkpt><trkpt lat="45.7616227" lon="11.7147551"><ele>110.4</ele><time>2026-04-25T16:27:07.041Z</time></trkpt><trkpt lat="45.7615364" lon="11.7148126"><ele>110.2</ele><time>2026-04-25T16:27:09.041Z</time></trkpt><trkpt lat="45.7614438" lon="11.7148568"><ele>110.0</ele><time>2026-04-25T16:27:11.041Z</time></trkpt><trkpt lat="45.7613553" lon="11.7149113"><ele>110.0</ele><time>2026-04-25T16:27:13.041Z</time></trkpt><trkpt lat="45.7612574" lon="11.7149698"><ele>110.0</ele><time>2026-04-25T16:27:15.042Z</time></trkpt><trkpt lat="45.761165" lon="11.7150269"><ele>110.0</ele><time>2026-04-25T16:27:17.042Z</time></trkpt><trkpt lat="45.7610745" lon="11.7150734"><ele>110.0</ele><time>2026-04-25T16:27:19.041Z</time></trkpt><trkpt lat="45.7609912" lon="11.715117"><ele>110.0</ele><time>2026-04-25T16:27:21.041Z</time></trkpt><trkpt lat="45.76091" lon="11.7151538"><ele>109.99999999999999</ele><time>2026-04-25T16:27:23.041Z</time></trkpt><trkpt lat="45.7608286" lon="11.7151941"><ele>110.0</ele><time>2026-04-25T16:27:25.041Z</time></trkpt><trkpt lat="45.760719" lon="11.7152532"><ele>110.0</ele><time>2026-04-25T16:27:29.051Z</time></trkpt><trkpt lat="45.7606575" lon="11.7152937"><ele>110.0</ele><time>2026-04-25T16:27:30.059Z</time></trkpt><trkpt lat="45.7605764" lon="11.7153414"><ele>109.99999999999999</ele><time>2026-04-25T16:27:31.065Z</time></trkpt><trkpt lat="45.7605147" lon="11.7153748"><ele>110.0</ele><time>2026-04-25T16:27:33.078Z</time></trkpt><trkpt lat="45.760448" lon="11.7154072"><ele>109.99999999999999</ele><time>2026-04-25T16:27:35.091Z</time></trkpt><trkpt lat="45.7603716" lon="11.715447"><ele>110.0</ele><time>2026-04-25T16:27:37.121Z</time></trkpt><trkpt lat="45.7602964" lon="11.7154808"><ele>110.0</ele><time>2026-04-25T16:27:39.041Z</time></trkpt><trkpt lat="45.7602242" lon="11.7155192"><ele>110.0</ele><time>2026-04-25T16:27:41.047Z</time></trkpt><trkpt lat="45.7601531" lon="11.7155576"><ele>109.99999999999999</ele><time>2026-04-25T16:27:43.061Z</time></trkpt><trkpt lat="45.7600765" lon="11.7155986"><ele>110.0</ele><time>2026-04-25T16:27:44.995Z</time></trkpt><trkpt lat="45.7599894" lon="11.7156501"><ele>109.8</ele><time>2026-04-25T16:27:47.087Z</time></trkpt><trkpt lat="45.7598992" lon="11.7156928"><ele>109.6</ele><time>2026-04-25T16:27:49.043Z</time></trkpt><trkpt lat="45.7598091" lon="11.7157383"><ele>109.4</ele><time>2026-04-25T16:27:51.042Z</time></trkpt><trkpt lat="45.7597207" lon="11.7157963"><ele>109.2</ele><time>2026-04-25T16:27:53.042Z</time></trkpt><trkpt lat="45.7596265" lon="11.7158434"><ele>109.0</ele><time>2026-04-25T16:27:55.042Z</time></trkpt><trkpt lat="45.7595348" lon="11.71589"><ele>109.0</ele><time>2026-04-25T16:27:57.042Z</time></trkpt><trkpt lat="45.7594443" lon="11.71594"><ele>109.0</ele><time>2026-04-25T16:27:59.042Z</time></trkpt><trkpt lat="45.7593484" lon="11.7159968"><ele>109.0</ele><time>2026-04-25T16:28:01.042Z</time></trkpt><trkpt lat="45.7592516" lon="11.7160573"><ele>109.0</ele><time>2026-04-25T16:28:03.042Z</time></trkpt><trkpt lat="45.7591524" lon="11.7161082"><ele>109.0</ele><time>2026-04-25T16:28:05.042Z</time></trkpt><trkpt lat="45.7590582" lon="11.7161741"><ele>108.4</ele><time>2026-04-25T16:28:07.042Z</time></trkpt><trkpt lat="45.7589605" lon="11.7162333"><ele>107.80000000000001</ele><time>2026-04-25T16:28:09.042Z</time></trkpt><trkpt lat="45.758867" lon="11.7162952"><ele>107.19999999999999</ele><time>2026-04-25T16:28:11.042Z</time></trkpt><trkpt lat="45.7587699" lon="11.7163629"><ele>106.6</ele><time>2026-04-25T16:28:13.042Z</time></trkpt><trkpt lat="45.7586743" lon="11.7164275"><ele>106.0</ele><time>2026-04-25T16:28:15.042Z</time></trkpt><trkpt lat="45.7585895" lon="11.7164923"><ele>105.66666666666667</ele><time>2026-04-25T16:28:17.042Z</time></trkpt><trkpt lat="45.7585039" lon="11.7165541"><ele>105.33333333333334</ele><time>2026-04-25T16:28:19.042Z</time></trkpt><trkpt lat="45.7584167" lon="11.7166206"><ele>105.0</ele><time>2026-04-25T16:28:21.042Z</time></trkpt><trkpt lat="45.7583331" lon="11.7166909"><ele>104.66666666666666</ele><time>2026-04-25T16:28:23.042Z</time></trkpt><trkpt lat="45.7582625" lon="11.7167451"><ele>104.33333333333333</ele><time>2026-04-25T16:28:25.042Z</time></trkpt><trkpt lat="45.7581992" lon="11.716797"><ele>104.0</ele><time>2026-04-25T16:28:27.042Z</time></trkpt><trkpt lat="45.7581313" lon="11.716856"><ele>103.80000000000001</ele><time>2026-04-25T16:28:29.042Z</time></trkpt><trkpt lat="45.7580587" lon="11.7169126"><ele>103.60000000000001</ele><time>2026-04-25T16:28:31.042Z</time></trkpt><trkpt lat="45.7579725" lon="11.7169735"><ele>103.4</ele><time>2026-04-25T16:28:33.043Z</time></trkpt><trkpt lat="45.7578907" lon="11.7170286"><ele>103.2</ele><time>2026-04-25T16:28:35.042Z</time></trkpt><trkpt lat="45.7578124" lon="11.7170931"><ele>103.0</ele><time>2026-04-25T16:28:37.042Z</time></trkpt><trkpt lat="45.7577255" lon="11.7171531"><ele>102.60000000000001</ele><time>2026-04-25T16:28:39.042Z</time></trkpt><trkpt lat="45.7576443" lon="11.7172094"><ele>102.2</ele><time>2026-04-25T16:28:41.042Z</time></trkpt><trkpt lat="45.7575572" lon="11.7172738"><ele>101.8</ele><time>2026-04-25T16:28:43.042Z</time></trkpt><trkpt lat="45.7574754" lon="11.7173389"><ele>101.4</ele><time>2026-04-25T16:28:45.042Z</time></trkpt><trkpt lat="45.7573926" lon="11.7174053"><ele>101.0</ele><time>2026-04-25T16:28:47.043Z</time></trkpt><trkpt lat="45.7573071" lon="11.7174676"><ele>100.99999999999999</ele><time>2026-04-25T16:28:49.044Z</time></trkpt><trkpt lat="45.7572368" lon="11.7175228"><ele>101.0</ele><time>2026-04-25T16:28:51.044Z</time></trkpt><trkpt lat="45.7571613" lon="11.7175792"><ele>101.0</ele><time>2026-04-25T16:28:53.043Z</time></trkpt><trkpt lat="45.7570896" lon="11.7176371"><ele>101.0</ele><time>2026-04-25T16:28:55.043Z</time></trkpt><trkpt lat="45.7570217" lon="11.7177004"><ele>100.99999999999999</ele><time>2026-04-25T16:28:57.043Z</time></trkpt><trkpt lat="45.7569431" lon="11.717758"><ele>101.0</ele><time>2026-04-25T16:28:59.044Z</time></trkpt><trkpt lat="45.7568689" lon="11.717814"><ele>101.49999999999999</ele><time>2026-04-25T16:29:01.043Z</time></trkpt><trkpt lat="45.7567923" lon="11.7178667"><ele>102.0</ele><time>2026-04-25T16:29:03.043Z</time></trkpt><trkpt lat="45.7567247" lon="11.717917"><ele>102.5</ele><time>2026-04-25T16:29:05.043Z</time></trkpt><trkpt lat="45.75666" lon="11.7179659"><ele>103.0</ele><time>2026-04-25T16:29:07.043Z</time></trkpt><trkpt lat="45.7565912" lon="11.7180139"><ele>103.49999999999999</ele><time>2026-04-25T16:29:09.044Z</time></trkpt><trkpt lat="45.7565243" lon="11.7180592"><ele>104.0</ele><time>2026-04-25T16:29:11.043Z</time></trkpt><trkpt lat="45.7564574" lon="11.7181031"><ele>103.99999999999999</ele><time>2026-04-25T16:29:13.043Z</time></trkpt><trkpt lat="45.75639" lon="11.7181556"><ele>104.0</ele><time>2026-04-25T16:29:15.044Z</time></trkpt><trkpt lat="45.7563165" lon="11.7182039"><ele>104.0</ele><time>2026-04-25T16:29:17.043Z</time></trkpt><trkpt lat="45.7562521" lon="11.7182551"><ele>104.0</ele><time>2026-04-25T16:29:19.043Z</time></trkpt><trkpt lat="45.7561829" lon="11.7183046"><ele>103.99999999999999</ele><time>2026-04-25T16:29:21.043Z</time></trkpt><trkpt lat="45.756116" lon="11.7183501"><ele>104.0</ele><time>2026-04-25T16:29:23.043Z</time></trkpt><trkpt lat="45.7560434" lon="11.7183928"><ele>104.16666666666666</ele><time>2026-04-25T16:29:25.043Z</time></trkpt><trkpt lat="45.7559689" lon="11.7184479"><ele>104.33333333333333</ele><time>2026-04-25T16:29:27.043Z</time></trkpt><trkpt lat="45.7558899" lon="11.7184983"><ele>104.5</ele><time>2026-04-25T16:29:29.043Z</time></trkpt><trkpt lat="45.7558126" lon="11.7185499"><ele>104.66666666666666</ele><time>2026-04-25T16:29:31.044Z</time></trkpt><trkpt lat="45.7557314" lon="11.7186087"><ele>104.83333333333333</ele><time>2026-04-25T16:29:33.043Z</time></trkpt><trkpt lat="45.7556476" lon="11.7186645"><ele>105.0</ele><time>2026-04-25T16:29:35.044Z</time></trkpt><trkpt lat="45.7555595" lon="11.7187109"><ele>105.0</ele><time>2026-04-25T16:29:37.043Z</time></trkpt><trkpt lat="45.755485" lon="11.7187462"><ele>105.0</ele><time>2026-04-25T16:29:39.043Z</time></trkpt><trkpt lat="45.7553973" lon="11.7188059"><ele>105.0</ele><time>2026-04-25T16:29:41.044Z</time></trkpt><trkpt lat="45.7552965" lon="11.7188733"><ele>105.0</ele><time>2026-04-25T16:29:43.043Z</time></trkpt><trkpt lat="45.7552046" lon="11.7189244"><ele>105.0</ele><time>2026-04-25T16:29:45.044Z</time></trkpt><trkpt lat="45.7551247" lon="11.7189737"><ele>104.4</ele><time>2026-04-25T16:29:47.044Z</time></trkpt><trkpt lat="45.7550476" lon="11.7190296"><ele>103.8</ele><time>2026-04-25T16:29:49.044Z</time></trkpt><trkpt lat="45.7549609" lon="11.7190378"><ele>103.19999999999999</ele><time>2026-04-25T16:29:51.045Z</time></trkpt><trkpt lat="45.7548889" lon="11.719086"><ele>102.6</ele><time>2026-04-25T16:29:53.044Z</time></trkpt><trkpt lat="45.7548137" lon="11.719181"><ele>102.0</ele><time>2026-04-25T16:29:55.044Z</time></trkpt><trkpt lat="45.7547169" lon="11.7192301"><ele>102.0</ele><time>2026-04-25T16:29:57.044Z</time></trkpt><trkpt lat="45.7546188" lon="11.7192781"><ele>102.0</ele><time>2026-04-25T16:29:59.045Z</time></trkpt><trkpt lat="45.754527" lon="11.7193368"><ele>102.0</ele><time>2026-04-25T16:30:01.045Z</time></trkpt><trkpt lat="45.7544291" lon="11.719393"><ele>102.0</ele><time>2026-04-25T16:30:03.045Z</time></trkpt><trkpt lat="45.7543362" lon="11.7194549"><ele>102.0</ele><time>2026-04-25T16:30:05.044Z</time></trkpt><trkpt lat="45.7542452" lon="11.7195145"><ele>101.66666666666667</ele><time>2026-04-25T16:30:07.045Z</time></trkpt><trkpt lat="45.7541547" lon="11.719565"><ele>101.33333333333334</ele><time>2026-04-25T16:30:09.044Z</time></trkpt><trkpt lat="45.7540684" lon="11.7196162"><ele>101.0</ele><time>2026-04-25T16:30:11.044Z</time></trkpt><trkpt lat="45.7539945" lon="11.7196612"><ele>100.66666666666667</ele><time>2026-04-25T16:30:13.044Z</time></trkpt><trkpt lat="45.7539149" lon="11.7197108"><ele>100.33333333333334</ele><time>2026-04-25T16:30:15.044Z</time></trkpt><trkpt lat="45.7538339" lon="11.7197621"><ele>100.0</ele><time>2026-04-25T16:30:17.044Z</time></trkpt><trkpt lat="45.7537528" lon="11.7198464"><ele>100.0</ele><time>2026-04-25T16:30:19.044Z</time></trkpt><trkpt lat="45.7536709" lon="11.7199299"><ele>100.0</ele><time>2026-04-25T16:30:21.044Z</time></trkpt><trkpt lat="45.7535983" lon="11.7200102"><ele>100.0</ele><time>2026-04-25T16:30:23.044Z</time></trkpt><trkpt lat="45.7535378" lon="11.7200893"><ele>100.0</ele><time>2026-04-25T16:30:25.044Z</time></trkpt><trkpt lat="45.7534682" lon="11.7201805"><ele>100.0</ele><time>2026-04-25T16:30:27.044Z</time></trkpt><trkpt lat="45.7534005" lon="11.720272"><ele>99.8</ele><time>2026-04-25T16:30:29.044Z</time></trkpt><trkpt lat="45.7533453" lon="11.7203598"><ele>99.6</ele><time>2026-04-25T16:30:31.044Z</time></trkpt><trkpt lat="45.7532898" lon="11.7204695"><ele>99.4</ele><time>2026-04-25T16:30:33.044Z</time></trkpt><trkpt lat="45.7532262" lon="11.7205841"><ele>99.2</ele><time>2026-04-25T16:30:35.044Z</time></trkpt><trkpt lat="45.7531755" lon="11.7206996"><ele>99.0</ele><time>2026-04-25T16:30:37.044Z</time></trkpt><trkpt lat="45.753128" lon="11.7208083"><ele>99.0</ele><time>2026-04-25T16:30:39.044Z</time></trkpt><trkpt lat="45.7530793" lon="11.7209161"><ele>99.0</ele><time>2026-04-25T16:30:41.045Z</time></trkpt><trkpt lat="45.7530375" lon="11.7210289"><ele>99.0</ele><time>2026-04-25T16:30:43.044Z</time></trkpt><trkpt lat="45.7529974" lon="11.7211473"><ele>99.0</ele><time>2026-04-25T16:30:45.044Z</time></trkpt><trkpt lat="45.752951" lon="11.7212681"><ele>99.0</ele><time>2026-04-25T16:30:47.045Z</time></trkpt><trkpt lat="45.7528971" lon="11.7213753"><ele>99.33333333333333</ele><time>2026-04-25T16:30:49.045Z</time></trkpt><trkpt lat="45.752827" lon="11.7214406"><ele>99.66666666666666</ele><time>2026-04-25T16:30:51.045Z</time></trkpt><trkpt lat="45.7527495" lon="11.7214921"><ele>100.0</ele><time>2026-04-25T16:30:53.045Z</time></trkpt><trkpt lat="45.7526949" lon="11.721591"><ele>100.33333333333333</ele><time>2026-04-25T16:30:55.045Z</time></trkpt><trkpt lat="45.7526357" lon="11.7216982"><ele>100.66666666666666</ele><time>2026-04-25T16:30:57.045Z</time></trkpt><trkpt lat="45.7525632" lon="11.7217808"><ele>101.0</ele><time>2026-04-25T16:30:59.046Z</time></trkpt><trkpt lat="45.7524751" lon="11.7218513"><ele>101.4</ele><time>2026-04-25T16:31:01.045Z</time></trkpt><trkpt lat="45.7523836" lon="11.7219381"><ele>101.8</ele><time>2026-04-25T16:31:03.046Z</time></trkpt><trkpt lat="45.7522926" lon="11.7220146"><ele>102.2</ele><time>2026-04-25T16:31:05.045Z</time></trkpt><trkpt lat="45.7522272" lon="11.7220832"><ele>102.60000000000001</ele><time>2026-04-25T16:31:07.045Z</time></trkpt><trkpt lat="45.7521599" lon="11.7221543"><ele>103.0</ele><time>2026-04-25T16:31:09.045Z</time></trkpt><trkpt lat="45.7520887" lon="11.7222378"><ele>103.0</ele><time>2026-04-25T16:31:11.045Z</time></trkpt><trkpt lat="45.7520161" lon="11.7223167"><ele>103.0</ele><time>2026-04-25T16:31:13.045Z</time></trkpt><trkpt lat="45.7519425" lon="11.7223852"><ele>103.0</ele><time>2026-04-25T16:31:15.045Z</time></trkpt><trkpt lat="45.7518555" lon="11.7224456"><ele>103.0</ele><time>2026-04-25T16:31:17.045Z</time></trkpt><trkpt lat="45.751771" lon="11.7225119"><ele>103.0</ele><time>2026-04-25T16:31:19.045Z</time></trkpt><trkpt lat="45.7516976" lon="11.7225967"><ele>102.83333333333334</ele><time>2026-04-25T16:31:21.045Z</time></trkpt><trkpt lat="45.7516229" lon="11.7226592"><ele>102.66666666666667</ele><time>2026-04-25T16:31:23.045Z</time></trkpt><trkpt lat="45.7515613" lon="11.7227205"><ele>102.5</ele><time>2026-04-25T16:31:25.045Z</time></trkpt><trkpt lat="45.7514964" lon="11.7227978"><ele>102.33333333333334</ele><time>2026-04-25T16:31:28.045Z</time></trkpt><trkpt lat="45.7514235" lon="11.7228801"><ele>102.16666666666667</ele><time>2026-04-25T16:31:31.045Z</time></trkpt><trkpt lat="45.7513642" lon="11.7229546"><ele>102.0</ele><time>2026-04-25T16:31:33.045Z</time></trkpt><trkpt lat="45.7512966" lon="11.7230265"><ele>101.66666666666667</ele><time>2026-04-25T16:31:35.046Z</time></trkpt><trkpt lat="45.7512379" lon="11.7231168"><ele>101.33333333333334</ele><time>2026-04-25T16:31:37.045Z</time></trkpt><trkpt lat="45.7511943" lon="11.7232028"><ele>101.0</ele><time>2026-04-25T16:31:39.045Z</time></trkpt><trkpt lat="45.7511612" lon="11.7233115"><ele>100.66666666666667</ele><time>2026-04-25T16:31:41.045Z</time></trkpt><trkpt lat="45.7511412" lon="11.7234354"><ele>100.33333333333334</ele><time>2026-04-25T16:31:43.046Z</time></trkpt><trkpt lat="45.751118" lon="11.7235425"><ele>100.0</ele><time>2026-04-25T16:31:45.046Z</time></trkpt><trkpt lat="45.7510881" lon="11.7236451"><ele>100.33333333333334</ele><time>2026-04-25T16:31:47.045Z</time></trkpt><trkpt lat="45.7510619" lon="11.7237442"><ele>100.66666666666667</ele><time>2026-04-25T16:31:49.046Z</time></trkpt><trkpt lat="45.7510343" lon="11.7238443"><ele>101.0</ele><time>2026-04-25T16:31:51.046Z</time></trkpt><trkpt lat="45.7509869" lon="11.7239291"><ele>101.33333333333334</ele><time>2026-04-25T16:31:53.046Z</time></trkpt><trkpt lat="45.7509145" lon="11.7239856"><ele>101.66666666666667</ele><time>2026-04-25T16:31:55.047Z</time></trkpt><trkpt lat="45.7508465" lon="11.7240505"><ele>102.0</ele><time>2026-04-25T16:31:57.046Z</time></trkpt><trkpt lat="45.7507886" lon="11.7241219"><ele>102.0</ele><time>2026-04-25T16:31:59.047Z</time></trkpt><trkpt lat="45.7507322" lon="11.7241821"><ele>102.0</ele><time>2026-04-25T16:32:01.046Z</time></trkpt><trkpt lat="45.7506755" lon="11.72424"><ele>102.0</ele><time>2026-04-25T16:32:03.046Z</time></trkpt><trkpt lat="45.7506124" lon="11.7242783"><ele>102.0</ele><time>2026-04-25T16:32:05.046Z</time></trkpt><trkpt lat="45.7505408" lon="11.724314"><ele>102.0</ele><time>2026-04-25T16:32:07.046Z</time></trkpt><trkpt lat="45.7504591" lon="11.7243247"><ele>102.0</ele><time>2026-04-25T16:32:09.046Z</time></trkpt><trkpt lat="45.7503696" lon="11.7242802"><ele>102.0</ele><time>2026-04-25T16:32:11.047Z</time></trkpt><trkpt lat="45.7503029" lon="11.7242357"><ele>102.0</ele><time>2026-04-25T16:32:13.046Z</time></trkpt><trkpt lat="45.7502347" lon="11.7241896"><ele>102.0</ele><time>2026-04-25T16:32:15.047Z</time></trkpt><trkpt lat="45.7501534" lon="11.7242174"><ele>102.0</ele><time>2026-04-25T16:32:18.046Z</time></trkpt><trkpt lat="45.750082" lon="11.7241718"><ele>102.0</ele><time>2026-04-25T16:32:20.046Z</time></trkpt><trkpt lat="45.7499908" lon="11.7241215"><ele>102.0</ele><time>2026-04-25T16:32:22.046Z</time></trkpt><trkpt lat="45.7499049" lon="11.724081"><ele>102.39999999999999</ele><time>2026-04-25T16:32:24.046Z</time></trkpt><trkpt lat="45.7498179" lon="11.7240413"><ele>102.8</ele><time>2026-04-25T16:32:26.046Z</time></trkpt><trkpt lat="45.7497305" lon="11.7239979"><ele>103.2</ele><time>2026-04-25T16:32:28.046Z</time></trkpt><trkpt lat="45.7496456" lon="11.7239446"><ele>103.6</ele><time>2026-04-25T16:32:30.046Z</time></trkpt><trkpt lat="45.7495597" lon="11.7238933"><ele>104.0</ele><time>2026-04-25T16:32:32.046Z</time></trkpt><trkpt lat="45.7494775" lon="11.7238477"><ele>103.99999999999999</ele><time>2026-04-25T16:32:34.047Z</time></trkpt><trkpt lat="45.7493969" lon="11.7238062"><ele>104.0</ele><time>2026-04-25T16:32:36.047Z</time></trkpt><trkpt lat="45.749316" lon="11.7237721"><ele>104.0</ele><time>2026-04-25T16:32:38.046Z</time></trkpt><trkpt lat="45.7492416" lon="11.7237383"><ele>104.0</ele><time>2026-04-25T16:32:40.046Z</time></trkpt><trkpt lat="45.7491688" lon="11.7237092"><ele>103.99999999999999</ele><time>2026-04-25T16:32:42.046Z</time></trkpt><trkpt lat="45.7490923" lon="11.7236794"><ele>104.0</ele><time>2026-04-25T16:32:44.046Z</time></trkpt><trkpt lat="45.7490195" lon="11.7236595"><ele>104.0</ele><time>2026-04-25T16:32:46.046Z</time></trkpt><trkpt lat="45.7489484" lon="11.7236428"><ele>104.0</ele><time>2026-04-25T16:32:48.047Z</time></trkpt><trkpt lat="45.748861" lon="11.7236093"><ele>104.0</ele><time>2026-04-25T16:32:50.046Z</time></trkpt><trkpt lat="45.7487582" lon="11.7235648"><ele>104.0</ele><time>2026-04-25T16:32:52.047Z</time></trkpt><trkpt lat="45.7486599" lon="11.7235253"><ele>104.0</ele><time>2026-04-25T16:32:54.047Z</time></trkpt><trkpt lat="45.7485677" lon="11.7234785"><ele>104.0</ele><time>2026-04-25T16:32:56.047Z</time></trkpt><trkpt lat="45.7484793" lon="11.7234378"><ele>104.0</ele><time>2026-04-25T16:32:58.047Z</time></trkpt><trkpt lat="45.7484159" lon="11.7235016"><ele>104.0</ele><time>2026-04-25T16:33:00.047Z</time></trkpt><trkpt lat="45.7483788" lon="11.7236361"><ele>104.0</ele><time>2026-04-25T16:33:02.047Z</time></trkpt><trkpt lat="45.7483461" lon="11.7238099"><ele>104.0</ele><time>2026-04-25T16:33:04.047Z</time></trkpt><trkpt lat="45.7483213" lon="11.7239053"><ele>104.0</ele><time>2026-04-25T16:33:05.048Z</time></trkpt><trkpt lat="45.7482903" lon="11.7240605"><ele>104.0</ele><time>2026-04-25T16:33:07.048Z</time></trkpt><trkpt lat="45.7482643" lon="11.7241962"><ele>104.0</ele><time>2026-04-25T16:33:09.047Z</time></trkpt><trkpt lat="45.7482357" lon="11.7243131"><ele>104.0</ele><time>2026-04-25T16:33:11.047Z</time></trkpt><trkpt lat="45.7482063" lon="11.7244172"><ele>104.0</ele><time>2026-04-25T16:33:13.047Z</time></trkpt><trkpt lat="45.7481794" lon="11.7245228"><ele>104.49999999999999</ele><time>2026-04-25T16:33:15.047Z</time></trkpt><trkpt lat="45.7481518" lon="11.7246322"><ele>105.0</ele><time>2026-04-25T16:33:17.047Z</time></trkpt><trkpt lat="45.7481313" lon="11.7247494"><ele>105.5</ele><time>2026-04-25T16:33:19.047Z</time></trkpt><trkpt lat="45.7481135" lon="11.7248659"><ele>106.0</ele><time>2026-04-25T16:33:21.048Z</time></trkpt><trkpt lat="45.7480908" lon="11.7249745"><ele>106.49999999999999</ele><time>2026-04-25T16:33:23.047Z</time></trkpt><trkpt lat="45.748065" lon="11.7250756"><ele>107.0</ele><time>2026-04-25T16:33:25.047Z</time></trkpt><trkpt lat="45.7480412" lon="11.7251811"><ele>107.16666666666666</ele><time>2026-04-25T16:33:27.047Z</time></trkpt><trkpt lat="45.7480187" lon="11.7252859"><ele>107.33333333333333</ele><time>2026-04-25T16:33:29.047Z</time></trkpt><trkpt lat="45.7479939" lon="11.7253874"><ele>107.5</ele><time>2026-04-25T16:33:31.047Z</time></trkpt><trkpt lat="45.7479671" lon="11.7254916"><ele>107.66666666666666</ele><time>2026-04-25T16:33:33.047Z</time></trkpt><trkpt lat="45.7479409" lon="11.7256087"><ele>107.83333333333333</ele><time>2026-04-25T16:33:35.047Z</time></trkpt><trkpt lat="45.7479121" lon="11.725727"><ele>108.0</ele><time>2026-04-25T16:33:37.047Z</time></trkpt><trkpt lat="45.7478874" lon="11.7258372"><ele>108.0</ele><time>2026-04-25T16:33:39.048Z</time></trkpt><trkpt lat="45.7478647" lon="11.7259448"><ele>108.0</ele><time>2026-04-25T16:33:41.048Z</time></trkpt><trkpt lat="45.7478386" lon="11.726053"><ele>108.0</ele><time>2026-04-25T16:33:43.047Z</time></trkpt><trkpt lat="45.7478161" lon="11.7261602"><ele>108.0</ele><time>2026-04-25T16:33:45.047Z</time></trkpt><trkpt lat="45.7477934" lon="11.7262739"><ele>108.0</ele><time>2026-04-25T16:33:47.047Z</time></trkpt><trkpt lat="45.7477655" lon="11.7263845"><ele>108.0</ele><time>2026-04-25T16:33:49.047Z</time></trkpt><trkpt lat="45.7477354" lon="11.7264996"><ele>107.4</ele><time>2026-04-25T16:33:51.048Z</time></trkpt><trkpt lat="45.7476939" lon="11.7266112"><ele>106.80000000000001</ele><time>2026-04-25T16:33:53.049Z</time></trkpt><trkpt lat="45.7476218" lon="11.7266926"><ele>106.2</ele><time>2026-04-25T16:33:55.049Z</time></trkpt><trkpt lat="45.7475493" lon="11.7267701"><ele>105.6</ele><time>2026-04-25T16:33:57.048Z</time></trkpt><trkpt lat="45.747466" lon="11.7268268"><ele>105.0</ele><time>2026-04-25T16:33:59.048Z</time></trkpt><trkpt lat="45.7473826" lon="11.726904"><ele>105.0</ele><time>2026-04-25T16:34:01.048Z</time></trkpt><trkpt lat="45.7473085" lon="11.7269517"><ele>105.0</ele><time>2026-04-25T16:34:03.048Z</time></trkpt><trkpt lat="45.7472286" lon="11.727012"><ele>105.0</ele><time>2026-04-25T16:34:05.048Z</time></trkpt><trkpt lat="45.7471351" lon="11.7270829"><ele>105.0</ele><time>2026-04-25T16:34:07.048Z</time></trkpt><trkpt lat="45.7470619" lon="11.7271431"><ele>105.0</ele><time>2026-04-25T16:34:09.048Z</time></trkpt><trkpt lat="45.7469842" lon="11.7272032"><ele>105.0</ele><time>2026-04-25T16:34:11.048Z</time></trkpt><trkpt lat="45.7469037" lon="11.7272592"><ele>105.0</ele><time>2026-04-25T16:34:13.048Z</time></trkpt><trkpt lat="45.7468238" lon="11.7273197"><ele>105.0</ele><time>2026-04-25T16:34:15.048Z</time></trkpt><trkpt lat="45.746741" lon="11.7273766"><ele>105.0</ele><time>2026-04-25T16:34:17.049Z</time></trkpt><trkpt lat="45.7466585" lon="11.7274414"><ele>105.0</ele><time>2026-04-25T16:34:19.048Z</time></trkpt><trkpt lat="45.7465739" lon="11.7275057"><ele>105.0</ele><time>2026-04-25T16:34:21.048Z</time></trkpt><trkpt lat="45.7464954" lon="11.7275598"><ele>105.0</ele><time>2026-04-25T16:34:23.048Z</time></trkpt><trkpt lat="45.7464163" lon="11.7276149"><ele>105.0</ele><time>2026-04-25T16:34:25.048Z</time></trkpt><trkpt lat="45.7463429" lon="11.7276717"><ele>105.0</ele><time>2026-04-25T16:34:27.049Z</time></trkpt><trkpt lat="45.7462676" lon="11.7277317"><ele>105.0</ele><time>2026-04-25T16:34:29.048Z</time></trkpt><trkpt lat="45.7461932" lon="11.7277945"><ele>105.0</ele><time>2026-04-25T16:34:31.048Z</time></trkpt><trkpt lat="45.7461141" lon="11.7278661"><ele>104.6</ele><time>2026-04-25T16:34:33.048Z</time></trkpt><trkpt lat="45.7460333" lon="11.7279327"><ele>104.2</ele><time>2026-04-25T16:34:35.049Z</time></trkpt><trkpt lat="45.7459487" lon="11.7279994"><ele>103.80000000000001</ele><time>2026-04-25T16:34:37.048Z</time></trkpt><trkpt lat="45.7458694" lon="11.7280776"><ele>103.4</ele><time>2026-04-25T16:34:39.048Z</time></trkpt><trkpt lat="45.7458053" lon="11.7281522"><ele>103.0</ele><time>2026-04-25T16:34:41.123Z</time></trkpt><trkpt lat="45.7456767" lon="11.7282798"><ele>103.0</ele><time>2026-04-25T16:34:46.055Z</time></trkpt><trkpt lat="45.7455982" lon="11.7283478"><ele>103.0</ele><time>2026-04-25T16:34:48.069Z</time></trkpt><trkpt lat="45.7455218" lon="11.728419"><ele>103.0</ele><time>2026-04-25T16:34:50.083Z</time></trkpt><trkpt lat="45.7454411" lon="11.7284936"><ele>103.0</ele><time>2026-04-25T16:34:52.095Z</time></trkpt><trkpt lat="45.7453565" lon="11.7285729"><ele>103.0</ele><time>2026-04-25T16:34:54.049Z</time></trkpt><trkpt lat="45.7452671" lon="11.7286537"><ele>103.4</ele><time>2026-04-25T16:34:56.049Z</time></trkpt><trkpt lat="45.7451864" lon="11.7287337"><ele>103.80000000000001</ele><time>2026-04-25T16:34:58.05Z</time></trkpt><trkpt lat="45.745105" lon="11.7288142"><ele>104.2</ele><time>2026-04-25T16:35:00.049Z</time></trkpt><trkpt lat="45.7450132" lon="11.7289065"><ele>104.6</ele><time>2026-04-25T16:35:02.049Z</time></trkpt><trkpt lat="45.7449264" lon="11.7289866"><ele>105.0</ele><time>2026-04-25T16:35:04.049Z</time></trkpt><trkpt lat="45.744847" lon="11.729065"><ele>105.0</ele><time>2026-04-25T16:35:06.049Z</time></trkpt><trkpt lat="45.7447596" lon="11.7291445"><ele>105.0</ele><time>2026-04-25T16:35:08.049Z</time></trkpt><trkpt lat="45.744681" lon="11.7292254"><ele>105.0</ele><time>2026-04-25T16:35:10.049Z</time></trkpt><trkpt lat="45.7446057" lon="11.7292964"><ele>105.0</ele><time>2026-04-25T16:35:12.049Z</time></trkpt><trkpt lat="45.7445266" lon="11.7293642"><ele>105.0</ele><time>2026-04-25T16:35:14.049Z</time></trkpt><trkpt lat="45.744463" lon="11.7294232"><ele>104.83333333333333</ele><time>2026-04-25T16:35:16.049Z</time></trkpt><trkpt lat="45.7444065" lon="11.7294721"><ele>104.66666666666666</ele><time>2026-04-25T16:35:18.049Z</time></trkpt><trkpt lat="45.7443257" lon="11.7295242"><ele>104.5</ele><time>2026-04-25T16:35:20.049Z</time></trkpt><trkpt lat="45.7442578" lon="11.7295842"><ele>104.33333333333333</ele><time>2026-04-25T16:35:22.049Z</time></trkpt><trkpt lat="45.7441917" lon="11.7296424"><ele>104.16666666666666</ele><time>2026-04-25T16:35:24.049Z</time></trkpt><trkpt lat="45.7441074" lon="11.7296932"><ele>104.0</ele><time>2026-04-25T16:35:26.049Z</time></trkpt><trkpt lat="45.7440347" lon="11.7296939"><ele>103.66666666666666</ele><time>2026-04-25T16:35:28.049Z</time></trkpt><trkpt lat="45.7439513" lon="11.7296952"><ele>103.33333333333333</ele><time>2026-04-25T16:35:30.049Z</time></trkpt><trkpt lat="45.743889" lon="11.7297821"><ele>103.0</ele><time>2026-04-25T16:35:32.049Z</time></trkpt><trkpt lat="45.7438486" lon="11.729854"><ele>102.66666666666666</ele><time>2026-04-25T16:35:34.049Z</time></trkpt><trkpt lat="45.7437552" lon="11.7298917"><ele>102.33333333333333</ele><time>2026-04-25T16:35:37.049Z</time></trkpt><trkpt lat="45.7436871" lon="11.7299247"><ele>102.0</ele><time>2026-04-25T16:35:39.049Z</time></trkpt><trkpt lat="45.7436267" lon="11.7299643"><ele>101.83333333333333</ele><time>2026-04-25T16:35:41.049Z</time></trkpt><trkpt lat="45.7435414" lon="11.7299633"><ele>101.66666666666666</ele><time>2026-04-25T16:35:44.05Z</time></trkpt><trkpt lat="45.7434764" lon="11.7299103"><ele>101.5</ele><time>2026-04-25T16:35:46.049Z</time></trkpt><trkpt lat="45.7434271" lon="11.7298539"><ele>101.33333333333333</ele><time>2026-04-25T16:35:48.049Z</time></trkpt><trkpt lat="45.74337" lon="11.7297447"><ele>101.16666666666666</ele><time>2026-04-25T16:35:51.05Z</time></trkpt><trkpt lat="45.7433417" lon="11.7296533"><ele>101.0</ele><time>2026-04-25T16:35:53.05Z</time></trkpt><trkpt lat="45.7432923" lon="11.7295752"><ele>101.0</ele><time>2026-04-25T16:35:55.05Z</time></trkpt><trkpt lat="45.7432492" lon="11.7294937"><ele>101.0</ele><time>2026-04-25T16:35:57.05Z</time></trkpt><trkpt lat="45.7432378" lon="11.7293875"><ele>101.0</ele><time>2026-04-25T16:35:59.05Z</time></trkpt><trkpt lat="45.7432124" lon="11.7292974"><ele>101.0</ele><time>2026-04-25T16:36:01.05Z</time></trkpt><trkpt lat="45.7431474" lon="11.7293194"><ele>101.0</ele><time>2026-04-25T16:36:03.05Z</time></trkpt><trkpt lat="45.7431275" lon="11.7294105"><ele>101.0</ele><time>2026-04-25T16:36:05.051Z</time></trkpt><trkpt lat="45.7431444" lon="11.7295169"><ele>101.0</ele><time>2026-04-25T16:36:07.05Z</time></trkpt><trkpt lat="45.743179" lon="11.7296128"><ele>101.0</ele><time>2026-04-25T16:36:09.051Z</time></trkpt><trkpt lat="45.7431541" lon="11.7297222"><ele>101.0</ele><time>2026-04-25T16:36:12.05Z</time></trkpt><trkpt lat="45.743095" lon="11.7297541"><ele>101.0</ele><time>2026-04-25T16:36:14.05Z</time></trkpt><trkpt lat="45.7430588" lon="11.7298387"><ele>101.0</ele><time>2026-04-25T16:36:16.05Z</time></trkpt><trkpt lat="45.7430138" lon="11.7299103"><ele>101.0</ele><time>2026-04-25T16:36:18.05Z</time></trkpt><trkpt lat="45.7429433" lon="11.7299513"><ele>101.0</ele><time>2026-04-25T16:36:20.05Z</time></trkpt><trkpt lat="45.742859" lon="11.7299788"><ele>101.0</ele><time>2026-04-25T16:36:22.05Z</time></trkpt><trkpt lat="45.7427783" lon="11.7299822"><ele>100.99999999999999</ele><time>2026-04-25T16:36:24.051Z</time></trkpt><trkpt lat="45.7426958" lon="11.7299898"><ele>101.0</ele><time>2026-04-25T16:36:26.05Z</time></trkpt><trkpt lat="45.7426106" lon="11.7299979"><ele>101.0</ele><time>2026-04-25T16:36:28.05Z</time></trkpt><trkpt lat="45.7425264" lon="11.7300143"><ele>101.0</ele><time>2026-04-25T16:36:30.05Z</time></trkpt><trkpt lat="45.7424397" lon="11.7300383"><ele>100.99999999999999</ele><time>2026-04-25T16:36:32.05Z</time></trkpt><trkpt lat="45.7423637" lon="11.7300698"><ele>101.0</ele><time>2026-04-25T16:36:34.05Z</time></trkpt><trkpt lat="45.742293" lon="11.7300989"><ele>100.99999999999999</ele><time>2026-04-25T16:36:36.051Z</time></trkpt><trkpt lat="45.7422234" lon="11.7301225"><ele>101.0</ele><time>2026-04-25T16:36:38.05Z</time></trkpt><trkpt lat="45.7421573" lon="11.7301463"><ele>101.0</ele><time>2026-04-25T16:36:40.05Z</time></trkpt><trkpt lat="45.7420691" lon="11.7301735"><ele>101.0</ele><time>2026-04-25T16:36:43.05Z</time></trkpt><trkpt lat="45.7420052" lon="11.7301847"><ele>100.99999999999999</ele><time>2026-04-25T16:36:45.051Z</time></trkpt><trkpt lat="45.7419249" lon="11.7301906"><ele>101.0</ele><time>2026-04-25T16:36:48.051Z</time></trkpt><trkpt lat="45.7418376" lon="11.7301597"><ele>100.83333333333333</ele><time>2026-04-25T16:36:51.051Z</time></trkpt><trkpt lat="45.7417733" lon="11.7301549"><ele>100.66666666666666</ele><time>2026-04-25T16:36:53.051Z</time></trkpt><trkpt lat="45.7416993" lon="11.7301508"><ele>100.5</ele><time>2026-04-25T16:36:55.051Z</time></trkpt><trkpt lat="45.7416206" lon="11.7301357"><ele>100.33333333333334</ele><time>2026-04-25T16:36:57.051Z</time></trkpt><trkpt lat="45.7415304" lon="11.7301283"><ele>100.16666666666667</ele><time>2026-04-25T16:36:59.052Z</time></trkpt><trkpt lat="45.7414371" lon="11.7301259"><ele>100.0</ele><time>2026-04-25T16:37:01.051Z</time></trkpt><trkpt lat="45.7413567" lon="11.7301098"><ele>100.00000000000001</ele><time>2026-04-25T16:37:03.051Z</time></trkpt><trkpt lat="45.7412899" lon="11.730029"><ele>100.0</ele><time>2026-04-25T16:37:05.051Z</time></trkpt><trkpt lat="45.7412684" lon="11.7299141"><ele>100.0</ele><time>2026-04-25T16:37:07.051Z</time></trkpt><trkpt lat="45.7412199" lon="11.7298249"><ele>100.0</ele><time>2026-04-25T16:37:10.051Z</time></trkpt><trkpt lat="45.7411916" lon="11.7297291"><ele>100.00000000000001</ele><time>2026-04-25T16:39:30.053Z</time></trkpt><trkpt lat="45.7412206" lon="11.7296399"><ele>100.0</ele><time>2026-04-25T16:39:35.09Z</time></trkpt><trkpt lat="45.7412891" lon="11.7295995"><ele>100.00000000000001</ele><time>2026-04-25T16:39:40.102Z</time></trkpt><trkpt lat="45.7413461" lon="11.7295568"><ele>100.0</ele><time>2026-04-25T16:39:44.15Z</time></trkpt><trkpt lat="45.7414096" lon="11.7295344"><ele>100.0</ele><time>2026-04-25T16:39:48.063Z</time></trkpt><trkpt lat="45.7414753" lon="11.7295362"><ele>100.0</ele><time>2026-04-25T16:39:52.324Z</time></trkpt><trkpt lat="45.7415478" lon="11.729547"><ele>100.0</ele><time>2026-04-25T16:39:57.625Z</time></trkpt><trkpt lat="45.7416174" lon="11.7295193"><ele>100.00000000000001</ele><time>2026-04-25T16:40:02.459Z</time></trkpt><trkpt lat="45.7416849" lon="11.7294791"><ele>100.0</ele><time>2026-04-25T16:40:06.718Z</time></trkpt><trkpt lat="45.7417474" lon="11.7294324"><ele>100.0</ele><time>2026-04-25T16:40:10.983Z</time></trkpt><trkpt lat="45.7418103" lon="11.7294708"><ele>100.0</ele><time>2026-04-25T16:40:14.208Z</time></trkpt><trkpt lat="45.7418706" lon="11.7294412"><ele>100.0</ele><time>2026-04-25T16:40:18.537Z</time></trkpt><trkpt lat="45.7419692" lon="11.7294044"><ele>100.0</ele><time>2026-04-25T16:40:27.789Z</time></trkpt><trkpt lat="45.7421922" lon="11.7295392"><ele>100.16666666666667</ele><time>2026-04-25T16:40:43.559Z</time></trkpt><trkpt lat="45.7421722" lon="11.7296368"><ele>100.33333333333334</ele><time>2026-04-25T16:40:55.464Z</time></trkpt><trkpt lat="45.7420974" lon="11.7296405"><ele>100.5</ele><time>2026-04-25T16:41:01.799Z</time></trkpt><trkpt lat="45.7422055" lon="11.7295671"><ele>100.66666666666666</ele><time>2026-04-25T16:42:10.452Z</time></trkpt><trkpt lat="45.7421914" lon="11.7294506"><ele>100.83333333333333</ele><time>2026-04-25T16:42:14.656Z</time></trkpt><trkpt lat="45.7422027" lon="11.7293161"><ele>101.0</ele><time>2026-04-25T16:42:19.879Z</time></trkpt><trkpt lat="45.7422732" lon="11.7292806"><ele>100.42857142857143</ele><time>2026-04-25T16:42:25.885Z</time></trkpt><trkpt lat="45.7423503" lon="11.7292709"><ele>99.85714285714286</ele><time>2026-04-25T16:42:30.078Z</time></trkpt><trkpt lat="45.7424198" lon="11.7292662"><ele>99.28571428571428</ele><time>2026-04-25T16:42:34.367Z</time></trkpt><trkpt lat="45.7424871" lon="11.7291603"><ele>98.71428571428572</ele><time>2026-04-25T16:42:39.704Z</time></trkpt><trkpt lat="45.7425421" lon="11.7291107"><ele>98.14285714285715</ele><time>2026-04-25T16:42:43.981Z</time></trkpt><trkpt lat="45.7426065" lon="11.7290697"><ele>97.57142857142857</ele><time>2026-04-25T16:42:48.302Z</time></trkpt><trkpt lat="45.742668" lon="11.7290481"><ele>97.0</ele><time>2026-04-25T16:42:52.681Z</time></trkpt><trkpt lat="45.7426487" lon="11.728961"><ele>97.00000000000001</ele><time>2026-04-25T16:42:56.9Z</time></trkpt><trkpt lat="45.7426068" lon="11.7288714"><ele>97.0</ele><time>2026-04-25T16:43:01.085Z</time></trkpt><trkpt lat="45.7425929" lon="11.7287814"><ele>97.0</ele><time>2026-04-25T16:43:05.283Z</time></trkpt><trkpt lat="45.7425446" lon="11.7287004"><ele>97.0</ele><time>2026-04-25T16:43:10.685Z</time></trkpt><trkpt lat="45.7425313" lon="11.7286025"><ele>97.00000000000001</ele><time>2026-04-25T16:43:16.564Z</time></trkpt><trkpt lat="45.7424559" lon="11.7287227"><ele>97.0</ele><time>2026-04-25T16:43:30.051Z</time></trkpt><trkpt lat="45.7423865" lon="11.7287315"><ele>97.0</ele><time>2026-04-25T16:43:50.339Z</time></trkpt><trkpt lat="45.7423922" lon="11.7288323"><ele>97.0</ele><time>2026-04-25T16:43:57.68Z</time></trkpt><trkpt lat="45.7423251" lon="11.7287973"><ele>97.0</ele><time>2026-04-25T16:45:38.563Z</time></trkpt><trkpt lat="45.7422615" lon="11.7288191"><ele>97.0</ele><time>2026-04-25T16:45:44.519Z</time></trkpt><trkpt lat="45.742251" lon="11.7286878"><ele>97.0</ele><time>2026-04-25T16:45:50.923Z</time></trkpt><trkpt lat="45.7422405" lon="11.7287801"><ele>97.0</ele><time>2026-04-25T16:46:29.621Z</time></trkpt><trkpt lat="45.7422089" lon="11.7288765"><ele>97.0</ele><time>2026-04-25T16:46:34.159Z</time></trkpt><trkpt lat="45.7422014" lon="11.7289845"><ele>97.0</ele><time>2026-04-25T16:46:40.241Z</time></trkpt><trkpt lat="45.7421241" lon="11.7290713"><ele>97.0</ele><time>2026-04-25T16:51:10.241Z</time></trkpt><trkpt lat="45.7420775" lon="11.7291341"><ele>97.0</ele><time>2026-04-25T16:51:13.459Z</time></trkpt><trkpt lat="45.7420383" lon="11.7292075"><ele>97.0</ele><time>2026-04-25T16:51:17.639Z</time></trkpt><trkpt lat="45.7419999" lon="11.7292907"><ele>97.0</ele><time>2026-04-25T16:51:25.267Z</time></trkpt><trkpt lat="45.7419355" lon="11.7293204"><ele>97.0</ele><time>2026-04-25T16:51:30.082Z</time></trkpt><trkpt lat="45.7418735" lon="11.7293388"><ele>97.0</ele><time>2026-04-25T16:51:37.047Z</time></trkpt><trkpt lat="45.7418107" lon="11.7293658"><ele>97.00000000000001</ele><time>2026-04-25T16:51:41.438Z</time></trkpt><trkpt lat="45.7417416" lon="11.7293879"><ele>97.0</ele><time>2026-04-25T16:51:46.819Z</time></trkpt><trkpt lat="45.7416703" lon="11.72942"><ele>97.0</ele><time>2026-04-25T16:51:52.14Z</time></trkpt><trkpt lat="45.7415989" lon="11.729433"><ele>97.0</ele><time>2026-04-25T16:51:59.798Z</time></trkpt><trkpt lat="45.741531" lon="11.7294412"><ele>97.00000000000001</ele><time>2026-04-25T16:52:04.609Z</time></trkpt><trkpt lat="45.7414198" lon="11.7294674"><ele>97.0</ele><time>2026-04-25T16:52:12.065Z</time></trkpt><trkpt lat="45.741349" lon="11.7295911"><ele>97.42857142857143</ele><time>2026-04-25T16:52:13.066Z</time></trkpt><trkpt lat="45.7413166" lon="11.7296887"><ele>97.85714285714286</ele><time>2026-04-25T16:52:21.192Z</time></trkpt><trkpt lat="45.7412538" lon="11.7297245"><ele>98.28571428571429</ele><time>2026-04-25T16:52:25.178Z</time></trkpt><trkpt lat="45.7411797" lon="11.7297354"><ele>98.71428571428572</ele><time>2026-04-25T16:52:32.134Z</time></trkpt><trkpt lat="45.741165" lon="11.7298383"><ele>99.14285714285714</ele><time>2026-04-25T16:52:37.13Z</time></trkpt><trkpt lat="45.7411854" lon="11.7297411"><ele>99.57142857142858</ele><time>2026-04-25T17:03:31.093Z</time></trkpt><trkpt lat="45.7412361" lon="11.7296624"><ele>100.0</ele><time>2026-04-25T17:03:36.126Z</time></trkpt><trkpt lat="45.7412962" lon="11.7296217"><ele>100.00000000000001</ele><time>2026-04-25T17:03:39.115Z</time></trkpt><trkpt lat="45.7413658" lon="11.7296447"><ele>100.0</ele><time>2026-04-25T17:03:43.077Z</time></trkpt><trkpt lat="45.7414477" lon="11.729641"><ele>100.0</ele><time>2026-04-25T17:03:53.06Z</time></trkpt><trkpt lat="45.7414933" lon="11.7297143"><ele>100.0</ele><time>2026-04-25T17:03:56.137Z</time></trkpt><trkpt lat="45.7414974" lon="11.7298216"><ele>100.0</ele><time>2026-04-25T17:03:59.077Z</time></trkpt><trkpt lat="45.741509" lon="11.729936"><ele>100.00000000000001</ele><time>2026-04-25T17:04:02.077Z</time></trkpt><trkpt lat="45.7415313" lon="11.7300246"><ele>100.0</ele><time>2026-04-25T17:04:05.077Z</time></trkpt><trkpt lat="45.7415771" lon="11.730102"><ele>100.00000000000001</ele><time>2026-04-25T17:04:09.077Z</time></trkpt><trkpt lat="45.7416382" lon="11.7301297"><ele>100.0</ele><time>2026-04-25T17:04:13.078Z</time></trkpt><trkpt lat="45.7417016" lon="11.7301235"><ele>100.0</ele><time>2026-04-25T17:04:16.078Z</time></trkpt><trkpt lat="45.7417841" lon="11.7301391"><ele>100.0</ele><time>2026-04-25T17:04:20.077Z</time></trkpt><trkpt lat="45.7418507" lon="11.7301586"><ele>100.0</ele><time>2026-04-25T17:04:23.078Z</time></trkpt><trkpt lat="45.7419252" lon="11.7301653"><ele>100.00000000000001</ele><time>2026-04-25T17:04:27.078Z</time></trkpt><trkpt lat="45.7419907" lon="11.730163"><ele>100.0</ele><time>2026-04-25T17:04:30.078Z</time></trkpt><trkpt lat="45.7420717" lon="11.7301551"><ele>100.16666666666667</ele><time>2026-04-25T17:04:33.079Z</time></trkpt><trkpt lat="45.742148" lon="11.7301319"><ele>100.33333333333334</ele><time>2026-04-25T17:04:36.078Z</time></trkpt><trkpt lat="45.7422321" lon="11.7301074"><ele>100.5</ele><time>2026-04-25T17:04:40.079Z</time></trkpt><trkpt lat="45.7423096" lon="11.730083"><ele>100.66666666666666</ele><time>2026-04-25T17:04:43.078Z</time></trkpt><trkpt lat="45.7423869" lon="11.7300516"><ele>100.83333333333333</ele><time>2026-04-25T17:04:47.078Z</time></trkpt><trkpt lat="45.74246" lon="11.7300333"><ele>101.0</ele><time>2026-04-25T17:04:51.078Z</time></trkpt><trkpt lat="45.742538" lon="11.7299902"><ele>100.99999999999999</ele><time>2026-04-25T17:04:54.078Z</time></trkpt><trkpt lat="45.7426198" lon="11.7299688"><ele>101.0</ele><time>2026-04-25T17:04:57.078Z</time></trkpt><trkpt lat="45.7427011" lon="11.7299409"><ele>101.0</ele><time>2026-04-25T17:05:00.078Z</time></trkpt><trkpt lat="45.7427675" lon="11.7299432"><ele>101.0</ele><time>2026-04-25T17:05:02.079Z</time></trkpt><trkpt lat="45.7428569" lon="11.7299581"><ele>100.99999999999999</ele><time>2026-04-25T17:05:05.079Z</time></trkpt><trkpt lat="45.7429278" lon="11.7299341"><ele>101.0</ele><time>2026-04-25T17:05:07.012Z</time></trkpt><trkpt lat="45.7429896" lon="11.7299027"><ele>101.0</ele><time>2026-04-25T17:05:09.152Z</time></trkpt><trkpt lat="45.743071" lon="11.72986"><ele>101.0</ele><time>2026-04-25T17:05:12.094Z</time></trkpt><trkpt lat="45.7431189" lon="11.7297878"><ele>101.0</ele><time>2026-04-25T17:05:15.115Z</time></trkpt><trkpt lat="45.7431463" lon="11.7296993"><ele>101.0</ele><time>2026-04-25T17:05:18.134Z</time></trkpt><trkpt lat="45.7432079" lon="11.7296412"><ele>101.0</ele><time>2026-04-25T17:05:22.078Z</time></trkpt><trkpt lat="45.7432398" lon="11.7295394"><ele>101.0</ele><time>2026-04-25T17:05:26.129Z</time></trkpt><trkpt lat="45.7432355" lon="11.729438"><ele>101.0</ele><time>2026-04-25T17:05:28.095Z</time></trkpt><trkpt lat="45.7432173" lon="11.7293165"><ele>101.16666666666666</ele><time>2026-04-25T17:05:30.078Z</time></trkpt><trkpt lat="45.7431992" lon="11.7291915"><ele>101.33333333333333</ele><time>2026-04-25T17:05:32.102Z</time></trkpt><trkpt lat="45.7431791" lon="11.7290645"><ele>101.5</ele><time>2026-04-25T17:05:34.153Z</time></trkpt><trkpt lat="45.7431565" lon="11.7289454"><ele>101.66666666666666</ele><time>2026-04-25T17:05:36.129Z</time></trkpt><trkpt lat="45.7431348" lon="11.7288182"><ele>101.83333333333333</ele><time>2026-04-25T17:05:38.142Z</time></trkpt><trkpt lat="45.7431138" lon="11.7286939"><ele>102.0</ele><time>2026-04-25T17:05:40.079Z</time></trkpt><trkpt lat="45.7430746" lon="11.7285606"><ele>101.6</ele><time>2026-04-25T17:05:42.079Z</time></trkpt><trkpt lat="45.7430457" lon="11.7284102"><ele>101.19999999999999</ele><time>2026-04-25T17:05:44.079Z</time></trkpt><trkpt lat="45.7430251" lon="11.7282464"><ele>100.8</ele><time>2026-04-25T17:05:46.079Z</time></trkpt><trkpt lat="45.743" lon="11.7280777"><ele>100.4</ele><time>2026-04-25T17:05:48.079Z</time></trkpt><trkpt lat="45.7429832" lon="11.7279891"><ele>100.0</ele><time>2026-04-25T17:05:49.079Z</time></trkpt><trkpt lat="45.7429652" lon="11.7279014"><ele>100.0</ele><time>2026-04-25T17:05:50.079Z</time></trkpt><trkpt lat="45.7429482" lon="11.7278133"><ele>100.0</ele><time>2026-04-25T17:05:51.079Z</time></trkpt><trkpt lat="45.7429191" lon="11.7276513"><ele>100.0</ele><time>2026-04-25T17:05:53.079Z</time></trkpt><trkpt lat="45.7428918" lon="11.7274858"><ele>100.0</ele><time>2026-04-25T17:05:55.079Z</time></trkpt><trkpt lat="45.7428601" lon="11.7273218"><ele>100.0</ele><time>2026-04-25T17:05:57.079Z</time></trkpt><trkpt lat="45.7428369" lon="11.7271829"><ele>100.00000000000001</ele><time>2026-04-25T17:05:59.079Z</time></trkpt><trkpt lat="45.7428124" lon="11.7270567"><ele>100.0</ele><time>2026-04-25T17:06:01.079Z</time></trkpt><trkpt lat="45.7427907" lon="11.726933"><ele>100.0</ele><time>2026-04-25T17:06:03.079Z</time></trkpt><trkpt lat="45.7427666" lon="11.7268241"><ele>100.0</ele><time>2026-04-25T17:06:05.079Z</time></trkpt><trkpt lat="45.7427446" lon="11.7267048"><ele>100.00000000000001</ele><time>2026-04-25T17:06:07.079Z</time></trkpt><trkpt lat="45.7427211" lon="11.72658"><ele>100.0</ele><time>2026-04-25T17:06:09.079Z</time></trkpt><trkpt lat="45.7426885" lon="11.726444"><ele>99.6</ele><time>2026-04-25T17:06:11.08Z</time></trkpt><trkpt lat="45.7426571" lon="11.7263055"><ele>99.2</ele><time>2026-04-25T17:06:13.079Z</time></trkpt><trkpt lat="45.7426315" lon="11.7261768"><ele>98.80000000000001</ele><time>2026-04-25T17:06:15.08Z</time></trkpt><trkpt lat="45.7425984" lon="11.7260537"><ele>98.4</ele><time>2026-04-25T17:06:17.079Z</time></trkpt><trkpt lat="45.7425617" lon="11.7259224"><ele>98.0</ele><time>2026-04-25T17:06:19.079Z</time></trkpt><trkpt lat="45.7425142" lon="11.7257981"><ele>98.0</ele><time>2026-04-25T17:06:21.079Z</time></trkpt><trkpt lat="45.7424756" lon="11.7256756"><ele>98.0</ele><time>2026-04-25T17:06:23.08Z</time></trkpt><trkpt lat="45.7424341" lon="11.7255639"><ele>98.0</ele><time>2026-04-25T17:06:25.079Z</time></trkpt><trkpt lat="45.742393" lon="11.7254451"><ele>98.0</ele><time>2026-04-25T17:06:27.079Z</time></trkpt><trkpt lat="45.7423603" lon="11.7253209"><ele>98.0</ele><time>2026-04-25T17:06:29.079Z</time></trkpt><trkpt lat="45.7423264" lon="11.7251889"><ele>98.60000000000001</ele><time>2026-04-25T17:06:31.079Z</time></trkpt><trkpt lat="45.7422963" lon="11.7250546"><ele>99.2</ele><time>2026-04-25T17:06:33.079Z</time></trkpt><trkpt lat="45.7422625" lon="11.7249116"><ele>99.8</ele><time>2026-04-25T17:06:35.08Z</time></trkpt><trkpt lat="45.7422282" lon="11.7247694"><ele>100.4</ele><time>2026-04-25T17:06:37.079Z</time></trkpt><trkpt lat="45.7421966" lon="11.7246251"><ele>101.0</ele><time>2026-04-25T17:06:39.079Z</time></trkpt><trkpt lat="45.7421711" lon="11.7244839"><ele>100.99999999999999</ele><time>2026-04-25T17:06:41.08Z</time></trkpt><trkpt lat="45.742147" lon="11.7243498"><ele>101.0</ele><time>2026-04-25T17:06:43.08Z</time></trkpt><trkpt lat="45.7421178" lon="11.7242255"><ele>101.0</ele><time>2026-04-25T17:06:45.08Z</time></trkpt><trkpt lat="45.7420927" lon="11.724105"><ele>101.0</ele><time>2026-04-25T17:06:47.08Z</time></trkpt><trkpt lat="45.7420737" lon="11.7239922"><ele>100.99999999999999</ele><time>2026-04-25T17:06:49.08Z</time></trkpt><trkpt lat="45.7420428" lon="11.7238805"><ele>101.0</ele><time>2026-04-25T17:06:51.08Z</time></trkpt><trkpt lat="45.7420145" lon="11.7237819"><ele>100.99999999999999</ele><time>2026-04-25T17:06:53.08Z</time></trkpt><trkpt lat="45.7419956" lon="11.7236755"><ele>101.0</ele><time>2026-04-25T17:06:55.08Z</time></trkpt><trkpt lat="45.7419807" lon="11.7235822"><ele>101.0</ele><time>2026-04-25T17:06:57.08Z</time></trkpt><trkpt lat="45.7419142" lon="11.7234895"><ele>101.0</ele><time>2026-04-25T17:07:00.08Z</time></trkpt><trkpt lat="45.7418144" lon="11.7234591"><ele>100.99999999999999</ele><time>2026-04-25T17:07:02.08Z</time></trkpt><trkpt lat="45.7417174" lon="11.7234418"><ele>101.0</ele><time>2026-04-25T17:07:04.08Z</time></trkpt><trkpt lat="45.7416209" lon="11.7234485"><ele>100.4</ele><time>2026-04-25T17:07:06.08Z</time></trkpt><trkpt lat="45.741521" lon="11.7234528"><ele>99.8</ele><time>2026-04-25T17:07:08.081Z</time></trkpt><trkpt lat="45.7414236" lon="11.7234602"><ele>99.2</ele><time>2026-04-25T17:07:10.08Z</time></trkpt><trkpt lat="45.7413272" lon="11.7234774"><ele>98.60000000000001</ele><time>2026-04-25T17:07:12.08Z</time></trkpt><trkpt lat="45.7412272" lon="11.7234988"><ele>98.0</ele><time>2026-04-25T17:07:14.08Z</time></trkpt><trkpt lat="45.7411266" lon="11.7235173"><ele>98.2</ele><time>2026-04-25T17:07:16.08Z</time></trkpt><trkpt lat="45.741028" lon="11.7235303"><ele>98.4</ele><time>2026-04-25T17:07:18.08Z</time></trkpt><trkpt lat="45.7409241" lon="11.7235481"><ele>98.60000000000001</ele><time>2026-04-25T17:07:20.081Z</time></trkpt><trkpt lat="45.7408236" lon="11.7235752"><ele>98.80000000000001</ele><time>2026-04-25T17:07:22.08Z</time></trkpt><trkpt lat="45.740724" lon="11.7236078"><ele>99.0</ele><time>2026-04-25T17:07:24.081Z</time></trkpt><trkpt lat="45.7406288" lon="11.7236435"><ele>98.80000000000001</ele><time>2026-04-25T17:07:26.08Z</time></trkpt><trkpt lat="45.7405382" lon="11.7236902"><ele>98.60000000000001</ele><time>2026-04-25T17:07:28.08Z</time></trkpt><trkpt lat="45.7404425" lon="11.7237457"><ele>98.4</ele><time>2026-04-25T17:07:30.081Z</time></trkpt><trkpt lat="45.7403366" lon="11.7238065"><ele>98.2</ele><time>2026-04-25T17:07:32.08Z</time></trkpt><trkpt lat="45.7402369" lon="11.7238603"><ele>98.0</ele><time>2026-04-25T17:07:34.08Z</time></trkpt><trkpt lat="45.7401407" lon="11.7239152"><ele>98.0</ele><time>2026-04-25T17:07:36.08Z</time></trkpt><trkpt lat="45.740045" lon="11.723972"><ele>98.0</ele><time>2026-04-25T17:07:38.08Z</time></trkpt><trkpt lat="45.7399492" lon="11.7240261"><ele>98.0</ele><time>2026-04-25T17:07:40.08Z</time></trkpt><trkpt lat="45.7398593" lon="11.7240857"><ele>98.0</ele><time>2026-04-25T17:07:42.081Z</time></trkpt><trkpt lat="45.7397707" lon="11.7241217"><ele>98.0</ele><time>2026-04-25T17:07:44.081Z</time></trkpt><trkpt lat="45.7396662" lon="11.7241652"><ele>98.0</ele><time>2026-04-25T17:07:46.081Z</time></trkpt><trkpt lat="45.7395599" lon="11.7242131"><ele>98.0</ele><time>2026-04-25T17:07:48.081Z</time></trkpt><trkpt lat="45.7394567" lon="11.7242683"><ele>98.0</ele><time>2026-04-25T17:07:50.081Z</time></trkpt><trkpt lat="45.7393613" lon="11.724309"><ele>98.0</ele><time>2026-04-25T17:07:52.081Z</time></trkpt><trkpt lat="45.7392605" lon="11.7243385"><ele>98.0</ele><time>2026-04-25T17:07:54.081Z</time></trkpt><trkpt lat="45.7391512" lon="11.7243621"><ele>98.25</ele><time>2026-04-25T17:07:56.081Z</time></trkpt><trkpt lat="45.7390198" lon="11.7243711"><ele>98.5</ele><time>2026-04-25T17:07:58.081Z</time></trkpt><trkpt lat="45.738936" lon="11.7243737"><ele>98.75</ele><time>2026-04-25T17:07:59.081Z</time></trkpt><trkpt lat="45.7388558" lon="11.7243858"><ele>99.0</ele><time>2026-04-25T17:08:00.081Z</time></trkpt><trkpt lat="45.7385228" lon="11.7244418"><ele>99.0</ele><time>2026-04-25T17:08:04.082Z</time></trkpt><trkpt lat="45.7384449" lon="11.7244569"><ele>99.0</ele><time>2026-04-25T17:08:05.081Z</time></trkpt><trkpt lat="45.7383614" lon="11.7244537"><ele>99.0</ele><time>2026-04-25T17:08:06.081Z</time></trkpt><trkpt lat="45.7382815" lon="11.724461"><ele>99.0</ele><time>2026-04-25T17:08:07.081Z</time></trkpt><trkpt lat="45.7382069" lon="11.7244508"><ele>99.0</ele><time>2026-04-25T17:08:09.081Z</time></trkpt><trkpt lat="45.7381347" lon="11.7244637"><ele>99.0</ele><time>2026-04-25T17:08:11.081Z</time></trkpt><trkpt lat="45.738049" lon="11.7244723"><ele>99.0</ele><time>2026-04-25T17:08:14.082Z</time></trkpt><trkpt lat="45.7379554" lon="11.7244956"><ele>99.0</ele><time>2026-04-25T17:08:17.082Z</time></trkpt><trkpt lat="45.7378691" lon="11.7245196"><ele>99.0</ele><time>2026-04-25T17:08:19.081Z</time></trkpt><trkpt lat="45.7377732" lon="11.7245429"><ele>99.0</ele><time>2026-04-25T17:08:21.081Z</time></trkpt><trkpt lat="45.7376862" lon="11.7245791"><ele>99.0</ele><time>2026-04-25T17:08:23.081Z</time></trkpt><trkpt lat="45.7375914" lon="11.7246081"><ele>98.6</ele><time>2026-04-25T17:08:25.081Z</time></trkpt><trkpt lat="45.7374982" lon="11.7246407"><ele>98.2</ele><time>2026-04-25T17:08:27.082Z</time></trkpt><trkpt lat="45.7374034" lon="11.7246743"><ele>97.8</ele><time>2026-04-25T17:08:29.081Z</time></trkpt><trkpt lat="45.7373115" lon="11.7247013"><ele>97.39999999999999</ele><time>2026-04-25T17:08:31.081Z</time></trkpt><trkpt lat="45.7372191" lon="11.7247375"><ele>97.0</ele><time>2026-04-25T17:08:33.081Z</time></trkpt><trkpt lat="45.7371175" lon="11.7247833"><ele>97.0</ele><time>2026-04-25T17:08:35.081Z</time></trkpt><trkpt lat="45.7370189" lon="11.7248249"><ele>97.0</ele><time>2026-04-25T17:08:37.082Z</time></trkpt><trkpt lat="45.7369264" lon="11.7248564"><ele>97.0</ele><time>2026-04-25T17:08:39.082Z</time></trkpt><trkpt lat="45.736828" lon="11.7248907"><ele>97.0</ele><time>2026-04-25T17:08:41.081Z</time></trkpt><trkpt lat="45.7367261" lon="11.7249279"><ele>97.0</ele><time>2026-04-25T17:08:43.082Z</time></trkpt><trkpt lat="45.7366219" lon="11.7249551"><ele>97.0</ele><time>2026-04-25T17:08:45.082Z</time></trkpt><trkpt lat="45.7365211" lon="11.7249811"><ele>97.0</ele><time>2026-04-25T17:08:47.083Z</time></trkpt><trkpt lat="45.7364097" lon="11.7250131"><ele>97.0</ele><time>2026-04-25T17:08:49.082Z</time></trkpt><trkpt lat="45.7363066" lon="11.7250419"><ele>97.0</ele><time>2026-04-25T17:08:51.082Z</time></trkpt><trkpt lat="45.7362208" lon="11.7250665"><ele>97.0</ele><time>2026-04-25T17:08:53.082Z</time></trkpt><trkpt lat="45.7361353" lon="11.7251071"><ele>97.19999999999999</ele><time>2026-04-25T17:08:55.083Z</time></trkpt><trkpt lat="45.7360459" lon="11.7251547"><ele>97.4</ele><time>2026-04-25T17:08:57.082Z</time></trkpt><trkpt lat="45.7359539" lon="11.7251959"><ele>97.6</ele><time>2026-04-25T17:08:59.082Z</time></trkpt><trkpt lat="45.7358599" lon="11.7251747"><ele>97.80000000000001</ele><time>2026-04-25T17:09:01.082Z</time></trkpt><trkpt lat="45.7357839" lon="11.7250978"><ele>98.0</ele><time>2026-04-25T17:09:03.082Z</time></trkpt><trkpt lat="45.735693" lon="11.7250114"><ele>98.0</ele><time>2026-04-25T17:09:05.083Z</time></trkpt><trkpt lat="45.7356023" lon="11.7249444"><ele>98.0</ele><time>2026-04-25T17:09:07.082Z</time></trkpt><trkpt lat="45.7355052" lon="11.7248921"><ele>98.0</ele><time>2026-04-25T17:09:09.082Z</time></trkpt><trkpt lat="45.7354196" lon="11.7248387"><ele>98.0</ele><time>2026-04-25T17:09:11.082Z</time></trkpt><trkpt lat="45.7353295" lon="11.7247792"><ele>98.0</ele><time>2026-04-25T17:09:13.083Z</time></trkpt><trkpt lat="45.7352375" lon="11.7247328"><ele>97.4</ele><time>2026-04-25T17:09:15.082Z</time></trkpt><trkpt lat="45.7351431" lon="11.7247112"><ele>96.80000000000001</ele><time>2026-04-25T17:09:17.083Z</time></trkpt><trkpt lat="45.7350654" lon="11.7246598"><ele>96.2</ele><time>2026-04-25T17:09:19.082Z</time></trkpt><trkpt lat="45.7349885" lon="11.7245871"><ele>95.6</ele><time>2026-04-25T17:09:21.082Z</time></trkpt><trkpt lat="45.7349006" lon="11.7245148"><ele>95.0</ele><time>2026-04-25T17:09:23.082Z</time></trkpt><trkpt lat="45.734814" lon="11.724447"><ele>95.0</ele><time>2026-04-25T17:09:25.082Z</time></trkpt><trkpt lat="45.7347248" lon="11.7243748"><ele>95.0</ele><time>2026-04-25T17:09:27.082Z</time></trkpt><trkpt lat="45.7346364" lon="11.7243031"><ele>95.0</ele><time>2026-04-25T17:09:29.082Z</time></trkpt><trkpt lat="45.7345511" lon="11.7242325"><ele>95.0</ele><time>2026-04-25T17:09:31.082Z</time></trkpt><trkpt lat="45.7344655" lon="11.7241605"><ele>95.0</ele><time>2026-04-25T17:09:33.082Z</time></trkpt><trkpt lat="45.7343741" lon="11.7240889"><ele>95.0</ele><time>2026-04-25T17:09:35.082Z</time></trkpt><trkpt lat="45.7342797" lon="11.7240141"><ele>95.0</ele><time>2026-04-25T17:09:37.082Z</time></trkpt><trkpt lat="45.7341857" lon="11.723933"><ele>95.0</ele><time>2026-04-25T17:09:39.082Z</time></trkpt><trkpt lat="45.7340837" lon="11.7238589"><ele>95.0</ele><time>2026-04-25T17:09:41.083Z</time></trkpt><trkpt lat="45.7339878" lon="11.7237839"><ele>95.0</ele><time>2026-04-25T17:09:43.082Z</time></trkpt><trkpt lat="45.7338996" lon="11.7237132"><ele>95.0</ele><time>2026-04-25T17:09:45.083Z</time></trkpt><trkpt lat="45.7338163" lon="11.7236527"><ele>95.0</ele><time>2026-04-25T17:09:47.083Z</time></trkpt><trkpt lat="45.7337314" lon="11.7235916"><ele>95.0</ele><time>2026-04-25T17:09:49.083Z</time></trkpt><trkpt lat="45.7336521" lon="11.7235342"><ele>95.0</ele><time>2026-04-25T17:09:51.083Z</time></trkpt><trkpt lat="45.7335777" lon="11.723475"><ele>95.0</ele><time>2026-04-25T17:09:53.083Z</time></trkpt><trkpt lat="45.7334968" lon="11.7234128"><ele>94.8</ele><time>2026-04-25T17:09:55.083Z</time></trkpt><trkpt lat="45.7334129" lon="11.7233666"><ele>94.6</ele><time>2026-04-25T17:09:57.083Z</time></trkpt><trkpt lat="45.733314" lon="11.7233571"><ele>94.4</ele><time>2026-04-25T17:09:59.083Z</time></trkpt><trkpt lat="45.7332153" lon="11.7234147"><ele>94.2</ele><time>2026-04-25T17:10:01.083Z</time></trkpt><trkpt lat="45.7331458" lon="11.7235429"><ele>94.0</ele><time>2026-04-25T17:10:03.083Z</time></trkpt><trkpt lat="45.7331339" lon="11.7237075"><ele>94.0</ele><time>2026-04-25T17:10:05.084Z</time></trkpt><trkpt lat="45.7331172" lon="11.7238403"><ele>94.0</ele><time>2026-04-25T17:10:07.084Z</time></trkpt><trkpt lat="45.7330464" lon="11.7238852"><ele>94.0</ele><time>2026-04-25T17:10:10.083Z</time></trkpt><trkpt lat="45.7329842" lon="11.7238478"><ele>94.0</ele><time>2026-04-25T17:10:12.083Z</time></trkpt><trkpt lat="45.7329088" lon="11.7238066"><ele>94.0</ele><time>2026-04-25T17:10:14.083Z</time></trkpt><trkpt lat="45.732791" lon="11.7237459"><ele>94.0</ele><time>2026-04-25T17:10:16.083Z</time></trkpt><trkpt lat="45.7326738" lon="11.7236936"><ele>94.25</ele><time>2026-04-25T17:10:18.083Z</time></trkpt><trkpt lat="45.7325521" lon="11.7236773"><ele>94.5</ele><time>2026-04-25T17:10:20.083Z</time></trkpt><trkpt lat="45.7324281" lon="11.7236523"><ele>94.75</ele><time>2026-04-25T17:10:22.083Z</time></trkpt><trkpt lat="45.7323172" lon="11.7236272"><ele>95.0</ele><time>2026-04-25T17:10:24.083Z</time></trkpt><trkpt lat="45.7322145" lon="11.7235922"><ele>95.0</ele><time>2026-04-25T17:10:26.083Z</time></trkpt><trkpt lat="45.7321067" lon="11.7235588"><ele>95.0</ele><time>2026-04-25T17:10:28.083Z</time></trkpt><trkpt lat="45.7320031" lon="11.7235282"><ele>95.0</ele><time>2026-04-25T17:10:30.084Z</time></trkpt><trkpt lat="45.7318985" lon="11.7235108"><ele>95.0</ele><time>2026-04-25T17:10:32.083Z</time></trkpt><trkpt lat="45.7317872" lon="11.7234968"><ele>95.0</ele><time>2026-04-25T17:10:34.084Z</time></trkpt><trkpt lat="45.7316763" lon="11.7234881"><ele>95.0</ele><time>2026-04-25T17:10:36.083Z</time></trkpt><trkpt lat="45.7315729" lon="11.7234963"><ele>95.0</ele><time>2026-04-25T17:10:38.083Z</time></trkpt><trkpt lat="45.7314633" lon="11.7235329"><ele>95.0</ele><time>2026-04-25T17:10:40.083Z</time></trkpt><trkpt lat="45.731346" lon="11.7235668"><ele>95.0</ele><time>2026-04-25T17:10:42.083Z</time></trkpt><trkpt lat="45.7312321" lon="11.7235769"><ele>95.0</ele><time>2026-04-25T17:10:44.084Z</time></trkpt><trkpt lat="45.7311236" lon="11.7236015"><ele>95.0</ele><time>2026-04-25T17:10:46.084Z</time></trkpt><trkpt lat="45.7310167" lon="11.7236148"><ele>95.0</ele><time>2026-04-25T17:10:48.084Z</time></trkpt><trkpt lat="45.7309019" lon="11.7236244"><ele>95.0</ele><time>2026-04-25T17:10:50.084Z</time></trkpt><trkpt lat="45.7307801" lon="11.7236327"><ele>94.6</ele><time>2026-04-25T17:10:52.084Z</time></trkpt><trkpt lat="45.7306643" lon="11.7236325"><ele>94.2</ele><time>2026-04-25T17:10:54.084Z</time></trkpt><trkpt lat="45.7305516" lon="11.723628"><ele>93.80000000000001</ele><time>2026-04-25T17:10:56.084Z</time></trkpt><trkpt lat="45.7304451" lon="11.7236278"><ele>93.4</ele><time>2026-04-25T17:10:58.084Z</time></trkpt><trkpt lat="45.7303486" lon="11.7236283"><ele>93.0</ele><time>2026-04-25T17:11:00.084Z</time></trkpt><trkpt lat="45.7302545" lon="11.7236245"><ele>93.2</ele><time>2026-04-25T17:11:02.084Z</time></trkpt><trkpt lat="45.7301471" lon="11.7236194"><ele>93.4</ele><time>2026-04-25T17:11:04.084Z</time></trkpt><trkpt lat="45.7300363" lon="11.7236149"><ele>93.60000000000001</ele><time>2026-04-25T17:11:06.084Z</time></trkpt><trkpt lat="45.729924" lon="11.7236083"><ele>93.80000000000001</ele><time>2026-04-25T17:11:08.084Z</time></trkpt><trkpt lat="45.7298153" lon="11.723595"><ele>94.0</ele><time>2026-04-25T17:11:10.084Z</time></trkpt><trkpt lat="45.7297118" lon="11.7235748"><ele>94.0</ele><time>2026-04-25T17:11:12.085Z</time></trkpt><trkpt lat="45.7295922" lon="11.7235664"><ele>94.0</ele><time>2026-04-25T17:11:14.085Z</time></trkpt><trkpt lat="45.7294787" lon="11.7235392"><ele>94.0</ele><time>2026-04-25T17:11:16.084Z</time></trkpt><trkpt lat="45.7293694" lon="11.7235125"><ele>94.0</ele><time>2026-04-25T17:11:18.084Z</time></trkpt><trkpt lat="45.729265" lon="11.723484"><ele>94.0</ele><time>2026-04-25T17:11:20.084Z</time></trkpt><trkpt lat="45.7291423" lon="11.7234523"><ele>94.0</ele><time>2026-04-25T17:11:22.085Z</time></trkpt><trkpt lat="45.7290272" lon="11.7234135"><ele>94.0</ele><time>2026-04-25T17:11:24.084Z</time></trkpt><trkpt lat="45.7289128" lon="11.7233785"><ele>94.0</ele><time>2026-04-25T17:11:26.085Z</time></trkpt><trkpt lat="45.7288097" lon="11.7233484"><ele>94.0</ele><time>2026-04-25T17:11:28.084Z</time></trkpt><trkpt lat="45.7287002" lon="11.723303"><ele>94.0</ele><time>2026-04-25T17:11:30.084Z</time></trkpt><trkpt lat="45.7285783" lon="11.7232638"><ele>94.0</ele><time>2026-04-25T17:11:32.084Z</time></trkpt><trkpt lat="45.7284758" lon="11.7232546"><ele>94.0</ele><time>2026-04-25T17:11:34.084Z</time></trkpt><trkpt lat="45.7283734" lon="11.7232539"><ele>94.0</ele><time>2026-04-25T17:11:36.084Z</time></trkpt><trkpt lat="45.728263" lon="11.723231"><ele>93.75</ele><time>2026-04-25T17:11:38.084Z</time></trkpt><trkpt lat="45.7281478" lon="11.7232084"><ele>93.5</ele><time>2026-04-25T17:11:40.084Z</time></trkpt><trkpt lat="45.7280304" lon="11.7231878"><ele>93.25</ele><time>2026-04-25T17:11:42.085Z</time></trkpt><trkpt lat="45.7279119" lon="11.7231662"><ele>93.0</ele><time>2026-04-25T17:11:44.085Z</time></trkpt><trkpt lat="45.7277886" lon="11.7231481"><ele>92.60000000000001</ele><time>2026-04-25T17:11:46.085Z</time></trkpt><trkpt lat="45.7276659" lon="11.7231273"><ele>92.2</ele><time>2026-04-25T17:11:48.085Z</time></trkpt><trkpt lat="45.7275429" lon="11.7231061"><ele>91.8</ele><time>2026-04-25T17:11:50.085Z</time></trkpt><trkpt lat="45.7274796" lon="11.7230953"><ele>91.4</ele><time>2026-04-25T17:11:51.085Z</time></trkpt><trkpt lat="45.7274162" lon="11.7230858"><ele>91.0</ele><time>2026-04-25T17:11:52.085Z</time></trkpt><trkpt lat="45.7272924" lon="11.7230699"><ele>91.0</ele><time>2026-04-25T17:11:54.085Z</time></trkpt><trkpt lat="45.7271768" lon="11.7230471"><ele>91.0</ele><time>2026-04-25T17:11:56.085Z</time></trkpt><trkpt lat="45.7270529" lon="11.723022"><ele>91.0</ele><time>2026-04-25T17:11:58.085Z</time></trkpt><trkpt lat="45.726989" lon="11.723009"><ele>91.0</ele><time>2026-04-25T17:11:59.085Z</time></trkpt><trkpt lat="45.7268658" lon="11.7229841"><ele>91.0</ele><time>2026-04-25T17:12:01.085Z</time></trkpt><trkpt lat="45.7267435" lon="11.7229511"><ele>91.0</ele><time>2026-04-25T17:12:03.085Z</time></trkpt><trkpt lat="45.7266808" lon="11.7229369"><ele>91.0</ele><time>2026-04-25T17:12:04.085Z</time></trkpt><trkpt lat="45.7265597" lon="11.7229077"><ele>91.0</ele><time>2026-04-25T17:12:06.085Z</time></trkpt><trkpt lat="45.7264433" lon="11.7228753"><ele>91.0</ele><time>2026-04-25T17:12:08.085Z</time></trkpt><trkpt lat="45.7263301" lon="11.7228464"><ele>91.0</ele><time>2026-04-25T17:12:10.085Z</time></trkpt><trkpt lat="45.7262166" lon="11.7228194"><ele>91.0</ele><time>2026-04-25T17:12:12.085Z</time></trkpt><trkpt lat="45.7261551" lon="11.7227982"><ele>91.0</ele><time>2026-04-25T17:12:13.085Z</time></trkpt><trkpt lat="45.7260918" lon="11.7227778"><ele>91.0</ele><time>2026-04-25T17:12:14.085Z</time></trkpt><trkpt lat="45.7259688" lon="11.7227434"><ele>91.0</ele><time>2026-04-25T17:12:16.085Z</time></trkpt><trkpt lat="45.7258485" lon="11.7227176"><ele>91.0</ele><time>2026-04-25T17:12:18.085Z</time></trkpt><trkpt lat="45.7257309" lon="11.7226911"><ele>90.5</ele><time>2026-04-25T17:12:20.086Z</time></trkpt><trkpt lat="45.7256151" lon="11.7226603"><ele>90.0</ele><time>2026-04-25T17:12:22.085Z</time></trkpt><trkpt lat="45.7255059" lon="11.7226344"><ele>89.5</ele><time>2026-04-25T17:12:24.085Z</time></trkpt><trkpt lat="45.7253961" lon="11.7226135"><ele>89.0</ele><time>2026-04-25T17:12:26.086Z</time></trkpt><trkpt lat="45.7252816" lon="11.7225903"><ele>88.75</ele><time>2026-04-25T17:12:28.085Z</time></trkpt><trkpt lat="45.7251657" lon="11.7225753"><ele>88.5</ele><time>2026-04-25T17:12:30.085Z</time></trkpt><trkpt lat="45.7250524" lon="11.7225633"><ele>88.25</ele><time>2026-04-25T17:12:32.085Z</time></trkpt><trkpt lat="45.7249358" lon="11.7225532"><ele>88.0</ele><time>2026-04-25T17:12:34.085Z</time></trkpt><trkpt lat="45.7248173" lon="11.7225438"><ele>88.0</ele><time>2026-04-25T17:12:36.086Z</time></trkpt><trkpt lat="45.7247008" lon="11.7225417"><ele>88.0</ele><time>2026-04-25T17:12:38.086Z</time></trkpt><trkpt lat="45.7245829" lon="11.7225346"><ele>88.0</ele><time>2026-04-25T17:12:40.086Z</time></trkpt><trkpt lat="45.7244604" lon="11.7225253"><ele>88.0</ele><time>2026-04-25T17:12:42.085Z</time></trkpt><trkpt lat="45.7243381" lon="11.7225099"><ele>88.0</ele><time>2026-04-25T17:12:44.086Z</time></trkpt><trkpt lat="45.7242743" lon="11.7224987"><ele>88.0</ele><time>2026-04-25T17:12:45.086Z</time></trkpt><trkpt lat="45.7241532" lon="11.722481"><ele>88.0</ele><time>2026-04-25T17:12:47.086Z</time></trkpt><trkpt lat="45.7240901" lon="11.7224678"><ele>88.0</ele><time>2026-04-25T17:12:48.086Z</time></trkpt><trkpt lat="45.7239723" lon="11.7224302"><ele>88.0</ele><time>2026-04-25T17:12:50.086Z</time></trkpt><trkpt lat="45.7238545" lon="11.7224045"><ele>88.0</ele><time>2026-04-25T17:12:52.087Z</time></trkpt><trkpt lat="45.7237464" lon="11.7223806"><ele>88.0</ele><time>2026-04-25T17:12:54.086Z</time></trkpt><trkpt lat="45.723634" lon="11.7223597"><ele>88.0</ele><time>2026-04-25T17:12:56.086Z</time></trkpt><trkpt lat="45.7235278" lon="11.7223369"><ele>88.0</ele><time>2026-04-25T17:12:58.086Z</time></trkpt><trkpt lat="45.7234094" lon="11.7223093"><ele>88.0</ele><time>2026-04-25T17:13:00.086Z</time></trkpt><trkpt lat="45.7232972" lon="11.7222891"><ele>88.0</ele><time>2026-04-25T17:13:02.086Z</time></trkpt><trkpt lat="45.7231971" lon="11.7222655"><ele>88.0</ele><time>2026-04-25T17:13:04.086Z</time></trkpt><trkpt lat="45.7231006" lon="11.722242"><ele>88.0</ele><time>2026-04-25T17:13:06.086Z</time></trkpt><trkpt lat="45.7229984" lon="11.722221"><ele>88.0</ele><time>2026-04-25T17:13:08.086Z</time></trkpt><trkpt lat="45.7228903" lon="11.7222003"><ele>88.0</ele><time>2026-04-25T17:13:10.087Z</time></trkpt><trkpt lat="45.7227812" lon="11.722183"><ele>88.0</ele><time>2026-04-25T17:13:12.086Z</time></trkpt><trkpt lat="45.7226676" lon="11.7221689"><ele>88.0</ele><time>2026-04-25T17:13:14.086Z</time></trkpt><trkpt lat="45.7226033" lon="11.722156"><ele>88.0</ele><time>2026-04-25T17:13:15.086Z</time></trkpt><trkpt lat="45.722484" lon="11.7221329"><ele>88.0</ele><time>2026-04-25T17:13:17.086Z</time></trkpt><trkpt lat="45.7223669" lon="11.7221216"><ele>87.80000000000001</ele><time>2026-04-25T17:13:19.086Z</time></trkpt><trkpt lat="45.7222514" lon="11.7221004"><ele>87.6</ele><time>2026-04-25T17:13:21.086Z</time></trkpt><trkpt lat="45.7221369" lon="11.722075"><ele>87.4</ele><time>2026-04-25T17:13:23.086Z</time></trkpt><trkpt lat="45.7220736" lon="11.7220626"><ele>87.19999999999999</ele><time>2026-04-25T17:13:24.086Z</time></trkpt><trkpt lat="45.721958" lon="11.7220456"><ele>87.0</ele><time>2026-04-25T17:13:26.086Z</time></trkpt><trkpt lat="45.72184" lon="11.7220282"><ele>87.0</ele><time>2026-04-25T17:13:28.087Z</time></trkpt><trkpt lat="45.721721" lon="11.7219886"><ele>87.0</ele><time>2026-04-25T17:13:30.086Z</time></trkpt><trkpt lat="45.7216041" lon="11.7219389"><ele>87.0</ele><time>2026-04-25T17:13:32.086Z</time></trkpt><trkpt lat="45.7214937" lon="11.7218937"><ele>87.0</ele><time>2026-04-25T17:13:34.086Z</time></trkpt><trkpt lat="45.7213795" lon="11.7218389"><ele>87.0</ele><time>2026-04-25T17:13:36.086Z</time></trkpt><trkpt lat="45.7212744" lon="11.721782"><ele>87.0</ele><time>2026-04-25T17:13:38.086Z</time></trkpt><trkpt lat="45.7211706" lon="11.7217191"><ele>87.0</ele><time>2026-04-25T17:13:40.086Z</time></trkpt><trkpt lat="45.7210571" lon="11.721639"><ele>87.0</ele><time>2026-04-25T17:13:42.087Z</time></trkpt><trkpt lat="45.7209965" lon="11.7216009"><ele>87.0</ele><time>2026-04-25T17:13:43.087Z</time></trkpt><trkpt lat="45.7208888" lon="11.7215242"><ele>87.0</ele><time>2026-04-25T17:13:45.088Z</time></trkpt><trkpt lat="45.7207812" lon="11.7214454"><ele>87.0</ele><time>2026-04-25T17:13:47.087Z</time></trkpt><trkpt lat="45.7206781" lon="11.7213714"><ele>87.0</ele><time>2026-04-25T17:13:49.087Z</time></trkpt><trkpt lat="45.7205711" lon="11.721295"><ele>87.0</ele><time>2026-04-25T17:13:51.087Z</time></trkpt><trkpt lat="45.7204655" lon="11.7212177"><ele>87.0</ele><time>2026-04-25T17:13:53.087Z</time></trkpt><trkpt lat="45.7203639" lon="11.7211384"><ele>87.0</ele><time>2026-04-25T17:13:55.087Z</time></trkpt><trkpt lat="45.7202628" lon="11.721067"><ele>87.0</ele><time>2026-04-25T17:13:57.087Z</time></trkpt><trkpt lat="45.7201533" lon="11.7209893"><ele>87.0</ele><time>2026-04-25T17:13:59.088Z</time></trkpt><trkpt lat="45.720044" lon="11.7209138"><ele>87.0</ele><time>2026-04-25T17:14:01.087Z</time></trkpt><trkpt lat="45.7199374" lon="11.7208349"><ele>87.0</ele><time>2026-04-25T17:14:03.088Z</time></trkpt><trkpt lat="45.719833" lon="11.7207525"><ele>87.0</ele><time>2026-04-25T17:14:05.088Z</time></trkpt><trkpt lat="45.7197244" lon="11.7206753"><ele>87.0</ele><time>2026-04-25T17:14:07.087Z</time></trkpt><trkpt lat="45.7196198" lon="11.7205955"><ele>87.0</ele><time>2026-04-25T17:14:09.087Z</time></trkpt><trkpt lat="45.7195155" lon="11.7205168"><ele>87.0</ele><time>2026-04-25T17:14:11.088Z</time></trkpt><trkpt lat="45.7194106" lon="11.7204424"><ele>87.0</ele><time>2026-04-25T17:14:13.088Z</time></trkpt><trkpt lat="45.719308" lon="11.7203636"><ele>87.0</ele><time>2026-04-25T17:14:15.087Z</time></trkpt><trkpt lat="45.7192148" lon="11.7202541"><ele>87.0</ele><time>2026-04-25T17:14:17.087Z</time></trkpt><trkpt lat="45.7191441" lon="11.7201101"><ele>87.0</ele><time>2026-04-25T17:14:19.087Z</time></trkpt><trkpt lat="45.7190704" lon="11.7199837"><ele>87.0</ele><time>2026-04-25T17:14:21.088Z</time></trkpt><trkpt lat="45.7189568" lon="11.7199491"><ele>87.0</ele><time>2026-04-25T17:14:23.087Z</time></trkpt><trkpt lat="45.7188464" lon="11.7200168"><ele>87.0</ele><time>2026-04-25T17:14:25.087Z</time></trkpt><trkpt lat="45.7187329" lon="11.7200386"><ele>87.0</ele><time>2026-04-25T17:14:27.087Z</time></trkpt><trkpt lat="45.718626" lon="11.7199469"><ele>87.0</ele><time>2026-04-25T17:14:29.087Z</time></trkpt><trkpt lat="45.7185668" lon="11.7198966"><ele>87.0</ele><time>2026-04-25T17:14:30.088Z</time></trkpt><trkpt lat="45.7185077" lon="11.7198521"><ele>87.0</ele><time>2026-04-25T17:14:31.088Z</time></trkpt><trkpt lat="45.718445" lon="11.7198135"><ele>87.0</ele><time>2026-04-25T17:14:32.087Z</time></trkpt><trkpt lat="45.7183846" lon="11.7197716"><ele>87.16666666666667</ele><time>2026-04-25T17:14:33.087Z</time></trkpt><trkpt lat="45.7183265" lon="11.7197275"><ele>87.33333333333333</ele><time>2026-04-25T17:14:34.087Z</time></trkpt><trkpt lat="45.7182683" lon="11.7196821"><ele>87.5</ele><time>2026-04-25T17:14:35.087Z</time></trkpt><trkpt lat="45.7181609" lon="11.7195908"><ele>87.66666666666666</ele><time>2026-04-25T17:14:37.088Z</time></trkpt><trkpt lat="45.7181054" lon="11.7195462"><ele>87.83333333333333</ele><time>2026-04-25T17:14:38.087Z</time></trkpt><trkpt lat="45.7179968" lon="11.7194626"><ele>88.0</ele><time>2026-04-25T17:14:40.089Z</time></trkpt><trkpt lat="45.7178884" lon="11.7193804"><ele>87.71428571428572</ele><time>2026-04-25T17:14:42.088Z</time></trkpt><trkpt lat="45.7177815" lon="11.7192877"><ele>87.42857142857143</ele><time>2026-04-25T17:14:44.088Z</time></trkpt><trkpt lat="45.7177272" lon="11.7192402"><ele>87.14285714285714</ele><time>2026-04-25T17:14:45.088Z</time></trkpt><trkpt lat="45.7176723" lon="11.7191935"><ele>86.85714285714286</ele><time>2026-04-25T17:14:46.088Z</time></trkpt><trkpt lat="45.7176154" lon="11.7191472"><ele>86.57142857142857</ele><time>2026-04-25T17:14:47.088Z</time></trkpt><trkpt lat="45.7175584" lon="11.7191019"><ele>86.28571428571429</ele><time>2026-04-25T17:14:48.088Z</time></trkpt><trkpt lat="45.7175024" lon="11.7190543"><ele>86.0</ele><time>2026-04-25T17:14:49.088Z</time></trkpt><trkpt lat="45.7174466" lon="11.7190062"><ele>85.85714285714286</ele><time>2026-04-25T17:14:50.088Z</time></trkpt><trkpt lat="45.7173915" lon="11.7189624"><ele>85.71428571428572</ele><time>2026-04-25T17:14:51.088Z</time></trkpt><trkpt lat="45.7173357" lon="11.7189176"><ele>85.57142857142858</ele><time>2026-04-25T17:14:52.088Z</time></trkpt><trkpt lat="45.7172794" lon="11.7188701"><ele>85.42857142857143</ele><time>2026-04-25T17:14:53.088Z</time></trkpt><trkpt lat="45.7172226" lon="11.7188235"><ele>85.28571428571428</ele><time>2026-04-25T17:14:54.088Z</time></trkpt><trkpt lat="45.7171648" lon="11.7187759"><ele>85.14285714285715</ele><time>2026-04-25T17:14:55.088Z</time></trkpt><trkpt lat="45.7171063" lon="11.7187275"><ele>85.0</ele><time>2026-04-25T17:14:56.089Z</time></trkpt><trkpt lat="45.7170474" lon="11.7186783"><ele>85.0</ele><time>2026-04-25T17:14:57.088Z</time></trkpt><trkpt lat="45.7169871" lon="11.7186296"><ele>85.0</ele><time>2026-04-25T17:14:58.088Z</time></trkpt><trkpt lat="45.7169272" lon="11.7185829"><ele>85.0</ele><time>2026-04-25T17:14:59.088Z</time></trkpt><trkpt lat="45.7168678" lon="11.718535"><ele>85.0</ele><time>2026-04-25T17:15:00.088Z</time></trkpt><trkpt lat="45.7168069" lon="11.7184859"><ele>85.0</ele><time>2026-04-25T17:15:01.089Z</time></trkpt><trkpt lat="45.7167473" lon="11.71844"><ele>85.0</ele><time>2026-04-25T17:15:02.088Z</time></trkpt><trkpt lat="45.7166869" lon="11.7183967"><ele>85.0</ele><time>2026-04-25T17:15:03.088Z</time></trkpt><trkpt lat="45.7166273" lon="11.7183536"><ele>84.85714285714286</ele><time>2026-04-25T17:15:04.088Z</time></trkpt><trkpt lat="45.7165659" lon="11.7183069"><ele>84.71428571428571</ele><time>2026-04-25T17:15:05.088Z</time></trkpt><trkpt lat="45.7165045" lon="11.7182628"><ele>84.57142857142857</ele><time>2026-04-25T17:15:06.089Z</time></trkpt><trkpt lat="45.7164431" lon="11.7182193"><ele>84.42857142857143</ele><time>2026-04-25T17:15:07.088Z</time></trkpt><trkpt lat="45.7163801" lon="11.7181757"><ele>84.28571428571428</ele><time>2026-04-25T17:15:08.089Z</time></trkpt><trkpt lat="45.7163203" lon="11.7181331"><ele>84.14285714285714</ele><time>2026-04-25T17:15:09.088Z</time></trkpt><trkpt lat="45.7162614" lon="11.7180921"><ele>84.0</ele><time>2026-04-25T17:15:10.088Z</time></trkpt><trkpt lat="45.7161466" lon="11.7180185"><ele>84.0</ele><time>2026-04-25T17:15:12.088Z</time></trkpt><trkpt lat="45.7160871" lon="11.7179811"><ele>84.0</ele><time>2026-04-25T17:15:13.088Z</time></trkpt><trkpt lat="45.7160296" lon="11.7179443"><ele>84.0</ele><time>2026-04-25T17:15:14.088Z</time></trkpt><trkpt lat="45.7159171" lon="11.7178742"><ele>84.0</ele><time>2026-04-25T17:15:16.088Z</time></trkpt><trkpt lat="45.7158038" lon="11.7177978"><ele>84.0</ele><time>2026-04-25T17:15:18.088Z</time></trkpt><trkpt lat="45.7157463" lon="11.7177578"><ele>84.0</ele><time>2026-04-25T17:15:19.089Z</time></trkpt><trkpt lat="45.7156881" lon="11.7177219"><ele>84.0</ele><time>2026-04-25T17:15:20.088Z</time></trkpt><trkpt lat="45.7156286" lon="11.7176895"><ele>84.0</ele><time>2026-04-25T17:15:21.089Z</time></trkpt><trkpt lat="45.7155696" lon="11.7176541"><ele>84.0</ele><time>2026-04-25T17:15:22.088Z</time></trkpt><trkpt lat="45.7155118" lon="11.7176135"><ele>84.0</ele><time>2026-04-25T17:15:23.088Z</time></trkpt><trkpt lat="45.7154542" lon="11.7175705"><ele>84.0</ele><time>2026-04-25T17:15:24.088Z</time></trkpt><trkpt lat="45.7153961" lon="11.7175279"><ele>84.0</ele><time>2026-04-25T17:15:25.088Z</time></trkpt><trkpt lat="45.7153361" lon="11.7174873"><ele>84.0</ele><time>2026-04-25T17:15:26.088Z</time></trkpt><trkpt lat="45.715276" lon="11.7174468"><ele>83.85714285714286</ele><time>2026-04-25T17:15:27.089Z</time></trkpt><trkpt lat="45.7152168" lon="11.7174074"><ele>83.71428571428572</ele><time>2026-04-25T17:15:28.088Z</time></trkpt><trkpt lat="45.715158" lon="11.7173674"><ele>83.57142857142857</ele><time>2026-04-25T17:15:29.088Z</time></trkpt><trkpt lat="45.7151006" lon="11.7173274"><ele>83.42857142857143</ele><time>2026-04-25T17:15:30.088Z</time></trkpt><trkpt lat="45.7150435" lon="11.7172892"><ele>83.28571428571429</ele><time>2026-04-25T17:15:31.088Z</time></trkpt><trkpt lat="45.7149835" lon="11.7172506"><ele>83.14285714285714</ele><time>2026-04-25T17:15:32.088Z</time></trkpt><trkpt lat="45.7149242" lon="11.717213"><ele>83.0</ele><time>2026-04-25T17:15:33.088Z</time></trkpt><trkpt lat="45.7148661" lon="11.7171737"><ele>83.0</ele><time>2026-04-25T17:15:34.088Z</time></trkpt><trkpt lat="45.7148079" lon="11.7171328"><ele>83.0</ele><time>2026-04-25T17:15:35.088Z</time></trkpt><trkpt lat="45.7147479" lon="11.7170921"><ele>83.0</ele><time>2026-04-25T17:15:36.089Z</time></trkpt><trkpt lat="45.7146901" lon="11.7170552"><ele>83.0</ele><time>2026-04-25T17:15:37.088Z</time></trkpt><trkpt lat="45.7146324" lon="11.7170159"><ele>83.0</ele><time>2026-04-25T17:15:38.088Z</time></trkpt><trkpt lat="45.7145736" lon="11.7169774"><ele>83.0</ele><time>2026-04-25T17:15:39.088Z</time></trkpt><trkpt lat="45.7145161" lon="11.7169376"><ele>83.0</ele><time>2026-04-25T17:15:40.089Z</time></trkpt><trkpt lat="45.714457" lon="11.7168969"><ele>83.16666666666667</ele><time>2026-04-25T17:15:41.089Z</time></trkpt><trkpt lat="45.7143987" lon="11.7168578"><ele>83.33333333333334</ele><time>2026-04-25T17:15:42.089Z</time></trkpt><trkpt lat="45.714341" lon="11.7168186"><ele>83.5</ele><time>2026-04-25T17:15:43.089Z</time></trkpt><trkpt lat="45.7142835" lon="11.7167749"><ele>83.66666666666667</ele><time>2026-04-25T17:15:44.089Z</time></trkpt><trkpt lat="45.7141751" lon="11.7166895"><ele>83.83333333333333</ele><time>2026-04-25T17:15:46.089Z</time></trkpt><trkpt lat="45.71407" lon="11.7166058"><ele>84.0</ele><time>2026-04-25T17:15:48.089Z</time></trkpt><trkpt lat="45.7139674" lon="11.7165239"><ele>84.0</ele><time>2026-04-25T17:15:50.089Z</time></trkpt><trkpt lat="45.713874" lon="11.7164569"><ele>84.0</ele><time>2026-04-25T17:15:52.09Z</time></trkpt><trkpt lat="45.713771" lon="11.7163646"><ele>84.0</ele><time>2026-04-25T17:15:54.089Z</time></trkpt><trkpt lat="45.7136671" lon="11.7162788"><ele>84.0</ele><time>2026-04-25T17:15:56.089Z</time></trkpt><trkpt lat="45.7135682" lon="11.7161973"><ele>84.0</ele><time>2026-04-25T17:15:58.089Z</time></trkpt><trkpt lat="45.7134724" lon="11.7161133"><ele>84.0</ele><time>2026-04-25T17:16:00.089Z</time></trkpt><trkpt lat="45.7133707" lon="11.7160193"><ele>84.0</ele><time>2026-04-25T17:16:02.089Z</time></trkpt><trkpt lat="45.713264" lon="11.7159311"><ele>84.0</ele><time>2026-04-25T17:16:04.089Z</time></trkpt><trkpt lat="45.7131595" lon="11.7158395"><ele>84.0</ele><time>2026-04-25T17:16:06.09Z</time></trkpt><trkpt lat="45.7130516" lon="11.7157461"><ele>84.0</ele><time>2026-04-25T17:16:08.089Z</time></trkpt><trkpt lat="45.7129465" lon="11.7156556"><ele>84.0</ele><time>2026-04-25T17:16:10.089Z</time></trkpt><trkpt lat="45.712845" lon="11.7155544"><ele>84.0</ele><time>2026-04-25T17:16:12.089Z</time></trkpt><trkpt lat="45.7127931" lon="11.7155002"><ele>84.0</ele><time>2026-04-25T17:16:13.089Z</time></trkpt><trkpt lat="45.7127388" lon="11.7154458"><ele>83.6</ele><time>2026-04-25T17:16:14.089Z</time></trkpt><trkpt lat="45.7126871" lon="11.7153899"><ele>83.2</ele><time>2026-04-25T17:16:15.089Z</time></trkpt><trkpt lat="45.7126369" lon="11.7153307"><ele>82.8</ele><time>2026-04-25T17:16:16.09Z</time></trkpt><trkpt lat="45.7125442" lon="11.715212"><ele>82.39999999999999</ele><time>2026-04-25T17:16:18.089Z</time></trkpt><trkpt lat="45.7124472" lon="11.7151023"><ele>82.0</ele><time>2026-04-25T17:16:20.089Z</time></trkpt><trkpt lat="45.7123529" lon="11.7149978"><ele>81.83333333333333</ele><time>2026-04-25T17:16:22.089Z</time></trkpt><trkpt lat="45.7122534" lon="11.714896"><ele>81.66666666666666</ele><time>2026-04-25T17:16:24.089Z</time></trkpt><trkpt lat="45.7121409" lon="11.714822"><ele>81.5</ele><time>2026-04-25T17:16:26.089Z</time></trkpt><trkpt lat="45.7120804" lon="11.714792"><ele>81.33333333333333</ele><time>2026-04-25T17:16:27.089Z</time></trkpt><trkpt lat="45.7120176" lon="11.7147683"><ele>81.16666666666667</ele><time>2026-04-25T17:16:28.09Z</time></trkpt><trkpt lat="45.7119534" lon="11.7147477"><ele>81.0</ele><time>2026-04-25T17:16:29.089Z</time></trkpt><trkpt lat="45.7118901" lon="11.7147296"><ele>81.28571428571429</ele><time>2026-04-25T17:16:30.089Z</time></trkpt><trkpt lat="45.7118277" lon="11.7147122"><ele>81.57142857142857</ele><time>2026-04-25T17:16:31.09Z</time></trkpt><trkpt lat="45.7117648" lon="11.7146935"><ele>81.85714285714286</ele><time>2026-04-25T17:16:32.089Z</time></trkpt><trkpt lat="45.7117032" lon="11.7146742"><ele>82.14285714285714</ele><time>2026-04-25T17:16:33.09Z</time></trkpt><trkpt lat="45.7115807" lon="11.7146315"><ele>82.42857142857143</ele><time>2026-04-25T17:16:35.089Z</time></trkpt><trkpt lat="45.7115178" lon="11.7146105"><ele>82.71428571428571</ele><time>2026-04-25T17:16:36.089Z</time></trkpt><trkpt lat="45.7114558" lon="11.7145914"><ele>83.0</ele><time>2026-04-25T17:16:37.089Z</time></trkpt><trkpt lat="45.7113932" lon="11.7145729"><ele>83.0</ele><time>2026-04-25T17:16:38.09Z</time></trkpt><trkpt lat="45.7112717" lon="11.7145254"><ele>83.0</ele><time>2026-04-25T17:16:40.09Z</time></trkpt><trkpt lat="45.7111471" lon="11.7144761"><ele>83.0</ele><time>2026-04-25T17:16:42.09Z</time></trkpt><trkpt lat="45.7110268" lon="11.7144304"><ele>83.0</ele><time>2026-04-25T17:16:44.09Z</time></trkpt><trkpt lat="45.7109654" lon="11.7144045"><ele>83.0</ele><time>2026-04-25T17:16:45.09Z</time></trkpt><trkpt lat="45.7108472" lon="11.7143448"><ele>83.0</ele><time>2026-04-25T17:16:47.09Z</time></trkpt><trkpt lat="45.7107876" lon="11.7143119"><ele>83.0</ele><time>2026-04-25T17:16:48.091Z</time></trkpt><trkpt lat="45.7107284" lon="11.714279"><ele>83.0</ele><time>2026-04-25T17:16:49.09Z</time></trkpt><trkpt lat="45.7106129" lon="11.7142153"><ele>83.0</ele><time>2026-04-25T17:16:51.091Z</time></trkpt><trkpt lat="45.7105549" lon="11.7141795"><ele>83.0</ele><time>2026-04-25T17:16:52.09Z</time></trkpt><trkpt lat="45.7104952" lon="11.714144"><ele>83.0</ele><time>2026-04-25T17:16:53.09Z</time></trkpt><trkpt lat="45.7104354" lon="11.7141086"><ele>83.0</ele><time>2026-04-25T17:16:54.09Z</time></trkpt><trkpt lat="45.7103202" lon="11.7140416"><ele>83.0</ele><time>2026-04-25T17:16:56.09Z</time></trkpt><trkpt lat="45.7102616" lon="11.7140066"><ele>83.0</ele><time>2026-04-25T17:16:57.09Z</time></trkpt><trkpt lat="45.7102033" lon="11.7139719"><ele>83.0</ele><time>2026-04-25T17:16:58.09Z</time></trkpt><trkpt lat="45.7100916" lon="11.7139034"><ele>83.0</ele><time>2026-04-25T17:17:00.091Z</time></trkpt><trkpt lat="45.7100336" lon="11.7138668"><ele>83.0</ele><time>2026-04-25T17:17:01.09Z</time></trkpt><trkpt lat="45.7099739" lon="11.7138303"><ele>83.0</ele><time>2026-04-25T17:17:02.09Z</time></trkpt><trkpt lat="45.7099131" lon="11.7137917"><ele>83.0</ele><time>2026-04-25T17:17:03.091Z</time></trkpt><trkpt lat="45.7098516" lon="11.7137547"><ele>83.0</ele><time>2026-04-25T17:17:04.091Z</time></trkpt><trkpt lat="45.7097922" lon="11.7137173"><ele>83.0</ele><time>2026-04-25T17:17:05.09Z</time></trkpt><trkpt lat="45.7097342" lon="11.7136776"><ele>83.0</ele><time>2026-04-25T17:17:06.09Z</time></trkpt><trkpt lat="45.7096767" lon="11.7136368"><ele>83.0</ele><time>2026-04-25T17:17:07.09Z</time></trkpt><trkpt lat="45.7096195" lon="11.7135946"><ele>83.0</ele><time>2026-04-25T17:17:08.09Z</time></trkpt><trkpt lat="45.7095627" lon="11.7135544"><ele>83.0</ele><time>2026-04-25T17:17:09.09Z</time></trkpt><trkpt lat="45.7094474" lon="11.7134761"><ele>83.0</ele><time>2026-04-25T17:17:11.09Z</time></trkpt><trkpt lat="45.7093903" lon="11.7134357"><ele>82.60000000000001</ele><time>2026-04-25T17:17:12.09Z</time></trkpt><trkpt lat="45.7093329" lon="11.7133956"><ele>82.2</ele><time>2026-04-25T17:17:13.09Z</time></trkpt><trkpt lat="45.7092226" lon="11.7133162"><ele>81.8</ele><time>2026-04-25T17:17:15.09Z</time></trkpt><trkpt lat="45.7091109" lon="11.7132408"><ele>81.4</ele><time>2026-04-25T17:17:17.09Z</time></trkpt><trkpt lat="45.7090025" lon="11.7131676"><ele>81.0</ele><time>2026-04-25T17:17:19.09Z</time></trkpt><trkpt lat="45.7088986" lon="11.7130937"><ele>81.0</ele><time>2026-04-25T17:17:21.09Z</time></trkpt><trkpt lat="45.7087949" lon="11.7130202"><ele>81.0</ele><time>2026-04-25T17:17:23.091Z</time></trkpt><trkpt lat="45.7086874" lon="11.7129457"><ele>81.0</ele><time>2026-04-25T17:17:25.09Z</time></trkpt><trkpt lat="45.708577" lon="11.712871"><ele>81.0</ele><time>2026-04-25T17:17:27.09Z</time></trkpt><trkpt lat="45.7084663" lon="11.7128005"><ele>81.0</ele><time>2026-04-25T17:17:29.09Z</time></trkpt><trkpt lat="45.7083572" lon="11.712735"><ele>81.0</ele><time>2026-04-25T17:17:31.09Z</time></trkpt><trkpt lat="45.7082449" lon="11.7126632"><ele>81.0</ele><time>2026-04-25T17:17:33.09Z</time></trkpt><trkpt lat="45.7081411" lon="11.712587"><ele>81.0</ele><time>2026-04-25T17:17:35.09Z</time></trkpt><trkpt lat="45.7080361" lon="11.7125048"><ele>81.0</ele><time>2026-04-25T17:17:37.091Z</time></trkpt><trkpt lat="45.7079371" lon="11.7124162"><ele>81.0</ele><time>2026-04-25T17:17:39.091Z</time></trkpt><trkpt lat="45.7078382" lon="11.7123272"><ele>81.0</ele><time>2026-04-25T17:17:41.091Z</time></trkpt><trkpt lat="45.7077357" lon="11.712239"><ele>81.0</ele><time>2026-04-25T17:17:43.091Z</time></trkpt><trkpt lat="45.7076324" lon="11.7121467"><ele>81.0</ele><time>2026-04-25T17:17:45.091Z</time></trkpt><trkpt lat="45.7075302" lon="11.7120491"><ele>81.0</ele><time>2026-04-25T17:17:47.091Z</time></trkpt><trkpt lat="45.7074765" lon="11.7120008"><ele>81.0</ele><time>2026-04-25T17:17:48.091Z</time></trkpt><trkpt lat="45.7074212" lon="11.7119514"><ele>81.0</ele><time>2026-04-25T17:17:49.091Z</time></trkpt><trkpt lat="45.7073205" lon="11.7118616"><ele>81.0</ele><time>2026-04-25T17:17:51.091Z</time></trkpt><trkpt lat="45.7072223" lon="11.7117824"><ele>81.0</ele><time>2026-04-25T17:17:53.091Z</time></trkpt><trkpt lat="45.7071132" lon="11.7116926"><ele>81.0</ele><time>2026-04-25T17:17:55.091Z</time></trkpt><trkpt lat="45.7070568" lon="11.7116492"><ele>81.0</ele><time>2026-04-25T17:17:56.091Z</time></trkpt><trkpt lat="45.7069475" lon="11.7115641"><ele>81.0</ele><time>2026-04-25T17:17:58.092Z</time></trkpt><trkpt lat="45.7068439" lon="11.7114872"><ele>81.0</ele><time>2026-04-25T17:18:00.091Z</time></trkpt><trkpt lat="45.7067357" lon="11.7114061"><ele>80.25</ele><time>2026-04-25T17:18:02.092Z</time></trkpt><trkpt lat="45.7066247" lon="11.7113376"><ele>79.5</ele><time>2026-04-25T17:18:04.091Z</time></trkpt><trkpt lat="45.7065132" lon="11.7112821"><ele>78.75</ele><time>2026-04-25T17:18:06.091Z</time></trkpt><trkpt lat="45.7063941" lon="11.7112334"><ele>78.0</ele><time>2026-04-25T17:18:08.091Z</time></trkpt><trkpt lat="45.7062777" lon="11.7111887"><ele>78.0</ele><time>2026-04-25T17:18:10.091Z</time></trkpt><trkpt lat="45.7061659" lon="11.7111563"><ele>78.0</ele><time>2026-04-25T17:18:12.091Z</time></trkpt><trkpt lat="45.7060496" lon="11.7111246"><ele>78.0</ele><time>2026-04-25T17:18:14.091Z</time></trkpt><trkpt lat="45.7059331" lon="11.7110925"><ele>78.0</ele><time>2026-04-25T17:18:16.091Z</time></trkpt><trkpt lat="45.7058174" lon="11.7110557"><ele>77.6</ele><time>2026-04-25T17:18:18.092Z</time></trkpt><trkpt lat="45.7057023" lon="11.7110221"><ele>77.19999999999999</ele><time>2026-04-25T17:18:20.091Z</time></trkpt><trkpt lat="45.7055915" lon="11.7109896"><ele>76.8</ele><time>2026-04-25T17:18:22.091Z</time></trkpt><trkpt lat="45.7054839" lon="11.7109558"><ele>76.39999999999999</ele><time>2026-04-25T17:18:24.091Z</time></trkpt><trkpt lat="45.7053821" lon="11.7109206"><ele>76.0</ele><time>2026-04-25T17:18:26.091Z</time></trkpt><trkpt lat="45.7052814" lon="11.7108931"><ele>76.25</ele><time>2026-04-25T17:18:28.091Z</time></trkpt><trkpt lat="45.7051693" lon="11.7108628"><ele>76.5</ele><time>2026-04-25T17:18:30.091Z</time></trkpt><trkpt lat="45.7050608" lon="11.7108322"><ele>76.75</ele><time>2026-04-25T17:18:32.092Z</time></trkpt><trkpt lat="45.7049497" lon="11.710804"><ele>77.0</ele><time>2026-04-25T17:18:34.091Z</time></trkpt><trkpt lat="45.7048321" lon="11.7107649"><ele>77.0</ele><time>2026-04-25T17:18:36.092Z</time></trkpt><trkpt lat="45.704722" lon="11.7107254"><ele>77.0</ele><time>2026-04-25T17:18:38.092Z</time></trkpt><trkpt lat="45.7046574" lon="11.7107107"><ele>77.0</ele><time>2026-04-25T17:18:39.092Z</time></trkpt><trkpt lat="45.7045346" lon="11.7106756"><ele>77.0</ele><time>2026-04-25T17:18:41.093Z</time></trkpt><trkpt lat="45.7044118" lon="11.7106352"><ele>77.0</ele><time>2026-04-25T17:18:43.092Z</time></trkpt><trkpt lat="45.704297" lon="11.7105978"><ele>77.5</ele><time>2026-04-25T17:18:45.092Z</time></trkpt><trkpt lat="45.7041785" lon="11.7105644"><ele>78.0</ele><time>2026-04-25T17:18:47.092Z</time></trkpt><trkpt lat="45.7040582" lon="11.7105253"><ele>78.5</ele><time>2026-04-25T17:18:49.092Z</time></trkpt><trkpt lat="45.7039398" lon="11.7104853"><ele>79.0</ele><time>2026-04-25T17:18:51.092Z</time></trkpt><trkpt lat="45.7038209" lon="11.710447"><ele>79.0</ele><time>2026-04-25T17:18:53.092Z</time></trkpt><trkpt lat="45.7037019" lon="11.7104017"><ele>79.0</ele><time>2026-04-25T17:18:55.092Z</time></trkpt><trkpt lat="45.7035947" lon="11.7103432"><ele>79.0</ele><time>2026-04-25T17:18:57.092Z</time></trkpt><trkpt lat="45.7034828" lon="11.710273"><ele>79.0</ele><time>2026-04-25T17:18:59.093Z</time></trkpt><trkpt lat="45.7034196" lon="11.7102423"><ele>79.0</ele><time>2026-04-25T17:19:00.092Z</time></trkpt><trkpt lat="45.7033595" lon="11.7102118"><ele>79.2</ele><time>2026-04-25T17:19:01.093Z</time></trkpt><trkpt lat="45.7033002" lon="11.7101805"><ele>79.4</ele><time>2026-04-25T17:19:02.092Z</time></trkpt><trkpt lat="45.7031855" lon="11.7101243"><ele>79.6</ele><time>2026-04-25T17:19:04.092Z</time></trkpt><trkpt lat="45.7030741" lon="11.7100746"><ele>79.8</ele><time>2026-04-25T17:19:06.092Z</time></trkpt><trkpt lat="45.702964" lon="11.7100203"><ele>80.0</ele><time>2026-04-25T17:19:08.092Z</time></trkpt><trkpt lat="45.7028605" lon="11.7099624"><ele>79.5</ele><time>2026-04-25T17:19:10.092Z</time></trkpt><trkpt lat="45.7027465" lon="11.7099079"><ele>79.0</ele><time>2026-04-25T17:19:12.092Z</time></trkpt><trkpt lat="45.7026347" lon="11.7098406"><ele>78.5</ele><time>2026-04-25T17:19:14.092Z</time></trkpt><trkpt lat="45.7025343" lon="11.70975"><ele>78.0</ele><time>2026-04-25T17:19:16.092Z</time></trkpt><trkpt lat="45.7024273" lon="11.7096405"><ele>78.0</ele><time>2026-04-25T17:19:18.092Z</time></trkpt><trkpt lat="45.7023747" lon="11.7095798"><ele>78.0</ele><time>2026-04-25T17:19:19.092Z</time></trkpt><trkpt lat="45.7023228" lon="11.709519"><ele>78.0</ele><time>2026-04-25T17:19:20.093Z</time></trkpt><trkpt lat="45.7022703" lon="11.7094601"><ele>78.0</ele><time>2026-04-25T17:19:21.093Z</time></trkpt><trkpt lat="45.702217" lon="11.7094045"><ele>78.0</ele><time>2026-04-25T17:19:22.092Z</time></trkpt><trkpt lat="45.702162" lon="11.7093466"><ele>78.0</ele><time>2026-04-25T17:19:23.092Z</time></trkpt><trkpt lat="45.7021055" lon="11.7092905"><ele>78.0</ele><time>2026-04-25T17:19:24.092Z</time></trkpt><trkpt lat="45.7020476" lon="11.7092413"><ele>78.0</ele><time>2026-04-25T17:19:25.092Z</time></trkpt><trkpt lat="45.7019907" lon="11.7091977"><ele>78.0</ele><time>2026-04-25T17:19:26.092Z</time></trkpt><trkpt lat="45.7018845" lon="11.7091149"><ele>78.0</ele><time>2026-04-25T17:19:28.092Z</time></trkpt><trkpt lat="45.7017792" lon="11.7090577"><ele>78.0</ele><time>2026-04-25T17:19:30.092Z</time></trkpt><trkpt lat="45.7016655" lon="11.7090095"><ele>78.0</ele><time>2026-04-25T17:19:32.092Z</time></trkpt><trkpt lat="45.7015558" lon="11.7089624"><ele>77.75</ele><time>2026-04-25T17:19:34.094Z</time></trkpt><trkpt lat="45.7014386" lon="11.7089463"><ele>77.5</ele><time>2026-04-25T17:19:36.093Z</time></trkpt><trkpt lat="45.7013245" lon="11.7089442"><ele>77.25</ele><time>2026-04-25T17:19:38.093Z</time></trkpt><trkpt lat="45.7012019" lon="11.708951"><ele>77.0</ele><time>2026-04-25T17:19:40.093Z</time></trkpt><trkpt lat="45.701084" lon="11.7089656"><ele>77.0</ele><time>2026-04-25T17:19:42.093Z</time></trkpt><trkpt lat="45.7009691" lon="11.7089833"><ele>77.0</ele><time>2026-04-25T17:19:44.093Z</time></trkpt><trkpt lat="45.7008553" lon="11.7089955"><ele>77.0</ele><time>2026-04-25T17:19:46.094Z</time></trkpt><trkpt lat="45.7007415" lon="11.7090048"><ele>77.0</ele><time>2026-04-25T17:19:48.093Z</time></trkpt><trkpt lat="45.7006265" lon="11.7090176"><ele>77.0</ele><time>2026-04-25T17:19:50.093Z</time></trkpt><trkpt lat="45.7005103" lon="11.7090372"><ele>77.0</ele><time>2026-04-25T17:19:52.093Z</time></trkpt><trkpt lat="45.7003984" lon="11.7090499"><ele>77.0</ele><time>2026-04-25T17:19:54.093Z</time></trkpt><trkpt lat="45.7002869" lon="11.7090505"><ele>77.0</ele><time>2026-04-25T17:19:56.093Z</time></trkpt><trkpt lat="45.7001664" lon="11.7090592"><ele>76.75</ele><time>2026-04-25T17:19:58.093Z</time></trkpt><trkpt lat="45.7000517" lon="11.7090631"><ele>76.5</ele><time>2026-04-25T17:20:00.093Z</time></trkpt><trkpt lat="45.6999282" lon="11.7090626"><ele>76.25</ele><time>2026-04-25T17:20:02.093Z</time></trkpt><trkpt lat="45.6998072" lon="11.709042"><ele>76.0</ele><time>2026-04-25T17:20:04.093Z</time></trkpt><trkpt lat="45.6996921" lon="11.7090062"><ele>76.0</ele><time>2026-04-25T17:20:06.093Z</time></trkpt><trkpt lat="45.6995782" lon="11.70898"><ele>76.0</ele><time>2026-04-25T17:20:08.093Z</time></trkpt><trkpt lat="45.6994599" lon="11.7089595"><ele>76.0</ele><time>2026-04-25T17:20:10.093Z</time></trkpt><trkpt lat="45.6993308" lon="11.7089371"><ele>76.0</ele><time>2026-04-25T17:20:12.093Z</time></trkpt><trkpt lat="45.6992555" lon="11.7089309"><ele>76.0</ele><time>2026-04-25T17:20:13.093Z</time></trkpt><trkpt lat="45.6991829" lon="11.7089164"><ele>76.0</ele><time>2026-04-25T17:20:14.093Z</time></trkpt><trkpt lat="45.6991161" lon="11.7088998"><ele>76.0</ele><time>2026-04-25T17:20:15.094Z</time></trkpt><trkpt lat="45.6989978" lon="11.7088809"><ele>76.0</ele><time>2026-04-25T17:20:17.093Z</time></trkpt><trkpt lat="45.6988739" lon="11.7088731"><ele>76.0</ele><time>2026-04-25T17:20:19.093Z</time></trkpt><trkpt lat="45.6987565" lon="11.7088567"><ele>76.0</ele><time>2026-04-25T17:20:21.093Z</time></trkpt><trkpt lat="45.6986409" lon="11.7088403"><ele>76.0</ele><time>2026-04-25T17:20:23.093Z</time></trkpt><trkpt lat="45.6985156" lon="11.7088054"><ele>76.0</ele><time>2026-04-25T17:20:25.093Z</time></trkpt><trkpt lat="45.6983923" lon="11.7087878"><ele>76.0</ele><time>2026-04-25T17:20:27.093Z</time></trkpt><trkpt lat="45.6983292" lon="11.7087807"><ele>76.0</ele><time>2026-04-25T17:20:28.093Z</time></trkpt><trkpt lat="45.6982041" lon="11.7087432"><ele>76.0</ele><time>2026-04-25T17:20:30.094Z</time></trkpt><trkpt lat="45.6980874" lon="11.7087003"><ele>76.0</ele><time>2026-04-25T17:20:32.094Z</time></trkpt><trkpt lat="45.6979751" lon="11.7086756"><ele>76.0</ele><time>2026-04-25T17:20:34.094Z</time></trkpt><trkpt lat="45.6978559" lon="11.7086331"><ele>76.0</ele><time>2026-04-25T17:20:36.094Z</time></trkpt><trkpt lat="45.6977489" lon="11.7085853"><ele>76.0</ele><time>2026-04-25T17:20:38.094Z</time></trkpt><trkpt lat="45.697639" lon="11.7085392"><ele>75.8</ele><time>2026-04-25T17:20:40.094Z</time></trkpt><trkpt lat="45.6975205" lon="11.7085001"><ele>75.6</ele><time>2026-04-25T17:20:42.094Z</time></trkpt><trkpt lat="45.6973984" lon="11.7084629"><ele>75.4</ele><time>2026-04-25T17:20:44.094Z</time></trkpt><trkpt lat="45.6973359" lon="11.7084403"><ele>75.2</ele><time>2026-04-25T17:20:45.094Z</time></trkpt><trkpt lat="45.697222" lon="11.7084008"><ele>75.0</ele><time>2026-04-25T17:20:47.094Z</time></trkpt><trkpt lat="45.6971066" lon="11.7083722"><ele>75.0</ele><time>2026-04-25T17:20:49.094Z</time></trkpt><trkpt lat="45.6969825" lon="11.7083506"><ele>75.0</ele><time>2026-04-25T17:20:51.094Z</time></trkpt><trkpt lat="45.6969194" lon="11.7083451"><ele>75.0</ele><time>2026-04-25T17:20:52.094Z</time></trkpt><trkpt lat="45.6968026" lon="11.7083313"><ele>75.0</ele><time>2026-04-25T17:20:54.094Z</time></trkpt><trkpt lat="45.6966881" lon="11.7083136"><ele>75.0</ele><time>2026-04-25T17:20:56.094Z</time></trkpt><trkpt lat="45.6965692" lon="11.7083048"><ele>75.0</ele><time>2026-04-25T17:20:58.094Z</time></trkpt><trkpt lat="45.6964613" lon="11.7083014"><ele>75.0</ele><time>2026-04-25T17:21:00.094Z</time></trkpt><trkpt lat="45.6963542" lon="11.7082906"><ele>75.0</ele><time>2026-04-25T17:21:02.094Z</time></trkpt><trkpt lat="45.6962911" lon="11.7082811"><ele>75.0</ele><time>2026-04-25T17:21:03.094Z</time></trkpt><trkpt lat="45.6962277" lon="11.7082702"><ele>75.0</ele><time>2026-04-25T17:21:04.094Z</time></trkpt><trkpt lat="45.6961638" lon="11.7082622"><ele>75.0</ele><time>2026-04-25T17:21:05.094Z</time></trkpt><trkpt lat="45.6960482" lon="11.7082364"><ele>75.0</ele><time>2026-04-25T17:21:07.094Z</time></trkpt><trkpt lat="45.695939" lon="11.7082115"><ele>75.0</ele><time>2026-04-25T17:21:09.094Z</time></trkpt><trkpt lat="45.6958235" lon="11.7082122"><ele>75.0</ele><time>2026-04-25T17:21:11.094Z</time></trkpt><trkpt lat="45.695705" lon="11.7082069"><ele>75.0</ele><time>2026-04-25T17:21:13.094Z</time></trkpt><trkpt lat="45.6955888" lon="11.7081779"><ele>75.0</ele><time>2026-04-25T17:21:15.094Z</time></trkpt><trkpt lat="45.6954791" lon="11.7081461"><ele>75.0</ele><time>2026-04-25T17:21:17.095Z</time></trkpt><trkpt lat="45.6953755" lon="11.7081386"><ele>75.0</ele><time>2026-04-25T17:21:19.094Z</time></trkpt><trkpt lat="45.695269" lon="11.7081392"><ele>75.0</ele><time>2026-04-25T17:21:21.094Z</time></trkpt><trkpt lat="45.695169" lon="11.7081289"><ele>75.0</ele><time>2026-04-25T17:21:23.094Z</time></trkpt><trkpt lat="45.695057" lon="11.7081185"><ele>74.75</ele><time>2026-04-25T17:21:25.094Z</time></trkpt><trkpt lat="45.6949445" lon="11.7081022"><ele>74.5</ele><time>2026-04-25T17:21:27.094Z</time></trkpt><trkpt lat="45.6948256" lon="11.7080785"><ele>74.25</ele><time>2026-04-25T17:21:29.094Z</time></trkpt><trkpt lat="45.6947047" lon="11.7080574"><ele>74.0</ele><time>2026-04-25T17:21:31.096Z</time></trkpt><trkpt lat="45.694586" lon="11.7080365"><ele>74.0</ele><time>2026-04-25T17:21:33.096Z</time></trkpt><trkpt lat="45.694467" lon="11.7080169"><ele>74.0</ele><time>2026-04-25T17:21:35.095Z</time></trkpt><trkpt lat="45.694404" lon="11.7080111"><ele>74.0</ele><time>2026-04-25T17:21:36.095Z</time></trkpt><trkpt lat="45.6942857" lon="11.7079996"><ele>74.0</ele><time>2026-04-25T17:21:38.095Z</time></trkpt><trkpt lat="45.6941732" lon="11.7079881"><ele>74.0</ele><time>2026-04-25T17:21:40.095Z</time></trkpt><trkpt lat="45.6940591" lon="11.707974"><ele>73.75</ele><time>2026-04-25T17:21:42.095Z</time></trkpt><trkpt lat="45.6939388" lon="11.7079571"><ele>73.5</ele><time>2026-04-25T17:21:44.095Z</time></trkpt><trkpt lat="45.6938233" lon="11.707955"><ele>73.25</ele><time>2026-04-25T17:21:46.095Z</time></trkpt><trkpt lat="45.693706" lon="11.7079379"><ele>73.0</ele><time>2026-04-25T17:21:48.096Z</time></trkpt><trkpt lat="45.6935866" lon="11.707917"><ele>73.0</ele><time>2026-04-25T17:21:50.096Z</time></trkpt><trkpt lat="45.6934703" lon="11.7078812"><ele>73.0</ele><time>2026-04-25T17:21:52.096Z</time></trkpt><trkpt lat="45.6933562" lon="11.7078537"><ele>73.0</ele><time>2026-04-25T17:21:54.095Z</time></trkpt><trkpt lat="45.6932477" lon="11.7078299"><ele>73.0</ele><time>2026-04-25T17:21:56.095Z</time></trkpt><trkpt lat="45.6931447" lon="11.7077959"><ele>73.0</ele><time>2026-04-25T17:21:58.095Z</time></trkpt><trkpt lat="45.6930278" lon="11.7077444"><ele>73.0</ele><time>2026-04-25T17:22:00.095Z</time></trkpt><trkpt lat="45.6929117" lon="11.707706"><ele>73.0</ele><time>2026-04-25T17:22:02.096Z</time></trkpt><trkpt lat="45.6927994" lon="11.7076653"><ele>73.0</ele><time>2026-04-25T17:22:04.095Z</time></trkpt><trkpt lat="45.6926854" lon="11.7076187"><ele>73.0</ele><time>2026-04-25T17:22:06.095Z</time></trkpt><trkpt lat="45.6925747" lon="11.7075663"><ele>73.0</ele><time>2026-04-25T17:22:08.096Z</time></trkpt><trkpt lat="45.6924614" lon="11.7075034"><ele>73.0</ele><time>2026-04-25T17:22:10.096Z</time></trkpt><trkpt lat="45.6923463" lon="11.7074451"><ele>73.0</ele><time>2026-04-25T17:22:12.095Z</time></trkpt><trkpt lat="45.6922312" lon="11.7073967"><ele>73.0</ele><time>2026-04-25T17:22:14.095Z</time></trkpt><trkpt lat="45.692119" lon="11.7073425"><ele>73.0</ele><time>2026-04-25T17:22:16.095Z</time></trkpt><trkpt lat="45.6920049" lon="11.7072846"><ele>73.0</ele><time>2026-04-25T17:22:18.095Z</time></trkpt><trkpt lat="45.6919445" lon="11.7072468"><ele>73.0</ele><time>2026-04-25T17:22:19.095Z</time></trkpt><trkpt lat="45.6918868" lon="11.7072092"><ele>73.0</ele><time>2026-04-25T17:22:20.096Z</time></trkpt><trkpt lat="45.6918268" lon="11.7071754"><ele>73.0</ele><time>2026-04-25T17:22:21.096Z</time></trkpt><trkpt lat="45.6917667" lon="11.7071402"><ele>73.2</ele><time>2026-04-25T17:22:22.095Z</time></trkpt><trkpt lat="45.69166" lon="11.7070808"><ele>73.4</ele><time>2026-04-25T17:22:24.096Z</time></trkpt><trkpt lat="45.6915585" lon="11.7070216"><ele>73.60000000000001</ele><time>2026-04-25T17:22:26.096Z</time></trkpt><trkpt lat="45.6914616" lon="11.7069695"><ele>73.8</ele><time>2026-04-25T17:22:28.096Z</time></trkpt><trkpt lat="45.6913609" lon="11.7069114"><ele>74.0</ele><time>2026-04-25T17:22:30.096Z</time></trkpt><trkpt lat="45.6912459" lon="11.7068413"><ele>74.0</ele><time>2026-04-25T17:22:32.096Z</time></trkpt><trkpt lat="45.6911805" lon="11.7068086"><ele>74.0</ele><time>2026-04-25T17:22:33.096Z</time></trkpt><trkpt lat="45.6911183" lon="11.7067763"><ele>74.0</ele><time>2026-04-25T17:22:34.097Z</time></trkpt><trkpt lat="45.691057" lon="11.7067455"><ele>74.0</ele><time>2026-04-25T17:22:35.096Z</time></trkpt><trkpt lat="45.6909923" lon="11.7067138"><ele>74.0</ele><time>2026-04-25T17:22:36.096Z</time></trkpt><trkpt lat="45.6909307" lon="11.7066792"><ele>74.0</ele><time>2026-04-25T17:22:37.097Z</time></trkpt><trkpt lat="45.6908711" lon="11.7066449"><ele>74.0</ele><time>2026-04-25T17:22:38.096Z</time></trkpt><trkpt lat="45.6907558" lon="11.7065818"><ele>73.60000000000001</ele><time>2026-04-25T17:22:40.096Z</time></trkpt><trkpt lat="45.6906381" lon="11.706521"><ele>73.2</ele><time>2026-04-25T17:22:42.096Z</time></trkpt><trkpt lat="45.6905218" lon="11.7064735"><ele>72.80000000000001</ele><time>2026-04-25T17:22:44.096Z</time></trkpt><trkpt lat="45.6904587" lon="11.7064468"><ele>72.4</ele><time>2026-04-25T17:22:45.097Z</time></trkpt><trkpt lat="45.6903984" lon="11.7064186"><ele>72.0</ele><time>2026-04-25T17:22:46.096Z</time></trkpt><trkpt lat="45.6902877" lon="11.7063573"><ele>72.0</ele><time>2026-04-25T17:22:48.096Z</time></trkpt><trkpt lat="45.6901808" lon="11.7062944"><ele>72.0</ele><time>2026-04-25T17:22:50.096Z</time></trkpt><trkpt lat="45.6900741" lon="11.7062378"><ele>72.0</ele><time>2026-04-25T17:22:52.096Z</time></trkpt><trkpt lat="45.689968" lon="11.7061709"><ele>72.0</ele><time>2026-04-25T17:22:54.097Z</time></trkpt><trkpt lat="45.689857" lon="11.706102"><ele>72.2</ele><time>2026-04-25T17:22:56.096Z</time></trkpt><trkpt lat="45.6897601" lon="11.7060356"><ele>72.4</ele><time>2026-04-25T17:22:58.096Z</time></trkpt><trkpt lat="45.6896761" lon="11.7059705"><ele>72.6</ele><time>2026-04-25T17:23:00.096Z</time></trkpt><trkpt lat="45.6896014" lon="11.7059114"><ele>72.8</ele><time>2026-04-25T17:23:02.096Z</time></trkpt><trkpt lat="45.6895217" lon="11.7058412"><ele>73.0</ele><time>2026-04-25T17:23:04.096Z</time></trkpt><trkpt lat="45.6894372" lon="11.7057718"><ele>72.8</ele><time>2026-04-25T17:23:06.096Z</time></trkpt><trkpt lat="45.6893496" lon="11.7057111"><ele>72.6</ele><time>2026-04-25T17:23:08.096Z</time></trkpt><trkpt lat="45.6892586" lon="11.705637"><ele>72.4</ele><time>2026-04-25T17:23:10.096Z</time></trkpt><trkpt lat="45.689168" lon="11.7055548"><ele>72.2</ele><time>2026-04-25T17:23:12.096Z</time></trkpt><trkpt lat="45.6890753" lon="11.7054838"><ele>72.0</ele><time>2026-04-25T17:23:14.096Z</time></trkpt><trkpt lat="45.6889803" lon="11.7054175"><ele>72.0</ele><time>2026-04-25T17:23:16.096Z</time></trkpt><trkpt lat="45.6888756" lon="11.7053296"><ele>72.0</ele><time>2026-04-25T17:23:18.097Z</time></trkpt><trkpt lat="45.6887757" lon="11.7052494"><ele>72.0</ele><time>2026-04-25T17:23:20.096Z</time></trkpt><trkpt lat="45.6886857" lon="11.7051732"><ele>72.0</ele><time>2026-04-25T17:23:22.097Z</time></trkpt><trkpt lat="45.6885896" lon="11.7050964"><ele>71.8</ele><time>2026-04-25T17:23:24.096Z</time></trkpt><trkpt lat="45.6884852" lon="11.7050204"><ele>71.6</ele><time>2026-04-25T17:23:26.097Z</time></trkpt><trkpt lat="45.6883854" lon="11.7049536"><ele>71.39999999999999</ele><time>2026-04-25T17:23:28.097Z</time></trkpt><trkpt lat="45.6882844" lon="11.704887"><ele>71.2</ele><time>2026-04-25T17:23:30.097Z</time></trkpt><trkpt lat="45.6881867" lon="11.7048171"><ele>71.0</ele><time>2026-04-25T17:23:32.097Z</time></trkpt><trkpt lat="45.6880922" lon="11.7047518"><ele>71.0</ele><time>2026-04-25T17:23:34.097Z</time></trkpt><trkpt lat="45.6879887" lon="11.7046858"><ele>71.0</ele><time>2026-04-25T17:23:36.098Z</time></trkpt><trkpt lat="45.6878812" lon="11.7046224"><ele>71.0</ele><time>2026-04-25T17:23:38.097Z</time></trkpt><trkpt lat="45.6877639" lon="11.7045664"><ele>71.0</ele><time>2026-04-25T17:23:40.098Z</time></trkpt><trkpt lat="45.6876491" lon="11.704501"><ele>71.0</ele><time>2026-04-25T17:23:42.098Z</time></trkpt><trkpt lat="45.6875432" lon="11.70444"><ele>71.0</ele><time>2026-04-25T17:23:44.097Z</time></trkpt><trkpt lat="45.6874382" lon="11.7043927"><ele>71.0</ele><time>2026-04-25T17:23:46.097Z</time></trkpt><trkpt lat="45.6873308" lon="11.7043649"><ele>71.0</ele><time>2026-04-25T17:23:48.097Z</time></trkpt><trkpt lat="45.6872205" lon="11.7043478"><ele>71.0</ele><time>2026-04-25T17:23:50.097Z</time></trkpt><trkpt lat="45.6871165" lon="11.7043384"><ele>71.0</ele><time>2026-04-25T17:23:52.098Z</time></trkpt><trkpt lat="45.6870177" lon="11.7042916"><ele>71.0</ele><time>2026-04-25T17:23:54.097Z</time></trkpt><trkpt lat="45.6869192" lon="11.7042061"><ele>71.0</ele><time>2026-04-25T17:23:56.097Z</time></trkpt><trkpt lat="45.6868136" lon="11.7041384"><ele>71.0</ele><time>2026-04-25T17:23:58.097Z</time></trkpt><trkpt lat="45.6867069" lon="11.7040796"><ele>71.0</ele><time>2026-04-25T17:24:00.097Z</time></trkpt><trkpt lat="45.6865973" lon="11.7040284"><ele>71.0</ele><time>2026-04-25T17:24:02.097Z</time></trkpt><trkpt lat="45.6864934" lon="11.7039793"><ele>71.0</ele><time>2026-04-25T17:24:04.097Z</time></trkpt><trkpt lat="45.6863893" lon="11.7039557"><ele>71.0</ele><time>2026-04-25T17:24:06.097Z</time></trkpt><trkpt lat="45.6862817" lon="11.7039251"><ele>71.0</ele><time>2026-04-25T17:24:08.097Z</time></trkpt><trkpt lat="45.6861638" lon="11.7039"><ele>71.0</ele><time>2026-04-25T17:24:10.098Z</time></trkpt><trkpt lat="45.686069" lon="11.7038767"><ele>71.0</ele><time>2026-04-25T17:24:12.097Z</time></trkpt><trkpt lat="45.685954" lon="11.7038489"><ele>71.0</ele><time>2026-04-25T17:24:14.097Z</time></trkpt><trkpt lat="45.6858306" lon="11.7038276"><ele>71.0</ele><time>2026-04-25T17:24:16.097Z</time></trkpt><trkpt lat="45.685715" lon="11.703818"><ele>71.0</ele><time>2026-04-25T17:24:18.097Z</time></trkpt><trkpt lat="45.6856047" lon="11.7037998"><ele>71.0</ele><time>2026-04-25T17:24:20.097Z</time></trkpt><trkpt lat="45.6854984" lon="11.7037798"><ele>71.0</ele><time>2026-04-25T17:24:22.097Z</time></trkpt><trkpt lat="45.6853854" lon="11.7037742"><ele>71.0</ele><time>2026-04-25T17:24:24.098Z</time></trkpt><trkpt lat="45.685262" lon="11.7037598"><ele>71.0</ele><time>2026-04-25T17:24:26.098Z</time></trkpt><trkpt lat="45.6851408" lon="11.7037347"><ele>71.0</ele><time>2026-04-25T17:24:28.098Z</time></trkpt><trkpt lat="45.6850779" lon="11.7037217"><ele>71.0</ele><time>2026-04-25T17:24:29.099Z</time></trkpt><trkpt lat="45.6849599" lon="11.7037022"><ele>71.0</ele><time>2026-04-25T17:24:31.098Z</time></trkpt><trkpt lat="45.6848415" lon="11.7036727"><ele>71.0</ele><time>2026-04-25T17:24:33.098Z</time></trkpt><trkpt lat="45.6847221" lon="11.7036505"><ele>71.0</ele><time>2026-04-25T17:24:35.098Z</time></trkpt><trkpt lat="45.684659" lon="11.7036403"><ele>71.0</ele><time>2026-04-25T17:24:36.098Z</time></trkpt><trkpt lat="45.6845356" lon="11.7036184"><ele>71.0</ele><time>2026-04-25T17:24:38.098Z</time></trkpt><trkpt lat="45.6844103" lon="11.7035933"><ele>71.0</ele><time>2026-04-25T17:24:40.098Z</time></trkpt><trkpt lat="45.6843451" lon="11.7035865"><ele>71.0</ele><time>2026-04-25T17:24:41.098Z</time></trkpt><trkpt lat="45.6842797" lon="11.7035788"><ele>71.0</ele><time>2026-04-25T17:24:42.098Z</time></trkpt><trkpt lat="45.6842162" lon="11.7035685"><ele>71.0</ele><time>2026-04-25T17:24:43.098Z</time></trkpt><trkpt lat="45.6841516" lon="11.7035566"><ele>70.8</ele><time>2026-04-25T17:24:44.098Z</time></trkpt><trkpt lat="45.6840863" lon="11.7035433"><ele>70.6</ele><time>2026-04-25T17:24:45.098Z</time></trkpt><trkpt lat="45.6839627" lon="11.7035176"><ele>70.4</ele><time>2026-04-25T17:24:47.098Z</time></trkpt><trkpt lat="45.683897" lon="11.7035089"><ele>70.2</ele><time>2026-04-25T17:24:48.098Z</time></trkpt><trkpt lat="45.6838317" lon="11.7035002"><ele>70.0</ele><time>2026-04-25T17:24:49.099Z</time></trkpt><trkpt lat="45.6837039" lon="11.7034702"><ele>70.0</ele><time>2026-04-25T17:24:51.098Z</time></trkpt><trkpt lat="45.6835789" lon="11.703456"><ele>70.0</ele><time>2026-04-25T17:24:53.098Z</time></trkpt><trkpt lat="45.6835111" lon="11.7034492"><ele>70.0</ele><time>2026-04-25T17:24:54.098Z</time></trkpt><trkpt lat="45.6833997" lon="11.7034324"><ele>70.0</ele><time>2026-04-25T17:24:56.098Z</time></trkpt><trkpt lat="45.6832745" lon="11.7034217"><ele>70.0</ele><time>2026-04-25T17:24:58.098Z</time></trkpt><trkpt lat="45.683179" lon="11.7033653"><ele>70.0</ele><time>2026-04-25T17:25:00.098Z</time></trkpt><trkpt lat="45.6831296" lon="11.7033082"><ele>70.0</ele><time>2026-04-25T17:25:01.098Z</time></trkpt><trkpt lat="45.6831052" lon="11.7032239"><ele>70.0</ele><time>2026-04-25T17:25:02.098Z</time></trkpt><trkpt lat="45.6831015" lon="11.7031252"><ele>70.0</ele><time>2026-04-25T17:25:03.098Z</time></trkpt><trkpt lat="45.6830984" lon="11.7029523"><ele>70.0</ele><time>2026-04-25T17:25:05.098Z</time></trkpt><trkpt lat="45.6830715" lon="11.7028008"><ele>70.0</ele><time>2026-04-25T17:25:07.098Z</time></trkpt><trkpt lat="45.6830235" lon="11.7026608"><ele>69.42857142857143</ele><time>2026-04-25T17:25:09.099Z</time></trkpt><trkpt lat="45.6829879" lon="11.7025852"><ele>68.85714285714286</ele><time>2026-04-25T17:25:10.098Z</time></trkpt><trkpt lat="45.682944" lon="11.7025094"><ele>68.28571428571428</ele><time>2026-04-25T17:25:11.098Z</time></trkpt><trkpt lat="45.6829023" lon="11.7024405"><ele>67.71428571428572</ele><time>2026-04-25T17:25:12.098Z</time></trkpt><trkpt lat="45.6828539" lon="11.7023499"><ele>67.14285714285714</ele><time>2026-04-25T17:25:13.098Z</time></trkpt><trkpt lat="45.6828119" lon="11.7022579"><ele>66.57142857142857</ele><time>2026-04-25T17:25:14.1Z</time></trkpt><trkpt lat="45.6827716" lon="11.7021705"><ele>66.0</ele><time>2026-04-25T17:25:15.098Z</time></trkpt><trkpt lat="45.682732" lon="11.7020838"><ele>65.85714285714286</ele><time>2026-04-25T17:25:16.098Z</time></trkpt><trkpt lat="45.6826899" lon="11.7019927"><ele>65.71428571428572</ele><time>2026-04-25T17:25:17.098Z</time></trkpt><trkpt lat="45.6826459" lon="11.7019019"><ele>65.57142857142858</ele><time>2026-04-25T17:25:18.098Z</time></trkpt><trkpt lat="45.6826056" lon="11.7018119"><ele>65.42857142857143</ele><time>2026-04-25T17:25:19.098Z</time></trkpt><trkpt lat="45.6825655" lon="11.7017224"><ele>65.28571428571429</ele><time>2026-04-25T17:25:20.098Z</time></trkpt><trkpt lat="45.6825226" lon="11.7016326"><ele>65.14285714285715</ele><time>2026-04-25T17:25:21.098Z</time></trkpt><trkpt lat="45.6824812" lon="11.7015613"><ele>65.0</ele><time>2026-04-25T17:25:22.099Z</time></trkpt><trkpt lat="45.6824475" lon="11.7014795"><ele>64.66666666666667</ele><time>2026-04-25T17:25:23.099Z</time></trkpt><trkpt lat="45.6824107" lon="11.701402"><ele>64.33333333333334</ele><time>2026-04-25T17:25:24.099Z</time></trkpt><trkpt lat="45.6823713" lon="11.701327"><ele>64.0</ele><time>2026-04-25T17:25:25.099Z</time></trkpt><trkpt lat="45.6823315" lon="11.7012563"><ele>63.66666666666667</ele><time>2026-04-25T17:25:26.099Z</time></trkpt><trkpt lat="45.6822929" lon="11.7011844"><ele>63.333333333333336</ele><time>2026-04-25T17:25:27.099Z</time></trkpt><trkpt lat="45.6822244" lon="11.7010406"><ele>63.0</ele><time>2026-04-25T17:25:29.099Z</time></trkpt><trkpt lat="45.682152" lon="11.7009001"><ele>62.833333333333336</ele><time>2026-04-25T17:25:31.099Z</time></trkpt><trkpt lat="45.6821124" lon="11.7008277"><ele>62.66666666666667</ele><time>2026-04-25T17:25:32.099Z</time></trkpt><trkpt lat="45.6820707" lon="11.7007581"><ele>62.5</ele><time>2026-04-25T17:25:33.099Z</time></trkpt><trkpt lat="45.6820279" lon="11.7006908"><ele>62.333333333333336</ele><time>2026-04-25T17:25:34.099Z</time></trkpt><trkpt lat="45.6819416" lon="11.7005591"><ele>62.16666666666667</ele><time>2026-04-25T17:25:36.099Z</time></trkpt><trkpt lat="45.6818975" lon="11.7004904"><ele>62.0</ele><time>2026-04-25T17:25:37.099Z</time></trkpt><trkpt lat="45.6818512" lon="11.7004212"><ele>61.85714285714286</ele><time>2026-04-25T17:25:38.1Z</time></trkpt><trkpt lat="45.6818041" lon="11.7003524"><ele>61.71428571428572</ele><time>2026-04-25T17:25:39.099Z</time></trkpt><trkpt lat="45.681757" lon="11.7002801"><ele>61.57142857142857</ele><time>2026-04-25T17:25:40.099Z</time></trkpt><trkpt lat="45.6817125" lon="11.7002132"><ele>61.42857142857143</ele><time>2026-04-25T17:25:41.099Z</time></trkpt><trkpt lat="45.6816683" lon="11.700144"><ele>61.285714285714285</ele><time>2026-04-25T17:25:42.1Z</time></trkpt><trkpt lat="45.681623" lon="11.7000741"><ele>61.14285714285714</ele><time>2026-04-25T17:25:43.1Z</time></trkpt><trkpt lat="45.6815758" lon="11.7000065"><ele>60.99999999999999</ele><time>2026-04-25T17:25:44.099Z</time></trkpt><trkpt lat="45.6815314" lon="11.6999366"><ele>60.99999999999999</ele><time>2026-04-25T17:25:45.099Z</time></trkpt><trkpt lat="45.6814873" lon="11.6998683"><ele>61.0</ele><time>2026-04-25T17:25:46.1Z</time></trkpt><trkpt lat="45.6814416" lon="11.6998034"><ele>60.99999999999999</ele><time>2026-04-25T17:25:47.099Z</time></trkpt><trkpt lat="45.6813971" lon="11.6997368"><ele>60.99999999999999</ele><time>2026-04-25T17:25:48.099Z</time></trkpt><trkpt lat="45.6813525" lon="11.6996693"><ele>61.0</ele><time>2026-04-25T17:25:49.099Z</time></trkpt><trkpt lat="45.6813079" lon="11.699604"><ele>60.99999999999999</ele><time>2026-04-25T17:25:50.099Z</time></trkpt><trkpt lat="45.6812637" lon="11.6995349"><ele>60.99999999999999</ele><time>2026-04-25T17:25:51.099Z</time></trkpt><trkpt lat="45.6811815" lon="11.6994057"><ele>61.0</ele><time>2026-04-25T17:25:53.099Z</time></trkpt><trkpt lat="45.6811087" lon="11.6992731"><ele>61.0</ele><time>2026-04-25T17:25:55.099Z</time></trkpt><trkpt lat="45.6810355" lon="11.6991284"><ele>61.0</ele><time>2026-04-25T17:25:57.1Z</time></trkpt><trkpt lat="45.6809685" lon="11.6989881"><ele>61.0</ele><time>2026-04-25T17:25:59.1Z</time></trkpt><trkpt lat="45.6809029" lon="11.6988575"><ele>61.0</ele><time>2026-04-25T17:26:01.099Z</time></trkpt><trkpt lat="45.6808394" lon="11.6987301"><ele>61.0</ele><time>2026-04-25T17:26:03.099Z</time></trkpt><trkpt lat="45.680779" lon="11.6985856"><ele>61.0</ele><time>2026-04-25T17:26:05.099Z</time></trkpt><trkpt lat="45.6807133" lon="11.698439"><ele>61.0</ele><time>2026-04-25T17:26:07.099Z</time></trkpt><trkpt lat="45.680648" lon="11.6982945"><ele>61.199999999999996</ele><time>2026-04-25T17:26:09.099Z</time></trkpt><trkpt lat="45.6805818" lon="11.6981484"><ele>61.39999999999999</ele><time>2026-04-25T17:26:11.099Z</time></trkpt><trkpt lat="45.6805123" lon="11.6980019"><ele>61.6</ele><time>2026-04-25T17:26:13.099Z</time></trkpt><trkpt lat="45.6804416" lon="11.6978517"><ele>61.8</ele><time>2026-04-25T17:26:15.099Z</time></trkpt><trkpt lat="45.6804058" lon="11.6977748"><ele>62.0</ele><time>2026-04-25T17:26:16.099Z</time></trkpt><trkpt lat="45.6803725" lon="11.6976934"><ele>62.142857142857146</ele><time>2026-04-25T17:26:17.099Z</time></trkpt><trkpt lat="45.6803378" lon="11.6976155"><ele>62.28571428571429</ele><time>2026-04-25T17:26:18.1Z</time></trkpt><trkpt lat="45.6803018" lon="11.6975404"><ele>62.42857142857143</ele><time>2026-04-25T17:26:19.099Z</time></trkpt><trkpt lat="45.6802339" lon="11.6973983"><ele>62.57142857142857</ele><time>2026-04-25T17:26:21.1Z</time></trkpt><trkpt lat="45.6801985" lon="11.6973229"><ele>62.714285714285715</ele><time>2026-04-25T17:26:22.1Z</time></trkpt><trkpt lat="45.680163" lon="11.6972477"><ele>62.85714285714286</ele><time>2026-04-25T17:26:23.1Z</time></trkpt><trkpt lat="45.6801263" lon="11.6971697"><ele>63.0</ele><time>2026-04-25T17:26:24.1Z</time></trkpt><trkpt lat="45.6800901" lon="11.6970957"><ele>63.0</ele><time>2026-04-25T17:26:25.101Z</time></trkpt><trkpt lat="45.6800523" lon="11.6970223"><ele>63.0</ele><time>2026-04-25T17:26:26.101Z</time></trkpt><trkpt lat="45.6800157" lon="11.6969458"><ele>63.0</ele><time>2026-04-25T17:26:27.1Z</time></trkpt><trkpt lat="45.679981" lon="11.6968692"><ele>63.0</ele><time>2026-04-25T17:26:28.1Z</time></trkpt><trkpt lat="45.6799156" lon="11.696718"><ele>63.0</ele><time>2026-04-25T17:26:30.1Z</time></trkpt><trkpt lat="45.6798807" lon="11.6966356"><ele>63.0</ele><time>2026-04-25T17:26:31.1Z</time></trkpt><trkpt lat="45.6798458" lon="11.6965566"><ele>63.0</ele><time>2026-04-25T17:26:32.1Z</time></trkpt><trkpt lat="45.6797789" lon="11.6964111"><ele>63.0</ele><time>2026-04-25T17:26:34.101Z</time></trkpt><trkpt lat="45.6797448" lon="11.6963344"><ele>63.0</ele><time>2026-04-25T17:26:35.1Z</time></trkpt><trkpt lat="45.6797068" lon="11.6962617"><ele>63.0</ele><time>2026-04-25T17:26:36.1Z</time></trkpt><trkpt lat="45.6796692" lon="11.6961862"><ele>63.0</ele><time>2026-04-25T17:26:37.1Z</time></trkpt><trkpt lat="45.6796053" lon="11.6960447"><ele>63.0</ele><time>2026-04-25T17:26:39.1Z</time></trkpt><trkpt lat="45.6795705" lon="11.6959695"><ele>63.0</ele><time>2026-04-25T17:26:40.101Z</time></trkpt><trkpt lat="45.6795042" lon="11.6958287"><ele>63.0</ele><time>2026-04-25T17:26:42.101Z</time></trkpt><trkpt lat="45.6794424" lon="11.6956925"><ele>63.0</ele><time>2026-04-25T17:26:44.1Z</time></trkpt><trkpt lat="45.6793834" lon="11.6955534"><ele>63.0</ele><time>2026-04-25T17:26:46.1Z</time></trkpt><trkpt lat="45.6793184" lon="11.6954063"><ele>63.0</ele><time>2026-04-25T17:26:48.1Z</time></trkpt><trkpt lat="45.6792824" lon="11.6953296"><ele>63.0</ele><time>2026-04-25T17:26:49.1Z</time></trkpt><trkpt lat="45.6792475" lon="11.6952535"><ele>63.0</ele><time>2026-04-25T17:26:50.1Z</time></trkpt><trkpt lat="45.6791785" lon="11.6951061"><ele>63.0</ele><time>2026-04-25T17:26:52.1Z</time></trkpt><trkpt lat="45.6791119" lon="11.6949626"><ele>63.0</ele><time>2026-04-25T17:26:54.1Z</time></trkpt><trkpt lat="45.6790489" lon="11.694819"><ele>63.0</ele><time>2026-04-25T17:26:56.1Z</time></trkpt><trkpt lat="45.6789844" lon="11.6946753"><ele>63.0</ele><time>2026-04-25T17:26:58.1Z</time></trkpt><trkpt lat="45.6789225" lon="11.6945365"><ele>63.0</ele><time>2026-04-25T17:27:00.1Z</time></trkpt><trkpt lat="45.6788581" lon="11.6944006"><ele>63.0</ele><time>2026-04-25T17:27:02.1Z</time></trkpt><trkpt lat="45.6788247" lon="11.6943233"><ele>63.0</ele><time>2026-04-25T17:27:03.1Z</time></trkpt><trkpt lat="45.6787656" lon="11.6941803"><ele>63.0</ele><time>2026-04-25T17:27:05.1Z</time></trkpt><trkpt lat="45.6787058" lon="11.6940354"><ele>63.0</ele><time>2026-04-25T17:27:07.1Z</time></trkpt><trkpt lat="45.6786416" lon="11.693901"><ele>63.0</ele><time>2026-04-25T17:27:09.1Z</time></trkpt><trkpt lat="45.6785823" lon="11.6937802"><ele>63.0</ele><time>2026-04-25T17:27:11.1Z</time></trkpt><trkpt lat="45.678522" lon="11.6936479"><ele>63.0</ele><time>2026-04-25T17:27:13.101Z</time></trkpt><trkpt lat="45.6784495" lon="11.6935047"><ele>63.0</ele><time>2026-04-25T17:27:15.1Z</time></trkpt><trkpt lat="45.6783785" lon="11.6933706"><ele>63.0</ele><time>2026-04-25T17:27:17.1Z</time></trkpt><trkpt lat="45.6783219" lon="11.6932339"><ele>63.0</ele><time>2026-04-25T17:27:19.101Z</time></trkpt><trkpt lat="45.6782528" lon="11.6930936"><ele>63.0</ele><time>2026-04-25T17:27:21.102Z</time></trkpt><trkpt lat="45.6781792" lon="11.69295"><ele>63.0</ele><time>2026-04-25T17:27:23.101Z</time></trkpt><trkpt lat="45.6781435" lon="11.6928688"><ele>63.0</ele><time>2026-04-25T17:27:24.101Z</time></trkpt><trkpt lat="45.6781062" lon="11.6927841"><ele>63.0</ele><time>2026-04-25T17:27:25.101Z</time></trkpt><trkpt lat="45.6780413" lon="11.6926394"><ele>63.0</ele><time>2026-04-25T17:27:27.101Z</time></trkpt><trkpt lat="45.6779808" lon="11.6925042"><ele>63.0</ele><time>2026-04-25T17:27:29.101Z</time></trkpt><trkpt lat="45.6779223" lon="11.6923849"><ele>63.166666666666664</ele><time>2026-04-25T17:27:31.101Z</time></trkpt><trkpt lat="45.6778573" lon="11.6922639"><ele>63.33333333333333</ele><time>2026-04-25T17:27:33.101Z</time></trkpt><trkpt lat="45.677795" lon="11.6921049"><ele>63.5</ele><time>2026-04-25T17:27:35.101Z</time></trkpt><trkpt lat="45.6777581" lon="11.6920213"><ele>63.666666666666664</ele><time>2026-04-25T17:27:36.101Z</time></trkpt><trkpt lat="45.6777202" lon="11.6919352"><ele>63.83333333333333</ele><time>2026-04-25T17:27:37.101Z</time></trkpt><trkpt lat="45.677685" lon="11.6918501"><ele>64.0</ele><time>2026-04-25T17:27:38.102Z</time></trkpt><trkpt lat="45.6776531" lon="11.691771"><ele>63.400000000000006</ele><time>2026-04-25T17:27:39.101Z</time></trkpt><trkpt lat="45.6775962" lon="11.69163"><ele>62.800000000000004</ele><time>2026-04-25T17:27:41.101Z</time></trkpt><trkpt lat="45.6775454" lon="11.6914904"><ele>62.199999999999996</ele><time>2026-04-25T17:27:43.101Z</time></trkpt><trkpt lat="45.6775016" lon="11.691349"><ele>61.599999999999994</ele><time>2026-04-25T17:27:45.101Z</time></trkpt><trkpt lat="45.6774635" lon="11.69121"><ele>61.0</ele><time>2026-04-25T17:27:47.101Z</time></trkpt><trkpt lat="45.6774299" lon="11.691066"><ele>61.0</ele><time>2026-04-25T17:27:49.101Z</time></trkpt><trkpt lat="45.6774006" lon="11.6909277"><ele>60.99999999999999</ele><time>2026-04-25T17:27:51.102Z</time></trkpt><trkpt lat="45.677372" lon="11.6907828"><ele>60.99999999999999</ele><time>2026-04-25T17:27:53.101Z</time></trkpt><trkpt lat="45.6773507" lon="11.6906484"><ele>61.0</ele><time>2026-04-25T17:27:55.101Z</time></trkpt><trkpt lat="45.6773257" lon="11.6905294"><ele>61.0</ele><time>2026-04-25T17:27:57.101Z</time></trkpt><trkpt lat="45.6773031" lon="11.6904005"><ele>61.0</ele><time>2026-04-25T17:27:59.101Z</time></trkpt><trkpt lat="45.6772821" lon="11.6902644"><ele>60.99999999999999</ele><time>2026-04-25T17:28:01.101Z</time></trkpt><trkpt lat="45.6772615" lon="11.690144"><ele>60.99999999999999</ele><time>2026-04-25T17:28:03.101Z</time></trkpt><trkpt lat="45.6772405" lon="11.6900175"><ele>61.0</ele><time>2026-04-25T17:28:05.101Z</time></trkpt><trkpt lat="45.6772167" lon="11.6898969"><ele>61.0</ele><time>2026-04-25T17:28:07.101Z</time></trkpt><trkpt lat="45.6771887" lon="11.6897584"><ele>60.8</ele><time>2026-04-25T17:28:09.101Z</time></trkpt><trkpt lat="45.6771609" lon="11.6896166"><ele>60.599999999999994</ele><time>2026-04-25T17:28:11.101Z</time></trkpt><trkpt lat="45.6771373" lon="11.6894798"><ele>60.4</ele><time>2026-04-25T17:28:13.101Z</time></trkpt><trkpt lat="45.6771134" lon="11.6893425"><ele>60.2</ele><time>2026-04-25T17:28:15.101Z</time></trkpt><trkpt lat="45.6770865" lon="11.6892076"><ele>60.0</ele><time>2026-04-25T17:28:17.102Z</time></trkpt><trkpt lat="45.6770582" lon="11.6890736"><ele>59.4</ele><time>2026-04-25T17:28:19.102Z</time></trkpt><trkpt lat="45.6770313" lon="11.6889425"><ele>58.8</ele><time>2026-04-25T17:28:21.103Z</time></trkpt><trkpt lat="45.6770067" lon="11.688811"><ele>58.2</ele><time>2026-04-25T17:28:23.102Z</time></trkpt><trkpt lat="45.6769801" lon="11.6886807"><ele>57.6</ele><time>2026-04-25T17:28:25.102Z</time></trkpt><trkpt lat="45.6769541" lon="11.688548"><ele>57.0</ele><time>2026-04-25T17:28:27.102Z</time></trkpt><trkpt lat="45.6769298" lon="11.6884135"><ele>56.400000000000006</ele><time>2026-04-25T17:28:29.102Z</time></trkpt><trkpt lat="45.6769049" lon="11.6882779"><ele>55.800000000000004</ele><time>2026-04-25T17:28:31.102Z</time></trkpt><trkpt lat="45.6768779" lon="11.6881352"><ele>55.2</ele><time>2026-04-25T17:28:33.102Z</time></trkpt><trkpt lat="45.6768512" lon="11.6879912"><ele>54.6</ele><time>2026-04-25T17:28:35.102Z</time></trkpt><trkpt lat="45.6768295" lon="11.6878451"><ele>54.0</ele><time>2026-04-25T17:28:37.103Z</time></trkpt><trkpt lat="45.6767968" lon="11.687699"><ele>54.0</ele><time>2026-04-25T17:28:39.102Z</time></trkpt><trkpt lat="45.6767655" lon="11.6875512"><ele>54.00000000000001</ele><time>2026-04-25T17:28:41.102Z</time></trkpt><trkpt lat="45.6767413" lon="11.6874051"><ele>54.00000000000001</ele><time>2026-04-25T17:28:43.102Z</time></trkpt><trkpt lat="45.6767172" lon="11.6872602"><ele>54.0</ele><time>2026-04-25T17:28:45.102Z</time></trkpt><trkpt lat="45.6766887" lon="11.6871139"><ele>54.0</ele><time>2026-04-25T17:28:47.103Z</time></trkpt><trkpt lat="45.6766594" lon="11.6869703"><ele>54.400000000000006</ele><time>2026-04-25T17:28:49.102Z</time></trkpt><trkpt lat="45.6766309" lon="11.686824"><ele>54.800000000000004</ele><time>2026-04-25T17:28:51.102Z</time></trkpt><trkpt lat="45.6766051" lon="11.6866846"><ele>55.199999999999996</ele><time>2026-04-25T17:28:53.102Z</time></trkpt><trkpt lat="45.6765775" lon="11.6865398"><ele>55.599999999999994</ele><time>2026-04-25T17:28:55.103Z</time></trkpt><trkpt lat="45.6765464" lon="11.686389"><ele>56.0</ele><time>2026-04-25T17:28:57.102Z</time></trkpt><trkpt lat="45.6765181" lon="11.6862396"><ele>56.599999999999994</ele><time>2026-04-25T17:28:59.102Z</time></trkpt><trkpt lat="45.6764922" lon="11.6860948"><ele>57.199999999999996</ele><time>2026-04-25T17:29:01.103Z</time></trkpt><trkpt lat="45.6764636" lon="11.6859482"><ele>57.800000000000004</ele><time>2026-04-25T17:29:03.102Z</time></trkpt><trkpt lat="45.6764322" lon="11.6857945"><ele>58.400000000000006</ele><time>2026-04-25T17:29:05.102Z</time></trkpt><trkpt lat="45.6764029" lon="11.6856433"><ele>59.0</ele><time>2026-04-25T17:29:07.102Z</time></trkpt><trkpt lat="45.676375" lon="11.6854929"><ele>59.0</ele><time>2026-04-25T17:29:09.102Z</time></trkpt><trkpt lat="45.6763491" lon="11.6853447"><ele>59.00000000000001</ele><time>2026-04-25T17:29:11.102Z</time></trkpt><trkpt lat="45.6763222" lon="11.6851987"><ele>59.00000000000001</ele><time>2026-04-25T17:29:13.102Z</time></trkpt><trkpt lat="45.6762964" lon="11.6850449"><ele>59.0</ele><time>2026-04-25T17:29:15.103Z</time></trkpt><trkpt lat="45.676269" lon="11.6848918"><ele>59.0</ele><time>2026-04-25T17:29:17.104Z</time></trkpt><trkpt lat="45.6762344" lon="11.6847368"><ele>59.6</ele><time>2026-04-25T17:29:19.103Z</time></trkpt><trkpt lat="45.6762193" lon="11.684645"><ele>60.2</ele><time>2026-04-25T17:29:20.104Z</time></trkpt><trkpt lat="45.6762051" lon="11.6845532"><ele>60.800000000000004</ele><time>2026-04-25T17:29:21.103Z</time></trkpt><trkpt lat="45.6761776" lon="11.68438"><ele>61.400000000000006</ele><time>2026-04-25T17:29:23.103Z</time></trkpt><trkpt lat="45.676153" lon="11.684204"><ele>62.0</ele><time>2026-04-25T17:29:25.103Z</time></trkpt><trkpt lat="45.6761313" lon="11.6840249"><ele>62.0</ele><time>2026-04-25T17:29:27.103Z</time></trkpt><trkpt lat="45.6761178" lon="11.6839357"><ele>62.0</ele><time>2026-04-25T17:29:28.103Z</time></trkpt><trkpt lat="45.6761069" lon="11.6838459"><ele>62.0</ele><time>2026-04-25T17:29:29.103Z</time></trkpt><trkpt lat="45.6760948" lon="11.6836766"><ele>62.0</ele><time>2026-04-25T17:29:31.103Z</time></trkpt><trkpt lat="45.6760826" lon="11.6835094"><ele>62.0</ele><time>2026-04-25T17:29:33.103Z</time></trkpt><trkpt lat="45.6760703" lon="11.6833442"><ele>62.0</ele><time>2026-04-25T17:29:35.103Z</time></trkpt><trkpt lat="45.676064" lon="11.683184"><ele>62.0</ele><time>2026-04-25T17:29:37.103Z</time></trkpt><trkpt lat="45.676064" lon="11.6830293"><ele>62.0</ele><time>2026-04-25T17:29:39.104Z</time></trkpt><trkpt lat="45.676062" lon="11.6828732"><ele>62.0</ele><time>2026-04-25T17:29:41.103Z</time></trkpt><trkpt lat="45.6760513" lon="11.6827109"><ele>62.0</ele><time>2026-04-25T17:29:43.103Z</time></trkpt><trkpt lat="45.6760679" lon="11.6825437"><ele>62.0</ele><time>2026-04-25T17:29:45.104Z</time></trkpt><trkpt lat="45.6760983" lon="11.6824648"><ele>62.00000000000001</ele><time>2026-04-25T17:29:46.103Z</time></trkpt><trkpt lat="45.6761376" lon="11.68239"><ele>62.0</ele><time>2026-04-25T17:29:47.103Z</time></trkpt><trkpt lat="45.6761784" lon="11.6823182"><ele>62.0</ele><time>2026-04-25T17:29:48.103Z</time></trkpt><trkpt lat="45.6762794" lon="11.6822255"><ele>62.00000000000001</ele><time>2026-04-25T17:29:50.103Z</time></trkpt><trkpt lat="45.6763431" lon="11.6822187"><ele>62.0</ele><time>2026-04-25T17:29:51.104Z</time></trkpt><trkpt lat="45.6764116" lon="11.6822239"><ele>62.0</ele><time>2026-04-25T17:29:52.103Z</time></trkpt><trkpt lat="45.6764826" lon="11.6822304"><ele>62.2</ele><time>2026-04-25T17:29:53.103Z</time></trkpt><trkpt lat="45.6765526" lon="11.6822215"><ele>62.400000000000006</ele><time>2026-04-25T17:29:54.103Z</time></trkpt><trkpt lat="45.6766758" lon="11.6822053"><ele>62.599999999999994</ele><time>2026-04-25T17:29:56.103Z</time></trkpt><trkpt lat="45.6767419" lon="11.6821723"><ele>62.8</ele><time>2026-04-25T17:29:57.103Z</time></trkpt><trkpt lat="45.6767851" lon="11.6820138"><ele>63.0</ele><time>2026-04-25T17:29:59.103Z</time></trkpt><trkpt lat="45.6767672" lon="11.6818533"><ele>63.0</ele><time>2026-04-25T17:30:01.103Z</time></trkpt><trkpt lat="45.6767526" lon="11.6816741"><ele>63.0</ele><time>2026-04-25T17:30:03.103Z</time></trkpt><trkpt lat="45.6767444" lon="11.6815829"><ele>63.0</ele><time>2026-04-25T17:30:04.103Z</time></trkpt><trkpt lat="45.6767305" lon="11.681476"><ele>63.0</ele><time>2026-04-25T17:30:05.103Z</time></trkpt><trkpt lat="45.6767191" lon="11.6813752"><ele>63.0</ele><time>2026-04-25T17:30:06.103Z</time></trkpt><trkpt lat="45.6767101" lon="11.6812833"><ele>63.0</ele><time>2026-04-25T17:30:07.103Z</time></trkpt><trkpt lat="45.6767033" lon="11.6811936"><ele>63.0</ele><time>2026-04-25T17:30:08.103Z</time></trkpt><trkpt lat="45.676696" lon="11.6810221"><ele>63.0</ele><time>2026-04-25T17:30:10.103Z</time></trkpt><trkpt lat="45.676692" lon="11.6808561"><ele>63.0</ele><time>2026-04-25T17:30:12.103Z</time></trkpt><trkpt lat="45.6766812" lon="11.6806916"><ele>63.0</ele><time>2026-04-25T17:30:14.104Z</time></trkpt><trkpt lat="45.6766773" lon="11.6805188"><ele>63.0</ele><time>2026-04-25T17:30:16.104Z</time></trkpt><trkpt lat="45.6766705" lon="11.6803584"><ele>63.0</ele><time>2026-04-25T17:30:18.104Z</time></trkpt><trkpt lat="45.6766455" lon="11.6801932"><ele>63.0</ele><time>2026-04-25T17:30:20.104Z</time></trkpt><trkpt lat="45.6766185" lon="11.680023"><ele>63.0</ele><time>2026-04-25T17:30:22.105Z</time></trkpt><trkpt lat="45.6765935" lon="11.6798507"><ele>62.8</ele><time>2026-04-25T17:30:24.104Z</time></trkpt><trkpt lat="45.6765687" lon="11.6796791"><ele>62.599999999999994</ele><time>2026-04-25T17:30:26.104Z</time></trkpt><trkpt lat="45.6765594" lon="11.679587"><ele>62.400000000000006</ele><time>2026-04-25T17:30:27.104Z</time></trkpt><trkpt lat="45.67655" lon="11.6794969"><ele>62.2</ele><time>2026-04-25T17:30:28.105Z</time></trkpt><trkpt lat="45.6765342" lon="11.6793264"><ele>62.0</ele><time>2026-04-25T17:30:30.104Z</time></trkpt><trkpt lat="45.6765142" lon="11.6791506"><ele>62.0</ele><time>2026-04-25T17:30:32.104Z</time></trkpt><trkpt lat="45.676494" lon="11.6789792"><ele>62.0</ele><time>2026-04-25T17:30:34.104Z</time></trkpt><trkpt lat="45.6764732" lon="11.6788072"><ele>62.0</ele><time>2026-04-25T17:30:36.104Z</time></trkpt><trkpt lat="45.6764593" lon="11.6786313"><ele>62.0</ele><time>2026-04-25T17:30:38.104Z</time></trkpt><trkpt lat="45.6764397" lon="11.6784714"><ele>61.833333333333336</ele><time>2026-04-25T17:30:40.104Z</time></trkpt><trkpt lat="45.676423" lon="11.6783012"><ele>61.66666666666667</ele><time>2026-04-25T17:30:42.105Z</time></trkpt><trkpt lat="45.6764229" lon="11.6781247"><ele>61.5</ele><time>2026-04-25T17:30:44.104Z</time></trkpt><trkpt lat="45.676425" lon="11.6780338"><ele>61.33333333333333</ele><time>2026-04-25T17:30:45.104Z</time></trkpt><trkpt lat="45.6764287" lon="11.6779422"><ele>61.166666666666664</ele><time>2026-04-25T17:30:46.104Z</time></trkpt><trkpt lat="45.6764281" lon="11.6778466"><ele>61.0</ele><time>2026-04-25T17:30:47.104Z</time></trkpt><trkpt lat="45.6764227" lon="11.677672"><ele>61.4</ele><time>2026-04-25T17:30:49.104Z</time></trkpt><trkpt lat="45.6764214" lon="11.6774971"><ele>61.8</ele><time>2026-04-25T17:30:51.104Z</time></trkpt><trkpt lat="45.6764281" lon="11.67731"><ele>62.199999999999996</ele><time>2026-04-25T17:30:53.104Z</time></trkpt><trkpt lat="45.6764363" lon="11.677215"><ele>62.599999999999994</ele><time>2026-04-25T17:30:54.104Z</time></trkpt><trkpt lat="45.676436" lon="11.6770547"><ele>63.0</ele><time>2026-04-25T17:30:56.104Z</time></trkpt><trkpt lat="45.6764282" lon="11.6768857"><ele>63.2</ele><time>2026-04-25T17:30:58.104Z</time></trkpt><trkpt lat="45.6764267" lon="11.6767048"><ele>63.4</ele><time>2026-04-25T17:31:00.105Z</time></trkpt><trkpt lat="45.676416" lon="11.6765426"><ele>63.60000000000001</ele><time>2026-04-25T17:31:02.104Z</time></trkpt><trkpt lat="45.6764094" lon="11.6763983"><ele>63.800000000000004</ele><time>2026-04-25T17:31:04.105Z</time></trkpt><trkpt lat="45.6764151" lon="11.6762642"><ele>64.0</ele><time>2026-04-25T17:31:06.104Z</time></trkpt><trkpt lat="45.6764265" lon="11.6761308"><ele>63.800000000000004</ele><time>2026-04-25T17:31:08.104Z</time></trkpt><trkpt lat="45.6764402" lon="11.6759879"><ele>63.60000000000001</ele><time>2026-04-25T17:31:10.105Z</time></trkpt><trkpt lat="45.6764478" lon="11.6758645"><ele>63.4</ele><time>2026-04-25T17:31:12.105Z</time></trkpt><trkpt lat="45.6764557" lon="11.6757395"><ele>63.2</ele><time>2026-04-25T17:31:14.105Z</time></trkpt><trkpt lat="45.6764632" lon="11.6756074"><ele>63.0</ele><time>2026-04-25T17:31:16.105Z</time></trkpt><trkpt lat="45.6764705" lon="11.6754718"><ele>63.0</ele><time>2026-04-25T17:31:18.105Z</time></trkpt><trkpt lat="45.6764763" lon="11.6753429"><ele>63.0</ele><time>2026-04-25T17:31:20.105Z</time></trkpt><trkpt lat="45.6764931" lon="11.6752257"><ele>63.0</ele><time>2026-04-25T17:31:22.105Z</time></trkpt><trkpt lat="45.6765083" lon="11.6750921"><ele>63.0</ele><time>2026-04-25T17:31:24.105Z</time></trkpt><trkpt lat="45.6765231" lon="11.6749449"><ele>63.0</ele><time>2026-04-25T17:31:26.105Z</time></trkpt><trkpt lat="45.6765321" lon="11.6748118"><ele>63.2</ele><time>2026-04-25T17:31:28.105Z</time></trkpt><trkpt lat="45.6765387" lon="11.6746673"><ele>63.4</ele><time>2026-04-25T17:31:30.105Z</time></trkpt><trkpt lat="45.676551" lon="11.674526"><ele>63.60000000000001</ele><time>2026-04-25T17:31:32.105Z</time></trkpt><trkpt lat="45.6765525" lon="11.6743866"><ele>63.800000000000004</ele><time>2026-04-25T17:31:34.106Z</time></trkpt><trkpt lat="45.6765481" lon="11.674256"><ele>64.0</ele><time>2026-04-25T17:31:36.105Z</time></trkpt><trkpt lat="45.6765545" lon="11.6741344"><ele>64.0</ele><time>2026-04-25T17:31:38.105Z</time></trkpt><trkpt lat="45.6765591" lon="11.6739979"><ele>64.0</ele><time>2026-04-25T17:31:40.105Z</time></trkpt><trkpt lat="45.6765616" lon="11.6738625"><ele>64.0</ele><time>2026-04-25T17:31:42.105Z</time></trkpt><trkpt lat="45.6765713" lon="11.6737295"><ele>64.0</ele><time>2026-04-25T17:31:44.105Z</time></trkpt><trkpt lat="45.6765738" lon="11.6736086"><ele>64.0</ele><time>2026-04-25T17:31:46.106Z</time></trkpt><trkpt lat="45.6765746" lon="11.6734639"><ele>64.0</ele><time>2026-04-25T17:31:48.105Z</time></trkpt><trkpt lat="45.6765864" lon="11.6733268"><ele>64.0</ele><time>2026-04-25T17:31:50.105Z</time></trkpt><trkpt lat="45.6765858" lon="11.6731802"><ele>64.0</ele><time>2026-04-25T17:31:52.105Z</time></trkpt><trkpt lat="45.6765858" lon="11.67303"><ele>64.0</ele><time>2026-04-25T17:31:54.105Z</time></trkpt><trkpt lat="45.6765877" lon="11.6728823"><ele>64.0</ele><time>2026-04-25T17:31:56.105Z</time></trkpt><trkpt lat="45.6765944" lon="11.6727416"><ele>63.800000000000004</ele><time>2026-04-25T17:31:58.106Z</time></trkpt><trkpt lat="45.676604" lon="11.6726014"><ele>63.60000000000001</ele><time>2026-04-25T17:32:00.106Z</time></trkpt><trkpt lat="45.6766116" lon="11.6724654"><ele>63.4</ele><time>2026-04-25T17:32:02.105Z</time></trkpt><trkpt lat="45.6766184" lon="11.672336"><ele>63.2</ele><time>2026-04-25T17:32:04.105Z</time></trkpt><trkpt lat="45.6766261" lon="11.6722067"><ele>63.0</ele><time>2026-04-25T17:32:06.105Z</time></trkpt><trkpt lat="45.6766357" lon="11.6720683"><ele>62.8</ele><time>2026-04-25T17:32:08.106Z</time></trkpt><trkpt lat="45.6766387" lon="11.6719175"><ele>62.599999999999994</ele><time>2026-04-25T17:32:10.106Z</time></trkpt><trkpt lat="45.6766403" lon="11.6717759"><ele>62.400000000000006</ele><time>2026-04-25T17:32:12.106Z</time></trkpt><trkpt lat="45.6766433" lon="11.671635"><ele>62.2</ele><time>2026-04-25T17:32:14.107Z</time></trkpt><trkpt lat="45.6766485" lon="11.6714926"><ele>62.0</ele><time>2026-04-25T17:32:16.106Z</time></trkpt><trkpt lat="45.6766532" lon="11.6713639"><ele>62.00000000000001</ele><time>2026-04-25T17:32:18.106Z</time></trkpt><trkpt lat="45.6766523" lon="11.6712356"><ele>62.0</ele><time>2026-04-25T17:32:20.106Z</time></trkpt><trkpt lat="45.676668" lon="11.6711091"><ele>62.0</ele><time>2026-04-25T17:32:22.106Z</time></trkpt><trkpt lat="45.6766678" lon="11.671011"><ele>62.0</ele><time>2026-04-25T17:32:24.107Z</time></trkpt><trkpt lat="45.6766713" lon="11.6708871"><ele>62.00000000000001</ele><time>2026-04-25T17:32:26.107Z</time></trkpt><trkpt lat="45.6766845" lon="11.6707507"><ele>62.0</ele><time>2026-04-25T17:32:28.106Z</time></trkpt><trkpt lat="45.6766932" lon="11.6706246"><ele>62.400000000000006</ele><time>2026-04-25T17:32:30.106Z</time></trkpt><trkpt lat="45.6767128" lon="11.6704917"><ele>62.800000000000004</ele><time>2026-04-25T17:32:32.106Z</time></trkpt><trkpt lat="45.6767611" lon="11.6703641"><ele>63.2</ele><time>2026-04-25T17:32:34.107Z</time></trkpt><trkpt lat="45.6767896" lon="11.6702313"><ele>63.6</ele><time>2026-04-25T17:32:36.106Z</time></trkpt><trkpt lat="45.6767943" lon="11.6700901"><ele>64.0</ele><time>2026-04-25T17:32:38.107Z</time></trkpt><trkpt lat="45.6767946" lon="11.6699359"><ele>64.2</ele><time>2026-04-25T17:32:40.106Z</time></trkpt><trkpt lat="45.6767991" lon="11.669783"><ele>64.4</ele><time>2026-04-25T17:32:42.106Z</time></trkpt><trkpt lat="45.6768046" lon="11.669627"><ele>64.6</ele><time>2026-04-25T17:32:44.106Z</time></trkpt><trkpt lat="45.6768029" lon="11.6694768"><ele>64.8</ele><time>2026-04-25T17:32:46.106Z</time></trkpt><trkpt lat="45.6768078" lon="11.6693255"><ele>65.0</ele><time>2026-04-25T17:32:48.106Z</time></trkpt><trkpt lat="45.6768105" lon="11.6691779"><ele>65.0</ele><time>2026-04-25T17:32:50.107Z</time></trkpt><trkpt lat="45.6768138" lon="11.6690207"><ele>65.0</ele><time>2026-04-25T17:32:52.106Z</time></trkpt><trkpt lat="45.6768164" lon="11.6688644"><ele>65.0</ele><time>2026-04-25T17:32:54.106Z</time></trkpt><trkpt lat="45.6768215" lon="11.6687145"><ele>65.0</ele><time>2026-04-25T17:32:56.106Z</time></trkpt><trkpt lat="45.676827" lon="11.6685648"><ele>65.0</ele><time>2026-04-25T17:32:58.106Z</time></trkpt><trkpt lat="45.6768286" lon="11.6684166"><ele>64.6</ele><time>2026-04-25T17:33:00.106Z</time></trkpt><trkpt lat="45.6768376" lon="11.668264"><ele>64.2</ele><time>2026-04-25T17:33:02.107Z</time></trkpt><trkpt lat="45.6768499" lon="11.6681073"><ele>63.8</ele><time>2026-04-25T17:33:04.106Z</time></trkpt><trkpt lat="45.676857" lon="11.6679561"><ele>63.4</ele><time>2026-04-25T17:33:06.107Z</time></trkpt><trkpt lat="45.6768668" lon="11.6678124"><ele>63.0</ele><time>2026-04-25T17:33:08.107Z</time></trkpt><trkpt lat="45.6768781" lon="11.667659"><ele>63.0</ele><time>2026-04-25T17:33:10.107Z</time></trkpt><trkpt lat="45.6768848" lon="11.6675147"><ele>63.0</ele><time>2026-04-25T17:33:12.107Z</time></trkpt><trkpt lat="45.6768875" lon="11.6673709"><ele>63.0</ele><time>2026-04-25T17:33:14.107Z</time></trkpt><trkpt lat="45.6768805" lon="11.6672315"><ele>63.0</ele><time>2026-04-25T17:33:16.108Z</time></trkpt><trkpt lat="45.676876" lon="11.667103"><ele>63.0</ele><time>2026-04-25T17:33:18.107Z</time></trkpt><trkpt lat="45.6769007" lon="11.6669852"><ele>63.0</ele><time>2026-04-25T17:33:21.107Z</time></trkpt><trkpt lat="45.6768568" lon="11.6668902"><ele>63.0</ele><time>2026-04-25T17:33:24.107Z</time></trkpt><trkpt lat="45.676759" lon="11.6668871"><ele>63.0</ele><time>2026-04-25T17:33:26.108Z</time></trkpt><trkpt lat="45.6766659" lon="11.6668931"><ele>63.0</ele><time>2026-04-25T17:33:28.107Z</time></trkpt><trkpt lat="45.6765937" lon="11.6668437"><ele>63.0</ele><time>2026-04-25T17:33:30.107Z</time></trkpt><trkpt lat="45.6765722" lon="11.6666969"><ele>63.0</ele><time>2026-04-25T17:33:32.107Z</time></trkpt><trkpt lat="45.6765957" lon="11.6665337"><ele>63.0</ele><time>2026-04-25T17:33:34.107Z</time></trkpt><trkpt lat="45.6766088" lon="11.6663822"><ele>63.0</ele><time>2026-04-25T17:33:36.107Z</time></trkpt><trkpt lat="45.6766222" lon="11.6662328"><ele>63.0</ele><time>2026-04-25T17:33:38.107Z</time></trkpt><trkpt lat="45.6766379" lon="11.6660825"><ele>63.0</ele><time>2026-04-25T17:33:40.107Z</time></trkpt><trkpt lat="45.6766456" lon="11.6659285"><ele>63.0</ele><time>2026-04-25T17:33:42.107Z</time></trkpt><trkpt lat="45.6766648" lon="11.6657723"><ele>63.0</ele><time>2026-04-25T17:33:44.107Z</time></trkpt><trkpt lat="45.676676" lon="11.6656171"><ele>63.0</ele><time>2026-04-25T17:33:46.107Z</time></trkpt><trkpt lat="45.6766907" lon="11.6654588"><ele>63.0</ele><time>2026-04-25T17:33:48.107Z</time></trkpt><trkpt lat="45.6767085" lon="11.6652996"><ele>63.0</ele><time>2026-04-25T17:33:50.107Z</time></trkpt><trkpt lat="45.6767233" lon="11.6651379"><ele>63.0</ele><time>2026-04-25T17:33:52.107Z</time></trkpt><trkpt lat="45.6767376" lon="11.6649694"><ele>63.0</ele><time>2026-04-25T17:33:54.107Z</time></trkpt><trkpt lat="45.6767451" lon="11.6648057"><ele>63.0</ele><time>2026-04-25T17:33:56.107Z</time></trkpt><trkpt lat="45.6767557" lon="11.664641"><ele>63.0</ele><time>2026-04-25T17:33:58.107Z</time></trkpt><trkpt lat="45.6767677" lon="11.6644768"><ele>62.8</ele><time>2026-04-25T17:34:00.109Z</time></trkpt><trkpt lat="45.6767804" lon="11.664317"><ele>62.599999999999994</ele><time>2026-04-25T17:34:02.108Z</time></trkpt><trkpt lat="45.6767939" lon="11.6641577"><ele>62.400000000000006</ele><time>2026-04-25T17:34:04.107Z</time></trkpt><trkpt lat="45.6768073" lon="11.6639984"><ele>62.2</ele><time>2026-04-25T17:34:06.107Z</time></trkpt><trkpt lat="45.6768157" lon="11.6638406"><ele>62.0</ele><time>2026-04-25T17:34:08.108Z</time></trkpt><trkpt lat="45.6768228" lon="11.6636811"><ele>61.8</ele><time>2026-04-25T17:34:10.108Z</time></trkpt><trkpt lat="45.6768364" lon="11.6635216"><ele>61.6</ele><time>2026-04-25T17:34:12.108Z</time></trkpt><trkpt lat="45.6768496" lon="11.6633639"><ele>61.39999999999999</ele><time>2026-04-25T17:34:14.108Z</time></trkpt><trkpt lat="45.6768601" lon="11.6632084"><ele>61.199999999999996</ele><time>2026-04-25T17:34:16.108Z</time></trkpt><trkpt lat="45.676874" lon="11.663053"><ele>61.0</ele><time>2026-04-25T17:34:18.108Z</time></trkpt><trkpt lat="45.6768875" lon="11.6628937"><ele>61.199999999999996</ele><time>2026-04-25T17:34:20.108Z</time></trkpt><trkpt lat="45.6769002" lon="11.6627366"><ele>61.39999999999999</ele><time>2026-04-25T17:34:22.108Z</time></trkpt><trkpt lat="45.6769133" lon="11.6625772"><ele>61.6</ele><time>2026-04-25T17:34:24.108Z</time></trkpt><trkpt lat="45.6769224" lon="11.6624197"><ele>61.8</ele><time>2026-04-25T17:34:26.108Z</time></trkpt><trkpt lat="45.6769306" lon="11.6622605"><ele>62.0</ele><time>2026-04-25T17:34:28.108Z</time></trkpt><trkpt lat="45.6769414" lon="11.6621046"><ele>62.400000000000006</ele><time>2026-04-25T17:34:30.108Z</time></trkpt><trkpt lat="45.6769525" lon="11.6619525"><ele>62.800000000000004</ele><time>2026-04-25T17:34:32.108Z</time></trkpt><trkpt lat="45.6769605" lon="11.6618033"><ele>63.2</ele><time>2026-04-25T17:34:34.109Z</time></trkpt><trkpt lat="45.6769731" lon="11.6616591"><ele>63.6</ele><time>2026-04-25T17:34:36.108Z</time></trkpt><trkpt lat="45.6769777" lon="11.661508"><ele>64.0</ele><time>2026-04-25T17:34:38.108Z</time></trkpt><trkpt lat="45.6769904" lon="11.6613558"><ele>64.0</ele><time>2026-04-25T17:34:40.109Z</time></trkpt><trkpt lat="45.6770033" lon="11.6611977"><ele>64.0</ele><time>2026-04-25T17:34:42.108Z</time></trkpt><trkpt lat="45.6770154" lon="11.661044"><ele>64.0</ele><time>2026-04-25T17:34:44.108Z</time></trkpt><trkpt lat="45.6770266" lon="11.6608894"><ele>64.0</ele><time>2026-04-25T17:34:46.108Z</time></trkpt><trkpt lat="45.6770394" lon="11.6607369"><ele>64.0</ele><time>2026-04-25T17:34:48.109Z</time></trkpt><trkpt lat="45.6770492" lon="11.660582"><ele>64.0</ele><time>2026-04-25T17:34:50.108Z</time></trkpt><trkpt lat="45.6770584" lon="11.6604301"><ele>64.0</ele><time>2026-04-25T17:34:52.108Z</time></trkpt><trkpt lat="45.6770698" lon="11.6602806"><ele>64.0</ele><time>2026-04-25T17:34:54.108Z</time></trkpt><trkpt lat="45.677083" lon="11.6601326"><ele>64.0</ele><time>2026-04-25T17:34:56.109Z</time></trkpt><trkpt lat="45.6770926" lon="11.659979"><ele>64.0</ele><time>2026-04-25T17:34:58.108Z</time></trkpt><trkpt lat="45.6771068" lon="11.6598211"><ele>64.0</ele><time>2026-04-25T17:35:00.108Z</time></trkpt><trkpt lat="45.6771176" lon="11.6596628"><ele>64.0</ele><time>2026-04-25T17:35:02.108Z</time></trkpt><trkpt lat="45.6771252" lon="11.6595024"><ele>64.0</ele><time>2026-04-25T17:35:04.109Z</time></trkpt><trkpt lat="45.6771397" lon="11.6593409"><ele>64.0</ele><time>2026-04-25T17:35:06.109Z</time></trkpt><trkpt lat="45.6771533" lon="11.6591688"><ele>64.0</ele><time>2026-04-25T17:35:08.109Z</time></trkpt><trkpt lat="45.6771686" lon="11.659002"><ele>64.0</ele><time>2026-04-25T17:35:10.109Z</time></trkpt><trkpt lat="45.6771806" lon="11.6588369"><ele>64.0</ele><time>2026-04-25T17:35:12.109Z</time></trkpt><trkpt lat="45.6771941" lon="11.6586741"><ele>64.0</ele><time>2026-04-25T17:35:14.109Z</time></trkpt><trkpt lat="45.677204" lon="11.6585126"><ele>63.800000000000004</ele><time>2026-04-25T17:35:16.11Z</time></trkpt><trkpt lat="45.6772124" lon="11.6583482"><ele>63.60000000000001</ele><time>2026-04-25T17:35:18.109Z</time></trkpt><trkpt lat="45.6772258" lon="11.6581908"><ele>63.4</ele><time>2026-04-25T17:35:20.11Z</time></trkpt><trkpt lat="45.6772371" lon="11.6580373"><ele>63.2</ele><time>2026-04-25T17:35:22.109Z</time></trkpt><trkpt lat="45.6772516" lon="11.6578791"><ele>63.0</ele><time>2026-04-25T17:35:24.109Z</time></trkpt><trkpt lat="45.677264" lon="11.6577245"><ele>63.0</ele><time>2026-04-25T17:35:26.109Z</time></trkpt><trkpt lat="45.6772712" lon="11.6575679"><ele>63.0</ele><time>2026-04-25T17:35:28.109Z</time></trkpt><trkpt lat="45.6772893" lon="11.6574051"><ele>63.0</ele><time>2026-04-25T17:35:30.109Z</time></trkpt><trkpt lat="45.6773464" lon="11.657265"><ele>63.0</ele><time>2026-04-25T17:35:32.109Z</time></trkpt><trkpt lat="45.6774346" lon="11.657167"><ele>63.0</ele><time>2026-04-25T17:35:34.109Z</time></trkpt><trkpt lat="45.6775437" lon="11.6571321"><ele>63.0</ele><time>2026-04-25T17:35:36.109Z</time></trkpt><trkpt lat="45.6776497" lon="11.6571287"><ele>63.0</ele><time>2026-04-25T17:35:38.109Z</time></trkpt><trkpt lat="45.6777461" lon="11.6571401"><ele>63.0</ele><time>2026-04-25T17:35:40.109Z</time></trkpt><trkpt lat="45.677835" lon="11.657161"><ele>63.0</ele><time>2026-04-25T17:35:42.109Z</time></trkpt><trkpt lat="45.6779223" lon="11.6571656"><ele>63.4</ele><time>2026-04-25T17:35:44.109Z</time></trkpt><trkpt lat="45.6780217" lon="11.6571685"><ele>63.8</ele><time>2026-04-25T17:35:46.109Z</time></trkpt><trkpt lat="45.6781381" lon="11.6571754"><ele>64.2</ele><time>2026-04-25T17:35:48.109Z</time></trkpt><trkpt lat="45.6782681" lon="11.6571751"><ele>64.6</ele><time>2026-04-25T17:35:50.109Z</time></trkpt><trkpt lat="45.6783328" lon="11.6571839"><ele>65.0</ele><time>2026-04-25T17:35:51.109Z</time></trkpt><trkpt lat="45.6784019" lon="11.6571882"><ele>65.0</ele><time>2026-04-25T17:35:52.109Z</time></trkpt><trkpt lat="45.6785201" lon="11.6571892"><ele>65.0</ele><time>2026-04-25T17:35:54.109Z</time></trkpt><trkpt lat="45.6786294" lon="11.6571908"><ele>65.0</ele><time>2026-04-25T17:35:56.109Z</time></trkpt><trkpt lat="45.6787326" lon="11.657169"><ele>65.0</ele><time>2026-04-25T17:35:58.109Z</time></trkpt><trkpt lat="45.6788235" lon="11.6571784"><ele>65.0</ele><time>2026-04-25T17:36:00.109Z</time></trkpt><trkpt lat="45.6789322" lon="11.6571868"><ele>64.8</ele><time>2026-04-25T17:36:02.11Z</time></trkpt><trkpt lat="45.6790403" lon="11.6571684"><ele>64.6</ele><time>2026-04-25T17:36:04.109Z</time></trkpt><trkpt lat="45.6791429" lon="11.6570963"><ele>64.4</ele><time>2026-04-25T17:36:06.11Z</time></trkpt><trkpt lat="45.6792133" lon="11.6569522"><ele>64.2</ele><time>2026-04-25T17:36:08.11Z</time></trkpt><trkpt lat="45.6792262" lon="11.6568629"><ele>64.0</ele><time>2026-04-25T17:36:09.11Z</time></trkpt><trkpt lat="45.6792342" lon="11.6567727"><ele>63.99999999999999</ele><time>2026-04-25T17:36:10.11Z</time></trkpt><trkpt lat="45.6792425" lon="11.6566832"><ele>64.0</ele><time>2026-04-25T17:36:11.11Z</time></trkpt><trkpt lat="45.6792611" lon="11.6565056"><ele>64.0</ele><time>2026-04-25T17:36:13.11Z</time></trkpt><trkpt lat="45.6792683" lon="11.6564146"><ele>64.0</ele><time>2026-04-25T17:36:14.11Z</time></trkpt><trkpt lat="45.6792755" lon="11.656325"><ele>63.99999999999999</ele><time>2026-04-25T17:36:15.11Z</time></trkpt><trkpt lat="45.6792893" lon="11.6561499"><ele>64.0</ele><time>2026-04-25T17:36:17.11Z</time></trkpt><trkpt lat="45.6793072" lon="11.6559764"><ele>64.0</ele><time>2026-04-25T17:36:19.111Z</time></trkpt><trkpt lat="45.6793295" lon="11.6558009"><ele>63.99999999999999</ele><time>2026-04-25T17:36:21.11Z</time></trkpt><trkpt lat="45.6793414" lon="11.6557096"><ele>64.0</ele><time>2026-04-25T17:36:22.11Z</time></trkpt><trkpt lat="45.6793511" lon="11.6556196"><ele>64.0</ele><time>2026-04-25T17:36:23.11Z</time></trkpt><trkpt lat="45.6793584" lon="11.6555296"><ele>63.99999999999999</ele><time>2026-04-25T17:36:24.11Z</time></trkpt><trkpt lat="45.6793676" lon="11.6554396"><ele>64.0</ele><time>2026-04-25T17:36:25.11Z</time></trkpt><trkpt lat="45.6793798" lon="11.6553505"><ele>64.0</ele><time>2026-04-25T17:36:26.11Z</time></trkpt><trkpt lat="45.6793918" lon="11.6552612"><ele>64.0</ele><time>2026-04-25T17:36:27.111Z</time></trkpt><trkpt lat="45.6794065" lon="11.655088"><ele>64.0</ele><time>2026-04-25T17:36:29.11Z</time></trkpt><trkpt lat="45.6794204" lon="11.6549228"><ele>64.0</ele><time>2026-04-25T17:36:31.11Z</time></trkpt><trkpt lat="45.6794366" lon="11.6547599"><ele>64.0</ele><time>2026-04-25T17:36:33.11Z</time></trkpt><trkpt lat="45.6794553" lon="11.6545929"><ele>63.75</ele><time>2026-04-25T17:36:35.11Z</time></trkpt><trkpt lat="45.6794701" lon="11.6544203"><ele>63.5</ele><time>2026-04-25T17:36:37.11Z</time></trkpt><trkpt lat="45.6794864" lon="11.6542468"><ele>63.25</ele><time>2026-04-25T17:36:39.11Z</time></trkpt><trkpt lat="45.6795055" lon="11.6540744"><ele>63.0</ele><time>2026-04-25T17:36:41.11Z</time></trkpt><trkpt lat="45.6795217" lon="11.6539032"><ele>63.0</ele><time>2026-04-25T17:36:43.11Z</time></trkpt><trkpt lat="45.6795372" lon="11.6537321"><ele>63.0</ele><time>2026-04-25T17:36:45.11Z</time></trkpt><trkpt lat="45.6795546" lon="11.653561"><ele>63.0</ele><time>2026-04-25T17:36:47.11Z</time></trkpt><trkpt lat="45.6795725" lon="11.6533953"><ele>63.0</ele><time>2026-04-25T17:36:49.11Z</time></trkpt><trkpt lat="45.6795887" lon="11.6532322"><ele>63.25</ele><time>2026-04-25T17:36:51.11Z</time></trkpt><trkpt lat="45.6796049" lon="11.6530717"><ele>63.5</ele><time>2026-04-25T17:36:53.111Z</time></trkpt><trkpt lat="45.6796206" lon="11.6529188"><ele>63.75</ele><time>2026-04-25T17:36:55.11Z</time></trkpt><trkpt lat="45.6796358" lon="11.652753"><ele>64.0</ele><time>2026-04-25T17:36:57.11Z</time></trkpt><trkpt lat="45.6796502" lon="11.6525855"><ele>64.0</ele><time>2026-04-25T17:36:59.111Z</time></trkpt><trkpt lat="45.6796655" lon="11.6524163"><ele>64.0</ele><time>2026-04-25T17:37:01.11Z</time></trkpt><trkpt lat="45.6796743" lon="11.6522418"><ele>64.0</ele><time>2026-04-25T17:37:03.111Z</time></trkpt><trkpt lat="45.6796762" lon="11.6520651"><ele>64.0</ele><time>2026-04-25T17:37:05.111Z</time></trkpt><trkpt lat="45.6796748" lon="11.6519738"><ele>64.0</ele><time>2026-04-25T17:37:06.111Z</time></trkpt><trkpt lat="45.6796727" lon="11.6518825"><ele>64.0</ele><time>2026-04-25T17:37:07.111Z</time></trkpt><trkpt lat="45.6796692" lon="11.6517061"><ele>64.0</ele><time>2026-04-25T17:37:09.111Z</time></trkpt><trkpt lat="45.6796658" lon="11.6515299"><ele>64.0</ele><time>2026-04-25T17:37:11.111Z</time></trkpt><trkpt lat="45.6796655" lon="11.6514397"><ele>64.0</ele><time>2026-04-25T17:37:12.111Z</time></trkpt><trkpt lat="45.6796647" lon="11.6513485"><ele>64.0</ele><time>2026-04-25T17:37:13.111Z</time></trkpt><trkpt lat="45.6796668" lon="11.651173"><ele>63.99999999999999</ele><time>2026-04-25T17:37:15.111Z</time></trkpt><trkpt lat="45.6796653" lon="11.6510825"><ele>64.0</ele><time>2026-04-25T17:37:16.111Z</time></trkpt><trkpt lat="45.6796644" lon="11.6509918"><ele>64.0</ele><time>2026-04-25T17:37:17.111Z</time></trkpt><trkpt lat="45.679665" lon="11.6508999"><ele>64.0</ele><time>2026-04-25T17:37:18.112Z</time></trkpt><trkpt lat="45.679673" lon="11.6507317"><ele>63.99999999999999</ele><time>2026-04-25T17:37:20.112Z</time></trkpt><trkpt lat="45.6796822" lon="11.650556"><ele>64.0</ele><time>2026-04-25T17:37:22.112Z</time></trkpt><trkpt lat="45.6796836" lon="11.6504641"><ele>64.0</ele><time>2026-04-25T17:37:23.111Z</time></trkpt><trkpt lat="45.6796824" lon="11.6503726"><ele>63.99999999999999</ele><time>2026-04-25T17:37:24.111Z</time></trkpt><trkpt lat="45.6796789" lon="11.6502798"><ele>64.0</ele><time>2026-04-25T17:37:25.111Z</time></trkpt><trkpt lat="45.6796759" lon="11.6501854"><ele>64.0</ele><time>2026-04-25T17:37:26.111Z</time></trkpt><trkpt lat="45.6796746" lon="11.650091"><ele>63.99999999999999</ele><time>2026-04-25T17:37:27.111Z</time></trkpt><trkpt lat="45.6796747" lon="11.6499979"><ele>64.0</ele><time>2026-04-25T17:37:28.111Z</time></trkpt><trkpt lat="45.6796755" lon="11.6499067"><ele>64.0</ele><time>2026-04-25T17:37:29.111Z</time></trkpt><trkpt lat="45.6796769" lon="11.6498155"><ele>64.0</ele><time>2026-04-25T17:37:30.111Z</time></trkpt><trkpt lat="45.6796776" lon="11.6497247"><ele>64.0</ele><time>2026-04-25T17:37:31.111Z</time></trkpt><trkpt lat="45.6796743" lon="11.6495502"><ele>64.0</ele><time>2026-04-25T17:37:33.111Z</time></trkpt><trkpt lat="45.6796793" lon="11.6493757"><ele>64.0</ele><time>2026-04-25T17:37:35.111Z</time></trkpt><trkpt lat="45.6796791" lon="11.6492014"><ele>64.0</ele><time>2026-04-25T17:37:37.111Z</time></trkpt><trkpt lat="45.6796804" lon="11.6490261"><ele>64.0</ele><time>2026-04-25T17:37:39.111Z</time></trkpt><trkpt lat="45.679672" lon="11.648842"><ele>64.0</ele><time>2026-04-25T17:37:41.111Z</time></trkpt><trkpt lat="45.6796653" lon="11.6487466"><ele>64.0</ele><time>2026-04-25T17:37:42.111Z</time></trkpt><trkpt lat="45.6796639" lon="11.6486545"><ele>64.0</ele><time>2026-04-25T17:37:43.111Z</time></trkpt><trkpt lat="45.6796646" lon="11.6485639"><ele>64.0</ele><time>2026-04-25T17:37:44.111Z</time></trkpt><trkpt lat="45.6796628" lon="11.6483823"><ele>64.14285714285714</ele><time>2026-04-25T17:37:46.111Z</time></trkpt><trkpt lat="45.6796607" lon="11.6482896"><ele>64.28571428571428</ele><time>2026-04-25T17:37:47.112Z</time></trkpt><trkpt lat="45.6796592" lon="11.6481964"><ele>64.42857142857143</ele><time>2026-04-25T17:37:48.111Z</time></trkpt><trkpt lat="45.6796587" lon="11.6481005"><ele>64.57142857142857</ele><time>2026-04-25T17:37:49.111Z</time></trkpt><trkpt lat="45.6796583" lon="11.6480058"><ele>64.71428571428572</ele><time>2026-04-25T17:37:50.111Z</time></trkpt><trkpt lat="45.6796591" lon="11.6479135"><ele>64.85714285714286</ele><time>2026-04-25T17:37:51.111Z</time></trkpt><trkpt lat="45.6796592" lon="11.6478177"><ele>65.0</ele><time>2026-04-25T17:37:52.111Z</time></trkpt><trkpt lat="45.6796587" lon="11.6477208"><ele>65.16666666666667</ele><time>2026-04-25T17:37:53.112Z</time></trkpt><trkpt lat="45.6796581" lon="11.6476261"><ele>65.33333333333334</ele><time>2026-04-25T17:37:54.111Z</time></trkpt><trkpt lat="45.6796569" lon="11.6475321"><ele>65.5</ele><time>2026-04-25T17:37:55.111Z</time></trkpt><trkpt lat="45.6796534" lon="11.6474383"><ele>65.66666666666667</ele><time>2026-04-25T17:37:56.111Z</time></trkpt><trkpt lat="45.6796466" lon="11.6472603"><ele>65.83333333333333</ele><time>2026-04-25T17:37:58.112Z</time></trkpt><trkpt lat="45.679642" lon="11.6471675"><ele>66.0</ele><time>2026-04-25T17:37:59.112Z</time></trkpt><trkpt lat="45.6796377" lon="11.6470746"><ele>65.75</ele><time>2026-04-25T17:38:00.111Z</time></trkpt><trkpt lat="45.6796341" lon="11.6469015"><ele>65.5</ele><time>2026-04-25T17:38:02.112Z</time></trkpt><trkpt lat="45.6796422" lon="11.6467357"><ele>65.25</ele><time>2026-04-25T17:38:04.112Z</time></trkpt><trkpt lat="45.6796455" lon="11.6465697"><ele>65.0</ele><time>2026-04-25T17:38:06.112Z</time></trkpt><trkpt lat="45.6796414" lon="11.6464068"><ele>65.0</ele><time>2026-04-25T17:38:08.112Z</time></trkpt><trkpt lat="45.6796387" lon="11.6462333"><ele>65.0</ele><time>2026-04-25T17:38:10.112Z</time></trkpt><trkpt lat="45.6796404" lon="11.6460621"><ele>65.0</ele><time>2026-04-25T17:38:12.112Z</time></trkpt><trkpt lat="45.679642" lon="11.645904"><ele>65.0</ele><time>2026-04-25T17:38:14.112Z</time></trkpt><trkpt lat="45.6796402" lon="11.645744"><ele>65.2</ele><time>2026-04-25T17:38:16.112Z</time></trkpt><trkpt lat="45.6796367" lon="11.6455831"><ele>65.4</ele><time>2026-04-25T17:38:18.112Z</time></trkpt><trkpt lat="45.67964" lon="11.6454416"><ele>65.6</ele><time>2026-04-25T17:38:20.113Z</time></trkpt><trkpt lat="45.6796493" lon="11.6453154"><ele>65.8</ele><time>2026-04-25T17:38:22.112Z</time></trkpt><trkpt lat="45.6796635" lon="11.6451892"><ele>66.0</ele><time>2026-04-25T17:38:24.112Z</time></trkpt><trkpt lat="45.6796689" lon="11.6450349"><ele>66.0</ele><time>2026-04-25T17:38:26.113Z</time></trkpt><trkpt lat="45.6796789" lon="11.6448932"><ele>66.0</ele><time>2026-04-25T17:38:28.113Z</time></trkpt><trkpt lat="45.6796951" lon="11.6447647"><ele>66.0</ele><time>2026-04-25T17:38:30.112Z</time></trkpt><trkpt lat="45.6797148" lon="11.6446225"><ele>66.0</ele><time>2026-04-25T17:38:32.113Z</time></trkpt><trkpt lat="45.6797307" lon="11.6444849"><ele>66.0</ele><time>2026-04-25T17:38:34.112Z</time></trkpt><trkpt lat="45.6797482" lon="11.6443522"><ele>66.0</ele><time>2026-04-25T17:38:36.112Z</time></trkpt><trkpt lat="45.6797587" lon="11.6442142"><ele>66.0</ele><time>2026-04-25T17:38:38.112Z</time></trkpt><trkpt lat="45.6797716" lon="11.6440913"><ele>66.0</ele><time>2026-04-25T17:38:40.112Z</time></trkpt><trkpt lat="45.6797791" lon="11.6439626"><ele>66.0</ele><time>2026-04-25T17:38:42.112Z</time></trkpt><trkpt lat="45.6797779" lon="11.6438419"><ele>66.0</ele><time>2026-04-25T17:38:44.112Z</time></trkpt><trkpt lat="45.6798025" lon="11.6437247"><ele>66.0</ele><time>2026-04-25T17:38:46.112Z</time></trkpt><trkpt lat="45.6798172" lon="11.6436065"><ele>66.2</ele><time>2026-04-25T17:38:49.112Z</time></trkpt><trkpt lat="45.6798309" lon="11.6434921"><ele>66.39999999999999</ele><time>2026-04-25T17:38:51.112Z</time></trkpt><trkpt lat="45.6798514" lon="11.6433432"><ele>66.6</ele><time>2026-04-25T17:38:53.112Z</time></trkpt><trkpt lat="45.6798859" lon="11.6431898"><ele>66.8</ele><time>2026-04-25T17:38:55.112Z</time></trkpt><trkpt lat="45.6798933" lon="11.643028"><ele>67.0</ele><time>2026-04-25T17:38:57.113Z</time></trkpt><trkpt lat="45.6798884" lon="11.6428619"><ele>67.0</ele><time>2026-04-25T17:38:59.112Z</time></trkpt><trkpt lat="45.6799075" lon="11.6426845"><ele>67.0</ele><time>2026-04-25T17:39:01.113Z</time></trkpt><trkpt lat="45.6799278" lon="11.6425304"><ele>67.0</ele><time>2026-04-25T17:39:03.114Z</time></trkpt><trkpt lat="45.6799482" lon="11.642365"><ele>67.0</ele><time>2026-04-25T17:39:05.113Z</time></trkpt><trkpt lat="45.6799677" lon="11.6422008"><ele>67.0</ele><time>2026-04-25T17:39:07.113Z</time></trkpt><trkpt lat="45.6799838" lon="11.6420357"><ele>67.0</ele><time>2026-04-25T17:39:09.113Z</time></trkpt><trkpt lat="45.6799988" lon="11.6418711"><ele>67.0</ele><time>2026-04-25T17:39:11.113Z</time></trkpt><trkpt lat="45.6800114" lon="11.6417089"><ele>67.0</ele><time>2026-04-25T17:39:13.113Z</time></trkpt><trkpt lat="45.6800243" lon="11.6415328"><ele>67.0</ele><time>2026-04-25T17:39:15.113Z</time></trkpt><trkpt lat="45.6800334" lon="11.6414431"><ele>67.0</ele><time>2026-04-25T17:39:16.113Z</time></trkpt><trkpt lat="45.6800523" lon="11.6412569"><ele>67.0</ele><time>2026-04-25T17:39:18.113Z</time></trkpt><trkpt lat="45.6800616" lon="11.6411667"><ele>67.0</ele><time>2026-04-25T17:39:19.113Z</time></trkpt><trkpt lat="45.6800769" lon="11.6409909"><ele>67.0</ele><time>2026-04-25T17:39:21.113Z</time></trkpt><trkpt lat="45.6800917" lon="11.640817"><ele>67.0</ele><time>2026-04-25T17:39:23.113Z</time></trkpt><trkpt lat="45.680089" lon="11.6406551"><ele>67.0</ele><time>2026-04-25T17:39:25.113Z</time></trkpt><trkpt lat="45.6800849" lon="11.6404993"><ele>67.0</ele><time>2026-04-25T17:39:27.113Z</time></trkpt><trkpt lat="45.6801212" lon="11.6403635"><ele>67.0</ele><time>2026-04-25T17:39:29.114Z</time></trkpt><trkpt lat="45.6802241" lon="11.6403054"><ele>67.0</ele><time>2026-04-25T17:39:31.114Z</time></trkpt><trkpt lat="45.6803313" lon="11.6402764"><ele>66.66666666666666</ele><time>2026-04-25T17:39:33.113Z</time></trkpt><trkpt lat="45.6804186" lon="11.6402687"><ele>66.33333333333333</ele><time>2026-04-25T17:39:35.113Z</time></trkpt><trkpt lat="45.6805047" lon="11.6402919"><ele>66.0</ele><time>2026-04-25T17:39:37.113Z</time></trkpt><trkpt lat="45.680587" lon="11.6402555"><ele>65.66666666666667</ele><time>2026-04-25T17:39:39.113Z</time></trkpt><trkpt lat="45.6806594" lon="11.6401497"><ele>65.33333333333334</ele><time>2026-04-25T17:39:41.113Z</time></trkpt><trkpt lat="45.6807267" lon="11.6401298"><ele>65.0</ele><time>2026-04-25T17:39:43.113Z</time></trkpt><trkpt lat="45.6808158" lon="11.6401222"><ele>65.0</ele><time>2026-04-25T17:39:45.113Z</time></trkpt><trkpt lat="45.6808771" lon="11.6400412"><ele>65.0</ele><time>2026-04-25T17:39:47.113Z</time></trkpt><trkpt lat="45.6809365" lon="11.6399746"><ele>65.0</ele><time>2026-04-25T17:39:49.113Z</time></trkpt><trkpt lat="45.6808886" lon="11.6398901"><ele>65.0</ele><time>2026-04-25T17:39:52.113Z</time></trkpt><trkpt lat="45.6808606" lon="11.6397867"><ele>65.0</ele><time>2026-04-25T17:39:54.113Z</time></trkpt><trkpt lat="45.680838" lon="11.6396949"><ele>65.0</ele><time>2026-04-25T17:39:56.114Z</time></trkpt><trkpt lat="45.6807503" lon="11.6395881"><ele>65.0</ele><time>2026-04-25T17:39:58.114Z</time></trkpt><trkpt lat="45.6806989" lon="11.6395318"><ele>65.0</ele><time>2026-04-25T17:39:59.114Z</time></trkpt><trkpt lat="45.6806054" lon="11.6394347"><ele>65.0</ele><time>2026-04-25T17:40:01.114Z</time></trkpt><trkpt lat="45.6805144" lon="11.6393266"><ele>65.0</ele><time>2026-04-25T17:40:03.114Z</time></trkpt><trkpt lat="45.6804214" lon="11.6392135"><ele>65.0</ele><time>2026-04-25T17:40:05.114Z</time></trkpt><trkpt lat="45.680371" lon="11.639158"><ele>64.8</ele><time>2026-04-25T17:40:06.114Z</time></trkpt><trkpt lat="45.6802817" lon="11.639052"><ele>64.6</ele><time>2026-04-25T17:40:08.114Z</time></trkpt><trkpt lat="45.6801827" lon="11.6389322"><ele>64.4</ele><time>2026-04-25T17:40:10.114Z</time></trkpt><trkpt lat="45.6801332" lon="11.638869"><ele>64.2</ele><time>2026-04-25T17:40:11.114Z</time></trkpt><trkpt lat="45.6800814" lon="11.6388126"><ele>64.0</ele><time>2026-04-25T17:40:12.115Z</time></trkpt><trkpt lat="45.679988" lon="11.6387163"><ele>64.0</ele><time>2026-04-25T17:40:14.114Z</time></trkpt><trkpt lat="45.6798972" lon="11.6386156"><ele>64.0</ele><time>2026-04-25T17:40:16.114Z</time></trkpt><trkpt lat="45.679797" lon="11.6385159"><ele>64.0</ele><time>2026-04-25T17:40:18.114Z</time></trkpt><trkpt lat="45.6796986" lon="11.6384201"><ele>64.0</ele><time>2026-04-25T17:40:20.114Z</time></trkpt><trkpt lat="45.6795939" lon="11.6383363"><ele>64.0</ele><time>2026-04-25T17:40:22.114Z</time></trkpt><trkpt lat="45.6795063" lon="11.6382816"><ele>64.0</ele><time>2026-04-25T17:40:24.114Z</time></trkpt><trkpt lat="45.6794207" lon="11.6382063"><ele>64.0</ele><time>2026-04-25T17:40:26.114Z</time></trkpt><trkpt lat="45.6793875" lon="11.6380562"><ele>64.0</ele><time>2026-04-25T17:40:28.114Z</time></trkpt><trkpt lat="45.6794239" lon="11.6379112"><ele>64.0</ele><time>2026-04-25T17:40:30.115Z</time></trkpt><trkpt lat="45.6794579" lon="11.6377732"><ele>64.2</ele><time>2026-04-25T17:40:32.114Z</time></trkpt><trkpt lat="45.6794776" lon="11.6376234"><ele>64.4</ele><time>2026-04-25T17:40:34.114Z</time></trkpt><trkpt lat="45.6794982" lon="11.6374859"><ele>64.6</ele><time>2026-04-25T17:40:36.114Z</time></trkpt><trkpt lat="45.6795182" lon="11.6373339"><ele>64.8</ele><time>2026-04-25T17:40:38.114Z</time></trkpt><trkpt lat="45.6795311" lon="11.6371811"><ele>65.0</ele><time>2026-04-25T17:40:40.114Z</time></trkpt><trkpt lat="45.6795484" lon="11.6370308"><ele>64.8</ele><time>2026-04-25T17:40:42.114Z</time></trkpt><trkpt lat="45.6795684" lon="11.6368792"><ele>64.6</ele><time>2026-04-25T17:40:44.114Z</time></trkpt><trkpt lat="45.679578" lon="11.6367298"><ele>64.4</ele><time>2026-04-25T17:40:46.114Z</time></trkpt><trkpt lat="45.6795897" lon="11.6365822"><ele>64.2</ele><time>2026-04-25T17:40:48.114Z</time></trkpt><trkpt lat="45.6796064" lon="11.6364343"><ele>64.0</ele><time>2026-04-25T17:40:50.114Z</time></trkpt><trkpt lat="45.6796232" lon="11.6362883"><ele>64.0</ele><time>2026-04-25T17:40:52.114Z</time></trkpt><trkpt lat="45.6796326" lon="11.6361453"><ele>64.0</ele><time>2026-04-25T17:40:54.114Z</time></trkpt><trkpt lat="45.679642" lon="11.6359965"><ele>64.0</ele><time>2026-04-25T17:40:56.114Z</time></trkpt><trkpt lat="45.679664" lon="11.6358539"><ele>64.0</ele><time>2026-04-25T17:40:58.116Z</time></trkpt><trkpt lat="45.6796808" lon="11.6357136"><ele>64.0</ele><time>2026-04-25T17:41:00.115Z</time></trkpt><trkpt lat="45.6796914" lon="11.6355615"><ele>63.800000000000004</ele><time>2026-04-25T17:41:02.115Z</time></trkpt><trkpt lat="45.6797047" lon="11.6354137"><ele>63.60000000000001</ele><time>2026-04-25T17:41:04.115Z</time></trkpt><trkpt lat="45.6797182" lon="11.6352581"><ele>63.4</ele><time>2026-04-25T17:41:06.115Z</time></trkpt><trkpt lat="45.6797286" lon="11.6351033"><ele>63.2</ele><time>2026-04-25T17:41:08.115Z</time></trkpt><trkpt lat="45.6797381" lon="11.6349487"><ele>63.0</ele><time>2026-04-25T17:41:10.115Z</time></trkpt><trkpt lat="45.6797473" lon="11.6348036"><ele>63.0</ele><time>2026-04-25T17:41:12.115Z</time></trkpt><trkpt lat="45.6797571" lon="11.6346552"><ele>63.0</ele><time>2026-04-25T17:41:14.115Z</time></trkpt><trkpt lat="45.6797738" lon="11.6345108"><ele>63.0</ele><time>2026-04-25T17:41:16.115Z</time></trkpt><trkpt lat="45.6797946" lon="11.6343638"><ele>63.0</ele><time>2026-04-25T17:41:18.115Z</time></trkpt><trkpt lat="45.6798033" lon="11.6342169"><ele>63.0</ele><time>2026-04-25T17:41:20.115Z</time></trkpt><trkpt lat="45.6798139" lon="11.6340679"><ele>63.0</ele><time>2026-04-25T17:41:22.115Z</time></trkpt><trkpt lat="45.6798322" lon="11.6339229"><ele>63.0</ele><time>2026-04-25T17:41:24.115Z</time></trkpt><trkpt lat="45.6798449" lon="11.6337743"><ele>63.0</ele><time>2026-04-25T17:41:26.115Z</time></trkpt><trkpt lat="45.6798568" lon="11.6336302"><ele>63.0</ele><time>2026-04-25T17:41:28.116Z</time></trkpt><trkpt lat="45.6798736" lon="11.6334844"><ele>63.0</ele><time>2026-04-25T17:41:30.115Z</time></trkpt><trkpt lat="45.6798899" lon="11.6333358"><ele>63.2</ele><time>2026-04-25T17:41:32.115Z</time></trkpt><trkpt lat="45.6799047" lon="11.6331911"><ele>63.4</ele><time>2026-04-25T17:41:34.115Z</time></trkpt><trkpt lat="45.6799136" lon="11.6330448"><ele>63.60000000000001</ele><time>2026-04-25T17:41:36.116Z</time></trkpt><trkpt lat="45.6799229" lon="11.6328973"><ele>63.800000000000004</ele><time>2026-04-25T17:41:38.115Z</time></trkpt><trkpt lat="45.6799339" lon="11.6327491"><ele>64.0</ele><time>2026-04-25T17:41:40.115Z</time></trkpt><trkpt lat="45.679948" lon="11.6326095"><ele>64.0</ele><time>2026-04-25T17:41:42.115Z</time></trkpt><trkpt lat="45.6799645" lon="11.6324687"><ele>64.0</ele><time>2026-04-25T17:41:44.115Z</time></trkpt><trkpt lat="45.6799751" lon="11.6323078"><ele>64.0</ele><time>2026-04-25T17:41:46.115Z</time></trkpt><trkpt lat="45.6799879" lon="11.6321546"><ele>64.0</ele><time>2026-04-25T17:41:48.115Z</time></trkpt><trkpt lat="45.6799975" lon="11.6319994"><ele>64.0</ele><time>2026-04-25T17:41:50.115Z</time></trkpt><trkpt lat="45.680007" lon="11.6318479"><ele>64.0</ele><time>2026-04-25T17:41:52.115Z</time></trkpt><trkpt lat="45.6800165" lon="11.6317052"><ele>64.0</ele><time>2026-04-25T17:41:54.115Z</time></trkpt><trkpt lat="45.6800268" lon="11.6315668"><ele>64.0</ele><time>2026-04-25T17:41:56.116Z</time></trkpt><trkpt lat="45.680039" lon="11.631437"><ele>64.0</ele><time>2026-04-25T17:41:58.116Z</time></trkpt><trkpt lat="45.6800534" lon="11.6313205"><ele>64.0</ele><time>2026-04-25T17:42:00.116Z</time></trkpt><trkpt lat="45.6800678" lon="11.631201"><ele>64.0</ele><time>2026-04-25T17:42:02.116Z</time></trkpt><trkpt lat="45.6800841" lon="11.6310506"><ele>64.0</ele><time>2026-04-25T17:42:04.116Z</time></trkpt><trkpt lat="45.6801058" lon="11.6308866"><ele>64.0</ele><time>2026-04-25T17:42:06.116Z</time></trkpt><trkpt lat="45.6801264" lon="11.630722"><ele>64.0</ele><time>2026-04-25T17:42:08.117Z</time></trkpt><trkpt lat="45.6801417" lon="11.6305605"><ele>64.0</ele><time>2026-04-25T17:42:10.116Z</time></trkpt><trkpt lat="45.6801503" lon="11.6304098"><ele>64.0</ele><time>2026-04-25T17:42:12.117Z</time></trkpt><trkpt lat="45.6801697" lon="11.6302798"><ele>64.0</ele><time>2026-04-25T17:42:14.116Z</time></trkpt><trkpt lat="45.6801823" lon="11.6301483"><ele>64.0</ele><time>2026-04-25T17:42:16.116Z</time></trkpt><trkpt lat="45.6801857" lon="11.630017"><ele>64.0</ele><time>2026-04-25T17:42:18.116Z</time></trkpt><trkpt lat="45.6801936" lon="11.6298898"><ele>63.800000000000004</ele><time>2026-04-25T17:42:20.116Z</time></trkpt><trkpt lat="45.680205" lon="11.6297546"><ele>63.60000000000001</ele><time>2026-04-25T17:42:22.116Z</time></trkpt><trkpt lat="45.6802151" lon="11.629618"><ele>63.4</ele><time>2026-04-25T17:42:24.116Z</time></trkpt><trkpt lat="45.6802303" lon="11.6294759"><ele>63.2</ele><time>2026-04-25T17:42:26.116Z</time></trkpt><trkpt lat="45.6802474" lon="11.6293369"><ele>63.0</ele><time>2026-04-25T17:42:28.116Z</time></trkpt><trkpt lat="45.680291" lon="11.6292122"><ele>62.8</ele><time>2026-04-25T17:42:30.116Z</time></trkpt><trkpt lat="45.6803787" lon="11.6291222"><ele>62.599999999999994</ele><time>2026-04-25T17:42:32.117Z</time></trkpt><trkpt lat="45.6804955" lon="11.6291287"><ele>62.400000000000006</ele><time>2026-04-25T17:42:34.116Z</time></trkpt><trkpt lat="45.6805983" lon="11.6291699"><ele>62.2</ele><time>2026-04-25T17:42:36.116Z</time></trkpt><trkpt lat="45.6806931" lon="11.6291892"><ele>62.0</ele><time>2026-04-25T17:42:38.116Z</time></trkpt><trkpt lat="45.680794" lon="11.6292132"><ele>62.0</ele><time>2026-04-25T17:42:40.116Z</time></trkpt><trkpt lat="45.6808906" lon="11.629238"><ele>62.0</ele><time>2026-04-25T17:42:42.116Z</time></trkpt><trkpt lat="45.6809895" lon="11.6292596"><ele>62.0</ele><time>2026-04-25T17:42:44.116Z</time></trkpt><trkpt lat="45.6810895" lon="11.6292775"><ele>62.0</ele><time>2026-04-25T17:42:46.116Z</time></trkpt><trkpt lat="45.681185" lon="11.6292993"><ele>62.0</ele><time>2026-04-25T17:42:48.116Z</time></trkpt><trkpt lat="45.681277" lon="11.6293148"><ele>62.333333333333336</ele><time>2026-04-25T17:42:50.116Z</time></trkpt><trkpt lat="45.6813607" lon="11.6293111"><ele>62.66666666666667</ele><time>2026-04-25T17:42:52.116Z</time></trkpt><trkpt lat="45.6814586" lon="11.629316"><ele>63.0</ele><time>2026-04-25T17:42:54.117Z</time></trkpt><trkpt lat="45.6815244" lon="11.6293215"><ele>63.33333333333333</ele><time>2026-04-25T17:42:56.117Z</time></trkpt><trkpt lat="45.6815864" lon="11.6293029"><ele>63.666666666666664</ele><time>2026-04-25T17:42:58.117Z</time></trkpt><trkpt lat="45.6816657" lon="11.6292412"><ele>64.0</ele><time>2026-04-25T17:43:00.117Z</time></trkpt><trkpt lat="45.6817407" lon="11.6291496"><ele>64.0</ele><time>2026-04-25T17:43:02.118Z</time></trkpt><trkpt lat="45.6817996" lon="11.6290328"><ele>64.0</ele><time>2026-04-25T17:43:04.117Z</time></trkpt><trkpt lat="45.6818522" lon="11.6289091"><ele>64.0</ele><time>2026-04-25T17:43:06.117Z</time></trkpt><trkpt lat="45.6819007" lon="11.6287736"><ele>64.0</ele><time>2026-04-25T17:43:08.117Z</time></trkpt><trkpt lat="45.6819449" lon="11.628635"><ele>64.0</ele><time>2026-04-25T17:43:10.117Z</time></trkpt><trkpt lat="45.6819878" lon="11.6284965"><ele>64.0</ele><time>2026-04-25T17:43:12.117Z</time></trkpt><trkpt lat="45.6820328" lon="11.6283593"><ele>64.0</ele><time>2026-04-25T17:43:14.117Z</time></trkpt><trkpt lat="45.6820789" lon="11.6282318"><ele>64.0</ele><time>2026-04-25T17:43:16.117Z</time></trkpt><trkpt lat="45.6821253" lon="11.6281029"><ele>64.0</ele><time>2026-04-25T17:43:18.117Z</time></trkpt><trkpt lat="45.6821705" lon="11.6279713"><ele>64.0</ele><time>2026-04-25T17:43:20.118Z</time></trkpt><trkpt lat="45.682219" lon="11.6278387"><ele>64.2</ele><time>2026-04-25T17:43:22.118Z</time></trkpt><trkpt lat="45.682274" lon="11.6277069"><ele>64.4</ele><time>2026-04-25T17:43:24.117Z</time></trkpt><trkpt lat="45.682327" lon="11.6275693"><ele>64.6</ele><time>2026-04-25T17:43:26.117Z</time></trkpt><trkpt lat="45.6823865" lon="11.6274303"><ele>64.8</ele><time>2026-04-25T17:43:28.117Z</time></trkpt><trkpt lat="45.6824404" lon="11.6272912"><ele>65.0</ele><time>2026-04-25T17:43:30.117Z</time></trkpt><trkpt lat="45.6824917" lon="11.6271577"><ele>65.0</ele><time>2026-04-25T17:43:32.117Z</time></trkpt><trkpt lat="45.6825485" lon="11.62703"><ele>65.0</ele><time>2026-04-25T17:43:34.117Z</time></trkpt><trkpt lat="45.6826052" lon="11.6269039"><ele>65.0</ele><time>2026-04-25T17:43:36.117Z</time></trkpt><trkpt lat="45.682656" lon="11.6267701"><ele>65.0</ele><time>2026-04-25T17:43:38.117Z</time></trkpt><trkpt lat="45.6827119" lon="11.6266306"><ele>65.0</ele><time>2026-04-25T17:43:40.117Z</time></trkpt><trkpt lat="45.6827643" lon="11.626494"><ele>64.8</ele><time>2026-04-25T17:43:42.117Z</time></trkpt><trkpt lat="45.6828199" lon="11.6263581"><ele>64.6</ele><time>2026-04-25T17:43:44.117Z</time></trkpt><trkpt lat="45.6828742" lon="11.6262245"><ele>64.4</ele><time>2026-04-25T17:43:46.119Z</time></trkpt><trkpt lat="45.6829294" lon="11.626091"><ele>64.2</ele><time>2026-04-25T17:43:48.117Z</time></trkpt><trkpt lat="45.6829831" lon="11.6259587"><ele>64.0</ele><time>2026-04-25T17:43:50.117Z</time></trkpt><trkpt lat="45.6830371" lon="11.6258319"><ele>64.0</ele><time>2026-04-25T17:43:52.117Z</time></trkpt><trkpt lat="45.6830829" lon="11.6256977"><ele>64.0</ele><time>2026-04-25T17:43:54.118Z</time></trkpt><trkpt lat="45.6831214" lon="11.6255529"><ele>64.0</ele><time>2026-04-25T17:43:56.118Z</time></trkpt><trkpt lat="45.6831565" lon="11.625407"><ele>64.0</ele><time>2026-04-25T17:43:58.118Z</time></trkpt><trkpt lat="45.6831906" lon="11.6252576"><ele>64.0</ele><time>2026-04-25T17:44:00.118Z</time></trkpt><trkpt lat="45.6832271" lon="11.6251019"><ele>64.2</ele><time>2026-04-25T17:44:02.118Z</time></trkpt><trkpt lat="45.683265" lon="11.6249534"><ele>64.4</ele><time>2026-04-25T17:44:04.119Z</time></trkpt><trkpt lat="45.6832998" lon="11.6248019"><ele>64.6</ele><time>2026-04-25T17:44:06.119Z</time></trkpt><trkpt lat="45.68333" lon="11.6246511"><ele>64.8</ele><time>2026-04-25T17:44:08.118Z</time></trkpt><trkpt lat="45.6833605" lon="11.6245031"><ele>65.0</ele><time>2026-04-25T17:44:10.118Z</time></trkpt><trkpt lat="45.6833998" lon="11.6243635"><ele>65.2</ele><time>2026-04-25T17:44:12.118Z</time></trkpt><trkpt lat="45.6834357" lon="11.624223"><ele>65.4</ele><time>2026-04-25T17:44:14.118Z</time></trkpt><trkpt lat="45.6834683" lon="11.624081"><ele>65.6</ele><time>2026-04-25T17:44:16.118Z</time></trkpt><trkpt lat="45.6835013" lon="11.623944"><ele>65.8</ele><time>2026-04-25T17:44:18.118Z</time></trkpt><trkpt lat="45.6835349" lon="11.6238056"><ele>66.0</ele><time>2026-04-25T17:44:20.118Z</time></trkpt><trkpt lat="45.6835637" lon="11.6236696"><ele>65.8</ele><time>2026-04-25T17:44:22.118Z</time></trkpt><trkpt lat="45.6835967" lon="11.6235321"><ele>65.6</ele><time>2026-04-25T17:44:24.119Z</time></trkpt><trkpt lat="45.6836277" lon="11.6233939"><ele>65.4</ele><time>2026-04-25T17:44:26.118Z</time></trkpt><trkpt lat="45.6836561" lon="11.6232549"><ele>65.2</ele><time>2026-04-25T17:44:28.118Z</time></trkpt><trkpt lat="45.6836874" lon="11.6231247"><ele>65.0</ele><time>2026-04-25T17:44:30.119Z</time></trkpt><trkpt lat="45.6837217" lon="11.6230029"><ele>65.0</ele><time>2026-04-25T17:44:32.118Z</time></trkpt><trkpt lat="45.683749" lon="11.6228823"><ele>65.0</ele><time>2026-04-25T17:44:34.118Z</time></trkpt><trkpt lat="45.6837876" lon="11.6227626"><ele>65.0</ele><time>2026-04-25T17:44:36.119Z</time></trkpt><trkpt lat="45.6838271" lon="11.6226533"><ele>65.0</ele><time>2026-04-25T17:44:38.118Z</time></trkpt><trkpt lat="45.6838648" lon="11.6225512"><ele>65.0</ele><time>2026-04-25T17:44:40.118Z</time></trkpt><trkpt lat="45.6838951" lon="11.6224494"><ele>65.0</ele><time>2026-04-25T17:44:42.118Z</time></trkpt><trkpt lat="45.6839358" lon="11.6223471"><ele>65.16666666666667</ele><time>2026-04-25T17:44:44.118Z</time></trkpt><trkpt lat="45.6839688" lon="11.6222585"><ele>65.33333333333334</ele><time>2026-04-25T17:44:46.119Z</time></trkpt><trkpt lat="45.683996" lon="11.6221706"><ele>65.5</ele><time>2026-04-25T17:44:48.118Z</time></trkpt><trkpt lat="45.6840443" lon="11.6220573"><ele>65.66666666666667</ele><time>2026-04-25T17:44:51.118Z</time></trkpt><trkpt lat="45.6840775" lon="11.6219371"><ele>65.83333333333333</ele><time>2026-04-25T17:44:54.119Z</time></trkpt><trkpt lat="45.6841166" lon="11.621829"><ele>66.0</ele><time>2026-04-25T17:44:57.119Z</time></trkpt><trkpt lat="45.6841471" lon="11.6217366"><ele>66.0</ele><time>2026-04-25T17:44:59.119Z</time></trkpt><trkpt lat="45.6841818" lon="11.6216464"><ele>66.0</ele><time>2026-04-25T17:45:01.119Z</time></trkpt><trkpt lat="45.6842146" lon="11.6215509"><ele>66.0</ele><time>2026-04-25T17:45:03.119Z</time></trkpt><trkpt lat="45.6842543" lon="11.6214251"><ele>66.0</ele><time>2026-04-25T17:45:05.119Z</time></trkpt><trkpt lat="45.6842898" lon="11.6212761"><ele>66.0</ele><time>2026-04-25T17:45:07.119Z</time></trkpt><trkpt lat="45.684321" lon="11.6211172"><ele>65.83333333333333</ele><time>2026-04-25T17:45:09.119Z</time></trkpt><trkpt lat="45.6843486" lon="11.6209433"><ele>65.66666666666667</ele><time>2026-04-25T17:45:11.12Z</time></trkpt><trkpt lat="45.6843747" lon="11.6207735"><ele>65.5</ele><time>2026-04-25T17:45:13.119Z</time></trkpt><trkpt lat="45.6843844" lon="11.6206835"><ele>65.33333333333334</ele><time>2026-04-25T17:45:14.119Z</time></trkpt><trkpt lat="45.6843926" lon="11.6205937"><ele>65.16666666666667</ele><time>2026-04-25T17:45:15.119Z</time></trkpt><trkpt lat="45.6844015" lon="11.6205014"><ele>65.0</ele><time>2026-04-25T17:45:16.119Z</time></trkpt><trkpt lat="45.684417" lon="11.6203219"><ele>65.00000000000001</ele><time>2026-04-25T17:45:18.119Z</time></trkpt><trkpt lat="45.6844252" lon="11.6202303"><ele>65.0</ele><time>2026-04-25T17:45:19.119Z</time></trkpt><trkpt lat="45.6844312" lon="11.6201358"><ele>65.0</ele><time>2026-04-25T17:45:20.119Z</time></trkpt><trkpt lat="45.6844346" lon="11.6200416"><ele>65.0</ele><time>2026-04-25T17:45:21.119Z</time></trkpt><trkpt lat="45.6844371" lon="11.6199479"><ele>65.0</ele><time>2026-04-25T17:45:22.12Z</time></trkpt><trkpt lat="45.6844396" lon="11.6198559"><ele>65.00000000000001</ele><time>2026-04-25T17:45:23.119Z</time></trkpt><trkpt lat="45.684441" lon="11.6197617"><ele>65.0</ele><time>2026-04-25T17:45:24.119Z</time></trkpt><trkpt lat="45.6844394" lon="11.6196654"><ele>65.0</ele><time>2026-04-25T17:45:25.12Z</time></trkpt><trkpt lat="45.6844382" lon="11.6195746"><ele>65.0</ele><time>2026-04-25T17:45:26.119Z</time></trkpt><trkpt lat="45.6844361" lon="11.6194012"><ele>65.0</ele><time>2026-04-25T17:45:28.119Z</time></trkpt><trkpt lat="45.6844391" lon="11.6192423"><ele>65.0</ele><time>2026-04-25T17:45:30.119Z</time></trkpt><trkpt lat="45.6844468" lon="11.6190853"><ele>65.0</ele><time>2026-04-25T17:45:32.119Z</time></trkpt><trkpt lat="45.6844514" lon="11.618923"><ele>65.0</ele><time>2026-04-25T17:45:34.119Z</time></trkpt><trkpt lat="45.6844567" lon="11.6187582"><ele>65.0</ele><time>2026-04-25T17:45:36.119Z</time></trkpt><trkpt lat="45.6844653" lon="11.6185916"><ele>65.0</ele><time>2026-04-25T17:45:38.119Z</time></trkpt><trkpt lat="45.6844693" lon="11.6184258"><ele>65.0</ele><time>2026-04-25T17:45:40.119Z</time></trkpt><trkpt lat="45.684473" lon="11.6182768"><ele>65.2</ele><time>2026-04-25T17:45:42.12Z</time></trkpt><trkpt lat="45.6844758" lon="11.6181201"><ele>65.4</ele><time>2026-04-25T17:45:44.119Z</time></trkpt><trkpt lat="45.6844786" lon="11.6179713"><ele>65.6</ele><time>2026-04-25T17:45:46.119Z</time></trkpt><trkpt lat="45.6844776" lon="11.617826"><ele>65.8</ele><time>2026-04-25T17:45:48.121Z</time></trkpt><trkpt lat="45.6844841" lon="11.6176642"><ele>66.0</ele><time>2026-04-25T17:45:50.119Z</time></trkpt><trkpt lat="45.684495" lon="11.6174925"><ele>66.0</ele><time>2026-04-25T17:45:52.12Z</time></trkpt><trkpt lat="45.6844963" lon="11.6173272"><ele>66.0</ele><time>2026-04-25T17:45:54.12Z</time></trkpt><trkpt lat="45.6845027" lon="11.6171751"><ele>66.0</ele><time>2026-04-25T17:45:56.121Z</time></trkpt><trkpt lat="45.6845082" lon="11.6170268"><ele>66.0</ele><time>2026-04-25T17:45:58.12Z</time></trkpt><trkpt lat="45.6845104" lon="11.6168818"><ele>66.0</ele><time>2026-04-25T17:46:00.12Z</time></trkpt><trkpt lat="45.6845119" lon="11.6167408"><ele>66.0</ele><time>2026-04-25T17:46:02.12Z</time></trkpt><trkpt lat="45.6845148" lon="11.6165937"><ele>66.0</ele><time>2026-04-25T17:46:04.121Z</time></trkpt><trkpt lat="45.6845241" lon="11.6164479"><ele>66.0</ele><time>2026-04-25T17:46:06.12Z</time></trkpt><trkpt lat="45.6845313" lon="11.6162952"><ele>66.0</ele><time>2026-04-25T17:46:08.12Z</time></trkpt><trkpt lat="45.6845342" lon="11.616147"><ele>66.0</ele><time>2026-04-25T17:46:10.12Z</time></trkpt><trkpt lat="45.6845389" lon="11.6159877"><ele>66.0</ele><time>2026-04-25T17:46:12.12Z</time></trkpt><trkpt lat="45.6845414" lon="11.6158325"><ele>66.0</ele><time>2026-04-25T17:46:14.12Z</time></trkpt><trkpt lat="45.6845442" lon="11.6157022"><ele>66.0</ele><time>2026-04-25T17:46:16.12Z</time></trkpt><trkpt lat="45.6845466" lon="11.6155744"><ele>66.0</ele><time>2026-04-25T17:46:18.12Z</time></trkpt><trkpt lat="45.6845501" lon="11.615437"><ele>66.0</ele><time>2026-04-25T17:46:20.12Z</time></trkpt><trkpt lat="45.6845543" lon="11.6153021"><ele>66.0</ele><time>2026-04-25T17:46:22.12Z</time></trkpt><trkpt lat="45.6845573" lon="11.6151643"><ele>66.0</ele><time>2026-04-25T17:46:24.12Z</time></trkpt><trkpt lat="45.6845547" lon="11.6150155"><ele>66.0</ele><time>2026-04-25T17:46:26.12Z</time></trkpt><trkpt lat="45.6845491" lon="11.6148718"><ele>66.0</ele><time>2026-04-25T17:46:28.12Z</time></trkpt><trkpt lat="45.6845423" lon="11.6147357"><ele>66.0</ele><time>2026-04-25T17:46:30.12Z</time></trkpt><trkpt lat="45.6845319" lon="11.6145918"><ele>66.39999999999999</ele><time>2026-04-25T17:46:32.12Z</time></trkpt><trkpt lat="45.684522" lon="11.6144529"><ele>66.8</ele><time>2026-04-25T17:46:34.12Z</time></trkpt><trkpt lat="45.6845068" lon="11.6143137"><ele>67.19999999999999</ele><time>2026-04-25T17:46:36.12Z</time></trkpt><trkpt lat="45.6844927" lon="11.6141699"><ele>67.6</ele><time>2026-04-25T17:46:38.12Z</time></trkpt><trkpt lat="45.6844858" lon="11.6140301"><ele>68.0</ele><time>2026-04-25T17:46:40.12Z</time></trkpt><trkpt lat="45.6844787" lon="11.6138904"><ele>68.0</ele><time>2026-04-25T17:46:42.121Z</time></trkpt><trkpt lat="45.6844726" lon="11.6137526"><ele>68.0</ele><time>2026-04-25T17:46:44.12Z</time></trkpt><trkpt lat="45.6844642" lon="11.6136351"><ele>68.0</ele><time>2026-04-25T17:46:46.121Z</time></trkpt><trkpt lat="45.6844533" lon="11.6135217"><ele>68.0</ele><time>2026-04-25T17:46:48.12Z</time></trkpt><trkpt lat="45.6844423" lon="11.6133999"><ele>68.0</ele><time>2026-04-25T17:46:50.121Z</time></trkpt><trkpt lat="45.684438" lon="11.6132703"><ele>68.0</ele><time>2026-04-25T17:46:52.121Z</time></trkpt><trkpt lat="45.6844266" lon="11.6131432"><ele>68.0</ele><time>2026-04-25T17:46:54.122Z</time></trkpt><trkpt lat="45.6844215" lon="11.6130125"><ele>68.0</ele><time>2026-04-25T17:46:56.121Z</time></trkpt><trkpt lat="45.6844154" lon="11.6128875"><ele>68.0</ele><time>2026-04-25T17:46:58.121Z</time></trkpt><trkpt lat="45.6844129" lon="11.6127566"><ele>68.0</ele><time>2026-04-25T17:47:00.121Z</time></trkpt><trkpt lat="45.6844025" lon="11.6126109"><ele>68.0</ele><time>2026-04-25T17:47:02.121Z</time></trkpt><trkpt lat="45.6843877" lon="11.6124767"><ele>68.0</ele><time>2026-04-25T17:47:04.122Z</time></trkpt><trkpt lat="45.6843794" lon="11.6123402"><ele>68.0</ele><time>2026-04-25T17:47:06.122Z</time></trkpt><trkpt lat="45.6843717" lon="11.6122056"><ele>68.0</ele><time>2026-04-25T17:47:08.121Z</time></trkpt><trkpt lat="45.684364" lon="11.612073"><ele>68.0</ele><time>2026-04-25T17:47:10.121Z</time></trkpt><trkpt lat="45.6843623" lon="11.6119411"><ele>68.0</ele><time>2026-04-25T17:47:12.121Z</time></trkpt><trkpt lat="45.6843738" lon="11.6118051"><ele>68.0</ele><time>2026-04-25T17:47:14.122Z</time></trkpt><trkpt lat="45.6843852" lon="11.6116611"><ele>68.0</ele><time>2026-04-25T17:47:16.121Z</time></trkpt><trkpt lat="45.684396" lon="11.6115098"><ele>68.0</ele><time>2026-04-25T17:47:18.121Z</time></trkpt><trkpt lat="45.6844146" lon="11.6113797"><ele>68.0</ele><time>2026-04-25T17:47:20.121Z</time></trkpt><trkpt lat="45.6844321" lon="11.6112614"><ele>68.0</ele><time>2026-04-25T17:47:22.121Z</time></trkpt><trkpt lat="45.6844545" lon="11.6111444"><ele>67.8</ele><time>2026-04-25T17:47:24.121Z</time></trkpt><trkpt lat="45.6844901" lon="11.6110105"><ele>67.6</ele><time>2026-04-25T17:47:26.121Z</time></trkpt><trkpt lat="45.6845149" lon="11.6108772"><ele>67.4</ele><time>2026-04-25T17:47:28.121Z</time></trkpt><trkpt lat="45.6845356" lon="11.6107413"><ele>67.2</ele><time>2026-04-25T17:47:30.121Z</time></trkpt><trkpt lat="45.684557" lon="11.6106026"><ele>67.0</ele><time>2026-04-25T17:47:32.122Z</time></trkpt><trkpt lat="45.6845686" lon="11.6104555"><ele>67.2</ele><time>2026-04-25T17:47:34.121Z</time></trkpt><trkpt lat="45.6845779" lon="11.6103105"><ele>67.4</ele><time>2026-04-25T17:47:36.121Z</time></trkpt><trkpt lat="45.6845863" lon="11.6101729"><ele>67.6</ele><time>2026-04-25T17:47:38.121Z</time></trkpt><trkpt lat="45.6845928" lon="11.6100413"><ele>67.8</ele><time>2026-04-25T17:47:40.122Z</time></trkpt><trkpt lat="45.6845861" lon="11.6099019"><ele>68.0</ele><time>2026-04-25T17:47:42.121Z</time></trkpt><trkpt lat="45.6845813" lon="11.6097587"><ele>68.0</ele><time>2026-04-25T17:47:44.121Z</time></trkpt><trkpt lat="45.684576" lon="11.6096204"><ele>68.0</ele><time>2026-04-25T17:47:46.123Z</time></trkpt><trkpt lat="45.6845679" lon="11.6094809"><ele>68.0</ele><time>2026-04-25T17:47:48.122Z</time></trkpt><trkpt lat="45.6845654" lon="11.6093507"><ele>68.0</ele><time>2026-04-25T17:47:50.122Z</time></trkpt><trkpt lat="45.6845569" lon="11.6092168"><ele>68.0</ele><time>2026-04-25T17:47:52.122Z</time></trkpt><trkpt lat="45.6845484" lon="11.6090824"><ele>68.2</ele><time>2026-04-25T17:47:54.123Z</time></trkpt><trkpt lat="45.6845404" lon="11.608945"><ele>68.4</ele><time>2026-04-25T17:47:56.122Z</time></trkpt><trkpt lat="45.6845332" lon="11.6088082"><ele>68.60000000000001</ele><time>2026-04-25T17:47:58.123Z</time></trkpt><trkpt lat="45.6845269" lon="11.6086734"><ele>68.8</ele><time>2026-04-25T17:48:00.122Z</time></trkpt><trkpt lat="45.6845194" lon="11.6085372"><ele>69.0</ele><time>2026-04-25T17:48:02.122Z</time></trkpt><trkpt lat="45.684512" lon="11.6084026"><ele>69.0</ele><time>2026-04-25T17:48:04.122Z</time></trkpt><trkpt lat="45.6845042" lon="11.6082711"><ele>69.0</ele><time>2026-04-25T17:48:06.122Z</time></trkpt><trkpt lat="45.6844968" lon="11.6081313"><ele>69.0</ele><time>2026-04-25T17:48:08.122Z</time></trkpt><trkpt lat="45.6844901" lon="11.6079868"><ele>69.0</ele><time>2026-04-25T17:48:10.122Z</time></trkpt><trkpt lat="45.6844819" lon="11.6078398"><ele>69.0</ele><time>2026-04-25T17:48:12.122Z</time></trkpt><trkpt lat="45.6844742" lon="11.6076969"><ele>69.2</ele><time>2026-04-25T17:48:14.122Z</time></trkpt><trkpt lat="45.6844637" lon="11.6075502"><ele>69.4</ele><time>2026-04-25T17:48:16.123Z</time></trkpt><trkpt lat="45.6844532" lon="11.6074091"><ele>69.6</ele><time>2026-04-25T17:48:18.122Z</time></trkpt><trkpt lat="45.6844438" lon="11.607267"><ele>69.8</ele><time>2026-04-25T17:48:20.122Z</time></trkpt><trkpt lat="45.6844388" lon="11.6071296"><ele>70.0</ele><time>2026-04-25T17:48:22.122Z</time></trkpt><trkpt lat="45.6844328" lon="11.6069873"><ele>70.33333333333333</ele><time>2026-04-25T17:48:24.122Z</time></trkpt><trkpt lat="45.684421" lon="11.6068442"><ele>70.66666666666666</ele><time>2026-04-25T17:48:26.122Z</time></trkpt><trkpt lat="45.6844163" lon="11.6067106"><ele>71.0</ele><time>2026-04-25T17:48:28.122Z</time></trkpt><trkpt lat="45.6844026" lon="11.6065861"><ele>71.33333333333333</ele><time>2026-04-25T17:48:30.122Z</time></trkpt><trkpt lat="45.6843939" lon="11.6064647"><ele>71.66666666666667</ele><time>2026-04-25T17:48:32.122Z</time></trkpt><trkpt lat="45.6844058" lon="11.606352"><ele>72.0</ele><time>2026-04-25T17:48:34.122Z</time></trkpt><trkpt lat="45.6844287" lon="11.6062415"><ele>72.0</ele><time>2026-04-25T17:48:36.123Z</time></trkpt><trkpt lat="45.6844758" lon="11.6061332"><ele>72.0</ele><time>2026-04-25T17:48:38.122Z</time></trkpt><trkpt lat="45.6845027" lon="11.6060159"><ele>72.0</ele><time>2026-04-25T17:48:40.122Z</time></trkpt><trkpt lat="45.6844682" lon="11.6059079"><ele>72.0</ele><time>2026-04-25T17:48:42.122Z</time></trkpt><trkpt lat="45.6843828" lon="11.6058761"><ele>72.0</ele><time>2026-04-25T17:48:44.122Z</time></trkpt><trkpt lat="45.6842776" lon="11.6058967"><ele>72.0</ele><time>2026-04-25T17:48:46.123Z</time></trkpt><trkpt lat="45.6841572" lon="11.6059108"><ele>72.0</ele><time>2026-04-25T17:48:48.123Z</time></trkpt><trkpt lat="45.6840924" lon="11.6059155"><ele>72.0</ele><time>2026-04-25T17:48:49.123Z</time></trkpt><trkpt lat="45.6839753" lon="11.6059264"><ele>72.0</ele><time>2026-04-25T17:48:51.123Z</time></trkpt><trkpt lat="45.6838711" lon="11.6059436"><ele>72.0</ele><time>2026-04-25T17:48:53.123Z</time></trkpt><trkpt lat="45.6837714" lon="11.6059578"><ele>72.0</ele><time>2026-04-25T17:48:55.124Z</time></trkpt><trkpt lat="45.6836776" lon="11.6059699"><ele>72.0</ele><time>2026-04-25T17:48:57.123Z</time></trkpt><trkpt lat="45.6835897" lon="11.6059806"><ele>72.0</ele><time>2026-04-25T17:48:59.123Z</time></trkpt><trkpt lat="45.6835085" lon="11.6059787"><ele>72.0</ele><time>2026-04-25T17:49:01.123Z</time></trkpt><trkpt lat="45.6834325" lon="11.6059858"><ele>72.0</ele><time>2026-04-25T17:49:03.123Z</time></trkpt><trkpt lat="45.6833273" lon="11.6060001"><ele>72.0</ele><time>2026-04-25T17:49:05.123Z</time></trkpt><trkpt lat="45.6832081" lon="11.6060054"><ele>71.8</ele><time>2026-04-25T17:49:07.123Z</time></trkpt><trkpt lat="45.6831067" lon="11.6060094"><ele>71.6</ele><time>2026-04-25T17:49:09.123Z</time></trkpt><trkpt lat="45.683017" lon="11.6060206"><ele>71.39999999999999</ele><time>2026-04-25T17:49:11.123Z</time></trkpt><trkpt lat="45.6829273" lon="11.6060194"><ele>71.2</ele><time>2026-04-25T17:49:13.123Z</time></trkpt><trkpt lat="45.6828347" lon="11.6060163"><ele>71.0</ele><time>2026-04-25T17:49:15.124Z</time></trkpt><trkpt lat="45.6827316" lon="11.6060238"><ele>71.8</ele><time>2026-04-25T17:49:17.124Z</time></trkpt><trkpt lat="45.6826293" lon="11.6060278"><ele>72.6</ele><time>2026-04-25T17:49:19.123Z</time></trkpt><trkpt lat="45.6825242" lon="11.6060396"><ele>73.4</ele><time>2026-04-25T17:49:21.124Z</time></trkpt><trkpt lat="45.6824165" lon="11.6060477"><ele>74.2</ele><time>2026-04-25T17:49:23.123Z</time></trkpt><trkpt lat="45.682307" lon="11.6060597"><ele>75.0</ele><time>2026-04-25T17:49:25.123Z</time></trkpt><trkpt lat="45.6822093" lon="11.6060722"><ele>75.0</ele><time>2026-04-25T17:49:27.123Z</time></trkpt><trkpt lat="45.6821182" lon="11.606089"><ele>75.0</ele><time>2026-04-25T17:49:29.124Z</time></trkpt><trkpt lat="45.6820316" lon="11.6060888"><ele>75.0</ele><time>2026-04-25T17:49:31.123Z</time></trkpt><trkpt lat="45.6819375" lon="11.6060868"><ele>75.0</ele><time>2026-04-25T17:49:33.123Z</time></trkpt><trkpt lat="45.6818402" lon="11.6060935"><ele>75.0</ele><time>2026-04-25T17:49:35.123Z</time></trkpt><trkpt lat="45.6817378" lon="11.6061058"><ele>74.4</ele><time>2026-04-25T17:49:37.123Z</time></trkpt><trkpt lat="45.6816329" lon="11.6061138"><ele>73.8</ele><time>2026-04-25T17:49:39.123Z</time></trkpt><trkpt lat="45.681533" lon="11.606122"><ele>73.2</ele><time>2026-04-25T17:49:41.123Z</time></trkpt><trkpt lat="45.6814296" lon="11.6061333"><ele>72.6</ele><time>2026-04-25T17:49:43.124Z</time></trkpt><trkpt lat="45.6813126" lon="11.6061374"><ele>72.0</ele><time>2026-04-25T17:49:45.124Z</time></trkpt><trkpt lat="45.6812123" lon="11.6061487"><ele>72.0</ele><time>2026-04-25T17:49:47.124Z</time></trkpt><trkpt lat="45.6811172" lon="11.6061558"><ele>72.0</ele><time>2026-04-25T17:49:49.124Z</time></trkpt><trkpt lat="45.6810259" lon="11.6061603"><ele>72.0</ele><time>2026-04-25T17:49:51.124Z</time></trkpt><trkpt lat="45.6809405" lon="11.6061676"><ele>72.0</ele><time>2026-04-25T17:49:53.124Z</time></trkpt><trkpt lat="45.6808553" lon="11.6061804"><ele>72.0</ele><time>2026-04-25T17:49:55.124Z</time></trkpt><trkpt lat="45.6807669" lon="11.6061853"><ele>72.0</ele><time>2026-04-25T17:49:57.124Z</time></trkpt><trkpt lat="45.6806734" lon="11.6061949"><ele>71.8</ele><time>2026-04-25T17:49:59.124Z</time></trkpt><trkpt lat="45.6805772" lon="11.6062066"><ele>71.6</ele><time>2026-04-25T17:50:01.124Z</time></trkpt><trkpt lat="45.6804776" lon="11.6062207"><ele>71.39999999999999</ele><time>2026-04-25T17:50:03.124Z</time></trkpt><trkpt lat="45.6803837" lon="11.6062492"><ele>71.2</ele><time>2026-04-25T17:50:05.125Z</time></trkpt><trkpt lat="45.6802893" lon="11.6063101"><ele>71.0</ele><time>2026-04-25T17:50:07.124Z</time></trkpt><trkpt lat="45.6801866" lon="11.6063245"><ele>70.6</ele><time>2026-04-25T17:50:09.124Z</time></trkpt><trkpt lat="45.6800889" lon="11.6063191"><ele>70.19999999999999</ele><time>2026-04-25T17:50:11.124Z</time></trkpt><trkpt lat="45.679997" lon="11.6063402"><ele>69.80000000000001</ele><time>2026-04-25T17:50:13.125Z</time></trkpt><trkpt lat="45.6799037" lon="11.606334"><ele>69.4</ele><time>2026-04-25T17:50:15.125Z</time></trkpt><trkpt lat="45.679809" lon="11.6063205"><ele>69.0</ele><time>2026-04-25T17:50:17.124Z</time></trkpt><trkpt lat="45.6797222" lon="11.6063117"><ele>69.0</ele><time>2026-04-25T17:50:19.124Z</time></trkpt><trkpt lat="45.6796427" lon="11.6063115"><ele>69.0</ele><time>2026-04-25T17:50:21.124Z</time></trkpt><trkpt lat="45.6795686" lon="11.6063068"><ele>69.0</ele><time>2026-04-25T17:50:23.124Z</time></trkpt><trkpt lat="45.679488" lon="11.606305"><ele>69.0</ele><time>2026-04-25T17:50:25.124Z</time></trkpt><trkpt lat="45.6793928" lon="11.6062909"><ele>69.0</ele><time>2026-04-25T17:50:27.124Z</time></trkpt><trkpt lat="45.6792913" lon="11.6062993"><ele>69.0</ele><time>2026-04-25T17:50:29.125Z</time></trkpt><trkpt lat="45.6791712" lon="11.6062986"><ele>69.0</ele><time>2026-04-25T17:50:31.124Z</time></trkpt><trkpt lat="45.6790721" lon="11.6062795"><ele>69.0</ele><time>2026-04-25T17:50:33.125Z</time></trkpt><trkpt lat="45.6789824" lon="11.6062612"><ele>69.0</ele><time>2026-04-25T17:50:35.125Z</time></trkpt><trkpt lat="45.6788982" lon="11.6062415"><ele>69.0</ele><time>2026-04-25T17:50:37.124Z</time></trkpt><trkpt lat="45.6788177" lon="11.6062467"><ele>69.0</ele><time>2026-04-25T17:50:39.124Z</time></trkpt><trkpt lat="45.6787526" lon="11.606221"><ele>69.0</ele><time>2026-04-25T17:50:41.125Z</time></trkpt><trkpt lat="45.6786797" lon="11.6061955"><ele>69.0</ele><time>2026-04-25T17:50:43.125Z</time></trkpt><trkpt lat="45.6786099" lon="11.6061902"><ele>69.0</ele><time>2026-04-25T17:50:45.125Z</time></trkpt><trkpt lat="45.6785434" lon="11.6061753"><ele>69.0</ele><time>2026-04-25T17:50:47.126Z</time></trkpt><trkpt lat="45.6784655" lon="11.6061565"><ele>69.0</ele><time>2026-04-25T17:50:49.125Z</time></trkpt><trkpt lat="45.6783583" lon="11.6061523"><ele>69.0</ele><time>2026-04-25T17:50:51.125Z</time></trkpt><trkpt lat="45.6782538" lon="11.6061506"><ele>69.0</ele><time>2026-04-25T17:50:53.126Z</time></trkpt><trkpt lat="45.6781631" lon="11.6061373"><ele>69.16666666666667</ele><time>2026-04-25T17:50:55.125Z</time></trkpt><trkpt lat="45.6780789" lon="11.6061393"><ele>69.33333333333333</ele><time>2026-04-25T17:50:57.125Z</time></trkpt><trkpt lat="45.6779989" lon="11.6061261"><ele>69.5</ele><time>2026-04-25T17:50:59.125Z</time></trkpt><trkpt lat="45.6779237" lon="11.6061102"><ele>69.66666666666666</ele><time>2026-04-25T17:51:01.125Z</time></trkpt><trkpt lat="45.6778495" lon="11.6061005"><ele>69.83333333333333</ele><time>2026-04-25T17:51:03.125Z</time></trkpt><trkpt lat="45.6777843" lon="11.6060954"><ele>70.0</ele><time>2026-04-25T17:51:05.125Z</time></trkpt><trkpt lat="45.6777154" lon="11.6060886"><ele>69.4</ele><time>2026-04-25T17:51:07.126Z</time></trkpt><trkpt lat="45.6776319" lon="11.6060617"><ele>68.8</ele><time>2026-04-25T17:51:09.125Z</time></trkpt><trkpt lat="45.6775234" lon="11.6060314"><ele>68.2</ele><time>2026-04-25T17:51:11.125Z</time></trkpt><trkpt lat="45.6774101" lon="11.6059882"><ele>67.6</ele><time>2026-04-25T17:51:13.125Z</time></trkpt><trkpt lat="45.6773077" lon="11.6059588"><ele>67.0</ele><time>2026-04-25T17:51:15.125Z</time></trkpt><trkpt lat="45.6772157" lon="11.6059328"><ele>67.0</ele><time>2026-04-25T17:51:17.126Z</time></trkpt><trkpt lat="45.6771318" lon="11.6059096"><ele>67.0</ele><time>2026-04-25T17:51:19.125Z</time></trkpt><trkpt lat="45.6770498" lon="11.6058818"><ele>67.0</ele><time>2026-04-25T17:51:21.126Z</time></trkpt><trkpt lat="45.6769657" lon="11.6058572"><ele>67.0</ele><time>2026-04-25T17:51:23.125Z</time></trkpt><trkpt lat="45.6768809" lon="11.605839"><ele>67.0</ele><time>2026-04-25T17:51:25.126Z</time></trkpt><trkpt lat="45.676801" lon="11.6058215"><ele>67.0</ele><time>2026-04-25T17:51:27.126Z</time></trkpt><trkpt lat="45.6767149" lon="11.6058011"><ele>67.0</ele><time>2026-04-25T17:51:29.125Z</time></trkpt><trkpt lat="45.6766312" lon="11.6057781"><ele>67.0</ele><time>2026-04-25T17:51:31.125Z</time></trkpt><trkpt lat="45.6765573" lon="11.6057608"><ele>67.0</ele><time>2026-04-25T17:51:33.126Z</time></trkpt><trkpt lat="45.6764783" lon="11.6057366"><ele>67.0</ele><time>2026-04-25T17:51:35.126Z</time></trkpt><trkpt lat="45.6763938" lon="11.6057089"><ele>67.0</ele><time>2026-04-25T17:51:37.126Z</time></trkpt><trkpt lat="45.6763079" lon="11.6056786"><ele>67.0</ele><time>2026-04-25T17:51:39.126Z</time></trkpt><trkpt lat="45.6762145" lon="11.6056501"><ele>67.0</ele><time>2026-04-25T17:51:41.126Z</time></trkpt><trkpt lat="45.6761289" lon="11.6056193"><ele>67.0</ele><time>2026-04-25T17:51:43.126Z</time></trkpt><trkpt lat="45.6760504" lon="11.6055951"><ele>67.0</ele><time>2026-04-25T17:51:45.126Z</time></trkpt><trkpt lat="45.675959" lon="11.6055619"><ele>67.0</ele><time>2026-04-25T17:51:48.126Z</time></trkpt><trkpt lat="45.6758678" lon="11.6055382"><ele>67.0</ele><time>2026-04-25T17:51:51.126Z</time></trkpt><trkpt lat="45.6757724" lon="11.6054952"><ele>66.8</ele><time>2026-04-25T17:51:53.126Z</time></trkpt><trkpt lat="45.6756762" lon="11.6054626"><ele>66.6</ele><time>2026-04-25T17:51:55.126Z</time></trkpt><trkpt lat="45.6755777" lon="11.6054411"><ele>66.39999999999999</ele><time>2026-04-25T17:51:57.126Z</time></trkpt><trkpt lat="45.6754829" lon="11.6054431"><ele>66.2</ele><time>2026-04-25T17:51:59.126Z</time></trkpt><trkpt lat="45.6753902" lon="11.6054597"><ele>66.0</ele><time>2026-04-25T17:52:01.126Z</time></trkpt><trkpt lat="45.6752931" lon="11.6054833"><ele>66.0</ele><time>2026-04-25T17:52:03.126Z</time></trkpt><trkpt lat="45.6751893" lon="11.6054803"><ele>66.0</ele><time>2026-04-25T17:52:05.126Z</time></trkpt><trkpt lat="45.6750909" lon="11.6054463"><ele>66.0</ele><time>2026-04-25T17:52:07.126Z</time></trkpt><trkpt lat="45.674994" lon="11.6054086"><ele>66.0</ele><time>2026-04-25T17:52:09.126Z</time></trkpt><trkpt lat="45.6749001" lon="11.6053547"><ele>66.0</ele><time>2026-04-25T17:52:11.126Z</time></trkpt><trkpt lat="45.6748129" lon="11.6053117"><ele>66.0</ele><time>2026-04-25T17:52:13.126Z</time></trkpt><trkpt lat="45.6747313" lon="11.605291"><ele>66.0</ele><time>2026-04-25T17:52:15.126Z</time></trkpt><trkpt lat="45.6746505" lon="11.6052648"><ele>66.0</ele><time>2026-04-25T17:52:17.126Z</time></trkpt><trkpt lat="45.6745719" lon="11.6052367"><ele>66.0</ele><time>2026-04-25T17:52:19.126Z</time></trkpt><trkpt lat="45.6744834" lon="11.6052107"><ele>66.0</ele><time>2026-04-25T17:52:21.127Z</time></trkpt><trkpt lat="45.6743959" lon="11.6051744"><ele>66.0</ele><time>2026-04-25T17:52:23.126Z</time></trkpt><trkpt lat="45.6743078" lon="11.6051378"><ele>65.83333333333333</ele><time>2026-04-25T17:52:25.126Z</time></trkpt><trkpt lat="45.6742181" lon="11.6051171"><ele>65.66666666666667</ele><time>2026-04-25T17:52:27.126Z</time></trkpt><trkpt lat="45.6741305" lon="11.6050923"><ele>65.5</ele><time>2026-04-25T17:52:29.126Z</time></trkpt><trkpt lat="45.6740392" lon="11.6050774"><ele>65.33333333333334</ele><time>2026-04-25T17:52:31.126Z</time></trkpt><trkpt lat="45.6739503" lon="11.6050649"><ele>65.16666666666667</ele><time>2026-04-25T17:52:33.126Z</time></trkpt><trkpt lat="45.6738668" lon="11.6050462"><ele>65.0</ele><time>2026-04-25T17:52:35.126Z</time></trkpt><trkpt lat="45.6737824" lon="11.6050258"><ele>65.0</ele><time>2026-04-25T17:52:37.128Z</time></trkpt><trkpt lat="45.6736944" lon="11.6050162"><ele>65.0</ele><time>2026-04-25T17:52:39.127Z</time></trkpt><trkpt lat="45.6736035" lon="11.6050056"><ele>65.0</ele><time>2026-04-25T17:52:41.128Z</time></trkpt><trkpt lat="45.6735119" lon="11.6050002"><ele>65.0</ele><time>2026-04-25T17:52:43.127Z</time></trkpt><trkpt lat="45.6734207" lon="11.6049943"><ele>65.0</ele><time>2026-04-25T17:52:45.127Z</time></trkpt><trkpt lat="45.6733275" lon="11.6049843"><ele>65.16666666666667</ele><time>2026-04-25T17:52:47.127Z</time></trkpt><trkpt lat="45.6732431" lon="11.6049756"><ele>65.33333333333334</ele><time>2026-04-25T17:52:49.128Z</time></trkpt><trkpt lat="45.6731619" lon="11.6049658"><ele>65.5</ele><time>2026-04-25T17:52:51.127Z</time></trkpt><trkpt lat="45.6730842" lon="11.6049526"><ele>65.66666666666667</ele><time>2026-04-25T17:52:53.128Z</time></trkpt><trkpt lat="45.6730142" lon="11.604944"><ele>65.83333333333333</ele><time>2026-04-25T17:52:55.127Z</time></trkpt><trkpt lat="45.6729144" lon="11.604923"><ele>66.0</ele><time>2026-04-25T17:52:57.127Z</time></trkpt><trkpt lat="45.6728168" lon="11.604897"><ele>66.0</ele><time>2026-04-25T17:52:59.127Z</time></trkpt><trkpt lat="45.6727398" lon="11.6048668"><ele>66.0</ele><time>2026-04-25T17:53:01.127Z</time></trkpt><trkpt lat="45.6726656" lon="11.6048425"><ele>66.0</ele><time>2026-04-25T17:53:03.127Z</time></trkpt><trkpt lat="45.6725664" lon="11.604809"><ele>66.0</ele><time>2026-04-25T17:53:05.127Z</time></trkpt><trkpt lat="45.6724497" lon="11.6047766"><ele>66.0</ele><time>2026-04-25T17:53:07.127Z</time></trkpt><trkpt lat="45.6723554" lon="11.6047416"><ele>66.0</ele><time>2026-04-25T17:53:09.127Z</time></trkpt><trkpt lat="45.6722723" lon="11.6047115"><ele>66.0</ele><time>2026-04-25T17:53:11.128Z</time></trkpt><trkpt lat="45.6721978" lon="11.6046798"><ele>66.0</ele><time>2026-04-25T17:53:13.127Z</time></trkpt><trkpt lat="45.6721137" lon="11.6046427"><ele>66.0</ele><time>2026-04-25T17:53:15.127Z</time></trkpt><trkpt lat="45.6720103" lon="11.6046034"><ele>66.0</ele><time>2026-04-25T17:53:17.127Z</time></trkpt><trkpt lat="45.671911" lon="11.6045938"><ele>65.66666666666667</ele><time>2026-04-25T17:53:19.127Z</time></trkpt><trkpt lat="45.6718278" lon="11.6046153"><ele>65.33333333333333</ele><time>2026-04-25T17:53:21.127Z</time></trkpt><trkpt lat="45.6717507" lon="11.6046683"><ele>65.0</ele><time>2026-04-25T17:53:23.128Z</time></trkpt><trkpt lat="45.6716863" lon="11.604719"><ele>64.66666666666666</ele><time>2026-04-25T17:53:25.127Z</time></trkpt><trkpt lat="45.6716012" lon="11.6047727"><ele>64.33333333333333</ele><time>2026-04-25T17:53:27.127Z</time></trkpt><trkpt lat="45.6715012" lon="11.6048078"><ele>64.0</ele><time>2026-04-25T17:53:29.128Z</time></trkpt><trkpt lat="45.6714221" lon="11.6047923"><ele>63.99999999999999</ele><time>2026-04-25T17:53:31.127Z</time></trkpt><trkpt lat="45.6713483" lon="11.6047758"><ele>64.0</ele><time>2026-04-25T17:53:33.128Z</time></trkpt><trkpt lat="45.6712648" lon="11.6047519"><ele>64.0</ele><time>2026-04-25T17:53:35.128Z</time></trkpt><trkpt lat="45.6711771" lon="11.6047432"><ele>64.0</ele><time>2026-04-25T17:53:37.128Z</time></trkpt><trkpt lat="45.6710825" lon="11.604729"><ele>63.99999999999999</ele><time>2026-04-25T17:53:39.129Z</time></trkpt><trkpt lat="45.6710207" lon="11.6047079"><ele>64.0</ele><time>2026-04-25T17:53:41.128Z</time></trkpt><trkpt lat="45.6709528" lon="11.6046934"><ele>63.99999999999999</ele><time>2026-04-25T17:53:43.128Z</time></trkpt><trkpt lat="45.67088" lon="11.6046808"><ele>64.0</ele><time>2026-04-25T17:53:45.128Z</time></trkpt><trkpt lat="45.6708012" lon="11.6046728"><ele>64.0</ele><time>2026-04-25T17:53:48.128Z</time></trkpt><trkpt lat="45.6707297" lon="11.6046644"><ele>64.0</ele><time>2026-04-25T17:53:50.128Z</time></trkpt><trkpt lat="45.6706303" lon="11.6046411"><ele>63.99999999999999</ele><time>2026-04-25T17:53:52.128Z</time></trkpt><trkpt lat="45.6705408" lon="11.6046109"><ele>64.0</ele><time>2026-04-25T17:53:54.128Z</time></trkpt><trkpt lat="45.6704662" lon="11.6045739"><ele>63.99999999999999</ele><time>2026-04-25T17:53:56.128Z</time></trkpt><trkpt lat="45.6704004" lon="11.6045223"><ele>64.0</ele><time>2026-04-25T17:53:58.128Z</time></trkpt><trkpt lat="45.6703342" lon="11.6044776"><ele>64.0</ele><time>2026-04-25T17:54:00.128Z</time></trkpt><trkpt lat="45.6702607" lon="11.6044471"><ele>64.0</ele><time>2026-04-25T17:54:02.128Z</time></trkpt><trkpt lat="45.6701575" lon="11.604387"><ele>63.99999999999999</ele><time>2026-04-25T17:54:04.129Z</time></trkpt><trkpt lat="45.6700685" lon="11.6043501"><ele>64.0</ele><time>2026-04-25T17:54:06.128Z</time></trkpt><trkpt lat="45.6699872" lon="11.6043294"><ele>63.99999999999999</ele><time>2026-04-25T17:54:08.128Z</time></trkpt><trkpt lat="45.66991" lon="11.6043098"><ele>64.0</ele><time>2026-04-25T17:54:10.128Z</time></trkpt><trkpt lat="45.6698456" lon="11.6042844"><ele>64.0</ele><time>2026-04-25T17:54:12.128Z</time></trkpt><trkpt lat="45.6697769" lon="11.6042737"><ele>64.0</ele><time>2026-04-25T17:54:14.128Z</time></trkpt><trkpt lat="45.6696876" lon="11.604245"><ele>63.99999999999999</ele><time>2026-04-25T17:54:16.128Z</time></trkpt><trkpt lat="45.6695936" lon="11.6042043"><ele>64.0</ele><time>2026-04-25T17:54:18.128Z</time></trkpt><trkpt lat="45.6695105" lon="11.6041793"><ele>63.99999999999999</ele><time>2026-04-25T17:54:20.128Z</time></trkpt><trkpt lat="45.6694333" lon="11.6041619"><ele>64.0</ele><time>2026-04-25T17:54:22.129Z</time></trkpt><trkpt lat="45.6693484" lon="11.6041299"><ele>64.0</ele><time>2026-04-25T17:54:24.128Z</time></trkpt><trkpt lat="45.6692526" lon="11.6040766"><ele>64.0</ele><time>2026-04-25T17:54:26.128Z</time></trkpt><trkpt lat="45.6691775" lon="11.6040313"><ele>63.99999999999999</ele><time>2026-04-25T17:54:28.129Z</time></trkpt><trkpt lat="45.6691097" lon="11.6039955"><ele>64.0</ele><time>2026-04-25T17:54:30.129Z</time></trkpt><trkpt lat="45.6690499" lon="11.6039649"><ele>63.99999999999999</ele><time>2026-04-25T17:54:32.129Z</time></trkpt><trkpt lat="45.6689721" lon="11.6039299"><ele>64.0</ele><time>2026-04-25T17:54:35.129Z</time></trkpt><trkpt lat="45.6689061" lon="11.6039042"><ele>64.0</ele><time>2026-04-25T17:54:37.129Z</time></trkpt><trkpt lat="45.6688347" lon="11.6038776"><ele>64.0</ele><time>2026-04-25T17:54:39.129Z</time></trkpt><trkpt lat="45.66875" lon="11.6038429"><ele>63.99999999999999</ele><time>2026-04-25T17:54:41.129Z</time></trkpt><trkpt lat="45.6686681" lon="11.6038166"><ele>64.0</ele><time>2026-04-25T17:54:43.129Z</time></trkpt><trkpt lat="45.6685916" lon="11.6037931"><ele>63.83333333333333</ele><time>2026-04-25T17:54:45.129Z</time></trkpt><trkpt lat="45.6685234" lon="11.6037855"><ele>63.666666666666664</ele><time>2026-04-25T17:54:47.129Z</time></trkpt><trkpt lat="45.6684508" lon="11.6037783"><ele>63.5</ele><time>2026-04-25T17:54:49.129Z</time></trkpt><trkpt lat="45.6683716" lon="11.6037832"><ele>63.33333333333333</ele><time>2026-04-25T17:54:51.129Z</time></trkpt><trkpt lat="45.6682873" lon="11.6038063"><ele>63.166666666666664</ele><time>2026-04-25T17:54:53.129Z</time></trkpt><trkpt lat="45.6682038" lon="11.6038228"><ele>63.0</ele><time>2026-04-25T17:54:55.129Z</time></trkpt><trkpt lat="45.6681203" lon="11.6038319"><ele>63.0</ele><time>2026-04-25T17:54:57.129Z</time></trkpt><trkpt lat="45.6680457" lon="11.6038332"><ele>63.0</ele><time>2026-04-25T17:54:59.13Z</time></trkpt><trkpt lat="45.667979" lon="11.6038216"><ele>63.0</ele><time>2026-04-25T17:55:01.13Z</time></trkpt><trkpt lat="45.6678861" lon="11.6037945"><ele>63.0</ele><time>2026-04-25T17:55:04.129Z</time></trkpt><trkpt lat="45.6678037" lon="11.6037613"><ele>63.0</ele><time>2026-04-25T17:55:06.129Z</time></trkpt><trkpt lat="45.6677113" lon="11.603737"><ele>63.0</ele><time>2026-04-25T17:55:08.129Z</time></trkpt><trkpt lat="45.667635" lon="11.6037188"><ele>63.285714285714285</ele><time>2026-04-25T17:55:10.129Z</time></trkpt><trkpt lat="45.6675672" lon="11.6036945"><ele>63.57142857142857</ele><time>2026-04-25T17:55:12.129Z</time></trkpt><trkpt lat="45.6674981" lon="11.6036708"><ele>63.85714285714286</ele><time>2026-04-25T17:55:14.13Z</time></trkpt><trkpt lat="45.6674346" lon="11.6036564"><ele>64.14285714285714</ele><time>2026-04-25T17:55:16.129Z</time></trkpt><trkpt lat="45.6673611" lon="11.6036372"><ele>64.42857142857143</ele><time>2026-04-25T17:55:18.129Z</time></trkpt><trkpt lat="45.667275" lon="11.6036049"><ele>64.71428571428572</ele><time>2026-04-25T17:55:20.13Z</time></trkpt><trkpt lat="45.6672011" lon="11.6035762"><ele>65.0</ele><time>2026-04-25T17:55:22.13Z</time></trkpt><trkpt lat="45.6671306" lon="11.6035388"><ele>65.0</ele><time>2026-04-25T17:55:24.13Z</time></trkpt><trkpt lat="45.6670677" lon="11.6035009"><ele>65.0</ele><time>2026-04-25T17:55:26.13Z</time></trkpt><trkpt lat="45.6669919" lon="11.603434"><ele>65.0</ele><time>2026-04-25T17:55:29.13Z</time></trkpt><trkpt lat="45.6669534" lon="11.6032965"><ele>65.0</ele><time>2026-04-25T17:55:32.13Z</time></trkpt><trkpt lat="45.6669411" lon="11.603153"><ele>65.0</ele><time>2026-04-25T17:55:34.13Z</time></trkpt><trkpt lat="45.6669349" lon="11.6030395"><ele>65.0</ele><time>2026-04-25T17:55:36.131Z</time></trkpt><trkpt lat="45.6669334" lon="11.6029454"><ele>65.16666666666667</ele><time>2026-04-25T17:55:38.13Z</time></trkpt><trkpt lat="45.6669225" lon="11.602821"><ele>65.33333333333334</ele><time>2026-04-25T17:55:41.13Z</time></trkpt><trkpt lat="45.6669093" lon="11.6027119"><ele>65.5</ele><time>2026-04-25T17:55:43.13Z</time></trkpt><trkpt lat="45.6668874" lon="11.6025792"><ele>65.66666666666667</ele><time>2026-04-25T17:55:45.13Z</time></trkpt><trkpt lat="45.6668618" lon="11.6024623"><ele>65.83333333333333</ele><time>2026-04-25T17:55:47.13Z</time></trkpt><trkpt lat="45.6668307" lon="11.6023653"><ele>66.0</ele><time>2026-04-25T17:55:49.13Z</time></trkpt><trkpt lat="45.6667963" lon="11.6022746"><ele>66.0</ele><time>2026-04-25T17:55:51.13Z</time></trkpt><trkpt lat="45.6667569" lon="11.602176"><ele>66.0</ele><time>2026-04-25T17:55:53.131Z</time></trkpt><trkpt lat="45.6667046" lon="11.6020797"><ele>66.0</ele><time>2026-04-25T17:55:55.13Z</time></trkpt><trkpt lat="45.6666253" lon="11.6020111"><ele>66.0</ele><time>2026-04-25T17:55:57.131Z</time></trkpt><trkpt lat="45.6665475" lon="11.6019826"><ele>66.0</ele><time>2026-04-25T17:55:59.13Z</time></trkpt><trkpt lat="45.6664499" lon="11.6019597"><ele>66.0</ele><time>2026-04-25T17:56:01.131Z</time></trkpt><trkpt lat="45.6663387" lon="11.6019386"><ele>66.16666666666667</ele><time>2026-04-25T17:56:03.131Z</time></trkpt><trkpt lat="45.6662469" lon="11.6019051"><ele>66.33333333333333</ele><time>2026-04-25T17:56:05.13Z</time></trkpt><trkpt lat="45.6661613" lon="11.6018718"><ele>66.5</ele><time>2026-04-25T17:56:07.131Z</time></trkpt><trkpt lat="45.6660786" lon="11.6018432"><ele>66.66666666666666</ele><time>2026-04-25T17:56:09.131Z</time></trkpt><trkpt lat="45.6660085" lon="11.6017995"><ele>66.83333333333333</ele><time>2026-04-25T17:56:11.13Z</time></trkpt><trkpt lat="45.6659351" lon="11.6017708"><ele>67.0</ele><time>2026-04-25T17:56:13.131Z</time></trkpt><trkpt lat="45.6658366" lon="11.6017538"><ele>67.0</ele><time>2026-04-25T17:56:15.132Z</time></trkpt><trkpt lat="45.6657288" lon="11.6017101"><ele>67.0</ele><time>2026-04-25T17:56:17.132Z</time></trkpt><trkpt lat="45.6656401" lon="11.6016861"><ele>67.0</ele><time>2026-04-25T17:56:19.132Z</time></trkpt><trkpt lat="45.6655532" lon="11.6016497"><ele>67.0</ele><time>2026-04-25T17:56:21.132Z</time></trkpt><trkpt lat="45.665473" lon="11.6016105"><ele>67.0</ele><time>2026-04-25T17:56:23.131Z</time></trkpt><trkpt lat="45.6653908" lon="11.6015979"><ele>67.0</ele><time>2026-04-25T17:56:25.131Z</time></trkpt><trkpt lat="45.6652983" lon="11.6015578"><ele>67.0</ele><time>2026-04-25T17:56:27.132Z</time></trkpt><trkpt lat="45.665193" lon="11.6015027"><ele>67.0</ele><time>2026-04-25T17:56:29.131Z</time></trkpt><trkpt lat="45.6651016" lon="11.6014586"><ele>67.0</ele><time>2026-04-25T17:56:31.131Z</time></trkpt><trkpt lat="45.6650153" lon="11.6014262"><ele>67.0</ele><time>2026-04-25T17:56:33.131Z</time></trkpt><trkpt lat="45.6649397" lon="11.6014259"><ele>67.0</ele><time>2026-04-25T17:56:35.131Z</time></trkpt><trkpt lat="45.6648524" lon="11.6014269"><ele>67.0</ele><time>2026-04-25T17:56:37.131Z</time></trkpt><trkpt lat="45.6647569" lon="11.6013781"><ele>67.0</ele><time>2026-04-25T17:56:39.131Z</time></trkpt><trkpt lat="45.6647084" lon="11.6012567"><ele>67.0</ele><time>2026-04-25T17:56:42.131Z</time></trkpt><trkpt lat="45.664698" lon="11.6011447"><ele>67.0</ele><time>2026-04-25T17:56:44.131Z</time></trkpt><trkpt lat="45.6646804" lon="11.6010409"><ele>67.0</ele><time>2026-04-25T17:56:46.131Z</time></trkpt><trkpt lat="45.6646319" lon="11.6009567"><ele>67.0</ele><time>2026-04-25T17:56:48.131Z</time></trkpt><trkpt lat="45.6645512" lon="11.6009279"><ele>67.0</ele><time>2026-04-25T17:56:50.131Z</time></trkpt><trkpt lat="45.6644461" lon="11.6009298"><ele>67.0</ele><time>2026-04-25T17:56:52.131Z</time></trkpt><trkpt lat="45.6643549" lon="11.6009011"><ele>67.0</ele><time>2026-04-25T17:56:54.131Z</time></trkpt><trkpt lat="45.6642692" lon="11.6008801"><ele>67.0</ele><time>2026-04-25T17:56:56.131Z</time></trkpt><trkpt lat="45.6642129" lon="11.6008102"><ele>67.0</ele><time>2026-04-25T17:56:58.131Z</time></trkpt><trkpt lat="45.6642142" lon="11.6006833"><ele>67.16666666666666</ele><time>2026-04-25T17:57:00.131Z</time></trkpt><trkpt lat="45.6642293" lon="11.6005875"><ele>67.33333333333333</ele><time>2026-04-25T17:57:02.132Z</time></trkpt><trkpt lat="45.6642336" lon="11.6004757"><ele>67.5</ele><time>2026-04-25T17:57:04.132Z</time></trkpt><trkpt lat="45.6642309" lon="11.6003733"><ele>67.66666666666667</ele><time>2026-04-25T17:57:06.131Z</time></trkpt><trkpt lat="45.6642067" lon="11.6002499"><ele>67.83333333333334</ele><time>2026-04-25T17:57:08.131Z</time></trkpt><trkpt lat="45.6642161" lon="11.6001408"><ele>68.0</ele><time>2026-04-25T17:57:10.131Z</time></trkpt><trkpt lat="45.6642366" lon="11.6000002"><ele>67.66666666666667</ele><time>2026-04-25T17:57:13.131Z</time></trkpt><trkpt lat="45.6642501" lon="11.5998982"><ele>67.33333333333334</ele><time>2026-04-25T17:57:15.133Z</time></trkpt><trkpt lat="45.6642486" lon="11.5997697"><ele>67.0</ele><time>2026-04-25T17:57:17.132Z</time></trkpt><trkpt lat="45.6642545" lon="11.5996462"><ele>66.66666666666667</ele><time>2026-04-25T17:57:19.132Z</time></trkpt><trkpt lat="45.6642015" lon="11.5995608"><ele>66.33333333333333</ele><time>2026-04-25T17:57:21.132Z</time></trkpt><trkpt lat="45.6640841" lon="11.5995393"><ele>66.0</ele><time>2026-04-25T17:57:23.132Z</time></trkpt><trkpt lat="45.6640162" lon="11.5995629"><ele>66.0</ele><time>2026-04-25T17:57:25.132Z</time></trkpt><trkpt lat="45.6639372" lon="11.5995562"><ele>66.0</ele><time>2026-04-25T17:57:28.132Z</time></trkpt><trkpt lat="45.6638504" lon="11.5995668"><ele>66.0</ele><time>2026-04-25T17:57:31.133Z</time></trkpt><trkpt lat="45.6637638" lon="11.5995882"><ele>66.0</ele><time>2026-04-25T17:57:33.132Z</time></trkpt><trkpt lat="45.6636672" lon="11.599608"><ele>66.0</ele><time>2026-04-25T17:57:35.132Z</time></trkpt><trkpt lat="45.6635718" lon="11.5996252"><ele>66.0</ele><time>2026-04-25T17:57:37.132Z</time></trkpt><trkpt lat="45.6635048" lon="11.5996288"><ele>66.5</ele><time>2026-04-25T17:57:39.132Z</time></trkpt><trkpt lat="45.6634152" lon="11.5996191"><ele>67.0</ele><time>2026-04-25T17:57:42.133Z</time></trkpt><trkpt lat="45.6633668" lon="11.599541"><ele>67.5</ele><time>2026-04-25T17:57:45.132Z</time></trkpt><trkpt lat="45.6633897" lon="11.5994387"><ele>68.0</ele><time>2026-04-25T17:57:47.132Z</time></trkpt><trkpt lat="45.6634099" lon="11.5993262"><ele>68.5</ele><time>2026-04-25T17:57:50.132Z</time></trkpt><trkpt lat="45.663419" lon="11.5992274"><ele>69.0</ele><time>2026-04-25T17:57:53.132Z</time></trkpt><trkpt lat="45.663432" lon="11.5991332"><ele>69.16666666666667</ele><time>2026-04-25T17:57:57.132Z</time></trkpt><trkpt lat="45.6634362" lon="11.5989952"><ele>69.33333333333333</ele><time>2026-04-25T17:58:01.132Z</time></trkpt><trkpt lat="45.6634096" lon="11.5988794"><ele>69.5</ele><time>2026-04-25T17:58:03.133Z</time></trkpt><trkpt lat="45.663386" lon="11.5987932"><ele>69.66666666666666</ele><time>2026-04-25T17:58:05.132Z</time></trkpt><trkpt lat="45.6633239" lon="11.598766"><ele>69.83333333333333</ele><time>2026-04-25T17:58:07.132Z</time></trkpt><trkpt lat="45.6632359" lon="11.5987004"><ele>70.0</ele><time>2026-04-25T17:58:09.133Z</time></trkpt><trkpt lat="45.6631447" lon="11.5986222"><ele>70.16666666666666</ele><time>2026-04-25T17:58:11.133Z</time></trkpt><trkpt lat="45.6630772" lon="11.5985221"><ele>70.33333333333333</ele><time>2026-04-25T17:58:13.133Z</time></trkpt><trkpt lat="45.663007" lon="11.5984354"><ele>70.5</ele><time>2026-04-25T17:58:15.133Z</time></trkpt><trkpt lat="45.6629489" lon="11.5983758"><ele>70.66666666666667</ele><time>2026-04-25T17:58:16.134Z</time></trkpt><trkpt lat="45.6628726" lon="11.5982901"><ele>70.83333333333334</ele><time>2026-04-25T17:58:18.133Z</time></trkpt><trkpt lat="45.6628161" lon="11.5982006"><ele>71.0</ele><time>2026-04-25T17:58:20.134Z</time></trkpt><trkpt lat="45.6627424" lon="11.5981211"><ele>70.66666666666667</ele><time>2026-04-25T17:58:22.133Z</time></trkpt><trkpt lat="45.6626498" lon="11.5980441"><ele>70.33333333333334</ele><time>2026-04-25T17:58:24.133Z</time></trkpt><trkpt lat="45.6625821" lon="11.5979506"><ele>70.0</ele><time>2026-04-25T17:58:26.134Z</time></trkpt><trkpt lat="45.6625192" lon="11.5978765"><ele>69.66666666666667</ele><time>2026-04-25T17:58:28.133Z</time></trkpt><trkpt lat="45.6624487" lon="11.5978112"><ele>69.33333333333333</ele><time>2026-04-25T17:58:30.133Z</time></trkpt><trkpt lat="45.6623912" lon="11.5977511"><ele>69.0</ele><time>2026-04-25T17:58:32.134Z</time></trkpt><trkpt lat="45.662318" lon="11.5976718"><ele>68.66666666666667</ele><time>2026-04-25T17:58:34.134Z</time></trkpt><trkpt lat="45.6622442" lon="11.5975958"><ele>68.33333333333333</ele><time>2026-04-25T17:58:36.133Z</time></trkpt><trkpt lat="45.6621721" lon="11.5975306"><ele>68.0</ele><time>2026-04-25T17:58:38.133Z</time></trkpt><trkpt lat="45.6621178" lon="11.5974495"><ele>67.66666666666666</ele><time>2026-04-25T17:58:40.133Z</time></trkpt><trkpt lat="45.6620553" lon="11.5973833"><ele>67.33333333333333</ele><time>2026-04-25T17:58:42.134Z</time></trkpt><trkpt lat="45.6619872" lon="11.5973278"><ele>67.0</ele><time>2026-04-25T17:58:44.134Z</time></trkpt><trkpt lat="45.66195" lon="11.5972397"><ele>67.0</ele><time>2026-04-25T17:58:46.133Z</time></trkpt><trkpt lat="45.6619498" lon="11.5971252"><ele>67.0</ele><time>2026-04-25T17:58:48.133Z</time></trkpt><trkpt lat="45.6619637" lon="11.5970001"><ele>67.0</ele><time>2026-04-25T17:58:50.133Z</time></trkpt><trkpt lat="45.6619819" lon="11.5968643"><ele>67.0</ele><time>2026-04-25T17:58:52.134Z</time></trkpt><trkpt lat="45.6619809" lon="11.596737"><ele>67.0</ele><time>2026-04-25T17:58:54.133Z</time></trkpt><trkpt lat="45.6619585" lon="11.596621"><ele>67.0</ele><time>2026-04-25T17:58:56.133Z</time></trkpt><trkpt lat="45.6619335" lon="11.5965238"><ele>67.28571428571429</ele><time>2026-04-25T17:58:58.133Z</time></trkpt><trkpt lat="45.6619287" lon="11.5964261"><ele>67.57142857142857</ele><time>2026-04-25T17:59:00.133Z</time></trkpt><trkpt lat="45.6619005" lon="11.596344"><ele>67.85714285714286</ele><time>2026-04-25T17:59:02.133Z</time></trkpt><trkpt lat="45.6618668" lon="11.596263"><ele>68.14285714285714</ele><time>2026-04-25T17:59:04.133Z</time></trkpt><trkpt lat="45.6618056" lon="11.5962276"><ele>68.42857142857143</ele><time>2026-04-25T17:59:06.134Z</time></trkpt><trkpt lat="45.6617212" lon="11.5962126"><ele>68.71428571428572</ele><time>2026-04-25T17:59:08.134Z</time></trkpt><trkpt lat="45.6616918" lon="11.5961212"><ele>69.0</ele><time>2026-04-25T17:59:10.135Z</time></trkpt><trkpt lat="45.6617108" lon="11.5960228"><ele>69.0</ele><time>2026-04-25T17:59:12.134Z</time></trkpt><trkpt lat="45.6617302" lon="11.5959109"><ele>69.0</ele><time>2026-04-25T17:59:14.134Z</time></trkpt><trkpt lat="45.661755" lon="11.5957937"><ele>69.0</ele><time>2026-04-25T17:59:16.134Z</time></trkpt><trkpt lat="45.6617899" lon="11.5956604"><ele>69.0</ele><time>2026-04-25T17:59:18.134Z</time></trkpt><trkpt lat="45.661805" lon="11.5955448"><ele>69.0</ele><time>2026-04-25T17:59:20.134Z</time></trkpt><trkpt lat="45.6618137" lon="11.5954153"><ele>69.0</ele><time>2026-04-25T17:59:22.134Z</time></trkpt><trkpt lat="45.6618451" lon="11.5953059"><ele>69.0</ele><time>2026-04-25T17:59:24.134Z</time></trkpt><trkpt lat="45.6618707" lon="11.595191"><ele>69.0</ele><time>2026-04-25T17:59:26.135Z</time></trkpt><trkpt lat="45.6618715" lon="11.5950633"><ele>69.0</ele><time>2026-04-25T17:59:28.134Z</time></trkpt><trkpt lat="45.6618698" lon="11.5949292"><ele>69.0</ele><time>2026-04-25T17:59:30.134Z</time></trkpt><trkpt lat="45.6618864" lon="11.5948087"><ele>69.0</ele><time>2026-04-25T17:59:32.134Z</time></trkpt><trkpt lat="45.6619173" lon="11.594691"><ele>69.0</ele><time>2026-04-25T17:59:34.134Z</time></trkpt><trkpt lat="45.6619326" lon="11.5945789"><ele>68.83333333333333</ele><time>2026-04-25T17:59:36.134Z</time></trkpt><trkpt lat="45.6619454" lon="11.5944659"><ele>68.66666666666667</ele><time>2026-04-25T17:59:38.134Z</time></trkpt><trkpt lat="45.6619242" lon="11.5943436"><ele>68.5</ele><time>2026-04-25T17:59:41.134Z</time></trkpt><trkpt lat="45.6618708" lon="11.5942374"><ele>68.33333333333334</ele><time>2026-04-25T17:59:44.134Z</time></trkpt><trkpt lat="45.6617995" lon="11.594213"><ele>68.16666666666667</ele><time>2026-04-25T17:59:47.134Z</time></trkpt><trkpt lat="45.6617109" lon="11.594212"><ele>68.0</ele><time>2026-04-25T17:59:50.135Z</time></trkpt><trkpt lat="45.66161" lon="11.5942314"><ele>68.0</ele><time>2026-04-25T17:59:53.134Z</time></trkpt><trkpt lat="45.6615518" lon="11.5943107"><ele>68.0</ele><time>2026-04-25T17:59:55.135Z</time></trkpt><trkpt lat="45.6614809" lon="11.594329"><ele>68.0</ele><time>2026-04-25T17:59:57.134Z</time></trkpt><trkpt lat="45.6614184" lon="11.5942772"><ele>68.0</ele><time>2026-04-25T17:59:59.134Z</time></trkpt><trkpt lat="45.6613422" lon="11.5942611"><ele>68.0</ele><time>2026-04-25T18:00:01.134Z</time></trkpt><trkpt lat="45.6612702" lon="11.5942658"><ele>68.0</ele><time>2026-04-25T18:00:04.135Z</time></trkpt><trkpt lat="45.6611922" lon="11.5942359"><ele>67.99999999999999</ele><time>2026-04-25T18:00:07.135Z</time></trkpt><trkpt lat="45.6611345" lon="11.5941747"><ele>68.0</ele><time>2026-04-25T18:00:10.135Z</time></trkpt><trkpt lat="45.6611402" lon="11.5940837"><ele>68.0</ele><time>2026-04-25T18:00:12.135Z</time></trkpt><trkpt lat="45.6611689" lon="11.5940008"><ele>68.0</ele><time>2026-04-25T18:00:14.135Z</time></trkpt><trkpt lat="45.6611953" lon="11.593915"><ele>68.0</ele><time>2026-04-25T18:00:16.135Z</time></trkpt><trkpt lat="45.6612072" lon="11.5938065"><ele>67.99999999999999</ele><time>2026-04-25T18:00:18.135Z</time></trkpt><trkpt lat="45.6612352" lon="11.5936813"><ele>68.0</ele><time>2026-04-25T18:00:21.135Z</time></trkpt><trkpt lat="45.6612952" lon="11.5936408"><ele>66.0</ele><time>2026-04-25T18:00:24.135Z</time></trkpt><trkpt lat="45.6613601" lon="11.5936737"><ele>68.0</ele><time>2026-04-25T18:00:41.135Z</time></trkpt><trkpt lat="45.6614255" lon="11.5937298"><ele>68.0</ele><time>2026-04-25T18:01:23.136Z</time></trkpt></trkseg></trk></gpx>